<?xml version="1.0" encoding="UTF-8" ?>
<gpx version="1.1" xmlns:xsi="http://www.w3.org/2001/XMLSchema-instance"
    xmlns="http://www.topografix.com/GPX/1/1"
    xsi:schemaLocation="http://www.topografix.com/GPX/1/1 http://www.topografix.com/GPX/1/1/gpx.xsd" >	<trk>
	                   <name>GT6 Val d&#039;Orcia road Patrimonio Mondiale-20645813</name>
						<trkseg>
					<trkpt lat="43.004270" lon="11.616390">
						<ele>527</ele>
						<time>2026-05-04T15:33:01Z</time>
					</trkpt>
					<trkpt lat="43.004170" lon="11.616400">
						<ele>526</ele>
						<time>2026-05-04T15:33:03Z</time>
					</trkpt>
					<trkpt lat="43.004030" lon="11.616390">
						<ele>525</ele>
						<time>2026-05-04T15:33:05Z</time>
					</trkpt>
					<trkpt lat="43.003920" lon="11.616360">
						<ele>525</ele>
						<time>2026-05-04T15:33:07Z</time>
					</trkpt>
					<trkpt lat="43.003720" lon="11.616250">
						<ele>524</ele>
						<time>2026-05-04T15:33:11Z</time>
					</trkpt>
					<trkpt lat="43.003650" lon="11.616240">
						<ele>523</ele>
						<time>2026-05-04T15:33:12Z</time>
					</trkpt>
					<trkpt lat="43.003620" lon="11.616200">
						<ele>523</ele>
						<time>2026-05-04T15:33:13Z</time>
					</trkpt>
					<trkpt lat="43.003560" lon="11.616130">
						<ele>523</ele>
						<time>2026-05-04T15:33:15Z</time>
					</trkpt>
					<trkpt lat="43.003460" lon="11.616000">
						<ele>523</ele>
						<time>2026-05-04T15:33:17Z</time>
					</trkpt>
					<trkpt lat="43.003410" lon="11.615900">
						<ele>523</ele>
						<time>2026-05-04T15:33:19Z</time>
					</trkpt>
					<trkpt lat="43.003100" lon="11.615030">
						<ele>524</ele>
						<time>2026-05-04T15:33:31Z</time>
					</trkpt>
					<trkpt lat="43.003050" lon="11.614930">
						<ele>525</ele>
						<time>2026-05-04T15:33:33Z</time>
					</trkpt>
					<trkpt lat="43.002990" lon="11.614810">
						<ele>526</ele>
						<time>2026-05-04T15:33:35Z</time>
					</trkpt>
					<trkpt lat="43.002930" lon="11.614720">
						<ele>526</ele>
						<time>2026-05-04T15:33:36Z</time>
					</trkpt>
					<trkpt lat="43.002630" lon="11.614290">
						<ele>529</ele>
						<time>2026-05-04T15:33:44Z</time>
					</trkpt>
					<trkpt lat="43.002480" lon="11.614100">
						<ele>531</ele>
						<time>2026-05-04T15:33:48Z</time>
					</trkpt>
					<trkpt lat="43.002140" lon="11.613730">
						<ele>538</ele>
						<time>2026-05-04T15:33:55Z</time>
					</trkpt>
					<trkpt lat="43.001950" lon="11.613560">
						<ele>541</ele>
						<time>2026-05-04T15:33:59Z</time>
					</trkpt>
					<trkpt lat="43.001840" lon="11.613470">
						<ele>543</ele>
						<time>2026-05-04T15:34:02Z</time>
					</trkpt>
					<trkpt lat="43.001550" lon="11.613300">
						<ele>547</ele>
						<time>2026-05-04T15:34:07Z</time>
					</trkpt>
					<trkpt lat="43.001320" lon="11.613110">
						<ele>550</ele>
						<time>2026-05-04T15:34:12Z</time>
					</trkpt>
					<trkpt lat="43.001230" lon="11.613000">
						<ele>551</ele>
						<time>2026-05-04T15:34:14Z</time>
					</trkpt>
					<trkpt lat="43.001060" lon="11.612740">
						<ele>554</ele>
						<time>2026-05-04T15:34:19Z</time>
					</trkpt>
					<trkpt lat="43.000930" lon="11.612480">
						<ele>557</ele>
						<time>2026-05-04T15:34:23Z</time>
					</trkpt>
					<trkpt lat="43.000880" lon="11.612410">
						<ele>558</ele>
						<time>2026-05-04T15:34:24Z</time>
					</trkpt>
					<trkpt lat="43.000820" lon="11.612340">
						<ele>558</ele>
						<time>2026-05-04T15:34:25Z</time>
					</trkpt>
					<trkpt lat="43.000530" lon="11.612050">
						<ele>559</ele>
						<time>2026-05-04T15:34:32Z</time>
					</trkpt>
					<trkpt lat="43.000390" lon="11.611900">
						<ele>559</ele>
						<time>2026-05-04T15:34:35Z</time>
					</trkpt>
					<trkpt lat="43.000210" lon="11.611660">
						<ele>560</ele>
						<time>2026-05-04T15:34:39Z</time>
					</trkpt>
					<trkpt lat="43.000060" lon="11.611430">
						<ele>561</ele>
						<time>2026-05-04T15:34:44Z</time>
					</trkpt>
					<trkpt lat="42.999920" lon="11.611200">
						<ele>562</ele>
						<time>2026-05-04T15:34:47Z</time>
					</trkpt>
					<trkpt lat="42.999800" lon="11.610940">
						<ele>563</ele>
						<time>2026-05-04T15:34:51Z</time>
					</trkpt>
					<trkpt lat="42.999580" lon="11.610450">
						<ele>563</ele>
						<time>2026-05-04T15:34:59Z</time>
					</trkpt>
					<trkpt lat="42.999530" lon="11.610320">
						<ele>563</ele>
						<time>2026-05-04T15:35:01Z</time>
					</trkpt>
					<trkpt lat="42.999500" lon="11.610180">
						<ele>563</ele>
						<time>2026-05-04T15:35:03Z</time>
					</trkpt>
					<trkpt lat="42.999480" lon="11.610030">
						<ele>563</ele>
						<time>2026-05-04T15:35:05Z</time>
					</trkpt>
					<trkpt lat="42.999470" lon="11.609850">
						<ele>564</ele>
						<time>2026-05-04T15:35:07Z</time>
					</trkpt>
					<trkpt lat="42.999470" lon="11.609760">
						<ele>564</ele>
						<time>2026-05-04T15:35:08Z</time>
					</trkpt>
					<trkpt lat="42.999480" lon="11.609570">
						<ele>565</ele>
						<time>2026-05-04T15:35:11Z</time>
					</trkpt>
					<trkpt lat="42.999510" lon="11.608900">
						<ele>568</ele>
						<time>2026-05-04T15:35:19Z</time>
					</trkpt>
					<trkpt lat="42.999510" lon="11.608670">
						<ele>569</ele>
						<time>2026-05-04T15:35:22Z</time>
					</trkpt>
					<trkpt lat="42.999480" lon="11.608520">
						<ele>569</ele>
						<time>2026-05-04T15:35:24Z</time>
					</trkpt>
					<trkpt lat="42.999460" lon="11.608450">
						<ele>569</ele>
						<time>2026-05-04T15:35:25Z</time>
					</trkpt>
					<trkpt lat="42.999400" lon="11.608330">
						<ele>569</ele>
						<time>2026-05-04T15:35:27Z</time>
					</trkpt>
					<trkpt lat="42.999310" lon="11.608190">
						<ele>569</ele>
						<time>2026-05-04T15:35:30Z</time>
					</trkpt>
					<trkpt lat="42.998670" lon="11.607490">
						<ele>568</ele>
						<time>2026-05-04T15:35:44Z</time>
					</trkpt>
					<trkpt lat="42.998270" lon="11.607060">
						<ele>570</ele>
						<time>2026-05-04T15:35:53Z</time>
					</trkpt>
					<trkpt lat="42.998000" lon="11.606780">
						<ele>574</ele>
						<time>2026-05-04T15:35:59Z</time>
					</trkpt>
					<trkpt lat="42.997930" lon="11.606720">
						<ele>575</ele>
						<time>2026-05-04T15:36:01Z</time>
					</trkpt>
					<trkpt lat="42.997860" lon="11.606660">
						<ele>576</ele>
						<time>2026-05-04T15:36:02Z</time>
					</trkpt>
					<trkpt lat="42.997750" lon="11.606610">
						<ele>578</ele>
						<time>2026-05-04T15:36:04Z</time>
					</trkpt>
					<trkpt lat="42.997150" lon="11.606410">
						<ele>581</ele>
						<time>2026-05-04T15:36:15Z</time>
					</trkpt>
					<trkpt lat="42.996950" lon="11.606330">
						<ele>581</ele>
						<time>2026-05-04T15:36:19Z</time>
					</trkpt>
					<trkpt lat="42.996870" lon="11.606280">
						<ele>582</ele>
						<time>2026-05-04T15:36:21Z</time>
					</trkpt>
					<trkpt lat="42.996720" lon="11.606170">
						<ele>582</ele>
						<time>2026-05-04T15:36:24Z</time>
					</trkpt>
					<trkpt lat="42.996270" lon="11.605800">
						<ele>586</ele>
						<time>2026-05-04T15:36:33Z</time>
					</trkpt>
					<trkpt lat="42.996150" lon="11.605690">
						<ele>587</ele>
						<time>2026-05-04T15:36:36Z</time>
					</trkpt>
					<trkpt lat="42.996050" lon="11.605570">
						<ele>587</ele>
						<time>2026-05-04T15:36:38Z</time>
					</trkpt>
					<trkpt lat="42.995730" lon="11.605080">
						<ele>588</ele>
						<time>2026-05-04T15:36:47Z</time>
					</trkpt>
					<trkpt lat="42.995630" lon="11.604950">
						<ele>588</ele>
						<time>2026-05-04T15:36:49Z</time>
					</trkpt>
					<trkpt lat="42.995390" lon="11.604650">
						<ele>587</ele>
						<time>2026-05-04T15:36:55Z</time>
					</trkpt>
					<trkpt lat="42.995230" lon="11.604490">
						<ele>587</ele>
						<time>2026-05-04T15:36:58Z</time>
					</trkpt>
					<trkpt lat="42.995170" lon="11.604440">
						<ele>587</ele>
						<time>2026-05-04T15:37:00Z</time>
					</trkpt>
					<trkpt lat="42.995090" lon="11.604400">
						<ele>586</ele>
						<time>2026-05-04T15:37:01Z</time>
					</trkpt>
					<trkpt lat="42.995030" lon="11.604380">
						<ele>586</ele>
						<time>2026-05-04T15:37:02Z</time>
					</trkpt>
					<trkpt lat="42.994750" lon="11.604340">
						<ele>587</ele>
						<time>2026-05-04T15:37:07Z</time>
					</trkpt>
					<trkpt lat="42.994360" lon="11.604260">
						<ele>589</ele>
						<time>2026-05-04T15:37:14Z</time>
					</trkpt>
					<trkpt lat="42.993880" lon="11.604110">
						<ele>588</ele>
						<time>2026-05-04T15:37:23Z</time>
					</trkpt>
					<trkpt lat="42.993110" lon="11.603960">
						<ele>583</ele>
						<time>2026-05-04T15:37:37Z</time>
					</trkpt>
					<trkpt lat="42.992660" lon="11.603870">
						<ele>580</ele>
						<time>2026-05-04T15:37:45Z</time>
					</trkpt>
					<trkpt lat="42.992440" lon="11.603850">
						<ele>579</ele>
						<time>2026-05-04T15:37:49Z</time>
					</trkpt>
					<trkpt lat="42.991600" lon="11.603840">
						<ele>572</ele>
						<time>2026-05-04T15:38:04Z</time>
					</trkpt>
					<trkpt lat="42.991430" lon="11.603830">
						<ele>571</ele>
						<time>2026-05-04T15:38:07Z</time>
					</trkpt>
					<trkpt lat="42.991140" lon="11.603770">
						<ele>570</ele>
						<time>2026-05-04T15:38:12Z</time>
					</trkpt>
					<trkpt lat="42.990880" lon="11.603700">
						<ele>568</ele>
						<time>2026-05-04T15:38:17Z</time>
					</trkpt>
					<trkpt lat="42.990110" lon="11.603330">
						<ele>565</ele>
						<time>2026-05-04T15:38:31Z</time>
					</trkpt>
					<trkpt lat="42.989300" lon="11.602910">
						<ele>559</ele>
						<time>2026-05-04T15:38:47Z</time>
					</trkpt>
					<trkpt lat="42.987790" lon="11.602070">
						<ele>549</ele>
						<time>2026-05-04T15:39:16Z</time>
					</trkpt>
					<trkpt lat="42.987520" lon="11.601950">
						<ele>547</ele>
						<time>2026-05-04T15:39:21Z</time>
					</trkpt>
					<trkpt lat="42.986530" lon="11.601570">
						<ele>538</ele>
						<time>2026-05-04T15:39:39Z</time>
					</trkpt>
					<trkpt lat="42.986020" lon="11.601420">
						<ele>532</ele>
						<time>2026-05-04T15:39:48Z</time>
					</trkpt>
					<trkpt lat="42.985720" lon="11.601360">
						<ele>530</ele>
						<time>2026-05-04T15:39:54Z</time>
					</trkpt>
					<trkpt lat="42.985460" lon="11.601320">
						<ele>529</ele>
						<time>2026-05-04T15:39:58Z</time>
					</trkpt>
					<trkpt lat="42.984450" lon="11.601220">
						<ele>529</ele>
						<time>2026-05-04T15:40:16Z</time>
					</trkpt>
					<trkpt lat="42.983860" lon="11.601200">
						<ele>531</ele>
						<time>2026-05-04T15:40:27Z</time>
					</trkpt>
					<trkpt lat="42.983770" lon="11.601190">
						<ele>531</ele>
						<time>2026-05-04T15:40:28Z</time>
					</trkpt>
					<trkpt lat="42.983590" lon="11.601140">
						<ele>532</ele>
						<time>2026-05-04T15:40:32Z</time>
					</trkpt>
					<trkpt lat="42.983160" lon="11.600990">
						<ele>534</ele>
						<time>2026-05-04T15:40:40Z</time>
					</trkpt>
					<trkpt lat="42.982240" lon="11.600620">
						<ele>537</ele>
						<time>2026-05-04T15:40:57Z</time>
					</trkpt>
					<trkpt lat="42.982110" lon="11.600540">
						<ele>536</ele>
						<time>2026-05-04T15:40:59Z</time>
					</trkpt>
					<trkpt lat="42.981820" lon="11.600290">
						<ele>537</ele>
						<time>2026-05-04T15:41:05Z</time>
					</trkpt>
					<trkpt lat="42.981680" lon="11.600230">
						<ele>537</ele>
						<time>2026-05-04T15:41:08Z</time>
					</trkpt>
					<trkpt lat="42.981640" lon="11.600220">
						<ele>537</ele>
						<time>2026-05-04T15:41:09Z</time>
					</trkpt>
					<trkpt lat="42.981570" lon="11.600210">
						<ele>537</ele>
						<time>2026-05-04T15:41:10Z</time>
					</trkpt>
					<trkpt lat="42.981460" lon="11.600240">
						<ele>537</ele>
						<time>2026-05-04T15:41:12Z</time>
					</trkpt>
					<trkpt lat="42.981090" lon="11.600400">
						<ele>537</ele>
						<time>2026-05-04T15:41:19Z</time>
					</trkpt>
					<trkpt lat="42.980910" lon="11.600460">
						<ele>537</ele>
						<time>2026-05-04T15:41:22Z</time>
					</trkpt>
					<trkpt lat="42.980740" lon="11.600500">
						<ele>538</ele>
						<time>2026-05-04T15:41:25Z</time>
					</trkpt>
					<trkpt lat="42.980640" lon="11.600510">
						<ele>539</ele>
						<time>2026-05-04T15:41:27Z</time>
					</trkpt>
					<trkpt lat="42.980490" lon="11.600510">
						<ele>540</ele>
						<time>2026-05-04T15:41:30Z</time>
					</trkpt>
					<trkpt lat="42.980130" lon="11.600460">
						<ele>543</ele>
						<time>2026-05-04T15:41:36Z</time>
					</trkpt>
					<trkpt lat="42.979790" lon="11.600360">
						<ele>547</ele>
						<time>2026-05-04T15:41:42Z</time>
					</trkpt>
					<trkpt lat="42.979460" lon="11.600250">
						<ele>551</ele>
						<time>2026-05-04T15:41:48Z</time>
					</trkpt>
					<trkpt lat="42.979270" lon="11.600210">
						<ele>553</ele>
						<time>2026-05-04T15:41:52Z</time>
					</trkpt>
					<trkpt lat="42.979080" lon="11.600210">
						<ele>556</ele>
						<time>2026-05-04T15:41:55Z</time>
					</trkpt>
					<trkpt lat="42.978880" lon="11.600190">
						<ele>558</ele>
						<time>2026-05-04T15:41:59Z</time>
					</trkpt>
					<trkpt lat="42.978800" lon="11.600160">
						<ele>558</ele>
						<time>2026-05-04T15:42:00Z</time>
					</trkpt>
					<trkpt lat="42.978720" lon="11.600110">
						<ele>559</ele>
						<time>2026-05-04T15:42:02Z</time>
					</trkpt>
					<trkpt lat="42.978490" lon="11.599960">
						<ele>561</ele>
						<time>2026-05-04T15:42:06Z</time>
					</trkpt>
					<trkpt lat="42.978160" lon="11.599770">
						<ele>563</ele>
						<time>2026-05-04T15:42:13Z</time>
					</trkpt>
					<trkpt lat="42.978030" lon="11.599660">
						<ele>563</ele>
						<time>2026-05-04T15:42:15Z</time>
					</trkpt>
					<trkpt lat="42.977940" lon="11.599560">
						<ele>563</ele>
						<time>2026-05-04T15:42:17Z</time>
					</trkpt>
					<trkpt lat="42.977910" lon="11.599560">
						<ele>564</ele>
						<time>2026-05-04T15:42:18Z</time>
					</trkpt>
					<trkpt lat="42.977860" lon="11.599500">
						<ele>564</ele>
						<time>2026-05-04T15:42:19Z</time>
					</trkpt>
					<trkpt lat="42.977800" lon="11.599460">
						<ele>564</ele>
						<time>2026-05-04T15:42:20Z</time>
					</trkpt>
					<trkpt lat="42.977740" lon="11.599460">
						<ele>565</ele>
						<time>2026-05-04T15:42:21Z</time>
					</trkpt>
					<trkpt lat="42.977670" lon="11.599470">
						<ele>565</ele>
						<time>2026-05-04T15:42:23Z</time>
					</trkpt>
					<trkpt lat="42.977600" lon="11.599510">
						<ele>566</ele>
						<time>2026-05-04T15:42:24Z</time>
					</trkpt>
					<trkpt lat="42.977480" lon="11.599530">
						<ele>567</ele>
						<time>2026-05-04T15:42:26Z</time>
					</trkpt>
					<trkpt lat="42.976790" lon="11.599450">
						<ele>573</ele>
						<time>2026-05-04T15:42:38Z</time>
					</trkpt>
					<trkpt lat="42.976410" lon="11.599390">
						<ele>577</ele>
						<time>2026-05-04T15:42:45Z</time>
					</trkpt>
					<trkpt lat="42.976300" lon="11.599360">
						<ele>578</ele>
						<time>2026-05-04T15:42:47Z</time>
					</trkpt>
					<trkpt lat="42.976190" lon="11.599300">
						<ele>578</ele>
						<time>2026-05-04T15:42:49Z</time>
					</trkpt>
					<trkpt lat="42.976110" lon="11.599220">
						<ele>579</ele>
						<time>2026-05-04T15:42:51Z</time>
					</trkpt>
					<trkpt lat="42.976040" lon="11.599140">
						<ele>579</ele>
						<time>2026-05-04T15:42:53Z</time>
					</trkpt>
					<trkpt lat="42.975920" lon="11.599000">
						<ele>580</ele>
						<time>2026-05-04T15:42:56Z</time>
					</trkpt>
					<trkpt lat="42.975580" lon="11.598670">
						<ele>585</ele>
						<time>2026-05-04T15:43:03Z</time>
					</trkpt>
					<trkpt lat="42.975520" lon="11.598590">
						<ele>585</ele>
						<time>2026-05-04T15:43:04Z</time>
					</trkpt>
					<trkpt lat="42.975480" lon="11.598500">
						<ele>585</ele>
						<time>2026-05-04T15:43:06Z</time>
					</trkpt>
					<trkpt lat="42.975450" lon="11.598390">
						<ele>585</ele>
						<time>2026-05-04T15:43:07Z</time>
					</trkpt>
					<trkpt lat="42.975430" lon="11.598270">
						<ele>584</ele>
						<time>2026-05-04T15:43:09Z</time>
					</trkpt>
					<trkpt lat="42.975390" lon="11.597920">
						<ele>582</ele>
						<time>2026-05-04T15:43:14Z</time>
					</trkpt>
					<trkpt lat="42.975360" lon="11.597810">
						<ele>582</ele>
						<time>2026-05-04T15:43:15Z</time>
					</trkpt>
					<trkpt lat="42.975340" lon="11.597760">
						<ele>582</ele>
						<time>2026-05-04T15:43:16Z</time>
					</trkpt>
					<trkpt lat="42.975280" lon="11.597700">
						<ele>582</ele>
						<time>2026-05-04T15:43:17Z</time>
					</trkpt>
					<trkpt lat="42.975210" lon="11.597670">
						<ele>583</ele>
						<time>2026-05-04T15:43:18Z</time>
					</trkpt>
					<trkpt lat="42.975150" lon="11.597660">
						<ele>583</ele>
						<time>2026-05-04T15:43:20Z</time>
					</trkpt>
					<trkpt lat="42.975090" lon="11.597680">
						<ele>584</ele>
						<time>2026-05-04T15:43:21Z</time>
					</trkpt>
					<trkpt lat="42.975000" lon="11.597760">
						<ele>586</ele>
						<time>2026-05-04T15:43:23Z</time>
					</trkpt>
					<trkpt lat="42.974960" lon="11.597840">
						<ele>588</ele>
						<time>2026-05-04T15:43:24Z</time>
					</trkpt>
					<trkpt lat="42.974940" lon="11.597880">
						<ele>588</ele>
						<time>2026-05-04T15:43:24Z</time>
					</trkpt>
					<trkpt lat="42.974940" lon="11.597970">
						<ele>589</ele>
						<time>2026-05-04T15:43:26Z</time>
					</trkpt>
					<trkpt lat="42.974950" lon="11.598090">
						<ele>590</ele>
						<time>2026-05-04T15:43:27Z</time>
					</trkpt>
					<trkpt lat="42.975110" lon="11.598860">
						<ele>597</ele>
						<time>2026-05-04T15:43:38Z</time>
					</trkpt>
					<trkpt lat="42.975150" lon="11.599070">
						<ele>599</ele>
						<time>2026-05-04T15:43:40Z</time>
					</trkpt>
					<trkpt lat="42.975160" lon="11.599250">
						<ele>600</ele>
						<time>2026-05-04T15:43:43Z</time>
					</trkpt>
					<trkpt lat="42.975140" lon="11.599510">
						<ele>600</ele>
						<time>2026-05-04T15:43:46Z</time>
					</trkpt>
					<trkpt lat="42.975120" lon="11.599680">
						<ele>601</ele>
						<time>2026-05-04T15:43:48Z</time>
					</trkpt>
					<trkpt lat="42.975070" lon="11.599800">
						<ele>602</ele>
						<time>2026-05-04T15:43:50Z</time>
					</trkpt>
					<trkpt lat="42.974970" lon="11.599980">
						<ele>604</ele>
						<time>2026-05-04T15:43:53Z</time>
					</trkpt>
					<trkpt lat="42.974860" lon="11.600150">
						<ele>604</ele>
						<time>2026-05-04T15:43:56Z</time>
					</trkpt>
					<trkpt lat="42.974760" lon="11.600280">
						<ele>605</ele>
						<time>2026-05-04T15:43:59Z</time>
					</trkpt>
					<trkpt lat="42.974610" lon="11.600410">
						<ele>607</ele>
						<time>2026-05-04T15:44:02Z</time>
					</trkpt>
					<trkpt lat="42.973980" lon="11.600800">
						<ele>618</ele>
						<time>2026-05-04T15:44:14Z</time>
					</trkpt>
					<trkpt lat="42.973850" lon="11.600900">
						<ele>620</ele>
						<time>2026-05-04T15:44:17Z</time>
					</trkpt>
					<trkpt lat="42.973820" lon="11.600950">
						<ele>621</ele>
						<time>2026-05-04T15:44:18Z</time>
					</trkpt>
					<trkpt lat="42.973740" lon="11.601110">
						<ele>621</ele>
						<time>2026-05-04T15:44:20Z</time>
					</trkpt>
					<trkpt lat="42.973440" lon="11.601740">
						<ele>625</ele>
						<time>2026-05-04T15:44:30Z</time>
					</trkpt>
					<trkpt lat="42.973350" lon="11.601880">
						<ele>627</ele>
						<time>2026-05-04T15:44:32Z</time>
					</trkpt>
					<trkpt lat="42.973220" lon="11.602030">
						<ele>627</ele>
						<time>2026-05-04T15:44:35Z</time>
					</trkpt>
					<trkpt lat="42.973000" lon="11.602190">
						<ele>628</ele>
						<time>2026-05-04T15:44:40Z</time>
					</trkpt>
					<trkpt lat="42.972880" lon="11.602250">
						<ele>628</ele>
						<time>2026-05-04T15:44:42Z</time>
					</trkpt>
					<trkpt lat="42.972630" lon="11.602340">
						<ele>630</ele>
						<time>2026-05-04T15:44:47Z</time>
					</trkpt>
					<trkpt lat="42.972440" lon="11.602390">
						<ele>632</ele>
						<time>2026-05-04T15:44:50Z</time>
					</trkpt>
					<trkpt lat="42.972230" lon="11.602400">
						<ele>635</ele>
						<time>2026-05-04T15:44:54Z</time>
					</trkpt>
					<trkpt lat="42.972100" lon="11.602390">
						<ele>637</ele>
						<time>2026-05-04T15:44:56Z</time>
					</trkpt>
					<trkpt lat="42.971990" lon="11.602400">
						<ele>638</ele>
						<time>2026-05-04T15:44:58Z</time>
					</trkpt>
					<trkpt lat="42.971910" lon="11.602440">
						<ele>638</ele>
						<time>2026-05-04T15:45:00Z</time>
					</trkpt>
					<trkpt lat="42.971840" lon="11.602500">
						<ele>639</ele>
						<time>2026-05-04T15:45:01Z</time>
					</trkpt>
					<trkpt lat="42.971720" lon="11.602650">
						<ele>640</ele>
						<time>2026-05-04T15:45:04Z</time>
					</trkpt>
					<trkpt lat="42.971650" lon="11.602780">
						<ele>640</ele>
						<time>2026-05-04T15:45:06Z</time>
					</trkpt>
					<trkpt lat="42.971610" lon="11.602900">
						<ele>641</ele>
						<time>2026-05-04T15:45:08Z</time>
					</trkpt>
					<trkpt lat="42.971600" lon="11.602970">
						<ele>641</ele>
						<time>2026-05-04T15:45:09Z</time>
					</trkpt>
					<trkpt lat="42.971570" lon="11.603270">
						<ele>641</ele>
						<time>2026-05-04T15:45:13Z</time>
					</trkpt>
					<trkpt lat="42.971550" lon="11.603420">
						<ele>640</ele>
						<time>2026-05-04T15:45:15Z</time>
					</trkpt>
					<trkpt lat="42.971500" lon="11.603560">
						<ele>641</ele>
						<time>2026-05-04T15:45:17Z</time>
					</trkpt>
					<trkpt lat="42.971460" lon="11.603640">
						<ele>641</ele>
						<time>2026-05-04T15:45:18Z</time>
					</trkpt>
					<trkpt lat="42.971360" lon="11.603790">
						<ele>643</ele>
						<time>2026-05-04T15:45:21Z</time>
					</trkpt>
					<trkpt lat="42.971200" lon="11.603970">
						<ele>646</ele>
						<time>2026-05-04T15:45:24Z</time>
					</trkpt>
					<trkpt lat="42.970550" lon="11.604630">
						<ele>653</ele>
						<time>2026-05-04T15:45:39Z</time>
					</trkpt>
					<trkpt lat="42.970250" lon="11.604940">
						<ele>657</ele>
						<time>2026-05-04T15:45:45Z</time>
					</trkpt>
					<trkpt lat="42.969910" lon="11.605280">
						<ele>660</ele>
						<time>2026-05-04T15:45:53Z</time>
					</trkpt>
					<trkpt lat="42.969520" lon="11.605620">
						<ele>659</ele>
						<time>2026-05-04T15:46:01Z</time>
					</trkpt>
					<trkpt lat="42.969300" lon="11.605760">
						<ele>659</ele>
						<time>2026-05-04T15:46:05Z</time>
					</trkpt>
					<trkpt lat="42.969170" lon="11.605920">
						<ele>661</ele>
						<time>2026-05-04T15:46:08Z</time>
					</trkpt>
					<trkpt lat="42.968990" lon="11.606210">
						<ele>659</ele>
						<time>2026-05-04T15:46:13Z</time>
					</trkpt>
					<trkpt lat="42.968920" lon="11.606560">
						<ele>660</ele>
						<time>2026-05-04T15:46:18Z</time>
					</trkpt>
					<trkpt lat="42.968880" lon="11.607050">
						<ele>663</ele>
						<time>2026-05-04T15:46:25Z</time>
					</trkpt>
					<trkpt lat="42.968930" lon="11.609130">
						<ele>672</ele>
						<time>2026-05-04T15:46:52Z</time>
					</trkpt>
					<trkpt lat="42.968910" lon="11.609570">
						<ele>673</ele>
						<time>2026-05-04T15:46:57Z</time>
					</trkpt>
					<trkpt lat="42.968870" lon="11.609910">
						<ele>675</ele>
						<time>2026-05-04T15:47:02Z</time>
					</trkpt>
					<trkpt lat="42.968480" lon="11.612780">
						<ele>672</ele>
						<time>2026-05-04T15:47:40Z</time>
					</trkpt>
					<trkpt lat="42.968440" lon="11.613690">
						<ele>671</ele>
						<time>2026-05-04T15:47:52Z</time>
					</trkpt>
					<trkpt lat="42.968360" lon="11.613900">
						<ele>672</ele>
						<time>2026-05-04T15:47:55Z</time>
					</trkpt>
					<trkpt lat="42.968230" lon="11.614050">
						<ele>671</ele>
						<time>2026-05-04T15:47:58Z</time>
					</trkpt>
					<trkpt lat="42.967860" lon="11.614220">
						<ele>665</ele>
						<time>2026-05-04T15:48:05Z</time>
					</trkpt>
					<trkpt lat="42.967750" lon="11.614390">
						<ele>665</ele>
						<time>2026-05-04T15:48:08Z</time>
					</trkpt>
					<trkpt lat="42.967650" lon="11.614590">
						<ele>665</ele>
						<time>2026-05-04T15:48:11Z</time>
					</trkpt>
					<trkpt lat="42.967600" lon="11.614860">
						<ele>666</ele>
						<time>2026-05-04T15:48:15Z</time>
					</trkpt>
					<trkpt lat="42.967580" lon="11.615180">
						<ele>666</ele>
						<time>2026-05-04T15:48:19Z</time>
					</trkpt>
					<trkpt lat="42.967600" lon="11.615510">
						<ele>665</ele>
						<time>2026-05-04T15:48:23Z</time>
					</trkpt>
					<trkpt lat="42.967600" lon="11.615710">
						<ele>664</ele>
						<time>2026-05-04T15:48:26Z</time>
					</trkpt>
					<trkpt lat="42.967600" lon="11.615890">
						<ele>663</ele>
						<time>2026-05-04T15:48:28Z</time>
					</trkpt>
					<trkpt lat="42.967520" lon="11.616180">
						<ele>661</ele>
						<time>2026-05-04T15:48:32Z</time>
					</trkpt>
					<trkpt lat="42.967420" lon="11.616350">
						<ele>660</ele>
						<time>2026-05-04T15:48:35Z</time>
					</trkpt>
					<trkpt lat="42.967320" lon="11.616450">
						<ele>660</ele>
						<time>2026-05-04T15:48:37Z</time>
					</trkpt>
					<trkpt lat="42.967070" lon="11.616560">
						<ele>659</ele>
						<time>2026-05-04T15:48:42Z</time>
					</trkpt>
					<trkpt lat="42.966560" lon="11.616720">
						<ele>660</ele>
						<time>2026-05-04T15:48:51Z</time>
					</trkpt>
					<trkpt lat="42.966270" lon="11.616990">
						<ele>661</ele>
						<time>2026-05-04T15:48:57Z</time>
					</trkpt>
					<trkpt lat="42.966090" lon="11.617170">
						<ele>661</ele>
						<time>2026-05-04T15:49:01Z</time>
					</trkpt>
					<trkpt lat="42.965870" lon="11.617320">
						<ele>661</ele>
						<time>2026-05-04T15:49:06Z</time>
					</trkpt>
					<trkpt lat="42.965630" lon="11.617360">
						<ele>662</ele>
						<time>2026-05-04T15:49:10Z</time>
					</trkpt>
					<trkpt lat="42.965160" lon="11.617400">
						<ele>662</ele>
						<time>2026-05-04T15:49:18Z</time>
					</trkpt>
					<trkpt lat="42.964880" lon="11.617500">
						<ele>661</ele>
						<time>2026-05-04T15:49:23Z</time>
					</trkpt>
					<trkpt lat="42.964530" lon="11.617580">
						<ele>659</ele>
						<time>2026-05-04T15:49:30Z</time>
					</trkpt>
					<trkpt lat="42.964010" lon="11.617490">
						<ele>661</ele>
						<time>2026-05-04T15:49:39Z</time>
					</trkpt>
					<trkpt lat="42.963930" lon="11.617490">
						<ele>662</ele>
						<time>2026-05-04T15:49:41Z</time>
					</trkpt>
					<trkpt lat="42.963780" lon="11.617510">
						<ele>662</ele>
						<time>2026-05-04T15:49:43Z</time>
					</trkpt>
					<trkpt lat="42.963590" lon="11.617600">
						<ele>662</ele>
						<time>2026-05-04T15:49:47Z</time>
					</trkpt>
					<trkpt lat="42.963060" lon="11.617980">
						<ele>659</ele>
						<time>2026-05-04T15:49:57Z</time>
					</trkpt>
					<trkpt lat="42.962870" lon="11.618090">
						<ele>658</ele>
						<time>2026-05-04T15:50:01Z</time>
					</trkpt>
					<trkpt lat="42.962720" lon="11.618120">
						<ele>658</ele>
						<time>2026-05-04T15:50:04Z</time>
					</trkpt>
					<trkpt lat="42.962280" lon="11.618120">
						<ele>659</ele>
						<time>2026-05-04T15:50:12Z</time>
					</trkpt>
					<trkpt lat="42.962170" lon="11.618150">
						<ele>659</ele>
						<time>2026-05-04T15:50:14Z</time>
					</trkpt>
					<trkpt lat="42.962080" lon="11.618200">
						<ele>658</ele>
						<time>2026-05-04T15:50:15Z</time>
					</trkpt>
					<trkpt lat="42.961990" lon="11.618270">
						<ele>657</ele>
						<time>2026-05-04T15:50:17Z</time>
					</trkpt>
					<trkpt lat="42.961840" lon="11.618460">
						<ele>656</ele>
						<time>2026-05-04T15:50:21Z</time>
					</trkpt>
					<trkpt lat="42.961620" lon="11.618760">
						<ele>655</ele>
						<time>2026-05-04T15:50:26Z</time>
					</trkpt>
					<trkpt lat="42.961220" lon="11.619300">
						<ele>654</ele>
						<time>2026-05-04T15:50:36Z</time>
					</trkpt>
					<trkpt lat="42.961070" lon="11.619440">
						<ele>653</ele>
						<time>2026-05-04T15:50:40Z</time>
					</trkpt>
					<trkpt lat="42.960470" lon="11.619790">
						<ele>654</ele>
						<time>2026-05-04T15:50:51Z</time>
					</trkpt>
					<trkpt lat="42.960330" lon="11.619900">
						<ele>653</ele>
						<time>2026-05-04T15:50:54Z</time>
					</trkpt>
					<trkpt lat="42.960200" lon="11.620060">
						<ele>652</ele>
						<time>2026-05-04T15:50:57Z</time>
					</trkpt>
					<trkpt lat="42.959920" lon="11.620770">
						<ele>649</ele>
						<time>2026-05-04T15:51:08Z</time>
					</trkpt>
					<trkpt lat="42.959800" lon="11.621100">
						<ele>646</ele>
						<time>2026-05-04T15:51:13Z</time>
					</trkpt>
					<trkpt lat="42.959730" lon="11.621210">
						<ele>645</ele>
						<time>2026-05-04T15:51:14Z</time>
					</trkpt>
					<trkpt lat="42.959640" lon="11.621320">
						<ele>644</ele>
						<time>2026-05-04T15:51:17Z</time>
					</trkpt>
					<trkpt lat="42.959520" lon="11.621410">
						<ele>643</ele>
						<time>2026-05-04T15:51:19Z</time>
					</trkpt>
					<trkpt lat="42.959170" lon="11.621540">
						<ele>641</ele>
						<time>2026-05-04T15:51:25Z</time>
					</trkpt>
					<trkpt lat="42.959070" lon="11.621620">
						<ele>640</ele>
						<time>2026-05-04T15:51:28Z</time>
					</trkpt>
					<trkpt lat="42.959010" lon="11.621700">
						<ele>639</ele>
						<time>2026-05-04T15:51:29Z</time>
					</trkpt>
					<trkpt lat="42.958950" lon="11.621820">
						<ele>638</ele>
						<time>2026-05-04T15:51:31Z</time>
					</trkpt>
					<trkpt lat="42.958810" lon="11.622400">
						<ele>633</ele>
						<time>2026-05-04T15:51:39Z</time>
					</trkpt>
					<trkpt lat="42.958730" lon="11.622670">
						<ele>631</ele>
						<time>2026-05-04T15:51:43Z</time>
					</trkpt>
					<trkpt lat="42.958620" lon="11.622870">
						<ele>629</ele>
						<time>2026-05-04T15:51:46Z</time>
					</trkpt>
					<trkpt lat="42.958480" lon="11.623070">
						<ele>628</ele>
						<time>2026-05-04T15:51:50Z</time>
					</trkpt>
					<trkpt lat="42.957910" lon="11.623550">
						<ele>622</ele>
						<time>2026-05-04T15:52:01Z</time>
					</trkpt>
					<trkpt lat="42.957840" lon="11.623660">
						<ele>621</ele>
						<time>2026-05-04T15:52:03Z</time>
					</trkpt>
					<trkpt lat="42.957810" lon="11.623780">
						<ele>621</ele>
						<time>2026-05-04T15:52:05Z</time>
					</trkpt>
					<trkpt lat="42.957790" lon="11.623950">
						<ele>620</ele>
						<time>2026-05-04T15:52:07Z</time>
					</trkpt>
					<trkpt lat="42.957790" lon="11.624190">
						<ele>620</ele>
						<time>2026-05-04T15:52:10Z</time>
					</trkpt>
					<trkpt lat="42.957850" lon="11.625270">
						<ele>614</ele>
						<time>2026-05-04T15:52:24Z</time>
					</trkpt>
					<trkpt lat="42.957840" lon="11.625480">
						<ele>614</ele>
						<time>2026-05-04T15:52:27Z</time>
					</trkpt>
					<trkpt lat="42.957800" lon="11.625750">
						<ele>613</ele>
						<time>2026-05-04T15:52:31Z</time>
					</trkpt>
					<trkpt lat="42.957420" lon="11.627090">
						<ele>618</ele>
						<time>2026-05-04T15:52:49Z</time>
					</trkpt>
					<trkpt lat="42.957380" lon="11.627340">
						<ele>619</ele>
						<time>2026-05-04T15:52:53Z</time>
					</trkpt>
					<trkpt lat="42.957380" lon="11.627550">
						<ele>621</ele>
						<time>2026-05-04T15:52:56Z</time>
					</trkpt>
					<trkpt lat="42.957430" lon="11.628830">
						<ele>623</ele>
						<time>2026-05-04T15:53:12Z</time>
					</trkpt>
					<trkpt lat="42.957430" lon="11.628950">
						<ele>623</ele>
						<time>2026-05-04T15:53:14Z</time>
					</trkpt>
					<trkpt lat="42.957410" lon="11.629120">
						<ele>622</ele>
						<time>2026-05-04T15:53:16Z</time>
					</trkpt>
					<trkpt lat="42.957400" lon="11.629210">
						<ele>622</ele>
						<time>2026-05-04T15:53:17Z</time>
					</trkpt>
					<trkpt lat="42.957360" lon="11.629350">
						<ele>620</ele>
						<time>2026-05-04T15:53:19Z</time>
					</trkpt>
					<trkpt lat="42.957270" lon="11.629560">
						<ele>618</ele>
						<time>2026-05-04T15:53:22Z</time>
					</trkpt>
					<trkpt lat="42.957210" lon="11.629660">
						<ele>618</ele>
						<time>2026-05-04T15:53:24Z</time>
					</trkpt>
					<trkpt lat="42.956870" lon="11.630190">
						<ele>615</ele>
						<time>2026-05-04T15:53:33Z</time>
					</trkpt>
					<trkpt lat="42.956710" lon="11.630440">
						<ele>616</ele>
						<time>2026-05-04T15:53:38Z</time>
					</trkpt>
					<trkpt lat="42.956530" lon="11.630700">
						<ele>615</ele>
						<time>2026-05-04T15:53:42Z</time>
					</trkpt>
					<trkpt lat="42.956470" lon="11.630760">
						<ele>615</ele>
						<time>2026-05-04T15:53:44Z</time>
					</trkpt>
					<trkpt lat="42.956030" lon="11.631180">
						<ele>615</ele>
						<time>2026-05-04T15:53:53Z</time>
					</trkpt>
					<trkpt lat="42.955830" lon="11.631410">
						<ele>617</ele>
						<time>2026-05-04T15:53:58Z</time>
					</trkpt>
					<trkpt lat="42.955700" lon="11.631600">
						<ele>618</ele>
						<time>2026-05-04T15:54:01Z</time>
					</trkpt>
					<trkpt lat="42.955630" lon="11.631760">
						<ele>618</ele>
						<time>2026-05-04T15:54:04Z</time>
					</trkpt>
					<trkpt lat="42.955600" lon="11.631860">
						<ele>618</ele>
						<time>2026-05-04T15:54:05Z</time>
					</trkpt>
					<trkpt lat="42.955550" lon="11.632040">
						<ele>619</ele>
						<time>2026-05-04T15:54:07Z</time>
					</trkpt>
					<trkpt lat="42.955510" lon="11.632290">
						<ele>620</ele>
						<time>2026-05-04T15:54:11Z</time>
					</trkpt>
					<trkpt lat="42.955500" lon="11.632790">
						<ele>624</ele>
						<time>2026-05-04T15:54:17Z</time>
					</trkpt>
					<trkpt lat="42.955510" lon="11.634240">
						<ele>634</ele>
						<time>2026-05-04T15:54:36Z</time>
					</trkpt>
					<trkpt lat="42.955430" lon="11.634860">
						<ele>639</ele>
						<time>2026-05-04T15:54:44Z</time>
					</trkpt>
					<trkpt lat="42.955330" lon="11.635270">
						<ele>641</ele>
						<time>2026-05-04T15:54:50Z</time>
					</trkpt>
					<trkpt lat="42.955180" lon="11.635570">
						<ele>643</ele>
						<time>2026-05-04T15:54:55Z</time>
					</trkpt>
					<trkpt lat="42.954990" lon="11.635800">
						<ele>646</ele>
						<time>2026-05-04T15:54:59Z</time>
					</trkpt>
					<trkpt lat="42.954530" lon="11.636490">
						<ele>655</ele>
						<time>2026-05-04T15:55:11Z</time>
					</trkpt>
					<trkpt lat="42.954450" lon="11.636740">
						<ele>657</ele>
						<time>2026-05-04T15:55:15Z</time>
					</trkpt>
					<trkpt lat="42.954430" lon="11.637260">
						<ele>659</ele>
						<time>2026-05-04T15:55:22Z</time>
					</trkpt>
					<trkpt lat="42.954450" lon="11.637570">
						<ele>660</ele>
						<time>2026-05-04T15:55:26Z</time>
					</trkpt>
					<trkpt lat="42.954520" lon="11.637840">
						<ele>660</ele>
						<time>2026-05-04T15:55:30Z</time>
					</trkpt>
					<trkpt lat="42.955010" lon="11.638490">
						<ele>659</ele>
						<time>2026-05-04T15:55:42Z</time>
					</trkpt>
					<trkpt lat="42.955130" lon="11.638790">
						<ele>661</ele>
						<time>2026-05-04T15:55:46Z</time>
					</trkpt>
					<trkpt lat="42.955170" lon="11.639070">
						<ele>664</ele>
						<time>2026-05-04T15:55:50Z</time>
					</trkpt>
					<trkpt lat="42.955120" lon="11.639350">
						<ele>664</ele>
						<time>2026-05-04T15:55:54Z</time>
					</trkpt>
					<trkpt lat="42.955040" lon="11.639490">
						<ele>664</ele>
						<time>2026-05-04T15:55:56Z</time>
					</trkpt>
					<trkpt lat="42.954900" lon="11.639700">
						<ele>666</ele>
						<time>2026-05-04T15:56:00Z</time>
					</trkpt>
					<trkpt lat="42.954370" lon="11.640130">
						<ele>673</ele>
						<time>2026-05-04T15:56:11Z</time>
					</trkpt>
					<trkpt lat="42.953950" lon="11.640270">
						<ele>678</ele>
						<time>2026-05-04T15:56:18Z</time>
					</trkpt>
					<trkpt lat="42.953400" lon="11.640360">
						<ele>684</ele>
						<time>2026-05-04T15:56:28Z</time>
					</trkpt>
					<trkpt lat="42.952930" lon="11.640500">
						<ele>692</ele>
						<time>2026-05-04T15:56:37Z</time>
					</trkpt>
					<trkpt lat="42.952810" lon="11.640600">
						<ele>693</ele>
						<time>2026-05-04T15:56:39Z</time>
					</trkpt>
					<trkpt lat="42.952690" lon="11.640810">
						<ele>693</ele>
						<time>2026-05-04T15:56:43Z</time>
					</trkpt>
					<trkpt lat="42.952650" lon="11.640970">
						<ele>694</ele>
						<time>2026-05-04T15:56:45Z</time>
					</trkpt>
					<trkpt lat="42.952630" lon="11.641060">
						<ele>694</ele>
						<time>2026-05-04T15:56:46Z</time>
					</trkpt>
					<trkpt lat="42.952640" lon="11.641420">
						<ele>694</ele>
						<time>2026-05-04T15:56:51Z</time>
					</trkpt>
					<trkpt lat="42.952710" lon="11.642060">
						<ele>695</ele>
						<time>2026-05-04T15:56:59Z</time>
					</trkpt>
					<trkpt lat="42.952680" lon="11.642350">
						<ele>698</ele>
						<time>2026-05-04T15:57:03Z</time>
					</trkpt>
					<trkpt lat="42.952590" lon="11.642650">
						<ele>701</ele>
						<time>2026-05-04T15:57:07Z</time>
					</trkpt>
					<trkpt lat="42.952320" lon="11.643440">
						<ele>707</ele>
						<time>2026-05-04T15:57:19Z</time>
					</trkpt>
					<trkpt lat="42.952150" lon="11.643760">
						<ele>709</ele>
						<time>2026-05-04T15:57:24Z</time>
					</trkpt>
					<trkpt lat="42.951830" lon="11.644190">
						<ele>713</ele>
						<time>2026-05-04T15:57:32Z</time>
					</trkpt>
					<trkpt lat="42.951640" lon="11.644330">
						<ele>716</ele>
						<time>2026-05-04T15:57:36Z</time>
					</trkpt>
					<trkpt lat="42.951530" lon="11.644390">
						<ele>717</ele>
						<time>2026-05-04T15:57:38Z</time>
					</trkpt>
					<trkpt lat="42.951360" lon="11.644390">
						<ele>720</ele>
						<time>2026-05-04T15:57:41Z</time>
					</trkpt>
					<trkpt lat="42.951220" lon="11.644310">
						<ele>722</ele>
						<time>2026-05-04T15:57:43Z</time>
					</trkpt>
					<trkpt lat="42.951110" lon="11.644150">
						<ele>724</ele>
						<time>2026-05-04T15:57:46Z</time>
					</trkpt>
					<trkpt lat="42.950670" lon="11.643330">
						<ele>732</ele>
						<time>2026-05-04T15:58:00Z</time>
					</trkpt>
					<trkpt lat="42.950570" lon="11.643040">
						<ele>733</ele>
						<time>2026-05-04T15:58:04Z</time>
					</trkpt>
					<trkpt lat="42.950560" lon="11.642650">
						<ele>733</ele>
						<time>2026-05-04T15:58:09Z</time>
					</trkpt>
					<trkpt lat="42.950570" lon="11.641980">
						<ele>733</ele>
						<time>2026-05-04T15:58:17Z</time>
					</trkpt>
					<trkpt lat="42.950560" lon="11.641680">
						<ele>734</ele>
						<time>2026-05-04T15:58:21Z</time>
					</trkpt>
					<trkpt lat="42.950520" lon="11.641500">
						<ele>734</ele>
						<time>2026-05-04T15:58:24Z</time>
					</trkpt>
					<trkpt lat="42.950440" lon="11.641320">
						<ele>735</ele>
						<time>2026-05-04T15:58:27Z</time>
					</trkpt>
					<trkpt lat="42.950340" lon="11.641190">
						<ele>737</ele>
						<time>2026-05-04T15:58:29Z</time>
					</trkpt>
					<trkpt lat="42.950210" lon="11.641090">
						<ele>738</ele>
						<time>2026-05-04T15:58:32Z</time>
					</trkpt>
					<trkpt lat="42.950090" lon="11.641040">
						<ele>740</ele>
						<time>2026-05-04T15:58:34Z</time>
					</trkpt>
					<trkpt lat="42.949990" lon="11.641030">
						<ele>741</ele>
						<time>2026-05-04T15:58:36Z</time>
					</trkpt>
					<trkpt lat="42.949460" lon="11.641050">
						<ele>746</ele>
						<time>2026-05-04T15:58:45Z</time>
					</trkpt>
					<trkpt lat="42.949340" lon="11.641080">
						<ele>747</ele>
						<time>2026-05-04T15:58:47Z</time>
					</trkpt>
					<trkpt lat="42.949180" lon="11.641160">
						<ele>748</ele>
						<time>2026-05-04T15:58:50Z</time>
					</trkpt>
					<trkpt lat="42.949050" lon="11.641260">
						<ele>749</ele>
						<time>2026-05-04T15:58:53Z</time>
					</trkpt>
					<trkpt lat="42.948920" lon="11.641440">
						<ele>751</ele>
						<time>2026-05-04T15:58:56Z</time>
					</trkpt>
					<trkpt lat="42.948840" lon="11.641610">
						<ele>753</ele>
						<time>2026-05-04T15:58:59Z</time>
					</trkpt>
					<trkpt lat="42.948790" lon="11.641790">
						<ele>754</ele>
						<time>2026-05-04T15:59:01Z</time>
					</trkpt>
					<trkpt lat="42.948770" lon="11.641970">
						<ele>756</ele>
						<time>2026-05-04T15:59:04Z</time>
					</trkpt>
					<trkpt lat="42.948760" lon="11.642150">
						<ele>758</ele>
						<time>2026-05-04T15:59:06Z</time>
					</trkpt>
					<trkpt lat="42.948790" lon="11.642380">
						<ele>760</ele>
						<time>2026-05-04T15:59:09Z</time>
					</trkpt>
					<trkpt lat="42.948860" lon="11.642650">
						<ele>761</ele>
						<time>2026-05-04T15:59:13Z</time>
					</trkpt>
					<trkpt lat="42.949000" lon="11.643130">
						<ele>763</ele>
						<time>2026-05-04T15:59:20Z</time>
					</trkpt>
					<trkpt lat="42.949040" lon="11.643310">
						<ele>763</ele>
						<time>2026-05-04T15:59:22Z</time>
					</trkpt>
					<trkpt lat="42.949050" lon="11.643480">
						<ele>764</ele>
						<time>2026-05-04T15:59:24Z</time>
					</trkpt>
					<trkpt lat="42.949030" lon="11.643660">
						<ele>764</ele>
						<time>2026-05-04T15:59:27Z</time>
					</trkpt>
					<trkpt lat="42.949010" lon="11.643750">
						<ele>765</ele>
						<time>2026-05-04T15:59:28Z</time>
					</trkpt>
					<trkpt lat="42.948930" lon="11.644000">
						<ele>767</ele>
						<time>2026-05-04T15:59:31Z</time>
					</trkpt>
					<trkpt lat="42.948720" lon="11.644420">
						<ele>771</ele>
						<time>2026-05-04T15:59:38Z</time>
					</trkpt>
					<trkpt lat="42.948520" lon="11.644990">
						<ele>774</ele>
						<time>2026-05-04T15:59:46Z</time>
					</trkpt>
					<trkpt lat="42.947880" lon="11.646490">
						<ele>778</ele>
						<time>2026-05-04T16:00:09Z</time>
					</trkpt>
					<trkpt lat="42.947830" lon="11.646670">
						<ele>778</ele>
						<time>2026-05-04T16:00:11Z</time>
					</trkpt>
					<trkpt lat="42.947820" lon="11.646760">
						<ele>779</ele>
						<time>2026-05-04T16:00:13Z</time>
					</trkpt>
					<trkpt lat="42.947820" lon="11.646860">
						<ele>779</ele>
						<time>2026-05-04T16:00:14Z</time>
					</trkpt>
					<trkpt lat="42.947840" lon="11.646980">
						<ele>778</ele>
						<time>2026-05-04T16:00:16Z</time>
					</trkpt>
					<trkpt lat="42.948050" lon="11.647660">
						<ele>776</ele>
						<time>2026-05-04T16:00:25Z</time>
					</trkpt>
					<trkpt lat="42.948070" lon="11.647980">
						<ele>776</ele>
						<time>2026-05-04T16:00:29Z</time>
					</trkpt>
					<trkpt lat="42.948050" lon="11.648090">
						<ele>777</ele>
						<time>2026-05-04T16:00:31Z</time>
					</trkpt>
					<trkpt lat="42.947880" lon="11.648660">
						<ele>781</ele>
						<time>2026-05-04T16:00:39Z</time>
					</trkpt>
					<trkpt lat="42.947840" lon="11.648800">
						<ele>782</ele>
						<time>2026-05-04T16:00:41Z</time>
					</trkpt>
					<trkpt lat="42.947850" lon="11.648950">
						<ele>783</ele>
						<time>2026-05-04T16:00:43Z</time>
					</trkpt>
					<trkpt lat="42.947890" lon="11.649100">
						<ele>782</ele>
						<time>2026-05-04T16:00:45Z</time>
					</trkpt>
					<trkpt lat="42.948170" lon="11.649950">
						<ele>784</ele>
						<time>2026-05-04T16:00:57Z</time>
					</trkpt>
					<trkpt lat="42.948270" lon="11.650340">
						<ele>783</ele>
						<time>2026-05-04T16:01:02Z</time>
					</trkpt>
					<trkpt lat="42.948340" lon="11.650850">
						<ele>783</ele>
						<time>2026-05-04T16:01:09Z</time>
					</trkpt>
					<trkpt lat="42.948390" lon="11.651380">
						<ele>781</ele>
						<time>2026-05-04T16:01:16Z</time>
					</trkpt>
					<trkpt lat="42.948560" lon="11.652930">
						<ele>773</ele>
						<time>2026-05-04T16:01:36Z</time>
					</trkpt>
					<trkpt lat="42.948580" lon="11.653260">
						<ele>772</ele>
						<time>2026-05-04T16:01:41Z</time>
					</trkpt>
					<trkpt lat="42.948560" lon="11.653430">
						<ele>772</ele>
						<time>2026-05-04T16:01:43Z</time>
					</trkpt>
					<trkpt lat="42.948300" lon="11.654310">
						<ele>772</ele>
						<time>2026-05-04T16:01:55Z</time>
					</trkpt>
					<trkpt lat="42.948280" lon="11.654470">
						<ele>772</ele>
						<time>2026-05-04T16:01:58Z</time>
					</trkpt>
					<trkpt lat="42.948270" lon="11.654670">
						<ele>772</ele>
						<time>2026-05-04T16:02:00Z</time>
					</trkpt>
					<trkpt lat="42.948360" lon="11.655440">
						<ele>770</ele>
						<time>2026-05-04T16:02:10Z</time>
					</trkpt>
					<trkpt lat="42.948420" lon="11.656090">
						<ele>767</ele>
						<time>2026-05-04T16:02:19Z</time>
					</trkpt>
					<trkpt lat="42.948400" lon="11.656470">
						<ele>766</ele>
						<time>2026-05-04T16:02:24Z</time>
					</trkpt>
					<trkpt lat="42.948130" lon="11.657490">
						<ele>761</ele>
						<time>2026-05-04T16:02:38Z</time>
					</trkpt>
					<trkpt lat="42.948060" lon="11.657770">
						<ele>760</ele>
						<time>2026-05-04T16:02:42Z</time>
					</trkpt>
					<trkpt lat="42.947780" lon="11.658770">
						<ele>757</ele>
						<time>2026-05-04T16:02:56Z</time>
					</trkpt>
					<trkpt lat="42.947550" lon="11.659480">
						<ele>755</ele>
						<time>2026-05-04T16:03:06Z</time>
					</trkpt>
					<trkpt lat="42.947380" lon="11.660060">
						<ele>752</ele>
						<time>2026-05-04T16:03:14Z</time>
					</trkpt>
					<trkpt lat="42.947290" lon="11.660400">
						<ele>751</ele>
						<time>2026-05-04T16:03:19Z</time>
					</trkpt>
					<trkpt lat="42.947120" lon="11.660930">
						<ele>750</ele>
						<time>2026-05-04T16:03:26Z</time>
					</trkpt>
					<trkpt lat="42.947080" lon="11.661110">
						<ele>750</ele>
						<time>2026-05-04T16:03:29Z</time>
					</trkpt>
					<trkpt lat="42.947060" lon="11.661280">
						<ele>750</ele>
						<time>2026-05-04T16:03:31Z</time>
					</trkpt>
					<trkpt lat="42.947050" lon="11.661430">
						<ele>751</ele>
						<time>2026-05-04T16:03:33Z</time>
					</trkpt>
					<trkpt lat="42.947060" lon="11.661600">
						<ele>750</ele>
						<time>2026-05-04T16:03:35Z</time>
					</trkpt>
					<trkpt lat="42.947090" lon="11.661760">
						<ele>750</ele>
						<time>2026-05-04T16:03:37Z</time>
					</trkpt>
					<trkpt lat="42.947180" lon="11.662050">
						<ele>750</ele>
						<time>2026-05-04T16:03:41Z</time>
					</trkpt>
					<trkpt lat="42.947860" lon="11.663950">
						<ele>746</ele>
						<time>2026-05-04T16:04:09Z</time>
					</trkpt>
					<trkpt lat="42.947970" lon="11.664250">
						<ele>745</ele>
						<time>2026-05-04T16:04:13Z</time>
					</trkpt>
					<trkpt lat="42.948060" lon="11.664490">
						<ele>744</ele>
						<time>2026-05-04T16:04:17Z</time>
					</trkpt>
					<trkpt lat="42.948080" lon="11.664550">
						<ele>744</ele>
						<time>2026-05-04T16:04:18Z</time>
					</trkpt>
					<trkpt lat="42.948200" lon="11.664760">
						<ele>743</ele>
						<time>2026-05-04T16:04:21Z</time>
					</trkpt>
					<trkpt lat="42.948320" lon="11.664910">
						<ele>742</ele>
						<time>2026-05-04T16:04:24Z</time>
					</trkpt>
					<trkpt lat="42.948350" lon="11.664980">
						<ele>742</ele>
						<time>2026-05-04T16:04:25Z</time>
					</trkpt>
					<trkpt lat="42.948360" lon="11.665020">
						<ele>741</ele>
						<time>2026-05-04T16:04:26Z</time>
					</trkpt>
					<trkpt lat="42.948370" lon="11.665120">
						<ele>741</ele>
						<time>2026-05-04T16:04:27Z</time>
					</trkpt>
					<trkpt lat="42.948340" lon="11.665240">
						<ele>742</ele>
						<time>2026-05-04T16:04:29Z</time>
					</trkpt>
					<trkpt lat="42.947930" lon="11.666020">
						<ele>743</ele>
						<time>2026-05-04T16:04:41Z</time>
					</trkpt>
					<trkpt lat="42.947880" lon="11.666140">
						<ele>743</ele>
						<time>2026-05-04T16:04:43Z</time>
					</trkpt>
					<trkpt lat="42.947860" lon="11.666220">
						<ele>742</ele>
						<time>2026-05-04T16:04:44Z</time>
					</trkpt>
					<trkpt lat="42.947820" lon="11.666230">
						<ele>743</ele>
						<time>2026-05-04T16:04:45Z</time>
					</trkpt>
					<trkpt lat="42.947800" lon="11.666270">
						<ele>742</ele>
						<time>2026-05-04T16:04:45Z</time>
					</trkpt>
					<trkpt lat="42.947790" lon="11.666330">
						<ele>742</ele>
						<time>2026-05-04T16:04:46Z</time>
					</trkpt>
					<trkpt lat="42.947790" lon="11.666360">
						<ele>742</ele>
						<time>2026-05-04T16:04:47Z</time>
					</trkpt>
					<trkpt lat="42.947740" lon="11.666380">
						<ele>742</ele>
						<time>2026-05-04T16:04:47Z</time>
					</trkpt>
					<trkpt lat="42.947660" lon="11.666450">
						<ele>742</ele>
						<time>2026-05-04T16:04:49Z</time>
					</trkpt>
					<trkpt lat="42.947580" lon="11.666510">
						<ele>742</ele>
						<time>2026-05-04T16:04:51Z</time>
					</trkpt>
					<trkpt lat="42.947530" lon="11.666530">
						<ele>743</ele>
						<time>2026-05-04T16:04:52Z</time>
					</trkpt>
					<trkpt lat="42.947180" lon="11.666650">
						<ele>746</ele>
						<time>2026-05-04T16:04:58Z</time>
					</trkpt>
					<trkpt lat="42.947090" lon="11.666690">
						<ele>747</ele>
						<time>2026-05-04T16:05:00Z</time>
					</trkpt>
					<trkpt lat="42.947000" lon="11.666750">
						<ele>748</ele>
						<time>2026-05-04T16:05:02Z</time>
					</trkpt>
					<trkpt lat="42.946900" lon="11.666870">
						<ele>748</ele>
						<time>2026-05-04T16:05:04Z</time>
					</trkpt>
					<trkpt lat="42.946730" lon="11.667100">
						<ele>750</ele>
						<time>2026-05-04T16:05:08Z</time>
					</trkpt>
					<trkpt lat="42.946690" lon="11.667180">
						<ele>750</ele>
						<time>2026-05-04T16:05:09Z</time>
					</trkpt>
					<trkpt lat="42.946650" lon="11.667270">
						<ele>751</ele>
						<time>2026-05-04T16:05:11Z</time>
					</trkpt>
					<trkpt lat="42.946640" lon="11.667340">
						<ele>751</ele>
						<time>2026-05-04T16:05:12Z</time>
					</trkpt>
					<trkpt lat="42.946640" lon="11.667380">
						<ele>751</ele>
						<time>2026-05-04T16:05:12Z</time>
					</trkpt>
					<trkpt lat="42.946720" lon="11.667710">
						<ele>752</ele>
						<time>2026-05-04T16:05:17Z</time>
					</trkpt>
					<trkpt lat="42.946780" lon="11.667950">
						<ele>753</ele>
						<time>2026-05-04T16:05:20Z</time>
					</trkpt>
					<trkpt lat="42.946890" lon="11.668040">
						<ele>751</ele>
						<time>2026-05-04T16:05:22Z</time>
					</trkpt>
					<trkpt lat="42.947000" lon="11.668170">
						<ele>749</ele>
						<time>2026-05-04T16:05:25Z</time>
					</trkpt>
					<trkpt lat="42.947210" lon="11.668470">
						<ele>743</ele>
						<time>2026-05-04T16:05:30Z</time>
					</trkpt>
					<trkpt lat="42.947290" lon="11.668610">
						<ele>740</ele>
						<time>2026-05-04T16:05:33Z</time>
					</trkpt>
					<trkpt lat="42.947360" lon="11.668770">
						<ele>737</ele>
						<time>2026-05-04T16:05:35Z</time>
					</trkpt>
					<trkpt lat="42.947380" lon="11.668840">
						<ele>736</ele>
						<time>2026-05-04T16:05:36Z</time>
					</trkpt>
					<trkpt lat="42.947370" lon="11.668950">
						<ele>736</ele>
						<time>2026-05-04T16:05:38Z</time>
					</trkpt>
					<trkpt lat="42.947350" lon="11.669070">
						<ele>736</ele>
						<time>2026-05-04T16:05:39Z</time>
					</trkpt>
					<trkpt lat="42.947290" lon="11.669250">
						<ele>736</ele>
						<time>2026-05-04T16:05:42Z</time>
					</trkpt>
					<trkpt lat="42.947280" lon="11.669290">
						<ele>736</ele>
						<time>2026-05-04T16:05:42Z</time>
					</trkpt>
					<trkpt lat="42.947280" lon="11.669300">
						<ele>736</ele>
						<time>2026-05-04T16:05:42Z</time>
					</trkpt>
					<trkpt lat="42.947280" lon="11.669290">
						<ele>736</ele>
						<time>2026-05-04T16:05:43Z</time>
					</trkpt>
					<trkpt lat="42.947210" lon="11.669530">
						<ele>734</ele>
						<time>2026-05-04T16:05:46Z</time>
					</trkpt>
					<trkpt lat="42.947180" lon="11.669630">
						<ele>732</ele>
						<time>2026-05-04T16:05:47Z</time>
					</trkpt>
					<trkpt lat="42.947090" lon="11.669780">
						<ele>731</ele>
						<time>2026-05-04T16:05:50Z</time>
					</trkpt>
					<trkpt lat="42.947010" lon="11.669910">
						<ele>729</ele>
						<time>2026-05-04T16:05:52Z</time>
					</trkpt>
					<trkpt lat="42.946980" lon="11.669950">
						<ele>729</ele>
						<time>2026-05-04T16:05:53Z</time>
					</trkpt>
					<trkpt lat="42.946960" lon="11.670010">
						<ele>727</ele>
						<time>2026-05-04T16:05:54Z</time>
					</trkpt>
					<trkpt lat="42.946960" lon="11.670040">
						<ele>727</ele>
						<time>2026-05-04T16:05:54Z</time>
					</trkpt>
					<trkpt lat="42.946980" lon="11.670080">
						<ele>726</ele>
						<time>2026-05-04T16:05:55Z</time>
					</trkpt>
					<trkpt lat="42.947110" lon="11.670170">
						<ele>723</ele>
						<time>2026-05-04T16:05:57Z</time>
					</trkpt>
					<trkpt lat="42.947300" lon="11.670270">
						<ele>720</ele>
						<time>2026-05-04T16:06:01Z</time>
					</trkpt>
					<trkpt lat="42.947370" lon="11.670350">
						<ele>719</ele>
						<time>2026-05-04T16:06:03Z</time>
					</trkpt>
					<trkpt lat="42.947420" lon="11.670460">
						<ele>717</ele>
						<time>2026-05-04T16:06:04Z</time>
					</trkpt>
					<trkpt lat="42.947450" lon="11.670560">
						<ele>715</ele>
						<time>2026-05-04T16:06:06Z</time>
					</trkpt>
					<trkpt lat="42.947470" lon="11.670660">
						<ele>714</ele>
						<time>2026-05-04T16:06:07Z</time>
					</trkpt>
					<trkpt lat="42.947480" lon="11.670720">
						<ele>713</ele>
						<time>2026-05-04T16:06:08Z</time>
					</trkpt>
					<trkpt lat="42.947470" lon="11.670850">
						<ele>711</ele>
						<time>2026-05-04T16:06:09Z</time>
					</trkpt>
					<trkpt lat="42.947450" lon="11.670900">
						<ele>710</ele>
						<time>2026-05-04T16:06:10Z</time>
					</trkpt>
					<trkpt lat="42.947400" lon="11.671010">
						<ele>709</ele>
						<time>2026-05-04T16:06:12Z</time>
					</trkpt>
					<trkpt lat="42.947340" lon="11.671090">
						<ele>708</ele>
						<time>2026-05-04T16:06:13Z</time>
					</trkpt>
					<trkpt lat="42.947250" lon="11.671160">
						<ele>707</ele>
						<time>2026-05-04T16:06:15Z</time>
					</trkpt>
					<trkpt lat="42.947200" lon="11.671180">
						<ele>707</ele>
						<time>2026-05-04T16:06:16Z</time>
					</trkpt>
					<trkpt lat="42.947090" lon="11.671230">
						<ele>706</ele>
						<time>2026-05-04T16:06:18Z</time>
					</trkpt>
					<trkpt lat="42.946980" lon="11.671260">
						<ele>705</ele>
						<time>2026-05-04T16:06:20Z</time>
					</trkpt>
					<trkpt lat="42.946940" lon="11.671300">
						<ele>705</ele>
						<time>2026-05-04T16:06:21Z</time>
					</trkpt>
					<trkpt lat="42.946930" lon="11.671340">
						<ele>704</ele>
						<time>2026-05-04T16:06:22Z</time>
					</trkpt>
					<trkpt lat="42.946800" lon="11.671280">
						<ele>705</ele>
						<time>2026-05-04T16:06:24Z</time>
					</trkpt>
					<trkpt lat="42.946600" lon="11.671130">
						<ele>706</ele>
						<time>2026-05-04T16:06:28Z</time>
					</trkpt>
					<trkpt lat="42.946280" lon="11.670900">
						<ele>708</ele>
						<time>2026-05-04T16:06:35Z</time>
					</trkpt>
					<trkpt lat="42.946150" lon="11.670830">
						<ele>709</ele>
						<time>2026-05-04T16:06:37Z</time>
					</trkpt>
					<trkpt lat="42.946090" lon="11.670800">
						<ele>709</ele>
						<time>2026-05-04T16:06:38Z</time>
					</trkpt>
					<trkpt lat="42.945990" lon="11.670780">
						<ele>709</ele>
						<time>2026-05-04T16:06:40Z</time>
					</trkpt>
					<trkpt lat="42.945240" lon="11.670840">
						<ele>706</ele>
						<time>2026-05-04T16:06:53Z</time>
					</trkpt>
					<trkpt lat="42.945130" lon="11.670830">
						<ele>706</ele>
						<time>2026-05-04T16:06:55Z</time>
					</trkpt>
					<trkpt lat="42.945040" lon="11.670800">
						<ele>707</ele>
						<time>2026-05-04T16:06:57Z</time>
					</trkpt>
					<trkpt lat="42.944690" lon="11.670600">
						<ele>711</ele>
						<time>2026-05-04T16:07:04Z</time>
					</trkpt>
					<trkpt lat="42.944560" lon="11.670560">
						<ele>711</ele>
						<time>2026-05-04T16:07:06Z</time>
					</trkpt>
					<trkpt lat="42.944500" lon="11.670550">
						<ele>712</ele>
						<time>2026-05-04T16:07:07Z</time>
					</trkpt>
					<trkpt lat="42.944310" lon="11.670600">
						<ele>711</ele>
						<time>2026-05-04T16:07:11Z</time>
					</trkpt>
					<trkpt lat="42.944200" lon="11.670640">
						<ele>710</ele>
						<time>2026-05-04T16:07:13Z</time>
					</trkpt>
					<trkpt lat="42.944100" lon="11.670700">
						<ele>711</ele>
						<time>2026-05-04T16:07:15Z</time>
					</trkpt>
					<trkpt lat="42.944050" lon="11.670750">
						<ele>711</ele>
						<time>2026-05-04T16:07:16Z</time>
					</trkpt>
					<trkpt lat="42.943580" lon="11.671350">
						<ele>708</ele>
						<time>2026-05-04T16:07:27Z</time>
					</trkpt>
					<trkpt lat="42.943180" lon="11.671900">
						<ele>697</ele>
						<time>2026-05-04T16:07:37Z</time>
					</trkpt>
					<trkpt lat="42.943080" lon="11.672070">
						<ele>694</ele>
						<time>2026-05-04T16:07:40Z</time>
					</trkpt>
					<trkpt lat="42.943040" lon="11.672170">
						<ele>691</ele>
						<time>2026-05-04T16:07:42Z</time>
					</trkpt>
					<trkpt lat="42.942950" lon="11.672330">
						<ele>687</ele>
						<time>2026-05-04T16:07:44Z</time>
					</trkpt>
					<trkpt lat="42.942630" lon="11.672760">
						<ele>679</ele>
						<time>2026-05-04T16:07:52Z</time>
					</trkpt>
					<trkpt lat="42.942510" lon="11.672880">
						<ele>677</ele>
						<time>2026-05-04T16:07:55Z</time>
					</trkpt>
					<trkpt lat="42.942440" lon="11.672940">
						<ele>676</ele>
						<time>2026-05-04T16:07:56Z</time>
					</trkpt>
					<trkpt lat="42.942350" lon="11.672970">
						<ele>676</ele>
						<time>2026-05-04T16:07:58Z</time>
					</trkpt>
					<trkpt lat="42.942150" lon="11.672970">
						<ele>676</ele>
						<time>2026-05-04T16:08:01Z</time>
					</trkpt>
					<trkpt lat="42.942060" lon="11.672980">
						<ele>676</ele>
						<time>2026-05-04T16:08:03Z</time>
					</trkpt>
					<trkpt lat="42.941990" lon="11.673000">
						<ele>676</ele>
						<time>2026-05-04T16:08:04Z</time>
					</trkpt>
					<trkpt lat="42.941950" lon="11.673060">
						<ele>675</ele>
						<time>2026-05-04T16:08:05Z</time>
					</trkpt>
					<trkpt lat="42.941850" lon="11.673360">
						<ele>666</ele>
						<time>2026-05-04T16:08:10Z</time>
					</trkpt>
					<trkpt lat="42.941800" lon="11.673460">
						<ele>663</ele>
						<time>2026-05-04T16:08:11Z</time>
					</trkpt>
					<trkpt lat="42.941740" lon="11.673490">
						<ele>663</ele>
						<time>2026-05-04T16:08:12Z</time>
					</trkpt>
					<trkpt lat="42.941630" lon="11.673490">
						<ele>663</ele>
						<time>2026-05-04T16:08:14Z</time>
					</trkpt>
					<trkpt lat="42.941370" lon="11.673400">
						<ele>664</ele>
						<time>2026-05-04T16:08:19Z</time>
					</trkpt>
					<trkpt lat="42.940970" lon="11.673130">
						<ele>669</ele>
						<time>2026-05-04T16:08:27Z</time>
					</trkpt>
					<trkpt lat="42.940870" lon="11.673080">
						<ele>670</ele>
						<time>2026-05-04T16:08:29Z</time>
					</trkpt>
					<trkpt lat="42.940820" lon="11.673090">
						<ele>670</ele>
						<time>2026-05-04T16:08:30Z</time>
					</trkpt>
					<trkpt lat="42.940780" lon="11.673120">
						<ele>671</ele>
						<time>2026-05-04T16:08:31Z</time>
					</trkpt>
					<trkpt lat="42.940720" lon="11.673170">
						<ele>672</ele>
						<time>2026-05-04T16:08:32Z</time>
					</trkpt>
					<trkpt lat="42.940690" lon="11.673240">
						<ele>672</ele>
						<time>2026-05-04T16:08:33Z</time>
					</trkpt>
					<trkpt lat="42.940670" lon="11.673310">
						<ele>672</ele>
						<time>2026-05-04T16:08:34Z</time>
					</trkpt>
					<trkpt lat="42.940670" lon="11.673390">
						<ele>670</ele>
						<time>2026-05-04T16:08:35Z</time>
					</trkpt>
					<trkpt lat="42.940750" lon="11.673890">
						<ele>662</ele>
						<time>2026-05-04T16:08:42Z</time>
					</trkpt>
					<trkpt lat="42.940770" lon="11.674150">
						<ele>658</ele>
						<time>2026-05-04T16:08:45Z</time>
					</trkpt>
					<trkpt lat="42.940770" lon="11.674330">
						<ele>656</ele>
						<time>2026-05-04T16:08:47Z</time>
					</trkpt>
					<trkpt lat="42.940750" lon="11.674520">
						<ele>656</ele>
						<time>2026-05-04T16:08:50Z</time>
					</trkpt>
					<trkpt lat="42.940710" lon="11.674680">
						<ele>656</ele>
						<time>2026-05-04T16:08:52Z</time>
					</trkpt>
					<trkpt lat="42.940660" lon="11.674820">
						<ele>656</ele>
						<time>2026-05-04T16:08:54Z</time>
					</trkpt>
					<trkpt lat="42.940620" lon="11.674900">
						<ele>656</ele>
						<time>2026-05-04T16:08:55Z</time>
					</trkpt>
					<trkpt lat="42.940580" lon="11.674960">
						<ele>657</ele>
						<time>2026-05-04T16:08:56Z</time>
					</trkpt>
					<trkpt lat="42.940420" lon="11.675100">
						<ele>659</ele>
						<time>2026-05-04T16:09:00Z</time>
					</trkpt>
					<trkpt lat="42.940250" lon="11.675220">
						<ele>661</ele>
						<time>2026-05-04T16:09:03Z</time>
					</trkpt>
					<trkpt lat="42.940180" lon="11.675300">
						<ele>661</ele>
						<time>2026-05-04T16:09:05Z</time>
					</trkpt>
					<trkpt lat="42.940110" lon="11.675410">
						<ele>659</ele>
						<time>2026-05-04T16:09:07Z</time>
					</trkpt>
					<trkpt lat="42.939960" lon="11.675700">
						<ele>654</ele>
						<time>2026-05-04T16:09:11Z</time>
					</trkpt>
					<trkpt lat="42.939420" lon="11.677030">
						<ele>648</ele>
						<time>2026-05-04T16:09:31Z</time>
					</trkpt>
					<trkpt lat="42.939310" lon="11.677270">
						<ele>647</ele>
						<time>2026-05-04T16:09:35Z</time>
					</trkpt>
					<trkpt lat="42.939190" lon="11.677440">
						<ele>646</ele>
						<time>2026-05-04T16:09:38Z</time>
					</trkpt>
					<trkpt lat="42.939110" lon="11.677500">
						<ele>648</ele>
						<time>2026-05-04T16:09:40Z</time>
					</trkpt>
					<trkpt lat="42.939000" lon="11.677540">
						<ele>651</ele>
						<time>2026-05-04T16:09:42Z</time>
					</trkpt>
					<trkpt lat="42.938900" lon="11.677540">
						<ele>654</ele>
						<time>2026-05-04T16:09:43Z</time>
					</trkpt>
					<trkpt lat="42.938800" lon="11.677570">
						<ele>656</ele>
						<time>2026-05-04T16:09:45Z</time>
					</trkpt>
					<trkpt lat="42.938720" lon="11.677620">
						<ele>658</ele>
						<time>2026-05-04T16:09:47Z</time>
					</trkpt>
					<trkpt lat="42.938660" lon="11.677680">
						<ele>659</ele>
						<time>2026-05-04T16:09:48Z</time>
					</trkpt>
					<trkpt lat="42.938610" lon="11.677760">
						<ele>659</ele>
						<time>2026-05-04T16:09:50Z</time>
					</trkpt>
					<trkpt lat="42.937730" lon="11.679670">
						<ele>658</ele>
						<time>2026-05-04T16:10:19Z</time>
					</trkpt>
					<trkpt lat="42.937460" lon="11.680110">
						<ele>658</ele>
						<time>2026-05-04T16:10:26Z</time>
					</trkpt>
					<trkpt lat="42.937150" lon="11.680590">
						<ele>663</ele>
						<time>2026-05-04T16:10:35Z</time>
					</trkpt>
					<trkpt lat="42.936770" lon="11.681280">
						<ele>664</ele>
						<time>2026-05-04T16:10:46Z</time>
					</trkpt>
					<trkpt lat="42.936640" lon="11.681430">
						<ele>665</ele>
						<time>2026-05-04T16:10:49Z</time>
					</trkpt>
					<trkpt lat="42.936450" lon="11.681620">
						<ele>667</ele>
						<time>2026-05-04T16:10:53Z</time>
					</trkpt>
					<trkpt lat="42.936360" lon="11.681800">
						<ele>667</ele>
						<time>2026-05-04T16:10:56Z</time>
					</trkpt>
					<trkpt lat="42.936040" lon="11.682490">
						<ele>664</ele>
						<time>2026-05-04T16:11:07Z</time>
					</trkpt>
					<trkpt lat="42.935970" lon="11.682590">
						<ele>665</ele>
						<time>2026-05-04T16:11:08Z</time>
					</trkpt>
					<trkpt lat="42.935350" lon="11.682910">
						<ele>673</ele>
						<time>2026-05-04T16:11:20Z</time>
					</trkpt>
					<trkpt lat="42.935270" lon="11.682970">
						<ele>673</ele>
						<time>2026-05-04T16:11:22Z</time>
					</trkpt>
					<trkpt lat="42.934530" lon="11.683500">
						<ele>680</ele>
						<time>2026-05-04T16:11:37Z</time>
					</trkpt>
					<trkpt lat="42.934370" lon="11.683570">
						<ele>683</ele>
						<time>2026-05-04T16:11:40Z</time>
					</trkpt>
					<trkpt lat="42.934160" lon="11.683580">
						<ele>686</ele>
						<time>2026-05-04T16:11:43Z</time>
					</trkpt>
					<trkpt lat="42.934090" lon="11.683600">
						<ele>688</ele>
						<time>2026-05-04T16:11:45Z</time>
					</trkpt>
					<trkpt lat="42.934060" lon="11.683660">
						<ele>689</ele>
						<time>2026-05-04T16:11:46Z</time>
					</trkpt>
					<trkpt lat="42.933950" lon="11.684140">
						<ele>693</ele>
						<time>2026-05-04T16:11:52Z</time>
					</trkpt>
					<trkpt lat="42.933880" lon="11.684350">
						<ele>694</ele>
						<time>2026-05-04T16:11:55Z</time>
					</trkpt>
					<trkpt lat="42.933840" lon="11.684420">
						<ele>694</ele>
						<time>2026-05-04T16:11:56Z</time>
					</trkpt>
					<trkpt lat="42.933680" lon="11.684520">
						<ele>695</ele>
						<time>2026-05-04T16:12:00Z</time>
					</trkpt>
					<trkpt lat="42.933560" lon="11.684540">
						<ele>695</ele>
						<time>2026-05-04T16:12:02Z</time>
					</trkpt>
					<trkpt lat="42.933220" lon="11.684550">
						<ele>697</ele>
						<time>2026-05-04T16:12:08Z</time>
					</trkpt>
					<trkpt lat="42.931950" lon="11.685040">
						<ele>687</ele>
						<time>2026-05-04T16:12:31Z</time>
					</trkpt>
					<trkpt lat="42.931510" lon="11.685080">
						<ele>683</ele>
						<time>2026-05-04T16:12:39Z</time>
					</trkpt>
					<trkpt lat="42.931440" lon="11.685100">
						<ele>682</ele>
						<time>2026-05-04T16:12:40Z</time>
					</trkpt>
					<trkpt lat="42.931370" lon="11.685190">
						<ele>680</ele>
						<time>2026-05-04T16:12:42Z</time>
					</trkpt>
					<trkpt lat="42.931110" lon="11.685650">
						<ele>673</ele>
						<time>2026-05-04T16:12:50Z</time>
					</trkpt>
					<trkpt lat="42.930810" lon="11.686280">
						<ele>667</ele>
						<time>2026-05-04T16:12:59Z</time>
					</trkpt>
					<trkpt lat="42.930620" lon="11.686670">
						<ele>663</ele>
						<time>2026-05-04T16:13:06Z</time>
					</trkpt>
					<trkpt lat="42.930530" lon="11.686810">
						<ele>660</ele>
						<time>2026-05-04T16:13:08Z</time>
					</trkpt>
					<trkpt lat="42.930340" lon="11.686920">
						<ele>658</ele>
						<time>2026-05-04T16:13:12Z</time>
					</trkpt>
					<trkpt lat="42.929880" lon="11.686980">
						<ele>654</ele>
						<time>2026-05-04T16:13:20Z</time>
					</trkpt>
					<trkpt lat="42.929690" lon="11.687010">
						<ele>653</ele>
						<time>2026-05-04T16:13:23Z</time>
					</trkpt>
					<trkpt lat="42.929450" lon="11.687000">
						<ele>652</ele>
						<time>2026-05-04T16:13:28Z</time>
					</trkpt>
					<trkpt lat="42.929280" lon="11.686950">
						<ele>652</ele>
						<time>2026-05-04T16:13:31Z</time>
					</trkpt>
					<trkpt lat="42.928890" lon="11.686680">
						<ele>653</ele>
						<time>2026-05-04T16:13:38Z</time>
					</trkpt>
					<trkpt lat="42.928110" lon="11.686140">
						<ele>652</ele>
						<time>2026-05-04T16:13:54Z</time>
					</trkpt>
					<trkpt lat="42.927890" lon="11.686020">
						<ele>650</ele>
						<time>2026-05-04T16:13:58Z</time>
					</trkpt>
					<trkpt lat="42.927750" lon="11.685970">
						<ele>649</ele>
						<time>2026-05-04T16:14:01Z</time>
					</trkpt>
					<trkpt lat="42.927600" lon="11.685980">
						<ele>648</ele>
						<time>2026-05-04T16:14:03Z</time>
					</trkpt>
					<trkpt lat="42.927450" lon="11.686020">
						<ele>646</ele>
						<time>2026-05-04T16:14:06Z</time>
					</trkpt>
					<trkpt lat="42.927340" lon="11.686120">
						<ele>644</ele>
						<time>2026-05-04T16:14:08Z</time>
					</trkpt>
					<trkpt lat="42.927200" lon="11.686340">
						<ele>642</ele>
						<time>2026-05-04T16:14:12Z</time>
					</trkpt>
					<trkpt lat="42.926670" lon="11.688100">
						<ele>633</ele>
						<time>2026-05-04T16:14:37Z</time>
					</trkpt>
					<trkpt lat="42.926650" lon="11.688300">
						<ele>632</ele>
						<time>2026-05-04T16:14:40Z</time>
					</trkpt>
					<trkpt lat="42.926660" lon="11.688520">
						<ele>630</ele>
						<time>2026-05-04T16:14:43Z</time>
					</trkpt>
					<trkpt lat="42.926710" lon="11.688710">
						<ele>629</ele>
						<time>2026-05-04T16:14:45Z</time>
					</trkpt>
					<trkpt lat="42.927100" lon="11.689450">
						<ele>624</ele>
						<time>2026-05-04T16:14:57Z</time>
					</trkpt>
					<trkpt lat="42.927210" lon="11.689580">
						<ele>623</ele>
						<time>2026-05-04T16:15:00Z</time>
					</trkpt>
					<trkpt lat="42.927320" lon="11.689670">
						<ele>622</ele>
						<time>2026-05-04T16:15:02Z</time>
					</trkpt>
					<trkpt lat="42.927440" lon="11.689690">
						<ele>621</ele>
						<time>2026-05-04T16:15:04Z</time>
					</trkpt>
					<trkpt lat="42.927580" lon="11.689680">
						<ele>621</ele>
						<time>2026-05-04T16:15:07Z</time>
					</trkpt>
					<trkpt lat="42.927890" lon="11.689580">
						<ele>620</ele>
						<time>2026-05-04T16:15:12Z</time>
					</trkpt>
					<trkpt lat="42.928070" lon="11.689560">
						<ele>619</ele>
						<time>2026-05-04T16:15:15Z</time>
					</trkpt>
					<trkpt lat="42.928220" lon="11.689600">
						<ele>617</ele>
						<time>2026-05-04T16:15:18Z</time>
					</trkpt>
					<trkpt lat="42.928340" lon="11.689720">
						<ele>614</ele>
						<time>2026-05-04T16:15:21Z</time>
					</trkpt>
					<trkpt lat="42.928380" lon="11.689870">
						<ele>612</ele>
						<time>2026-05-04T16:15:23Z</time>
					</trkpt>
					<trkpt lat="42.928410" lon="11.690060">
						<ele>608</ele>
						<time>2026-05-04T16:15:25Z</time>
					</trkpt>
					<trkpt lat="42.928380" lon="11.690300">
						<ele>604</ele>
						<time>2026-05-04T16:15:29Z</time>
					</trkpt>
					<trkpt lat="42.928330" lon="11.690470">
						<ele>601</ele>
						<time>2026-05-04T16:15:31Z</time>
					</trkpt>
					<trkpt lat="42.928250" lon="11.690570">
						<ele>600</ele>
						<time>2026-05-04T16:15:33Z</time>
					</trkpt>
					<trkpt lat="42.928130" lon="11.690640">
						<ele>599</ele>
						<time>2026-05-04T16:15:35Z</time>
					</trkpt>
					<trkpt lat="42.928030" lon="11.690650">
						<ele>599</ele>
						<time>2026-05-04T16:15:37Z</time>
					</trkpt>
					<trkpt lat="42.927740" lon="11.690650">
						<ele>601</ele>
						<time>2026-05-04T16:15:42Z</time>
					</trkpt>
					<trkpt lat="42.927570" lon="11.690720">
						<ele>600</ele>
						<time>2026-05-04T16:15:45Z</time>
					</trkpt>
					<trkpt lat="42.927300" lon="11.690920">
						<ele>599</ele>
						<time>2026-05-04T16:15:51Z</time>
					</trkpt>
					<trkpt lat="42.927200" lon="11.691020">
						<ele>598</ele>
						<time>2026-05-04T16:15:53Z</time>
					</trkpt>
					<trkpt lat="42.926990" lon="11.691230">
						<ele>597</ele>
						<time>2026-05-04T16:15:58Z</time>
					</trkpt>
					<trkpt lat="42.926780" lon="11.691530">
						<ele>596</ele>
						<time>2026-05-04T16:16:03Z</time>
					</trkpt>
					<trkpt lat="42.926720" lon="11.691740">
						<ele>594</ele>
						<time>2026-05-04T16:16:06Z</time>
					</trkpt>
					<trkpt lat="42.926660" lon="11.692090">
						<ele>591</ele>
						<time>2026-05-04T16:16:11Z</time>
					</trkpt>
					<trkpt lat="42.926640" lon="11.692420">
						<ele>587</ele>
						<time>2026-05-04T16:16:15Z</time>
					</trkpt>
					<trkpt lat="42.926630" lon="11.692560">
						<ele>587</ele>
						<time>2026-05-04T16:16:17Z</time>
					</trkpt>
					<trkpt lat="42.926610" lon="11.692900">
						<ele>587</ele>
						<time>2026-05-04T16:16:21Z</time>
					</trkpt>
					<trkpt lat="42.926590" lon="11.693050">
						<ele>587</ele>
						<time>2026-05-04T16:16:23Z</time>
					</trkpt>
					<trkpt lat="42.926590" lon="11.693160">
						<ele>587</ele>
						<time>2026-05-04T16:16:25Z</time>
					</trkpt>
					<trkpt lat="42.926560" lon="11.693610">
						<ele>589</ele>
						<time>2026-05-04T16:16:31Z</time>
					</trkpt>
					<trkpt lat="42.926570" lon="11.693880">
						<ele>590</ele>
						<time>2026-05-04T16:16:34Z</time>
					</trkpt>
					<trkpt lat="42.926580" lon="11.694060">
						<ele>590</ele>
						<time>2026-05-04T16:16:36Z</time>
					</trkpt>
					<trkpt lat="42.926610" lon="11.694390">
						<ele>590</ele>
						<time>2026-05-04T16:16:41Z</time>
					</trkpt>
					<trkpt lat="42.926640" lon="11.694510">
						<ele>590</ele>
						<time>2026-05-04T16:16:42Z</time>
					</trkpt>
					<trkpt lat="42.927310" lon="11.695940">
						<ele>583</ele>
						<time>2026-05-04T16:17:05Z</time>
					</trkpt>
					<trkpt lat="42.927370" lon="11.696070">
						<ele>582</ele>
						<time>2026-05-04T16:17:07Z</time>
					</trkpt>
					<trkpt lat="42.927420" lon="11.696240">
						<ele>581</ele>
						<time>2026-05-04T16:17:09Z</time>
					</trkpt>
					<trkpt lat="42.927480" lon="11.696590">
						<ele>579</ele>
						<time>2026-05-04T16:17:14Z</time>
					</trkpt>
					<trkpt lat="42.927610" lon="11.697510">
						<ele>573</ele>
						<time>2026-05-04T16:17:26Z</time>
					</trkpt>
					<trkpt lat="42.927630" lon="11.697810">
						<ele>573</ele>
						<time>2026-05-04T16:17:30Z</time>
					</trkpt>
					<trkpt lat="42.927620" lon="11.698050">
						<ele>572</ele>
						<time>2026-05-04T16:17:33Z</time>
					</trkpt>
					<trkpt lat="42.927600" lon="11.698240">
						<ele>572</ele>
						<time>2026-05-04T16:17:35Z</time>
					</trkpt>
					<trkpt lat="42.927420" lon="11.699610">
						<ele>568</ele>
						<time>2026-05-04T16:17:54Z</time>
					</trkpt>
					<trkpt lat="42.927360" lon="11.700040">
						<ele>566</ele>
						<time>2026-05-04T16:17:59Z</time>
					</trkpt>
					<trkpt lat="42.927330" lon="11.700170">
						<ele>565</ele>
						<time>2026-05-04T16:18:01Z</time>
					</trkpt>
					<trkpt lat="42.927300" lon="11.700240">
						<ele>565</ele>
						<time>2026-05-04T16:18:02Z</time>
					</trkpt>
					<trkpt lat="42.927250" lon="11.700290">
						<ele>565</ele>
						<time>2026-05-04T16:18:03Z</time>
					</trkpt>
					<trkpt lat="42.927170" lon="11.700340">
						<ele>564</ele>
						<time>2026-05-04T16:18:05Z</time>
					</trkpt>
					<trkpt lat="42.927080" lon="11.700340">
						<ele>564</ele>
						<time>2026-05-04T16:18:06Z</time>
					</trkpt>
					<trkpt lat="42.926790" lon="11.700270">
						<ele>564</ele>
						<time>2026-05-04T16:18:12Z</time>
					</trkpt>
					<trkpt lat="42.926730" lon="11.700240">
						<ele>564</ele>
						<time>2026-05-04T16:18:13Z</time>
					</trkpt>
					<trkpt lat="42.926700" lon="11.700240">
						<ele>564</ele>
						<time>2026-05-04T16:18:13Z</time>
					</trkpt>
					<trkpt lat="42.926590" lon="11.700250">
						<ele>565</ele>
						<time>2026-05-04T16:18:15Z</time>
					</trkpt>
					<trkpt lat="42.926550" lon="11.700260">
						<ele>565</ele>
						<time>2026-05-04T16:18:16Z</time>
					</trkpt>
					<trkpt lat="42.926610" lon="11.700400">
						<ele>564</ele>
						<time>2026-05-04T16:18:18Z</time>
					</trkpt>
					<trkpt lat="42.926650" lon="11.700500">
						<ele>564</ele>
						<time>2026-05-04T16:18:20Z</time>
					</trkpt>
					<trkpt lat="42.926620" lon="11.701290">
						<ele>557</ele>
						<time>2026-05-04T16:18:30Z</time>
					</trkpt>
					<trkpt lat="42.926630" lon="11.701390">
						<ele>556</ele>
						<time>2026-05-04T16:18:31Z</time>
					</trkpt>
					<trkpt lat="42.926660" lon="11.701500">
						<ele>554</ele>
						<time>2026-05-04T16:18:33Z</time>
					</trkpt>
					<trkpt lat="42.926680" lon="11.701540">
						<ele>554</ele>
						<time>2026-05-04T16:18:33Z</time>
					</trkpt>
					<trkpt lat="42.926720" lon="11.701580">
						<ele>553</ele>
						<time>2026-05-04T16:18:34Z</time>
					</trkpt>
					<trkpt lat="42.927000" lon="11.701840">
						<ele>551</ele>
						<time>2026-05-04T16:18:40Z</time>
					</trkpt>
					<trkpt lat="42.927180" lon="11.701980">
						<ele>549</ele>
						<time>2026-05-04T16:18:44Z</time>
					</trkpt>
					<trkpt lat="42.927270" lon="11.702040">
						<ele>548</ele>
						<time>2026-05-04T16:18:46Z</time>
					</trkpt>
					<trkpt lat="42.927440" lon="11.702120">
						<ele>547</ele>
						<time>2026-05-04T16:18:49Z</time>
					</trkpt>
					<trkpt lat="42.927500" lon="11.702160">
						<ele>546</ele>
						<time>2026-05-04T16:18:50Z</time>
					</trkpt>
					<trkpt lat="42.927560" lon="11.702210">
						<ele>544</ele>
						<time>2026-05-04T16:18:51Z</time>
					</trkpt>
					<trkpt lat="42.927660" lon="11.702360">
						<ele>541</ele>
						<time>2026-05-04T16:18:54Z</time>
					</trkpt>
					<trkpt lat="42.927940" lon="11.702810">
						<ele>533</ele>
						<time>2026-05-04T16:19:02Z</time>
					</trkpt>
					<trkpt lat="42.927990" lon="11.702860">
						<ele>532</ele>
						<time>2026-05-04T16:19:03Z</time>
					</trkpt>
					<trkpt lat="42.928060" lon="11.702910">
						<ele>531</ele>
						<time>2026-05-04T16:19:04Z</time>
					</trkpt>
					<trkpt lat="42.928130" lon="11.702920">
						<ele>530</ele>
						<time>2026-05-04T16:19:05Z</time>
					</trkpt>
					<trkpt lat="42.928230" lon="11.702890">
						<ele>529</ele>
						<time>2026-05-04T16:19:07Z</time>
					</trkpt>
					<trkpt lat="42.928620" lon="11.702670">
						<ele>526</ele>
						<time>2026-05-04T16:19:15Z</time>
					</trkpt>
					<trkpt lat="42.928780" lon="11.702540">
						<ele>525</ele>
						<time>2026-05-04T16:19:18Z</time>
					</trkpt>
					<trkpt lat="42.928890" lon="11.702430">
						<ele>523</ele>
						<time>2026-05-04T16:19:21Z</time>
					</trkpt>
					<trkpt lat="42.929030" lon="11.702270">
						<ele>521</ele>
						<time>2026-05-04T16:19:24Z</time>
					</trkpt>
					<trkpt lat="42.929080" lon="11.702190">
						<ele>520</ele>
						<time>2026-05-04T16:19:25Z</time>
					</trkpt>
					<trkpt lat="42.929120" lon="11.702020">
						<ele>520</ele>
						<time>2026-05-04T16:19:27Z</time>
					</trkpt>
					<trkpt lat="42.929160" lon="11.701660">
						<ele>519</ele>
						<time>2026-05-04T16:19:32Z</time>
					</trkpt>
					<trkpt lat="42.929200" lon="11.701460">
						<ele>520</ele>
						<time>2026-05-04T16:19:35Z</time>
					</trkpt>
					<trkpt lat="42.929300" lon="11.701140">
						<ele>519</ele>
						<time>2026-05-04T16:19:39Z</time>
					</trkpt>
					<trkpt lat="42.929350" lon="11.700990">
						<ele>519</ele>
						<time>2026-05-04T16:19:42Z</time>
					</trkpt>
					<trkpt lat="42.929420" lon="11.700870">
						<ele>519</ele>
						<time>2026-05-04T16:19:44Z</time>
					</trkpt>
					<trkpt lat="42.929480" lon="11.700810">
						<ele>518</ele>
						<time>2026-05-04T16:19:45Z</time>
					</trkpt>
					<trkpt lat="42.929840" lon="11.700600">
						<ele>511</ele>
						<time>2026-05-04T16:19:52Z</time>
					</trkpt>
					<trkpt lat="42.929910" lon="11.700530">
						<ele>510</ele>
						<time>2026-05-04T16:19:53Z</time>
					</trkpt>
					<trkpt lat="42.929960" lon="11.700420">
						<ele>509</ele>
						<time>2026-05-04T16:19:55Z</time>
					</trkpt>
					<trkpt lat="42.930080" lon="11.700030">
						<ele>507</ele>
						<time>2026-05-04T16:20:01Z</time>
					</trkpt>
					<trkpt lat="42.930110" lon="11.699980">
						<ele>507</ele>
						<time>2026-05-04T16:20:01Z</time>
					</trkpt>
					<trkpt lat="42.930150" lon="11.699950">
						<ele>506</ele>
						<time>2026-05-04T16:20:02Z</time>
					</trkpt>
					<trkpt lat="42.930210" lon="11.699940">
						<ele>504</ele>
						<time>2026-05-04T16:20:03Z</time>
					</trkpt>
					<trkpt lat="42.930230" lon="11.699950">
						<ele>504</ele>
						<time>2026-05-04T16:20:04Z</time>
					</trkpt>
					<trkpt lat="42.930280" lon="11.699990">
						<ele>503</ele>
						<time>2026-05-04T16:20:05Z</time>
					</trkpt>
					<trkpt lat="42.930310" lon="11.700090">
						<ele>502</ele>
						<time>2026-05-04T16:20:06Z</time>
					</trkpt>
					<trkpt lat="42.930340" lon="11.700320">
						<ele>501</ele>
						<time>2026-05-04T16:20:09Z</time>
					</trkpt>
					<trkpt lat="42.930390" lon="11.700910">
						<ele>498</ele>
						<time>2026-05-04T16:20:17Z</time>
					</trkpt>
					<trkpt lat="42.930390" lon="11.701010">
						<ele>497</ele>
						<time>2026-05-04T16:20:18Z</time>
					</trkpt>
					<trkpt lat="42.930390" lon="11.701090">
						<ele>497</ele>
						<time>2026-05-04T16:20:19Z</time>
					</trkpt>
					<trkpt lat="42.930310" lon="11.701470">
						<ele>496</ele>
						<time>2026-05-04T16:20:24Z</time>
					</trkpt>
					<trkpt lat="42.930310" lon="11.701590">
						<ele>495</ele>
						<time>2026-05-04T16:20:26Z</time>
					</trkpt>
					<trkpt lat="42.930330" lon="11.701640">
						<ele>494</ele>
						<time>2026-05-04T16:20:27Z</time>
					</trkpt>
					<trkpt lat="42.930340" lon="11.701660">
						<ele>494</ele>
						<time>2026-05-04T16:20:27Z</time>
					</trkpt>
					<trkpt lat="42.930360" lon="11.701670">
						<ele>494</ele>
						<time>2026-05-04T16:20:27Z</time>
					</trkpt>
					<trkpt lat="42.930410" lon="11.701680">
						<ele>493</ele>
						<time>2026-05-04T16:20:28Z</time>
					</trkpt>
					<trkpt lat="42.930460" lon="11.701670">
						<ele>492</ele>
						<time>2026-05-04T16:20:29Z</time>
					</trkpt>
					<trkpt lat="42.930500" lon="11.701630">
						<ele>491</ele>
						<time>2026-05-04T16:20:30Z</time>
					</trkpt>
					<trkpt lat="42.930540" lon="11.701550">
						<ele>491</ele>
						<time>2026-05-04T16:20:31Z</time>
					</trkpt>
					<trkpt lat="42.930760" lon="11.701100">
						<ele>489</ele>
						<time>2026-05-04T16:20:38Z</time>
					</trkpt>
					<trkpt lat="42.930790" lon="11.700970">
						<ele>489</ele>
						<time>2026-05-04T16:20:40Z</time>
					</trkpt>
					<trkpt lat="42.930810" lon="11.700600">
						<ele>490</ele>
						<time>2026-05-04T16:20:45Z</time>
					</trkpt>
					<trkpt lat="42.930830" lon="11.700480">
						<ele>489</ele>
						<time>2026-05-04T16:20:47Z</time>
					</trkpt>
					<trkpt lat="42.930860" lon="11.700350">
						<ele>490</ele>
						<time>2026-05-04T16:20:48Z</time>
					</trkpt>
					<trkpt lat="42.931000" lon="11.700030">
						<ele>491</ele>
						<time>2026-05-04T16:20:53Z</time>
					</trkpt>
					<trkpt lat="42.931060" lon="11.699970">
						<ele>492</ele>
						<time>2026-05-04T16:20:55Z</time>
					</trkpt>
					<trkpt lat="42.931140" lon="11.699940">
						<ele>492</ele>
						<time>2026-05-04T16:20:56Z</time>
					</trkpt>
					<trkpt lat="42.931210" lon="11.699940">
						<ele>493</ele>
						<time>2026-05-04T16:20:57Z</time>
					</trkpt>
					<trkpt lat="42.931280" lon="11.699960">
						<ele>493</ele>
						<time>2026-05-04T16:20:59Z</time>
					</trkpt>
					<trkpt lat="42.931340" lon="11.699990">
						<ele>493</ele>
						<time>2026-05-04T16:21:00Z</time>
					</trkpt>
					<trkpt lat="42.931610" lon="11.700340">
						<ele>490</ele>
						<time>2026-05-04T16:21:06Z</time>
					</trkpt>
					<trkpt lat="42.932120" lon="11.701280">
						<ele>483</ele>
						<time>2026-05-04T16:21:22Z</time>
					</trkpt>
					<trkpt lat="42.932130" lon="11.701300">
						<ele>483</ele>
						<time>2026-05-04T16:21:22Z</time>
					</trkpt>
					<trkpt lat="42.932300" lon="11.701480">
						<ele>482</ele>
						<time>2026-05-04T16:21:26Z</time>
					</trkpt>
					<trkpt lat="42.932460" lon="11.701570">
						<ele>482</ele>
						<time>2026-05-04T16:21:29Z</time>
					</trkpt>
					<trkpt lat="42.932630" lon="11.701640">
						<ele>481</ele>
						<time>2026-05-04T16:21:32Z</time>
					</trkpt>
					<trkpt lat="42.932830" lon="11.701670">
						<ele>480</ele>
						<time>2026-05-04T16:21:36Z</time>
					</trkpt>
					<trkpt lat="42.933000" lon="11.701640">
						<ele>480</ele>
						<time>2026-05-04T16:21:39Z</time>
					</trkpt>
					<trkpt lat="42.933610" lon="11.701340">
						<ele>481</ele>
						<time>2026-05-04T16:21:50Z</time>
					</trkpt>
					<trkpt lat="42.933750" lon="11.701290">
						<ele>481</ele>
						<time>2026-05-04T16:21:53Z</time>
					</trkpt>
					<trkpt lat="42.933820" lon="11.701290">
						<ele>480</ele>
						<time>2026-05-04T16:21:54Z</time>
					</trkpt>
					<trkpt lat="42.933980" lon="11.701320">
						<ele>478</ele>
						<time>2026-05-04T16:21:57Z</time>
					</trkpt>
					<trkpt lat="42.934050" lon="11.701330">
						<ele>478</ele>
						<time>2026-05-04T16:21:58Z</time>
					</trkpt>
					<trkpt lat="42.935140" lon="11.701550">
						<ele>472</ele>
						<time>2026-05-04T16:22:18Z</time>
					</trkpt>
					<trkpt lat="42.935290" lon="11.701620">
						<ele>473</ele>
						<time>2026-05-04T16:22:21Z</time>
					</trkpt>
					<trkpt lat="42.935420" lon="11.701730">
						<ele>473</ele>
						<time>2026-05-04T16:22:23Z</time>
					</trkpt>
					<trkpt lat="42.935560" lon="11.701900">
						<ele>473</ele>
						<time>2026-05-04T16:22:27Z</time>
					</trkpt>
					<trkpt lat="42.935660" lon="11.702120">
						<ele>472</ele>
						<time>2026-05-04T16:22:30Z</time>
					</trkpt>
					<trkpt lat="42.935710" lon="11.702330">
						<ele>470</ele>
						<time>2026-05-04T16:22:33Z</time>
					</trkpt>
					<trkpt lat="42.935730" lon="11.702650">
						<ele>467</ele>
						<time>2026-05-04T16:22:37Z</time>
					</trkpt>
					<trkpt lat="42.935790" lon="11.704600">
						<ele>454</ele>
						<time>2026-05-04T16:23:02Z</time>
					</trkpt>
					<trkpt lat="42.935850" lon="11.705410">
						<ele>451</ele>
						<time>2026-05-04T16:23:13Z</time>
					</trkpt>
					<trkpt lat="42.935900" lon="11.705620">
						<ele>450</ele>
						<time>2026-05-04T16:23:16Z</time>
					</trkpt>
					<trkpt lat="42.935960" lon="11.705810">
						<ele>450</ele>
						<time>2026-05-04T16:23:19Z</time>
					</trkpt>
					<trkpt lat="42.936070" lon="11.706040">
						<ele>449</ele>
						<time>2026-05-04T16:23:22Z</time>
					</trkpt>
					<trkpt lat="42.936260" lon="11.706280">
						<ele>450</ele>
						<time>2026-05-04T16:23:27Z</time>
					</trkpt>
					<trkpt lat="42.936420" lon="11.706440">
						<ele>450</ele>
						<time>2026-05-04T16:23:30Z</time>
					</trkpt>
					<trkpt lat="42.936520" lon="11.706580">
						<ele>450</ele>
						<time>2026-05-04T16:23:33Z</time>
					</trkpt>
					<trkpt lat="42.936600" lon="11.706750">
						<ele>450</ele>
						<time>2026-05-04T16:23:35Z</time>
					</trkpt>
					<trkpt lat="42.936680" lon="11.707000">
						<ele>449</ele>
						<time>2026-05-04T16:23:39Z</time>
					</trkpt>
					<trkpt lat="42.936710" lon="11.707220">
						<ele>448</ele>
						<time>2026-05-04T16:23:42Z</time>
					</trkpt>
					<trkpt lat="42.936720" lon="11.707440">
						<ele>447</ele>
						<time>2026-05-04T16:23:45Z</time>
					</trkpt>
					<trkpt lat="42.936730" lon="11.708100">
						<ele>443</ele>
						<time>2026-05-04T16:23:53Z</time>
					</trkpt>
					<trkpt lat="42.936780" lon="11.710160">
						<ele>436</ele>
						<time>2026-05-04T16:24:20Z</time>
					</trkpt>
					<trkpt lat="42.936790" lon="11.710580">
						<ele>434</ele>
						<time>2026-05-04T16:24:26Z</time>
					</trkpt>
					<trkpt lat="42.936800" lon="11.710920">
						<ele>432</ele>
						<time>2026-05-04T16:24:30Z</time>
					</trkpt>
					<trkpt lat="42.936830" lon="11.711080">
						<ele>431</ele>
						<time>2026-05-04T16:24:32Z</time>
					</trkpt>
					<trkpt lat="42.936880" lon="11.711220">
						<ele>431</ele>
						<time>2026-05-04T16:24:34Z</time>
					</trkpt>
					<trkpt lat="42.936920" lon="11.711310">
						<ele>430</ele>
						<time>2026-05-04T16:24:36Z</time>
					</trkpt>
					<trkpt lat="42.937020" lon="11.711420">
						<ele>430</ele>
						<time>2026-05-04T16:24:38Z</time>
					</trkpt>
					<trkpt lat="42.937150" lon="11.711500">
						<ele>431</ele>
						<time>2026-05-04T16:24:41Z</time>
					</trkpt>
					<trkpt lat="42.938170" lon="11.711840">
						<ele>427</ele>
						<time>2026-05-04T16:24:59Z</time>
					</trkpt>
					<trkpt lat="42.938320" lon="11.711860">
						<ele>426</ele>
						<time>2026-05-04T16:25:02Z</time>
					</trkpt>
					<trkpt lat="42.938390" lon="11.711860">
						<ele>426</ele>
						<time>2026-05-04T16:25:03Z</time>
					</trkpt>
					<trkpt lat="42.938480" lon="11.711860">
						<ele>425</ele>
						<time>2026-05-04T16:25:05Z</time>
					</trkpt>
					<trkpt lat="42.938610" lon="11.711830">
						<ele>425</ele>
						<time>2026-05-04T16:25:07Z</time>
					</trkpt>
					<trkpt lat="42.938760" lon="11.711780">
						<ele>425</ele>
						<time>2026-05-04T16:25:10Z</time>
					</trkpt>
					<trkpt lat="42.939250" lon="11.711550">
						<ele>425</ele>
						<time>2026-05-04T16:25:19Z</time>
					</trkpt>
					<trkpt lat="42.939810" lon="11.711250">
						<ele>422</ele>
						<time>2026-05-04T16:25:30Z</time>
					</trkpt>
					<trkpt lat="42.940040" lon="11.711110">
						<ele>420</ele>
						<time>2026-05-04T16:25:34Z</time>
					</trkpt>
					<trkpt lat="42.940220" lon="11.710970">
						<ele>420</ele>
						<time>2026-05-04T16:25:38Z</time>
					</trkpt>
					<trkpt lat="42.940510" lon="11.710730">
						<ele>421</ele>
						<time>2026-05-04T16:25:44Z</time>
					</trkpt>
					<trkpt lat="42.940630" lon="11.710650">
						<ele>422</ele>
						<time>2026-05-04T16:25:46Z</time>
					</trkpt>
					<trkpt lat="42.940760" lon="11.710650">
						<ele>420</ele>
						<time>2026-05-04T16:25:49Z</time>
					</trkpt>
					<trkpt lat="42.940830" lon="11.710680">
						<ele>419</ele>
						<time>2026-05-04T16:25:50Z</time>
					</trkpt>
					<trkpt lat="42.940870" lon="11.710820">
						<ele>416</ele>
						<time>2026-05-04T16:25:52Z</time>
					</trkpt>
					<trkpt lat="42.940860" lon="11.710900">
						<ele>415</ele>
						<time>2026-05-04T16:25:53Z</time>
					</trkpt>
					<trkpt lat="42.940840" lon="11.710970">
						<ele>415</ele>
						<time>2026-05-04T16:25:54Z</time>
					</trkpt>
					<trkpt lat="42.940410" lon="11.711150">
						<ele>417</ele>
						<time>2026-05-04T16:26:02Z</time>
					</trkpt>
					<trkpt lat="42.939930" lon="11.711400">
						<ele>419</ele>
						<time>2026-05-04T16:26:11Z</time>
					</trkpt>
					<trkpt lat="42.939780" lon="11.711500">
						<ele>420</ele>
						<time>2026-05-04T16:26:14Z</time>
					</trkpt>
					<trkpt lat="42.939720" lon="11.711520">
						<ele>420</ele>
						<time>2026-05-04T16:26:15Z</time>
					</trkpt>
					<trkpt lat="42.939110" lon="11.711830">
						<ele>423</ele>
						<time>2026-05-04T16:26:27Z</time>
					</trkpt>
					<trkpt lat="42.938400" lon="11.712170">
						<ele>423</ele>
						<time>2026-05-04T16:26:40Z</time>
					</trkpt>
					<trkpt lat="42.938150" lon="11.712290">
						<ele>422</ele>
						<time>2026-05-04T16:26:45Z</time>
					</trkpt>
					<trkpt lat="42.938090" lon="11.712330">
						<ele>422</ele>
						<time>2026-05-04T16:26:46Z</time>
					</trkpt>
					<trkpt lat="42.938090" lon="11.712440">
						<ele>421</ele>
						<time>2026-05-04T16:26:47Z</time>
					</trkpt>
					<trkpt lat="42.938070" lon="11.712510">
						<ele>420</ele>
						<time>2026-05-04T16:26:48Z</time>
					</trkpt>
					<trkpt lat="42.938040" lon="11.712650">
						<ele>420</ele>
						<time>2026-05-04T16:26:50Z</time>
					</trkpt>
					<trkpt lat="42.937780" lon="11.713290">
						<ele>421</ele>
						<time>2026-05-04T16:27:00Z</time>
					</trkpt>
					<trkpt lat="42.937660" lon="11.713560">
						<ele>424</ele>
						<time>2026-05-04T16:27:04Z</time>
					</trkpt>
					<trkpt lat="42.937560" lon="11.713680">
						<ele>426</ele>
						<time>2026-05-04T16:27:06Z</time>
					</trkpt>
					<trkpt lat="42.937440" lon="11.713770">
						<ele>428</ele>
						<time>2026-05-04T16:27:09Z</time>
					</trkpt>
					<trkpt lat="42.937270" lon="11.713820">
						<ele>429</ele>
						<time>2026-05-04T16:27:12Z</time>
					</trkpt>
					<trkpt lat="42.937000" lon="11.713830">
						<ele>431</ele>
						<time>2026-05-04T16:27:17Z</time>
					</trkpt>
					<trkpt lat="42.936760" lon="11.713840">
						<ele>433</ele>
						<time>2026-05-04T16:27:21Z</time>
					</trkpt>
					<trkpt lat="42.936620" lon="11.713840">
						<ele>433</ele>
						<time>2026-05-04T16:27:23Z</time>
					</trkpt>
					<trkpt lat="42.936050" lon="11.713860">
						<ele>436</ele>
						<time>2026-05-04T16:27:34Z</time>
					</trkpt>
					<trkpt lat="42.934310" lon="11.714690">
						<ele>444</ele>
						<time>2026-05-04T16:28:06Z</time>
					</trkpt>
					<trkpt lat="42.933820" lon="11.715160">
						<ele>444</ele>
						<time>2026-05-04T16:28:17Z</time>
					</trkpt>
					<trkpt lat="42.932730" lon="11.716350">
						<ele>443</ele>
						<time>2026-05-04T16:28:42Z</time>
					</trkpt>
					<trkpt lat="42.932390" lon="11.716720">
						<ele>444</ele>
						<time>2026-05-04T16:28:50Z</time>
					</trkpt>
					<trkpt lat="42.932230" lon="11.716900">
						<ele>444</ele>
						<time>2026-05-04T16:28:53Z</time>
					</trkpt>
					<trkpt lat="42.932090" lon="11.717050">
						<ele>445</ele>
						<time>2026-05-04T16:28:56Z</time>
					</trkpt>
					<trkpt lat="42.931940" lon="11.717210">
						<ele>445</ele>
						<time>2026-05-04T16:29:00Z</time>
					</trkpt>
					<trkpt lat="42.931210" lon="11.718360">
						<ele>446</ele>
						<time>2026-05-04T16:29:20Z</time>
					</trkpt>
					<trkpt lat="42.931200" lon="11.718370">
						<ele>446</ele>
						<time>2026-05-04T16:29:20Z</time>
					</trkpt>
					<trkpt lat="42.931140" lon="11.718460">
						<ele>446</ele>
						<time>2026-05-04T16:29:22Z</time>
					</trkpt>
					<trkpt lat="42.931000" lon="11.718520">
						<ele>446</ele>
						<time>2026-05-04T16:29:24Z</time>
					</trkpt>
					<trkpt lat="42.930610" lon="11.718720">
						<ele>445</ele>
						<time>2026-05-04T16:29:32Z</time>
					</trkpt>
					<trkpt lat="42.930120" lon="11.719060">
						<ele>447</ele>
						<time>2026-05-04T16:29:41Z</time>
					</trkpt>
					<trkpt lat="42.929740" lon="11.719420">
						<ele>450</ele>
						<time>2026-05-04T16:29:50Z</time>
					</trkpt>
					<trkpt lat="42.929430" lon="11.719820">
						<ele>453</ele>
						<time>2026-05-04T16:29:57Z</time>
					</trkpt>
					<trkpt lat="42.929320" lon="11.720050">
						<ele>454</ele>
						<time>2026-05-04T16:30:01Z</time>
					</trkpt>
					<trkpt lat="42.929200" lon="11.720440">
						<ele>455</ele>
						<time>2026-05-04T16:30:06Z</time>
					</trkpt>
					<trkpt lat="42.928940" lon="11.722410">
						<ele>463</ele>
						<time>2026-05-04T16:30:32Z</time>
					</trkpt>
					<trkpt lat="42.928900" lon="11.722660">
						<ele>464</ele>
						<time>2026-05-04T16:30:36Z</time>
					</trkpt>
					<trkpt lat="42.928830" lon="11.722760">
						<ele>464</ele>
						<time>2026-05-04T16:30:37Z</time>
					</trkpt>
					<trkpt lat="42.928740" lon="11.722800">
						<ele>464</ele>
						<time>2026-05-04T16:30:39Z</time>
					</trkpt>
					<trkpt lat="42.928250" lon="11.722830">
						<ele>464</ele>
						<time>2026-05-04T16:30:48Z</time>
					</trkpt>
					<trkpt lat="42.928180" lon="11.722830">
						<ele>465</ele>
						<time>2026-05-04T16:30:49Z</time>
					</trkpt>
					<trkpt lat="42.928080" lon="11.722850">
						<ele>466</ele>
						<time>2026-05-04T16:30:51Z</time>
					</trkpt>
					<trkpt lat="42.927900" lon="11.722910">
						<ele>468</ele>
						<time>2026-05-04T16:30:54Z</time>
					</trkpt>
					<trkpt lat="42.927730" lon="11.723040">
						<ele>470</ele>
						<time>2026-05-04T16:30:58Z</time>
					</trkpt>
					<trkpt lat="42.927600" lon="11.723200">
						<ele>472</ele>
						<time>2026-05-04T16:31:01Z</time>
					</trkpt>
					<trkpt lat="42.927380" lon="11.723660">
						<ele>475</ele>
						<time>2026-05-04T16:31:08Z</time>
					</trkpt>
					<trkpt lat="42.927140" lon="11.724070">
						<ele>479</ele>
						<time>2026-05-04T16:31:15Z</time>
					</trkpt>
					<trkpt lat="42.926570" lon="11.724860">
						<ele>489</ele>
						<time>2026-05-04T16:31:29Z</time>
					</trkpt>
					<trkpt lat="42.926460" lon="11.725090">
						<ele>492</ele>
						<time>2026-05-04T16:31:33Z</time>
					</trkpt>
					<trkpt lat="42.926390" lon="11.725390">
						<ele>494</ele>
						<time>2026-05-04T16:31:37Z</time>
					</trkpt>
					<trkpt lat="42.926400" lon="11.725640">
						<ele>494</ele>
						<time>2026-05-04T16:31:40Z</time>
					</trkpt>
					<trkpt lat="42.926460" lon="11.725860">
						<ele>494</ele>
						<time>2026-05-04T16:31:43Z</time>
					</trkpt>
					<trkpt lat="42.926540" lon="11.726010">
						<ele>494</ele>
						<time>2026-05-04T16:31:46Z</time>
					</trkpt>
					<trkpt lat="42.926700" lon="11.726200">
						<ele>494</ele>
						<time>2026-05-04T16:31:49Z</time>
					</trkpt>
					<trkpt lat="42.927170" lon="11.726520">
						<ele>495</ele>
						<time>2026-05-04T16:31:59Z</time>
					</trkpt>
					<trkpt lat="42.927300" lon="11.726710">
						<ele>497</ele>
						<time>2026-05-04T16:32:02Z</time>
					</trkpt>
					<trkpt lat="42.927380" lon="11.726940">
						<ele>498</ele>
						<time>2026-05-04T16:32:05Z</time>
					</trkpt>
					<trkpt lat="42.927400" lon="11.727230">
						<ele>500</ele>
						<time>2026-05-04T16:32:09Z</time>
					</trkpt>
					<trkpt lat="42.927360" lon="11.727460">
						<ele>502</ele>
						<time>2026-05-04T16:32:12Z</time>
					</trkpt>
					<trkpt lat="42.927310" lon="11.727760">
						<ele>504</ele>
						<time>2026-05-04T16:32:16Z</time>
					</trkpt>
					<trkpt lat="42.927280" lon="11.728120">
						<ele>506</ele>
						<time>2026-05-04T16:32:21Z</time>
					</trkpt>
					<trkpt lat="42.927360" lon="11.729320">
						<ele>517</ele>
						<time>2026-05-04T16:32:37Z</time>
					</trkpt>
					<trkpt lat="42.927410" lon="11.729490">
						<ele>519</ele>
						<time>2026-05-04T16:32:39Z</time>
					</trkpt>
					<trkpt lat="42.927510" lon="11.729840">
						<ele>522</ele>
						<time>2026-05-04T16:32:44Z</time>
					</trkpt>
					<trkpt lat="42.927830" lon="11.730220">
						<ele>526</ele>
						<time>2026-05-04T16:32:52Z</time>
					</trkpt>
					<trkpt lat="42.928410" lon="11.730520">
						<ele>530</ele>
						<time>2026-05-04T16:33:03Z</time>
					</trkpt>
					<trkpt lat="42.928590" lon="11.730680">
						<ele>532</ele>
						<time>2026-05-04T16:33:06Z</time>
					</trkpt>
					<trkpt lat="42.928640" lon="11.730800">
						<ele>534</ele>
						<time>2026-05-04T16:33:08Z</time>
					</trkpt>
					<trkpt lat="42.928640" lon="11.730940">
						<ele>536</ele>
						<time>2026-05-04T16:33:10Z</time>
					</trkpt>
					<trkpt lat="42.928600" lon="11.731070">
						<ele>537</ele>
						<time>2026-05-04T16:33:12Z</time>
					</trkpt>
					<trkpt lat="42.928510" lon="11.731140">
						<ele>538</ele>
						<time>2026-05-04T16:33:14Z</time>
					</trkpt>
					<trkpt lat="42.928320" lon="11.731200">
						<ele>537</ele>
						<time>2026-05-04T16:33:17Z</time>
					</trkpt>
					<trkpt lat="42.927750" lon="11.731040">
						<ele>537</ele>
						<time>2026-05-04T16:33:28Z</time>
					</trkpt>
					<trkpt lat="42.927450" lon="11.731060">
						<ele>538</ele>
						<time>2026-05-04T16:33:33Z</time>
					</trkpt>
					<trkpt lat="42.925530" lon="11.731840">
						<ele>556</ele>
						<time>2026-05-04T16:34:09Z</time>
					</trkpt>
					<trkpt lat="42.925230" lon="11.731900">
						<ele>559</ele>
						<time>2026-05-04T16:34:14Z</time>
					</trkpt>
					<trkpt lat="42.924630" lon="11.731820">
						<ele>561</ele>
						<time>2026-05-04T16:34:25Z</time>
					</trkpt>
					<trkpt lat="42.924220" lon="11.731920">
						<ele>565</ele>
						<time>2026-05-04T16:34:32Z</time>
					</trkpt>
					<trkpt lat="42.923350" lon="11.732320">
						<ele>573</ele>
						<time>2026-05-04T16:34:48Z</time>
					</trkpt>
					<trkpt lat="42.922290" lon="11.733010">
						<ele>581</ele>
						<time>2026-05-04T16:35:09Z</time>
					</trkpt>
					<trkpt lat="42.922100" lon="11.733180">
						<ele>583</ele>
						<time>2026-05-04T16:35:13Z</time>
					</trkpt>
					<trkpt lat="42.921900" lon="11.733490">
						<ele>586</ele>
						<time>2026-05-04T16:35:19Z</time>
					</trkpt>
					<trkpt lat="42.921770" lon="11.733660">
						<ele>587</ele>
						<time>2026-05-04T16:35:22Z</time>
					</trkpt>
					<trkpt lat="42.921600" lon="11.733810">
						<ele>587</ele>
						<time>2026-05-04T16:35:26Z</time>
					</trkpt>
					<trkpt lat="42.921460" lon="11.733890">
						<ele>588</ele>
						<time>2026-05-04T16:35:28Z</time>
					</trkpt>
					<trkpt lat="42.921510" lon="11.733950">
						<ele>588</ele>
						<time>2026-05-04T16:35:29Z</time>
					</trkpt>
					<trkpt lat="42.921630" lon="11.733970">
						<ele>588</ele>
						<time>2026-05-04T16:35:32Z</time>
					</trkpt>
					<trkpt lat="42.921770" lon="11.733980">
						<ele>589</ele>
						<time>2026-05-04T16:35:34Z</time>
					</trkpt>
					<trkpt lat="42.921870" lon="11.733970">
						<ele>589</ele>
						<time>2026-05-04T16:35:36Z</time>
					</trkpt>
					<trkpt lat="42.922120" lon="11.733850">
						<ele>589</ele>
						<time>2026-05-04T16:35:41Z</time>
					</trkpt>
					<trkpt lat="42.922210" lon="11.733820">
						<ele>589</ele>
						<time>2026-05-04T16:35:42Z</time>
					</trkpt>
					<trkpt lat="42.922430" lon="11.733820">
						<ele>590</ele>
						<time>2026-05-04T16:35:46Z</time>
					</trkpt>
					<trkpt lat="42.922580" lon="11.733840">
						<ele>590</ele>
						<time>2026-05-04T16:35:49Z</time>
					</trkpt>
					<trkpt lat="42.922820" lon="11.733930">
						<ele>590</ele>
						<time>2026-05-04T16:35:53Z</time>
					</trkpt>
					<trkpt lat="42.924090" lon="11.734670">
						<ele>584</ele>
						<time>2026-05-04T16:36:18Z</time>
					</trkpt>
					<trkpt lat="42.924410" lon="11.734800">
						<ele>583</ele>
						<time>2026-05-04T16:36:24Z</time>
					</trkpt>
					<trkpt lat="42.925190" lon="11.734830">
						<ele>584</ele>
						<time>2026-05-04T16:36:38Z</time>
					</trkpt>
					<trkpt lat="42.925290" lon="11.734830">
						<ele>584</ele>
						<time>2026-05-04T16:36:39Z</time>
					</trkpt>
					<trkpt lat="42.926100" lon="11.734990">
						<ele>588</ele>
						<time>2026-05-04T16:36:54Z</time>
					</trkpt>
					<trkpt lat="42.926380" lon="11.734950">
						<ele>588</ele>
						<time>2026-05-04T16:36:59Z</time>
					</trkpt>
					<trkpt lat="42.926740" lon="11.734770">
						<ele>587</ele>
						<time>2026-05-04T16:37:06Z</time>
					</trkpt>
					<trkpt lat="42.926990" lon="11.734630">
						<ele>584</ele>
						<time>2026-05-04T16:37:11Z</time>
					</trkpt>
					<trkpt lat="42.927220" lon="11.734560">
						<ele>583</ele>
						<time>2026-05-04T16:37:15Z</time>
					</trkpt>
					<trkpt lat="42.927890" lon="11.734490">
						<ele>583</ele>
						<time>2026-05-04T16:37:27Z</time>
					</trkpt>
					<trkpt lat="42.929120" lon="11.734320">
						<ele>583</ele>
						<time>2026-05-04T16:37:49Z</time>
					</trkpt>
					<trkpt lat="42.929300" lon="11.734280">
						<ele>582</ele>
						<time>2026-05-04T16:37:52Z</time>
					</trkpt>
					<trkpt lat="42.929480" lon="11.734180">
						<ele>581</ele>
						<time>2026-05-04T16:37:55Z</time>
					</trkpt>
					<trkpt lat="42.930120" lon="11.733710">
						<ele>579</ele>
						<time>2026-05-04T16:38:08Z</time>
					</trkpt>
					<trkpt lat="42.930700" lon="11.733420">
						<ele>576</ele>
						<time>2026-05-04T16:38:19Z</time>
					</trkpt>
					<trkpt lat="42.931370" lon="11.732790">
						<ele>573</ele>
						<time>2026-05-04T16:38:34Z</time>
					</trkpt>
					<trkpt lat="42.931550" lon="11.732590">
						<ele>575</ele>
						<time>2026-05-04T16:38:38Z</time>
					</trkpt>
					<trkpt lat="42.931670" lon="11.732350">
						<ele>576</ele>
						<time>2026-05-04T16:38:42Z</time>
					</trkpt>
					<trkpt lat="42.931820" lon="11.732190">
						<ele>576</ele>
						<time>2026-05-04T16:38:45Z</time>
					</trkpt>
					<trkpt lat="42.931980" lon="11.732140">
						<ele>576</ele>
						<time>2026-05-04T16:38:48Z</time>
					</trkpt>
					<trkpt lat="42.932360" lon="11.732110">
						<ele>579</ele>
						<time>2026-05-04T16:38:55Z</time>
					</trkpt>
					<trkpt lat="42.933900" lon="11.732050">
						<ele>589</ele>
						<time>2026-05-04T16:39:22Z</time>
					</trkpt>
					<trkpt lat="42.934110" lon="11.732030">
						<ele>590</ele>
						<time>2026-05-04T16:39:26Z</time>
					</trkpt>
					<trkpt lat="42.935220" lon="11.732080">
						<ele>587</ele>
						<time>2026-05-04T16:39:46Z</time>
					</trkpt>
					<trkpt lat="42.935470" lon="11.732130">
						<ele>587</ele>
						<time>2026-05-04T16:39:50Z</time>
					</trkpt>
					<trkpt lat="42.935850" lon="11.732260">
						<ele>587</ele>
						<time>2026-05-04T16:39:57Z</time>
					</trkpt>
					<trkpt lat="42.936370" lon="11.732420">
						<ele>589</ele>
						<time>2026-05-04T16:40:07Z</time>
					</trkpt>
					<trkpt lat="42.936620" lon="11.732580">
						<ele>591</ele>
						<time>2026-05-04T16:40:12Z</time>
					</trkpt>
					<trkpt lat="42.936840" lon="11.732780">
						<ele>589</ele>
						<time>2026-05-04T16:40:16Z</time>
					</trkpt>
					<trkpt lat="42.937050" lon="11.733050">
						<ele>588</ele>
						<time>2026-05-04T16:40:21Z</time>
					</trkpt>
					<trkpt lat="42.937210" lon="11.733220">
						<ele>589</ele>
						<time>2026-05-04T16:40:25Z</time>
					</trkpt>
					<trkpt lat="42.937380" lon="11.733330">
						<ele>589</ele>
						<time>2026-05-04T16:40:28Z</time>
					</trkpt>
					<trkpt lat="42.937550" lon="11.733330">
						<ele>588</ele>
						<time>2026-05-04T16:40:31Z</time>
					</trkpt>
					<trkpt lat="42.937800" lon="11.733260">
						<ele>583</ele>
						<time>2026-05-04T16:40:36Z</time>
					</trkpt>
					<trkpt lat="42.937940" lon="11.733280">
						<ele>581</ele>
						<time>2026-05-04T16:40:38Z</time>
					</trkpt>
					<trkpt lat="42.938080" lon="11.733340">
						<ele>580</ele>
						<time>2026-05-04T16:40:41Z</time>
					</trkpt>
					<trkpt lat="42.938260" lon="11.733470">
						<ele>576</ele>
						<time>2026-05-04T16:40:45Z</time>
					</trkpt>
					<trkpt lat="42.938410" lon="11.733550">
						<ele>573</ele>
						<time>2026-05-04T16:40:48Z</time>
					</trkpt>
					<trkpt lat="42.938730" lon="11.733600">
						<ele>569</ele>
						<time>2026-05-04T16:40:53Z</time>
					</trkpt>
					<trkpt lat="42.939490" lon="11.733630">
						<ele>570</ele>
						<time>2026-05-04T16:41:07Z</time>
					</trkpt>
					<trkpt lat="42.939640" lon="11.733570">
						<ele>572</ele>
						<time>2026-05-04T16:41:10Z</time>
					</trkpt>
					<trkpt lat="42.939830" lon="11.733430">
						<ele>575</ele>
						<time>2026-05-04T16:41:13Z</time>
					</trkpt>
					<trkpt lat="42.940130" lon="11.733150">
						<ele>575</ele>
						<time>2026-05-04T16:41:20Z</time>
					</trkpt>
					<trkpt lat="42.940280" lon="11.733090">
						<ele>575</ele>
						<time>2026-05-04T16:41:23Z</time>
					</trkpt>
					<trkpt lat="42.940410" lon="11.733080">
						<ele>576</ele>
						<time>2026-05-04T16:41:25Z</time>
					</trkpt>
					<trkpt lat="42.940570" lon="11.733170">
						<ele>579</ele>
						<time>2026-05-04T16:41:28Z</time>
					</trkpt>
					<trkpt lat="42.940740" lon="11.733340">
						<ele>583</ele>
						<time>2026-05-04T16:41:32Z</time>
					</trkpt>
					<trkpt lat="42.940920" lon="11.733520">
						<ele>583</ele>
						<time>2026-05-04T16:41:36Z</time>
					</trkpt>
					<trkpt lat="42.941060" lon="11.733720">
						<ele>581</ele>
						<time>2026-05-04T16:41:39Z</time>
					</trkpt>
					<trkpt lat="42.941170" lon="11.733980">
						<ele>581</ele>
						<time>2026-05-04T16:41:43Z</time>
					</trkpt>
					<trkpt lat="42.941280" lon="11.734370">
						<ele>579</ele>
						<time>2026-05-04T16:41:49Z</time>
					</trkpt>
					<trkpt lat="42.941420" lon="11.734800">
						<ele>577</ele>
						<time>2026-05-04T16:41:55Z</time>
					</trkpt>
					<trkpt lat="42.941510" lon="11.734980">
						<ele>577</ele>
						<time>2026-05-04T16:41:58Z</time>
					</trkpt>
					<trkpt lat="42.941660" lon="11.735060">
						<ele>579</ele>
						<time>2026-05-04T16:42:01Z</time>
					</trkpt>
					<trkpt lat="42.941810" lon="11.735070">
						<ele>577</ele>
						<time>2026-05-04T16:42:03Z</time>
					</trkpt>
					<trkpt lat="42.941950" lon="11.735030">
						<ele>575</ele>
						<time>2026-05-04T16:42:06Z</time>
					</trkpt>
					<trkpt lat="42.942620" lon="11.734550">
						<ele>568</ele>
						<time>2026-05-04T16:42:19Z</time>
					</trkpt>
					<trkpt lat="42.942800" lon="11.734470">
						<ele>568</ele>
						<time>2026-05-04T16:42:23Z</time>
					</trkpt>
					<trkpt lat="42.942900" lon="11.734450">
						<ele>567</ele>
						<time>2026-05-04T16:42:24Z</time>
					</trkpt>
					<trkpt lat="42.943060" lon="11.734500">
						<ele>567</ele>
						<time>2026-05-04T16:42:27Z</time>
					</trkpt>
					<trkpt lat="42.943280" lon="11.734580">
						<ele>565</ele>
						<time>2026-05-04T16:42:31Z</time>
					</trkpt>
					<trkpt lat="42.943440" lon="11.734580">
						<ele>566</ele>
						<time>2026-05-04T16:42:34Z</time>
					</trkpt>
					<trkpt lat="42.943790" lon="11.734380">
						<ele>570</ele>
						<time>2026-05-04T16:42:41Z</time>
					</trkpt>
					<trkpt lat="42.943970" lon="11.734340">
						<ele>572</ele>
						<time>2026-05-04T16:42:44Z</time>
					</trkpt>
					<trkpt lat="42.944280" lon="11.734290">
						<ele>575</ele>
						<time>2026-05-04T16:42:50Z</time>
					</trkpt>
					<trkpt lat="42.944500" lon="11.734270">
						<ele>577</ele>
						<time>2026-05-04T16:42:54Z</time>
					</trkpt>
					<trkpt lat="42.944650" lon="11.734330">
						<ele>579</ele>
						<time>2026-05-04T16:42:57Z</time>
					</trkpt>
					<trkpt lat="42.945330" lon="11.734720">
						<ele>588</ele>
						<time>2026-05-04T16:43:10Z</time>
					</trkpt>
					<trkpt lat="42.945500" lon="11.734800">
						<ele>590</ele>
						<time>2026-05-04T16:43:13Z</time>
					</trkpt>
					<trkpt lat="42.945640" lon="11.734830">
						<ele>591</ele>
						<time>2026-05-04T16:43:15Z</time>
					</trkpt>
					<trkpt lat="42.945820" lon="11.734790">
						<ele>593</ele>
						<time>2026-05-04T16:43:19Z</time>
					</trkpt>
					<trkpt lat="42.946180" lon="11.734600">
						<ele>594</ele>
						<time>2026-05-04T16:43:25Z</time>
					</trkpt>
					<trkpt lat="42.946510" lon="11.734260">
						<ele>600</ele>
						<time>2026-05-04T16:43:33Z</time>
					</trkpt>
					<trkpt lat="42.946650" lon="11.734160">
						<ele>603</ele>
						<time>2026-05-04T16:43:36Z</time>
					</trkpt>
					<trkpt lat="42.946950" lon="11.734010">
						<ele>602</ele>
						<time>2026-05-04T16:43:41Z</time>
					</trkpt>
					<trkpt lat="42.947150" lon="11.733830">
						<ele>602</ele>
						<time>2026-05-04T16:43:46Z</time>
					</trkpt>
					<trkpt lat="42.947380" lon="11.733550">
						<ele>604</ele>
						<time>2026-05-04T16:43:51Z</time>
					</trkpt>
					<trkpt lat="42.947490" lon="11.733370">
						<ele>606</ele>
						<time>2026-05-04T16:43:54Z</time>
					</trkpt>
					<trkpt lat="42.947720" lon="11.732820">
						<ele>607</ele>
						<time>2026-05-04T16:44:02Z</time>
					</trkpt>
					<trkpt lat="42.947860" lon="11.732560">
						<ele>607</ele>
						<time>2026-05-04T16:44:07Z</time>
					</trkpt>
					<trkpt lat="42.948030" lon="11.732330">
						<ele>607</ele>
						<time>2026-05-04T16:44:11Z</time>
					</trkpt>
					<trkpt lat="42.948190" lon="11.732190">
						<ele>607</ele>
						<time>2026-05-04T16:44:14Z</time>
					</trkpt>
					<trkpt lat="42.948800" lon="11.731850">
						<ele>606</ele>
						<time>2026-05-04T16:44:26Z</time>
					</trkpt>
					<trkpt lat="42.949020" lon="11.731640">
						<ele>607</ele>
						<time>2026-05-04T16:44:31Z</time>
					</trkpt>
					<trkpt lat="42.949790" lon="11.730720">
						<ele>599</ele>
						<time>2026-05-04T16:44:49Z</time>
					</trkpt>
					<trkpt lat="42.949970" lon="11.730580">
						<ele>598</ele>
						<time>2026-05-04T16:44:53Z</time>
					</trkpt>
					<trkpt lat="42.950120" lon="11.730530">
						<ele>596</ele>
						<time>2026-05-04T16:44:55Z</time>
					</trkpt>
					<trkpt lat="42.950230" lon="11.730560">
						<ele>595</ele>
						<time>2026-05-04T16:44:57Z</time>
					</trkpt>
					<trkpt lat="42.950400" lon="11.730630">
						<ele>594</ele>
						<time>2026-05-04T16:45:01Z</time>
					</trkpt>
					<trkpt lat="42.950540" lon="11.730650">
						<ele>593</ele>
						<time>2026-05-04T16:45:03Z</time>
					</trkpt>
					<trkpt lat="42.950700" lon="11.730610">
						<ele>591</ele>
						<time>2026-05-04T16:45:06Z</time>
					</trkpt>
					<trkpt lat="42.951820" lon="11.729890">
						<ele>581</ele>
						<time>2026-05-04T16:45:28Z</time>
					</trkpt>
					<trkpt lat="42.952180" lon="11.729680">
						<ele>577</ele>
						<time>2026-05-04T16:45:35Z</time>
					</trkpt>
					<trkpt lat="42.952810" lon="11.729330">
						<ele>576</ele>
						<time>2026-05-04T16:45:47Z</time>
					</trkpt>
					<trkpt lat="42.953040" lon="11.729150">
						<ele>576</ele>
						<time>2026-05-04T16:45:52Z</time>
					</trkpt>
					<trkpt lat="42.953210" lon="11.728960">
						<ele>575</ele>
						<time>2026-05-04T16:45:56Z</time>
					</trkpt>
					<trkpt lat="42.953680" lon="11.728330">
						<ele>573</ele>
						<time>2026-05-04T16:46:07Z</time>
					</trkpt>
					<trkpt lat="42.953840" lon="11.728170">
						<ele>571</ele>
						<time>2026-05-04T16:46:11Z</time>
					</trkpt>
					<trkpt lat="42.954370" lon="11.727720">
						<ele>573</ele>
						<time>2026-05-04T16:46:22Z</time>
					</trkpt>
					<trkpt lat="42.954500" lon="11.727560">
						<ele>575</ele>
						<time>2026-05-04T16:46:25Z</time>
					</trkpt>
					<trkpt lat="42.954590" lon="11.727400">
						<ele>576</ele>
						<time>2026-05-04T16:46:28Z</time>
					</trkpt>
					<trkpt lat="42.954870" lon="11.726660">
						<ele>580</ele>
						<time>2026-05-04T16:46:39Z</time>
					</trkpt>
					<trkpt lat="42.954940" lon="11.726530">
						<ele>581</ele>
						<time>2026-05-04T16:46:41Z</time>
					</trkpt>
					<trkpt lat="42.955040" lon="11.726460">
						<ele>581</ele>
						<time>2026-05-04T16:46:43Z</time>
					</trkpt>
					<trkpt lat="42.955170" lon="11.726450">
						<ele>581</ele>
						<time>2026-05-04T16:46:45Z</time>
					</trkpt>
					<trkpt lat="42.955690" lon="11.726530">
						<ele>578</ele>
						<time>2026-05-04T16:46:54Z</time>
					</trkpt>
					<trkpt lat="42.955880" lon="11.726580">
						<ele>578</ele>
						<time>2026-05-04T16:46:58Z</time>
					</trkpt>
					<trkpt lat="42.956090" lon="11.726660">
						<ele>576</ele>
						<time>2026-05-04T16:47:02Z</time>
					</trkpt>
					<trkpt lat="42.956300" lon="11.726770">
						<ele>574</ele>
						<time>2026-05-04T16:47:06Z</time>
					</trkpt>
					<trkpt lat="42.957010" lon="11.727290">
						<ele>576</ele>
						<time>2026-05-04T16:47:20Z</time>
					</trkpt>
					<trkpt lat="42.957350" lon="11.727460">
						<ele>581</ele>
						<time>2026-05-04T16:47:26Z</time>
					</trkpt>
					<trkpt lat="42.957570" lon="11.727500">
						<ele>585</ele>
						<time>2026-05-04T16:47:30Z</time>
					</trkpt>
					<trkpt lat="42.957910" lon="11.727450">
						<ele>587</ele>
						<time>2026-05-04T16:47:36Z</time>
					</trkpt>
					<trkpt lat="42.958200" lon="11.727340">
						<ele>588</ele>
						<time>2026-05-04T16:47:42Z</time>
					</trkpt>
					<trkpt lat="42.958340" lon="11.727270">
						<ele>588</ele>
						<time>2026-05-04T16:47:44Z</time>
					</trkpt>
					<trkpt lat="42.958520" lon="11.727130">
						<ele>588</ele>
						<time>2026-05-04T16:47:48Z</time>
					</trkpt>
					<trkpt lat="42.958860" lon="11.726820">
						<ele>589</ele>
						<time>2026-05-04T16:47:55Z</time>
					</trkpt>
					<trkpt lat="42.959040" lon="11.726700">
						<ele>590</ele>
						<time>2026-05-04T16:47:59Z</time>
					</trkpt>
					<trkpt lat="42.959150" lon="11.726660">
						<ele>591</ele>
						<time>2026-05-04T16:48:01Z</time>
					</trkpt>
					<trkpt lat="42.959280" lon="11.726660">
						<ele>591</ele>
						<time>2026-05-04T16:48:03Z</time>
					</trkpt>
					<trkpt lat="42.959860" lon="11.726830">
						<ele>594</ele>
						<time>2026-05-04T16:48:14Z</time>
					</trkpt>
					<trkpt lat="42.960590" lon="11.727070">
						<ele>595</ele>
						<time>2026-05-04T16:48:27Z</time>
					</trkpt>
					<trkpt lat="42.960820" lon="11.727120">
						<ele>596</ele>
						<time>2026-05-04T16:48:31Z</time>
					</trkpt>
					<trkpt lat="42.960980" lon="11.727140">
						<ele>595</ele>
						<time>2026-05-04T16:48:34Z</time>
					</trkpt>
					<trkpt lat="42.961300" lon="11.727110">
						<ele>593</ele>
						<time>2026-05-04T16:48:40Z</time>
					</trkpt>
					<trkpt lat="42.961580" lon="11.727020">
						<ele>590</ele>
						<time>2026-05-04T16:48:45Z</time>
					</trkpt>
					<trkpt lat="42.961740" lon="11.726940">
						<ele>588</ele>
						<time>2026-05-04T16:48:48Z</time>
					</trkpt>
					<trkpt lat="42.961830" lon="11.726920">
						<ele>586</ele>
						<time>2026-05-04T16:48:50Z</time>
					</trkpt>
					<trkpt lat="42.961900" lon="11.726930">
						<ele>585</ele>
						<time>2026-05-04T16:48:51Z</time>
					</trkpt>
					<trkpt lat="42.961950" lon="11.726970">
						<ele>585</ele>
						<time>2026-05-04T16:48:52Z</time>
					</trkpt>
					<trkpt lat="42.962020" lon="11.727080">
						<ele>586</ele>
						<time>2026-05-04T16:48:54Z</time>
					</trkpt>
					<trkpt lat="42.962200" lon="11.727540">
						<ele>591</ele>
						<time>2026-05-04T16:49:01Z</time>
					</trkpt>
					<trkpt lat="42.962230" lon="11.727600">
						<ele>591</ele>
						<time>2026-05-04T16:49:02Z</time>
					</trkpt>
					<trkpt lat="42.962290" lon="11.727670">
						<ele>591</ele>
						<time>2026-05-04T16:49:03Z</time>
					</trkpt>
					<trkpt lat="42.962360" lon="11.727720">
						<ele>591</ele>
						<time>2026-05-04T16:49:04Z</time>
					</trkpt>
					<trkpt lat="42.963230" lon="11.728140">
						<ele>586</ele>
						<time>2026-05-04T16:49:21Z</time>
					</trkpt>
					<trkpt lat="42.963370" lon="11.728260">
						<ele>587</ele>
						<time>2026-05-04T16:49:24Z</time>
					</trkpt>
					<trkpt lat="42.963470" lon="11.728360">
						<ele>587</ele>
						<time>2026-05-04T16:49:26Z</time>
					</trkpt>
					<trkpt lat="42.964340" lon="11.729310">
						<ele>583</ele>
						<time>2026-05-04T16:49:46Z</time>
					</trkpt>
					<trkpt lat="42.964550" lon="11.729540">
						<ele>579</ele>
						<time>2026-05-04T16:49:51Z</time>
					</trkpt>
					<trkpt lat="42.964620" lon="11.729650">
						<ele>578</ele>
						<time>2026-05-04T16:49:52Z</time>
					</trkpt>
					<trkpt lat="42.964700" lon="11.729820">
						<ele>577</ele>
						<time>2026-05-04T16:49:55Z</time>
					</trkpt>
					<trkpt lat="42.964770" lon="11.730120">
						<ele>576</ele>
						<time>2026-05-04T16:49:59Z</time>
					</trkpt>
					<trkpt lat="42.964780" lon="11.730200">
						<ele>575</ele>
						<time>2026-05-04T16:50:00Z</time>
					</trkpt>
					<trkpt lat="42.964800" lon="11.730430">
						<ele>574</ele>
						<time>2026-05-04T16:50:03Z</time>
					</trkpt>
					<trkpt lat="42.964830" lon="11.731250">
						<ele>570</ele>
						<time>2026-05-04T16:50:14Z</time>
					</trkpt>
					<trkpt lat="42.964860" lon="11.731410">
						<ele>569</ele>
						<time>2026-05-04T16:50:16Z</time>
					</trkpt>
					<trkpt lat="42.964890" lon="11.731510">
						<ele>568</ele>
						<time>2026-05-04T16:50:18Z</time>
					</trkpt>
					<trkpt lat="42.964950" lon="11.731620">
						<ele>569</ele>
						<time>2026-05-04T16:50:19Z</time>
					</trkpt>
					<trkpt lat="42.965000" lon="11.731690">
						<ele>569</ele>
						<time>2026-05-04T16:50:21Z</time>
					</trkpt>
					<trkpt lat="42.965090" lon="11.731780">
						<ele>566</ele>
						<time>2026-05-04T16:50:23Z</time>
					</trkpt>
					<trkpt lat="42.965260" lon="11.731910">
						<ele>563</ele>
						<time>2026-05-04T16:50:26Z</time>
					</trkpt>
					<trkpt lat="42.965310" lon="11.731940">
						<ele>563</ele>
						<time>2026-05-04T16:50:27Z</time>
					</trkpt>
					<trkpt lat="42.965380" lon="11.731950">
						<ele>562</ele>
						<time>2026-05-04T16:50:28Z</time>
					</trkpt>
					<trkpt lat="42.965650" lon="11.731910">
						<ele>560</ele>
						<time>2026-05-04T16:50:33Z</time>
					</trkpt>
					<trkpt lat="42.965710" lon="11.731930">
						<ele>560</ele>
						<time>2026-05-04T16:50:34Z</time>
					</trkpt>
					<trkpt lat="42.965770" lon="11.731990">
						<ele>559</ele>
						<time>2026-05-04T16:50:36Z</time>
					</trkpt>
					<trkpt lat="42.965800" lon="11.732030">
						<ele>559</ele>
						<time>2026-05-04T16:50:36Z</time>
					</trkpt>
					<trkpt lat="42.965890" lon="11.732240">
						<ele>557</ele>
						<time>2026-05-04T16:50:39Z</time>
					</trkpt>
					<trkpt lat="42.966220" lon="11.733260">
						<ele>544</ele>
						<time>2026-05-04T16:50:54Z</time>
					</trkpt>
					<trkpt lat="42.966280" lon="11.733390">
						<ele>542</ele>
						<time>2026-05-04T16:50:56Z</time>
					</trkpt>
					<trkpt lat="42.966330" lon="11.733450">
						<ele>541</ele>
						<time>2026-05-04T16:50:57Z</time>
					</trkpt>
					<trkpt lat="42.966620" lon="11.733620">
						<ele>540</ele>
						<time>2026-05-04T16:51:03Z</time>
					</trkpt>
					<trkpt lat="42.966710" lon="11.733650">
						<ele>539</ele>
						<time>2026-05-04T16:51:04Z</time>
					</trkpt>
					<trkpt lat="42.966800" lon="11.733660">
						<ele>538</ele>
						<time>2026-05-04T16:51:06Z</time>
					</trkpt>
					<trkpt lat="42.966860" lon="11.733650">
						<ele>538</ele>
						<time>2026-05-04T16:51:07Z</time>
					</trkpt>
					<trkpt lat="42.967040" lon="11.733600">
						<ele>537</ele>
						<time>2026-05-04T16:51:10Z</time>
					</trkpt>
					<trkpt lat="42.967310" lon="11.733390">
						<ele>537</ele>
						<time>2026-05-04T16:51:16Z</time>
					</trkpt>
					<trkpt lat="42.967410" lon="11.733360">
						<ele>537</ele>
						<time>2026-05-04T16:51:18Z</time>
					</trkpt>
					<trkpt lat="42.967590" lon="11.733410">
						<ele>535</ele>
						<time>2026-05-04T16:51:21Z</time>
					</trkpt>
					<trkpt lat="42.968140" lon="11.733780">
						<ele>531</ele>
						<time>2026-05-04T16:51:32Z</time>
					</trkpt>
					<trkpt lat="42.968960" lon="11.734720">
						<ele>519</ele>
						<time>2026-05-04T16:51:51Z</time>
					</trkpt>
					<trkpt lat="42.969120" lon="11.734920">
						<ele>518</ele>
						<time>2026-05-04T16:51:55Z</time>
					</trkpt>
					<trkpt lat="42.969240" lon="11.735120">
						<ele>515</ele>
						<time>2026-05-04T16:51:58Z</time>
					</trkpt>
					<trkpt lat="42.969450" lon="11.735510">
						<ele>510</ele>
						<time>2026-05-04T16:52:04Z</time>
					</trkpt>
					<trkpt lat="42.969580" lon="11.735690">
						<ele>509</ele>
						<time>2026-05-04T16:52:08Z</time>
					</trkpt>
					<trkpt lat="42.969650" lon="11.735770">
						<ele>509</ele>
						<time>2026-05-04T16:52:09Z</time>
					</trkpt>
					<trkpt lat="42.969800" lon="11.735930">
						<ele>509</ele>
						<time>2026-05-04T16:52:13Z</time>
					</trkpt>
					<trkpt lat="42.969920" lon="11.736040">
						<ele>509</ele>
						<time>2026-05-04T16:52:15Z</time>
					</trkpt>
					<trkpt lat="42.970050" lon="11.736120">
						<ele>509</ele>
						<time>2026-05-04T16:52:18Z</time>
					</trkpt>
					<trkpt lat="42.970100" lon="11.736140">
						<ele>508</ele>
						<time>2026-05-04T16:52:19Z</time>
					</trkpt>
					<trkpt lat="42.970200" lon="11.736160">
						<ele>508</ele>
						<time>2026-05-04T16:52:21Z</time>
					</trkpt>
					<trkpt lat="42.970310" lon="11.736160">
						<ele>508</ele>
						<time>2026-05-04T16:52:23Z</time>
					</trkpt>
					<trkpt lat="42.970490" lon="11.736130">
						<ele>507</ele>
						<time>2026-05-04T16:52:26Z</time>
					</trkpt>
					<trkpt lat="42.970780" lon="11.736140">
						<ele>505</ele>
						<time>2026-05-04T16:52:31Z</time>
					</trkpt>
					<trkpt lat="42.970860" lon="11.736150">
						<ele>505</ele>
						<time>2026-05-04T16:52:32Z</time>
					</trkpt>
					<trkpt lat="42.971090" lon="11.736220">
						<ele>504</ele>
						<time>2026-05-04T16:52:37Z</time>
					</trkpt>
					<trkpt lat="42.971320" lon="11.736340">
						<ele>503</ele>
						<time>2026-05-04T16:52:41Z</time>
					</trkpt>
					<trkpt lat="42.972400" lon="11.736990">
						<ele>497</ele>
						<time>2026-05-04T16:53:02Z</time>
					</trkpt>
					<trkpt lat="42.973010" lon="11.737320">
						<ele>493</ele>
						<time>2026-05-04T16:53:14Z</time>
					</trkpt>
					<trkpt lat="42.973280" lon="11.737470">
						<ele>492</ele>
						<time>2026-05-04T16:53:19Z</time>
					</trkpt>
					<trkpt lat="42.973580" lon="11.737690">
						<ele>491</ele>
						<time>2026-05-04T16:53:25Z</time>
					</trkpt>
					<trkpt lat="42.973690" lon="11.737810">
						<ele>490</ele>
						<time>2026-05-04T16:53:27Z</time>
					</trkpt>
					<trkpt lat="42.973780" lon="11.737970">
						<ele>490</ele>
						<time>2026-05-04T16:53:30Z</time>
					</trkpt>
					<trkpt lat="42.973930" lon="11.738290">
						<ele>490</ele>
						<time>2026-05-04T16:53:35Z</time>
					</trkpt>
					<trkpt lat="42.974010" lon="11.738440">
						<ele>490</ele>
						<time>2026-05-04T16:53:37Z</time>
					</trkpt>
					<trkpt lat="42.974070" lon="11.738530">
						<ele>489</ele>
						<time>2026-05-04T16:53:39Z</time>
					</trkpt>
					<trkpt lat="42.974110" lon="11.738550">
						<ele>489</ele>
						<time>2026-05-04T16:53:40Z</time>
					</trkpt>
					<trkpt lat="42.974180" lon="11.738580">
						<ele>488</ele>
						<time>2026-05-04T16:53:41Z</time>
					</trkpt>
					<trkpt lat="42.974910" lon="11.738790">
						<ele>484</ele>
						<time>2026-05-04T16:53:54Z</time>
					</trkpt>
					<trkpt lat="42.975010" lon="11.738830">
						<ele>484</ele>
						<time>2026-05-04T16:53:56Z</time>
					</trkpt>
					<trkpt lat="42.975070" lon="11.738880">
						<ele>483</ele>
						<time>2026-05-04T16:53:57Z</time>
					</trkpt>
					<trkpt lat="42.975140" lon="11.739000">
						<ele>483</ele>
						<time>2026-05-04T16:53:59Z</time>
					</trkpt>
					<trkpt lat="42.975450" lon="11.739910">
						<ele>481</ele>
						<time>2026-05-04T16:54:12Z</time>
					</trkpt>
					<trkpt lat="42.975480" lon="11.740000">
						<ele>480</ele>
						<time>2026-05-04T16:54:14Z</time>
					</trkpt>
					<trkpt lat="42.975540" lon="11.740080">
						<ele>480</ele>
						<time>2026-05-04T16:54:15Z</time>
					</trkpt>
					<trkpt lat="42.975580" lon="11.740100">
						<ele>479</ele>
						<time>2026-05-04T16:54:16Z</time>
					</trkpt>
					<trkpt lat="42.975830" lon="11.740210">
						<ele>477</ele>
						<time>2026-05-04T16:54:21Z</time>
					</trkpt>
					<trkpt lat="42.975920" lon="11.740270">
						<ele>476</ele>
						<time>2026-05-04T16:54:22Z</time>
					</trkpt>
					<trkpt lat="42.976000" lon="11.740340">
						<ele>476</ele>
						<time>2026-05-04T16:54:24Z</time>
					</trkpt>
					<trkpt lat="42.976060" lon="11.740410">
						<ele>476</ele>
						<time>2026-05-04T16:54:26Z</time>
					</trkpt>
					<trkpt lat="42.976130" lon="11.740500">
						<ele>475</ele>
						<time>2026-05-04T16:54:27Z</time>
					</trkpt>
					<trkpt lat="42.976340" lon="11.740840">
						<ele>476</ele>
						<time>2026-05-04T16:54:33Z</time>
					</trkpt>
					<trkpt lat="42.976420" lon="11.740950">
						<ele>476</ele>
						<time>2026-05-04T16:54:35Z</time>
					</trkpt>
					<trkpt lat="42.976460" lon="11.740940">
						<ele>476</ele>
						<time>2026-05-04T16:54:36Z</time>
					</trkpt>
					<trkpt lat="42.976530" lon="11.740870">
						<ele>476</ele>
						<time>2026-05-04T16:54:37Z</time>
					</trkpt>
					<trkpt lat="42.976550" lon="11.740820">
						<ele>475</ele>
						<time>2026-05-04T16:54:38Z</time>
					</trkpt>
					<trkpt lat="42.976560" lon="11.740760">
						<ele>475</ele>
						<time>2026-05-04T16:54:39Z</time>
					</trkpt>
					<trkpt lat="42.976530" lon="11.740670">
						<ele>474</ele>
						<time>2026-05-04T16:54:40Z</time>
					</trkpt>
					<trkpt lat="42.976270" lon="11.740170">
						<ele>472</ele>
						<time>2026-05-04T16:54:48Z</time>
					</trkpt>
					<trkpt lat="42.976180" lon="11.740010">
						<ele>472</ele>
						<time>2026-05-04T16:54:51Z</time>
					</trkpt>
					<trkpt lat="42.976150" lon="11.739930">
						<ele>473</ele>
						<time>2026-05-04T16:54:52Z</time>
					</trkpt>
					<trkpt lat="42.976110" lon="11.739780">
						<ele>472</ele>
						<time>2026-05-04T16:54:54Z</time>
					</trkpt>
					<trkpt lat="42.976100" lon="11.739700">
						<ele>472</ele>
						<time>2026-05-04T16:54:55Z</time>
					</trkpt>
					<trkpt lat="42.976100" lon="11.739630">
						<ele>472</ele>
						<time>2026-05-04T16:54:56Z</time>
					</trkpt>
					<trkpt lat="42.976110" lon="11.739500">
						<ele>471</ele>
						<time>2026-05-04T16:54:58Z</time>
					</trkpt>
					<trkpt lat="42.976130" lon="11.739400">
						<ele>471</ele>
						<time>2026-05-04T16:54:59Z</time>
					</trkpt>
					<trkpt lat="42.976160" lon="11.739310">
						<ele>470</ele>
						<time>2026-05-04T16:55:00Z</time>
					</trkpt>
					<trkpt lat="42.976220" lon="11.739200">
						<ele>469</ele>
						<time>2026-05-04T16:55:02Z</time>
					</trkpt>
					<trkpt lat="42.976270" lon="11.739150">
						<ele>468</ele>
						<time>2026-05-04T16:55:03Z</time>
					</trkpt>
					<trkpt lat="42.976320" lon="11.739120">
						<ele>467</ele>
						<time>2026-05-04T16:55:04Z</time>
					</trkpt>
					<trkpt lat="42.976410" lon="11.739080">
						<ele>465</ele>
						<time>2026-05-04T16:55:06Z</time>
					</trkpt>
					<trkpt lat="42.976490" lon="11.739060">
						<ele>464</ele>
						<time>2026-05-04T16:55:07Z</time>
					</trkpt>
					<trkpt lat="42.976630" lon="11.739040">
						<ele>462</ele>
						<time>2026-05-04T16:55:10Z</time>
					</trkpt>
					<trkpt lat="42.976730" lon="11.739050">
						<ele>461</ele>
						<time>2026-05-04T16:55:12Z</time>
					</trkpt>
					<trkpt lat="42.976830" lon="11.739080">
						<ele>460</ele>
						<time>2026-05-04T16:55:13Z</time>
					</trkpt>
					<trkpt lat="42.976930" lon="11.739140">
						<ele>460</ele>
						<time>2026-05-04T16:55:15Z</time>
					</trkpt>
					<trkpt lat="42.977110" lon="11.739260">
						<ele>459</ele>
						<time>2026-05-04T16:55:19Z</time>
					</trkpt>
					<trkpt lat="42.977170" lon="11.739320">
						<ele>458</ele>
						<time>2026-05-04T16:55:20Z</time>
					</trkpt>
					<trkpt lat="42.977230" lon="11.739380">
						<ele>458</ele>
						<time>2026-05-04T16:55:22Z</time>
					</trkpt>
					<trkpt lat="42.977480" lon="11.739770">
						<ele>457</ele>
						<time>2026-05-04T16:55:28Z</time>
					</trkpt>
					<trkpt lat="42.977550" lon="11.739870">
						<ele>457</ele>
						<time>2026-05-04T16:55:30Z</time>
					</trkpt>
					<trkpt lat="42.977650" lon="11.739990">
						<ele>457</ele>
						<time>2026-05-04T16:55:32Z</time>
					</trkpt>
					<trkpt lat="42.977760" lon="11.740080">
						<ele>456</ele>
						<time>2026-05-04T16:55:35Z</time>
					</trkpt>
					<trkpt lat="42.978130" lon="11.740290">
						<ele>453</ele>
						<time>2026-05-04T16:55:42Z</time>
					</trkpt>
					<trkpt lat="42.979080" lon="11.740810">
						<ele>444</ele>
						<time>2026-05-04T16:56:00Z</time>
					</trkpt>
					<trkpt lat="42.979220" lon="11.740900">
						<ele>442</ele>
						<time>2026-05-04T16:56:03Z</time>
					</trkpt>
					<trkpt lat="42.979270" lon="11.740950">
						<ele>442</ele>
						<time>2026-05-04T16:56:04Z</time>
					</trkpt>
					<trkpt lat="42.979340" lon="11.741030">
						<ele>441</ele>
						<time>2026-05-04T16:56:06Z</time>
					</trkpt>
					<trkpt lat="42.979430" lon="11.741150">
						<ele>440</ele>
						<time>2026-05-04T16:56:08Z</time>
					</trkpt>
					<trkpt lat="42.979490" lon="11.741280">
						<ele>440</ele>
						<time>2026-05-04T16:56:10Z</time>
					</trkpt>
					<trkpt lat="42.979540" lon="11.741460">
						<ele>440</ele>
						<time>2026-05-04T16:56:12Z</time>
					</trkpt>
					<trkpt lat="42.979560" lon="11.741590">
						<ele>440</ele>
						<time>2026-05-04T16:56:14Z</time>
					</trkpt>
					<trkpt lat="42.979570" lon="11.741730">
						<ele>440</ele>
						<time>2026-05-04T16:56:16Z</time>
					</trkpt>
					<trkpt lat="42.979570" lon="11.741880">
						<ele>439</ele>
						<time>2026-05-04T16:56:18Z</time>
					</trkpt>
					<trkpt lat="42.979540" lon="11.742980">
						<ele>434</ele>
						<time>2026-05-04T16:56:32Z</time>
					</trkpt>
					<trkpt lat="42.979520" lon="11.743610">
						<ele>430</ele>
						<time>2026-05-04T16:56:40Z</time>
					</trkpt>
					<trkpt lat="42.979510" lon="11.744060">
						<ele>427</ele>
						<time>2026-05-04T16:56:46Z</time>
					</trkpt>
					<trkpt lat="42.979490" lon="11.744700">
						<ele>424</ele>
						<time>2026-05-04T16:56:55Z</time>
					</trkpt>
					<trkpt lat="42.979510" lon="11.745030">
						<ele>423</ele>
						<time>2026-05-04T16:56:59Z</time>
					</trkpt>
					<trkpt lat="42.979520" lon="11.745110">
						<ele>422</ele>
						<time>2026-05-04T16:57:00Z</time>
					</trkpt>
					<trkpt lat="42.979590" lon="11.745450">
						<ele>421</ele>
						<time>2026-05-04T16:57:05Z</time>
					</trkpt>
					<trkpt lat="42.979710" lon="11.745760">
						<ele>419</ele>
						<time>2026-05-04T16:57:09Z</time>
					</trkpt>
					<trkpt lat="42.979900" lon="11.746130">
						<ele>417</ele>
						<time>2026-05-04T16:57:15Z</time>
					</trkpt>
					<trkpt lat="42.980480" lon="11.746960">
						<ele>410</ele>
						<time>2026-05-04T16:57:30Z</time>
					</trkpt>
					<trkpt lat="42.980780" lon="11.747290">
						<ele>407</ele>
						<time>2026-05-04T16:57:37Z</time>
					</trkpt>
					<trkpt lat="42.981320" lon="11.747750">
						<ele>403</ele>
						<time>2026-05-04T16:57:48Z</time>
					</trkpt>
					<trkpt lat="42.981770" lon="11.748150">
						<ele>399</ele>
						<time>2026-05-04T16:57:58Z</time>
					</trkpt>
					<trkpt lat="42.981860" lon="11.748300">
						<ele>398</ele>
						<time>2026-05-04T16:58:00Z</time>
					</trkpt>
					<trkpt lat="42.981910" lon="11.748480">
						<ele>397</ele>
						<time>2026-05-04T16:58:03Z</time>
					</trkpt>
					<trkpt lat="42.981930" lon="11.748670">
						<ele>395</ele>
						<time>2026-05-04T16:58:05Z</time>
					</trkpt>
					<trkpt lat="42.981910" lon="11.748840">
						<ele>395</ele>
						<time>2026-05-04T16:58:07Z</time>
					</trkpt>
					<trkpt lat="42.981830" lon="11.748980">
						<ele>396</ele>
						<time>2026-05-04T16:58:10Z</time>
					</trkpt>
					<trkpt lat="42.981790" lon="11.749030">
						<ele>396</ele>
						<time>2026-05-04T16:58:11Z</time>
					</trkpt>
					<trkpt lat="42.981690" lon="11.749160">
						<ele>398</ele>
						<time>2026-05-04T16:58:13Z</time>
					</trkpt>
					<trkpt lat="42.981250" lon="11.749480">
						<ele>397</ele>
						<time>2026-05-04T16:58:22Z</time>
					</trkpt>
					<trkpt lat="42.980440" lon="11.750010">
						<ele>396</ele>
						<time>2026-05-04T16:58:38Z</time>
					</trkpt>
					<trkpt lat="42.980240" lon="11.750160">
						<ele>395</ele>
						<time>2026-05-04T16:58:42Z</time>
					</trkpt>
					<trkpt lat="42.980130" lon="11.750340">
						<ele>393</ele>
						<time>2026-05-04T16:58:45Z</time>
					</trkpt>
					<trkpt lat="42.980090" lon="11.750520">
						<ele>391</ele>
						<time>2026-05-04T16:58:48Z</time>
					</trkpt>
					<trkpt lat="42.980100" lon="11.750710">
						<ele>389</ele>
						<time>2026-05-04T16:58:50Z</time>
					</trkpt>
					<trkpt lat="42.980140" lon="11.750870">
						<ele>387</ele>
						<time>2026-05-04T16:58:52Z</time>
					</trkpt>
					<trkpt lat="42.980220" lon="11.751020">
						<ele>384</ele>
						<time>2026-05-04T16:58:55Z</time>
					</trkpt>
					<trkpt lat="42.980350" lon="11.751150">
						<ele>382</ele>
						<time>2026-05-04T16:58:58Z</time>
					</trkpt>
					<trkpt lat="42.980710" lon="11.751230">
						<ele>380</ele>
						<time>2026-05-04T16:59:04Z</time>
					</trkpt>
					<trkpt lat="42.982150" lon="11.751170">
						<ele>371</ele>
						<time>2026-05-04T16:59:30Z</time>
					</trkpt>
					<trkpt lat="42.982480" lon="11.751050">
						<ele>369</ele>
						<time>2026-05-04T16:59:36Z</time>
					</trkpt>
					<trkpt lat="42.982940" lon="11.750840">
						<ele>367</ele>
						<time>2026-05-04T16:59:44Z</time>
					</trkpt>
					<trkpt lat="42.984090" lon="11.750130">
						<ele>359</ele>
						<time>2026-05-04T17:00:07Z</time>
					</trkpt>
					<trkpt lat="42.984190" lon="11.750070">
						<ele>358</ele>
						<time>2026-05-04T17:00:09Z</time>
					</trkpt>
					<trkpt lat="42.984310" lon="11.750010">
						<ele>358</ele>
						<time>2026-05-04T17:00:11Z</time>
					</trkpt>
					<trkpt lat="42.984440" lon="11.749990">
						<ele>358</ele>
						<time>2026-05-04T17:00:13Z</time>
					</trkpt>
					<trkpt lat="42.984560" lon="11.750000">
						<ele>358</ele>
						<time>2026-05-04T17:00:15Z</time>
					</trkpt>
					<trkpt lat="42.985160" lon="11.750180">
						<ele>352</ele>
						<time>2026-05-04T17:00:26Z</time>
					</trkpt>
					<trkpt lat="42.985260" lon="11.750180">
						<ele>350</ele>
						<time>2026-05-04T17:00:28Z</time>
					</trkpt>
					<trkpt lat="42.985390" lon="11.750160">
						<ele>349</ele>
						<time>2026-05-04T17:00:31Z</time>
					</trkpt>
					<trkpt lat="42.985520" lon="11.750110">
						<ele>347</ele>
						<time>2026-05-04T17:00:33Z</time>
					</trkpt>
					<trkpt lat="42.986450" lon="11.749510">
						<ele>340</ele>
						<time>2026-05-04T17:00:51Z</time>
					</trkpt>
					<trkpt lat="42.986520" lon="11.749470">
						<ele>340</ele>
						<time>2026-05-04T17:00:53Z</time>
					</trkpt>
					<trkpt lat="42.986600" lon="11.749450">
						<ele>339</ele>
						<time>2026-05-04T17:00:54Z</time>
					</trkpt>
					<trkpt lat="42.986770" lon="11.749440">
						<ele>337</ele>
						<time>2026-05-04T17:00:57Z</time>
					</trkpt>
					<trkpt lat="42.986850" lon="11.749480">
						<ele>336</ele>
						<time>2026-05-04T17:00:59Z</time>
					</trkpt>
					<trkpt lat="42.986920" lon="11.749540">
						<ele>335</ele>
						<time>2026-05-04T17:01:00Z</time>
					</trkpt>
					<trkpt lat="42.986980" lon="11.749630">
						<ele>333</ele>
						<time>2026-05-04T17:01:02Z</time>
					</trkpt>
					<trkpt lat="42.987020" lon="11.749780">
						<ele>331</ele>
						<time>2026-05-04T17:01:04Z</time>
					</trkpt>
					<trkpt lat="42.987040" lon="11.749870">
						<ele>330</ele>
						<time>2026-05-04T17:01:05Z</time>
					</trkpt>
					<trkpt lat="42.987030" lon="11.749990">
						<ele>329</ele>
						<time>2026-05-04T17:01:06Z</time>
					</trkpt>
					<trkpt lat="42.987010" lon="11.750110">
						<ele>328</ele>
						<time>2026-05-04T17:01:08Z</time>
					</trkpt>
					<trkpt lat="42.986950" lon="11.750230">
						<ele>328</ele>
						<time>2026-05-04T17:01:10Z</time>
					</trkpt>
					<trkpt lat="42.986010" lon="11.751990">
						<ele>326</ele>
						<time>2026-05-04T17:01:38Z</time>
					</trkpt>
					<trkpt lat="42.985870" lon="11.752240">
						<ele>326</ele>
						<time>2026-05-04T17:01:42Z</time>
					</trkpt>
					<trkpt lat="42.985830" lon="11.752350">
						<ele>326</ele>
						<time>2026-05-04T17:01:44Z</time>
					</trkpt>
					<trkpt lat="42.985800" lon="11.752490">
						<ele>325</ele>
						<time>2026-05-04T17:01:46Z</time>
					</trkpt>
					<trkpt lat="42.985780" lon="11.752600">
						<ele>325</ele>
						<time>2026-05-04T17:01:47Z</time>
					</trkpt>
					<trkpt lat="42.985780" lon="11.752730">
						<ele>325</ele>
						<time>2026-05-04T17:01:49Z</time>
					</trkpt>
					<trkpt lat="42.985790" lon="11.752860">
						<ele>325</ele>
						<time>2026-05-04T17:01:51Z</time>
					</trkpt>
					<trkpt lat="42.985820" lon="11.753010">
						<ele>324</ele>
						<time>2026-05-04T17:01:53Z</time>
					</trkpt>
					<trkpt lat="42.985890" lon="11.753170">
						<ele>323</ele>
						<time>2026-05-04T17:01:55Z</time>
					</trkpt>
					<trkpt lat="42.985950" lon="11.753270">
						<ele>322</ele>
						<time>2026-05-04T17:01:57Z</time>
					</trkpt>
					<trkpt lat="42.986210" lon="11.753550">
						<ele>320</ele>
						<time>2026-05-04T17:02:03Z</time>
					</trkpt>
					<trkpt lat="42.986930" lon="11.754120">
						<ele>320</ele>
						<time>2026-05-04T17:02:18Z</time>
					</trkpt>
					<trkpt lat="42.987010" lon="11.754190">
						<ele>321</ele>
						<time>2026-05-04T17:02:19Z</time>
					</trkpt>
					<trkpt lat="42.987100" lon="11.754230">
						<ele>323</ele>
						<time>2026-05-04T17:02:21Z</time>
					</trkpt>
					<trkpt lat="42.987310" lon="11.754260">
						<ele>325</ele>
						<time>2026-05-04T17:02:25Z</time>
					</trkpt>
					<trkpt lat="42.989050" lon="11.753540">
						<ele>321</ele>
						<time>2026-05-04T17:02:57Z</time>
					</trkpt>
					<trkpt lat="42.990160" lon="11.753060">
						<ele>320</ele>
						<time>2026-05-04T17:03:18Z</time>
					</trkpt>
					<trkpt lat="42.990430" lon="11.753000">
						<ele>320</ele>
						<time>2026-05-04T17:03:23Z</time>
					</trkpt>
					<trkpt lat="42.990650" lon="11.752990">
						<ele>320</ele>
						<time>2026-05-04T17:03:27Z</time>
					</trkpt>
					<trkpt lat="42.991020" lon="11.752990">
						<ele>320</ele>
						<time>2026-05-04T17:03:33Z</time>
					</trkpt>
					<trkpt lat="42.991120" lon="11.752990">
						<ele>320</ele>
						<time>2026-05-04T17:03:35Z</time>
					</trkpt>
					<trkpt lat="42.991600" lon="11.753020">
						<ele>319</ele>
						<time>2026-05-04T17:03:44Z</time>
					</trkpt>
					<trkpt lat="42.993340" lon="11.753410">
						<ele>320</ele>
						<time>2026-05-04T17:04:15Z</time>
					</trkpt>
					<trkpt lat="42.993810" lon="11.753540">
						<ele>319</ele>
						<time>2026-05-04T17:04:23Z</time>
					</trkpt>
					<trkpt lat="42.993720" lon="11.753620">
						<ele>320</ele>
						<time>2026-05-04T17:04:25Z</time>
					</trkpt>
					<trkpt lat="42.993400" lon="11.753960">
						<ele>321</ele>
						<time>2026-05-04T17:04:33Z</time>
					</trkpt>
					<trkpt lat="42.992650" lon="11.755070">
						<ele>322</ele>
						<time>2026-05-04T17:04:52Z</time>
					</trkpt>
					<trkpt lat="42.992530" lon="11.755330">
						<ele>322</ele>
						<time>2026-05-04T17:04:56Z</time>
					</trkpt>
					<trkpt lat="42.992470" lon="11.755590">
						<ele>323</ele>
						<time>2026-05-04T17:05:00Z</time>
					</trkpt>
					<trkpt lat="42.992410" lon="11.755870">
						<ele>324</ele>
						<time>2026-05-04T17:05:04Z</time>
					</trkpt>
					<trkpt lat="42.992390" lon="11.756140">
						<ele>326</ele>
						<time>2026-05-04T17:05:07Z</time>
					</trkpt>
					<trkpt lat="42.992500" lon="11.757230">
						<ele>330</ele>
						<time>2026-05-04T17:05:21Z</time>
					</trkpt>
					<trkpt lat="42.992550" lon="11.757440">
						<ele>332</ele>
						<time>2026-05-04T17:05:24Z</time>
					</trkpt>
					<trkpt lat="42.992610" lon="11.757590">
						<ele>333</ele>
						<time>2026-05-04T17:05:27Z</time>
					</trkpt>
					<trkpt lat="42.992770" lon="11.757860">
						<ele>334</ele>
						<time>2026-05-04T17:05:31Z</time>
					</trkpt>
					<trkpt lat="42.992860" lon="11.758080">
						<ele>334</ele>
						<time>2026-05-04T17:05:34Z</time>
					</trkpt>
					<trkpt lat="42.992910" lon="11.758320">
						<ele>334</ele>
						<time>2026-05-04T17:05:38Z</time>
					</trkpt>
					<trkpt lat="42.992940" lon="11.758640">
						<ele>336</ele>
						<time>2026-05-04T17:05:42Z</time>
					</trkpt>
					<trkpt lat="42.992920" lon="11.758990">
						<ele>337</ele>
						<time>2026-05-04T17:05:46Z</time>
					</trkpt>
					<trkpt lat="42.992880" lon="11.759380">
						<ele>340</ele>
						<time>2026-05-04T17:05:51Z</time>
					</trkpt>
					<trkpt lat="42.992820" lon="11.759770">
						<ele>342</ele>
						<time>2026-05-04T17:05:57Z</time>
					</trkpt>
					<trkpt lat="42.992660" lon="11.760570">
						<ele>348</ele>
						<time>2026-05-04T17:06:07Z</time>
					</trkpt>
					<trkpt lat="42.992530" lon="11.761060">
						<ele>349</ele>
						<time>2026-05-04T17:06:14Z</time>
					</trkpt>
					<trkpt lat="42.992370" lon="11.761530">
						<ele>349</ele>
						<time>2026-05-04T17:06:21Z</time>
					</trkpt>
					<trkpt lat="42.992220" lon="11.761880">
						<ele>348</ele>
						<time>2026-05-04T17:06:26Z</time>
					</trkpt>
					<trkpt lat="42.992110" lon="11.762050">
						<ele>348</ele>
						<time>2026-05-04T17:06:29Z</time>
					</trkpt>
					<trkpt lat="42.992020" lon="11.762180">
						<ele>347</ele>
						<time>2026-05-04T17:06:32Z</time>
					</trkpt>
					<trkpt lat="42.991910" lon="11.762270">
						<ele>347</ele>
						<time>2026-05-04T17:06:34Z</time>
					</trkpt>
					<trkpt lat="42.991750" lon="11.762370">
						<ele>346</ele>
						<time>2026-05-04T17:06:37Z</time>
					</trkpt>
					<trkpt lat="42.991510" lon="11.762430">
						<ele>345</ele>
						<time>2026-05-04T17:06:41Z</time>
					</trkpt>
					<trkpt lat="42.990470" lon="11.762430">
						<ele>343</ele>
						<time>2026-05-04T17:07:00Z</time>
					</trkpt>
					<trkpt lat="42.989140" lon="11.762450">
						<ele>339</ele>
						<time>2026-05-04T17:07:23Z</time>
					</trkpt>
					<trkpt lat="42.988410" lon="11.762460">
						<ele>336</ele>
						<time>2026-05-04T17:07:36Z</time>
					</trkpt>
					<trkpt lat="42.988200" lon="11.762390">
						<ele>336</ele>
						<time>2026-05-04T17:07:40Z</time>
					</trkpt>
					<trkpt lat="42.987500" lon="11.761970">
						<ele>336</ele>
						<time>2026-05-04T17:07:54Z</time>
					</trkpt>
					<trkpt lat="42.987220" lon="11.761860">
						<ele>335</ele>
						<time>2026-05-04T17:07:59Z</time>
					</trkpt>
					<trkpt lat="42.986960" lon="11.761830">
						<ele>334</ele>
						<time>2026-05-04T17:08:04Z</time>
					</trkpt>
					<trkpt lat="42.986680" lon="11.761890">
						<ele>333</ele>
						<time>2026-05-04T17:08:09Z</time>
					</trkpt>
					<trkpt lat="42.985990" lon="11.762190">
						<ele>332</ele>
						<time>2026-05-04T17:08:22Z</time>
					</trkpt>
					<trkpt lat="42.985830" lon="11.762270">
						<ele>332</ele>
						<time>2026-05-04T17:08:25Z</time>
					</trkpt>
					<trkpt lat="42.985760" lon="11.762300">
						<ele>332</ele>
						<time>2026-05-04T17:08:26Z</time>
					</trkpt>
					<trkpt lat="42.985640" lon="11.762340">
						<ele>333</ele>
						<time>2026-05-04T17:08:28Z</time>
					</trkpt>
					<trkpt lat="42.985540" lon="11.762340">
						<ele>333</ele>
						<time>2026-05-04T17:08:30Z</time>
					</trkpt>
					<trkpt lat="42.985330" lon="11.762270">
						<ele>333</ele>
						<time>2026-05-04T17:08:34Z</time>
					</trkpt>
					<trkpt lat="42.984170" lon="11.761330">
						<ele>331</ele>
						<time>2026-05-04T17:08:58Z</time>
					</trkpt>
					<trkpt lat="42.983940" lon="11.761200">
						<ele>330</ele>
						<time>2026-05-04T17:09:02Z</time>
					</trkpt>
					<trkpt lat="42.983680" lon="11.761150">
						<ele>329</ele>
						<time>2026-05-04T17:09:07Z</time>
					</trkpt>
					<trkpt lat="42.983420" lon="11.761210">
						<ele>328</ele>
						<time>2026-05-04T17:09:12Z</time>
					</trkpt>
					<trkpt lat="42.982440" lon="11.761870">
						<ele>325</ele>
						<time>2026-05-04T17:09:31Z</time>
					</trkpt>
					<trkpt lat="42.980500" lon="11.763300">
						<ele>327</ele>
						<time>2026-05-04T17:10:10Z</time>
					</trkpt>
					<trkpt lat="42.978890" lon="11.764400">
						<ele>331</ele>
						<time>2026-05-04T17:10:42Z</time>
					</trkpt>
					<trkpt lat="42.978740" lon="11.764560">
						<ele>331</ele>
						<time>2026-05-04T17:10:46Z</time>
					</trkpt>
					<trkpt lat="42.978640" lon="11.764760">
						<ele>332</ele>
						<time>2026-05-04T17:10:49Z</time>
					</trkpt>
					<trkpt lat="42.978570" lon="11.765030">
						<ele>332</ele>
						<time>2026-05-04T17:10:53Z</time>
					</trkpt>
					<trkpt lat="42.978540" lon="11.765340">
						<ele>332</ele>
						<time>2026-05-04T17:10:57Z</time>
					</trkpt>
					<trkpt lat="42.978530" lon="11.765680">
						<ele>333</ele>
						<time>2026-05-04T17:11:01Z</time>
					</trkpt>
					<trkpt lat="42.978500" lon="11.767960">
						<ele>334</ele>
						<time>2026-05-04T17:11:31Z</time>
					</trkpt>
					<trkpt lat="42.978450" lon="11.769140">
						<ele>335</ele>
						<time>2026-05-04T17:11:46Z</time>
					</trkpt>
					<trkpt lat="42.978410" lon="11.769540">
						<ele>336</ele>
						<time>2026-05-04T17:11:51Z</time>
					</trkpt>
					<trkpt lat="42.978290" lon="11.769970">
						<ele>337</ele>
						<time>2026-05-04T17:11:57Z</time>
					</trkpt>
					<trkpt lat="42.978090" lon="11.770390">
						<ele>339</ele>
						<time>2026-05-04T17:12:04Z</time>
					</trkpt>
					<trkpt lat="42.977890" lon="11.770720">
						<ele>339</ele>
						<time>2026-05-04T17:12:09Z</time>
					</trkpt>
					<trkpt lat="42.976750" lon="11.771900">
						<ele>343</ele>
						<time>2026-05-04T17:12:35Z</time>
					</trkpt>
					<trkpt lat="42.975390" lon="11.773370">
						<ele>354</ele>
						<time>2026-05-04T17:13:06Z</time>
					</trkpt>
					<trkpt lat="42.974990" lon="11.773850">
						<ele>356</ele>
						<time>2026-05-04T17:13:15Z</time>
					</trkpt>
					<trkpt lat="42.974710" lon="11.774240">
						<ele>355</ele>
						<time>2026-05-04T17:13:22Z</time>
					</trkpt>
					<trkpt lat="42.973620" lon="11.775700">
						<ele>358</ele>
						<time>2026-05-04T17:13:49Z</time>
					</trkpt>
					<trkpt lat="42.973140" lon="11.776360">
						<ele>360</ele>
						<time>2026-05-04T17:14:02Z</time>
					</trkpt>
					<trkpt lat="42.972920" lon="11.776680">
						<ele>361</ele>
						<time>2026-05-04T17:14:07Z</time>
					</trkpt>
					<trkpt lat="42.972720" lon="11.777050">
						<ele>360</ele>
						<time>2026-05-04T17:14:13Z</time>
					</trkpt>
					<trkpt lat="42.971470" lon="11.779830">
						<ele>353</ele>
						<time>2026-05-04T17:14:56Z</time>
					</trkpt>
					<trkpt lat="42.971300" lon="11.780100">
						<ele>354</ele>
						<time>2026-05-04T17:15:00Z</time>
					</trkpt>
					<trkpt lat="42.971140" lon="11.780330">
						<ele>354</ele>
						<time>2026-05-04T17:15:05Z</time>
					</trkpt>
					<trkpt lat="42.971010" lon="11.780500">
						<ele>355</ele>
						<time>2026-05-04T17:15:08Z</time>
					</trkpt>
					<trkpt lat="42.970680" lon="11.780860">
						<ele>356</ele>
						<time>2026-05-04T17:15:15Z</time>
					</trkpt>
					<trkpt lat="42.970200" lon="11.781320">
						<ele>361</ele>
						<time>2026-05-04T17:15:26Z</time>
					</trkpt>
					<trkpt lat="42.969580" lon="11.782020">
						<ele>364</ele>
						<time>2026-05-04T17:15:40Z</time>
					</trkpt>
					<trkpt lat="42.969440" lon="11.782140">
						<ele>365</ele>
						<time>2026-05-04T17:15:43Z</time>
					</trkpt>
					<trkpt lat="42.969290" lon="11.782230">
						<ele>366</ele>
						<time>2026-05-04T17:15:46Z</time>
					</trkpt>
					<trkpt lat="42.969090" lon="11.782280">
						<ele>367</ele>
						<time>2026-05-04T17:15:49Z</time>
					</trkpt>
					<trkpt lat="42.968850" lon="11.782320">
						<ele>367</ele>
						<time>2026-05-04T17:15:54Z</time>
					</trkpt>
					<trkpt lat="42.968670" lon="11.782370">
						<ele>367</ele>
						<time>2026-05-04T17:15:57Z</time>
					</trkpt>
					<trkpt lat="42.968470" lon="11.782440">
						<ele>367</ele>
						<time>2026-05-04T17:16:01Z</time>
					</trkpt>
					<trkpt lat="42.968290" lon="11.782560">
						<ele>367</ele>
						<time>2026-05-04T17:16:04Z</time>
					</trkpt>
					<trkpt lat="42.964150" lon="11.784940">
						<ele>377</ele>
						<time>2026-05-04T17:17:24Z</time>
					</trkpt>
					<trkpt lat="42.963290" lon="11.785450">
						<ele>381</ele>
						<time>2026-05-04T17:17:41Z</time>
					</trkpt>
					<trkpt lat="42.963070" lon="11.785600">
						<ele>380</ele>
						<time>2026-05-04T17:17:45Z</time>
					</trkpt>
					<trkpt lat="42.962970" lon="11.785670">
						<ele>380</ele>
						<time>2026-05-04T17:17:47Z</time>
					</trkpt>
					<trkpt lat="42.962720" lon="11.785860">
						<ele>380</ele>
						<time>2026-05-04T17:17:52Z</time>
					</trkpt>
					<trkpt lat="42.962530" lon="11.786010">
						<ele>380</ele>
						<time>2026-05-04T17:17:56Z</time>
					</trkpt>
					<trkpt lat="42.962250" lon="11.786240">
						<ele>380</ele>
						<time>2026-05-04T17:18:02Z</time>
					</trkpt>
					<trkpt lat="42.962050" lon="11.786370">
						<ele>379</ele>
						<time>2026-05-04T17:18:06Z</time>
					</trkpt>
					<trkpt lat="42.961880" lon="11.786450">
						<ele>378</ele>
						<time>2026-05-04T17:18:09Z</time>
					</trkpt>
					<trkpt lat="42.961660" lon="11.786540">
						<ele>378</ele>
						<time>2026-05-04T17:18:13Z</time>
					</trkpt>
					<trkpt lat="42.961390" lon="11.786620">
						<ele>377</ele>
						<time>2026-05-04T17:18:18Z</time>
					</trkpt>
					<trkpt lat="42.961150" lon="11.786660">
						<ele>376</ele>
						<time>2026-05-04T17:18:23Z</time>
					</trkpt>
					<trkpt lat="42.961000" lon="11.786670">
						<ele>376</ele>
						<time>2026-05-04T17:18:25Z</time>
					</trkpt>
					<trkpt lat="42.960560" lon="11.786630">
						<ele>374</ele>
						<time>2026-05-04T17:18:33Z</time>
					</trkpt>
					<trkpt lat="42.960310" lon="11.786560">
						<ele>373</ele>
						<time>2026-05-04T17:18:38Z</time>
					</trkpt>
					<trkpt lat="42.960030" lon="11.786460">
						<ele>372</ele>
						<time>2026-05-04T17:18:43Z</time>
					</trkpt>
					<trkpt lat="42.958740" lon="11.785660">
						<ele>372</ele>
						<time>2026-05-04T17:19:08Z</time>
					</trkpt>
					<trkpt lat="42.958510" lon="11.785550">
						<ele>372</ele>
						<time>2026-05-04T17:19:12Z</time>
					</trkpt>
					<trkpt lat="42.958280" lon="11.785480">
						<ele>373</ele>
						<time>2026-05-04T17:19:16Z</time>
					</trkpt>
					<trkpt lat="42.958080" lon="11.785430">
						<ele>372</ele>
						<time>2026-05-04T17:19:20Z</time>
					</trkpt>
					<trkpt lat="42.957870" lon="11.785410">
						<ele>372</ele>
						<time>2026-05-04T17:19:24Z</time>
					</trkpt>
					<trkpt lat="42.957580" lon="11.785410">
						<ele>371</ele>
						<time>2026-05-04T17:19:29Z</time>
					</trkpt>
					<trkpt lat="42.956930" lon="11.785460">
						<ele>371</ele>
						<time>2026-05-04T17:19:41Z</time>
					</trkpt>
					<trkpt lat="42.956560" lon="11.785500">
						<ele>370</ele>
						<time>2026-05-04T17:19:47Z</time>
					</trkpt>
					<trkpt lat="42.955930" lon="11.785510">
						<ele>367</ele>
						<time>2026-05-04T17:19:58Z</time>
					</trkpt>
					<trkpt lat="42.955420" lon="11.785420">
						<ele>365</ele>
						<time>2026-05-04T17:20:08Z</time>
					</trkpt>
					<trkpt lat="42.954900" lon="11.785250">
						<ele>362</ele>
						<time>2026-05-04T17:20:17Z</time>
					</trkpt>
					<trkpt lat="42.954270" lon="11.785000">
						<ele>360</ele>
						<time>2026-05-04T17:20:29Z</time>
					</trkpt>
					<trkpt lat="42.953630" lon="11.784760">
						<ele>360</ele>
						<time>2026-05-04T17:20:41Z</time>
					</trkpt>
					<trkpt lat="42.951570" lon="11.783920">
						<ele>355</ele>
						<time>2026-05-04T17:21:19Z</time>
					</trkpt>
					<trkpt lat="42.951420" lon="11.783870">
						<ele>355</ele>
						<time>2026-05-04T17:21:22Z</time>
					</trkpt>
					<trkpt lat="42.951250" lon="11.783870">
						<ele>355</ele>
						<time>2026-05-04T17:21:25Z</time>
					</trkpt>
					<trkpt lat="42.951150" lon="11.783900">
						<ele>355</ele>
						<time>2026-05-04T17:21:26Z</time>
					</trkpt>
					<trkpt lat="42.950910" lon="11.784060">
						<ele>355</ele>
						<time>2026-05-04T17:21:31Z</time>
					</trkpt>
					<trkpt lat="42.950450" lon="11.784450">
						<ele>355</ele>
						<time>2026-05-04T17:21:41Z</time>
					</trkpt>
					<trkpt lat="42.950380" lon="11.784480">
						<ele>355</ele>
						<time>2026-05-04T17:21:42Z</time>
					</trkpt>
					<trkpt lat="42.950290" lon="11.784510">
						<ele>354</ele>
						<time>2026-05-04T17:21:44Z</time>
					</trkpt>
					<trkpt lat="42.950180" lon="11.784500">
						<ele>354</ele>
						<time>2026-05-04T17:21:46Z</time>
					</trkpt>
					<trkpt lat="42.950080" lon="11.784480">
						<ele>354</ele>
						<time>2026-05-04T17:21:47Z</time>
					</trkpt>
					<trkpt lat="42.949760" lon="11.784350">
						<ele>355</ele>
						<time>2026-05-04T17:21:53Z</time>
					</trkpt>
					<trkpt lat="42.949360" lon="11.784190">
						<ele>356</ele>
						<time>2026-05-04T17:22:01Z</time>
					</trkpt>
					<trkpt lat="42.949200" lon="11.784150">
						<ele>356</ele>
						<time>2026-05-04T17:22:04Z</time>
					</trkpt>
					<trkpt lat="42.949060" lon="11.784160">
						<ele>356</ele>
						<time>2026-05-04T17:22:06Z</time>
					</trkpt>
					<trkpt lat="42.948890" lon="11.784210">
						<ele>356</ele>
						<time>2026-05-04T17:22:09Z</time>
					</trkpt>
					<trkpt lat="42.948660" lon="11.784300">
						<ele>357</ele>
						<time>2026-05-04T17:22:14Z</time>
					</trkpt>
					<trkpt lat="42.948480" lon="11.784400">
						<ele>357</ele>
						<time>2026-05-04T17:22:17Z</time>
					</trkpt>
					<trkpt lat="42.948210" lon="11.784590">
						<ele>358</ele>
						<time>2026-05-04T17:22:22Z</time>
					</trkpt>
					<trkpt lat="42.947170" lon="11.785390">
						<ele>361</ele>
						<time>2026-05-04T17:22:44Z</time>
					</trkpt>
					<trkpt lat="42.946580" lon="11.785820">
						<ele>363</ele>
						<time>2026-05-04T17:22:56Z</time>
					</trkpt>
					<trkpt lat="42.946420" lon="11.785880">
						<ele>365</ele>
						<time>2026-05-04T17:22:58Z</time>
					</trkpt>
					<trkpt lat="42.946200" lon="11.785890">
						<ele>366</ele>
						<time>2026-05-04T17:23:02Z</time>
					</trkpt>
					<trkpt lat="42.945740" lon="11.785850">
						<ele>367</ele>
						<time>2026-05-04T17:23:11Z</time>
					</trkpt>
					<trkpt lat="42.945410" lon="11.785810">
						<ele>367</ele>
						<time>2026-05-04T17:23:17Z</time>
					</trkpt>
					<trkpt lat="42.945230" lon="11.785760">
						<ele>367</ele>
						<time>2026-05-04T17:23:20Z</time>
					</trkpt>
					<trkpt lat="42.945070" lon="11.785660">
						<ele>367</ele>
						<time>2026-05-04T17:23:23Z</time>
					</trkpt>
					<trkpt lat="42.944890" lon="11.785520">
						<ele>365</ele>
						<time>2026-05-04T17:23:27Z</time>
					</trkpt>
					<trkpt lat="42.944710" lon="11.785420">
						<ele>364</ele>
						<time>2026-05-04T17:23:30Z</time>
					</trkpt>
					<trkpt lat="42.944580" lon="11.785390">
						<ele>364</ele>
						<time>2026-05-04T17:23:32Z</time>
					</trkpt>
					<trkpt lat="42.944400" lon="11.785390">
						<ele>364</ele>
						<time>2026-05-04T17:23:36Z</time>
					</trkpt>
					<trkpt lat="42.941900" lon="11.785600">
						<ele>370</ele>
						<time>2026-05-04T17:24:20Z</time>
					</trkpt>
					<trkpt lat="42.941720" lon="11.785590">
						<ele>371</ele>
						<time>2026-05-04T17:24:23Z</time>
					</trkpt>
					<trkpt lat="42.941550" lon="11.785530">
						<ele>373</ele>
						<time>2026-05-04T17:24:26Z</time>
					</trkpt>
					<trkpt lat="42.941410" lon="11.785450">
						<ele>375</ele>
						<time>2026-05-04T17:24:29Z</time>
					</trkpt>
					<trkpt lat="42.940870" lon="11.784880">
						<ele>377</ele>
						<time>2026-05-04T17:24:41Z</time>
					</trkpt>
					<trkpt lat="42.940750" lon="11.784740">
						<ele>376</ele>
						<time>2026-05-04T17:24:44Z</time>
					</trkpt>
					<trkpt lat="42.940570" lon="11.784600">
						<ele>375</ele>
						<time>2026-05-04T17:24:48Z</time>
					</trkpt>
					<trkpt lat="42.940380" lon="11.784530">
						<ele>375</ele>
						<time>2026-05-04T17:24:51Z</time>
					</trkpt>
					<trkpt lat="42.940190" lon="11.784500">
						<ele>376</ele>
						<time>2026-05-04T17:24:55Z</time>
					</trkpt>
					<trkpt lat="42.940010" lon="11.784500">
						<ele>377</ele>
						<time>2026-05-04T17:24:58Z</time>
					</trkpt>
					<trkpt lat="42.939870" lon="11.784520">
						<ele>377</ele>
						<time>2026-05-04T17:25:00Z</time>
					</trkpt>
					<trkpt lat="42.938170" lon="11.785030">
						<ele>379</ele>
						<time>2026-05-04T17:25:31Z</time>
					</trkpt>
					<trkpt lat="42.937860" lon="11.785130">
						<ele>379</ele>
						<time>2026-05-04T17:25:37Z</time>
					</trkpt>
					<trkpt lat="42.937660" lon="11.785250">
						<ele>380</ele>
						<time>2026-05-04T17:25:41Z</time>
					</trkpt>
					<trkpt lat="42.937260" lon="11.785660">
						<ele>383</ele>
						<time>2026-05-04T17:25:50Z</time>
					</trkpt>
					<trkpt lat="42.937080" lon="11.785790">
						<ele>384</ele>
						<time>2026-05-04T17:25:53Z</time>
					</trkpt>
					<trkpt lat="42.936910" lon="11.785860">
						<ele>384</ele>
						<time>2026-05-04T17:25:57Z</time>
					</trkpt>
					<trkpt lat="42.936730" lon="11.785870">
						<ele>383</ele>
						<time>2026-05-04T17:26:00Z</time>
					</trkpt>
					<trkpt lat="42.935660" lon="11.785770">
						<ele>383</ele>
						<time>2026-05-04T17:26:19Z</time>
					</trkpt>
					<trkpt lat="42.935530" lon="11.785770">
						<ele>381</ele>
						<time>2026-05-04T17:26:21Z</time>
					</trkpt>
					<trkpt lat="42.935380" lon="11.785820">
						<ele>381</ele>
						<time>2026-05-04T17:26:24Z</time>
					</trkpt>
					<trkpt lat="42.935270" lon="11.785920">
						<ele>380</ele>
						<time>2026-05-04T17:26:26Z</time>
					</trkpt>
					<trkpt lat="42.935190" lon="11.786070">
						<ele>380</ele>
						<time>2026-05-04T17:26:29Z</time>
					</trkpt>
					<trkpt lat="42.935110" lon="11.786290">
						<ele>381</ele>
						<time>2026-05-04T17:26:32Z</time>
					</trkpt>
					<trkpt lat="42.935020" lon="11.786890">
						<ele>383</ele>
						<time>2026-05-04T17:26:40Z</time>
					</trkpt>
					<trkpt lat="42.934980" lon="11.787180">
						<ele>384</ele>
						<time>2026-05-04T17:26:44Z</time>
					</trkpt>
					<trkpt lat="42.934970" lon="11.787420">
						<ele>385</ele>
						<time>2026-05-04T17:26:47Z</time>
					</trkpt>
					<trkpt lat="42.934990" lon="11.788660">
						<ele>389</ele>
						<time>2026-05-04T17:27:03Z</time>
					</trkpt>
					<trkpt lat="42.935050" lon="11.790760">
						<ele>392</ele>
						<time>2026-05-04T17:27:30Z</time>
					</trkpt>
					<trkpt lat="42.935030" lon="11.790970">
						<ele>394</ele>
						<time>2026-05-04T17:27:33Z</time>
					</trkpt>
					<trkpt lat="42.934950" lon="11.791190">
						<ele>395</ele>
						<time>2026-05-04T17:27:36Z</time>
					</trkpt>
					<trkpt lat="42.934670" lon="11.791560">
						<ele>395</ele>
						<time>2026-05-04T17:27:43Z</time>
					</trkpt>
					<trkpt lat="42.933670" lon="11.792850">
						<ele>396</ele>
						<time>2026-05-04T17:28:08Z</time>
					</trkpt>
					<trkpt lat="42.933060" lon="11.793660">
						<ele>394</ele>
						<time>2026-05-04T17:28:23Z</time>
					</trkpt>
					<trkpt lat="42.932940" lon="11.793810">
						<ele>393</ele>
						<time>2026-05-04T17:28:26Z</time>
					</trkpt>
					<trkpt lat="42.932130" lon="11.794870">
						<ele>394</ele>
						<time>2026-05-04T17:28:46Z</time>
					</trkpt>
					<trkpt lat="42.931690" lon="11.795260">
						<ele>395</ele>
						<time>2026-05-04T17:28:55Z</time>
					</trkpt>
					<trkpt lat="42.931300" lon="11.795440">
						<ele>394</ele>
						<time>2026-05-04T17:29:02Z</time>
					</trkpt>
					<trkpt lat="42.930900" lon="11.795510">
						<ele>393</ele>
						<time>2026-05-04T17:29:10Z</time>
					</trkpt>
					<trkpt lat="42.930660" lon="11.795470">
						<ele>393</ele>
						<time>2026-05-04T17:29:14Z</time>
					</trkpt>
					<trkpt lat="42.930400" lon="11.795390">
						<ele>392</ele>
						<time>2026-05-04T17:29:19Z</time>
					</trkpt>
					<trkpt lat="42.929810" lon="11.795130">
						<ele>393</ele>
						<time>2026-05-04T17:29:30Z</time>
					</trkpt>
					<trkpt lat="42.929620" lon="11.795020">
						<ele>394</ele>
						<time>2026-05-04T17:29:33Z</time>
					</trkpt>
					<trkpt lat="42.929210" lon="11.794800">
						<ele>399</ele>
						<time>2026-05-04T17:29:41Z</time>
					</trkpt>
					<trkpt lat="42.928970" lon="11.794720">
						<ele>404</ele>
						<time>2026-05-04T17:29:46Z</time>
					</trkpt>
					<trkpt lat="42.928810" lon="11.794770">
						<ele>405</ele>
						<time>2026-05-04T17:29:49Z</time>
					</trkpt>
					<trkpt lat="42.928600" lon="11.794910">
						<ele>407</ele>
						<time>2026-05-04T17:29:53Z</time>
					</trkpt>
					<trkpt lat="42.928450" lon="11.795050">
						<ele>407</ele>
						<time>2026-05-04T17:29:56Z</time>
					</trkpt>
					<trkpt lat="42.928240" lon="11.795360">
						<ele>406</ele>
						<time>2026-05-04T17:30:01Z</time>
					</trkpt>
					<trkpt lat="42.928040" lon="11.795730">
						<ele>405</ele>
						<time>2026-05-04T17:30:07Z</time>
					</trkpt>
					<trkpt lat="42.927850" lon="11.795970">
						<ele>406</ele>
						<time>2026-05-04T17:30:12Z</time>
					</trkpt>
					<trkpt lat="42.927600" lon="11.796120">
						<ele>409</ele>
						<time>2026-05-04T17:30:17Z</time>
					</trkpt>
					<trkpt lat="42.926950" lon="11.796460">
						<ele>412</ele>
						<time>2026-05-04T17:30:29Z</time>
					</trkpt>
					<trkpt lat="42.926590" lon="11.796810">
						<ele>412</ele>
						<time>2026-05-04T17:30:37Z</time>
					</trkpt>
					<trkpt lat="42.926450" lon="11.796910">
						<ele>411</ele>
						<time>2026-05-04T17:30:40Z</time>
					</trkpt>
					<trkpt lat="42.926320" lon="11.796940">
						<ele>410</ele>
						<time>2026-05-04T17:30:42Z</time>
					</trkpt>
					<trkpt lat="42.926170" lon="11.796900">
						<ele>411</ele>
						<time>2026-05-04T17:30:45Z</time>
					</trkpt>
					<trkpt lat="42.924190" lon="11.796280">
						<ele>416</ele>
						<time>2026-05-04T17:31:21Z</time>
					</trkpt>
					<trkpt lat="42.923400" lon="11.796050">
						<ele>417</ele>
						<time>2026-05-04T17:31:36Z</time>
					</trkpt>
					<trkpt lat="42.923260" lon="11.796020">
						<ele>418</ele>
						<time>2026-05-04T17:31:38Z</time>
					</trkpt>
					<trkpt lat="42.923110" lon="11.796030">
						<ele>420</ele>
						<time>2026-05-04T17:31:41Z</time>
					</trkpt>
					<trkpt lat="42.922910" lon="11.796040">
						<ele>423</ele>
						<time>2026-05-04T17:31:44Z</time>
					</trkpt>
					<trkpt lat="42.922590" lon="11.796160">
						<ele>427</ele>
						<time>2026-05-04T17:31:50Z</time>
					</trkpt>
					<trkpt lat="42.921990" lon="11.796500">
						<ele>430</ele>
						<time>2026-05-04T17:32:02Z</time>
					</trkpt>
					<trkpt lat="42.921380" lon="11.796870">
						<ele>434</ele>
						<time>2026-05-04T17:32:14Z</time>
					</trkpt>
					<trkpt lat="42.920800" lon="11.797330">
						<ele>437</ele>
						<time>2026-05-04T17:32:26Z</time>
					</trkpt>
					<trkpt lat="42.919730" lon="11.797670">
						<ele>440</ele>
						<time>2026-05-04T17:32:45Z</time>
					</trkpt>
					<trkpt lat="42.919170" lon="11.797680">
						<ele>443</ele>
						<time>2026-05-04T17:32:55Z</time>
					</trkpt>
					<trkpt lat="42.919100" lon="11.797690">
						<ele>443</ele>
						<time>2026-05-04T17:32:56Z</time>
					</trkpt>
					<trkpt lat="42.918790" lon="11.797610">
						<ele>444</ele>
						<time>2026-05-04T17:33:02Z</time>
					</trkpt>
					<trkpt lat="42.918480" lon="11.797490">
						<ele>445</ele>
						<time>2026-05-04T17:33:08Z</time>
					</trkpt>
					<trkpt lat="42.917920" lon="11.797370">
						<ele>446</ele>
						<time>2026-05-04T17:33:18Z</time>
					</trkpt>
					<trkpt lat="42.917270" lon="11.797440">
						<ele>447</ele>
						<time>2026-05-04T17:33:29Z</time>
					</trkpt>
					<trkpt lat="42.916060" lon="11.797650">
						<ele>461</ele>
						<time>2026-05-04T17:33:51Z</time>
					</trkpt>
					<trkpt lat="42.915430" lon="11.797880">
						<ele>466</ele>
						<time>2026-05-04T17:34:03Z</time>
					</trkpt>
					<trkpt lat="42.915140" lon="11.798040">
						<ele>466</ele>
						<time>2026-05-04T17:34:08Z</time>
					</trkpt>
					<trkpt lat="42.914880" lon="11.798020">
						<ele>468</ele>
						<time>2026-05-04T17:34:13Z</time>
					</trkpt>
					<trkpt lat="42.914400" lon="11.797760">
						<ele>472</ele>
						<time>2026-05-04T17:34:22Z</time>
					</trkpt>
					<trkpt lat="42.914320" lon="11.797680">
						<ele>473</ele>
						<time>2026-05-04T17:34:24Z</time>
					</trkpt>
					<trkpt lat="42.914280" lon="11.797650">
						<ele>474</ele>
						<time>2026-05-04T17:34:25Z</time>
					</trkpt>
					<trkpt lat="42.913910" lon="11.797360">
						<ele>478</ele>
						<time>2026-05-04T17:34:32Z</time>
					</trkpt>
					<trkpt lat="42.913650" lon="11.797240">
						<ele>480</ele>
						<time>2026-05-04T17:34:37Z</time>
					</trkpt>
					<trkpt lat="42.913470" lon="11.797210">
						<ele>480</ele>
						<time>2026-05-04T17:34:40Z</time>
					</trkpt>
					<trkpt lat="42.913300" lon="11.797260">
						<ele>480</ele>
						<time>2026-05-04T17:34:43Z</time>
					</trkpt>
					<trkpt lat="42.913150" lon="11.797330">
						<ele>479</ele>
						<time>2026-05-04T17:34:46Z</time>
					</trkpt>
					<trkpt lat="42.912930" lon="11.797420">
						<ele>477</ele>
						<time>2026-05-04T17:34:50Z</time>
					</trkpt>
					<trkpt lat="42.912730" lon="11.797440">
						<ele>477</ele>
						<time>2026-05-04T17:34:54Z</time>
					</trkpt>
					<trkpt lat="42.912520" lon="11.797360">
						<ele>478</ele>
						<time>2026-05-04T17:34:58Z</time>
					</trkpt>
					<trkpt lat="42.912040" lon="11.796940">
						<ele>483</ele>
						<time>2026-05-04T17:35:08Z</time>
					</trkpt>
					<trkpt lat="42.911870" lon="11.796860">
						<ele>483</ele>
						<time>2026-05-04T17:35:11Z</time>
					</trkpt>
					<trkpt lat="42.911770" lon="11.796870">
						<ele>482</ele>
						<time>2026-05-04T17:35:13Z</time>
					</trkpt>
					<trkpt lat="42.911670" lon="11.796960">
						<ele>482</ele>
						<time>2026-05-04T17:35:15Z</time>
					</trkpt>
					<trkpt lat="42.911460" lon="11.797280">
						<ele>486</ele>
						<time>2026-05-04T17:35:21Z</time>
					</trkpt>
					<trkpt lat="42.911370" lon="11.797390">
						<ele>488</ele>
						<time>2026-05-04T17:35:23Z</time>
					</trkpt>
					<trkpt lat="42.911280" lon="11.797450">
						<ele>490</ele>
						<time>2026-05-04T17:35:25Z</time>
					</trkpt>
					<trkpt lat="42.911130" lon="11.797430">
						<ele>493</ele>
						<time>2026-05-04T17:35:27Z</time>
					</trkpt>
					<trkpt lat="42.911010" lon="11.797320">
						<ele>494</ele>
						<time>2026-05-04T17:35:30Z</time>
					</trkpt>
					<trkpt lat="42.910910" lon="11.797100">
						<ele>493</ele>
						<time>2026-05-04T17:35:33Z</time>
					</trkpt>
					<trkpt lat="42.910720" lon="11.796780">
						<ele>493</ele>
						<time>2026-05-04T17:35:39Z</time>
					</trkpt>
					<trkpt lat="42.910470" lon="11.796500">
						<ele>497</ele>
						<time>2026-05-04T17:35:44Z</time>
					</trkpt>
					<trkpt lat="42.910080" lon="11.796140">
						<ele>500</ele>
						<time>2026-05-04T17:35:53Z</time>
					</trkpt>
					<trkpt lat="42.909890" lon="11.795880">
						<ele>499</ele>
						<time>2026-05-04T17:35:57Z</time>
					</trkpt>
					<trkpt lat="42.909420" lon="11.795070">
						<ele>502</ele>
						<time>2026-05-04T17:36:11Z</time>
					</trkpt>
					<trkpt lat="42.909270" lon="11.794980">
						<ele>503</ele>
						<time>2026-05-04T17:36:14Z</time>
					</trkpt>
					<trkpt lat="42.909150" lon="11.794990">
						<ele>505</ele>
						<time>2026-05-04T17:36:16Z</time>
					</trkpt>
					<trkpt lat="42.909040" lon="11.795110">
						<ele>508</ele>
						<time>2026-05-04T17:36:18Z</time>
					</trkpt>
					<trkpt lat="42.909000" lon="11.795270">
						<ele>512</ele>
						<time>2026-05-04T17:36:21Z</time>
					</trkpt>
					<trkpt lat="42.909030" lon="11.795480">
						<ele>516</ele>
						<time>2026-05-04T17:36:23Z</time>
					</trkpt>
					<trkpt lat="42.909380" lon="11.796090">
						<ele>519</ele>
						<time>2026-05-04T17:36:34Z</time>
					</trkpt>
					<trkpt lat="42.909500" lon="11.796450">
						<ele>521</ele>
						<time>2026-05-04T17:36:39Z</time>
					</trkpt>
					<trkpt lat="42.909650" lon="11.797080">
						<ele>526</ele>
						<time>2026-05-04T17:36:47Z</time>
					</trkpt>
					<trkpt lat="42.909730" lon="11.797340">
						<ele>528</ele>
						<time>2026-05-04T17:36:51Z</time>
					</trkpt>
					<trkpt lat="42.909840" lon="11.797530">
						<ele>528</ele>
						<time>2026-05-04T17:36:54Z</time>
					</trkpt>
					<trkpt lat="42.909980" lon="11.797730">
						<ele>527</ele>
						<time>2026-05-04T17:36:58Z</time>
					</trkpt>
					<trkpt lat="42.910030" lon="11.798070">
						<ele>530</ele>
						<time>2026-05-04T17:37:02Z</time>
					</trkpt>
					<trkpt lat="42.910050" lon="11.798360">
						<ele>533</ele>
						<time>2026-05-04T17:37:06Z</time>
					</trkpt>
					<trkpt lat="42.910110" lon="11.798620">
						<ele>537</ele>
						<time>2026-05-04T17:37:10Z</time>
					</trkpt>
					<trkpt lat="42.910220" lon="11.798770">
						<ele>537</ele>
						<time>2026-05-04T17:37:12Z</time>
					</trkpt>
					<trkpt lat="42.910370" lon="11.798920">
						<ele>536</ele>
						<time>2026-05-04T17:37:16Z</time>
					</trkpt>
					<trkpt lat="42.910440" lon="11.799020">
						<ele>536</ele>
						<time>2026-05-04T17:37:18Z</time>
					</trkpt>
					<trkpt lat="42.910580" lon="11.799440">
						<ele>540</ele>
						<time>2026-05-04T17:37:24Z</time>
					</trkpt>
					<trkpt lat="42.910670" lon="11.799590">
						<ele>540</ele>
						<time>2026-05-04T17:37:26Z</time>
					</trkpt>
					<trkpt lat="42.910820" lon="11.799740">
						<ele>538</ele>
						<time>2026-05-04T17:37:29Z</time>
					</trkpt>
					<trkpt lat="42.910930" lon="11.799890">
						<ele>538</ele>
						<time>2026-05-04T17:37:32Z</time>
					</trkpt>
					<trkpt lat="42.910990" lon="11.800040">
						<ele>538</ele>
						<time>2026-05-04T17:37:34Z</time>
					</trkpt>
					<trkpt lat="42.911090" lon="11.800660">
						<ele>544</ele>
						<time>2026-05-04T17:37:43Z</time>
					</trkpt>
					<trkpt lat="42.911170" lon="11.800860">
						<ele>544</ele>
						<time>2026-05-04T17:37:46Z</time>
					</trkpt>
					<trkpt lat="42.911340" lon="11.801080">
						<ele>542</ele>
						<time>2026-05-04T17:37:50Z</time>
					</trkpt>
					<trkpt lat="42.911450" lon="11.801290">
						<ele>541</ele>
						<time>2026-05-04T17:37:53Z</time>
					</trkpt>
					<trkpt lat="42.911430" lon="11.801600">
						<ele>547</ele>
						<time>2026-05-04T17:37:57Z</time>
					</trkpt>
					<trkpt lat="42.911260" lon="11.802240">
						<ele>549</ele>
						<time>2026-05-04T17:38:06Z</time>
					</trkpt>
					<trkpt lat="42.911140" lon="11.802590">
						<ele>550</ele>
						<time>2026-05-04T17:38:11Z</time>
					</trkpt>
					<trkpt lat="42.911030" lon="11.802760">
						<ele>551</ele>
						<time>2026-05-04T17:38:14Z</time>
					</trkpt>
					<trkpt lat="42.910790" lon="11.802940">
						<ele>554</ele>
						<time>2026-05-04T17:38:19Z</time>
					</trkpt>
					<trkpt lat="42.910560" lon="11.803040">
						<ele>555</ele>
						<time>2026-05-04T17:38:23Z</time>
					</trkpt>
					<trkpt lat="42.910320" lon="11.803090">
						<ele>558</ele>
						<time>2026-05-04T17:38:28Z</time>
					</trkpt>
					<trkpt lat="42.909930" lon="11.803100">
						<ele>562</ele>
						<time>2026-05-04T17:38:35Z</time>
					</trkpt>
					<trkpt lat="42.909630" lon="11.803190">
						<ele>565</ele>
						<time>2026-05-04T17:38:40Z</time>
					</trkpt>
					<trkpt lat="42.909230" lon="11.803450">
						<ele>568</ele>
						<time>2026-05-04T17:38:48Z</time>
					</trkpt>
					<trkpt lat="42.909120" lon="11.803500">
						<ele>568</ele>
						<time>2026-05-04T17:38:50Z</time>
					</trkpt>
					<trkpt lat="42.908990" lon="11.803510">
						<ele>569</ele>
						<time>2026-05-04T17:38:52Z</time>
					</trkpt>
					<trkpt lat="42.908400" lon="11.803250">
						<ele>573</ele>
						<time>2026-05-04T17:39:03Z</time>
					</trkpt>
					<trkpt lat="42.907220" lon="11.802690">
						<ele>575</ele>
						<time>2026-05-04T17:39:26Z</time>
					</trkpt>
					<trkpt lat="42.905560" lon="11.801860">
						<ele>582</ele>
						<time>2026-05-04T17:39:57Z</time>
					</trkpt>
					<trkpt lat="42.905350" lon="11.801820">
						<ele>583</ele>
						<time>2026-05-04T17:40:01Z</time>
					</trkpt>
					<trkpt lat="42.905130" lon="11.801850">
						<ele>583</ele>
						<time>2026-05-04T17:40:05Z</time>
					</trkpt>
					<trkpt lat="42.904530" lon="11.802060">
						<ele>585</ele>
						<time>2026-05-04T17:40:16Z</time>
					</trkpt>
					<trkpt lat="42.904310" lon="11.802100">
						<ele>586</ele>
						<time>2026-05-04T17:40:20Z</time>
					</trkpt>
					<trkpt lat="42.904120" lon="11.802090">
						<ele>587</ele>
						<time>2026-05-04T17:40:23Z</time>
					</trkpt>
					<trkpt lat="42.902880" lon="11.801670">
						<ele>591</ele>
						<time>2026-05-04T17:40:46Z</time>
					</trkpt>
					<trkpt lat="42.902700" lon="11.801570">
						<ele>592</ele>
						<time>2026-05-04T17:40:49Z</time>
					</trkpt>
					<trkpt lat="42.902620" lon="11.801490">
						<ele>592</ele>
						<time>2026-05-04T17:40:51Z</time>
					</trkpt>
					<trkpt lat="42.902510" lon="11.801370">
						<ele>593</ele>
						<time>2026-05-04T17:40:53Z</time>
					</trkpt>
					<trkpt lat="42.902350" lon="11.801160">
						<ele>594</ele>
						<time>2026-05-04T17:40:57Z</time>
					</trkpt>
					<trkpt lat="42.902000" lon="11.800620">
						<ele>597</ele>
						<time>2026-05-04T17:41:07Z</time>
					</trkpt>
					<trkpt lat="42.901830" lon="11.800390">
						<ele>598</ele>
						<time>2026-05-04T17:41:11Z</time>
					</trkpt>
					<trkpt lat="42.901690" lon="11.800230">
						<ele>599</ele>
						<time>2026-05-04T17:41:14Z</time>
					</trkpt>
					<trkpt lat="42.901530" lon="11.800110">
						<ele>600</ele>
						<time>2026-05-04T17:41:18Z</time>
					</trkpt>
					<trkpt lat="42.901450" lon="11.800050">
						<ele>600</ele>
						<time>2026-05-04T17:41:19Z</time>
					</trkpt>
					<trkpt lat="42.901250" lon="11.799980">
						<ele>601</ele>
						<time>2026-05-04T17:41:23Z</time>
					</trkpt>
					<trkpt lat="42.901090" lon="11.799950">
						<ele>601</ele>
						<time>2026-05-04T17:41:26Z</time>
					</trkpt>
					<trkpt lat="42.900530" lon="11.799910">
						<ele>602</ele>
						<time>2026-05-04T17:41:36Z</time>
					</trkpt>
					<trkpt lat="42.900380" lon="11.799870">
						<ele>603</ele>
						<time>2026-05-04T17:41:38Z</time>
					</trkpt>
					<trkpt lat="42.900270" lon="11.799820">
						<ele>603</ele>
						<time>2026-05-04T17:41:41Z</time>
					</trkpt>
					<trkpt lat="42.900170" lon="11.799760">
						<ele>604</ele>
						<time>2026-05-04T17:41:42Z</time>
					</trkpt>
					<trkpt lat="42.900070" lon="11.799660">
						<ele>605</ele>
						<time>2026-05-04T17:41:45Z</time>
					</trkpt>
					<trkpt lat="42.899980" lon="11.799560">
						<ele>606</ele>
						<time>2026-05-04T17:41:47Z</time>
					</trkpt>
					<trkpt lat="42.899890" lon="11.799430">
						<ele>606</ele>
						<time>2026-05-04T17:41:49Z</time>
					</trkpt>
					<trkpt lat="42.899760" lon="11.799210">
						<ele>607</ele>
						<time>2026-05-04T17:41:53Z</time>
					</trkpt>
					<trkpt lat="42.899670" lon="11.799070">
						<ele>608</ele>
						<time>2026-05-04T17:41:55Z</time>
					</trkpt>
					<trkpt lat="42.899530" lon="11.798920">
						<ele>609</ele>
						<time>2026-05-04T17:41:58Z</time>
					</trkpt>
					<trkpt lat="42.898140" lon="11.797700">
						<ele>614</ele>
						<time>2026-05-04T17:42:28Z</time>
					</trkpt>
					<trkpt lat="42.897790" lon="11.797340">
						<ele>615</ele>
						<time>2026-05-04T17:42:36Z</time>
					</trkpt>
					<trkpt lat="42.897600" lon="11.797010">
						<ele>616</ele>
						<time>2026-05-04T17:42:41Z</time>
					</trkpt>
					<trkpt lat="42.897480" lon="11.796630">
						<ele>617</ele>
						<time>2026-05-04T17:42:46Z</time>
					</trkpt>
					<trkpt lat="42.897260" lon="11.795320">
						<ele>626</ele>
						<time>2026-05-04T17:43:04Z</time>
					</trkpt>
					<trkpt lat="42.897320" lon="11.795110">
						<ele>628</ele>
						<time>2026-05-04T17:43:07Z</time>
					</trkpt>
					<trkpt lat="42.897440" lon="11.794980">
						<ele>629</ele>
						<time>2026-05-04T17:43:10Z</time>
					</trkpt>
					<trkpt lat="42.897850" lon="11.794860">
						<ele>632</ele>
						<time>2026-05-04T17:43:17Z</time>
					</trkpt>
					<trkpt lat="42.898440" lon="11.794680">
						<ele>637</ele>
						<time>2026-05-04T17:43:28Z</time>
					</trkpt>
					<trkpt lat="42.898600" lon="11.794540">
						<ele>639</ele>
						<time>2026-05-04T17:43:31Z</time>
					</trkpt>
					<trkpt lat="42.898690" lon="11.794330">
						<ele>641</ele>
						<time>2026-05-04T17:43:34Z</time>
					</trkpt>
					<trkpt lat="42.898710" lon="11.794100">
						<ele>643</ele>
						<time>2026-05-04T17:43:37Z</time>
					</trkpt>
					<trkpt lat="42.898580" lon="11.793670">
						<ele>644</ele>
						<time>2026-05-04T17:43:43Z</time>
					</trkpt>
					<trkpt lat="42.897760" lon="11.791890">
						<ele>656</ele>
						<time>2026-05-04T17:44:11Z</time>
					</trkpt>
					<trkpt lat="42.897690" lon="11.791580">
						<ele>658</ele>
						<time>2026-05-04T17:44:15Z</time>
					</trkpt>
					<trkpt lat="42.897650" lon="11.791140">
						<ele>662</ele>
						<time>2026-05-04T17:44:21Z</time>
					</trkpt>
					<trkpt lat="42.897570" lon="11.790690">
						<ele>665</ele>
						<time>2026-05-04T17:44:27Z</time>
					</trkpt>
					<trkpt lat="42.897300" lon="11.789520">
						<ele>672</ele>
						<time>2026-05-04T17:44:43Z</time>
					</trkpt>
					<trkpt lat="42.897220" lon="11.789230">
						<ele>673</ele>
						<time>2026-05-04T17:44:47Z</time>
					</trkpt>
					<trkpt lat="42.897100" lon="11.788980">
						<ele>673</ele>
						<time>2026-05-04T17:44:51Z</time>
					</trkpt>
					<trkpt lat="42.896300" lon="11.787650">
						<ele>672</ele>
						<time>2026-05-04T17:45:13Z</time>
					</trkpt>
					<trkpt lat="42.895810" lon="11.787090">
						<ele>672</ele>
						<time>2026-05-04T17:45:25Z</time>
					</trkpt>
					<trkpt lat="42.894890" lon="11.786120">
						<ele>669</ele>
						<time>2026-05-04T17:45:45Z</time>
					</trkpt>
					<trkpt lat="42.894660" lon="11.785960">
						<ele>667</ele>
						<time>2026-05-04T17:45:50Z</time>
					</trkpt>
					<trkpt lat="42.894440" lon="11.785860">
						<ele>666</ele>
						<time>2026-05-04T17:45:54Z</time>
					</trkpt>
					<trkpt lat="42.893890" lon="11.785660">
						<ele>663</ele>
						<time>2026-05-04T17:46:04Z</time>
					</trkpt>
					<trkpt lat="42.893680" lon="11.785560">
						<ele>662</ele>
						<time>2026-05-04T17:46:08Z</time>
					</trkpt>
					<trkpt lat="42.893570" lon="11.785470">
						<ele>661</ele>
						<time>2026-05-04T17:46:10Z</time>
					</trkpt>
					<trkpt lat="42.893460" lon="11.785370">
						<ele>660</ele>
						<time>2026-05-04T17:46:13Z</time>
					</trkpt>
					<trkpt lat="42.893280" lon="11.785130">
						<ele>658</ele>
						<time>2026-05-04T17:46:17Z</time>
					</trkpt>
					<trkpt lat="42.893200" lon="11.785000">
						<ele>656</ele>
						<time>2026-05-04T17:46:19Z</time>
					</trkpt>
					<trkpt lat="42.893110" lon="11.784750">
						<ele>656</ele>
						<time>2026-05-04T17:46:23Z</time>
					</trkpt>
					<trkpt lat="42.893060" lon="11.784590">
						<ele>656</ele>
						<time>2026-05-04T17:46:25Z</time>
					</trkpt>
					<trkpt lat="42.893050" lon="11.784470">
						<ele>656</ele>
						<time>2026-05-04T17:46:27Z</time>
					</trkpt>
					<trkpt lat="42.893020" lon="11.784230">
						<ele>656</ele>
						<time>2026-05-04T17:46:30Z</time>
					</trkpt>
					<trkpt lat="42.893030" lon="11.782370">
						<ele>668</ele>
						<time>2026-05-04T17:46:54Z</time>
					</trkpt>
					<trkpt lat="42.893010" lon="11.782100">
						<ele>670</ele>
						<time>2026-05-04T17:46:58Z</time>
					</trkpt>
					<trkpt lat="42.892940" lon="11.781780">
						<ele>672</ele>
						<time>2026-05-04T17:47:02Z</time>
					</trkpt>
					<trkpt lat="42.892830" lon="11.781520">
						<ele>675</ele>
						<time>2026-05-04T17:47:06Z</time>
					</trkpt>
					<trkpt lat="42.892690" lon="11.781290">
						<ele>676</ele>
						<time>2026-05-04T17:47:10Z</time>
					</trkpt>
					<trkpt lat="42.891860" lon="11.780140">
						<ele>683</ele>
						<time>2026-05-04T17:47:31Z</time>
					</trkpt>
					<trkpt lat="42.891740" lon="11.779920">
						<ele>684</ele>
						<time>2026-05-04T17:47:35Z</time>
					</trkpt>
					<trkpt lat="42.891320" lon="11.778970">
						<ele>688</ele>
						<time>2026-05-04T17:47:49Z</time>
					</trkpt>
					<trkpt lat="42.891250" lon="11.778770">
						<ele>689</ele>
						<time>2026-05-04T17:47:52Z</time>
					</trkpt>
					<trkpt lat="42.891210" lon="11.778600">
						<ele>689</ele>
						<time>2026-05-04T17:47:54Z</time>
					</trkpt>
					<trkpt lat="42.891200" lon="11.778400">
						<ele>690</ele>
						<time>2026-05-04T17:47:57Z</time>
					</trkpt>
					<trkpt lat="42.891210" lon="11.778290">
						<ele>690</ele>
						<time>2026-05-04T17:47:58Z</time>
					</trkpt>
					<trkpt lat="42.891230" lon="11.778140">
						<ele>690</ele>
						<time>2026-05-04T17:48:00Z</time>
					</trkpt>
					<trkpt lat="42.891260" lon="11.778030">
						<ele>690</ele>
						<time>2026-05-04T17:48:02Z</time>
					</trkpt>
					<trkpt lat="42.891310" lon="11.777920">
						<ele>690</ele>
						<time>2026-05-04T17:48:04Z</time>
					</trkpt>
					<trkpt lat="42.891380" lon="11.777780">
						<ele>691</ele>
						<time>2026-05-04T17:48:06Z</time>
					</trkpt>
					<trkpt lat="42.891450" lon="11.777690">
						<ele>691</ele>
						<time>2026-05-04T17:48:08Z</time>
					</trkpt>
					<trkpt lat="42.893050" lon="11.775800">
						<ele>708</ele>
						<time>2026-05-04T17:48:45Z</time>
					</trkpt>
					<trkpt lat="42.893300" lon="11.775560">
						<ele>711</ele>
						<time>2026-05-04T17:48:51Z</time>
					</trkpt>
					<trkpt lat="42.893920" lon="11.775120">
						<ele>715</ele>
						<time>2026-05-04T17:49:03Z</time>
					</trkpt>
					<trkpt lat="42.894020" lon="11.775050">
						<ele>716</ele>
						<time>2026-05-04T17:49:05Z</time>
					</trkpt>
					<trkpt lat="42.894190" lon="11.774940">
						<ele>717</ele>
						<time>2026-05-04T17:49:08Z</time>
					</trkpt>
					<trkpt lat="42.894510" lon="11.774840">
						<ele>721</ele>
						<time>2026-05-04T17:49:14Z</time>
					</trkpt>
					<trkpt lat="42.894650" lon="11.774810">
						<ele>723</ele>
						<time>2026-05-04T17:49:17Z</time>
					</trkpt>
					<trkpt lat="42.894750" lon="11.774780">
						<ele>724</ele>
						<time>2026-05-04T17:49:19Z</time>
					</trkpt>
					<trkpt lat="42.894990" lon="11.774720">
						<ele>727</ele>
						<time>2026-05-04T17:49:23Z</time>
					</trkpt>
					<trkpt lat="42.895060" lon="11.774690">
						<ele>728</ele>
						<time>2026-05-04T17:49:24Z</time>
					</trkpt>
					<trkpt lat="42.895150" lon="11.774640">
						<ele>729</ele>
						<time>2026-05-04T17:49:26Z</time>
					</trkpt>
					<trkpt lat="42.895310" lon="11.774520">
						<ele>730</ele>
						<time>2026-05-04T17:49:29Z</time>
					</trkpt>
					<trkpt lat="42.895510" lon="11.774330">
						<ele>732</ele>
						<time>2026-05-04T17:49:34Z</time>
					</trkpt>
					<trkpt lat="42.895630" lon="11.774190">
						<ele>733</ele>
						<time>2026-05-04T17:49:36Z</time>
					</trkpt>
					<trkpt lat="42.895930" lon="11.773780">
						<ele>737</ele>
						<time>2026-05-04T17:49:44Z</time>
					</trkpt>
					<trkpt lat="42.895940" lon="11.773760">
						<ele>737</ele>
						<time>2026-05-04T17:49:44Z</time>
					</trkpt>
					<trkpt lat="42.896300" lon="11.773230">
						<ele>743</ele>
						<time>2026-05-04T17:49:54Z</time>
					</trkpt>
					<trkpt lat="42.896430" lon="11.773020">
						<ele>747</ele>
						<time>2026-05-04T17:49:57Z</time>
					</trkpt>
					<trkpt lat="42.896600" lon="11.772700">
						<ele>752</ele>
						<time>2026-05-04T17:50:02Z</time>
					</trkpt>
					<trkpt lat="42.896680" lon="11.772520">
						<ele>754</ele>
						<time>2026-05-04T17:50:05Z</time>
					</trkpt>
					<trkpt lat="42.896700" lon="11.772450">
						<ele>755</ele>
						<time>2026-05-04T17:50:06Z</time>
					</trkpt>
					<trkpt lat="42.896710" lon="11.772380">
						<ele>756</ele>
						<time>2026-05-04T17:50:07Z</time>
					</trkpt>
					<trkpt lat="42.896710" lon="11.772290">
						<ele>757</ele>
						<time>2026-05-04T17:50:08Z</time>
					</trkpt>
					<trkpt lat="42.896690" lon="11.772200">
						<ele>758</ele>
						<time>2026-05-04T17:50:09Z</time>
					</trkpt>
					<trkpt lat="42.896660" lon="11.772100">
						<ele>758</ele>
						<time>2026-05-04T17:50:11Z</time>
					</trkpt>
					<trkpt lat="42.896600" lon="11.772030">
						<ele>758</ele>
						<time>2026-05-04T17:50:12Z</time>
					</trkpt>
					<trkpt lat="42.896550" lon="11.771980">
						<ele>758</ele>
						<time>2026-05-04T17:50:13Z</time>
					</trkpt>
					<trkpt lat="42.896500" lon="11.771930">
						<ele>758</ele>
						<time>2026-05-04T17:50:14Z</time>
					</trkpt>
					<trkpt lat="42.896320" lon="11.771740">
						<ele>759</ele>
						<time>2026-05-04T17:50:18Z</time>
					</trkpt>
					<trkpt lat="42.896200" lon="11.771560">
						<ele>760</ele>
						<time>2026-05-04T17:50:22Z</time>
					</trkpt>
					<trkpt lat="42.896140" lon="11.771430">
						<ele>760</ele>
						<time>2026-05-04T17:50:24Z</time>
					</trkpt>
					<trkpt lat="42.896060" lon="11.771180">
						<ele>762</ele>
						<time>2026-05-04T17:50:27Z</time>
					</trkpt>
					<trkpt lat="42.896090" lon="11.771090">
						<ele>763</ele>
						<time>2026-05-04T17:50:28Z</time>
					</trkpt>
					<trkpt lat="42.896330" lon="11.771160">
						<ele>766</ele>
						<time>2026-05-04T17:50:33Z</time>
					</trkpt>
					<trkpt lat="42.896510" lon="11.771190">
						<ele>768</ele>
						<time>2026-05-04T17:50:36Z</time>
					</trkpt>
					<trkpt lat="42.896580" lon="11.771010">
						<ele>772</ele>
						<time>2026-05-04T17:50:39Z</time>
					</trkpt>
					<trkpt lat="42.896630" lon="11.770870">
						<ele>775</ele>
						<time>2026-05-04T17:50:41Z</time>
					</trkpt>
					<trkpt lat="42.896640" lon="11.770790">
						<ele>776</ele>
						<time>2026-05-04T17:50:42Z</time>
					</trkpt>
					<trkpt lat="42.896630" lon="11.770710">
						<ele>776</ele>
						<time>2026-05-04T17:50:43Z</time>
					</trkpt>
					<trkpt lat="42.896600" lon="11.770470">
						<ele>778</ele>
						<time>2026-05-04T17:50:46Z</time>
					</trkpt>
					<trkpt lat="42.896500" lon="11.769880">
						<ele>781</ele>
						<time>2026-05-04T17:50:54Z</time>
					</trkpt>
					<trkpt lat="42.896480" lon="11.769690">
						<ele>781</ele>
						<time>2026-05-04T17:50:56Z</time>
					</trkpt>
					<trkpt lat="42.896480" lon="11.769640">
						<ele>781</ele>
						<time>2026-05-04T17:50:57Z</time>
					</trkpt>
					<trkpt lat="42.896500" lon="11.769580">
						<ele>782</ele>
						<time>2026-05-04T17:50:58Z</time>
					</trkpt>
					<trkpt lat="42.896560" lon="11.769780">
						<ele>783</ele>
						<time>2026-05-04T17:51:01Z</time>
					</trkpt>
					<trkpt lat="42.896580" lon="11.769820">
						<ele>783</ele>
						<time>2026-05-04T17:51:01Z</time>
					</trkpt>
					<trkpt lat="42.896610" lon="11.769830">
						<ele>784</ele>
						<time>2026-05-04T17:51:02Z</time>
					</trkpt>
					<trkpt lat="42.896800" lon="11.769780">
						<ele>790</ele>
						<time>2026-05-04T17:51:05Z</time>
					</trkpt>
					<trkpt lat="42.896800" lon="11.769750">
						<ele>790</ele>
						<time>2026-05-04T17:51:06Z</time>
					</trkpt>
					<trkpt lat="42.896800" lon="11.769640">
						<ele>791</ele>
						<time>2026-05-04T17:51:07Z</time>
					</trkpt>
					<trkpt lat="42.896830" lon="11.769560">
						<ele>793</ele>
						<time>2026-05-04T17:51:08Z</time>
					</trkpt>
					<trkpt lat="42.896870" lon="11.769540">
						<ele>795</ele>
						<time>2026-05-04T17:51:09Z</time>
					</trkpt>
					<trkpt lat="42.896880" lon="11.769520">
						<ele>795</ele>
						<time>2026-05-04T17:51:09Z</time>
					</trkpt>
					<trkpt lat="42.896880" lon="11.769410">
						<ele>796</ele>
						<time>2026-05-04T17:51:11Z</time>
					</trkpt>
					<trkpt lat="42.896880" lon="11.769360">
						<ele>796</ele>
						<time>2026-05-04T17:51:12Z</time>
					</trkpt>
					<trkpt lat="42.896890" lon="11.769280">
						<ele>797</ele>
						<time>2026-05-04T17:51:13Z</time>
					</trkpt>
					<trkpt lat="42.896890" lon="11.769130">
						<ele>798</ele>
						<time>2026-05-04T17:51:15Z</time>
					</trkpt>
					<trkpt lat="42.896900" lon="11.768850">
						<ele>800</ele>
						<time>2026-05-04T17:51:18Z</time>
					</trkpt>
					<trkpt lat="42.896910" lon="11.768810">
						<ele>801</ele>
						<time>2026-05-04T17:51:19Z</time>
					</trkpt>
					<trkpt lat="42.896960" lon="11.768770">
						<ele>804</ele>
						<time>2026-05-04T17:51:20Z</time>
					</trkpt>
					<trkpt lat="42.896980" lon="11.768740">
						<ele>805</ele>
						<time>2026-05-04T17:51:20Z</time>
					</trkpt>
					<trkpt lat="42.896980" lon="11.768700">
						<ele>805</ele>
						<time>2026-05-04T17:51:21Z</time>
					</trkpt>
					<trkpt lat="42.896950" lon="11.768590">
						<ele>804</ele>
						<time>2026-05-04T17:51:22Z</time>
					</trkpt>
					<trkpt lat="42.896940" lon="11.768550">
						<ele>804</ele>
						<time>2026-05-04T17:51:23Z</time>
					</trkpt>
					<trkpt lat="42.896920" lon="11.768350">
						<ele>804</ele>
						<time>2026-05-04T17:51:26Z</time>
					</trkpt>
					<trkpt lat="42.896910" lon="11.768310">
						<ele>804</ele>
						<time>2026-05-04T17:51:26Z</time>
					</trkpt>
					<trkpt lat="42.896850" lon="11.768240">
						<ele>801</ele>
						<time>2026-05-04T17:51:28Z</time>
					</trkpt>
					<trkpt lat="42.896800" lon="11.768100">
						<ele>800</ele>
						<time>2026-05-04T17:51:30Z</time>
					</trkpt>
					<trkpt lat="42.896710" lon="11.767940">
						<ele>797</ele>
						<time>2026-05-04T17:51:32Z</time>
					</trkpt>
					<trkpt lat="42.896580" lon="11.767750">
						<ele>794</ele>
						<time>2026-05-04T17:51:36Z</time>
					</trkpt>
					<trkpt lat="42.896550" lon="11.767710">
						<ele>793</ele>
						<time>2026-05-04T17:51:36Z</time>
					</trkpt>
					<trkpt lat="42.896430" lon="11.767620">
						<ele>791</ele>
						<time>2026-05-04T17:51:39Z</time>
					</trkpt>
					<trkpt lat="42.896380" lon="11.767600">
						<ele>790</ele>
						<time>2026-05-04T17:51:40Z</time>
					</trkpt>
					<trkpt lat="42.896340" lon="11.767600">
						<ele>789</ele>
						<time>2026-05-04T17:51:40Z</time>
					</trkpt>
					<trkpt lat="42.896310" lon="11.767620">
						<ele>788</ele>
						<time>2026-05-04T17:51:41Z</time>
					</trkpt>
					<trkpt lat="42.896290" lon="11.767670">
						<ele>787</ele>
						<time>2026-05-04T17:51:42Z</time>
					</trkpt>
					<trkpt lat="42.896240" lon="11.767770">
						<ele>786</ele>
						<time>2026-05-04T17:51:43Z</time>
					</trkpt>
					<trkpt lat="42.896200" lon="11.767810">
						<ele>785</ele>
						<time>2026-05-04T17:51:44Z</time>
					</trkpt>
					<trkpt lat="42.896160" lon="11.767830">
						<ele>784</ele>
						<time>2026-05-04T17:51:45Z</time>
					</trkpt>
					<trkpt lat="42.896130" lon="11.767830">
						<ele>783</ele>
						<time>2026-05-04T17:51:45Z</time>
					</trkpt>
					<trkpt lat="42.896070" lon="11.767820">
						<ele>782</ele>
						<time>2026-05-04T17:51:47Z</time>
					</trkpt>
					<trkpt lat="42.896040" lon="11.767800">
						<ele>781</ele>
						<time>2026-05-04T17:51:47Z</time>
					</trkpt>
					<trkpt lat="42.896000" lon="11.767760">
						<ele>780</ele>
						<time>2026-05-04T17:51:48Z</time>
					</trkpt>
					<trkpt lat="42.895940" lon="11.767580">
						<ele>779</ele>
						<time>2026-05-04T17:51:51Z</time>
					</trkpt>
					<trkpt lat="42.895840" lon="11.767180">
						<ele>776</ele>
						<time>2026-05-04T17:51:56Z</time>
					</trkpt>
					<trkpt lat="42.895840" lon="11.767120">
						<ele>776</ele>
						<time>2026-05-04T17:51:57Z</time>
					</trkpt>
					<trkpt lat="42.895860" lon="11.766960">
						<ele>776</ele>
						<time>2026-05-04T17:51:59Z</time>
					</trkpt>
					<trkpt lat="42.895840" lon="11.766840">
						<ele>776</ele>
						<time>2026-05-04T17:52:01Z</time>
					</trkpt>
					<trkpt lat="42.895940" lon="11.766730">
						<ele>778</ele>
						<time>2026-05-04T17:52:03Z</time>
					</trkpt>
					<trkpt lat="42.896210" lon="11.766470">
						<ele>782</ele>
						<time>2026-05-04T17:52:09Z</time>
					</trkpt>
					<trkpt lat="42.896430" lon="11.766310">
						<ele>785</ele>
						<time>2026-05-04T17:52:13Z</time>
					</trkpt>
					<trkpt lat="42.896770" lon="11.766100">
						<ele>788</ele>
						<time>2026-05-04T17:52:20Z</time>
					</trkpt>
					<trkpt lat="42.897020" lon="11.765940">
						<ele>790</ele>
						<time>2026-05-04T17:52:25Z</time>
					</trkpt>
					<trkpt lat="42.897170" lon="11.765830">
						<ele>790</ele>
						<time>2026-05-04T17:52:28Z</time>
					</trkpt>
					<trkpt lat="42.897260" lon="11.765740">
						<ele>790</ele>
						<time>2026-05-04T17:52:30Z</time>
					</trkpt>
					<trkpt lat="42.897290" lon="11.765670">
						<ele>789</ele>
						<time>2026-05-04T17:52:31Z</time>
					</trkpt>
					<trkpt lat="42.897330" lon="11.765500">
						<ele>787</ele>
						<time>2026-05-04T17:52:33Z</time>
					</trkpt>
					<trkpt lat="42.897390" lon="11.764840">
						<ele>778</ele>
						<time>2026-05-04T17:52:42Z</time>
					</trkpt>
					<trkpt lat="42.897460" lon="11.764220">
						<ele>774</ele>
						<time>2026-05-04T17:52:50Z</time>
					</trkpt>
					<trkpt lat="42.897490" lon="11.764120">
						<ele>773</ele>
						<time>2026-05-04T17:52:51Z</time>
					</trkpt>
					<trkpt lat="42.897540" lon="11.763940">
						<ele>772</ele>
						<time>2026-05-04T17:52:54Z</time>
					</trkpt>
					<trkpt lat="42.897710" lon="11.763560">
						<ele>770</ele>
						<time>2026-05-04T17:53:00Z</time>
					</trkpt>
					<trkpt lat="42.897850" lon="11.763290">
						<ele>768</ele>
						<time>2026-05-04T17:53:04Z</time>
					</trkpt>
					<trkpt lat="42.897930" lon="11.763190">
						<ele>767</ele>
						<time>2026-05-04T17:53:06Z</time>
					</trkpt>
					<trkpt lat="42.898130" lon="11.762950">
						<ele>764</ele>
						<time>2026-05-04T17:53:11Z</time>
					</trkpt>
					<trkpt lat="42.900030" lon="11.763180">
						<ele>772</ele>
						<time>2026-05-04T17:53:45Z</time>
					</trkpt>
					<trkpt lat="42.900420" lon="11.763230">
						<ele>773</ele>
						<time>2026-05-04T17:53:52Z</time>
					</trkpt>
					<trkpt lat="42.900590" lon="11.763260">
						<ele>774</ele>
						<time>2026-05-04T17:53:55Z</time>
					</trkpt>
					<trkpt lat="42.900710" lon="11.763310">
						<ele>774</ele>
						<time>2026-05-04T17:53:57Z</time>
					</trkpt>
					<trkpt lat="42.900810" lon="11.763370">
						<ele>774</ele>
						<time>2026-05-04T17:53:59Z</time>
					</trkpt>
					<trkpt lat="42.900900" lon="11.763440">
						<ele>774</ele>
						<time>2026-05-04T17:54:01Z</time>
					</trkpt>
					<trkpt lat="42.901020" lon="11.763570">
						<ele>774</ele>
						<time>2026-05-04T17:54:03Z</time>
					</trkpt>
					<trkpt lat="42.901220" lon="11.763890">
						<ele>774</ele>
						<time>2026-05-04T17:54:09Z</time>
					</trkpt>
					<trkpt lat="42.901610" lon="11.764530">
						<ele>775</ele>
						<time>2026-05-04T17:54:20Z</time>
					</trkpt>
					<trkpt lat="42.901760" lon="11.764720">
						<ele>775</ele>
						<time>2026-05-04T17:54:23Z</time>
					</trkpt>
					<trkpt lat="42.901850" lon="11.764800">
						<ele>774</ele>
						<time>2026-05-04T17:54:25Z</time>
					</trkpt>
					<trkpt lat="42.901940" lon="11.764850">
						<ele>774</ele>
						<time>2026-05-04T17:54:27Z</time>
					</trkpt>
					<trkpt lat="42.902500" lon="11.765080">
						<ele>770</ele>
						<time>2026-05-04T17:54:37Z</time>
					</trkpt>
					<trkpt lat="42.902780" lon="11.765190">
						<ele>768</ele>
						<time>2026-05-04T17:54:43Z</time>
					</trkpt>
					<trkpt lat="42.902930" lon="11.765280">
						<ele>767</ele>
						<time>2026-05-04T17:54:46Z</time>
					</trkpt>
					<trkpt lat="42.903960" lon="11.766020">
						<ele>764</ele>
						<time>2026-05-04T17:55:06Z</time>
					</trkpt>
					<trkpt lat="42.904130" lon="11.766130">
						<ele>764</ele>
						<time>2026-05-04T17:55:10Z</time>
					</trkpt>
					<trkpt lat="42.904270" lon="11.766130">
						<ele>764</ele>
						<time>2026-05-04T17:55:12Z</time>
					</trkpt>
					<trkpt lat="42.904400" lon="11.766090">
						<ele>764</ele>
						<time>2026-05-04T17:55:14Z</time>
					</trkpt>
					<trkpt lat="42.904500" lon="11.766010">
						<ele>764</ele>
						<time>2026-05-04T17:55:17Z</time>
					</trkpt>
					<trkpt lat="42.904600" lon="11.765870">
						<ele>764</ele>
						<time>2026-05-04T17:55:19Z</time>
					</trkpt>
					<trkpt lat="42.904660" lon="11.765680">
						<ele>762</ele>
						<time>2026-05-04T17:55:22Z</time>
					</trkpt>
					<trkpt lat="42.904850" lon="11.764940">
						<ele>756</ele>
						<time>2026-05-04T17:55:32Z</time>
					</trkpt>
					<trkpt lat="42.904920" lon="11.764790">
						<ele>756</ele>
						<time>2026-05-04T17:55:34Z</time>
					</trkpt>
					<trkpt lat="42.905020" lon="11.764650">
						<ele>755</ele>
						<time>2026-05-04T17:55:37Z</time>
					</trkpt>
					<trkpt lat="42.905170" lon="11.764550">
						<ele>754</ele>
						<time>2026-05-04T17:55:40Z</time>
					</trkpt>
					<trkpt lat="42.905580" lon="11.764340">
						<ele>753</ele>
						<time>2026-05-04T17:55:48Z</time>
					</trkpt>
					<trkpt lat="42.906120" lon="11.764160">
						<ele>752</ele>
						<time>2026-05-04T17:55:58Z</time>
					</trkpt>
					<trkpt lat="42.906580" lon="11.764030">
						<ele>751</ele>
						<time>2026-05-04T17:56:06Z</time>
					</trkpt>
					<trkpt lat="42.906760" lon="11.763990">
						<ele>750</ele>
						<time>2026-05-04T17:56:09Z</time>
					</trkpt>
					<trkpt lat="42.906900" lon="11.763980">
						<ele>749</ele>
						<time>2026-05-04T17:56:12Z</time>
					</trkpt>
					<trkpt lat="42.907820" lon="11.764040">
						<ele>742</ele>
						<time>2026-05-04T17:56:28Z</time>
					</trkpt>
					<trkpt lat="42.908090" lon="11.764070">
						<ele>741</ele>
						<time>2026-05-04T17:56:33Z</time>
					</trkpt>
					<trkpt lat="42.909430" lon="11.764360">
						<ele>735</ele>
						<time>2026-05-04T17:56:57Z</time>
					</trkpt>
					<trkpt lat="42.909610" lon="11.764380">
						<ele>734</ele>
						<time>2026-05-04T17:57:00Z</time>
					</trkpt>
					<trkpt lat="42.909790" lon="11.764370">
						<ele>733</ele>
						<time>2026-05-04T17:57:03Z</time>
					</trkpt>
					<trkpt lat="42.909960" lon="11.764300">
						<ele>731</ele>
						<time>2026-05-04T17:57:07Z</time>
					</trkpt>
					<trkpt lat="42.910100" lon="11.764210">
						<ele>730</ele>
						<time>2026-05-04T17:57:09Z</time>
					</trkpt>
					<trkpt lat="42.910950" lon="11.763580">
						<ele>721</ele>
						<time>2026-05-04T17:57:27Z</time>
					</trkpt>
					<trkpt lat="42.911090" lon="11.763500">
						<ele>720</ele>
						<time>2026-05-04T17:57:29Z</time>
					</trkpt>
					<trkpt lat="42.911250" lon="11.763450">
						<ele>719</ele>
						<time>2026-05-04T17:57:32Z</time>
					</trkpt>
					<trkpt lat="42.911390" lon="11.763450">
						<ele>718</ele>
						<time>2026-05-04T17:57:35Z</time>
					</trkpt>
					<trkpt lat="42.911760" lon="11.763460">
						<ele>716</ele>
						<time>2026-05-04T17:57:41Z</time>
					</trkpt>
					<trkpt lat="42.911970" lon="11.763500">
						<ele>714</ele>
						<time>2026-05-04T17:57:45Z</time>
					</trkpt>
					<trkpt lat="42.912640" lon="11.763730">
						<ele>709</ele>
						<time>2026-05-04T17:57:57Z</time>
					</trkpt>
					<trkpt lat="42.912790" lon="11.763760">
						<ele>707</ele>
						<time>2026-05-04T17:58:00Z</time>
					</trkpt>
					<trkpt lat="42.912920" lon="11.763740">
						<ele>706</ele>
						<time>2026-05-04T17:58:02Z</time>
					</trkpt>
					<trkpt lat="42.913040" lon="11.763660">
						<ele>704</ele>
						<time>2026-05-04T17:58:05Z</time>
					</trkpt>
					<trkpt lat="42.913150" lon="11.763530">
						<ele>703</ele>
						<time>2026-05-04T17:58:07Z</time>
					</trkpt>
					<trkpt lat="42.913930" lon="11.762050">
						<ele>692</ele>
						<time>2026-05-04T17:58:31Z</time>
					</trkpt>
					<trkpt lat="42.914000" lon="11.761880">
						<ele>692</ele>
						<time>2026-05-04T17:58:34Z</time>
					</trkpt>
					<trkpt lat="42.914040" lon="11.761700">
						<ele>692</ele>
						<time>2026-05-04T17:58:36Z</time>
					</trkpt>
					<trkpt lat="42.914020" lon="11.761490">
						<ele>692</ele>
						<time>2026-05-04T17:58:39Z</time>
					</trkpt>
					<trkpt lat="42.913760" lon="11.760930">
						<ele>690</ele>
						<time>2026-05-04T17:58:47Z</time>
					</trkpt>
					<trkpt lat="42.913740" lon="11.760780">
						<ele>689</ele>
						<time>2026-05-04T17:58:49Z</time>
					</trkpt>
					<trkpt lat="42.913750" lon="11.760620">
						<ele>688</ele>
						<time>2026-05-04T17:58:51Z</time>
					</trkpt>
					<trkpt lat="42.913810" lon="11.760440">
						<ele>687</ele>
						<time>2026-05-04T17:58:54Z</time>
					</trkpt>
					<trkpt lat="42.914060" lon="11.759890">
						<ele>684</ele>
						<time>2026-05-04T17:59:03Z</time>
					</trkpt>
					<trkpt lat="42.914170" lon="11.759570">
						<ele>681</ele>
						<time>2026-05-04T17:59:07Z</time>
					</trkpt>
					<trkpt lat="42.914260" lon="11.759050">
						<ele>676</ele>
						<time>2026-05-04T17:59:14Z</time>
					</trkpt>
					<trkpt lat="42.914320" lon="11.758860">
						<ele>675</ele>
						<time>2026-05-04T17:59:17Z</time>
					</trkpt>
					<trkpt lat="42.914410" lon="11.758730">
						<ele>674</ele>
						<time>2026-05-04T17:59:19Z</time>
					</trkpt>
					<trkpt lat="42.914710" lon="11.758350">
						<ele>671</ele>
						<time>2026-05-04T17:59:26Z</time>
					</trkpt>
					<trkpt lat="42.914860" lon="11.758110">
						<ele>669</ele>
						<time>2026-05-04T17:59:30Z</time>
					</trkpt>
					<trkpt lat="42.915030" lon="11.757730">
						<ele>664</ele>
						<time>2026-05-04T17:59:36Z</time>
					</trkpt>
					<trkpt lat="42.915080" lon="11.757660">
						<ele>663</ele>
						<time>2026-05-04T17:59:38Z</time>
					</trkpt>
					<trkpt lat="42.915140" lon="11.757610">
						<ele>662</ele>
						<time>2026-05-04T17:59:39Z</time>
					</trkpt>
					<trkpt lat="42.915240" lon="11.757570">
						<ele>662</ele>
						<time>2026-05-04T17:59:41Z</time>
					</trkpt>
					<trkpt lat="42.915560" lon="11.757520">
						<ele>662</ele>
						<time>2026-05-04T17:59:46Z</time>
					</trkpt>
					<trkpt lat="42.915670" lon="11.757440">
						<ele>662</ele>
						<time>2026-05-04T17:59:49Z</time>
					</trkpt>
					<trkpt lat="42.915750" lon="11.757320">
						<ele>661</ele>
						<time>2026-05-04T17:59:51Z</time>
					</trkpt>
					<trkpt lat="42.915800" lon="11.757190">
						<ele>660</ele>
						<time>2026-05-04T17:59:53Z</time>
					</trkpt>
					<trkpt lat="42.915930" lon="11.756400">
						<ele>652</ele>
						<time>2026-05-04T18:00:03Z</time>
					</trkpt>
					<trkpt lat="42.916040" lon="11.755610">
						<ele>644</ele>
						<time>2026-05-04T18:00:14Z</time>
					</trkpt>
					<trkpt lat="42.916200" lon="11.753600">
						<ele>631</ele>
						<time>2026-05-04T18:00:40Z</time>
					</trkpt>
					<trkpt lat="42.916230" lon="11.753330">
						<ele>630</ele>
						<time>2026-05-04T18:00:44Z</time>
					</trkpt>
					<trkpt lat="42.916280" lon="11.753070">
						<ele>630</ele>
						<time>2026-05-04T18:00:47Z</time>
					</trkpt>
					<trkpt lat="42.916390" lon="11.752820">
						<ele>630</ele>
						<time>2026-05-04T18:00:51Z</time>
					</trkpt>
					<trkpt lat="42.916510" lon="11.752630">
						<ele>631</ele>
						<time>2026-05-04T18:00:54Z</time>
					</trkpt>
					<trkpt lat="42.917030" lon="11.751970">
						<ele>627</ele>
						<time>2026-05-04T18:01:07Z</time>
					</trkpt>
					<trkpt lat="42.917100" lon="11.751770">
						<ele>626</ele>
						<time>2026-05-04T18:01:10Z</time>
					</trkpt>
					<trkpt lat="42.917130" lon="11.751670">
						<ele>625</ele>
						<time>2026-05-04T18:01:11Z</time>
					</trkpt>
					<trkpt lat="42.917150" lon="11.751240">
						<ele>621</ele>
						<time>2026-05-04T18:01:17Z</time>
					</trkpt>
					<trkpt lat="42.917200" lon="11.751080">
						<ele>619</ele>
						<time>2026-05-04T18:01:19Z</time>
					</trkpt>
					<trkpt lat="42.917450" lon="11.750630">
						<ele>613</ele>
						<time>2026-05-04T18:01:26Z</time>
					</trkpt>
					<trkpt lat="42.918510" lon="11.748960">
						<ele>605</ele>
						<time>2026-05-04T18:01:55Z</time>
					</trkpt>
					<trkpt lat="42.919340" lon="11.748170">
						<ele>606</ele>
						<time>2026-05-04T18:02:13Z</time>
					</trkpt>
					<trkpt lat="42.919700" lon="11.747810">
						<ele>607</ele>
						<time>2026-05-04T18:02:21Z</time>
					</trkpt>
					<trkpt lat="42.919820" lon="11.747670">
						<ele>609</ele>
						<time>2026-05-04T18:02:24Z</time>
					</trkpt>
					<trkpt lat="42.919860" lon="11.747580">
						<ele>610</ele>
						<time>2026-05-04T18:02:25Z</time>
					</trkpt>
					<trkpt lat="42.919930" lon="11.747390">
						<ele>611</ele>
						<time>2026-05-04T18:02:28Z</time>
					</trkpt>
					<trkpt lat="42.919940" lon="11.747290">
						<ele>611</ele>
						<time>2026-05-04T18:02:29Z</time>
					</trkpt>
					<trkpt lat="42.919950" lon="11.747080">
						<ele>612</ele>
						<time>2026-05-04T18:02:32Z</time>
					</trkpt>
					<trkpt lat="42.919940" lon="11.746940">
						<ele>612</ele>
						<time>2026-05-04T18:02:34Z</time>
					</trkpt>
					<trkpt lat="42.919740" lon="11.745640">
						<ele>609</ele>
						<time>2026-05-04T18:02:51Z</time>
					</trkpt>
					<trkpt lat="42.919690" lon="11.745470">
						<ele>609</ele>
						<time>2026-05-04T18:02:54Z</time>
					</trkpt>
					<trkpt lat="42.919580" lon="11.745230">
						<ele>611</ele>
						<time>2026-05-04T18:02:57Z</time>
					</trkpt>
					<trkpt lat="42.919090" lon="11.744330">
						<ele>615</ele>
						<time>2026-05-04T18:03:12Z</time>
					</trkpt>
					<trkpt lat="42.918870" lon="11.743810">
						<ele>612</ele>
						<time>2026-05-04T18:03:20Z</time>
					</trkpt>
					<trkpt lat="42.918810" lon="11.743610">
						<ele>611</ele>
						<time>2026-05-04T18:03:23Z</time>
					</trkpt>
					<trkpt lat="42.918760" lon="11.743370">
						<ele>610</ele>
						<time>2026-05-04T18:03:26Z</time>
					</trkpt>
					<trkpt lat="42.918720" lon="11.743080">
						<ele>613</ele>
						<time>2026-05-04T18:03:30Z</time>
					</trkpt>
					<trkpt lat="42.918710" lon="11.742790">
						<ele>616</ele>
						<time>2026-05-04T18:03:33Z</time>
					</trkpt>
					<trkpt lat="42.918760" lon="11.742290">
						<ele>623</ele>
						<time>2026-05-04T18:03:40Z</time>
					</trkpt>
					<trkpt lat="42.919050" lon="11.740680">
						<ele>632</ele>
						<time>2026-05-04T18:04:02Z</time>
					</trkpt>
					<trkpt lat="42.919110" lon="11.740360">
						<ele>632</ele>
						<time>2026-05-04T18:04:06Z</time>
					</trkpt>
					<trkpt lat="42.919140" lon="11.740160">
						<ele>632</ele>
						<time>2026-05-04T18:04:09Z</time>
					</trkpt>
					<trkpt lat="42.919160" lon="11.739910">
						<ele>631</ele>
						<time>2026-05-04T18:04:12Z</time>
					</trkpt>
					<trkpt lat="42.919130" lon="11.739650">
						<ele>629</ele>
						<time>2026-05-04T18:04:15Z</time>
					</trkpt>
					<trkpt lat="42.919060" lon="11.739430">
						<ele>628</ele>
						<time>2026-05-04T18:04:18Z</time>
					</trkpt>
					<trkpt lat="42.918910" lon="11.739050">
						<ele>626</ele>
						<time>2026-05-04T18:04:24Z</time>
					</trkpt>
					<trkpt lat="42.918860" lon="11.738900">
						<ele>625</ele>
						<time>2026-05-04T18:04:26Z</time>
					</trkpt>
					<trkpt lat="42.918830" lon="11.738710">
						<ele>624</ele>
						<time>2026-05-04T18:04:29Z</time>
					</trkpt>
					<trkpt lat="42.918840" lon="11.738510">
						<ele>622</ele>
						<time>2026-05-04T18:04:31Z</time>
					</trkpt>
					<trkpt lat="42.918950" lon="11.737980">
						<ele>616</ele>
						<time>2026-05-04T18:04:38Z</time>
					</trkpt>
					<trkpt lat="42.918980" lon="11.737770">
						<ele>615</ele>
						<time>2026-05-04T18:04:41Z</time>
					</trkpt>
					<trkpt lat="42.918980" lon="11.736780">
						<ele>610</ele>
						<time>2026-05-04T18:04:54Z</time>
					</trkpt>
					<trkpt lat="42.918990" lon="11.736520">
						<ele>610</ele>
						<time>2026-05-04T18:04:58Z</time>
					</trkpt>
					<trkpt lat="42.919060" lon="11.736300">
						<ele>610</ele>
						<time>2026-05-04T18:05:01Z</time>
					</trkpt>
					<trkpt lat="42.919160" lon="11.736100">
						<ele>609</ele>
						<time>2026-05-04T18:05:04Z</time>
					</trkpt>
					<trkpt lat="42.919700" lon="11.735290">
						<ele>602</ele>
						<time>2026-05-04T18:05:18Z</time>
					</trkpt>
					<trkpt lat="42.919790" lon="11.735110">
						<ele>601</ele>
						<time>2026-05-04T18:05:21Z</time>
					</trkpt>
					<trkpt lat="42.919880" lon="11.734690">
						<ele>599</ele>
						<time>2026-05-04T18:05:27Z</time>
					</trkpt>
					<trkpt lat="42.919920" lon="11.734570">
						<ele>597</ele>
						<time>2026-05-04T18:05:28Z</time>
					</trkpt>
					<trkpt lat="42.919990" lon="11.734490">
						<ele>596</ele>
						<time>2026-05-04T18:05:30Z</time>
					</trkpt>
					<trkpt lat="42.919920" lon="11.734380">
						<ele>597</ele>
						<time>2026-05-04T18:05:32Z</time>
					</trkpt>
					<trkpt lat="42.919560" lon="11.733990">
						<ele>602</ele>
						<time>2026-05-04T18:05:40Z</time>
					</trkpt>
					<trkpt lat="42.919150" lon="11.733300">
						<ele>606</ele>
						<time>2026-05-04T18:05:52Z</time>
					</trkpt>
					<trkpt lat="42.918990" lon="11.732870">
						<ele>604</ele>
						<time>2026-05-04T18:05:58Z</time>
					</trkpt>
					<trkpt lat="42.918560" lon="11.732620">
						<ele>605</ele>
						<time>2026-05-04T18:06:06Z</time>
					</trkpt>
					<trkpt lat="42.918140" lon="11.732710">
						<ele>609</ele>
						<time>2026-05-04T18:06:14Z</time>
					</trkpt>
					<trkpt lat="42.917560" lon="11.733080">
						<ele>617</ele>
						<time>2026-05-04T18:06:25Z</time>
					</trkpt>
					<trkpt lat="42.917310" lon="11.733110">
						<ele>619</ele>
						<time>2026-05-04T18:06:30Z</time>
					</trkpt>
					<trkpt lat="42.917130" lon="11.733050">
						<ele>620</ele>
						<time>2026-05-04T18:06:33Z</time>
					</trkpt>
					<trkpt lat="42.916620" lon="11.732410">
						<ele>618</ele>
						<time>2026-05-04T18:06:45Z</time>
					</trkpt>
					<trkpt lat="42.916010" lon="11.731920">
						<ele>622</ele>
						<time>2026-05-04T18:06:58Z</time>
					</trkpt>
					<trkpt lat="42.915930" lon="11.731670">
						<ele>622</ele>
						<time>2026-05-04T18:07:01Z</time>
					</trkpt>
					<trkpt lat="42.915850" lon="11.731290">
						<ele>624</ele>
						<time>2026-05-04T18:07:07Z</time>
					</trkpt>
					<trkpt lat="42.915880" lon="11.730940">
						<ele>624</ele>
						<time>2026-05-04T18:07:11Z</time>
					</trkpt>
					<trkpt lat="42.916170" lon="11.729930">
						<ele>616</ele>
						<time>2026-05-04T18:07:25Z</time>
					</trkpt>
					<trkpt lat="42.916240" lon="11.729550">
						<ele>613</ele>
						<time>2026-05-04T18:07:30Z</time>
					</trkpt>
					<trkpt lat="42.916230" lon="11.729350">
						<ele>612</ele>
						<time>2026-05-04T18:07:33Z</time>
					</trkpt>
					<trkpt lat="42.916120" lon="11.729220">
						<ele>612</ele>
						<time>2026-05-04T18:07:36Z</time>
					</trkpt>
					<trkpt lat="42.915950" lon="11.729200">
						<ele>614</ele>
						<time>2026-05-04T18:07:39Z</time>
					</trkpt>
					<trkpt lat="42.915740" lon="11.729200">
						<ele>616</ele>
						<time>2026-05-04T18:07:42Z</time>
					</trkpt>
					<trkpt lat="42.915540" lon="11.729130">
						<ele>616</ele>
						<time>2026-05-04T18:07:46Z</time>
					</trkpt>
					<trkpt lat="42.914600" lon="11.727990">
						<ele>609</ele>
						<time>2026-05-04T18:08:08Z</time>
					</trkpt>
					<trkpt lat="42.912860" lon="11.727420">
						<ele>610</ele>
						<time>2026-05-04T18:08:40Z</time>
					</trkpt>
					<trkpt lat="42.911910" lon="11.727290">
						<ele>610</ele>
						<time>2026-05-04T18:08:57Z</time>
					</trkpt>
					<trkpt lat="42.910340" lon="11.727490">
						<ele>610</ele>
						<time>2026-05-04T18:09:25Z</time>
					</trkpt>
					<trkpt lat="42.909590" lon="11.727550">
						<ele>612</ele>
						<time>2026-05-04T18:09:39Z</time>
					</trkpt>
					<trkpt lat="42.909480" lon="11.727530">
						<ele>613</ele>
						<time>2026-05-04T18:09:41Z</time>
					</trkpt>
					<trkpt lat="42.909320" lon="11.727510">
						<ele>614</ele>
						<time>2026-05-04T18:09:44Z</time>
					</trkpt>
					<trkpt lat="42.909150" lon="11.727390">
						<ele>614</ele>
						<time>2026-05-04T18:09:47Z</time>
					</trkpt>
					<trkpt lat="42.908830" lon="11.726890">
						<ele>609</ele>
						<time>2026-05-04T18:09:56Z</time>
					</trkpt>
					<trkpt lat="42.908660" lon="11.726700">
						<ele>608</ele>
						<time>2026-05-04T18:10:00Z</time>
					</trkpt>
					<trkpt lat="42.908430" lon="11.726570">
						<ele>608</ele>
						<time>2026-05-04T18:10:04Z</time>
					</trkpt>
					<trkpt lat="42.907870" lon="11.726400">
						<ele>605</ele>
						<time>2026-05-04T18:10:14Z</time>
					</trkpt>
					<trkpt lat="42.907450" lon="11.726280">
						<ele>604</ele>
						<time>2026-05-04T18:10:22Z</time>
					</trkpt>
					<trkpt lat="42.907320" lon="11.726200">
						<ele>603</ele>
						<time>2026-05-04T18:10:24Z</time>
					</trkpt>
					<trkpt lat="42.907210" lon="11.726090">
						<ele>603</ele>
						<time>2026-05-04T18:10:27Z</time>
					</trkpt>
					<trkpt lat="42.907180" lon="11.726060">
						<ele>603</ele>
						<time>2026-05-04T18:10:27Z</time>
					</trkpt>
					<trkpt lat="42.907000" lon="11.725600">
						<ele>603</ele>
						<time>2026-05-04T18:10:34Z</time>
					</trkpt>
					<trkpt lat="42.906890" lon="11.725460">
						<ele>603</ele>
						<time>2026-05-04T18:10:37Z</time>
					</trkpt>
					<trkpt lat="42.906800" lon="11.725410">
						<ele>604</ele>
						<time>2026-05-04T18:10:39Z</time>
					</trkpt>
					<trkpt lat="42.906650" lon="11.725340">
						<ele>605</ele>
						<time>2026-05-04T18:10:41Z</time>
					</trkpt>
					<trkpt lat="42.906530" lon="11.725310">
						<ele>605</ele>
						<time>2026-05-04T18:10:44Z</time>
					</trkpt>
					<trkpt lat="42.905260" lon="11.724950">
						<ele>607</ele>
						<time>2026-05-04T18:11:07Z</time>
					</trkpt>
					<trkpt lat="42.905080" lon="11.724770">
						<ele>609</ele>
						<time>2026-05-04T18:11:11Z</time>
					</trkpt>
					<trkpt lat="42.904910" lon="11.724550">
						<ele>610</ele>
						<time>2026-05-04T18:11:15Z</time>
					</trkpt>
					<trkpt lat="42.904760" lon="11.724280">
						<ele>612</ele>
						<time>2026-05-04T18:11:19Z</time>
					</trkpt>
					<trkpt lat="42.904710" lon="11.724000">
						<ele>614</ele>
						<time>2026-05-04T18:11:23Z</time>
					</trkpt>
					<trkpt lat="42.904740" lon="11.723820">
						<ele>616</ele>
						<time>2026-05-04T18:11:25Z</time>
					</trkpt>
					<trkpt lat="42.904810" lon="11.723640">
						<ele>618</ele>
						<time>2026-05-04T18:11:28Z</time>
					</trkpt>
					<trkpt lat="42.904930" lon="11.723470">
						<ele>622</ele>
						<time>2026-05-04T18:11:31Z</time>
					</trkpt>
					<trkpt lat="42.905200" lon="11.723200">
						<ele>622</ele>
						<time>2026-05-04T18:11:37Z</time>
					</trkpt>
					<trkpt lat="42.905310" lon="11.723000">
						<ele>622</ele>
						<time>2026-05-04T18:11:40Z</time>
					</trkpt>
					<trkpt lat="42.905360" lon="11.722770">
						<ele>623</ele>
						<time>2026-05-04T18:11:43Z</time>
					</trkpt>
					<trkpt lat="42.905370" lon="11.722520">
						<ele>624</ele>
						<time>2026-05-04T18:11:47Z</time>
					</trkpt>
					<trkpt lat="42.905340" lon="11.722300">
						<ele>627</ele>
						<time>2026-05-04T18:11:50Z</time>
					</trkpt>
					<trkpt lat="42.905110" lon="11.721600">
						<ele>637</ele>
						<time>2026-05-04T18:12:00Z</time>
					</trkpt>
					<trkpt lat="42.904790" lon="11.720820">
						<ele>639</ele>
						<time>2026-05-04T18:12:11Z</time>
					</trkpt>
					<trkpt lat="42.904570" lon="11.720090">
						<ele>642</ele>
						<time>2026-05-04T18:12:22Z</time>
					</trkpt>
					<trkpt lat="42.904430" lon="11.719580">
						<ele>646</ele>
						<time>2026-05-04T18:12:29Z</time>
					</trkpt>
					<trkpt lat="42.904310" lon="11.719400">
						<ele>647</ele>
						<time>2026-05-04T18:12:32Z</time>
					</trkpt>
					<trkpt lat="42.904150" lon="11.719360">
						<ele>648</ele>
						<time>2026-05-04T18:12:35Z</time>
					</trkpt>
					<trkpt lat="42.904050" lon="11.719410">
						<ele>649</ele>
						<time>2026-05-04T18:12:37Z</time>
					</trkpt>
					<trkpt lat="42.903950" lon="11.719510">
						<ele>649</ele>
						<time>2026-05-04T18:12:39Z</time>
					</trkpt>
					<trkpt lat="42.903880" lon="11.719650">
						<ele>649</ele>
						<time>2026-05-04T18:12:41Z</time>
					</trkpt>
					<trkpt lat="42.903720" lon="11.720310">
						<ele>646</ele>
						<time>2026-05-04T18:12:50Z</time>
					</trkpt>
					<trkpt lat="42.903640" lon="11.720460">
						<ele>646</ele>
						<time>2026-05-04T18:12:53Z</time>
					</trkpt>
					<trkpt lat="42.903550" lon="11.720550">
						<ele>645</ele>
						<time>2026-05-04T18:12:55Z</time>
					</trkpt>
					<trkpt lat="42.903460" lon="11.720590">
						<ele>645</ele>
						<time>2026-05-04T18:12:56Z</time>
					</trkpt>
					<trkpt lat="42.903380" lon="11.720590">
						<ele>645</ele>
						<time>2026-05-04T18:12:58Z</time>
					</trkpt>
					<trkpt lat="42.903280" lon="11.720550">
						<ele>646</ele>
						<time>2026-05-04T18:12:59Z</time>
					</trkpt>
					<trkpt lat="42.902840" lon="11.720140">
						<ele>650</ele>
						<time>2026-05-04T18:13:09Z</time>
					</trkpt>
					<trkpt lat="42.902680" lon="11.720020">
						<ele>652</ele>
						<time>2026-05-04T18:13:12Z</time>
					</trkpt>
					<trkpt lat="42.902520" lon="11.719920">
						<ele>653</ele>
						<time>2026-05-04T18:13:15Z</time>
					</trkpt>
					<trkpt lat="42.902370" lon="11.719880">
						<ele>652</ele>
						<time>2026-05-04T18:13:18Z</time>
					</trkpt>
					<trkpt lat="42.902030" lon="11.719830">
						<ele>650</ele>
						<time>2026-05-04T18:13:24Z</time>
					</trkpt>
					<trkpt lat="42.901910" lon="11.719780">
						<ele>649</ele>
						<time>2026-05-04T18:13:26Z</time>
					</trkpt>
					<trkpt lat="42.901820" lon="11.719710">
						<ele>649</ele>
						<time>2026-05-04T18:13:28Z</time>
					</trkpt>
					<trkpt lat="42.901730" lon="11.719580">
						<ele>650</ele>
						<time>2026-05-04T18:13:31Z</time>
					</trkpt>
					<trkpt lat="42.901670" lon="11.719480">
						<ele>651</ele>
						<time>2026-05-04T18:13:32Z</time>
					</trkpt>
					<trkpt lat="42.901620" lon="11.719340">
						<ele>652</ele>
						<time>2026-05-04T18:13:34Z</time>
					</trkpt>
					<trkpt lat="42.901590" lon="11.719210">
						<ele>653</ele>
						<time>2026-05-04T18:13:36Z</time>
					</trkpt>
					<trkpt lat="42.901590" lon="11.719080">
						<ele>654</ele>
						<time>2026-05-04T18:13:38Z</time>
					</trkpt>
					<trkpt lat="42.901600" lon="11.718940">
						<ele>654</ele>
						<time>2026-05-04T18:13:40Z</time>
					</trkpt>
					<trkpt lat="42.901620" lon="11.718810">
						<ele>655</ele>
						<time>2026-05-04T18:13:41Z</time>
					</trkpt>
					<trkpt lat="42.901860" lon="11.717690">
						<ele>661</ele>
						<time>2026-05-04T18:13:57Z</time>
					</trkpt>
					<trkpt lat="42.901990" lon="11.717040">
						<ele>661</ele>
						<time>2026-05-04T18:14:05Z</time>
					</trkpt>
					<trkpt lat="42.902060" lon="11.716760">
						<ele>661</ele>
						<time>2026-05-04T18:14:09Z</time>
					</trkpt>
					<trkpt lat="42.902110" lon="11.716620">
						<ele>661</ele>
						<time>2026-05-04T18:14:11Z</time>
					</trkpt>
					<trkpt lat="42.902170" lon="11.716510">
						<ele>662</ele>
						<time>2026-05-04T18:14:13Z</time>
					</trkpt>
					<trkpt lat="42.902230" lon="11.716430">
						<ele>662</ele>
						<time>2026-05-04T18:14:14Z</time>
					</trkpt>
					<trkpt lat="42.902700" lon="11.715990">
						<ele>669</ele>
						<time>2026-05-04T18:14:25Z</time>
					</trkpt>
					<trkpt lat="42.902840" lon="11.715800">
						<ele>672</ele>
						<time>2026-05-04T18:14:28Z</time>
					</trkpt>
					<trkpt lat="42.902890" lon="11.715700">
						<ele>673</ele>
						<time>2026-05-04T18:14:30Z</time>
					</trkpt>
					<trkpt lat="42.902940" lon="11.715590">
						<ele>674</ele>
						<time>2026-05-04T18:14:31Z</time>
					</trkpt>
					<trkpt lat="42.902990" lon="11.715400">
						<ele>675</ele>
						<time>2026-05-04T18:14:34Z</time>
					</trkpt>
					<trkpt lat="42.903010" lon="11.715190">
						<ele>675</ele>
						<time>2026-05-04T18:14:37Z</time>
					</trkpt>
					<trkpt lat="42.903140" lon="11.712430">
						<ele>684</ele>
						<time>2026-05-04T18:15:13Z</time>
					</trkpt>
					<trkpt lat="42.903140" lon="11.712210">
						<ele>687</ele>
						<time>2026-05-04T18:15:16Z</time>
					</trkpt>
					<trkpt lat="42.903110" lon="11.712030">
						<ele>688</ele>
						<time>2026-05-04T18:15:18Z</time>
					</trkpt>
					<trkpt lat="42.903070" lon="11.711900">
						<ele>688</ele>
						<time>2026-05-04T18:15:20Z</time>
					</trkpt>
					<trkpt lat="42.902810" lon="11.711390">
						<ele>684</ele>
						<time>2026-05-04T18:15:28Z</time>
					</trkpt>
					<trkpt lat="42.902740" lon="11.711190">
						<ele>684</ele>
						<time>2026-05-04T18:15:31Z</time>
					</trkpt>
					<trkpt lat="42.902690" lon="11.711020">
						<ele>684</ele>
						<time>2026-05-04T18:15:33Z</time>
					</trkpt>
					<trkpt lat="42.902660" lon="11.710890">
						<ele>684</ele>
						<time>2026-05-04T18:15:35Z</time>
					</trkpt>
					<trkpt lat="42.902660" lon="11.710780">
						<ele>685</ele>
						<time>2026-05-04T18:15:37Z</time>
					</trkpt>
					<trkpt lat="42.902700" lon="11.710590">
						<ele>686</ele>
						<time>2026-05-04T18:15:39Z</time>
					</trkpt>
					<trkpt lat="42.903020" lon="11.709530">
						<ele>696</ele>
						<time>2026-05-04T18:15:54Z</time>
					</trkpt>
					<trkpt lat="42.903090" lon="11.709280">
						<ele>697</ele>
						<time>2026-05-04T18:15:58Z</time>
					</trkpt>
					<trkpt lat="42.903110" lon="11.709110">
						<ele>698</ele>
						<time>2026-05-04T18:16:00Z</time>
					</trkpt>
					<trkpt lat="42.903100" lon="11.708750">
						<ele>700</ele>
						<time>2026-05-04T18:16:04Z</time>
					</trkpt>
					<trkpt lat="42.903000" lon="11.707980">
						<ele>703</ele>
						<time>2026-05-04T18:16:15Z</time>
					</trkpt>
					<trkpt lat="42.902960" lon="11.707770">
						<ele>704</ele>
						<time>2026-05-04T18:16:17Z</time>
					</trkpt>
					<trkpt lat="42.902900" lon="11.707610">
						<ele>704</ele>
						<time>2026-05-04T18:16:20Z</time>
					</trkpt>
					<trkpt lat="42.902660" lon="11.707060">
						<ele>704</ele>
						<time>2026-05-04T18:16:28Z</time>
					</trkpt>
					<trkpt lat="42.902530" lon="11.706720">
						<ele>704</ele>
						<time>2026-05-04T18:16:33Z</time>
					</trkpt>
					<trkpt lat="42.902480" lon="11.706520">
						<ele>705</ele>
						<time>2026-05-04T18:16:36Z</time>
					</trkpt>
					<trkpt lat="42.902430" lon="11.706210">
						<ele>707</ele>
						<time>2026-05-04T18:16:40Z</time>
					</trkpt>
					<trkpt lat="42.902370" lon="11.705970">
						<ele>709</ele>
						<time>2026-05-04T18:16:43Z</time>
					</trkpt>
					<trkpt lat="42.902310" lon="11.705830">
						<ele>710</ele>
						<time>2026-05-04T18:16:45Z</time>
					</trkpt>
					<trkpt lat="42.902230" lon="11.705690">
						<ele>711</ele>
						<time>2026-05-04T18:16:48Z</time>
					</trkpt>
					<trkpt lat="42.902150" lon="11.705580">
						<ele>711</ele>
						<time>2026-05-04T18:16:50Z</time>
					</trkpt>
					<trkpt lat="42.902050" lon="11.705490">
						<ele>712</ele>
						<time>2026-05-04T18:16:52Z</time>
					</trkpt>
					<trkpt lat="42.901880" lon="11.705350">
						<ele>712</ele>
						<time>2026-05-04T18:16:55Z</time>
					</trkpt>
					<trkpt lat="42.901030" lon="11.704680">
						<ele>716</ele>
						<time>2026-05-04T18:17:13Z</time>
					</trkpt>
					<trkpt lat="42.900590" lon="11.704310">
						<ele>719</ele>
						<time>2026-05-04T18:17:22Z</time>
					</trkpt>
					<trkpt lat="42.900270" lon="11.704130">
						<ele>720</ele>
						<time>2026-05-04T18:17:28Z</time>
					</trkpt>
					<trkpt lat="42.900040" lon="11.704060">
						<ele>720</ele>
						<time>2026-05-04T18:17:32Z</time>
					</trkpt>
					<trkpt lat="42.899870" lon="11.703990">
						<ele>720</ele>
						<time>2026-05-04T18:17:36Z</time>
					</trkpt>
					<trkpt lat="42.899590" lon="11.703860">
						<ele>721</ele>
						<time>2026-05-04T18:17:41Z</time>
					</trkpt>
					<trkpt lat="42.899030" lon="11.703550">
						<ele>723</ele>
						<time>2026-05-04T18:17:52Z</time>
					</trkpt>
					<trkpt lat="42.898980" lon="11.703480">
						<ele>723</ele>
						<time>2026-05-04T18:17:53Z</time>
					</trkpt>
					<trkpt lat="42.898940" lon="11.703340">
						<ele>724</ele>
						<time>2026-05-04T18:17:55Z</time>
					</trkpt>
					<trkpt lat="42.898940" lon="11.703250">
						<ele>724</ele>
						<time>2026-05-04T18:17:56Z</time>
					</trkpt>
					<trkpt lat="42.898970" lon="11.703110">
						<ele>725</ele>
						<time>2026-05-04T18:17:58Z</time>
					</trkpt>
					<trkpt lat="42.899150" lon="11.702590">
						<ele>728</ele>
						<time>2026-05-04T18:18:05Z</time>
					</trkpt>
					<trkpt lat="42.899330" lon="11.702070">
						<ele>729</ele>
						<time>2026-05-04T18:18:13Z</time>
					</trkpt>
					<trkpt lat="42.899410" lon="11.701910">
						<ele>730</ele>
						<time>2026-05-04T18:18:15Z</time>
					</trkpt>
					<trkpt lat="42.899480" lon="11.701770">
						<ele>731</ele>
						<time>2026-05-04T18:18:18Z</time>
					</trkpt>
					<trkpt lat="42.899600" lon="11.701640">
						<ele>732</ele>
						<time>2026-05-04T18:18:20Z</time>
					</trkpt>
					<trkpt lat="42.899960" lon="11.701270">
						<ele>735</ele>
						<time>2026-05-04T18:18:28Z</time>
					</trkpt>
					<trkpt lat="42.900080" lon="11.701090">
						<ele>736</ele>
						<time>2026-05-04T18:18:32Z</time>
					</trkpt>
					<trkpt lat="42.900160" lon="11.700930">
						<ele>737</ele>
						<time>2026-05-04T18:18:34Z</time>
					</trkpt>
					<trkpt lat="42.900220" lon="11.700790">
						<ele>738</ele>
						<time>2026-05-04T18:18:36Z</time>
					</trkpt>
					<trkpt lat="42.900230" lon="11.700680">
						<ele>738</ele>
						<time>2026-05-04T18:18:38Z</time>
					</trkpt>
					<trkpt lat="42.900240" lon="11.700570">
						<ele>739</ele>
						<time>2026-05-04T18:18:39Z</time>
					</trkpt>
					<trkpt lat="42.900230" lon="11.700450">
						<ele>738</ele>
						<time>2026-05-04T18:18:41Z</time>
					</trkpt>
					<trkpt lat="42.900200" lon="11.700330">
						<ele>738</ele>
						<time>2026-05-04T18:18:42Z</time>
					</trkpt>
					<trkpt lat="42.900110" lon="11.700020">
						<ele>736</ele>
						<time>2026-05-04T18:18:47Z</time>
					</trkpt>
					<trkpt lat="42.900100" lon="11.699950">
						<ele>736</ele>
						<time>2026-05-04T18:18:48Z</time>
					</trkpt>
					<trkpt lat="42.900100" lon="11.699880">
						<ele>735</ele>
						<time>2026-05-04T18:18:49Z</time>
					</trkpt>
					<trkpt lat="42.900110" lon="11.699810">
						<ele>734</ele>
						<time>2026-05-04T18:18:49Z</time>
					</trkpt>
					<trkpt lat="42.900130" lon="11.699740">
						<ele>734</ele>
						<time>2026-05-04T18:18:50Z</time>
					</trkpt>
					<trkpt lat="42.900170" lon="11.699670">
						<ele>734</ele>
						<time>2026-05-04T18:18:52Z</time>
					</trkpt>
					<trkpt lat="42.900260" lon="11.699600">
						<ele>735</ele>
						<time>2026-05-04T18:18:53Z</time>
					</trkpt>
					<trkpt lat="42.900430" lon="11.699550">
						<ele>737</ele>
						<time>2026-05-04T18:18:57Z</time>
					</trkpt>
					<trkpt lat="42.900890" lon="11.699500">
						<ele>744</ele>
						<time>2026-05-04T18:19:05Z</time>
					</trkpt>
					<trkpt lat="42.901100" lon="11.699430">
						<ele>746</ele>
						<time>2026-05-04T18:19:09Z</time>
					</trkpt>
					<trkpt lat="42.901320" lon="11.699310">
						<ele>748</ele>
						<time>2026-05-04T18:19:13Z</time>
					</trkpt>
					<trkpt lat="42.901540" lon="11.699160">
						<ele>749</ele>
						<time>2026-05-04T18:19:17Z</time>
					</trkpt>
					<trkpt lat="42.901990" lon="11.698850">
						<ele>753</ele>
						<time>2026-05-04T18:19:26Z</time>
					</trkpt>
					<trkpt lat="42.902150" lon="11.698710">
						<ele>754</ele>
						<time>2026-05-04T18:19:30Z</time>
					</trkpt>
					<trkpt lat="42.902220" lon="11.698630">
						<ele>754</ele>
						<time>2026-05-04T18:19:31Z</time>
					</trkpt>
					<trkpt lat="42.902270" lon="11.698530">
						<ele>754</ele>
						<time>2026-05-04T18:19:33Z</time>
					</trkpt>
					<trkpt lat="42.902310" lon="11.698350">
						<ele>752</ele>
						<time>2026-05-04T18:19:35Z</time>
					</trkpt>
					<trkpt lat="42.902320" lon="11.698150">
						<ele>753</ele>
						<time>2026-05-04T18:19:38Z</time>
					</trkpt>
					<trkpt lat="42.902320" lon="11.698020">
						<ele>753</ele>
						<time>2026-05-04T18:19:40Z</time>
					</trkpt>
					<trkpt lat="42.902270" lon="11.697580">
						<ele>753</ele>
						<time>2026-05-04T18:19:45Z</time>
					</trkpt>
					<trkpt lat="42.902260" lon="11.697450">
						<ele>752</ele>
						<time>2026-05-04T18:19:47Z</time>
					</trkpt>
					<trkpt lat="42.902270" lon="11.697230">
						<ele>751</ele>
						<time>2026-05-04T18:19:50Z</time>
					</trkpt>
					<trkpt lat="42.902300" lon="11.697090">
						<ele>751</ele>
						<time>2026-05-04T18:19:52Z</time>
					</trkpt>
					<trkpt lat="42.902330" lon="11.697000">
						<ele>752</ele>
						<time>2026-05-04T18:19:53Z</time>
					</trkpt>
					<trkpt lat="42.902370" lon="11.696940">
						<ele>752</ele>
						<time>2026-05-04T18:19:54Z</time>
					</trkpt>
					<trkpt lat="42.902430" lon="11.696880">
						<ele>753</ele>
						<time>2026-05-04T18:19:55Z</time>
					</trkpt>
					<trkpt lat="42.902490" lon="11.696850">
						<ele>754</ele>
						<time>2026-05-04T18:19:57Z</time>
					</trkpt>
					<trkpt lat="42.902550" lon="11.696860">
						<ele>755</ele>
						<time>2026-05-04T18:19:58Z</time>
					</trkpt>
					<trkpt lat="42.902620" lon="11.696890">
						<ele>757</ele>
						<time>2026-05-04T18:19:59Z</time>
					</trkpt>
					<trkpt lat="42.902830" lon="11.697110">
						<ele>763</ele>
						<time>2026-05-04T18:20:04Z</time>
					</trkpt>
					<trkpt lat="42.902900" lon="11.697160">
						<ele>764</ele>
						<time>2026-05-04T18:20:05Z</time>
					</trkpt>
					<trkpt lat="42.902980" lon="11.697170">
						<ele>766</ele>
						<time>2026-05-04T18:20:07Z</time>
					</trkpt>
					<trkpt lat="42.903050" lon="11.697150">
						<ele>767</ele>
						<time>2026-05-04T18:20:08Z</time>
					</trkpt>
					<trkpt lat="42.903110" lon="11.697100">
						<ele>768</ele>
						<time>2026-05-04T18:20:09Z</time>
					</trkpt>
					<trkpt lat="42.903320" lon="11.696910">
						<ele>769</ele>
						<time>2026-05-04T18:20:14Z</time>
					</trkpt>
					<trkpt lat="42.903410" lon="11.696840">
						<ele>770</ele>
						<time>2026-05-04T18:20:15Z</time>
					</trkpt>
					<trkpt lat="42.904020" lon="11.696550">
						<ele>775</ele>
						<time>2026-05-04T18:20:27Z</time>
					</trkpt>
					<trkpt lat="42.904150" lon="11.696440">
						<ele>777</ele>
						<time>2026-05-04T18:20:30Z</time>
					</trkpt>
					<trkpt lat="42.904220" lon="11.696320">
						<ele>778</ele>
						<time>2026-05-04T18:20:32Z</time>
					</trkpt>
					<trkpt lat="42.904260" lon="11.696170">
						<ele>778</ele>
						<time>2026-05-04T18:20:34Z</time>
					</trkpt>
					<trkpt lat="42.904270" lon="11.695980">
						<ele>778</ele>
						<time>2026-05-04T18:20:36Z</time>
					</trkpt>
					<trkpt lat="42.904260" lon="11.695600">
						<ele>776</ele>
						<time>2026-05-04T18:20:41Z</time>
					</trkpt>
					<trkpt lat="42.904260" lon="11.695460">
						<ele>775</ele>
						<time>2026-05-04T18:20:43Z</time>
					</trkpt>
					<trkpt lat="42.904290" lon="11.695320">
						<ele>775</ele>
						<time>2026-05-04T18:20:45Z</time>
					</trkpt>
					<trkpt lat="42.904330" lon="11.695190">
						<ele>776</ele>
						<time>2026-05-04T18:20:47Z</time>
					</trkpt>
					<trkpt lat="42.904370" lon="11.695080">
						<ele>776</ele>
						<time>2026-05-04T18:20:48Z</time>
					</trkpt>
					<trkpt lat="42.904430" lon="11.694970">
						<ele>777</ele>
						<time>2026-05-04T18:20:50Z</time>
					</trkpt>
					<trkpt lat="42.904500" lon="11.694870">
						<ele>778</ele>
						<time>2026-05-04T18:20:52Z</time>
					</trkpt>
					<trkpt lat="42.904710" lon="11.694710">
						<ele>782</ele>
						<time>2026-05-04T18:20:56Z</time>
					</trkpt>
					<trkpt lat="42.904820" lon="11.694640">
						<ele>784</ele>
						<time>2026-05-04T18:20:58Z</time>
					</trkpt>
					<trkpt lat="42.904920" lon="11.694560">
						<ele>786</ele>
						<time>2026-05-04T18:21:00Z</time>
					</trkpt>
					<trkpt lat="42.905170" lon="11.694320">
						<ele>790</ele>
						<time>2026-05-04T18:21:06Z</time>
					</trkpt>
					<trkpt lat="42.905390" lon="11.694080">
						<ele>793</ele>
						<time>2026-05-04T18:21:11Z</time>
					</trkpt>
					<trkpt lat="42.905440" lon="11.693970">
						<ele>794</ele>
						<time>2026-05-04T18:21:12Z</time>
					</trkpt>
					<trkpt lat="42.905460" lon="11.693840">
						<ele>794</ele>
						<time>2026-05-04T18:21:14Z</time>
					</trkpt>
					<trkpt lat="42.905450" lon="11.693640">
						<ele>794</ele>
						<time>2026-05-04T18:21:17Z</time>
					</trkpt>
					<trkpt lat="42.905460" lon="11.693530">
						<ele>794</ele>
						<time>2026-05-04T18:21:18Z</time>
					</trkpt>
					<trkpt lat="42.905480" lon="11.693450">
						<ele>794</ele>
						<time>2026-05-04T18:21:19Z</time>
					</trkpt>
					<trkpt lat="42.905510" lon="11.693400">
						<ele>794</ele>
						<time>2026-05-04T18:21:20Z</time>
					</trkpt>
					<trkpt lat="42.905560" lon="11.693370">
						<ele>795</ele>
						<time>2026-05-04T18:21:21Z</time>
					</trkpt>
					<trkpt lat="42.905610" lon="11.693370">
						<ele>796</ele>
						<time>2026-05-04T18:21:22Z</time>
					</trkpt>
					<trkpt lat="42.905680" lon="11.693390">
						<ele>798</ele>
						<time>2026-05-04T18:21:23Z</time>
					</trkpt>
					<trkpt lat="42.905740" lon="11.693440">
						<ele>799</ele>
						<time>2026-05-04T18:21:25Z</time>
					</trkpt>
					<trkpt lat="42.905910" lon="11.693690">
						<ele>802</ele>
						<time>2026-05-04T18:21:29Z</time>
					</trkpt>
					<trkpt lat="42.906080" lon="11.693880">
						<ele>805</ele>
						<time>2026-05-04T18:21:33Z</time>
					</trkpt>
					<trkpt lat="42.906230" lon="11.693970">
						<ele>807</ele>
						<time>2026-05-04T18:21:36Z</time>
					</trkpt>
					<trkpt lat="42.906370" lon="11.694130">
						<ele>810</ele>
						<time>2026-05-04T18:21:39Z</time>
					</trkpt>
					<trkpt lat="42.906430" lon="11.694290">
						<ele>812</ele>
						<time>2026-05-04T18:21:41Z</time>
					</trkpt>
					<trkpt lat="42.906450" lon="11.694440">
						<ele>813</ele>
						<time>2026-05-04T18:21:43Z</time>
					</trkpt>
					<trkpt lat="42.906460" lon="11.694610">
						<ele>814</ele>
						<time>2026-05-04T18:21:46Z</time>
					</trkpt>
					<trkpt lat="42.906410" lon="11.694740">
						<ele>814</ele>
						<time>2026-05-04T18:21:48Z</time>
					</trkpt>
					<trkpt lat="42.906170" lon="11.694960">
						<ele>812</ele>
						<time>2026-05-04T18:21:53Z</time>
					</trkpt>
					<trkpt lat="42.906110" lon="11.695030">
						<ele>812</ele>
						<time>2026-05-04T18:21:54Z</time>
					</trkpt>
					<trkpt lat="42.906090" lon="11.695120">
						<ele>812</ele>
						<time>2026-05-04T18:21:55Z</time>
					</trkpt>
					<trkpt lat="42.906100" lon="11.695200">
						<ele>812</ele>
						<time>2026-05-04T18:21:56Z</time>
					</trkpt>
					<trkpt lat="42.906120" lon="11.695270">
						<ele>813</ele>
						<time>2026-05-04T18:21:57Z</time>
					</trkpt>
					<trkpt lat="42.906150" lon="11.695320">
						<ele>814</ele>
						<time>2026-05-04T18:21:58Z</time>
					</trkpt>
					<trkpt lat="42.906200" lon="11.695340">
						<ele>814</ele>
						<time>2026-05-04T18:21:59Z</time>
					</trkpt>
					<trkpt lat="42.906250" lon="11.695340">
						<ele>815</ele>
						<time>2026-05-04T18:22:00Z</time>
					</trkpt>
					<trkpt lat="42.906890" lon="11.695070">
						<ele>821</ele>
						<time>2026-05-04T18:22:12Z</time>
					</trkpt>
					<trkpt lat="42.907260" lon="11.694950">
						<ele>825</ele>
						<time>2026-05-04T18:22:19Z</time>
					</trkpt>
					<trkpt lat="42.907440" lon="11.694870">
						<ele>827</ele>
						<time>2026-05-04T18:22:22Z</time>
					</trkpt>
					<trkpt lat="42.907570" lon="11.694710">
						<ele>828</ele>
						<time>2026-05-04T18:22:25Z</time>
					</trkpt>
					<trkpt lat="42.907760" lon="11.694440">
						<ele>829</ele>
						<time>2026-05-04T18:22:30Z</time>
					</trkpt>
					<trkpt lat="42.907920" lon="11.694300">
						<ele>831</ele>
						<time>2026-05-04T18:22:33Z</time>
					</trkpt>
					<trkpt lat="42.908070" lon="11.694090">
						<ele>833</ele>
						<time>2026-05-04T18:22:37Z</time>
					</trkpt>
					<trkpt lat="42.908220" lon="11.693720">
						<ele>835</ele>
						<time>2026-05-04T18:22:43Z</time>
					</trkpt>
					<trkpt lat="42.908380" lon="11.693470">
						<ele>839</ele>
						<time>2026-05-04T18:22:47Z</time>
					</trkpt>
					<trkpt lat="42.908540" lon="11.693390">
						<ele>841</ele>
						<time>2026-05-04T18:22:50Z</time>
					</trkpt>
					<trkpt lat="42.908880" lon="11.693370">
						<ele>844</ele>
						<time>2026-05-04T18:22:56Z</time>
					</trkpt>
					<trkpt lat="42.909010" lon="11.693300">
						<ele>846</ele>
						<time>2026-05-04T18:22:59Z</time>
					</trkpt>
					<trkpt lat="42.909190" lon="11.693010">
						<ele>850</ele>
						<time>2026-05-04T18:23:04Z</time>
					</trkpt>
					<trkpt lat="42.909330" lon="11.692880">
						<ele>851</ele>
						<time>2026-05-04T18:23:07Z</time>
					</trkpt>
					<trkpt lat="42.909510" lon="11.692780">
						<ele>853</ele>
						<time>2026-05-04T18:23:10Z</time>
					</trkpt>
					<trkpt lat="42.909640" lon="11.692670">
						<ele>854</ele>
						<time>2026-05-04T18:23:13Z</time>
					</trkpt>
					<trkpt lat="42.909780" lon="11.692460">
						<ele>857</ele>
						<time>2026-05-04T18:23:17Z</time>
					</trkpt>
					<trkpt lat="42.909950" lon="11.692290">
						<ele>859</ele>
						<time>2026-05-04T18:23:20Z</time>
					</trkpt>
					<trkpt lat="42.910070" lon="11.692200">
						<ele>860</ele>
						<time>2026-05-04T18:23:23Z</time>
					</trkpt>
					<trkpt lat="42.910120" lon="11.692070">
						<ele>861</ele>
						<time>2026-05-04T18:23:25Z</time>
					</trkpt>
					<trkpt lat="42.910190" lon="11.691780">
						<ele>863</ele>
						<time>2026-05-04T18:23:29Z</time>
					</trkpt>
					<trkpt lat="42.910260" lon="11.691590">
						<ele>864</ele>
						<time>2026-05-04T18:23:31Z</time>
					</trkpt>
					<trkpt lat="42.910420" lon="11.691340">
						<ele>866</ele>
						<time>2026-05-04T18:23:36Z</time>
					</trkpt>
					<trkpt lat="42.910560" lon="11.691140">
						<ele>867</ele>
						<time>2026-05-04T18:23:39Z</time>
					</trkpt>
					<trkpt lat="42.910820" lon="11.690760">
						<ele>870</ele>
						<time>2026-05-04T18:23:46Z</time>
					</trkpt>
					<trkpt lat="42.910890" lon="11.690630">
						<ele>869</ele>
						<time>2026-05-04T18:23:48Z</time>
					</trkpt>
					<trkpt lat="42.910900" lon="11.690560">
						<ele>868</ele>
						<time>2026-05-04T18:23:49Z</time>
					</trkpt>
					<trkpt lat="42.910890" lon="11.690430">
						<ele>868</ele>
						<time>2026-05-04T18:23:51Z</time>
					</trkpt>
					<trkpt lat="42.910820" lon="11.690280">
						<ele>868</ele>
						<time>2026-05-04T18:23:53Z</time>
					</trkpt>
					<trkpt lat="42.910690" lon="11.690170">
						<ele>868</ele>
						<time>2026-05-04T18:23:56Z</time>
					</trkpt>
					<trkpt lat="42.910390" lon="11.690040">
						<ele>869</ele>
						<time>2026-05-04T18:24:02Z</time>
					</trkpt>
					<trkpt lat="42.910290" lon="11.689860">
						<ele>869</ele>
						<time>2026-05-04T18:24:04Z</time>
					</trkpt>
					<trkpt lat="42.910280" lon="11.689680">
						<ele>867</ele>
						<time>2026-05-04T18:24:07Z</time>
					</trkpt>
					<trkpt lat="42.910330" lon="11.688900">
						<ele>862</ele>
						<time>2026-05-04T18:24:17Z</time>
					</trkpt>
					<trkpt lat="42.910280" lon="11.688320">
						<ele>859</ele>
						<time>2026-05-04T18:24:25Z</time>
					</trkpt>
					<trkpt lat="42.909960" lon="11.685450">
						<ele>870</ele>
						<time>2026-05-04T18:25:02Z</time>
					</trkpt>
					<trkpt lat="42.909870" lon="11.684400">
						<ele>877</ele>
						<time>2026-05-04T18:25:16Z</time>
					</trkpt>
					<trkpt lat="42.909890" lon="11.684070">
						<ele>879</ele>
						<time>2026-05-04T18:25:21Z</time>
					</trkpt>
					<trkpt lat="42.910140" lon="11.683150">
						<ele>878</ele>
						<time>2026-05-04T18:25:33Z</time>
					</trkpt>
					<trkpt lat="42.910140" lon="11.682830">
						<ele>877</ele>
						<time>2026-05-04T18:25:38Z</time>
					</trkpt>
					<trkpt lat="42.909960" lon="11.680910">
						<ele>881</ele>
						<time>2026-05-04T18:26:03Z</time>
					</trkpt>
					<trkpt lat="42.909800" lon="11.680300">
						<ele>876</ele>
						<time>2026-05-04T18:26:11Z</time>
					</trkpt>
					<trkpt lat="42.909710" lon="11.679980">
						<ele>872</ele>
						<time>2026-05-04T18:26:16Z</time>
					</trkpt>
					<trkpt lat="42.909680" lon="11.679820">
						<ele>871</ele>
						<time>2026-05-04T18:26:18Z</time>
					</trkpt>
					<trkpt lat="42.909670" lon="11.679650">
						<ele>870</ele>
						<time>2026-05-04T18:26:20Z</time>
					</trkpt>
					<trkpt lat="42.909640" lon="11.678860">
						<ele>865</ele>
						<time>2026-05-04T18:26:30Z</time>
					</trkpt>
					<trkpt lat="42.909640" lon="11.678590">
						<ele>865</ele>
						<time>2026-05-04T18:26:34Z</time>
					</trkpt>
					<trkpt lat="42.909650" lon="11.678480">
						<ele>864</ele>
						<time>2026-05-04T18:26:35Z</time>
					</trkpt>
					<trkpt lat="42.909670" lon="11.678440">
						<ele>864</ele>
						<time>2026-05-04T18:26:36Z</time>
					</trkpt>
					<trkpt lat="42.909700" lon="11.678420">
						<ele>864</ele>
						<time>2026-05-04T18:26:37Z</time>
					</trkpt>
					<trkpt lat="42.909680" lon="11.678290">
						<ele>864</ele>
						<time>2026-05-04T18:26:38Z</time>
					</trkpt>
					<trkpt lat="42.909670" lon="11.678140">
						<ele>864</ele>
						<time>2026-05-04T18:26:40Z</time>
					</trkpt>
					<trkpt lat="42.909750" lon="11.677560">
						<ele>864</ele>
						<time>2026-05-04T18:26:48Z</time>
					</trkpt>
					<trkpt lat="42.909770" lon="11.677380">
						<ele>865</ele>
						<time>2026-05-04T18:26:50Z</time>
					</trkpt>
					<trkpt lat="42.909770" lon="11.677070">
						<ele>868</ele>
						<time>2026-05-04T18:26:54Z</time>
					</trkpt>
					<trkpt lat="42.909690" lon="11.676260">
						<ele>876</ele>
						<time>2026-05-04T18:27:05Z</time>
					</trkpt>
					<trkpt lat="42.909630" lon="11.675870">
						<ele>880</ele>
						<time>2026-05-04T18:27:10Z</time>
					</trkpt>
					<trkpt lat="42.909580" lon="11.675620">
						<ele>881</ele>
						<time>2026-05-04T18:27:14Z</time>
					</trkpt>
					<trkpt lat="42.909540" lon="11.675380">
						<ele>882</ele>
						<time>2026-05-04T18:27:17Z</time>
					</trkpt>
					<trkpt lat="42.909560" lon="11.675180">
						<ele>884</ele>
						<time>2026-05-04T18:27:19Z</time>
					</trkpt>
					<trkpt lat="42.909620" lon="11.674930">
						<ele>887</ele>
						<time>2026-05-04T18:27:23Z</time>
					</trkpt>
					<trkpt lat="42.909630" lon="11.674790">
						<ele>888</ele>
						<time>2026-05-04T18:27:25Z</time>
					</trkpt>
					<trkpt lat="42.909630" lon="11.674580">
						<ele>889</ele>
						<time>2026-05-04T18:27:27Z</time>
					</trkpt>
					<trkpt lat="42.909580" lon="11.674310">
						<ele>889</ele>
						<time>2026-05-04T18:27:31Z</time>
					</trkpt>
					<trkpt lat="42.909540" lon="11.674140">
						<ele>890</ele>
						<time>2026-05-04T18:27:33Z</time>
					</trkpt>
					<trkpt lat="42.909470" lon="11.673960">
						<ele>892</ele>
						<time>2026-05-04T18:27:36Z</time>
					</trkpt>
					<trkpt lat="42.909420" lon="11.673880">
						<ele>892</ele>
						<time>2026-05-04T18:27:37Z</time>
					</trkpt>
					<trkpt lat="42.909300" lon="11.673750">
						<ele>891</ele>
						<time>2026-05-04T18:27:40Z</time>
					</trkpt>
					<trkpt lat="42.909200" lon="11.673620">
						<ele>891</ele>
						<time>2026-05-04T18:27:43Z</time>
					</trkpt>
					<trkpt lat="42.909140" lon="11.673500">
						<ele>891</ele>
						<time>2026-05-04T18:27:44Z</time>
					</trkpt>
					<trkpt lat="42.909120" lon="11.673420">
						<ele>892</ele>
						<time>2026-05-04T18:27:46Z</time>
					</trkpt>
					<trkpt lat="42.909100" lon="11.673320">
						<ele>893</ele>
						<time>2026-05-04T18:27:47Z</time>
					</trkpt>
					<trkpt lat="42.909100" lon="11.673200">
						<ele>894</ele>
						<time>2026-05-04T18:27:48Z</time>
					</trkpt>
					<trkpt lat="42.909100" lon="11.673120">
						<ele>894</ele>
						<time>2026-05-04T18:27:49Z</time>
					</trkpt>
					<trkpt lat="42.909130" lon="11.673000">
						<ele>895</ele>
						<time>2026-05-04T18:27:51Z</time>
					</trkpt>
					<trkpt lat="42.909260" lon="11.672620">
						<ele>901</ele>
						<time>2026-05-04T18:27:57Z</time>
					</trkpt>
					<trkpt lat="42.909360" lon="11.672280">
						<ele>903</ele>
						<time>2026-05-04T18:28:01Z</time>
					</trkpt>
					<trkpt lat="42.909510" lon="11.671720">
						<ele>905</ele>
						<time>2026-05-04T18:28:09Z</time>
					</trkpt>
					<trkpt lat="42.909520" lon="11.671600">
						<ele>906</ele>
						<time>2026-05-04T18:28:11Z</time>
					</trkpt>
					<trkpt lat="42.909520" lon="11.671510">
						<ele>907</ele>
						<time>2026-05-04T18:28:12Z</time>
					</trkpt>
					<trkpt lat="42.909500" lon="11.671400">
						<ele>907</ele>
						<time>2026-05-04T18:28:13Z</time>
					</trkpt>
					<trkpt lat="42.909450" lon="11.671280">
						<ele>907</ele>
						<time>2026-05-04T18:28:15Z</time>
					</trkpt>
					<trkpt lat="42.909410" lon="11.671220">
						<ele>907</ele>
						<time>2026-05-04T18:28:16Z</time>
					</trkpt>
					<trkpt lat="42.909240" lon="11.671020">
						<ele>904</ele>
						<time>2026-05-04T18:28:20Z</time>
					</trkpt>
					<trkpt lat="42.909190" lon="11.670940">
						<ele>904</ele>
						<time>2026-05-04T18:28:22Z</time>
					</trkpt>
					<trkpt lat="42.909160" lon="11.670820">
						<ele>904</ele>
						<time>2026-05-04T18:28:23Z</time>
					</trkpt>
					<trkpt lat="42.909150" lon="11.670660">
						<ele>906</ele>
						<time>2026-05-04T18:28:25Z</time>
					</trkpt>
					<trkpt lat="42.909180" lon="11.669940">
						<ele>917</ele>
						<time>2026-05-04T18:28:35Z</time>
					</trkpt>
					<trkpt lat="42.909160" lon="11.669770">
						<ele>917</ele>
						<time>2026-05-04T18:28:37Z</time>
					</trkpt>
					<trkpt lat="42.909130" lon="11.669690">
						<ele>917</ele>
						<time>2026-05-04T18:28:38Z</time>
					</trkpt>
					<trkpt lat="42.909060" lon="11.669590">
						<ele>916</ele>
						<time>2026-05-04T18:28:40Z</time>
					</trkpt>
					<trkpt lat="42.908980" lon="11.669520">
						<ele>915</ele>
						<time>2026-05-04T18:28:42Z</time>
					</trkpt>
					<trkpt lat="42.908560" lon="11.669200">
						<ele>911</ele>
						<time>2026-05-04T18:28:50Z</time>
					</trkpt>
					<trkpt lat="42.908440" lon="11.669030">
						<ele>910</ele>
						<time>2026-05-04T18:28:53Z</time>
					</trkpt>
					<trkpt lat="42.908350" lon="11.668680">
						<ele>911</ele>
						<time>2026-05-04T18:28:58Z</time>
					</trkpt>
					<trkpt lat="42.908260" lon="11.668110">
						<ele>916</ele>
						<time>2026-05-04T18:29:06Z</time>
					</trkpt>
					<trkpt lat="42.908210" lon="11.667840">
						<ele>918</ele>
						<time>2026-05-04T18:29:09Z</time>
					</trkpt>
					<trkpt lat="42.908170" lon="11.667710">
						<ele>919</ele>
						<time>2026-05-04T18:29:11Z</time>
					</trkpt>
					<trkpt lat="42.908100" lon="11.667610">
						<ele>921</ele>
						<time>2026-05-04T18:29:13Z</time>
					</trkpt>
					<trkpt lat="42.908030" lon="11.667570">
						<ele>922</ele>
						<time>2026-05-04T18:29:14Z</time>
					</trkpt>
					<trkpt lat="42.907950" lon="11.667540">
						<ele>923</ele>
						<time>2026-05-04T18:29:16Z</time>
					</trkpt>
					<trkpt lat="42.907890" lon="11.667550">
						<ele>923</ele>
						<time>2026-05-04T18:29:17Z</time>
					</trkpt>
					<trkpt lat="42.907820" lon="11.667580">
						<ele>923</ele>
						<time>2026-05-04T18:29:18Z</time>
					</trkpt>
					<trkpt lat="42.907780" lon="11.667650">
						<ele>922</ele>
						<time>2026-05-04T18:29:19Z</time>
					</trkpt>
					<trkpt lat="42.907750" lon="11.667720">
						<ele>922</ele>
						<time>2026-05-04T18:29:20Z</time>
					</trkpt>
					<trkpt lat="42.907690" lon="11.667900">
						<ele>919</ele>
						<time>2026-05-04T18:29:23Z</time>
					</trkpt>
					<trkpt lat="42.907610" lon="11.668150">
						<ele>915</ele>
						<time>2026-05-04T18:29:27Z</time>
					</trkpt>
					<trkpt lat="42.907510" lon="11.668270">
						<ele>913</ele>
						<time>2026-05-04T18:29:29Z</time>
					</trkpt>
					<trkpt lat="42.907320" lon="11.668450">
						<ele>911</ele>
						<time>2026-05-04T18:29:33Z</time>
					</trkpt>
					<trkpt lat="42.907100" lon="11.668610">
						<ele>909</ele>
						<time>2026-05-04T18:29:37Z</time>
					</trkpt>
					<trkpt lat="42.906880" lon="11.668720">
						<ele>908</ele>
						<time>2026-05-04T18:29:42Z</time>
					</trkpt>
					<trkpt lat="42.906710" lon="11.668780">
						<ele>907</ele>
						<time>2026-05-04T18:29:45Z</time>
					</trkpt>
					<trkpt lat="42.906270" lon="11.669040">
						<ele>901</ele>
						<time>2026-05-04T18:29:53Z</time>
					</trkpt>
					<trkpt lat="42.906150" lon="11.669070">
						<ele>900</ele>
						<time>2026-05-04T18:29:55Z</time>
					</trkpt>
					<trkpt lat="42.905950" lon="11.668980">
						<ele>901</ele>
						<time>2026-05-04T18:29:59Z</time>
					</trkpt>
					<trkpt lat="42.905780" lon="11.668890">
						<ele>902</ele>
						<time>2026-05-04T18:30:02Z</time>
					</trkpt>
					<trkpt lat="42.905630" lon="11.668870">
						<ele>901</ele>
						<time>2026-05-04T18:30:05Z</time>
					</trkpt>
					<trkpt lat="42.905470" lon="11.668940">
						<ele>899</ele>
						<time>2026-05-04T18:30:08Z</time>
					</trkpt>
					<trkpt lat="42.905230" lon="11.669070">
						<ele>896</ele>
						<time>2026-05-04T18:30:13Z</time>
					</trkpt>
					<trkpt lat="42.905120" lon="11.669080">
						<ele>896</ele>
						<time>2026-05-04T18:30:15Z</time>
					</trkpt>
					<trkpt lat="42.905020" lon="11.669050">
						<ele>896</ele>
						<time>2026-05-04T18:30:16Z</time>
					</trkpt>
					<trkpt lat="42.904970" lon="11.668970">
						<ele>896</ele>
						<time>2026-05-04T18:30:18Z</time>
					</trkpt>
					<trkpt lat="42.904920" lon="11.668820">
						<ele>897</ele>
						<time>2026-05-04T18:30:20Z</time>
					</trkpt>
					<trkpt lat="42.904890" lon="11.668530">
						<ele>899</ele>
						<time>2026-05-04T18:30:24Z</time>
					</trkpt>
					<trkpt lat="42.904940" lon="11.668120">
						<ele>903</ele>
						<time>2026-05-04T18:30:29Z</time>
					</trkpt>
					<trkpt lat="42.905010" lon="11.667510">
						<ele>904</ele>
						<time>2026-05-04T18:30:37Z</time>
					</trkpt>
					<trkpt lat="42.904980" lon="11.667310">
						<ele>907</ele>
						<time>2026-05-04T18:30:40Z</time>
					</trkpt>
					<trkpt lat="42.904940" lon="11.667250">
						<ele>908</ele>
						<time>2026-05-04T18:30:41Z</time>
					</trkpt>
					<trkpt lat="42.904900" lon="11.667200">
						<ele>908</ele>
						<time>2026-05-04T18:30:42Z</time>
					</trkpt>
					<trkpt lat="42.904780" lon="11.667110">
						<ele>909</ele>
						<time>2026-05-04T18:30:44Z</time>
					</trkpt>
					<trkpt lat="42.904480" lon="11.666940">
						<ele>908</ele>
						<time>2026-05-04T18:30:50Z</time>
					</trkpt>
					<trkpt lat="42.904390" lon="11.666940">
						<ele>906</ele>
						<time>2026-05-04T18:30:52Z</time>
					</trkpt>
					<trkpt lat="42.904310" lon="11.666960">
						<ele>905</ele>
						<time>2026-05-04T18:30:53Z</time>
					</trkpt>
					<trkpt lat="42.904170" lon="11.667040">
						<ele>902</ele>
						<time>2026-05-04T18:30:56Z</time>
					</trkpt>
					<trkpt lat="42.903960" lon="11.667170">
						<ele>903</ele>
						<time>2026-05-04T18:31:00Z</time>
					</trkpt>
					<trkpt lat="42.903810" lon="11.667320">
						<ele>903</ele>
						<time>2026-05-04T18:31:03Z</time>
					</trkpt>
					<trkpt lat="42.903710" lon="11.667500">
						<ele>902</ele>
						<time>2026-05-04T18:31:06Z</time>
					</trkpt>
					<trkpt lat="42.903490" lon="11.667950">
						<ele>898</ele>
						<time>2026-05-04T18:31:13Z</time>
					</trkpt>
					<trkpt lat="42.903180" lon="11.668660">
						<ele>883</ele>
						<time>2026-05-04T18:31:24Z</time>
					</trkpt>
					<trkpt lat="42.903110" lon="11.668790">
						<ele>880</ele>
						<time>2026-05-04T18:31:26Z</time>
					</trkpt>
					<trkpt lat="42.903040" lon="11.668850">
						<ele>878</ele>
						<time>2026-05-04T18:31:28Z</time>
					</trkpt>
					<trkpt lat="42.902970" lon="11.668890">
						<ele>877</ele>
						<time>2026-05-04T18:31:29Z</time>
					</trkpt>
					<trkpt lat="42.902890" lon="11.668880">
						<ele>876</ele>
						<time>2026-05-04T18:31:30Z</time>
					</trkpt>
					<trkpt lat="42.902800" lon="11.668840">
						<ele>877</ele>
						<time>2026-05-04T18:31:32Z</time>
					</trkpt>
					<trkpt lat="42.902740" lon="11.668780">
						<ele>878</ele>
						<time>2026-05-04T18:31:33Z</time>
					</trkpt>
					<trkpt lat="42.902670" lon="11.668680">
						<ele>880</ele>
						<time>2026-05-04T18:31:35Z</time>
					</trkpt>
					<trkpt lat="42.902480" lon="11.668330">
						<ele>888</ele>
						<time>2026-05-04T18:31:41Z</time>
					</trkpt>
					<trkpt lat="42.902290" lon="11.667940">
						<ele>889</ele>
						<time>2026-05-04T18:31:47Z</time>
					</trkpt>
					<trkpt lat="42.902210" lon="11.667810">
						<ele>889</ele>
						<time>2026-05-04T18:31:49Z</time>
					</trkpt>
					<trkpt lat="42.902090" lon="11.667680">
						<ele>887</ele>
						<time>2026-05-04T18:31:52Z</time>
					</trkpt>
					<trkpt lat="42.902020" lon="11.667630">
						<ele>886</ele>
						<time>2026-05-04T18:31:53Z</time>
					</trkpt>
					<trkpt lat="42.901960" lon="11.667610">
						<ele>885</ele>
						<time>2026-05-04T18:31:55Z</time>
					</trkpt>
					<trkpt lat="42.901860" lon="11.667580">
						<ele>882</ele>
						<time>2026-05-04T18:31:56Z</time>
					</trkpt>
					<trkpt lat="42.901740" lon="11.667570">
						<ele>879</ele>
						<time>2026-05-04T18:31:58Z</time>
					</trkpt>
					<trkpt lat="42.901530" lon="11.667580">
						<ele>877</ele>
						<time>2026-05-04T18:32:02Z</time>
					</trkpt>
					<trkpt lat="42.901410" lon="11.667590">
						<ele>877</ele>
						<time>2026-05-04T18:32:04Z</time>
					</trkpt>
					<trkpt lat="42.901310" lon="11.667620">
						<ele>876</ele>
						<time>2026-05-04T18:32:06Z</time>
					</trkpt>
					<trkpt lat="42.901050" lon="11.667730">
						<ele>874</ele>
						<time>2026-05-04T18:32:11Z</time>
					</trkpt>
					<trkpt lat="42.900980" lon="11.667740">
						<ele>874</ele>
						<time>2026-05-04T18:32:12Z</time>
					</trkpt>
					<trkpt lat="42.900910" lon="11.667750">
						<ele>874</ele>
						<time>2026-05-04T18:32:14Z</time>
					</trkpt>
					<trkpt lat="42.900780" lon="11.667710">
						<ele>873</ele>
						<time>2026-05-04T18:32:16Z</time>
					</trkpt>
					<trkpt lat="42.900570" lon="11.667550">
						<ele>874</ele>
						<time>2026-05-04T18:32:20Z</time>
					</trkpt>
					<trkpt lat="42.900290" lon="11.667310">
						<ele>875</ele>
						<time>2026-05-04T18:32:26Z</time>
					</trkpt>
					<trkpt lat="42.900530" lon="11.667100">
						<ele>877</ele>
						<time>2026-05-04T18:32:31Z</time>
					</trkpt>
					<trkpt lat="42.900770" lon="11.666930">
						<ele>878</ele>
						<time>2026-05-04T18:32:36Z</time>
					</trkpt>
					<trkpt lat="42.900890" lon="11.666840">
						<ele>879</ele>
						<time>2026-05-04T18:32:38Z</time>
					</trkpt>
					<trkpt lat="42.900970" lon="11.666800">
						<ele>880</ele>
						<time>2026-05-04T18:32:40Z</time>
					</trkpt>
					<trkpt lat="42.901060" lon="11.666760">
						<ele>881</ele>
						<time>2026-05-04T18:32:42Z</time>
					</trkpt>
					<trkpt lat="42.901130" lon="11.666750">
						<ele>882</ele>
						<time>2026-05-04T18:32:43Z</time>
					</trkpt>
					<trkpt lat="42.901310" lon="11.666730">
						<ele>883</ele>
						<time>2026-05-04T18:32:46Z</time>
					</trkpt>
					<trkpt lat="42.901540" lon="11.666760">
						<ele>885</ele>
						<time>2026-05-04T18:32:50Z</time>
					</trkpt>
					<trkpt lat="42.901840" lon="11.666820">
						<ele>889</ele>
						<time>2026-05-04T18:32:56Z</time>
					</trkpt>
					<trkpt lat="42.902040" lon="11.666840">
						<ele>893</ele>
						<time>2026-05-04T18:32:59Z</time>
					</trkpt>
					<trkpt lat="42.902180" lon="11.666800">
						<ele>896</ele>
						<time>2026-05-04T18:33:02Z</time>
					</trkpt>
					<trkpt lat="42.902300" lon="11.666720">
						<ele>899</ele>
						<time>2026-05-04T18:33:04Z</time>
					</trkpt>
					<trkpt lat="42.902410" lon="11.666570">
						<ele>901</ele>
						<time>2026-05-04T18:33:07Z</time>
					</trkpt>
					<trkpt lat="42.902490" lon="11.666350">
						<ele>902</ele>
						<time>2026-05-04T18:33:10Z</time>
					</trkpt>
					<trkpt lat="42.902530" lon="11.666130">
						<ele>903</ele>
						<time>2026-05-04T18:33:13Z</time>
					</trkpt>
					<trkpt lat="42.902510" lon="11.665930">
						<ele>902</ele>
						<time>2026-05-04T18:33:16Z</time>
					</trkpt>
					<trkpt lat="42.902460" lon="11.665720">
						<ele>903</ele>
						<time>2026-05-04T18:33:18Z</time>
					</trkpt>
					<trkpt lat="42.902380" lon="11.665520">
						<ele>903</ele>
						<time>2026-05-04T18:33:21Z</time>
					</trkpt>
					<trkpt lat="42.902200" lon="11.665170">
						<ele>904</ele>
						<time>2026-05-04T18:33:27Z</time>
					</trkpt>
					<trkpt lat="42.902120" lon="11.665000">
						<ele>904</ele>
						<time>2026-05-04T18:33:30Z</time>
					</trkpt>
					<trkpt lat="42.901950" lon="11.664620">
						<ele>906</ele>
						<time>2026-05-04T18:33:35Z</time>
					</trkpt>
					<trkpt lat="42.901810" lon="11.664210">
						<ele>909</ele>
						<time>2026-05-04T18:33:41Z</time>
					</trkpt>
					<trkpt lat="42.901680" lon="11.663750">
						<ele>913</ele>
						<time>2026-05-04T18:33:48Z</time>
					</trkpt>
					<trkpt lat="42.901600" lon="11.663400">
						<ele>917</ele>
						<time>2026-05-04T18:33:53Z</time>
					</trkpt>
					<trkpt lat="42.901560" lon="11.663220">
						<ele>918</ele>
						<time>2026-05-04T18:33:55Z</time>
					</trkpt>
					<trkpt lat="42.901550" lon="11.663030">
						<ele>919</ele>
						<time>2026-05-04T18:33:57Z</time>
					</trkpt>
					<trkpt lat="42.901570" lon="11.662860">
						<ele>920</ele>
						<time>2026-05-04T18:34:00Z</time>
					</trkpt>
					<trkpt lat="42.901600" lon="11.662740">
						<ele>921</ele>
						<time>2026-05-04T18:34:01Z</time>
					</trkpt>
					<trkpt lat="42.901660" lon="11.662600">
						<ele>922</ele>
						<time>2026-05-04T18:34:03Z</time>
					</trkpt>
					<trkpt lat="42.901760" lon="11.662480">
						<ele>925</ele>
						<time>2026-05-04T18:34:06Z</time>
					</trkpt>
					<trkpt lat="42.901890" lon="11.662390">
						<ele>927</ele>
						<time>2026-05-04T18:34:08Z</time>
					</trkpt>
					<trkpt lat="42.901990" lon="11.662370">
						<ele>929</ele>
						<time>2026-05-04T18:34:10Z</time>
					</trkpt>
					<trkpt lat="42.902100" lon="11.662370">
						<ele>931</ele>
						<time>2026-05-04T18:34:12Z</time>
					</trkpt>
					<trkpt lat="42.902250" lon="11.662420">
						<ele>933</ele>
						<time>2026-05-04T18:34:15Z</time>
					</trkpt>
					<trkpt lat="42.902480" lon="11.662590">
						<ele>935</ele>
						<time>2026-05-04T18:34:20Z</time>
					</trkpt>
					<trkpt lat="42.902690" lon="11.662690">
						<ele>937</ele>
						<time>2026-05-04T18:34:24Z</time>
					</trkpt>
					<trkpt lat="42.902900" lon="11.662780">
						<ele>939</ele>
						<time>2026-05-04T18:34:27Z</time>
					</trkpt>
					<trkpt lat="42.903100" lon="11.662830">
						<ele>941</ele>
						<time>2026-05-04T18:34:31Z</time>
					</trkpt>
					<trkpt lat="42.903300" lon="11.662840">
						<ele>943</ele>
						<time>2026-05-04T18:34:35Z</time>
					</trkpt>
					<trkpt lat="42.903450" lon="11.662830">
						<ele>944</ele>
						<time>2026-05-04T18:34:37Z</time>
					</trkpt>
					<trkpt lat="42.903770" lon="11.662730">
						<ele>946</ele>
						<time>2026-05-04T18:34:43Z</time>
					</trkpt>
					<trkpt lat="42.904030" lon="11.662650">
						<ele>947</ele>
						<time>2026-05-04T18:34:48Z</time>
					</trkpt>
					<trkpt lat="42.904290" lon="11.662540">
						<ele>950</ele>
						<time>2026-05-04T18:34:53Z</time>
					</trkpt>
					<trkpt lat="42.904420" lon="11.662500">
						<ele>951</ele>
						<time>2026-05-04T18:34:55Z</time>
					</trkpt>
					<trkpt lat="42.904620" lon="11.662520">
						<ele>953</ele>
						<time>2026-05-04T18:34:59Z</time>
					</trkpt>
					<trkpt lat="42.904870" lon="11.662600">
						<ele>954</ele>
						<time>2026-05-04T18:35:03Z</time>
					</trkpt>
					<trkpt lat="42.904990" lon="11.662600">
						<ele>955</ele>
						<time>2026-05-04T18:35:05Z</time>
					</trkpt>
					<trkpt lat="42.905120" lon="11.662570">
						<ele>956</ele>
						<time>2026-05-04T18:35:08Z</time>
					</trkpt>
					<trkpt lat="42.905440" lon="11.662400">
						<ele>958</ele>
						<time>2026-05-04T18:35:14Z</time>
					</trkpt>
					<trkpt lat="42.906260" lon="11.661920">
						<ele>966</ele>
						<time>2026-05-04T18:35:30Z</time>
					</trkpt>
					<trkpt lat="42.906710" lon="11.661550">
						<ele>971</ele>
						<time>2026-05-04T18:35:39Z</time>
					</trkpt>
					<trkpt lat="42.906820" lon="11.661460">
						<ele>973</ele>
						<time>2026-05-04T18:35:41Z</time>
					</trkpt>
					<trkpt lat="42.907470" lon="11.660930">
						<ele>982</ele>
						<time>2026-05-04T18:35:55Z</time>
					</trkpt>
					<trkpt lat="42.907610" lon="11.660830">
						<ele>984</ele>
						<time>2026-05-04T18:35:58Z</time>
					</trkpt>
					<trkpt lat="42.907800" lon="11.660740">
						<ele>986</ele>
						<time>2026-05-04T18:36:01Z</time>
					</trkpt>
					<trkpt lat="42.908500" lon="11.660500">
						<ele>994</ele>
						<time>2026-05-04T18:36:14Z</time>
					</trkpt>
					<trkpt lat="42.908650" lon="11.660460">
						<ele>995</ele>
						<time>2026-05-04T18:36:17Z</time>
					</trkpt>
					<trkpt lat="42.909050" lon="11.660400">
						<ele>998</ele>
						<time>2026-05-04T18:36:24Z</time>
					</trkpt>
					<trkpt lat="42.909170" lon="11.660360">
						<ele>999</ele>
						<time>2026-05-04T18:36:26Z</time>
					</trkpt>
					<trkpt lat="42.909320" lon="11.660250">
						<ele>1001</ele>
						<time>2026-05-04T18:36:29Z</time>
					</trkpt>
					<trkpt lat="42.909550" lon="11.660030">
						<ele>1005</ele>
						<time>2026-05-04T18:36:34Z</time>
					</trkpt>
					<trkpt lat="42.909870" lon="11.659680">
						<ele>1012</ele>
						<time>2026-05-04T18:36:41Z</time>
					</trkpt>
					<trkpt lat="42.910030" lon="11.659590">
						<ele>1014</ele>
						<time>2026-05-04T18:36:45Z</time>
					</trkpt>
					<trkpt lat="42.910300" lon="11.659460">
						<ele>1017</ele>
						<time>2026-05-04T18:36:50Z</time>
					</trkpt>
					<trkpt lat="42.910410" lon="11.659370">
						<ele>1018</ele>
						<time>2026-05-04T18:36:52Z</time>
					</trkpt>
					<trkpt lat="42.910600" lon="11.659090">
						<ele>1023</ele>
						<time>2026-05-04T18:36:57Z</time>
					</trkpt>
					<trkpt lat="42.910720" lon="11.658870">
						<ele>1027</ele>
						<time>2026-05-04T18:37:00Z</time>
					</trkpt>
					<trkpt lat="42.910790" lon="11.658700">
						<ele>1029</ele>
						<time>2026-05-04T18:37:03Z</time>
					</trkpt>
					<trkpt lat="42.910850" lon="11.658450">
						<ele>1033</ele>
						<time>2026-05-04T18:37:06Z</time>
					</trkpt>
					<trkpt lat="42.910880" lon="11.658390">
						<ele>1034</ele>
						<time>2026-05-04T18:37:07Z</time>
					</trkpt>
					<trkpt lat="42.910920" lon="11.658340">
						<ele>1035</ele>
						<time>2026-05-04T18:37:08Z</time>
					</trkpt>
					<trkpt lat="42.910970" lon="11.658320">
						<ele>1036</ele>
						<time>2026-05-04T18:37:09Z</time>
					</trkpt>
					<trkpt lat="42.911080" lon="11.658310">
						<ele>1036</ele>
						<time>2026-05-04T18:37:11Z</time>
					</trkpt>
					<trkpt lat="42.911150" lon="11.658320">
						<ele>1036</ele>
						<time>2026-05-04T18:37:12Z</time>
					</trkpt>
					<trkpt lat="42.911340" lon="11.658320">
						<ele>1037</ele>
						<time>2026-05-04T18:37:16Z</time>
					</trkpt>
					<trkpt lat="42.911590" lon="11.658250">
						<ele>1038</ele>
						<time>2026-05-04T18:37:20Z</time>
					</trkpt>
					<trkpt lat="42.911900" lon="11.658230">
						<ele>1041</ele>
						<time>2026-05-04T18:37:26Z</time>
					</trkpt>
					<trkpt lat="42.912040" lon="11.658200">
						<ele>1042</ele>
						<time>2026-05-04T18:37:28Z</time>
					</trkpt>
					<trkpt lat="42.912090" lon="11.658180">
						<ele>1043</ele>
						<time>2026-05-04T18:37:29Z</time>
					</trkpt>
					<trkpt lat="42.912150" lon="11.658130">
						<ele>1044</ele>
						<time>2026-05-04T18:37:31Z</time>
					</trkpt>
					<trkpt lat="42.912400" lon="11.657640">
						<ele>1051</ele>
						<time>2026-05-04T18:37:38Z</time>
					</trkpt>
					<trkpt lat="42.912480" lon="11.657550">
						<ele>1053</ele>
						<time>2026-05-04T18:37:40Z</time>
					</trkpt>
					<trkpt lat="42.912550" lon="11.657520">
						<ele>1054</ele>
						<time>2026-05-04T18:37:42Z</time>
					</trkpt>
					<trkpt lat="42.913060" lon="11.657410">
						<ele>1063</ele>
						<time>2026-05-04T18:37:51Z</time>
					</trkpt>
					<trkpt lat="42.913170" lon="11.657430">
						<ele>1064</ele>
						<time>2026-05-04T18:37:53Z</time>
					</trkpt>
					<trkpt lat="42.913250" lon="11.657490">
						<ele>1064</ele>
						<time>2026-05-04T18:37:54Z</time>
					</trkpt>
					<trkpt lat="42.913310" lon="11.657550">
						<ele>1064</ele>
						<time>2026-05-04T18:37:56Z</time>
					</trkpt>
					<trkpt lat="42.913420" lon="11.657690">
						<ele>1065</ele>
						<time>2026-05-04T18:37:58Z</time>
					</trkpt>
					<trkpt lat="42.913560" lon="11.657910">
						<ele>1065</ele>
						<time>2026-05-04T18:38:02Z</time>
					</trkpt>
					<trkpt lat="42.913650" lon="11.657990">
						<ele>1065</ele>
						<time>2026-05-04T18:38:04Z</time>
					</trkpt>
					<trkpt lat="42.913730" lon="11.658030">
						<ele>1066</ele>
						<time>2026-05-04T18:38:06Z</time>
					</trkpt>
					<trkpt lat="42.913960" lon="11.658060">
						<ele>1070</ele>
						<time>2026-05-04T18:38:10Z</time>
					</trkpt>
					<trkpt lat="42.914050" lon="11.658020">
						<ele>1072</ele>
						<time>2026-05-04T18:38:11Z</time>
					</trkpt>
					<trkpt lat="42.914340" lon="11.657850">
						<ele>1078</ele>
						<time>2026-05-04T18:38:17Z</time>
					</trkpt>
					<trkpt lat="42.914610" lon="11.657730">
						<ele>1083</ele>
						<time>2026-05-04T18:38:22Z</time>
					</trkpt>
					<trkpt lat="42.915280" lon="11.657540">
						<ele>1093</ele>
						<time>2026-05-04T18:38:34Z</time>
					</trkpt>
					<trkpt lat="42.916010" lon="11.657590">
						<ele>1093</ele>
						<time>2026-05-04T18:38:47Z</time>
					</trkpt>
					<trkpt lat="42.916100" lon="11.657580">
						<ele>1093</ele>
						<time>2026-05-04T18:38:49Z</time>
					</trkpt>
					<trkpt lat="42.916190" lon="11.657560">
						<ele>1094</ele>
						<time>2026-05-04T18:38:50Z</time>
					</trkpt>
					<trkpt lat="42.916270" lon="11.657520">
						<ele>1095</ele>
						<time>2026-05-04T18:38:52Z</time>
					</trkpt>
					<trkpt lat="42.916400" lon="11.657420">
						<ele>1098</ele>
						<time>2026-05-04T18:38:55Z</time>
					</trkpt>
					<trkpt lat="42.916520" lon="11.657320">
						<ele>1101</ele>
						<time>2026-05-04T18:38:57Z</time>
					</trkpt>
					<trkpt lat="42.916650" lon="11.657280">
						<ele>1102</ele>
						<time>2026-05-04T18:38:59Z</time>
					</trkpt>
					<trkpt lat="42.917280" lon="11.657250">
						<ele>1108</ele>
						<time>2026-05-04T18:39:11Z</time>
					</trkpt>
					<trkpt lat="42.917370" lon="11.657260">
						<ele>1109</ele>
						<time>2026-05-04T18:39:12Z</time>
					</trkpt>
					<trkpt lat="42.917660" lon="11.657330">
						<ele>1108</ele>
						<time>2026-05-04T18:39:18Z</time>
					</trkpt>
					<trkpt lat="42.917870" lon="11.657310">
						<ele>1109</ele>
						<time>2026-05-04T18:39:21Z</time>
					</trkpt>
					<trkpt lat="42.918000" lon="11.657320">
						<ele>1109</ele>
						<time>2026-05-04T18:39:24Z</time>
					</trkpt>
					<trkpt lat="42.918050" lon="11.657340">
						<ele>1109</ele>
						<time>2026-05-04T18:39:25Z</time>
					</trkpt>
					<trkpt lat="42.918120" lon="11.657380">
						<ele>1108</ele>
						<time>2026-05-04T18:39:26Z</time>
					</trkpt>
					<trkpt lat="42.918150" lon="11.657420">
						<ele>1108</ele>
						<time>2026-05-04T18:39:27Z</time>
					</trkpt>
					<trkpt lat="42.918190" lon="11.657480">
						<ele>1107</ele>
						<time>2026-05-04T18:39:28Z</time>
					</trkpt>
					<trkpt lat="42.918230" lon="11.657580">
						<ele>1107</ele>
						<time>2026-05-04T18:39:29Z</time>
					</trkpt>
					<trkpt lat="42.918250" lon="11.657690">
						<ele>1107</ele>
						<time>2026-05-04T18:39:31Z</time>
					</trkpt>
					<trkpt lat="42.918290" lon="11.658010">
						<ele>1106</ele>
						<time>2026-05-04T18:39:35Z</time>
					</trkpt>
					<trkpt lat="42.918320" lon="11.658300">
						<ele>1106</ele>
						<time>2026-05-04T18:39:39Z</time>
					</trkpt>
					<trkpt lat="42.918370" lon="11.658480">
						<ele>1106</ele>
						<time>2026-05-04T18:39:41Z</time>
					</trkpt>
					<trkpt lat="42.918470" lon="11.658720">
						<ele>1106</ele>
						<time>2026-05-04T18:39:45Z</time>
					</trkpt>
					<trkpt lat="42.918700" lon="11.659170">
						<ele>1106</ele>
						<time>2026-05-04T18:39:52Z</time>
					</trkpt>
					<trkpt lat="42.918960" lon="11.659610">
						<ele>1105</ele>
						<time>2026-05-04T18:39:59Z</time>
					</trkpt>
					<trkpt lat="42.919130" lon="11.659770">
						<ele>1105</ele>
						<time>2026-05-04T18:40:03Z</time>
					</trkpt>
					<trkpt lat="42.919260" lon="11.659780">
						<ele>1106</ele>
						<time>2026-05-04T18:40:05Z</time>
					</trkpt>
					<trkpt lat="42.919740" lon="11.659670">
						<ele>1107</ele>
						<time>2026-05-04T18:40:14Z</time>
					</trkpt>
					<trkpt lat="42.920040" lon="11.659550">
						<ele>1106</ele>
						<time>2026-05-04T18:40:20Z</time>
					</trkpt>
					<trkpt lat="42.920170" lon="11.659420">
						<ele>1104</ele>
						<time>2026-05-04T18:40:22Z</time>
					</trkpt>
					<trkpt lat="42.920250" lon="11.659270">
						<ele>1103</ele>
						<time>2026-05-04T18:40:25Z</time>
					</trkpt>
					<trkpt lat="42.920260" lon="11.659130">
						<ele>1102</ele>
						<time>2026-05-04T18:40:27Z</time>
					</trkpt>
					<trkpt lat="42.920140" lon="11.658730">
						<ele>1099</ele>
						<time>2026-05-04T18:40:32Z</time>
					</trkpt>
					<trkpt lat="42.920110" lon="11.658550">
						<ele>1098</ele>
						<time>2026-05-04T18:40:35Z</time>
					</trkpt>
					<trkpt lat="42.920130" lon="11.658410">
						<ele>1097</ele>
						<time>2026-05-04T18:40:37Z</time>
					</trkpt>
					<trkpt lat="42.920240" lon="11.658080">
						<ele>1093</ele>
						<time>2026-05-04T18:40:41Z</time>
					</trkpt>
					<trkpt lat="42.920280" lon="11.657980">
						<ele>1092</ele>
						<time>2026-05-04T18:40:43Z</time>
					</trkpt>
					<trkpt lat="42.920350" lon="11.657900">
						<ele>1091</ele>
						<time>2026-05-04T18:40:44Z</time>
					</trkpt>
					<trkpt lat="42.920430" lon="11.657850">
						<ele>1090</ele>
						<time>2026-05-04T18:40:46Z</time>
					</trkpt>
					<trkpt lat="42.920520" lon="11.657800">
						<ele>1089</ele>
						<time>2026-05-04T18:40:48Z</time>
					</trkpt>
					<trkpt lat="42.920740" lon="11.657750">
						<ele>1087</ele>
						<time>2026-05-04T18:40:52Z</time>
					</trkpt>
					<trkpt lat="42.920850" lon="11.657760">
						<ele>1087</ele>
						<time>2026-05-04T18:40:54Z</time>
					</trkpt>
					<trkpt lat="42.920990" lon="11.657790">
						<ele>1085</ele>
						<time>2026-05-04T18:40:56Z</time>
					</trkpt>
					<trkpt lat="42.921240" lon="11.657880">
						<ele>1083</ele>
						<time>2026-05-04T18:41:01Z</time>
					</trkpt>
					<trkpt lat="42.921960" lon="11.658120">
						<ele>1074</ele>
						<time>2026-05-04T18:41:14Z</time>
					</trkpt>
					<trkpt lat="42.922100" lon="11.658160">
						<ele>1073</ele>
						<time>2026-05-04T18:41:16Z</time>
					</trkpt>
					<trkpt lat="42.922210" lon="11.658170">
						<ele>1071</ele>
						<time>2026-05-04T18:41:18Z</time>
					</trkpt>
					<trkpt lat="42.922400" lon="11.658140">
						<ele>1068</ele>
						<time>2026-05-04T18:41:22Z</time>
					</trkpt>
					<trkpt lat="42.922680" lon="11.658030">
						<ele>1064</ele>
						<time>2026-05-04T18:41:27Z</time>
					</trkpt>
					<trkpt lat="42.922860" lon="11.657930">
						<ele>1061</ele>
						<time>2026-05-04T18:41:30Z</time>
					</trkpt>
					<trkpt lat="42.922940" lon="11.657870">
						<ele>1060</ele>
						<time>2026-05-04T18:41:32Z</time>
					</trkpt>
					<trkpt lat="42.923000" lon="11.657770">
						<ele>1059</ele>
						<time>2026-05-04T18:41:34Z</time>
					</trkpt>
					<trkpt lat="42.923050" lon="11.657650">
						<ele>1057</ele>
						<time>2026-05-04T18:41:36Z</time>
					</trkpt>
					<trkpt lat="42.923070" lon="11.657460">
						<ele>1056</ele>
						<time>2026-05-04T18:41:38Z</time>
					</trkpt>
					<trkpt lat="42.923000" lon="11.656170">
						<ele>1049</ele>
						<time>2026-05-04T18:41:55Z</time>
					</trkpt>
					<trkpt lat="42.922990" lon="11.655880">
						<ele>1046</ele>
						<time>2026-05-04T18:41:59Z</time>
					</trkpt>
					<trkpt lat="42.923000" lon="11.655750">
						<ele>1044</ele>
						<time>2026-05-04T18:42:00Z</time>
					</trkpt>
					<trkpt lat="42.923030" lon="11.655680">
						<ele>1043</ele>
						<time>2026-05-04T18:42:01Z</time>
					</trkpt>
					<trkpt lat="42.923100" lon="11.655600">
						<ele>1042</ele>
						<time>2026-05-04T18:42:03Z</time>
					</trkpt>
					<trkpt lat="42.923180" lon="11.655560">
						<ele>1041</ele>
						<time>2026-05-04T18:42:05Z</time>
					</trkpt>
					<trkpt lat="42.923250" lon="11.655570">
						<ele>1041</ele>
						<time>2026-05-04T18:42:06Z</time>
					</trkpt>
					<trkpt lat="42.923390" lon="11.655620">
						<ele>1040</ele>
						<time>2026-05-04T18:42:08Z</time>
					</trkpt>
					<trkpt lat="42.923750" lon="11.655730">
						<ele>1033</ele>
						<time>2026-05-04T18:42:15Z</time>
					</trkpt>
					<trkpt lat="42.923820" lon="11.655770">
						<ele>1032</ele>
						<time>2026-05-04T18:42:16Z</time>
					</trkpt>
					<trkpt lat="42.923910" lon="11.655850">
						<ele>1031</ele>
						<time>2026-05-04T18:42:18Z</time>
					</trkpt>
					<trkpt lat="42.923980" lon="11.655940">
						<ele>1030</ele>
						<time>2026-05-04T18:42:20Z</time>
					</trkpt>
					<trkpt lat="42.924210" lon="11.656410">
						<ele>1027</ele>
						<time>2026-05-04T18:42:27Z</time>
					</trkpt>
					<trkpt lat="42.924320" lon="11.656680">
						<ele>1026</ele>
						<time>2026-05-04T18:42:31Z</time>
					</trkpt>
					<trkpt lat="42.924450" lon="11.656900">
						<ele>1025</ele>
						<time>2026-05-04T18:42:35Z</time>
					</trkpt>
					<trkpt lat="42.924510" lon="11.656980">
						<ele>1025</ele>
						<time>2026-05-04T18:42:37Z</time>
					</trkpt>
					<trkpt lat="42.924600" lon="11.657050">
						<ele>1024</ele>
						<time>2026-05-04T18:42:38Z</time>
					</trkpt>
					<trkpt lat="42.924710" lon="11.657080">
						<ele>1023</ele>
						<time>2026-05-04T18:42:40Z</time>
					</trkpt>
					<trkpt lat="42.924800" lon="11.657090">
						<ele>1021</ele>
						<time>2026-05-04T18:42:42Z</time>
					</trkpt>
					<trkpt lat="42.924880" lon="11.657090">
						<ele>1020</ele>
						<time>2026-05-04T18:42:43Z</time>
					</trkpt>
					<trkpt lat="42.924960" lon="11.657050">
						<ele>1018</ele>
						<time>2026-05-04T18:42:45Z</time>
					</trkpt>
					<trkpt lat="42.925150" lon="11.656920">
						<ele>1015</ele>
						<time>2026-05-04T18:42:49Z</time>
					</trkpt>
					<trkpt lat="42.925530" lon="11.656600">
						<ele>1009</ele>
						<time>2026-05-04T18:42:57Z</time>
					</trkpt>
					<trkpt lat="42.926190" lon="11.655960">
						<ele>999</ele>
						<time>2026-05-04T18:43:11Z</time>
					</trkpt>
					<trkpt lat="42.926280" lon="11.655840">
						<ele>998</ele>
						<time>2026-05-04T18:43:13Z</time>
					</trkpt>
					<trkpt lat="42.926340" lon="11.655660">
						<ele>995</ele>
						<time>2026-05-04T18:43:16Z</time>
					</trkpt>
					<trkpt lat="42.926410" lon="11.655360">
						<ele>991</ele>
						<time>2026-05-04T18:43:20Z</time>
					</trkpt>
					<trkpt lat="42.926460" lon="11.655180">
						<ele>989</ele>
						<time>2026-05-04T18:43:22Z</time>
					</trkpt>
					<trkpt lat="42.926480" lon="11.655150">
						<ele>988</ele>
						<time>2026-05-04T18:43:23Z</time>
					</trkpt>
					<trkpt lat="42.926550" lon="11.655000">
						<ele>986</ele>
						<time>2026-05-04T18:43:25Z</time>
					</trkpt>
					<trkpt lat="42.926890" lon="11.654450">
						<ele>978</ele>
						<time>2026-05-04T18:43:35Z</time>
					</trkpt>
					<trkpt lat="42.927150" lon="11.653980">
						<ele>971</ele>
						<time>2026-05-04T18:43:42Z</time>
					</trkpt>
					<trkpt lat="42.927310" lon="11.653730">
						<ele>969</ele>
						<time>2026-05-04T18:43:47Z</time>
					</trkpt>
					<trkpt lat="42.927410" lon="11.653520">
						<ele>968</ele>
						<time>2026-05-04T18:43:50Z</time>
					</trkpt>
					<trkpt lat="42.927440" lon="11.653420">
						<ele>967</ele>
						<time>2026-05-04T18:43:51Z</time>
					</trkpt>
					<trkpt lat="42.927410" lon="11.653310">
						<ele>967</ele>
						<time>2026-05-04T18:43:53Z</time>
					</trkpt>
					<trkpt lat="42.927330" lon="11.653180">
						<ele>966</ele>
						<time>2026-05-04T18:43:55Z</time>
					</trkpt>
					<trkpt lat="42.927300" lon="11.653110">
						<ele>965</ele>
						<time>2026-05-04T18:43:56Z</time>
					</trkpt>
					<trkpt lat="42.927290" lon="11.653050">
						<ele>965</ele>
						<time>2026-05-04T18:43:57Z</time>
					</trkpt>
					<trkpt lat="42.927320" lon="11.652910">
						<ele>963</ele>
						<time>2026-05-04T18:43:59Z</time>
					</trkpt>
					<trkpt lat="42.927360" lon="11.652860">
						<ele>963</ele>
						<time>2026-05-04T18:44:00Z</time>
					</trkpt>
					<trkpt lat="42.927430" lon="11.652820">
						<ele>963</ele>
						<time>2026-05-04T18:44:01Z</time>
					</trkpt>
					<trkpt lat="42.927570" lon="11.652790">
						<ele>962</ele>
						<time>2026-05-04T18:44:04Z</time>
					</trkpt>
					<trkpt lat="42.927620" lon="11.652770">
						<ele>960</ele>
						<time>2026-05-04T18:44:05Z</time>
					</trkpt>
					<trkpt lat="42.927660" lon="11.652710">
						<ele>959</ele>
						<time>2026-05-04T18:44:06Z</time>
					</trkpt>
					<trkpt lat="42.927680" lon="11.652630">
						<ele>958</ele>
						<time>2026-05-04T18:44:07Z</time>
					</trkpt>
					<trkpt lat="42.927680" lon="11.652470">
						<ele>957</ele>
						<time>2026-05-04T18:44:09Z</time>
					</trkpt>
					<trkpt lat="42.927650" lon="11.652330">
						<ele>956</ele>
						<time>2026-05-04T18:44:11Z</time>
					</trkpt>
					<trkpt lat="42.927640" lon="11.652190">
						<ele>955</ele>
						<time>2026-05-04T18:44:13Z</time>
					</trkpt>
					<trkpt lat="42.927630" lon="11.652070">
						<ele>954</ele>
						<time>2026-05-04T18:44:14Z</time>
					</trkpt>
					<trkpt lat="42.927680" lon="11.651810">
						<ele>950</ele>
						<time>2026-05-04T18:44:18Z</time>
					</trkpt>
					<trkpt lat="42.927790" lon="11.651250">
						<ele>943</ele>
						<time>2026-05-04T18:44:25Z</time>
					</trkpt>
					<trkpt lat="42.927890" lon="11.650820">
						<ele>939</ele>
						<time>2026-05-04T18:44:31Z</time>
					</trkpt>
					<trkpt lat="42.928020" lon="11.650370">
						<ele>937</ele>
						<time>2026-05-04T18:44:37Z</time>
					</trkpt>
					<trkpt lat="42.928610" lon="11.648460">
						<ele>927</ele>
						<time>2026-05-04T18:45:04Z</time>
					</trkpt>
					<trkpt lat="42.928650" lon="11.648340">
						<ele>927</ele>
						<time>2026-05-04T18:45:06Z</time>
					</trkpt>
					<trkpt lat="42.928670" lon="11.648200">
						<ele>928</ele>
						<time>2026-05-04T18:45:08Z</time>
					</trkpt>
					<trkpt lat="42.928730" lon="11.647310">
						<ele>936</ele>
						<time>2026-05-04T18:45:20Z</time>
					</trkpt>
					<trkpt lat="42.928750" lon="11.647180">
						<ele>937</ele>
						<time>2026-05-04T18:45:21Z</time>
					</trkpt>
					<trkpt lat="42.928830" lon="11.646860">
						<ele>940</ele>
						<time>2026-05-04T18:45:26Z</time>
					</trkpt>
					<trkpt lat="42.928870" lon="11.646740">
						<ele>941</ele>
						<time>2026-05-04T18:45:27Z</time>
					</trkpt>
					<trkpt lat="42.928910" lon="11.646680">
						<ele>942</ele>
						<time>2026-05-04T18:45:29Z</time>
					</trkpt>
					<trkpt lat="42.928950" lon="11.646640">
						<ele>942</ele>
						<time>2026-05-04T18:45:29Z</time>
					</trkpt>
					<trkpt lat="42.929270" lon="11.646360">
						<ele>942</ele>
						<time>2026-05-04T18:45:36Z</time>
					</trkpt>
					<trkpt lat="42.929540" lon="11.646030">
						<ele>940</ele>
						<time>2026-05-04T18:45:43Z</time>
					</trkpt>
					<trkpt lat="42.929620" lon="11.645920">
						<ele>939</ele>
						<time>2026-05-04T18:45:45Z</time>
					</trkpt>
					<trkpt lat="42.929890" lon="11.645490">
						<ele>934</ele>
						<time>2026-05-04T18:45:52Z</time>
					</trkpt>
					<trkpt lat="42.930250" lon="11.645060">
						<ele>926</ele>
						<time>2026-05-04T18:46:01Z</time>
					</trkpt>
					<trkpt lat="42.930320" lon="11.644970">
						<ele>924</ele>
						<time>2026-05-04T18:46:02Z</time>
					</trkpt>
					<trkpt lat="42.930390" lon="11.644860">
						<ele>923</ele>
						<time>2026-05-04T18:46:04Z</time>
					</trkpt>
					<trkpt lat="42.930720" lon="11.644310">
						<ele>919</ele>
						<time>2026-05-04T18:46:13Z</time>
					</trkpt>
					<trkpt lat="42.931020" lon="11.643780">
						<ele>916</ele>
						<time>2026-05-04T18:46:22Z</time>
					</trkpt>
					<trkpt lat="42.931210" lon="11.643470">
						<ele>914</ele>
						<time>2026-05-04T18:46:27Z</time>
					</trkpt>
					<trkpt lat="42.931270" lon="11.643330">
						<ele>913</ele>
						<time>2026-05-04T18:46:30Z</time>
					</trkpt>
					<trkpt lat="42.931450" lon="11.642830">
						<ele>908</ele>
						<time>2026-05-04T18:46:37Z</time>
					</trkpt>
					<trkpt lat="42.931520" lon="11.642580">
						<ele>907</ele>
						<time>2026-05-04T18:46:40Z</time>
					</trkpt>
					<trkpt lat="42.931560" lon="11.642450">
						<ele>906</ele>
						<time>2026-05-04T18:46:42Z</time>
					</trkpt>
					<trkpt lat="42.931620" lon="11.642350">
						<ele>904</ele>
						<time>2026-05-04T18:46:44Z</time>
					</trkpt>
					<trkpt lat="42.931730" lon="11.642270">
						<ele>902</ele>
						<time>2026-05-04T18:46:46Z</time>
					</trkpt>
					<trkpt lat="42.931900" lon="11.642200">
						<ele>899</ele>
						<time>2026-05-04T18:46:49Z</time>
					</trkpt>
					<trkpt lat="42.931960" lon="11.642190">
						<ele>898</ele>
						<time>2026-05-04T18:46:50Z</time>
					</trkpt>
					<trkpt lat="42.932040" lon="11.642210">
						<ele>897</ele>
						<time>2026-05-04T18:46:52Z</time>
					</trkpt>
					<trkpt lat="42.932090" lon="11.642240">
						<ele>897</ele>
						<time>2026-05-04T18:46:53Z</time>
					</trkpt>
					<trkpt lat="42.932120" lon="11.642270">
						<ele>897</ele>
						<time>2026-05-04T18:46:53Z</time>
					</trkpt>
					<trkpt lat="42.932160" lon="11.642350">
						<ele>897</ele>
						<time>2026-05-04T18:46:55Z</time>
					</trkpt>
					<trkpt lat="42.932190" lon="11.642460">
						<ele>897</ele>
						<time>2026-05-04T18:46:56Z</time>
					</trkpt>
					<trkpt lat="42.932230" lon="11.642700">
						<ele>897</ele>
						<time>2026-05-04T18:46:59Z</time>
					</trkpt>
					<trkpt lat="42.932270" lon="11.642790">
						<ele>896</ele>
						<time>2026-05-04T18:47:01Z</time>
					</trkpt>
					<trkpt lat="42.932290" lon="11.642810">
						<ele>896</ele>
						<time>2026-05-04T18:47:01Z</time>
					</trkpt>
					<trkpt lat="42.932330" lon="11.642840">
						<ele>895</ele>
						<time>2026-05-04T18:47:02Z</time>
					</trkpt>
					<trkpt lat="42.932370" lon="11.642850">
						<ele>894</ele>
						<time>2026-05-04T18:47:03Z</time>
					</trkpt>
					<trkpt lat="42.932420" lon="11.642840">
						<ele>893</ele>
						<time>2026-05-04T18:47:04Z</time>
					</trkpt>
					<trkpt lat="42.932490" lon="11.642790">
						<ele>892</ele>
						<time>2026-05-04T18:47:05Z</time>
					</trkpt>
					<trkpt lat="42.932740" lon="11.642510">
						<ele>885</ele>
						<time>2026-05-04T18:47:11Z</time>
					</trkpt>
					<trkpt lat="42.932830" lon="11.642390">
						<ele>881</ele>
						<time>2026-05-04T18:47:13Z</time>
					</trkpt>
					<trkpt lat="42.932870" lon="11.642320">
						<ele>879</ele>
						<time>2026-05-04T18:47:14Z</time>
					</trkpt>
					<trkpt lat="42.932880" lon="11.642260">
						<ele>879</ele>
						<time>2026-05-04T18:47:15Z</time>
					</trkpt>
					<trkpt lat="42.932890" lon="11.642170">
						<ele>878</ele>
						<time>2026-05-04T18:47:16Z</time>
					</trkpt>
					<trkpt lat="42.932870" lon="11.641800">
						<ele>877</ele>
						<time>2026-05-04T18:47:21Z</time>
					</trkpt>
					<trkpt lat="42.932830" lon="11.641370">
						<ele>876</ele>
						<time>2026-05-04T18:47:27Z</time>
					</trkpt>
					<trkpt lat="42.932830" lon="11.641260">
						<ele>875</ele>
						<time>2026-05-04T18:47:28Z</time>
					</trkpt>
					<trkpt lat="42.932860" lon="11.640980">
						<ele>873</ele>
						<time>2026-05-04T18:47:32Z</time>
					</trkpt>
					<trkpt lat="42.932870" lon="11.640960">
						<ele>872</ele>
						<time>2026-05-04T18:47:32Z</time>
					</trkpt>
					<trkpt lat="42.932980" lon="11.640880">
						<ele>870</ele>
						<time>2026-05-04T18:47:34Z</time>
					</trkpt>
					<trkpt lat="42.933080" lon="11.640710">
						<ele>868</ele>
						<time>2026-05-04T18:47:37Z</time>
					</trkpt>
					<trkpt lat="42.933170" lon="11.640600">
						<ele>866</ele>
						<time>2026-05-04T18:47:39Z</time>
					</trkpt>
					<trkpt lat="42.933140" lon="11.640550">
						<ele>866</ele>
						<time>2026-05-04T18:47:40Z</time>
					</trkpt>
					<trkpt lat="42.933060" lon="11.640480">
						<ele>866</ele>
						<time>2026-05-04T18:47:42Z</time>
					</trkpt>
					<trkpt lat="42.932880" lon="11.640350">
						<ele>867</ele>
						<time>2026-05-04T18:47:45Z</time>
					</trkpt>
					<trkpt lat="42.932650" lon="11.640170">
						<ele>866</ele>
						<time>2026-05-04T18:47:50Z</time>
					</trkpt>
					<trkpt lat="42.932600" lon="11.640140">
						<ele>866</ele>
						<time>2026-05-04T18:47:51Z</time>
					</trkpt>
					<trkpt lat="42.932530" lon="11.640140">
						<ele>866</ele>
						<time>2026-05-04T18:47:52Z</time>
					</trkpt>
					<trkpt lat="42.932330" lon="11.640170">
						<ele>865</ele>
						<time>2026-05-04T18:47:56Z</time>
					</trkpt>
					<trkpt lat="42.932280" lon="11.640190">
						<ele>865</ele>
						<time>2026-05-04T18:47:57Z</time>
					</trkpt>
					<trkpt lat="42.932240" lon="11.640220">
						<ele>866</ele>
						<time>2026-05-04T18:47:58Z</time>
					</trkpt>
					<trkpt lat="42.931950" lon="11.640510">
						<ele>870</ele>
						<time>2026-05-04T18:48:04Z</time>
					</trkpt>
					<trkpt lat="42.931670" lon="11.640570">
						<ele>870</ele>
						<time>2026-05-04T18:48:09Z</time>
					</trkpt>
					<trkpt lat="42.931400" lon="11.640580">
						<ele>870</ele>
						<time>2026-05-04T18:48:14Z</time>
					</trkpt>
					<trkpt lat="42.931140" lon="11.640530">
						<ele>870</ele>
						<time>2026-05-04T18:48:19Z</time>
					</trkpt>
					<trkpt lat="42.930920" lon="11.640600">
						<ele>870</ele>
						<time>2026-05-04T18:48:23Z</time>
					</trkpt>
					<trkpt lat="42.930580" lon="11.640900">
						<ele>877</ele>
						<time>2026-05-04T18:48:30Z</time>
					</trkpt>
					<trkpt lat="42.930490" lon="11.640900">
						<ele>878</ele>
						<time>2026-05-04T18:48:31Z</time>
					</trkpt>
					<trkpt lat="42.930410" lon="11.640730">
						<ele>879</ele>
						<time>2026-05-04T18:48:34Z</time>
					</trkpt>
					<trkpt lat="42.930430" lon="11.640630">
						<ele>879</ele>
						<time>2026-05-04T18:48:35Z</time>
					</trkpt>
					<trkpt lat="42.930470" lon="11.640540">
						<ele>879</ele>
						<time>2026-05-04T18:48:37Z</time>
					</trkpt>
					<trkpt lat="42.930580" lon="11.640360">
						<ele>876</ele>
						<time>2026-05-04T18:48:40Z</time>
					</trkpt>
					<trkpt lat="42.930620" lon="11.640140">
						<ele>875</ele>
						<time>2026-05-04T18:48:43Z</time>
					</trkpt>
					<trkpt lat="42.930760" lon="11.639320">
						<ele>876</ele>
						<time>2026-05-04T18:48:54Z</time>
					</trkpt>
					<trkpt lat="42.930830" lon="11.639120">
						<ele>877</ele>
						<time>2026-05-04T18:48:57Z</time>
					</trkpt>
					<trkpt lat="42.931150" lon="11.638640">
						<ele>880</ele>
						<time>2026-05-04T18:49:05Z</time>
					</trkpt>
					<trkpt lat="42.931210" lon="11.638420">
						<ele>882</ele>
						<time>2026-05-04T18:49:08Z</time>
					</trkpt>
					<trkpt lat="42.931200" lon="11.638240">
						<ele>883</ele>
						<time>2026-05-04T18:49:10Z</time>
					</trkpt>
					<trkpt lat="42.931120" lon="11.638090">
						<ele>883</ele>
						<time>2026-05-04T18:49:13Z</time>
					</trkpt>
					<trkpt lat="42.931060" lon="11.638050">
						<ele>883</ele>
						<time>2026-05-04T18:49:14Z</time>
					</trkpt>
					<trkpt lat="42.930990" lon="11.638010">
						<ele>883</ele>
						<time>2026-05-04T18:49:15Z</time>
					</trkpt>
					<trkpt lat="42.930470" lon="11.637950">
						<ele>886</ele>
						<time>2026-05-04T18:49:25Z</time>
					</trkpt>
					<trkpt lat="42.929970" lon="11.637950">
						<ele>890</ele>
						<time>2026-05-04T18:49:34Z</time>
					</trkpt>
					<trkpt lat="42.929520" lon="11.637980">
						<ele>893</ele>
						<time>2026-05-04T18:49:42Z</time>
					</trkpt>
					<trkpt lat="42.929200" lon="11.638040">
						<ele>896</ele>
						<time>2026-05-04T18:49:47Z</time>
					</trkpt>
					<trkpt lat="42.928920" lon="11.638200">
						<ele>900</ele>
						<time>2026-05-04T18:49:53Z</time>
					</trkpt>
					<trkpt lat="42.928230" lon="11.638570">
						<ele>909</ele>
						<time>2026-05-04T18:50:06Z</time>
					</trkpt>
					<trkpt lat="42.927730" lon="11.638790">
						<ele>913</ele>
						<time>2026-05-04T18:50:15Z</time>
					</trkpt>
					<trkpt lat="42.927400" lon="11.638970">
						<ele>915</ele>
						<time>2026-05-04T18:50:22Z</time>
					</trkpt>
					<trkpt lat="42.926930" lon="11.639080">
						<ele>916</ele>
						<time>2026-05-04T18:50:30Z</time>
					</trkpt>
					<trkpt lat="42.926750" lon="11.639080">
						<ele>915</ele>
						<time>2026-05-04T18:50:33Z</time>
					</trkpt>
					<trkpt lat="42.926670" lon="11.639030">
						<ele>914</ele>
						<time>2026-05-04T18:50:35Z</time>
					</trkpt>
					<trkpt lat="42.926600" lon="11.638950">
						<ele>914</ele>
						<time>2026-05-04T18:50:37Z</time>
					</trkpt>
					<trkpt lat="42.926440" lon="11.638760">
						<ele>914</ele>
						<time>2026-05-04T18:50:40Z</time>
					</trkpt>
					<trkpt lat="42.925890" lon="11.637990">
						<ele>913</ele>
						<time>2026-05-04T18:50:54Z</time>
					</trkpt>
					<trkpt lat="42.925710" lon="11.637880">
						<ele>915</ele>
						<time>2026-05-04T18:50:58Z</time>
					</trkpt>
					<trkpt lat="42.925340" lon="11.637680">
						<ele>922</ele>
						<time>2026-05-04T18:51:05Z</time>
					</trkpt>
					<trkpt lat="42.925180" lon="11.637410">
						<ele>923</ele>
						<time>2026-05-04T18:51:09Z</time>
					</trkpt>
					<trkpt lat="42.925120" lon="11.636980">
						<ele>921</ele>
						<time>2026-05-04T18:51:15Z</time>
					</trkpt>
					<trkpt lat="42.925190" lon="11.636700">
						<ele>917</ele>
						<time>2026-05-04T18:51:19Z</time>
					</trkpt>
					<trkpt lat="42.925340" lon="11.636470">
						<ele>912</ele>
						<time>2026-05-04T18:51:23Z</time>
					</trkpt>
					<trkpt lat="42.925810" lon="11.635950">
						<ele>900</ele>
						<time>2026-05-04T18:51:34Z</time>
					</trkpt>
					<trkpt lat="42.925810" lon="11.635480">
						<ele>898</ele>
						<time>2026-05-04T18:51:40Z</time>
					</trkpt>
					<trkpt lat="42.925610" lon="11.635250">
						<ele>900</ele>
						<time>2026-05-04T18:51:45Z</time>
					</trkpt>
					<trkpt lat="42.925310" lon="11.635140">
						<ele>904</ele>
						<time>2026-05-04T18:51:50Z</time>
					</trkpt>
					<trkpt lat="42.924900" lon="11.634750">
						<ele>907</ele>
						<time>2026-05-04T18:51:59Z</time>
					</trkpt>
					<trkpt lat="42.924880" lon="11.634400">
						<ele>902</ele>
						<time>2026-05-04T18:52:04Z</time>
					</trkpt>
					<trkpt lat="42.924970" lon="11.633940">
						<ele>895</ele>
						<time>2026-05-04T18:52:10Z</time>
					</trkpt>
					<trkpt lat="42.924980" lon="11.633770">
						<ele>894</ele>
						<time>2026-05-04T18:52:12Z</time>
					</trkpt>
					<trkpt lat="42.924960" lon="11.633620">
						<ele>894</ele>
						<time>2026-05-04T18:52:14Z</time>
					</trkpt>
					<trkpt lat="42.924680" lon="11.633150">
						<ele>897</ele>
						<time>2026-05-04T18:52:22Z</time>
					</trkpt>
					<trkpt lat="42.924710" lon="11.632820">
						<ele>896</ele>
						<time>2026-05-04T18:52:26Z</time>
					</trkpt>
					<trkpt lat="42.924830" lon="11.632260">
						<ele>892</ele>
						<time>2026-05-04T18:52:34Z</time>
					</trkpt>
					<trkpt lat="42.924730" lon="11.631280">
						<ele>892</ele>
						<time>2026-05-04T18:52:47Z</time>
					</trkpt>
					<trkpt lat="42.924670" lon="11.630680">
						<ele>892</ele>
						<time>2026-05-04T18:52:55Z</time>
					</trkpt>
					<trkpt lat="42.924670" lon="11.630540">
						<ele>892</ele>
						<time>2026-05-04T18:52:56Z</time>
					</trkpt>
					<trkpt lat="42.924700" lon="11.630410">
						<ele>891</ele>
						<time>2026-05-04T18:52:58Z</time>
					</trkpt>
					<trkpt lat="42.924750" lon="11.630250">
						<ele>890</ele>
						<time>2026-05-04T18:53:00Z</time>
					</trkpt>
					<trkpt lat="42.924840" lon="11.630110">
						<ele>888</ele>
						<time>2026-05-04T18:53:03Z</time>
					</trkpt>
					<trkpt lat="42.924930" lon="11.630020">
						<ele>886</ele>
						<time>2026-05-04T18:53:05Z</time>
					</trkpt>
					<trkpt lat="42.925060" lon="11.629940">
						<ele>884</ele>
						<time>2026-05-04T18:53:07Z</time>
					</trkpt>
					<trkpt lat="42.925290" lon="11.629830">
						<ele>881</ele>
						<time>2026-05-04T18:53:12Z</time>
					</trkpt>
					<trkpt lat="42.925390" lon="11.629750">
						<ele>880</ele>
						<time>2026-05-04T18:53:14Z</time>
					</trkpt>
					<trkpt lat="42.925550" lon="11.629580">
						<ele>878</ele>
						<time>2026-05-04T18:53:17Z</time>
					</trkpt>
					<trkpt lat="42.925760" lon="11.629320">
						<ele>875</ele>
						<time>2026-05-04T18:53:22Z</time>
					</trkpt>
					<trkpt lat="42.926420" lon="11.628470">
						<ele>874</ele>
						<time>2026-05-04T18:53:39Z</time>
					</trkpt>
					<trkpt lat="42.926530" lon="11.628360">
						<ele>874</ele>
						<time>2026-05-04T18:53:41Z</time>
					</trkpt>
					<trkpt lat="42.926650" lon="11.628250">
						<ele>875</ele>
						<time>2026-05-04T18:53:44Z</time>
					</trkpt>
					<trkpt lat="42.926780" lon="11.628150">
						<ele>876</ele>
						<time>2026-05-04T18:53:46Z</time>
					</trkpt>
					<trkpt lat="42.926910" lon="11.628060">
						<ele>877</ele>
						<time>2026-05-04T18:53:49Z</time>
					</trkpt>
					<trkpt lat="42.927090" lon="11.627980">
						<ele>877</ele>
						<time>2026-05-04T18:53:52Z</time>
					</trkpt>
					<trkpt lat="42.927840" lon="11.627650">
						<ele>874</ele>
						<time>2026-05-04T18:54:06Z</time>
					</trkpt>
					<trkpt lat="42.928240" lon="11.627460">
						<ele>872</ele>
						<time>2026-05-04T18:54:14Z</time>
					</trkpt>
					<trkpt lat="42.928380" lon="11.627350">
						<ele>871</ele>
						<time>2026-05-04T18:54:17Z</time>
					</trkpt>
					<trkpt lat="42.928580" lon="11.627200">
						<ele>871</ele>
						<time>2026-05-04T18:54:21Z</time>
					</trkpt>
					<trkpt lat="42.928720" lon="11.627070">
						<ele>870</ele>
						<time>2026-05-04T18:54:24Z</time>
					</trkpt>
					<trkpt lat="42.929100" lon="11.626710">
						<ele>869</ele>
						<time>2026-05-04T18:54:32Z</time>
					</trkpt>
					<trkpt lat="42.929290" lon="11.626510">
						<ele>869</ele>
						<time>2026-05-04T18:54:36Z</time>
					</trkpt>
					<trkpt lat="42.929720" lon="11.625940">
						<ele>867</ele>
						<time>2026-05-04T18:54:47Z</time>
					</trkpt>
					<trkpt lat="42.929790" lon="11.625810">
						<ele>867</ele>
						<time>2026-05-04T18:54:49Z</time>
					</trkpt>
					<trkpt lat="42.929850" lon="11.625670">
						<ele>867</ele>
						<time>2026-05-04T18:54:51Z</time>
					</trkpt>
					<trkpt lat="42.929910" lon="11.625490">
						<ele>867</ele>
						<time>2026-05-04T18:54:54Z</time>
					</trkpt>
					<trkpt lat="42.929930" lon="11.625330">
						<ele>868</ele>
						<time>2026-05-04T18:54:56Z</time>
					</trkpt>
					<trkpt lat="42.929950" lon="11.625190">
						<ele>868</ele>
						<time>2026-05-04T18:54:58Z</time>
					</trkpt>
					<trkpt lat="42.929940" lon="11.624980">
						<ele>870</ele>
						<time>2026-05-04T18:55:00Z</time>
					</trkpt>
					<trkpt lat="42.929920" lon="11.624800">
						<ele>871</ele>
						<time>2026-05-04T18:55:03Z</time>
					</trkpt>
					<trkpt lat="42.929840" lon="11.624520">
						<ele>873</ele>
						<time>2026-05-04T18:55:07Z</time>
					</trkpt>
					<trkpt lat="42.929780" lon="11.624370">
						<ele>875</ele>
						<time>2026-05-04T18:55:09Z</time>
					</trkpt>
					<trkpt lat="42.929590" lon="11.624010">
						<ele>879</ele>
						<time>2026-05-04T18:55:15Z</time>
					</trkpt>
					<trkpt lat="42.929540" lon="11.623860">
						<ele>880</ele>
						<time>2026-05-04T18:55:17Z</time>
					</trkpt>
					<trkpt lat="42.929520" lon="11.623690">
						<ele>881</ele>
						<time>2026-05-04T18:55:19Z</time>
					</trkpt>
					<trkpt lat="42.929510" lon="11.623530">
						<ele>881</ele>
						<time>2026-05-04T18:55:21Z</time>
					</trkpt>
					<trkpt lat="42.929530" lon="11.623380">
						<ele>881</ele>
						<time>2026-05-04T18:55:23Z</time>
					</trkpt>
					<trkpt lat="42.929670" lon="11.622850">
						<ele>875</ele>
						<time>2026-05-04T18:55:30Z</time>
					</trkpt>
					<trkpt lat="42.929810" lon="11.622430">
						<ele>871</ele>
						<time>2026-05-04T18:55:36Z</time>
					</trkpt>
					<trkpt lat="42.929800" lon="11.622250">
						<ele>868</ele>
						<time>2026-05-04T18:55:39Z</time>
					</trkpt>
					<trkpt lat="42.929710" lon="11.622180">
						<ele>867</ele>
						<time>2026-05-04T18:55:41Z</time>
					</trkpt>
					<trkpt lat="42.928250" lon="11.622200">
						<ele>871</ele>
						<time>2026-05-04T18:56:07Z</time>
					</trkpt>
					<trkpt lat="42.928060" lon="11.622050">
						<ele>870</ele>
						<time>2026-05-04T18:56:11Z</time>
					</trkpt>
					<trkpt lat="42.927960" lon="11.621810">
						<ele>868</ele>
						<time>2026-05-04T18:56:14Z</time>
					</trkpt>
					<trkpt lat="42.928010" lon="11.620970">
						<ele>862</ele>
						<time>2026-05-04T18:56:25Z</time>
					</trkpt>
					<trkpt lat="42.927990" lon="11.620560">
						<ele>859</ele>
						<time>2026-05-04T18:56:30Z</time>
					</trkpt>
					<trkpt lat="42.927770" lon="11.620290">
						<ele>859</ele>
						<time>2026-05-04T18:56:36Z</time>
					</trkpt>
					<trkpt lat="42.927570" lon="11.620220">
						<ele>859</ele>
						<time>2026-05-04T18:56:39Z</time>
					</trkpt>
					<trkpt lat="42.927470" lon="11.620220">
						<ele>859</ele>
						<time>2026-05-04T18:56:41Z</time>
					</trkpt>
					<trkpt lat="42.927280" lon="11.620260">
						<ele>859</ele>
						<time>2026-05-04T18:56:45Z</time>
					</trkpt>
					<trkpt lat="42.926920" lon="11.620300">
						<ele>858</ele>
						<time>2026-05-04T18:56:51Z</time>
					</trkpt>
					<trkpt lat="42.926290" lon="11.620240">
						<ele>858</ele>
						<time>2026-05-04T18:57:02Z</time>
					</trkpt>
					<trkpt lat="42.925980" lon="11.620190">
						<ele>858</ele>
						<time>2026-05-04T18:57:08Z</time>
					</trkpt>
					<trkpt lat="42.925690" lon="11.619990">
						<ele>858</ele>
						<time>2026-05-04T18:57:14Z</time>
					</trkpt>
					<trkpt lat="42.925650" lon="11.619670">
						<ele>858</ele>
						<time>2026-05-04T18:57:18Z</time>
					</trkpt>
					<trkpt lat="42.925690" lon="11.619550">
						<ele>857</ele>
						<time>2026-05-04T18:57:20Z</time>
					</trkpt>
					<trkpt lat="42.925710" lon="11.619480">
						<ele>857</ele>
						<time>2026-05-04T18:57:21Z</time>
					</trkpt>
					<trkpt lat="42.925810" lon="11.619050">
						<ele>855</ele>
						<time>2026-05-04T18:57:26Z</time>
					</trkpt>
					<trkpt lat="42.925810" lon="11.618700">
						<ele>855</ele>
						<time>2026-05-04T18:57:31Z</time>
					</trkpt>
					<trkpt lat="42.925850" lon="11.618240">
						<ele>855</ele>
						<time>2026-05-04T18:57:37Z</time>
					</trkpt>
					<trkpt lat="42.926030" lon="11.618010">
						<ele>853</ele>
						<time>2026-05-04T18:57:41Z</time>
					</trkpt>
					<trkpt lat="42.926330" lon="11.617570">
						<ele>845</ele>
						<time>2026-05-04T18:57:49Z</time>
					</trkpt>
					<trkpt lat="42.926340" lon="11.617330">
						<ele>843</ele>
						<time>2026-05-04T18:57:52Z</time>
					</trkpt>
					<trkpt lat="42.926130" lon="11.616910">
						<ele>844</ele>
						<time>2026-05-04T18:57:59Z</time>
					</trkpt>
					<trkpt lat="42.925820" lon="11.616410">
						<ele>843</ele>
						<time>2026-05-04T18:58:07Z</time>
					</trkpt>
					<trkpt lat="42.925370" lon="11.616150">
						<ele>841</ele>
						<time>2026-05-04T18:58:16Z</time>
					</trkpt>
					<trkpt lat="42.924400" lon="11.615940">
						<ele>849</ele>
						<time>2026-05-04T18:58:34Z</time>
					</trkpt>
					<trkpt lat="42.924300" lon="11.615880">
						<ele>848</ele>
						<time>2026-05-04T18:58:36Z</time>
					</trkpt>
					<trkpt lat="42.924240" lon="11.615820">
						<ele>848</ele>
						<time>2026-05-04T18:58:37Z</time>
					</trkpt>
					<trkpt lat="42.924170" lon="11.615750">
						<ele>848</ele>
						<time>2026-05-04T18:58:38Z</time>
					</trkpt>
					<trkpt lat="42.924130" lon="11.615640">
						<ele>848</ele>
						<time>2026-05-04T18:58:40Z</time>
					</trkpt>
					<trkpt lat="42.924100" lon="11.615520">
						<ele>847</ele>
						<time>2026-05-04T18:58:42Z</time>
					</trkpt>
					<trkpt lat="42.924080" lon="11.615370">
						<ele>846</ele>
						<time>2026-05-04T18:58:44Z</time>
					</trkpt>
					<trkpt lat="42.923980" lon="11.613930">
						<ele>842</ele>
						<time>2026-05-04T18:59:03Z</time>
					</trkpt>
					<trkpt lat="42.923920" lon="11.613090">
						<ele>842</ele>
						<time>2026-05-04T18:59:14Z</time>
					</trkpt>
					<trkpt lat="42.923880" lon="11.612820">
						<ele>842</ele>
						<time>2026-05-04T18:59:17Z</time>
					</trkpt>
					<trkpt lat="42.923820" lon="11.612560">
						<ele>842</ele>
						<time>2026-05-04T18:59:21Z</time>
					</trkpt>
					<trkpt lat="42.923750" lon="11.612320">
						<ele>842</ele>
						<time>2026-05-04T18:59:24Z</time>
					</trkpt>
					<trkpt lat="42.923660" lon="11.612050">
						<ele>843</ele>
						<time>2026-05-04T18:59:28Z</time>
					</trkpt>
					<trkpt lat="42.923320" lon="11.611140">
						<ele>846</ele>
						<time>2026-05-04T18:59:41Z</time>
					</trkpt>
					<trkpt lat="42.922930" lon="11.609720">
						<ele>850</ele>
						<time>2026-05-04T19:00:01Z</time>
					</trkpt>
					<trkpt lat="42.922830" lon="11.609340">
						<ele>852</ele>
						<time>2026-05-04T19:00:06Z</time>
					</trkpt>
					<trkpt lat="42.922790" lon="11.609120">
						<ele>852</ele>
						<time>2026-05-04T19:00:09Z</time>
					</trkpt>
					<trkpt lat="42.922770" lon="11.608900">
						<ele>853</ele>
						<time>2026-05-04T19:00:12Z</time>
					</trkpt>
					<trkpt lat="42.922780" lon="11.608690">
						<ele>853</ele>
						<time>2026-05-04T19:00:15Z</time>
					</trkpt>
					<trkpt lat="42.922800" lon="11.608430">
						<ele>852</ele>
						<time>2026-05-04T19:00:18Z</time>
					</trkpt>
					<trkpt lat="42.922830" lon="11.608290">
						<ele>853</ele>
						<time>2026-05-04T19:00:20Z</time>
					</trkpt>
					<trkpt lat="42.922890" lon="11.608130">
						<ele>855</ele>
						<time>2026-05-04T19:00:22Z</time>
					</trkpt>
					<trkpt lat="42.922950" lon="11.607990">
						<ele>857</ele>
						<time>2026-05-04T19:00:25Z</time>
					</trkpt>
					<trkpt lat="42.923030" lon="11.607920">
						<ele>857</ele>
						<time>2026-05-04T19:00:26Z</time>
					</trkpt>
					<trkpt lat="42.923220" lon="11.607800">
						<ele>856</ele>
						<time>2026-05-04T19:00:30Z</time>
					</trkpt>
					<trkpt lat="42.923650" lon="11.607670">
						<ele>851</ele>
						<time>2026-05-04T19:00:38Z</time>
					</trkpt>
					<trkpt lat="42.923870" lon="11.607360">
						<ele>852</ele>
						<time>2026-05-04T19:00:43Z</time>
					</trkpt>
					<trkpt lat="42.923900" lon="11.606880">
						<ele>858</ele>
						<time>2026-05-04T19:00:50Z</time>
					</trkpt>
					<trkpt lat="42.924090" lon="11.606430">
						<ele>861</ele>
						<time>2026-05-04T19:00:57Z</time>
					</trkpt>
					<trkpt lat="42.924470" lon="11.606190">
						<ele>860</ele>
						<time>2026-05-04T19:01:04Z</time>
					</trkpt>
					<trkpt lat="42.925310" lon="11.606260">
						<ele>852</ele>
						<time>2026-05-04T19:01:19Z</time>
					</trkpt>
					<trkpt lat="42.926020" lon="11.606340">
						<ele>849</ele>
						<time>2026-05-04T19:01:32Z</time>
					</trkpt>
					<trkpt lat="42.926440" lon="11.606620">
						<ele>844</ele>
						<time>2026-05-04T19:01:40Z</time>
					</trkpt>
					<trkpt lat="42.926810" lon="11.606890">
						<ele>840</ele>
						<time>2026-05-04T19:01:47Z</time>
					</trkpt>
					<trkpt lat="42.927030" lon="11.607090">
						<ele>836</ele>
						<time>2026-05-04T19:01:52Z</time>
					</trkpt>
					<trkpt lat="42.927460" lon="11.607210">
						<ele>836</ele>
						<time>2026-05-04T19:02:00Z</time>
					</trkpt>
					<trkpt lat="42.927900" lon="11.607220">
						<ele>835</ele>
						<time>2026-05-04T19:02:08Z</time>
					</trkpt>
					<trkpt lat="42.928360" lon="11.607600">
						<ele>829</ele>
						<time>2026-05-04T19:02:17Z</time>
					</trkpt>
					<trkpt lat="42.928870" lon="11.608120">
						<ele>823</ele>
						<time>2026-05-04T19:02:29Z</time>
					</trkpt>
					<trkpt lat="42.929310" lon="11.608430">
						<ele>816</ele>
						<time>2026-05-04T19:02:37Z</time>
					</trkpt>
					<trkpt lat="42.929600" lon="11.608420">
						<ele>813</ele>
						<time>2026-05-04T19:02:43Z</time>
					</trkpt>
					<trkpt lat="42.929770" lon="11.608240">
						<ele>813</ele>
						<time>2026-05-04T19:02:46Z</time>
					</trkpt>
					<trkpt lat="42.930090" lon="11.607190">
						<ele>809</ele>
						<time>2026-05-04T19:03:01Z</time>
					</trkpt>
					<trkpt lat="42.930480" lon="11.606040">
						<ele>802</ele>
						<time>2026-05-04T19:03:18Z</time>
					</trkpt>
					<trkpt lat="42.930650" lon="11.605490">
						<ele>799</ele>
						<time>2026-05-04T19:03:26Z</time>
					</trkpt>
					<trkpt lat="42.930970" lon="11.604780">
						<ele>794</ele>
						<time>2026-05-04T19:03:36Z</time>
					</trkpt>
					<trkpt lat="42.931870" lon="11.603940">
						<ele>783</ele>
						<time>2026-05-04T19:03:56Z</time>
					</trkpt>
					<trkpt lat="42.932660" lon="11.603370">
						<ele>777</ele>
						<time>2026-05-04T19:04:12Z</time>
					</trkpt>
					<trkpt lat="42.933220" lon="11.603140">
						<ele>772</ele>
						<time>2026-05-04T19:04:22Z</time>
					</trkpt>
					<trkpt lat="42.933450" lon="11.602820">
						<ele>769</ele>
						<time>2026-05-04T19:04:28Z</time>
					</trkpt>
					<trkpt lat="42.933550" lon="11.602440">
						<ele>767</ele>
						<time>2026-05-04T19:04:33Z</time>
					</trkpt>
					<trkpt lat="42.933630" lon="11.601890">
						<ele>760</ele>
						<time>2026-05-04T19:04:41Z</time>
					</trkpt>
					<trkpt lat="42.933490" lon="11.601590">
						<ele>758</ele>
						<time>2026-05-04T19:04:45Z</time>
					</trkpt>
					<trkpt lat="42.933160" lon="11.601380">
						<ele>756</ele>
						<time>2026-05-04T19:04:52Z</time>
					</trkpt>
					<trkpt lat="42.932740" lon="11.600950">
						<ele>752</ele>
						<time>2026-05-04T19:05:01Z</time>
					</trkpt>
					<trkpt lat="42.932070" lon="11.600410">
						<ele>747</ele>
						<time>2026-05-04T19:05:15Z</time>
					</trkpt>
					<trkpt lat="42.931620" lon="11.600160">
						<ele>743</ele>
						<time>2026-05-04T19:05:23Z</time>
					</trkpt>
					<trkpt lat="42.931270" lon="11.599790">
						<ele>740</ele>
						<time>2026-05-04T19:05:31Z</time>
					</trkpt>
					<trkpt lat="42.930990" lon="11.599340">
						<ele>739</ele>
						<time>2026-05-04T19:05:39Z</time>
					</trkpt>
					<trkpt lat="42.930790" lon="11.598860">
						<ele>739</ele>
						<time>2026-05-04T19:05:46Z</time>
					</trkpt>
					<trkpt lat="42.930330" lon="11.597560">
						<ele>743</ele>
						<time>2026-05-04T19:06:05Z</time>
					</trkpt>
					<trkpt lat="42.930130" lon="11.597250">
						<ele>742</ele>
						<time>2026-05-04T19:06:10Z</time>
					</trkpt>
					<trkpt lat="42.929900" lon="11.597100">
						<ele>741</ele>
						<time>2026-05-04T19:06:15Z</time>
					</trkpt>
					<trkpt lat="42.929670" lon="11.597030">
						<ele>740</ele>
						<time>2026-05-04T19:06:19Z</time>
					</trkpt>
					<trkpt lat="42.929460" lon="11.596980">
						<ele>739</ele>
						<time>2026-05-04T19:06:23Z</time>
					</trkpt>
					<trkpt lat="42.929320" lon="11.596980">
						<ele>739</ele>
						<time>2026-05-04T19:06:25Z</time>
					</trkpt>
					<trkpt lat="42.929210" lon="11.597070">
						<ele>740</ele>
						<time>2026-05-04T19:06:28Z</time>
					</trkpt>
					<trkpt lat="42.929110" lon="11.597210">
						<ele>742</ele>
						<time>2026-05-04T19:06:30Z</time>
					</trkpt>
					<trkpt lat="42.928790" lon="11.597630">
						<ele>748</ele>
						<time>2026-05-04T19:06:38Z</time>
					</trkpt>
					<trkpt lat="42.928570" lon="11.597690">
						<ele>749</ele>
						<time>2026-05-04T19:06:42Z</time>
					</trkpt>
					<trkpt lat="42.928290" lon="11.597510">
						<ele>749</ele>
						<time>2026-05-04T19:06:48Z</time>
					</trkpt>
					<trkpt lat="42.928010" lon="11.597170">
						<ele>753</ele>
						<time>2026-05-04T19:06:54Z</time>
					</trkpt>
					<trkpt lat="42.927900" lon="11.596640">
						<ele>752</ele>
						<time>2026-05-04T19:07:01Z</time>
					</trkpt>
					<trkpt lat="42.927970" lon="11.596000">
						<ele>750</ele>
						<time>2026-05-04T19:07:10Z</time>
					</trkpt>
					<trkpt lat="42.927840" lon="11.595570">
						<ele>750</ele>
						<time>2026-05-04T19:07:16Z</time>
					</trkpt>
					<trkpt lat="42.927620" lon="11.595140">
						<ele>752</ele>
						<time>2026-05-04T19:07:23Z</time>
					</trkpt>
					<trkpt lat="42.926910" lon="11.594700">
						<ele>758</ele>
						<time>2026-05-04T19:07:37Z</time>
					</trkpt>
					<trkpt lat="42.926590" lon="11.594390">
						<ele>759</ele>
						<time>2026-05-04T19:07:44Z</time>
					</trkpt>
					<trkpt lat="42.925940" lon="11.593640">
						<ele>757</ele>
						<time>2026-05-04T19:07:59Z</time>
					</trkpt>
					<trkpt lat="42.925400" lon="11.593210">
						<ele>754</ele>
						<time>2026-05-04T19:08:10Z</time>
					</trkpt>
					<trkpt lat="42.923840" lon="11.591830">
						<ele>743</ele>
						<time>2026-05-04T19:08:43Z</time>
					</trkpt>
					<trkpt lat="42.923510" lon="11.591490">
						<ele>740</ele>
						<time>2026-05-04T19:08:50Z</time>
					</trkpt>
					<trkpt lat="42.923160" lon="11.590850">
						<ele>736</ele>
						<time>2026-05-04T19:09:01Z</time>
					</trkpt>
					<trkpt lat="42.922610" lon="11.590220">
						<ele>738</ele>
						<time>2026-05-04T19:09:14Z</time>
					</trkpt>
					<trkpt lat="42.922420" lon="11.589710">
						<ele>738</ele>
						<time>2026-05-04T19:09:21Z</time>
					</trkpt>
					<trkpt lat="42.922060" lon="11.589290">
						<ele>738</ele>
						<time>2026-05-04T19:09:29Z</time>
					</trkpt>
					<trkpt lat="42.921670" lon="11.588990">
						<ele>738</ele>
						<time>2026-05-04T19:09:37Z</time>
					</trkpt>
					<trkpt lat="42.921120" lon="11.589050">
						<ele>744</ele>
						<time>2026-05-04T19:09:47Z</time>
					</trkpt>
					<trkpt lat="42.921020" lon="11.589040">
						<ele>745</ele>
						<time>2026-05-04T19:09:49Z</time>
					</trkpt>
					<trkpt lat="42.920960" lon="11.589010">
						<ele>745</ele>
						<time>2026-05-04T19:09:50Z</time>
					</trkpt>
					<trkpt lat="42.920910" lon="11.588970">
						<ele>746</ele>
						<time>2026-05-04T19:09:51Z</time>
					</trkpt>
					<trkpt lat="42.920870" lon="11.588920">
						<ele>746</ele>
						<time>2026-05-04T19:09:52Z</time>
					</trkpt>
					<trkpt lat="42.920840" lon="11.588870">
						<ele>746</ele>
						<time>2026-05-04T19:09:53Z</time>
					</trkpt>
					<trkpt lat="42.920760" lon="11.588660">
						<ele>746</ele>
						<time>2026-05-04T19:09:56Z</time>
					</trkpt>
					<trkpt lat="42.920670" lon="11.588500">
						<ele>746</ele>
						<time>2026-05-04T19:09:59Z</time>
					</trkpt>
					<trkpt lat="42.920560" lon="11.588340">
						<ele>747</ele>
						<time>2026-05-04T19:10:02Z</time>
					</trkpt>
					<trkpt lat="42.920460" lon="11.588270">
						<ele>747</ele>
						<time>2026-05-04T19:10:04Z</time>
					</trkpt>
					<trkpt lat="42.920350" lon="11.588220">
						<ele>748</ele>
						<time>2026-05-04T19:10:06Z</time>
					</trkpt>
					<trkpt lat="42.919990" lon="11.588160">
						<ele>750</ele>
						<time>2026-05-04T19:10:12Z</time>
					</trkpt>
					<trkpt lat="42.919750" lon="11.588040">
						<ele>751</ele>
						<time>2026-05-04T19:10:17Z</time>
					</trkpt>
					<trkpt lat="42.919500" lon="11.587860">
						<ele>751</ele>
						<time>2026-05-04T19:10:22Z</time>
					</trkpt>
					<trkpt lat="42.919340" lon="11.587700">
						<ele>751</ele>
						<time>2026-05-04T19:10:25Z</time>
					</trkpt>
					<trkpt lat="42.919930" lon="11.587010">
						<ele>749</ele>
						<time>2026-05-04T19:10:39Z</time>
					</trkpt>
					<trkpt lat="42.920150" lon="11.586760">
						<ele>749</ele>
						<time>2026-05-04T19:10:44Z</time>
					</trkpt>
					<trkpt lat="42.920490" lon="11.586520">
						<ele>747</ele>
						<time>2026-05-04T19:10:51Z</time>
					</trkpt>
					<trkpt lat="42.920650" lon="11.586180">
						<ele>746</ele>
						<time>2026-05-04T19:10:56Z</time>
					</trkpt>
					<trkpt lat="42.920840" lon="11.585750">
						<ele>746</ele>
						<time>2026-05-04T19:11:03Z</time>
					</trkpt>
					<trkpt lat="42.920850" lon="11.585610">
						<ele>745</ele>
						<time>2026-05-04T19:11:05Z</time>
					</trkpt>
					<trkpt lat="42.920850" lon="11.585460">
						<ele>744</ele>
						<time>2026-05-04T19:11:06Z</time>
					</trkpt>
					<trkpt lat="42.920820" lon="11.585310">
						<ele>743</ele>
						<time>2026-05-04T19:11:08Z</time>
					</trkpt>
					<trkpt lat="42.920570" lon="11.584620">
						<ele>739</ele>
						<time>2026-05-04T19:11:19Z</time>
					</trkpt>
					<trkpt lat="42.920550" lon="11.584460">
						<ele>738</ele>
						<time>2026-05-04T19:11:21Z</time>
					</trkpt>
					<trkpt lat="42.920570" lon="11.584380">
						<ele>737</ele>
						<time>2026-05-04T19:11:22Z</time>
					</trkpt>
					<trkpt lat="42.920620" lon="11.584320">
						<ele>737</ele>
						<time>2026-05-04T19:11:23Z</time>
					</trkpt>
					<trkpt lat="42.920690" lon="11.584270">
						<ele>736</ele>
						<time>2026-05-04T19:11:24Z</time>
					</trkpt>
					<trkpt lat="42.921100" lon="11.584170">
						<ele>731</ele>
						<time>2026-05-04T19:11:32Z</time>
					</trkpt>
					<trkpt lat="42.921190" lon="11.584190">
						<ele>730</ele>
						<time>2026-05-04T19:11:33Z</time>
					</trkpt>
					<trkpt lat="42.921300" lon="11.584250">
						<ele>729</ele>
						<time>2026-05-04T19:11:35Z</time>
					</trkpt>
					<trkpt lat="42.921530" lon="11.584450">
						<ele>729</ele>
						<time>2026-05-04T19:11:40Z</time>
					</trkpt>
					<trkpt lat="42.921660" lon="11.584470">
						<ele>728</ele>
						<time>2026-05-04T19:11:43Z</time>
					</trkpt>
					<trkpt lat="42.922070" lon="11.584430">
						<ele>723</ele>
						<time>2026-05-04T19:11:50Z</time>
					</trkpt>
					<trkpt lat="42.922190" lon="11.584360">
						<ele>721</ele>
						<time>2026-05-04T19:11:52Z</time>
					</trkpt>
					<trkpt lat="42.922470" lon="11.583920">
						<ele>715</ele>
						<time>2026-05-04T19:12:00Z</time>
					</trkpt>
					<trkpt lat="42.922720" lon="11.583410">
						<ele>709</ele>
						<time>2026-05-04T19:12:08Z</time>
					</trkpt>
					<trkpt lat="42.922840" lon="11.583140">
						<ele>705</ele>
						<time>2026-05-04T19:12:12Z</time>
					</trkpt>
					<trkpt lat="42.922940" lon="11.583040">
						<ele>702</ele>
						<time>2026-05-04T19:12:14Z</time>
					</trkpt>
					<trkpt lat="42.923000" lon="11.583010">
						<ele>701</ele>
						<time>2026-05-04T19:12:15Z</time>
					</trkpt>
					<trkpt lat="42.923050" lon="11.583030">
						<ele>701</ele>
						<time>2026-05-04T19:12:16Z</time>
					</trkpt>
					<trkpt lat="42.923110" lon="11.583080">
						<ele>700</ele>
						<time>2026-05-04T19:12:18Z</time>
					</trkpt>
					<trkpt lat="42.923250" lon="11.583350">
						<ele>701</ele>
						<time>2026-05-04T19:12:22Z</time>
					</trkpt>
					<trkpt lat="42.923320" lon="11.583430">
						<ele>701</ele>
						<time>2026-05-04T19:12:23Z</time>
					</trkpt>
					<trkpt lat="42.923390" lon="11.583470">
						<ele>700</ele>
						<time>2026-05-04T19:12:25Z</time>
					</trkpt>
					<trkpt lat="42.923460" lon="11.583470">
						<ele>699</ele>
						<time>2026-05-04T19:12:26Z</time>
					</trkpt>
					<trkpt lat="42.923510" lon="11.583420">
						<ele>698</ele>
						<time>2026-05-04T19:12:27Z</time>
					</trkpt>
					<trkpt lat="42.923540" lon="11.583320">
						<ele>697</ele>
						<time>2026-05-04T19:12:29Z</time>
					</trkpt>
					<trkpt lat="42.923530" lon="11.583170">
						<ele>695</ele>
						<time>2026-05-04T19:12:31Z</time>
					</trkpt>
					<trkpt lat="42.923490" lon="11.582920">
						<ele>692</ele>
						<time>2026-05-04T19:12:34Z</time>
					</trkpt>
					<trkpt lat="42.923360" lon="11.582390">
						<ele>688</ele>
						<time>2026-05-04T19:12:41Z</time>
					</trkpt>
					<trkpt lat="42.923220" lon="11.581990">
						<ele>684</ele>
						<time>2026-05-04T19:12:47Z</time>
					</trkpt>
					<trkpt lat="42.923080" lon="11.581660">
						<ele>682</ele>
						<time>2026-05-04T19:12:52Z</time>
					</trkpt>
					<trkpt lat="42.922840" lon="11.581320">
						<ele>682</ele>
						<time>2026-05-04T19:12:58Z</time>
					</trkpt>
					<trkpt lat="42.922580" lon="11.581030">
						<ele>683</ele>
						<time>2026-05-04T19:13:04Z</time>
					</trkpt>
					<trkpt lat="42.922500" lon="11.580910">
						<ele>682</ele>
						<time>2026-05-04T19:13:06Z</time>
					</trkpt>
					<trkpt lat="42.922430" lon="11.580760">
						<ele>682</ele>
						<time>2026-05-04T19:13:08Z</time>
					</trkpt>
					<trkpt lat="42.922410" lon="11.580580">
						<ele>681</ele>
						<time>2026-05-04T19:13:11Z</time>
					</trkpt>
					<trkpt lat="42.922390" lon="11.580300">
						<ele>679</ele>
						<time>2026-05-04T19:13:14Z</time>
					</trkpt>
					<trkpt lat="42.922400" lon="11.580070">
						<ele>677</ele>
						<time>2026-05-04T19:13:17Z</time>
					</trkpt>
					<trkpt lat="42.922430" lon="11.579920">
						<ele>676</ele>
						<time>2026-05-04T19:13:19Z</time>
					</trkpt>
					<trkpt lat="42.922490" lon="11.579780">
						<ele>675</ele>
						<time>2026-05-04T19:13:22Z</time>
					</trkpt>
					<trkpt lat="42.922620" lon="11.579580">
						<ele>674</ele>
						<time>2026-05-04T19:13:25Z</time>
					</trkpt>
					<trkpt lat="42.922800" lon="11.579390">
						<ele>672</ele>
						<time>2026-05-04T19:13:29Z</time>
					</trkpt>
					<trkpt lat="42.922880" lon="11.579350">
						<ele>671</ele>
						<time>2026-05-04T19:13:31Z</time>
					</trkpt>
					<trkpt lat="42.923020" lon="11.579340">
						<ele>669</ele>
						<time>2026-05-04T19:13:33Z</time>
					</trkpt>
					<trkpt lat="42.923130" lon="11.579380">
						<ele>668</ele>
						<time>2026-05-04T19:13:35Z</time>
					</trkpt>
					<trkpt lat="42.923510" lon="11.579610">
						<ele>663</ele>
						<time>2026-05-04T19:13:43Z</time>
					</trkpt>
					<trkpt lat="42.923800" lon="11.579610">
						<ele>659</ele>
						<time>2026-05-04T19:13:48Z</time>
					</trkpt>
					<trkpt lat="42.924310" lon="11.579400">
						<ele>653</ele>
						<time>2026-05-04T19:13:57Z</time>
					</trkpt>
					<trkpt lat="42.924450" lon="11.579270">
						<ele>651</ele>
						<time>2026-05-04T19:14:00Z</time>
					</trkpt>
					<trkpt lat="42.924520" lon="11.579160">
						<ele>650</ele>
						<time>2026-05-04T19:14:02Z</time>
					</trkpt>
					<trkpt lat="42.924530" lon="11.579050">
						<ele>649</ele>
						<time>2026-05-04T19:14:04Z</time>
					</trkpt>
					<trkpt lat="42.924510" lon="11.578980">
						<ele>648</ele>
						<time>2026-05-04T19:14:05Z</time>
					</trkpt>
					<trkpt lat="42.924450" lon="11.578900">
						<ele>648</ele>
						<time>2026-05-04T19:14:06Z</time>
					</trkpt>
					<trkpt lat="42.924190" lon="11.578630">
						<ele>650</ele>
						<time>2026-05-04T19:14:12Z</time>
					</trkpt>
					<trkpt lat="42.923410" lon="11.577890">
						<ele>651</ele>
						<time>2026-05-04T19:14:29Z</time>
					</trkpt>
					<trkpt lat="42.922980" lon="11.577460">
						<ele>646</ele>
						<time>2026-05-04T19:14:38Z</time>
					</trkpt>
					<trkpt lat="42.922830" lon="11.577240">
						<ele>644</ele>
						<time>2026-05-04T19:14:42Z</time>
					</trkpt>
					<trkpt lat="42.922660" lon="11.576920">
						<ele>642</ele>
						<time>2026-05-04T19:14:47Z</time>
					</trkpt>
					<trkpt lat="42.922620" lon="11.576730">
						<ele>641</ele>
						<time>2026-05-04T19:14:50Z</time>
					</trkpt>
					<trkpt lat="42.922550" lon="11.576460">
						<ele>639</ele>
						<time>2026-05-04T19:14:54Z</time>
					</trkpt>
					<trkpt lat="42.922420" lon="11.576160">
						<ele>635</ele>
						<time>2026-05-04T19:14:58Z</time>
					</trkpt>
					<trkpt lat="42.922120" lon="11.575640">
						<ele>628</ele>
						<time>2026-05-04T19:15:07Z</time>
					</trkpt>
					<trkpt lat="42.921960" lon="11.575280">
						<ele>623</ele>
						<time>2026-05-04T19:15:12Z</time>
					</trkpt>
					<trkpt lat="42.921970" lon="11.575110">
						<ele>621</ele>
						<time>2026-05-04T19:15:14Z</time>
					</trkpt>
					<trkpt lat="42.922020" lon="11.575020">
						<ele>620</ele>
						<time>2026-05-04T19:15:16Z</time>
					</trkpt>
					<trkpt lat="42.922120" lon="11.574970">
						<ele>619</ele>
						<time>2026-05-04T19:15:18Z</time>
					</trkpt>
					<trkpt lat="42.922310" lon="11.574910">
						<ele>617</ele>
						<time>2026-05-04T19:15:21Z</time>
					</trkpt>
					<trkpt lat="42.922480" lon="11.574880">
						<ele>616</ele>
						<time>2026-05-04T19:15:24Z</time>
					</trkpt>
					<trkpt lat="42.922600" lon="11.574930">
						<ele>616</ele>
						<time>2026-05-04T19:15:27Z</time>
					</trkpt>
					<trkpt lat="42.922850" lon="11.575250">
						<ele>619</ele>
						<time>2026-05-04T19:15:33Z</time>
					</trkpt>
					<trkpt lat="42.923000" lon="11.575350">
						<ele>619</ele>
						<time>2026-05-04T19:15:36Z</time>
					</trkpt>
					<trkpt lat="42.923260" lon="11.575490">
						<ele>619</ele>
						<time>2026-05-04T19:15:41Z</time>
					</trkpt>
					<trkpt lat="42.923420" lon="11.575530">
						<ele>619</ele>
						<time>2026-05-04T19:15:44Z</time>
					</trkpt>
					<trkpt lat="42.923820" lon="11.575390">
						<ele>616</ele>
						<time>2026-05-04T19:15:51Z</time>
					</trkpt>
					<trkpt lat="42.924050" lon="11.575320">
						<ele>614</ele>
						<time>2026-05-04T19:15:55Z</time>
					</trkpt>
					<trkpt lat="42.924190" lon="11.575380">
						<ele>615</ele>
						<time>2026-05-04T19:15:58Z</time>
					</trkpt>
					<trkpt lat="42.924550" lon="11.575740">
						<ele>615</ele>
						<time>2026-05-04T19:16:06Z</time>
					</trkpt>
					<trkpt lat="42.924660" lon="11.575760">
						<ele>613</ele>
						<time>2026-05-04T19:16:08Z</time>
					</trkpt>
					<trkpt lat="42.924760" lon="11.575710">
						<ele>610</ele>
						<time>2026-05-04T19:16:09Z</time>
					</trkpt>
					<trkpt lat="42.924840" lon="11.575470">
						<ele>606</ele>
						<time>2026-05-04T19:16:13Z</time>
					</trkpt>
					<trkpt lat="42.924910" lon="11.574960">
						<ele>600</ele>
						<time>2026-05-04T19:16:20Z</time>
					</trkpt>
					<trkpt lat="42.924880" lon="11.574830">
						<ele>599</ele>
						<time>2026-05-04T19:16:21Z</time>
					</trkpt>
					<trkpt lat="42.924690" lon="11.574630">
						<ele>598</ele>
						<time>2026-05-04T19:16:26Z</time>
					</trkpt>
					<trkpt lat="42.924580" lon="11.574350">
						<ele>595</ele>
						<time>2026-05-04T19:16:30Z</time>
					</trkpt>
					<trkpt lat="42.924480" lon="11.574070">
						<ele>592</ele>
						<time>2026-05-04T19:16:34Z</time>
					</trkpt>
					<trkpt lat="42.924420" lon="11.573790">
						<ele>589</ele>
						<time>2026-05-04T19:16:38Z</time>
					</trkpt>
					<trkpt lat="42.924370" lon="11.573650">
						<ele>587</ele>
						<time>2026-05-04T19:16:40Z</time>
					</trkpt>
					<trkpt lat="42.924320" lon="11.573580">
						<ele>586</ele>
						<time>2026-05-04T19:16:41Z</time>
					</trkpt>
					<trkpt lat="42.924260" lon="11.573530">
						<ele>586</ele>
						<time>2026-05-04T19:16:42Z</time>
					</trkpt>
					<trkpt lat="42.924190" lon="11.573490">
						<ele>586</ele>
						<time>2026-05-04T19:16:44Z</time>
					</trkpt>
					<trkpt lat="42.924090" lon="11.573460">
						<ele>585</ele>
						<time>2026-05-04T19:16:45Z</time>
					</trkpt>
					<trkpt lat="42.923980" lon="11.573450">
						<ele>585</ele>
						<time>2026-05-04T19:16:47Z</time>
					</trkpt>
					<trkpt lat="42.923840" lon="11.573460">
						<ele>584</ele>
						<time>2026-05-04T19:16:50Z</time>
					</trkpt>
					<trkpt lat="42.923690" lon="11.573500">
						<ele>584</ele>
						<time>2026-05-04T19:16:53Z</time>
					</trkpt>
					<trkpt lat="42.923460" lon="11.573600">
						<ele>585</ele>
						<time>2026-05-04T19:16:57Z</time>
					</trkpt>
					<trkpt lat="42.923280" lon="11.573690">
						<ele>587</ele>
						<time>2026-05-04T19:17:00Z</time>
					</trkpt>
					<trkpt lat="42.923190" lon="11.573720">
						<ele>588</ele>
						<time>2026-05-04T19:17:02Z</time>
					</trkpt>
					<trkpt lat="42.923080" lon="11.573720">
						<ele>589</ele>
						<time>2026-05-04T19:17:04Z</time>
					</trkpt>
					<trkpt lat="42.922880" lon="11.573690">
						<ele>589</ele>
						<time>2026-05-04T19:17:08Z</time>
					</trkpt>
					<trkpt lat="42.922790" lon="11.573630">
						<ele>588</ele>
						<time>2026-05-04T19:17:09Z</time>
					</trkpt>
					<trkpt lat="42.922730" lon="11.573560">
						<ele>586</ele>
						<time>2026-05-04T19:17:11Z</time>
					</trkpt>
					<trkpt lat="42.922680" lon="11.573450">
						<ele>584</ele>
						<time>2026-05-04T19:17:12Z</time>
					</trkpt>
					<trkpt lat="42.922660" lon="11.573350">
						<ele>581</ele>
						<time>2026-05-04T19:17:14Z</time>
					</trkpt>
					<trkpt lat="42.922670" lon="11.573240">
						<ele>579</ele>
						<time>2026-05-04T19:17:15Z</time>
					</trkpt>
					<trkpt lat="42.922690" lon="11.573140">
						<ele>577</ele>
						<time>2026-05-04T19:17:17Z</time>
					</trkpt>
					<trkpt lat="42.922730" lon="11.573050">
						<ele>576</ele>
						<time>2026-05-04T19:17:18Z</time>
					</trkpt>
					<trkpt lat="42.922780" lon="11.572970">
						<ele>574</ele>
						<time>2026-05-04T19:17:19Z</time>
					</trkpt>
					<trkpt lat="42.922860" lon="11.572880">
						<ele>573</ele>
						<time>2026-05-04T19:17:21Z</time>
					</trkpt>
					<trkpt lat="42.923080" lon="11.572710">
						<ele>571</ele>
						<time>2026-05-04T19:17:26Z</time>
					</trkpt>
					<trkpt lat="42.923180" lon="11.572600">
						<ele>570</ele>
						<time>2026-05-04T19:17:28Z</time>
					</trkpt>
					<trkpt lat="42.923230" lon="11.572520">
						<ele>569</ele>
						<time>2026-05-04T19:17:29Z</time>
					</trkpt>
					<trkpt lat="42.923260" lon="11.572450">
						<ele>568</ele>
						<time>2026-05-04T19:17:30Z</time>
					</trkpt>
					<trkpt lat="42.923260" lon="11.572360">
						<ele>566</ele>
						<time>2026-05-04T19:17:32Z</time>
					</trkpt>
					<trkpt lat="42.923260" lon="11.572290">
						<ele>565</ele>
						<time>2026-05-04T19:17:32Z</time>
					</trkpt>
					<trkpt lat="42.923230" lon="11.572220">
						<ele>563</ele>
						<time>2026-05-04T19:17:33Z</time>
					</trkpt>
					<trkpt lat="42.923200" lon="11.572160">
						<ele>562</ele>
						<time>2026-05-04T19:17:34Z</time>
					</trkpt>
					<trkpt lat="42.923150" lon="11.572110">
						<ele>561</ele>
						<time>2026-05-04T19:17:36Z</time>
					</trkpt>
					<trkpt lat="42.923090" lon="11.572080">
						<ele>560</ele>
						<time>2026-05-04T19:17:37Z</time>
					</trkpt>
					<trkpt lat="42.923010" lon="11.572070">
						<ele>560</ele>
						<time>2026-05-04T19:17:38Z</time>
					</trkpt>
					<trkpt lat="42.922930" lon="11.572090">
						<ele>560</ele>
						<time>2026-05-04T19:17:40Z</time>
					</trkpt>
					<trkpt lat="42.922810" lon="11.572170">
						<ele>560</ele>
						<time>2026-05-04T19:17:42Z</time>
					</trkpt>
					<trkpt lat="42.922640" lon="11.572320">
						<ele>562</ele>
						<time>2026-05-04T19:17:46Z</time>
					</trkpt>
					<trkpt lat="42.922410" lon="11.572540">
						<ele>565</ele>
						<time>2026-05-04T19:17:51Z</time>
					</trkpt>
					<trkpt lat="42.922350" lon="11.572560">
						<ele>566</ele>
						<time>2026-05-04T19:17:52Z</time>
					</trkpt>
					<trkpt lat="42.922280" lon="11.572570">
						<ele>567</ele>
						<time>2026-05-04T19:17:53Z</time>
					</trkpt>
					<trkpt lat="42.922210" lon="11.572550">
						<ele>567</ele>
						<time>2026-05-04T19:17:54Z</time>
					</trkpt>
					<trkpt lat="42.922160" lon="11.572530">
						<ele>566</ele>
						<time>2026-05-04T19:17:55Z</time>
					</trkpt>
					<trkpt lat="42.922110" lon="11.572470">
						<ele>565</ele>
						<time>2026-05-04T19:17:56Z</time>
					</trkpt>
					<trkpt lat="42.922060" lon="11.572380">
						<ele>564</ele>
						<time>2026-05-04T19:17:58Z</time>
					</trkpt>
					<trkpt lat="42.922020" lon="11.572260">
						<ele>563</ele>
						<time>2026-05-04T19:17:59Z</time>
					</trkpt>
					<trkpt lat="42.921950" lon="11.572030">
						<ele>559</ele>
						<time>2026-05-04T19:18:03Z</time>
					</trkpt>
					<trkpt lat="42.921900" lon="11.571740">
						<ele>555</ele>
						<time>2026-05-04T19:18:07Z</time>
					</trkpt>
					<trkpt lat="42.921870" lon="11.571490">
						<ele>552</ele>
						<time>2026-05-04T19:18:10Z</time>
					</trkpt>
					<trkpt lat="42.921860" lon="11.571310">
						<ele>549</ele>
						<time>2026-05-04T19:18:12Z</time>
					</trkpt>
					<trkpt lat="42.921870" lon="11.571050">
						<ele>546</ele>
						<time>2026-05-04T19:18:16Z</time>
					</trkpt>
					<trkpt lat="42.921870" lon="11.570740">
						<ele>542</ele>
						<time>2026-05-04T19:18:20Z</time>
					</trkpt>
					<trkpt lat="42.921840" lon="11.570240">
						<ele>539</ele>
						<time>2026-05-04T19:18:26Z</time>
					</trkpt>
					<trkpt lat="42.921820" lon="11.570120">
						<ele>538</ele>
						<time>2026-05-04T19:18:28Z</time>
					</trkpt>
					<trkpt lat="42.921790" lon="11.570040">
						<ele>538</ele>
						<time>2026-05-04T19:18:29Z</time>
					</trkpt>
					<trkpt lat="42.921760" lon="11.569980">
						<ele>537</ele>
						<time>2026-05-04T19:18:30Z</time>
					</trkpt>
					<trkpt lat="42.921730" lon="11.569940">
						<ele>537</ele>
						<time>2026-05-04T19:18:31Z</time>
					</trkpt>
					<trkpt lat="42.921460" lon="11.569700">
						<ele>535</ele>
						<time>2026-05-04T19:18:36Z</time>
					</trkpt>
					<trkpt lat="42.921230" lon="11.569490">
						<ele>533</ele>
						<time>2026-05-04T19:18:41Z</time>
					</trkpt>
					<trkpt lat="42.921130" lon="11.569320">
						<ele>532</ele>
						<time>2026-05-04T19:18:44Z</time>
					</trkpt>
					<trkpt lat="42.921080" lon="11.569170">
						<ele>530</ele>
						<time>2026-05-04T19:18:46Z</time>
					</trkpt>
					<trkpt lat="42.921060" lon="11.568940">
						<ele>529</ele>
						<time>2026-05-04T19:18:49Z</time>
					</trkpt>
					<trkpt lat="42.921050" lon="11.568620">
						<ele>527</ele>
						<time>2026-05-04T19:18:53Z</time>
					</trkpt>
					<trkpt lat="42.921100" lon="11.568200">
						<ele>524</ele>
						<time>2026-05-04T19:18:59Z</time>
					</trkpt>
					<trkpt lat="42.921210" lon="11.567680">
						<ele>520</ele>
						<time>2026-05-04T19:19:06Z</time>
					</trkpt>
					<trkpt lat="42.921210" lon="11.567490">
						<ele>519</ele>
						<time>2026-05-04T19:19:09Z</time>
					</trkpt>
					<trkpt lat="42.921040" lon="11.566940">
						<ele>512</ele>
						<time>2026-05-04T19:19:16Z</time>
					</trkpt>
					<trkpt lat="42.921050" lon="11.566720">
						<ele>510</ele>
						<time>2026-05-04T19:19:19Z</time>
					</trkpt>
					<trkpt lat="42.921140" lon="11.566130">
						<ele>504</ele>
						<time>2026-05-04T19:19:27Z</time>
					</trkpt>
					<trkpt lat="42.921470" lon="11.565020">
						<ele>494</ele>
						<time>2026-05-04T19:19:43Z</time>
					</trkpt>
					<trkpt lat="42.921520" lon="11.564900">
						<ele>492</ele>
						<time>2026-05-04T19:19:44Z</time>
					</trkpt>
					<trkpt lat="42.921580" lon="11.564840">
						<ele>491</ele>
						<time>2026-05-04T19:19:46Z</time>
					</trkpt>
					<trkpt lat="42.921670" lon="11.564800">
						<ele>491</ele>
						<time>2026-05-04T19:19:47Z</time>
					</trkpt>
					<trkpt lat="42.922130" lon="11.564770">
						<ele>488</ele>
						<time>2026-05-04T19:19:56Z</time>
					</trkpt>
					<trkpt lat="42.922450" lon="11.564850">
						<ele>487</ele>
						<time>2026-05-04T19:20:01Z</time>
					</trkpt>
					<trkpt lat="42.922600" lon="11.564870">
						<ele>487</ele>
						<time>2026-05-04T19:20:04Z</time>
					</trkpt>
					<trkpt lat="42.922670" lon="11.564810">
						<ele>486</ele>
						<time>2026-05-04T19:20:06Z</time>
					</trkpt>
					<trkpt lat="42.922710" lon="11.564670">
						<ele>484</ele>
						<time>2026-05-04T19:20:08Z</time>
					</trkpt>
					<trkpt lat="42.922750" lon="11.564230">
						<ele>479</ele>
						<time>2026-05-04T19:20:13Z</time>
					</trkpt>
					<trkpt lat="42.923700" lon="11.563660">
						<ele>467</ele>
						<time>2026-05-04T19:20:32Z</time>
					</trkpt>
					<trkpt lat="42.923850" lon="11.563600">
						<ele>465</ele>
						<time>2026-05-04T19:20:35Z</time>
					</trkpt>
					<trkpt lat="42.923970" lon="11.563600">
						<ele>465</ele>
						<time>2026-05-04T19:20:37Z</time>
					</trkpt>
					<trkpt lat="42.924130" lon="11.563640">
						<ele>464</ele>
						<time>2026-05-04T19:20:40Z</time>
					</trkpt>
					<trkpt lat="42.924460" lon="11.563860">
						<ele>464</ele>
						<time>2026-05-04T19:20:46Z</time>
					</trkpt>
					<trkpt lat="42.924970" lon="11.564230">
						<ele>462</ele>
						<time>2026-05-04T19:20:56Z</time>
					</trkpt>
					<trkpt lat="42.925620" lon="11.564670">
						<ele>458</ele>
						<time>2026-05-04T19:21:09Z</time>
					</trkpt>
					<trkpt lat="42.926430" lon="11.564880">
						<ele>453</ele>
						<time>2026-05-04T19:21:24Z</time>
					</trkpt>
					<trkpt lat="42.926480" lon="11.564880">
						<ele>452</ele>
						<time>2026-05-04T19:21:25Z</time>
					</trkpt>
					<trkpt lat="42.926560" lon="11.564880">
						<ele>451</ele>
						<time>2026-05-04T19:21:26Z</time>
					</trkpt>
					<trkpt lat="42.926650" lon="11.564860">
						<ele>450</ele>
						<time>2026-05-04T19:21:28Z</time>
					</trkpt>
					<trkpt lat="42.926680" lon="11.564850">
						<ele>450</ele>
						<time>2026-05-04T19:21:28Z</time>
					</trkpt>
					<trkpt lat="42.926760" lon="11.564770">
						<ele>449</ele>
						<time>2026-05-04T19:21:30Z</time>
					</trkpt>
					<trkpt lat="42.926840" lon="11.564660">
						<ele>448</ele>
						<time>2026-05-04T19:21:32Z</time>
					</trkpt>
					<trkpt lat="42.926940" lon="11.564470">
						<ele>446</ele>
						<time>2026-05-04T19:21:35Z</time>
					</trkpt>
					<trkpt lat="42.927260" lon="11.563660">
						<ele>441</ele>
						<time>2026-05-04T19:21:47Z</time>
					</trkpt>
					<trkpt lat="42.927540" lon="11.563080">
						<ele>435</ele>
						<time>2026-05-04T19:21:56Z</time>
					</trkpt>
					<trkpt lat="42.927910" lon="11.562630">
						<ele>432</ele>
						<time>2026-05-04T19:22:05Z</time>
					</trkpt>
					<trkpt lat="42.928030" lon="11.562320">
						<ele>429</ele>
						<time>2026-05-04T19:22:10Z</time>
					</trkpt>
					<trkpt lat="42.928260" lon="11.561760">
						<ele>424</ele>
						<time>2026-05-04T19:22:18Z</time>
					</trkpt>
					<trkpt lat="42.928500" lon="11.560910">
						<ele>419</ele>
						<time>2026-05-04T19:22:30Z</time>
					</trkpt>
					<trkpt lat="42.928510" lon="11.560850">
						<ele>418</ele>
						<time>2026-05-04T19:22:31Z</time>
					</trkpt>
					<trkpt lat="42.928600" lon="11.560570">
						<ele>420</ele>
						<time>2026-05-04T19:22:35Z</time>
					</trkpt>
					<trkpt lat="42.928660" lon="11.560510">
						<ele>420</ele>
						<time>2026-05-04T19:22:36Z</time>
					</trkpt>
					<trkpt lat="42.928730" lon="11.560480">
						<ele>421</ele>
						<time>2026-05-04T19:22:37Z</time>
					</trkpt>
					<trkpt lat="42.929140" lon="11.560470">
						<ele>422</ele>
						<time>2026-05-04T19:22:45Z</time>
					</trkpt>
					<trkpt lat="42.930540" lon="11.560530">
						<ele>414</ele>
						<time>2026-05-04T19:23:10Z</time>
					</trkpt>
					<trkpt lat="42.931690" lon="11.560570">
						<ele>401</ele>
						<time>2026-05-04T19:23:30Z</time>
					</trkpt>
					<trkpt lat="42.931810" lon="11.560540">
						<ele>399</ele>
						<time>2026-05-04T19:23:32Z</time>
					</trkpt>
					<trkpt lat="42.931940" lon="11.560490">
						<ele>397</ele>
						<time>2026-05-04T19:23:35Z</time>
					</trkpt>
					<trkpt lat="42.932130" lon="11.560360">
						<ele>394</ele>
						<time>2026-05-04T19:23:38Z</time>
					</trkpt>
					<trkpt lat="42.932230" lon="11.560250">
						<ele>392</ele>
						<time>2026-05-04T19:23:41Z</time>
					</trkpt>
					<trkpt lat="42.932320" lon="11.560080">
						<ele>390</ele>
						<time>2026-05-04T19:23:43Z</time>
					</trkpt>
					<trkpt lat="42.932370" lon="11.559940">
						<ele>388</ele>
						<time>2026-05-04T19:23:45Z</time>
					</trkpt>
					<trkpt lat="42.932410" lon="11.559700">
						<ele>387</ele>
						<time>2026-05-04T19:23:49Z</time>
					</trkpt>
					<trkpt lat="42.932420" lon="11.558950">
						<ele>386</ele>
						<time>2026-05-04T19:23:58Z</time>
					</trkpt>
					<trkpt lat="42.932440" lon="11.558670">
						<ele>386</ele>
						<time>2026-05-04T19:24:02Z</time>
					</trkpt>
					<trkpt lat="42.932510" lon="11.558330">
						<ele>383</ele>
						<time>2026-05-04T19:24:07Z</time>
					</trkpt>
					<trkpt lat="42.932580" lon="11.558040">
						<ele>382</ele>
						<time>2026-05-04T19:24:11Z</time>
					</trkpt>
					<trkpt lat="42.932690" lon="11.557750">
						<ele>381</ele>
						<time>2026-05-04T19:24:15Z</time>
					</trkpt>
					<trkpt lat="42.932740" lon="11.557570">
						<ele>379</ele>
						<time>2026-05-04T19:24:17Z</time>
					</trkpt>
					<trkpt lat="42.932780" lon="11.557360">
						<ele>377</ele>
						<time>2026-05-04T19:24:20Z</time>
					</trkpt>
					<trkpt lat="42.932770" lon="11.557190">
						<ele>376</ele>
						<time>2026-05-04T19:24:23Z</time>
					</trkpt>
					<trkpt lat="42.932720" lon="11.557020">
						<ele>376</ele>
						<time>2026-05-04T19:24:25Z</time>
					</trkpt>
					<trkpt lat="42.932610" lon="11.556700">
						<ele>375</ele>
						<time>2026-05-04T19:24:30Z</time>
					</trkpt>
					<trkpt lat="42.932360" lon="11.556190">
						<ele>371</ele>
						<time>2026-05-04T19:24:38Z</time>
					</trkpt>
					<trkpt lat="42.932260" lon="11.555900">
						<ele>367</ele>
						<time>2026-05-04T19:24:42Z</time>
					</trkpt>
					<trkpt lat="42.932240" lon="11.555620">
						<ele>366</ele>
						<time>2026-05-04T19:24:45Z</time>
					</trkpt>
					<trkpt lat="42.932240" lon="11.555420">
						<ele>366</ele>
						<time>2026-05-04T19:24:48Z</time>
					</trkpt>
					<trkpt lat="42.932260" lon="11.555200">
						<ele>365</ele>
						<time>2026-05-04T19:24:51Z</time>
					</trkpt>
					<trkpt lat="42.932290" lon="11.555060">
						<ele>365</ele>
						<time>2026-05-04T19:24:53Z</time>
					</trkpt>
					<trkpt lat="42.932350" lon="11.554950">
						<ele>365</ele>
						<time>2026-05-04T19:24:55Z</time>
					</trkpt>
					<trkpt lat="42.932440" lon="11.554770">
						<ele>365</ele>
						<time>2026-05-04T19:24:57Z</time>
					</trkpt>
					<trkpt lat="42.932500" lon="11.554710">
						<ele>365</ele>
						<time>2026-05-04T19:24:59Z</time>
					</trkpt>
					<trkpt lat="42.932590" lon="11.554760">
						<ele>366</ele>
						<time>2026-05-04T19:25:00Z</time>
					</trkpt>
					<trkpt lat="42.932790" lon="11.554980">
						<ele>367</ele>
						<time>2026-05-04T19:25:05Z</time>
					</trkpt>
					<trkpt lat="42.932900" lon="11.555060">
						<ele>368</ele>
						<time>2026-05-04T19:25:07Z</time>
					</trkpt>
					<trkpt lat="42.933030" lon="11.555120">
						<ele>369</ele>
						<time>2026-05-04T19:25:10Z</time>
					</trkpt>
					<trkpt lat="42.933190" lon="11.555140">
						<ele>370</ele>
						<time>2026-05-04T19:25:13Z</time>
					</trkpt>
					<trkpt lat="42.933360" lon="11.555170">
						<ele>371</ele>
						<time>2026-05-04T19:25:16Z</time>
					</trkpt>
					<trkpt lat="42.933480" lon="11.555220">
						<ele>373</ele>
						<time>2026-05-04T19:25:18Z</time>
					</trkpt>
					<trkpt lat="42.933620" lon="11.555310">
						<ele>374</ele>
						<time>2026-05-04T19:25:21Z</time>
					</trkpt>
					<trkpt lat="42.933770" lon="11.555460">
						<ele>374</ele>
						<time>2026-05-04T19:25:24Z</time>
					</trkpt>
					<trkpt lat="42.934040" lon="11.555900">
						<ele>373</ele>
						<time>2026-05-04T19:25:31Z</time>
					</trkpt>
					<trkpt lat="42.934140" lon="11.556050">
						<ele>373</ele>
						<time>2026-05-04T19:25:34Z</time>
					</trkpt>
					<trkpt lat="42.934250" lon="11.556150">
						<ele>373</ele>
						<time>2026-05-04T19:25:36Z</time>
					</trkpt>
					<trkpt lat="42.934420" lon="11.556180">
						<ele>374</ele>
						<time>2026-05-04T19:25:39Z</time>
					</trkpt>
					<trkpt lat="42.934680" lon="11.556170">
						<ele>376</ele>
						<time>2026-05-04T19:25:44Z</time>
					</trkpt>
					<trkpt lat="42.935530" lon="11.556160">
						<ele>384</ele>
						<time>2026-05-04T19:25:59Z</time>
					</trkpt>
					<trkpt lat="42.935630" lon="11.556200">
						<ele>385</ele>
						<time>2026-05-04T19:26:01Z</time>
					</trkpt>
					<trkpt lat="42.935740" lon="11.556310">
						<ele>385</ele>
						<time>2026-05-04T19:26:03Z</time>
					</trkpt>
					<trkpt lat="42.935850" lon="11.556440">
						<ele>385</ele>
						<time>2026-05-04T19:26:06Z</time>
					</trkpt>
					<trkpt lat="42.936460" lon="11.557300">
						<ele>386</ele>
						<time>2026-05-04T19:26:22Z</time>
					</trkpt>
					<trkpt lat="42.936570" lon="11.557420">
						<ele>387</ele>
						<time>2026-05-04T19:26:24Z</time>
					</trkpt>
					<trkpt lat="42.936690" lon="11.557510">
						<ele>387</ele>
						<time>2026-05-04T19:26:27Z</time>
					</trkpt>
					<trkpt lat="42.936890" lon="11.557600">
						<ele>387</ele>
						<time>2026-05-04T19:26:30Z</time>
					</trkpt>
					<trkpt lat="42.937080" lon="11.557620">
						<ele>388</ele>
						<time>2026-05-04T19:26:34Z</time>
					</trkpt>
					<trkpt lat="42.937190" lon="11.557580">
						<ele>389</ele>
						<time>2026-05-04T19:26:36Z</time>
					</trkpt>
					<trkpt lat="42.937290" lon="11.557480">
						<ele>390</ele>
						<time>2026-05-04T19:26:38Z</time>
					</trkpt>
					<trkpt lat="42.937360" lon="11.557390">
						<ele>392</ele>
						<time>2026-05-04T19:26:40Z</time>
					</trkpt>
					<trkpt lat="42.937490" lon="11.557250">
						<ele>395</ele>
						<time>2026-05-04T19:26:43Z</time>
					</trkpt>
					<trkpt lat="42.937660" lon="11.557110">
						<ele>400</ele>
						<time>2026-05-04T19:26:46Z</time>
					</trkpt>
					<trkpt lat="42.937800" lon="11.557060">
						<ele>403</ele>
						<time>2026-05-04T19:26:49Z</time>
					</trkpt>
					<trkpt lat="42.937880" lon="11.557060">
						<ele>404</ele>
						<time>2026-05-04T19:26:50Z</time>
					</trkpt>
					<trkpt lat="42.937970" lon="11.557100">
						<ele>405</ele>
						<time>2026-05-04T19:26:52Z</time>
					</trkpt>
					<trkpt lat="42.938040" lon="11.557210">
						<ele>405</ele>
						<time>2026-05-04T19:26:54Z</time>
					</trkpt>
					<trkpt lat="42.938050" lon="11.557610">
						<ele>400</ele>
						<time>2026-05-04T19:26:59Z</time>
					</trkpt>
					<trkpt lat="42.938090" lon="11.557790">
						<ele>399</ele>
						<time>2026-05-04T19:27:01Z</time>
					</trkpt>
					<trkpt lat="42.938160" lon="11.557930">
						<ele>398</ele>
						<time>2026-05-04T19:27:04Z</time>
					</trkpt>
					<trkpt lat="42.938280" lon="11.558030">
						<ele>399</ele>
						<time>2026-05-04T19:27:06Z</time>
					</trkpt>
					<trkpt lat="42.939020" lon="11.558200">
						<ele>407</ele>
						<time>2026-05-04T19:27:19Z</time>
					</trkpt>
					<trkpt lat="42.941090" lon="11.558890">
						<ele>415</ele>
						<time>2026-05-04T19:27:57Z</time>
					</trkpt>
					<trkpt lat="42.942210" lon="11.559720">
						<ele>425</ele>
						<time>2026-05-04T19:28:20Z</time>
					</trkpt>
					<trkpt lat="42.942750" lon="11.560240">
						<ele>423</ele>
						<time>2026-05-04T19:28:32Z</time>
					</trkpt>
					<trkpt lat="42.942880" lon="11.560290">
						<ele>423</ele>
						<time>2026-05-04T19:28:34Z</time>
					</trkpt>
					<trkpt lat="42.943110" lon="11.560310">
						<ele>424</ele>
						<time>2026-05-04T19:28:38Z</time>
					</trkpt>
					<trkpt lat="42.943290" lon="11.560220">
						<ele>427</ele>
						<time>2026-05-04T19:28:42Z</time>
					</trkpt>
					<trkpt lat="42.943690" lon="11.559970">
						<ele>432</ele>
						<time>2026-05-04T19:28:49Z</time>
					</trkpt>
					<trkpt lat="42.944170" lon="11.559610">
						<ele>438</ele>
						<time>2026-05-04T19:28:59Z</time>
					</trkpt>
					<trkpt lat="42.944430" lon="11.559510">
						<ele>443</ele>
						<time>2026-05-04T19:29:04Z</time>
					</trkpt>
					<trkpt lat="42.944640" lon="11.559570">
						<ele>445</ele>
						<time>2026-05-04T19:29:08Z</time>
					</trkpt>
					<trkpt lat="42.944840" lon="11.559720">
						<ele>446</ele>
						<time>2026-05-04T19:29:12Z</time>
					</trkpt>
					<trkpt lat="42.945150" lon="11.560260">
						<ele>444</ele>
						<time>2026-05-04T19:29:21Z</time>
					</trkpt>
					<trkpt lat="42.945510" lon="11.561040">
						<ele>444</ele>
						<time>2026-05-04T19:29:33Z</time>
					</trkpt>
					<trkpt lat="42.945930" lon="11.561580">
						<ele>447</ele>
						<time>2026-05-04T19:29:43Z</time>
					</trkpt>
					<trkpt lat="42.946200" lon="11.561810">
						<ele>449</ele>
						<time>2026-05-04T19:29:49Z</time>
					</trkpt>
					<trkpt lat="42.946410" lon="11.561980">
						<ele>450</ele>
						<time>2026-05-04T19:29:53Z</time>
					</trkpt>
					<trkpt lat="42.946610" lon="11.562100">
						<ele>451</ele>
						<time>2026-05-04T19:29:57Z</time>
					</trkpt>
					<trkpt lat="42.946870" lon="11.562120">
						<ele>453</ele>
						<time>2026-05-04T19:30:02Z</time>
					</trkpt>
					<trkpt lat="42.947750" lon="11.561940">
						<ele>465</ele>
						<time>2026-05-04T19:30:17Z</time>
					</trkpt>
					<trkpt lat="42.948030" lon="11.561950">
						<ele>469</ele>
						<time>2026-05-04T19:30:22Z</time>
					</trkpt>
					<trkpt lat="42.948260" lon="11.562040">
						<ele>471</ele>
						<time>2026-05-04T19:30:27Z</time>
					</trkpt>
					<trkpt lat="42.948480" lon="11.562260">
						<ele>471</ele>
						<time>2026-05-04T19:30:32Z</time>
					</trkpt>
					<trkpt lat="42.948790" lon="11.562710">
						<ele>469</ele>
						<time>2026-05-04T19:30:40Z</time>
					</trkpt>
					<trkpt lat="42.948950" lon="11.562800">
						<ele>471</ele>
						<time>2026-05-04T19:30:43Z</time>
					</trkpt>
					<trkpt lat="42.949430" lon="11.562860">
						<ele>481</ele>
						<time>2026-05-04T19:30:51Z</time>
					</trkpt>
					<trkpt lat="42.949550" lon="11.562910">
						<ele>484</ele>
						<time>2026-05-04T19:30:53Z</time>
					</trkpt>
					<trkpt lat="42.949670" lon="11.563040">
						<ele>486</ele>
						<time>2026-05-04T19:30:56Z</time>
					</trkpt>
					<trkpt lat="42.949800" lon="11.563490">
						<ele>484</ele>
						<time>2026-05-04T19:31:03Z</time>
					</trkpt>
					<trkpt lat="42.949850" lon="11.563610">
						<ele>484</ele>
						<time>2026-05-04T19:31:04Z</time>
					</trkpt>
					<trkpt lat="42.949930" lon="11.563720">
						<ele>484</ele>
						<time>2026-05-04T19:31:06Z</time>
					</trkpt>
					<trkpt lat="42.950290" lon="11.564070">
						<ele>486</ele>
						<time>2026-05-04T19:31:14Z</time>
					</trkpt>
					<trkpt lat="42.950470" lon="11.564260">
						<ele>488</ele>
						<time>2026-05-04T19:31:18Z</time>
					</trkpt>
					<trkpt lat="42.950980" lon="11.564860">
						<ele>490</ele>
						<time>2026-05-04T19:31:30Z</time>
					</trkpt>
					<trkpt lat="42.951250" lon="11.565260">
						<ele>490</ele>
						<time>2026-05-04T19:31:37Z</time>
					</trkpt>
					<trkpt lat="42.951680" lon="11.566170">
						<ele>493</ele>
						<time>2026-05-04T19:31:51Z</time>
					</trkpt>
					<trkpt lat="42.951840" lon="11.566520">
						<ele>491</ele>
						<time>2026-05-04T19:31:57Z</time>
					</trkpt>
					<trkpt lat="42.952020" lon="11.566680">
						<ele>490</ele>
						<time>2026-05-04T19:32:01Z</time>
					</trkpt>
					<trkpt lat="42.954210" lon="11.567650">
						<ele>478</ele>
						<time>2026-05-04T19:32:42Z</time>
					</trkpt>
					<trkpt lat="42.954680" lon="11.567710">
						<ele>474</ele>
						<time>2026-05-04T19:32:50Z</time>
					</trkpt>
					<trkpt lat="42.955900" lon="11.567600">
						<ele>466</ele>
						<time>2026-05-04T19:33:12Z</time>
					</trkpt>
					<trkpt lat="42.956800" lon="11.567520">
						<ele>460</ele>
						<time>2026-05-04T19:33:28Z</time>
					</trkpt>
					<trkpt lat="42.957030" lon="11.567530">
						<ele>457</ele>
						<time>2026-05-04T19:33:32Z</time>
					</trkpt>
					<trkpt lat="42.957340" lon="11.567620">
						<ele>454</ele>
						<time>2026-05-04T19:33:38Z</time>
					</trkpt>
					<trkpt lat="42.957520" lon="11.567690">
						<ele>453</ele>
						<time>2026-05-04T19:33:41Z</time>
					</trkpt>
					<trkpt lat="42.958410" lon="11.568020">
						<ele>449</ele>
						<time>2026-05-04T19:33:57Z</time>
					</trkpt>
					<trkpt lat="42.958620" lon="11.568060">
						<ele>448</ele>
						<time>2026-05-04T19:34:01Z</time>
					</trkpt>
					<trkpt lat="42.958850" lon="11.568030">
						<ele>447</ele>
						<time>2026-05-04T19:34:05Z</time>
					</trkpt>
					<trkpt lat="42.959030" lon="11.567960">
						<ele>445</ele>
						<time>2026-05-04T19:34:08Z</time>
					</trkpt>
					<trkpt lat="42.960250" lon="11.567190">
						<ele>431</ele>
						<time>2026-05-04T19:34:32Z</time>
					</trkpt>
					<trkpt lat="42.960460" lon="11.567120">
						<ele>429</ele>
						<time>2026-05-04T19:34:36Z</time>
					</trkpt>
					<trkpt lat="42.960730" lon="11.567090">
						<ele>428</ele>
						<time>2026-05-04T19:34:41Z</time>
					</trkpt>
					<trkpt lat="42.961470" lon="11.567250">
						<ele>423</ele>
						<time>2026-05-04T19:34:54Z</time>
					</trkpt>
					<trkpt lat="42.961750" lon="11.567310">
						<ele>422</ele>
						<time>2026-05-04T19:34:59Z</time>
					</trkpt>
					<trkpt lat="42.962250" lon="11.567430">
						<ele>419</ele>
						<time>2026-05-04T19:35:08Z</time>
					</trkpt>
					<trkpt lat="42.962360" lon="11.567480">
						<ele>419</ele>
						<time>2026-05-04T19:35:11Z</time>
					</trkpt>
					<trkpt lat="42.962470" lon="11.567540">
						<ele>419</ele>
						<time>2026-05-04T19:35:13Z</time>
					</trkpt>
					<trkpt lat="42.962800" lon="11.567830">
						<ele>418</ele>
						<time>2026-05-04T19:35:20Z</time>
					</trkpt>
					<trkpt lat="42.963300" lon="11.568290">
						<ele>417</ele>
						<time>2026-05-04T19:35:30Z</time>
					</trkpt>
					<trkpt lat="42.963440" lon="11.568410">
						<ele>416</ele>
						<time>2026-05-04T19:35:33Z</time>
					</trkpt>
					<trkpt lat="42.963590" lon="11.568490">
						<ele>416</ele>
						<time>2026-05-04T19:35:36Z</time>
					</trkpt>
					<trkpt lat="42.963700" lon="11.568530">
						<ele>415</ele>
						<time>2026-05-04T19:35:38Z</time>
					</trkpt>
					<trkpt lat="42.963860" lon="11.568550">
						<ele>414</ele>
						<time>2026-05-04T19:35:41Z</time>
					</trkpt>
					<trkpt lat="42.964510" lon="11.568460">
						<ele>407</ele>
						<time>2026-05-04T19:35:53Z</time>
					</trkpt>
					<trkpt lat="42.964710" lon="11.568440">
						<ele>405</ele>
						<time>2026-05-04T19:35:56Z</time>
					</trkpt>
					<trkpt lat="42.964820" lon="11.568440">
						<ele>404</ele>
						<time>2026-05-04T19:35:58Z</time>
					</trkpt>
					<trkpt lat="42.964920" lon="11.568460">
						<ele>403</ele>
						<time>2026-05-04T19:36:00Z</time>
					</trkpt>
					<trkpt lat="42.965030" lon="11.568490">
						<ele>402</ele>
						<time>2026-05-04T19:36:02Z</time>
					</trkpt>
					<trkpt lat="42.965170" lon="11.568580">
						<ele>400</ele>
						<time>2026-05-04T19:36:05Z</time>
					</trkpt>
					<trkpt lat="42.966050" lon="11.569160">
						<ele>393</ele>
						<time>2026-05-04T19:36:22Z</time>
					</trkpt>
					<trkpt lat="42.966170" lon="11.569280">
						<ele>392</ele>
						<time>2026-05-04T19:36:25Z</time>
					</trkpt>
					<trkpt lat="42.966280" lon="11.569420">
						<ele>391</ele>
						<time>2026-05-04T19:36:27Z</time>
					</trkpt>
					<trkpt lat="42.966370" lon="11.569610">
						<ele>390</ele>
						<time>2026-05-04T19:36:30Z</time>
					</trkpt>
					<trkpt lat="42.966430" lon="11.569780">
						<ele>390</ele>
						<time>2026-05-04T19:36:33Z</time>
					</trkpt>
					<trkpt lat="42.966480" lon="11.569990">
						<ele>390</ele>
						<time>2026-05-04T19:36:36Z</time>
					</trkpt>
					<trkpt lat="42.966910" lon="11.572020">
						<ele>377</ele>
						<time>2026-05-04T19:37:03Z</time>
					</trkpt>
					<trkpt lat="42.966990" lon="11.572370">
						<ele>374</ele>
						<time>2026-05-04T19:37:08Z</time>
					</trkpt>
					<trkpt lat="42.967130" lon="11.573030">
						<ele>367</ele>
						<time>2026-05-04T19:37:17Z</time>
					</trkpt>
					<trkpt lat="42.967150" lon="11.573220">
						<ele>365</ele>
						<time>2026-05-04T19:37:19Z</time>
					</trkpt>
					<trkpt lat="42.967150" lon="11.573350">
						<ele>364</ele>
						<time>2026-05-04T19:37:21Z</time>
					</trkpt>
					<trkpt lat="42.967130" lon="11.573550">
						<ele>363</ele>
						<time>2026-05-04T19:37:24Z</time>
					</trkpt>
					<trkpt lat="42.967100" lon="11.573730">
						<ele>362</ele>
						<time>2026-05-04T19:37:26Z</time>
					</trkpt>
					<trkpt lat="42.966950" lon="11.574450">
						<ele>362</ele>
						<time>2026-05-04T19:37:36Z</time>
					</trkpt>
					<trkpt lat="42.966890" lon="11.574770">
						<ele>362</ele>
						<time>2026-05-04T19:37:40Z</time>
					</trkpt>
					<trkpt lat="42.966880" lon="11.574890">
						<ele>361</ele>
						<time>2026-05-04T19:37:42Z</time>
					</trkpt>
					<trkpt lat="42.966890" lon="11.575040">
						<ele>360</ele>
						<time>2026-05-04T19:37:44Z</time>
					</trkpt>
					<trkpt lat="42.966940" lon="11.575210">
						<ele>359</ele>
						<time>2026-05-04T19:37:46Z</time>
					</trkpt>
					<trkpt lat="42.966980" lon="11.575310">
						<ele>359</ele>
						<time>2026-05-04T19:37:48Z</time>
					</trkpt>
					<trkpt lat="42.967030" lon="11.575390">
						<ele>358</ele>
						<time>2026-05-04T19:37:49Z</time>
					</trkpt>
					<trkpt lat="42.967110" lon="11.575480">
						<ele>358</ele>
						<time>2026-05-04T19:37:51Z</time>
					</trkpt>
					<trkpt lat="42.967180" lon="11.575540">
						<ele>359</ele>
						<time>2026-05-04T19:37:52Z</time>
					</trkpt>
					<trkpt lat="42.967270" lon="11.575600">
						<ele>359</ele>
						<time>2026-05-04T19:37:54Z</time>
					</trkpt>
					<trkpt lat="42.967390" lon="11.575630">
						<ele>360</ele>
						<time>2026-05-04T19:37:56Z</time>
					</trkpt>
					<trkpt lat="42.967480" lon="11.575630">
						<ele>361</ele>
						<time>2026-05-04T19:37:58Z</time>
					</trkpt>
					<trkpt lat="42.967570" lon="11.575600">
						<ele>360</ele>
						<time>2026-05-04T19:37:59Z</time>
					</trkpt>
					<trkpt lat="42.967660" lon="11.575550">
						<ele>360</ele>
						<time>2026-05-04T19:38:01Z</time>
					</trkpt>
					<trkpt lat="42.968140" lon="11.575190">
						<ele>357</ele>
						<time>2026-05-04T19:38:11Z</time>
					</trkpt>
					<trkpt lat="42.968210" lon="11.575160">
						<ele>357</ele>
						<time>2026-05-04T19:38:12Z</time>
					</trkpt>
					<trkpt lat="42.968370" lon="11.575140">
						<ele>358</ele>
						<time>2026-05-04T19:38:15Z</time>
					</trkpt>
					<trkpt lat="42.968460" lon="11.575110">
						<ele>358</ele>
						<time>2026-05-04T19:38:17Z</time>
					</trkpt>
					<trkpt lat="42.968590" lon="11.575050">
						<ele>358</ele>
						<time>2026-05-04T19:38:19Z</time>
					</trkpt>
					<trkpt lat="42.968710" lon="11.574970">
						<ele>358</ele>
						<time>2026-05-04T19:38:22Z</time>
					</trkpt>
					<trkpt lat="42.968850" lon="11.574840">
						<ele>358</ele>
						<time>2026-05-04T19:38:25Z</time>
					</trkpt>
					<trkpt lat="42.969130" lon="11.574500">
						<ele>356</ele>
						<time>2026-05-04T19:38:31Z</time>
					</trkpt>
					<trkpt lat="42.969280" lon="11.574370">
						<ele>355</ele>
						<time>2026-05-04T19:38:34Z</time>
					</trkpt>
					<trkpt lat="42.969980" lon="11.573790">
						<ele>352</ele>
						<time>2026-05-04T19:38:49Z</time>
					</trkpt>
					<trkpt lat="42.970030" lon="11.573750">
						<ele>352</ele>
						<time>2026-05-04T19:38:50Z</time>
					</trkpt>
					<trkpt lat="42.970060" lon="11.573750">
						<ele>352</ele>
						<time>2026-05-04T19:38:51Z</time>
					</trkpt>
					<trkpt lat="42.970100" lon="11.573760">
						<ele>352</ele>
						<time>2026-05-04T19:38:51Z</time>
					</trkpt>
					<trkpt lat="42.970130" lon="11.573790">
						<ele>353</ele>
						<time>2026-05-04T19:38:52Z</time>
					</trkpt>
					<trkpt lat="42.970210" lon="11.573680">
						<ele>351</ele>
						<time>2026-05-04T19:38:54Z</time>
					</trkpt>
					<trkpt lat="42.970320" lon="11.573580">
						<ele>351</ele>
						<time>2026-05-04T19:38:56Z</time>
					</trkpt>
					<trkpt lat="42.970760" lon="11.573340">
						<ele>350</ele>
						<time>2026-05-04T19:39:05Z</time>
					</trkpt>
					<trkpt lat="42.970860" lon="11.573270">
						<ele>349</ele>
						<time>2026-05-04T19:39:07Z</time>
					</trkpt>
					<trkpt lat="42.970930" lon="11.573150">
						<ele>348</ele>
						<time>2026-05-04T19:39:09Z</time>
					</trkpt>
					<trkpt lat="42.970950" lon="11.572980">
						<ele>347</ele>
						<time>2026-05-04T19:39:11Z</time>
					</trkpt>
					<trkpt lat="42.970980" lon="11.572430">
						<ele>342</ele>
						<time>2026-05-04T19:39:18Z</time>
					</trkpt>
					<trkpt lat="42.971010" lon="11.572230">
						<ele>340</ele>
						<time>2026-05-04T19:39:21Z</time>
					</trkpt>
					<trkpt lat="42.971070" lon="11.571890">
						<ele>337</ele>
						<time>2026-05-04T19:39:25Z</time>
					</trkpt>
					<trkpt lat="42.971160" lon="11.571590">
						<ele>335</ele>
						<time>2026-05-04T19:39:30Z</time>
					</trkpt>
					<trkpt lat="42.971590" lon="11.570190">
						<ele>327</ele>
						<time>2026-05-04T19:39:49Z</time>
					</trkpt>
					<trkpt lat="42.971650" lon="11.570050">
						<ele>327</ele>
						<time>2026-05-04T19:39:51Z</time>
					</trkpt>
					<trkpt lat="42.971700" lon="11.569930">
						<ele>327</ele>
						<time>2026-05-04T19:39:53Z</time>
					</trkpt>
					<trkpt lat="42.971780" lon="11.569800">
						<ele>326</ele>
						<time>2026-05-04T19:39:55Z</time>
					</trkpt>
					<trkpt lat="42.972060" lon="11.569480">
						<ele>324</ele>
						<time>2026-05-04T19:40:02Z</time>
					</trkpt>
					<trkpt lat="42.972200" lon="11.569270">
						<ele>324</ele>
						<time>2026-05-04T19:40:06Z</time>
					</trkpt>
					<trkpt lat="42.972250" lon="11.569170">
						<ele>323</ele>
						<time>2026-05-04T19:40:07Z</time>
					</trkpt>
					<trkpt lat="42.972290" lon="11.569060">
						<ele>323</ele>
						<time>2026-05-04T19:40:09Z</time>
					</trkpt>
					<trkpt lat="42.972330" lon="11.568940">
						<ele>323</ele>
						<time>2026-05-04T19:40:11Z</time>
					</trkpt>
					<trkpt lat="42.972360" lon="11.568780">
						<ele>324</ele>
						<time>2026-05-04T19:40:13Z</time>
					</trkpt>
					<trkpt lat="42.972400" lon="11.568360">
						<ele>324</ele>
						<time>2026-05-04T19:40:18Z</time>
					</trkpt>
					<trkpt lat="42.972420" lon="11.568260">
						<ele>324</ele>
						<time>2026-05-04T19:40:20Z</time>
					</trkpt>
					<trkpt lat="42.972430" lon="11.568210">
						<ele>325</ele>
						<time>2026-05-04T19:40:20Z</time>
					</trkpt>
					<trkpt lat="42.972460" lon="11.568110">
						<ele>325</ele>
						<time>2026-05-04T19:40:22Z</time>
					</trkpt>
					<trkpt lat="42.972510" lon="11.568020">
						<ele>325</ele>
						<time>2026-05-04T19:40:23Z</time>
					</trkpt>
					<trkpt lat="42.972560" lon="11.567940">
						<ele>325</ele>
						<time>2026-05-04T19:40:24Z</time>
					</trkpt>
					<trkpt lat="42.972640" lon="11.567840">
						<ele>324</ele>
						<time>2026-05-04T19:40:26Z</time>
					</trkpt>
					<trkpt lat="42.973570" lon="11.567210">
						<ele>316</ele>
						<time>2026-05-04T19:40:45Z</time>
					</trkpt>
					<trkpt lat="42.973770" lon="11.567100">
						<ele>313</ele>
						<time>2026-05-04T19:40:49Z</time>
					</trkpt>
					<trkpt lat="42.973950" lon="11.567010">
						<ele>310</ele>
						<time>2026-05-04T19:40:52Z</time>
					</trkpt>
					<trkpt lat="42.974040" lon="11.566920">
						<ele>309</ele>
						<time>2026-05-04T19:40:54Z</time>
					</trkpt>
					<trkpt lat="42.974090" lon="11.566770">
						<ele>309</ele>
						<time>2026-05-04T19:40:56Z</time>
					</trkpt>
					<trkpt lat="42.974200" lon="11.566050">
						<ele>309</ele>
						<time>2026-05-04T19:41:06Z</time>
					</trkpt>
					<trkpt lat="42.974330" lon="11.565540">
						<ele>309</ele>
						<time>2026-05-04T19:41:13Z</time>
					</trkpt>
					<trkpt lat="42.974420" lon="11.565320">
						<ele>309</ele>
						<time>2026-05-04T19:41:16Z</time>
					</trkpt>
					<trkpt lat="42.974650" lon="11.564930">
						<ele>305</ele>
						<time>2026-05-04T19:41:23Z</time>
					</trkpt>
					<trkpt lat="42.975220" lon="11.564300">
						<ele>295</ele>
						<time>2026-05-04T19:41:36Z</time>
					</trkpt>
					<trkpt lat="42.975320" lon="11.564120">
						<ele>294</ele>
						<time>2026-05-04T19:41:39Z</time>
					</trkpt>
					<trkpt lat="42.975380" lon="11.563860">
						<ele>293</ele>
						<time>2026-05-04T19:41:42Z</time>
					</trkpt>
					<trkpt lat="42.975520" lon="11.563160">
						<ele>292</ele>
						<time>2026-05-04T19:41:52Z</time>
					</trkpt>
					<trkpt lat="42.975500" lon="11.562990">
						<ele>291</ele>
						<time>2026-05-04T19:41:54Z</time>
					</trkpt>
					<trkpt lat="42.975430" lon="11.562900">
						<ele>291</ele>
						<time>2026-05-04T19:41:56Z</time>
					</trkpt>
					<trkpt lat="42.975350" lon="11.562830">
						<ele>291</ele>
						<time>2026-05-04T19:41:57Z</time>
					</trkpt>
					<trkpt lat="42.975220" lon="11.562790">
						<ele>292</ele>
						<time>2026-05-04T19:42:00Z</time>
					</trkpt>
					<trkpt lat="42.974960" lon="11.562800">
						<ele>294</ele>
						<time>2026-05-04T19:42:04Z</time>
					</trkpt>
					<trkpt lat="42.974720" lon="11.562790">
						<ele>295</ele>
						<time>2026-05-04T19:42:09Z</time>
					</trkpt>
					<trkpt lat="42.974560" lon="11.562700">
						<ele>295</ele>
						<time>2026-05-04T19:42:12Z</time>
					</trkpt>
					<trkpt lat="42.974430" lon="11.562590">
						<ele>295</ele>
						<time>2026-05-04T19:42:14Z</time>
					</trkpt>
					<trkpt lat="42.974310" lon="11.562410">
						<ele>294</ele>
						<time>2026-05-04T19:42:18Z</time>
					</trkpt>
					<trkpt lat="42.974280" lon="11.562340">
						<ele>294</ele>
						<time>2026-05-04T19:42:19Z</time>
					</trkpt>
					<trkpt lat="42.974250" lon="11.562240">
						<ele>293</ele>
						<time>2026-05-04T19:42:20Z</time>
					</trkpt>
					<trkpt lat="42.974240" lon="11.562190">
						<ele>293</ele>
						<time>2026-05-04T19:42:21Z</time>
					</trkpt>
					<trkpt lat="42.974240" lon="11.561790">
						<ele>289</ele>
						<time>2026-05-04T19:42:26Z</time>
					</trkpt>
					<trkpt lat="42.974180" lon="11.561020">
						<ele>284</ele>
						<time>2026-05-04T19:42:36Z</time>
					</trkpt>
					<trkpt lat="42.974160" lon="11.560880">
						<ele>283</ele>
						<time>2026-05-04T19:42:38Z</time>
					</trkpt>
					<trkpt lat="42.974130" lon="11.560750">
						<ele>282</ele>
						<time>2026-05-04T19:42:40Z</time>
					</trkpt>
					<trkpt lat="42.974080" lon="11.560650">
						<ele>282</ele>
						<time>2026-05-04T19:42:41Z</time>
					</trkpt>
					<trkpt lat="42.973990" lon="11.560580">
						<ele>282</ele>
						<time>2026-05-04T19:42:43Z</time>
					</trkpt>
					<trkpt lat="42.973840" lon="11.560540">
						<ele>283</ele>
						<time>2026-05-04T19:42:46Z</time>
					</trkpt>
					<trkpt lat="42.973410" lon="11.560540">
						<ele>287</ele>
						<time>2026-05-04T19:42:53Z</time>
					</trkpt>
					<trkpt lat="42.973330" lon="11.560520">
						<ele>287</ele>
						<time>2026-05-04T19:42:55Z</time>
					</trkpt>
					<trkpt lat="42.973260" lon="11.560430">
						<ele>288</ele>
						<time>2026-05-04T19:42:57Z</time>
					</trkpt>
					<trkpt lat="42.973240" lon="11.560340">
						<ele>288</ele>
						<time>2026-05-04T19:42:58Z</time>
					</trkpt>
					<trkpt lat="42.973260" lon="11.560240">
						<ele>287</ele>
						<time>2026-05-04T19:42:59Z</time>
					</trkpt>
					<trkpt lat="42.973280" lon="11.560160">
						<ele>287</ele>
						<time>2026-05-04T19:43:00Z</time>
					</trkpt>
					<trkpt lat="42.973810" lon="11.559510">
						<ele>281</ele>
						<time>2026-05-04T19:43:13Z</time>
					</trkpt>
					<trkpt lat="42.974180" lon="11.559340">
						<ele>276</ele>
						<time>2026-05-04T19:43:20Z</time>
					</trkpt>
					<trkpt lat="42.974270" lon="11.559280">
						<ele>275</ele>
						<time>2026-05-04T19:43:22Z</time>
					</trkpt>
					<trkpt lat="42.974330" lon="11.559210">
						<ele>275</ele>
						<time>2026-05-04T19:43:23Z</time>
					</trkpt>
					<trkpt lat="42.974370" lon="11.559140">
						<ele>274</ele>
						<time>2026-05-04T19:43:24Z</time>
					</trkpt>
					<trkpt lat="42.974390" lon="11.559080">
						<ele>275</ele>
						<time>2026-05-04T19:43:25Z</time>
					</trkpt>
					<trkpt lat="42.974410" lon="11.558960">
						<ele>275</ele>
						<time>2026-05-04T19:43:27Z</time>
					</trkpt>
					<trkpt lat="42.974450" lon="11.558830">
						<ele>276</ele>
						<time>2026-05-04T19:43:28Z</time>
					</trkpt>
					<trkpt lat="42.974470" lon="11.558780">
						<ele>276</ele>
						<time>2026-05-04T19:43:29Z</time>
					</trkpt>
					<trkpt lat="42.974530" lon="11.558720">
						<ele>276</ele>
						<time>2026-05-04T19:43:31Z</time>
					</trkpt>
					<trkpt lat="42.974590" lon="11.558690">
						<ele>276</ele>
						<time>2026-05-04T19:43:32Z</time>
					</trkpt>
					<trkpt lat="42.974660" lon="11.558700">
						<ele>275</ele>
						<time>2026-05-04T19:43:33Z</time>
					</trkpt>
					<trkpt lat="42.974710" lon="11.558720">
						<ele>275</ele>
						<time>2026-05-04T19:43:34Z</time>
					</trkpt>
					<trkpt lat="42.974940" lon="11.558910">
						<ele>271</ele>
						<time>2026-05-04T19:43:39Z</time>
					</trkpt>
					<trkpt lat="42.975000" lon="11.558940">
						<ele>270</ele>
						<time>2026-05-04T19:43:40Z</time>
					</trkpt>
					<trkpt lat="42.975100" lon="11.558960">
						<ele>269</ele>
						<time>2026-05-04T19:43:42Z</time>
					</trkpt>
					<trkpt lat="42.975160" lon="11.558960">
						<ele>268</ele>
						<time>2026-05-04T19:43:43Z</time>
					</trkpt>
					<trkpt lat="42.975250" lon="11.558930">
						<ele>268</ele>
						<time>2026-05-04T19:43:44Z</time>
					</trkpt>
					<trkpt lat="42.975440" lon="11.558760">
						<ele>270</ele>
						<time>2026-05-04T19:43:48Z</time>
					</trkpt>
					<trkpt lat="42.975580" lon="11.558650">
						<ele>271</ele>
						<time>2026-05-04T19:43:51Z</time>
					</trkpt>
					<trkpt lat="42.975760" lon="11.558620">
						<ele>270</ele>
						<time>2026-05-04T19:43:54Z</time>
					</trkpt>
					<trkpt lat="42.976340" lon="11.558670">
						<ele>262</ele>
						<time>2026-05-04T19:44:05Z</time>
					</trkpt>
					<trkpt lat="42.976500" lon="11.558660">
						<ele>261</ele>
						<time>2026-05-04T19:44:08Z</time>
					</trkpt>
					<trkpt lat="42.976650" lon="11.558590">
						<ele>260</ele>
						<time>2026-05-04T19:44:10Z</time>
					</trkpt>
					<trkpt lat="42.976890" lon="11.558370">
						<ele>260</ele>
						<time>2026-05-04T19:44:16Z</time>
					</trkpt>
					<trkpt lat="42.977020" lon="11.558300">
						<ele>260</ele>
						<time>2026-05-04T19:44:18Z</time>
					</trkpt>
					<trkpt lat="42.977170" lon="11.558280">
						<ele>258</ele>
						<time>2026-05-04T19:44:21Z</time>
					</trkpt>
					<trkpt lat="42.977330" lon="11.558320">
						<ele>255</ele>
						<time>2026-05-04T19:44:24Z</time>
					</trkpt>
					<trkpt lat="42.977500" lon="11.558430">
						<ele>251</ele>
						<time>2026-05-04T19:44:27Z</time>
					</trkpt>
					<trkpt lat="42.977620" lon="11.558420">
						<ele>250</ele>
						<time>2026-05-04T19:44:29Z</time>
					</trkpt>
					<trkpt lat="42.977690" lon="11.558350">
						<ele>250</ele>
						<time>2026-05-04T19:44:31Z</time>
					</trkpt>
					<trkpt lat="42.977770" lon="11.558260">
						<ele>250</ele>
						<time>2026-05-04T19:44:33Z</time>
					</trkpt>
					<trkpt lat="42.977950" lon="11.557960">
						<ele>249</ele>
						<time>2026-05-04T19:44:38Z</time>
					</trkpt>
					<trkpt lat="42.978160" lon="11.557670">
						<ele>248</ele>
						<time>2026-05-04T19:44:43Z</time>
					</trkpt>
					<trkpt lat="42.978260" lon="11.557500">
						<ele>247</ele>
						<time>2026-05-04T19:44:46Z</time>
					</trkpt>
					<trkpt lat="42.978340" lon="11.557340">
						<ele>246</ele>
						<time>2026-05-04T19:44:48Z</time>
					</trkpt>
					<trkpt lat="42.978400" lon="11.557180">
						<ele>245</ele>
						<time>2026-05-04T19:44:51Z</time>
					</trkpt>
					<trkpt lat="42.978540" lon="11.556870">
						<ele>243</ele>
						<time>2026-05-04T19:44:55Z</time>
					</trkpt>
					<trkpt lat="42.978730" lon="11.556470">
						<ele>240</ele>
						<time>2026-05-04T19:45:02Z</time>
					</trkpt>
					<trkpt lat="42.978840" lon="11.556310">
						<ele>239</ele>
						<time>2026-05-04T19:45:04Z</time>
					</trkpt>
					<trkpt lat="42.978970" lon="11.556190">
						<ele>237</ele>
						<time>2026-05-04T19:45:07Z</time>
					</trkpt>
					<trkpt lat="42.979130" lon="11.556070">
						<ele>234</ele>
						<time>2026-05-04T19:45:10Z</time>
					</trkpt>
					<trkpt lat="42.979220" lon="11.555960">
						<ele>233</ele>
						<time>2026-05-04T19:45:13Z</time>
					</trkpt>
					<trkpt lat="42.979270" lon="11.555870">
						<ele>232</ele>
						<time>2026-05-04T19:45:14Z</time>
					</trkpt>
					<trkpt lat="42.979300" lon="11.555760">
						<ele>231</ele>
						<time>2026-05-04T19:45:16Z</time>
					</trkpt>
					<trkpt lat="42.979300" lon="11.555660">
						<ele>231</ele>
						<time>2026-05-04T19:45:17Z</time>
					</trkpt>
					<trkpt lat="42.979290" lon="11.555530">
						<ele>230</ele>
						<time>2026-05-04T19:45:19Z</time>
					</trkpt>
					<trkpt lat="42.979160" lon="11.555030">
						<ele>231</ele>
						<time>2026-05-04T19:45:25Z</time>
					</trkpt>
					<trkpt lat="42.979130" lon="11.554810">
						<ele>231</ele>
						<time>2026-05-04T19:45:28Z</time>
					</trkpt>
					<trkpt lat="42.979080" lon="11.554400">
						<ele>231</ele>
						<time>2026-05-04T19:45:34Z</time>
					</trkpt>
					<trkpt lat="42.978990" lon="11.553530">
						<ele>228</ele>
						<time>2026-05-04T19:45:45Z</time>
					</trkpt>
					<trkpt lat="42.978950" lon="11.553350">
						<ele>227</ele>
						<time>2026-05-04T19:45:48Z</time>
					</trkpt>
					<trkpt lat="42.978850" lon="11.553020">
						<ele>224</ele>
						<time>2026-05-04T19:45:52Z</time>
					</trkpt>
					<trkpt lat="42.978800" lon="11.552920">
						<ele>223</ele>
						<time>2026-05-04T19:45:54Z</time>
					</trkpt>
					<trkpt lat="42.978750" lon="11.552850">
						<ele>222</ele>
						<time>2026-05-04T19:45:55Z</time>
					</trkpt>
					<trkpt lat="42.978700" lon="11.552810">
						<ele>221</ele>
						<time>2026-05-04T19:45:56Z</time>
					</trkpt>
					<trkpt lat="42.978640" lon="11.552780">
						<ele>221</ele>
						<time>2026-05-04T19:45:57Z</time>
					</trkpt>
					<trkpt lat="42.978600" lon="11.552770">
						<ele>221</ele>
						<time>2026-05-04T19:45:58Z</time>
					</trkpt>
					<trkpt lat="42.978550" lon="11.552780">
						<ele>221</ele>
						<time>2026-05-04T19:45:59Z</time>
					</trkpt>
					<trkpt lat="42.978480" lon="11.552800">
						<ele>221</ele>
						<time>2026-05-04T19:46:00Z</time>
					</trkpt>
					<trkpt lat="42.978420" lon="11.552830">
						<ele>222</ele>
						<time>2026-05-04T19:46:01Z</time>
					</trkpt>
					<trkpt lat="42.978160" lon="11.553070">
						<ele>226</ele>
						<time>2026-05-04T19:46:07Z</time>
					</trkpt>
					<trkpt lat="42.978020" lon="11.553160">
						<ele>227</ele>
						<time>2026-05-04T19:46:10Z</time>
					</trkpt>
					<trkpt lat="42.977900" lon="11.553190">
						<ele>228</ele>
						<time>2026-05-04T19:46:12Z</time>
					</trkpt>
					<trkpt lat="42.977760" lon="11.553210">
						<ele>228</ele>
						<time>2026-05-04T19:46:14Z</time>
					</trkpt>
					<trkpt lat="42.977580" lon="11.553190">
						<ele>227</ele>
						<time>2026-05-04T19:46:18Z</time>
					</trkpt>
					<trkpt lat="42.977480" lon="11.553150">
						<ele>226</ele>
						<time>2026-05-04T19:46:19Z</time>
					</trkpt>
					<trkpt lat="42.977400" lon="11.553080">
						<ele>225</ele>
						<time>2026-05-04T19:46:21Z</time>
					</trkpt>
					<trkpt lat="42.977350" lon="11.553000">
						<ele>224</ele>
						<time>2026-05-04T19:46:23Z</time>
					</trkpt>
					<trkpt lat="42.977220" lon="11.552610">
						<ele>216</ele>
						<time>2026-05-04T19:46:28Z</time>
					</trkpt>
					<trkpt lat="42.977160" lon="11.552540">
						<ele>215</ele>
						<time>2026-05-04T19:46:30Z</time>
					</trkpt>
					<trkpt lat="42.977080" lon="11.552480">
						<ele>215</ele>
						<time>2026-05-04T19:46:31Z</time>
					</trkpt>
					<trkpt lat="42.976990" lon="11.552460">
						<ele>215</ele>
						<time>2026-05-04T19:46:33Z</time>
					</trkpt>
					<trkpt lat="42.976640" lon="11.552440">
						<ele>216</ele>
						<time>2026-05-04T19:46:39Z</time>
					</trkpt>
					<trkpt lat="42.976570" lon="11.552410">
						<ele>216</ele>
						<time>2026-05-04T19:46:40Z</time>
					</trkpt>
					<trkpt lat="42.976190" lon="11.552190">
						<ele>216</ele>
						<time>2026-05-04T19:46:48Z</time>
					</trkpt>
					<trkpt lat="42.975890" lon="11.552070">
						<ele>217</ele>
						<time>2026-05-04T19:46:53Z</time>
					</trkpt>
					<trkpt lat="42.975730" lon="11.551890">
						<ele>219</ele>
						<time>2026-05-04T19:46:57Z</time>
					</trkpt>
					<trkpt lat="42.975700" lon="11.551770">
						<ele>220</ele>
						<time>2026-05-04T19:46:59Z</time>
					</trkpt>
					<trkpt lat="42.975690" lon="11.551700">
						<ele>219</ele>
						<time>2026-05-04T19:46:59Z</time>
					</trkpt>
					<trkpt lat="42.975710" lon="11.551590">
						<ele>219</ele>
						<time>2026-05-04T19:47:01Z</time>
					</trkpt>
					<trkpt lat="42.975770" lon="11.551450">
						<ele>216</ele>
						<time>2026-05-04T19:47:03Z</time>
					</trkpt>
					<trkpt lat="42.975850" lon="11.551310">
						<ele>214</ele>
						<time>2026-05-04T19:47:05Z</time>
					</trkpt>
					<trkpt lat="42.975930" lon="11.551130">
						<ele>212</ele>
						<time>2026-05-04T19:47:08Z</time>
					</trkpt>
					<trkpt lat="42.975950" lon="11.551050">
						<ele>211</ele>
						<time>2026-05-04T19:47:09Z</time>
					</trkpt>
					<trkpt lat="42.975980" lon="11.550870">
						<ele>210</ele>
						<time>2026-05-04T19:47:12Z</time>
					</trkpt>
					<trkpt lat="42.976020" lon="11.550430">
						<ele>211</ele>
						<time>2026-05-04T19:47:17Z</time>
					</trkpt>
					<trkpt lat="42.976030" lon="11.550380">
						<ele>211</ele>
						<time>2026-05-04T19:47:18Z</time>
					</trkpt>
					<trkpt lat="42.976050" lon="11.550310">
						<ele>210</ele>
						<time>2026-05-04T19:47:19Z</time>
					</trkpt>
					<trkpt lat="42.976160" lon="11.550090">
						<ele>208</ele>
						<time>2026-05-04T19:47:23Z</time>
					</trkpt>
					<trkpt lat="42.976260" lon="11.549940">
						<ele>205</ele>
						<time>2026-05-04T19:47:25Z</time>
					</trkpt>
					<trkpt lat="42.976420" lon="11.549630">
						<ele>196</ele>
						<time>2026-05-04T19:47:30Z</time>
					</trkpt>
					<trkpt lat="42.976460" lon="11.549550">
						<ele>194</ele>
						<time>2026-05-04T19:47:31Z</time>
					</trkpt>
					<trkpt lat="42.976480" lon="11.549450">
						<ele>192</ele>
						<time>2026-05-04T19:47:33Z</time>
					</trkpt>
					<trkpt lat="42.976490" lon="11.549370">
						<ele>191</ele>
						<time>2026-05-04T19:47:34Z</time>
					</trkpt>
					<trkpt lat="42.976480" lon="11.549290">
						<ele>191</ele>
						<time>2026-05-04T19:47:35Z</time>
					</trkpt>
					<trkpt lat="42.976460" lon="11.549230">
						<ele>191</ele>
						<time>2026-05-04T19:47:36Z</time>
					</trkpt>
					<trkpt lat="42.976430" lon="11.549170">
						<ele>191</ele>
						<time>2026-05-04T19:47:37Z</time>
					</trkpt>
					<trkpt lat="42.976250" lon="11.548980">
						<ele>193</ele>
						<time>2026-05-04T19:47:41Z</time>
					</trkpt>
					<trkpt lat="42.976090" lon="11.548760">
						<ele>193</ele>
						<time>2026-05-04T19:47:45Z</time>
					</trkpt>
					<trkpt lat="42.976040" lon="11.548680">
						<ele>193</ele>
						<time>2026-05-04T19:47:46Z</time>
					</trkpt>
					<trkpt lat="42.975940" lon="11.548450">
						<ele>190</ele>
						<time>2026-05-04T19:47:50Z</time>
					</trkpt>
					<trkpt lat="42.975900" lon="11.548360">
						<ele>189</ele>
						<time>2026-05-04T19:47:51Z</time>
					</trkpt>
					<trkpt lat="42.975630" lon="11.547980">
						<ele>190</ele>
						<time>2026-05-04T19:47:58Z</time>
					</trkpt>
					<trkpt lat="42.975610" lon="11.547880">
						<ele>189</ele>
						<time>2026-05-04T19:47:59Z</time>
					</trkpt>
					<trkpt lat="42.975600" lon="11.547820">
						<ele>188</ele>
						<time>2026-05-04T19:48:00Z</time>
					</trkpt>
					<trkpt lat="42.975610" lon="11.547760">
						<ele>187</ele>
						<time>2026-05-04T19:48:01Z</time>
					</trkpt>
					<trkpt lat="42.975620" lon="11.547710">
						<ele>186</ele>
						<time>2026-05-04T19:48:01Z</time>
					</trkpt>
					<trkpt lat="42.975660" lon="11.547640">
						<ele>184</ele>
						<time>2026-05-04T19:48:03Z</time>
					</trkpt>
					<trkpt lat="42.975680" lon="11.547600">
						<ele>183</ele>
						<time>2026-05-04T19:48:03Z</time>
					</trkpt>
					<trkpt lat="42.975770" lon="11.547480">
						<ele>181</ele>
						<time>2026-05-04T19:48:05Z</time>
					</trkpt>
					<trkpt lat="42.975870" lon="11.547330">
						<ele>178</ele>
						<time>2026-05-04T19:48:08Z</time>
					</trkpt>
					<trkpt lat="42.976100" lon="11.547040">
						<ele>173</ele>
						<time>2026-05-04T19:48:14Z</time>
					</trkpt>
					<trkpt lat="42.976470" lon="11.546540">
						<ele>171</ele>
						<time>2026-05-04T19:48:23Z</time>
					</trkpt>
					<trkpt lat="42.976510" lon="11.546510">
						<ele>171</ele>
						<time>2026-05-04T19:48:24Z</time>
					</trkpt>
					<trkpt lat="42.976570" lon="11.546510">
						<ele>171</ele>
						<time>2026-05-04T19:48:25Z</time>
					</trkpt>
					<trkpt lat="42.976600" lon="11.546530">
						<ele>171</ele>
						<time>2026-05-04T19:48:25Z</time>
					</trkpt>
					<trkpt lat="42.976630" lon="11.546550">
						<ele>171</ele>
						<time>2026-05-04T19:48:26Z</time>
					</trkpt>
					<trkpt lat="42.976670" lon="11.546590">
						<ele>171</ele>
						<time>2026-05-04T19:48:27Z</time>
					</trkpt>
					<trkpt lat="42.977000" lon="11.547070">
						<ele>172</ele>
						<time>2026-05-04T19:48:35Z</time>
					</trkpt>
					<trkpt lat="42.977040" lon="11.547110">
						<ele>172</ele>
						<time>2026-05-04T19:48:36Z</time>
					</trkpt>
					<trkpt lat="42.977100" lon="11.547140">
						<ele>172</ele>
						<time>2026-05-04T19:48:37Z</time>
					</trkpt>
					<trkpt lat="42.977160" lon="11.547120">
						<ele>173</ele>
						<time>2026-05-04T19:48:39Z</time>
					</trkpt>
					<trkpt lat="42.977190" lon="11.547090">
						<ele>174</ele>
						<time>2026-05-04T19:48:39Z</time>
					</trkpt>
					<trkpt lat="42.977250" lon="11.547000">
						<ele>176</ele>
						<time>2026-05-04T19:48:41Z</time>
					</trkpt>
					<trkpt lat="42.977260" lon="11.546960">
						<ele>176</ele>
						<time>2026-05-04T19:48:41Z</time>
					</trkpt>
					<trkpt lat="42.977270" lon="11.546930">
						<ele>177</ele>
						<time>2026-05-04T19:48:42Z</time>
					</trkpt>
					<trkpt lat="42.977260" lon="11.546860">
						<ele>177</ele>
						<time>2026-05-04T19:48:43Z</time>
					</trkpt>
					<trkpt lat="42.977250" lon="11.546820">
						<ele>178</ele>
						<time>2026-05-04T19:48:43Z</time>
					</trkpt>
					<trkpt lat="42.977130" lon="11.546650">
						<ele>177</ele>
						<time>2026-05-04T19:48:46Z</time>
					</trkpt>
					<trkpt lat="42.977120" lon="11.546600">
						<ele>178</ele>
						<time>2026-05-04T19:48:47Z</time>
					</trkpt>
					<trkpt lat="42.977130" lon="11.546570">
						<ele>178</ele>
						<time>2026-05-04T19:48:47Z</time>
					</trkpt>
					<trkpt lat="42.977150" lon="11.546550">
						<ele>179</ele>
						<time>2026-05-04T19:48:48Z</time>
					</trkpt>
					<trkpt lat="42.977190" lon="11.546560">
						<ele>179</ele>
						<time>2026-05-04T19:48:49Z</time>
					</trkpt>
					<trkpt lat="42.977620" lon="11.547070">
						<ele>179</ele>
						<time>2026-05-04T19:48:59Z</time>
					</trkpt>
					<trkpt lat="42.977680" lon="11.547140">
						<ele>179</ele>
						<time>2026-05-04T19:49:00Z</time>
					</trkpt>
					<trkpt lat="42.977750" lon="11.547190">
						<ele>179</ele>
						<time>2026-05-04T19:49:02Z</time>
					</trkpt>
					<trkpt lat="42.978020" lon="11.547310">
						<ele>180</ele>
						<time>2026-05-04T19:49:07Z</time>
					</trkpt>
					<trkpt lat="42.978160" lon="11.547360">
						<ele>180</ele>
						<time>2026-05-04T19:49:09Z</time>
					</trkpt>
					<trkpt lat="42.978230" lon="11.547360">
						<ele>181</ele>
						<time>2026-05-04T19:49:10Z</time>
					</trkpt>
					<trkpt lat="42.978310" lon="11.547330">
						<ele>182</ele>
						<time>2026-05-04T19:49:12Z</time>
					</trkpt>
					<trkpt lat="42.978360" lon="11.547270">
						<ele>183</ele>
						<time>2026-05-04T19:49:13Z</time>
					</trkpt>
					<trkpt lat="42.978400" lon="11.547160">
						<ele>184</ele>
						<time>2026-05-04T19:49:15Z</time>
					</trkpt>
					<trkpt lat="42.978410" lon="11.547070">
						<ele>185</ele>
						<time>2026-05-04T19:49:16Z</time>
					</trkpt>
					<trkpt lat="42.978400" lon="11.547020">
						<ele>186</ele>
						<time>2026-05-04T19:49:17Z</time>
					</trkpt>
					<trkpt lat="42.978380" lon="11.546960">
						<ele>187</ele>
						<time>2026-05-04T19:49:17Z</time>
					</trkpt>
					<trkpt lat="42.978330" lon="11.546890">
						<ele>187</ele>
						<time>2026-05-04T19:49:19Z</time>
					</trkpt>
					<trkpt lat="42.978260" lon="11.546850">
						<ele>187</ele>
						<time>2026-05-04T19:49:20Z</time>
					</trkpt>
					<trkpt lat="42.978170" lon="11.546840">
						<ele>187</ele>
						<time>2026-05-04T19:49:22Z</time>
					</trkpt>
					<trkpt lat="42.978000" lon="11.546850">
						<ele>185</ele>
						<time>2026-05-04T19:49:25Z</time>
					</trkpt>
					<trkpt lat="42.977940" lon="11.546840">
						<ele>185</ele>
						<time>2026-05-04T19:49:26Z</time>
					</trkpt>
					<trkpt lat="42.977900" lon="11.546810">
						<ele>185</ele>
						<time>2026-05-04T19:49:27Z</time>
					</trkpt>
					<trkpt lat="42.977850" lon="11.546740">
						<ele>185</ele>
						<time>2026-05-04T19:49:28Z</time>
					</trkpt>
					<trkpt lat="42.977810" lon="11.546640">
						<ele>186</ele>
						<time>2026-05-04T19:49:29Z</time>
					</trkpt>
					<trkpt lat="42.977790" lon="11.546530">
						<ele>187</ele>
						<time>2026-05-04T19:49:31Z</time>
					</trkpt>
					<trkpt lat="42.977790" lon="11.546470">
						<ele>188</ele>
						<time>2026-05-04T19:49:32Z</time>
					</trkpt>
					<trkpt lat="42.977800" lon="11.546400">
						<ele>189</ele>
						<time>2026-05-04T19:49:33Z</time>
					</trkpt>
					<trkpt lat="42.977830" lon="11.546320">
						<ele>190</ele>
						<time>2026-05-04T19:49:34Z</time>
					</trkpt>
					<trkpt lat="42.977870" lon="11.546250">
						<ele>191</ele>
						<time>2026-05-04T19:49:35Z</time>
					</trkpt>
					<trkpt lat="42.978450" lon="11.545710">
						<ele>200</ele>
						<time>2026-05-04T19:49:47Z</time>
					</trkpt>
					<trkpt lat="42.978620" lon="11.545530">
						<ele>201</ele>
						<time>2026-05-04T19:49:51Z</time>
					</trkpt>
					<trkpt lat="42.978750" lon="11.545370">
						<ele>202</ele>
						<time>2026-05-04T19:49:54Z</time>
					</trkpt>
					<trkpt lat="42.978940" lon="11.545100">
						<ele>205</ele>
						<time>2026-05-04T19:49:59Z</time>
					</trkpt>
					<trkpt lat="42.978990" lon="11.545050">
						<ele>205</ele>
						<time>2026-05-04T19:50:00Z</time>
					</trkpt>
					<trkpt lat="42.979070" lon="11.545010">
						<ele>206</ele>
						<time>2026-05-04T19:50:02Z</time>
					</trkpt>
					<trkpt lat="42.979650" lon="11.545000">
						<ele>206</ele>
						<time>2026-05-04T19:50:12Z</time>
					</trkpt>
					<trkpt lat="42.979770" lon="11.544990">
						<ele>206</ele>
						<time>2026-05-04T19:50:14Z</time>
					</trkpt>
					<trkpt lat="42.979830" lon="11.544980">
						<ele>206</ele>
						<time>2026-05-04T19:50:15Z</time>
					</trkpt>
					<trkpt lat="42.979880" lon="11.544950">
						<ele>207</ele>
						<time>2026-05-04T19:50:16Z</time>
					</trkpt>
					<trkpt lat="42.979950" lon="11.544900">
						<ele>207</ele>
						<time>2026-05-04T19:50:18Z</time>
					</trkpt>
					<trkpt lat="42.980040" lon="11.544780">
						<ele>209</ele>
						<time>2026-05-04T19:50:20Z</time>
					</trkpt>
					<trkpt lat="42.980270" lon="11.544370">
						<ele>215</ele>
						<time>2026-05-04T19:50:27Z</time>
					</trkpt>
					<trkpt lat="42.980360" lon="11.544230">
						<ele>218</ele>
						<time>2026-05-04T19:50:29Z</time>
					</trkpt>
					<trkpt lat="42.980400" lon="11.544190">
						<ele>219</ele>
						<time>2026-05-04T19:50:30Z</time>
					</trkpt>
					<trkpt lat="42.980460" lon="11.544150">
						<ele>219</ele>
						<time>2026-05-04T19:50:31Z</time>
					</trkpt>
					<trkpt lat="42.980530" lon="11.544150">
						<ele>220</ele>
						<time>2026-05-04T19:50:32Z</time>
					</trkpt>
					<trkpt lat="42.980660" lon="11.544220">
						<ele>219</ele>
						<time>2026-05-04T19:50:35Z</time>
					</trkpt>
					<trkpt lat="42.980720" lon="11.544240">
						<ele>219</ele>
						<time>2026-05-04T19:50:36Z</time>
					</trkpt>
					<trkpt lat="42.980790" lon="11.544240">
						<ele>219</ele>
						<time>2026-05-04T19:50:37Z</time>
					</trkpt>
					<trkpt lat="42.980860" lon="11.544210">
						<ele>220</ele>
						<time>2026-05-04T19:50:38Z</time>
					</trkpt>
					<trkpt lat="42.980940" lon="11.544140">
						<ele>221</ele>
						<time>2026-05-04T19:50:40Z</time>
					</trkpt>
					<trkpt lat="42.981250" lon="11.543720">
						<ele>226</ele>
						<time>2026-05-04T19:50:48Z</time>
					</trkpt>
					<trkpt lat="42.981310" lon="11.543650">
						<ele>227</ele>
						<time>2026-05-04T19:50:49Z</time>
					</trkpt>
					<trkpt lat="42.981360" lon="11.543600">
						<ele>228</ele>
						<time>2026-05-04T19:50:50Z</time>
					</trkpt>
					<trkpt lat="42.981470" lon="11.543540">
						<ele>228</ele>
						<time>2026-05-04T19:50:53Z</time>
					</trkpt>
					<trkpt lat="42.981630" lon="11.543470">
						<ele>229</ele>
						<time>2026-05-04T19:50:56Z</time>
					</trkpt>
					<trkpt lat="42.981980" lon="11.543320">
						<ele>231</ele>
						<time>2026-05-04T19:51:02Z</time>
					</trkpt>
					<trkpt lat="42.982110" lon="11.543250">
						<ele>231</ele>
						<time>2026-05-04T19:51:05Z</time>
					</trkpt>
					<trkpt lat="42.982150" lon="11.543210">
						<ele>232</ele>
						<time>2026-05-04T19:51:05Z</time>
					</trkpt>
					<trkpt lat="42.982210" lon="11.543140">
						<ele>233</ele>
						<time>2026-05-04T19:51:07Z</time>
					</trkpt>
					<trkpt lat="42.982380" lon="11.542790">
						<ele>238</ele>
						<time>2026-05-04T19:51:12Z</time>
					</trkpt>
					<trkpt lat="42.982450" lon="11.542670">
						<ele>239</ele>
						<time>2026-05-04T19:51:14Z</time>
					</trkpt>
					<trkpt lat="42.982530" lon="11.542570">
						<ele>241</ele>
						<time>2026-05-04T19:51:16Z</time>
					</trkpt>
					<trkpt lat="42.982610" lon="11.542520">
						<ele>242</ele>
						<time>2026-05-04T19:51:18Z</time>
					</trkpt>
					<trkpt lat="42.982710" lon="11.542490">
						<ele>242</ele>
						<time>2026-05-04T19:51:20Z</time>
					</trkpt>
					<trkpt lat="42.982820" lon="11.542490">
						<ele>242</ele>
						<time>2026-05-04T19:51:22Z</time>
					</trkpt>
					<trkpt lat="42.982990" lon="11.542520">
						<ele>241</ele>
						<time>2026-05-04T19:51:25Z</time>
					</trkpt>
					<trkpt lat="42.983670" lon="11.542720">
						<ele>240</ele>
						<time>2026-05-04T19:51:37Z</time>
					</trkpt>
					<trkpt lat="42.983730" lon="11.542720">
						<ele>240</ele>
						<time>2026-05-04T19:51:38Z</time>
					</trkpt>
					<trkpt lat="42.983780" lon="11.542700">
						<ele>241</ele>
						<time>2026-05-04T19:51:39Z</time>
					</trkpt>
					<trkpt lat="42.983850" lon="11.542650">
						<ele>241</ele>
						<time>2026-05-04T19:51:40Z</time>
					</trkpt>
					<trkpt lat="42.983920" lon="11.542540">
						<ele>243</ele>
						<time>2026-05-04T19:51:42Z</time>
					</trkpt>
					<trkpt lat="42.984190" lon="11.541920">
						<ele>248</ele>
						<time>2026-05-04T19:51:52Z</time>
					</trkpt>
					<trkpt lat="42.984540" lon="11.541100">
						<ele>252</ele>
						<time>2026-05-04T19:52:04Z</time>
					</trkpt>
					<trkpt lat="42.984590" lon="11.540970">
						<ele>253</ele>
						<time>2026-05-04T19:52:06Z</time>
					</trkpt>
					<trkpt lat="42.984600" lon="11.540900">
						<ele>253</ele>
						<time>2026-05-04T19:52:07Z</time>
					</trkpt>
					<trkpt lat="42.984590" lon="11.540820">
						<ele>254</ele>
						<time>2026-05-04T19:52:08Z</time>
					</trkpt>
					<trkpt lat="42.984550" lon="11.540730">
						<ele>255</ele>
						<time>2026-05-04T19:52:09Z</time>
					</trkpt>
					<trkpt lat="42.984520" lon="11.540690">
						<ele>256</ele>
						<time>2026-05-04T19:52:10Z</time>
					</trkpt>
					<trkpt lat="42.984460" lon="11.540660">
						<ele>257</ele>
						<time>2026-05-04T19:52:11Z</time>
					</trkpt>
					<trkpt lat="42.984330" lon="11.540640">
						<ele>258</ele>
						<time>2026-05-04T19:52:14Z</time>
					</trkpt>
					<trkpt lat="42.982420" lon="11.540550">
						<ele>269</ele>
						<time>2026-05-04T19:52:48Z</time>
					</trkpt>
					<trkpt lat="42.982370" lon="11.540530">
						<ele>269</ele>
						<time>2026-05-04T19:52:48Z</time>
					</trkpt>
					<trkpt lat="42.982320" lon="11.540510">
						<ele>270</ele>
						<time>2026-05-04T19:52:49Z</time>
					</trkpt>
					<trkpt lat="42.982280" lon="11.540460">
						<ele>271</ele>
						<time>2026-05-04T19:52:50Z</time>
					</trkpt>
					<trkpt lat="42.982240" lon="11.540420">
						<ele>272</ele>
						<time>2026-05-04T19:52:51Z</time>
					</trkpt>
					<trkpt lat="42.982210" lon="11.540320">
						<ele>274</ele>
						<time>2026-05-04T19:52:53Z</time>
					</trkpt>
					<trkpt lat="42.982200" lon="11.540190">
						<ele>276</ele>
						<time>2026-05-04T19:52:54Z</time>
					</trkpt>
					<trkpt lat="42.982220" lon="11.540130">
						<ele>277</ele>
						<time>2026-05-04T19:52:55Z</time>
					</trkpt>
					<trkpt lat="42.982240" lon="11.540080">
						<ele>278</ele>
						<time>2026-05-04T19:52:56Z</time>
					</trkpt>
					<trkpt lat="42.982280" lon="11.540030">
						<ele>279</ele>
						<time>2026-05-04T19:52:57Z</time>
					</trkpt>
					<trkpt lat="42.982340" lon="11.539980">
						<ele>279</ele>
						<time>2026-05-04T19:52:58Z</time>
					</trkpt>
					<trkpt lat="42.982420" lon="11.539940">
						<ele>279</ele>
						<time>2026-05-04T19:53:00Z</time>
					</trkpt>
					<trkpt lat="42.982830" lon="11.539770">
						<ele>279</ele>
						<time>2026-05-04T19:53:07Z</time>
					</trkpt>
					<trkpt lat="42.983000" lon="11.539680">
						<ele>279</ele>
						<time>2026-05-04T19:53:11Z</time>
					</trkpt>
					<trkpt lat="42.983150" lon="11.539540">
						<ele>280</ele>
						<time>2026-05-04T19:53:14Z</time>
					</trkpt>
					<trkpt lat="42.983300" lon="11.539330">
						<ele>283</ele>
						<time>2026-05-04T19:53:18Z</time>
					</trkpt>
					<trkpt lat="42.983440" lon="11.539160">
						<ele>285</ele>
						<time>2026-05-04T19:53:21Z</time>
					</trkpt>
					<trkpt lat="42.983540" lon="11.539080">
						<ele>287</ele>
						<time>2026-05-04T19:53:23Z</time>
					</trkpt>
					<trkpt lat="42.983610" lon="11.539030">
						<ele>288</ele>
						<time>2026-05-04T19:53:24Z</time>
					</trkpt>
					<trkpt lat="42.983930" lon="11.538890">
						<ele>291</ele>
						<time>2026-05-04T19:53:30Z</time>
					</trkpt>
					<trkpt lat="42.984150" lon="11.538750">
						<ele>293</ele>
						<time>2026-05-04T19:53:35Z</time>
					</trkpt>
					<trkpt lat="42.984660" lon="11.538280">
						<ele>298</ele>
						<time>2026-05-04T19:53:46Z</time>
					</trkpt>
					<trkpt lat="42.985550" lon="11.537420">
						<ele>312</ele>
						<time>2026-05-04T19:54:05Z</time>
					</trkpt>
					<trkpt lat="42.985690" lon="11.537300">
						<ele>313</ele>
						<time>2026-05-04T19:54:08Z</time>
					</trkpt>
					<trkpt lat="42.985840" lon="11.537190">
						<ele>313</ele>
						<time>2026-05-04T19:54:11Z</time>
					</trkpt>
					<trkpt lat="42.986140" lon="11.537050">
						<ele>314</ele>
						<time>2026-05-04T19:54:17Z</time>
					</trkpt>
					<trkpt lat="42.986230" lon="11.536990">
						<ele>315</ele>
						<time>2026-05-04T19:54:18Z</time>
					</trkpt>
					<trkpt lat="42.986300" lon="11.536920">
						<ele>316</ele>
						<time>2026-05-04T19:54:20Z</time>
					</trkpt>
					<trkpt lat="42.986440" lon="11.536740">
						<ele>319</ele>
						<time>2026-05-04T19:54:23Z</time>
					</trkpt>
					<trkpt lat="42.986520" lon="11.536670">
						<ele>319</ele>
						<time>2026-05-04T19:54:25Z</time>
					</trkpt>
					<trkpt lat="42.986580" lon="11.536650">
						<ele>319</ele>
						<time>2026-05-04T19:54:26Z</time>
					</trkpt>
					<trkpt lat="42.986670" lon="11.536650">
						<ele>318</ele>
						<time>2026-05-04T19:54:28Z</time>
					</trkpt>
					<trkpt lat="42.986720" lon="11.536680">
						<ele>317</ele>
						<time>2026-05-04T19:54:29Z</time>
					</trkpt>
					<trkpt lat="42.986850" lon="11.536790">
						<ele>315</ele>
						<time>2026-05-04T19:54:31Z</time>
					</trkpt>
					<trkpt lat="42.986930" lon="11.536810">
						<ele>314</ele>
						<time>2026-05-04T19:54:33Z</time>
					</trkpt>
					<trkpt lat="42.987010" lon="11.536810">
						<ele>314</ele>
						<time>2026-05-04T19:54:34Z</time>
					</trkpt>
					<trkpt lat="42.987070" lon="11.536780">
						<ele>315</ele>
						<time>2026-05-04T19:54:35Z</time>
					</trkpt>
					<trkpt lat="42.987700" lon="11.536350">
						<ele>321</ele>
						<time>2026-05-04T19:54:48Z</time>
					</trkpt>
					<trkpt lat="42.987760" lon="11.536300">
						<ele>321</ele>
						<time>2026-05-04T19:54:49Z</time>
					</trkpt>
					<trkpt lat="42.987830" lon="11.536210">
						<ele>321</ele>
						<time>2026-05-04T19:54:51Z</time>
					</trkpt>
					<trkpt lat="42.987860" lon="11.536130">
						<ele>322</ele>
						<time>2026-05-04T19:54:52Z</time>
					</trkpt>
					<trkpt lat="42.987880" lon="11.536060">
						<ele>323</ele>
						<time>2026-05-04T19:54:53Z</time>
					</trkpt>
					<trkpt lat="42.987890" lon="11.535970">
						<ele>325</ele>
						<time>2026-05-04T19:54:54Z</time>
					</trkpt>
					<trkpt lat="42.987880" lon="11.535830">
						<ele>328</ele>
						<time>2026-05-04T19:54:56Z</time>
					</trkpt>
					<trkpt lat="42.987740" lon="11.535220">
						<ele>339</ele>
						<time>2026-05-04T19:55:04Z</time>
					</trkpt>
					<trkpt lat="42.987700" lon="11.534950">
						<ele>342</ele>
						<time>2026-05-04T19:55:08Z</time>
					</trkpt>
					<trkpt lat="42.987590" lon="11.533650">
						<ele>346</ele>
						<time>2026-05-04T19:55:25Z</time>
					</trkpt>
					<trkpt lat="42.987590" lon="11.533560">
						<ele>346</ele>
						<time>2026-05-04T19:55:26Z</time>
					</trkpt>
					<trkpt lat="42.987590" lon="11.533470">
						<ele>346</ele>
						<time>2026-05-04T19:55:27Z</time>
					</trkpt>
					<trkpt lat="42.987610" lon="11.533420">
						<ele>347</ele>
						<time>2026-05-04T19:55:28Z</time>
					</trkpt>
					<trkpt lat="42.987640" lon="11.533350">
						<ele>347</ele>
						<time>2026-05-04T19:55:29Z</time>
					</trkpt>
					<trkpt lat="42.988190" lon="11.532440">
						<ele>350</ele>
						<time>2026-05-04T19:55:45Z</time>
					</trkpt>
					<trkpt lat="42.988270" lon="11.532310">
						<ele>350</ele>
						<time>2026-05-04T19:55:47Z</time>
					</trkpt>
					<trkpt lat="42.988340" lon="11.532230">
						<ele>351</ele>
						<time>2026-05-04T19:55:48Z</time>
					</trkpt>
					<trkpt lat="42.988390" lon="11.532180">
						<ele>351</ele>
						<time>2026-05-04T19:55:50Z</time>
					</trkpt>
					<trkpt lat="42.988490" lon="11.532120">
						<ele>351</ele>
						<time>2026-05-04T19:55:51Z</time>
					</trkpt>
					<trkpt lat="42.988940" lon="11.531890">
						<ele>352</ele>
						<time>2026-05-04T19:56:00Z</time>
					</trkpt>
					<trkpt lat="42.989290" lon="11.531740">
						<ele>354</ele>
						<time>2026-05-04T19:56:07Z</time>
					</trkpt>
					<trkpt lat="42.989340" lon="11.531710">
						<ele>354</ele>
						<time>2026-05-04T19:56:08Z</time>
					</trkpt>
					<trkpt lat="42.989430" lon="11.531600">
						<ele>355</ele>
						<time>2026-05-04T19:56:10Z</time>
					</trkpt>
					<trkpt lat="42.989610" lon="11.531340">
						<ele>355</ele>
						<time>2026-05-04T19:56:14Z</time>
					</trkpt>
					<trkpt lat="42.989690" lon="11.531230">
						<ele>356</ele>
						<time>2026-05-04T19:56:16Z</time>
					</trkpt>
					<trkpt lat="42.989760" lon="11.531080">
						<ele>358</ele>
						<time>2026-05-04T19:56:19Z</time>
					</trkpt>
					<trkpt lat="42.989820" lon="11.530940">
						<ele>359</ele>
						<time>2026-05-04T19:56:21Z</time>
					</trkpt>
					<trkpt lat="42.989870" lon="11.530720">
						<ele>361</ele>
						<time>2026-05-04T19:56:24Z</time>
					</trkpt>
					<trkpt lat="42.989900" lon="11.530470">
						<ele>361</ele>
						<time>2026-05-04T19:56:27Z</time>
					</trkpt>
					<trkpt lat="42.989920" lon="11.530030">
						<ele>360</ele>
						<time>2026-05-04T19:56:33Z</time>
					</trkpt>
					<trkpt lat="42.989940" lon="11.529680">
						<ele>360</ele>
						<time>2026-05-04T19:56:37Z</time>
					</trkpt>
					<trkpt lat="42.989990" lon="11.529440">
						<ele>361</ele>
						<time>2026-05-04T19:56:41Z</time>
					</trkpt>
					<trkpt lat="42.990080" lon="11.529090">
						<ele>361</ele>
						<time>2026-05-04T19:56:45Z</time>
					</trkpt>
					<trkpt lat="42.990120" lon="11.528970">
						<ele>361</ele>
						<time>2026-05-04T19:56:47Z</time>
					</trkpt>
					<trkpt lat="42.990180" lon="11.528810">
						<ele>361</ele>
						<time>2026-05-04T19:56:49Z</time>
					</trkpt>
					<trkpt lat="42.990370" lon="11.528510">
						<ele>362</ele>
						<time>2026-05-04T19:56:55Z</time>
					</trkpt>
					<trkpt lat="42.990470" lon="11.528320">
						<ele>362</ele>
						<time>2026-05-04T19:56:58Z</time>
					</trkpt>
					<trkpt lat="42.990750" lon="11.527650">
						<ele>359</ele>
						<time>2026-05-04T19:57:08Z</time>
					</trkpt>
					<trkpt lat="42.990830" lon="11.527470">
						<ele>358</ele>
						<time>2026-05-04T19:57:10Z</time>
					</trkpt>
					<trkpt lat="42.990930" lon="11.527320">
						<ele>357</ele>
						<time>2026-05-04T19:57:13Z</time>
					</trkpt>
					<trkpt lat="42.991020" lon="11.527210">
						<ele>357</ele>
						<time>2026-05-04T19:57:15Z</time>
					</trkpt>
					<trkpt lat="42.991150" lon="11.527090">
						<ele>357</ele>
						<time>2026-05-04T19:57:18Z</time>
					</trkpt>
					<trkpt lat="42.991360" lon="11.526940">
						<ele>357</ele>
						<time>2026-05-04T19:57:22Z</time>
					</trkpt>
					<trkpt lat="42.991600" lon="11.526810">
						<ele>357</ele>
						<time>2026-05-04T19:57:27Z</time>
					</trkpt>
					<trkpt lat="42.992300" lon="11.526490">
						<ele>357</ele>
						<time>2026-05-04T19:57:40Z</time>
					</trkpt>
					<trkpt lat="42.992470" lon="11.526410">
						<ele>358</ele>
						<time>2026-05-04T19:57:43Z</time>
					</trkpt>
					<trkpt lat="42.992530" lon="11.526350">
						<ele>358</ele>
						<time>2026-05-04T19:57:45Z</time>
					</trkpt>
					<trkpt lat="42.992610" lon="11.526240">
						<ele>359</ele>
						<time>2026-05-04T19:57:47Z</time>
					</trkpt>
					<trkpt lat="42.992640" lon="11.526140">
						<ele>360</ele>
						<time>2026-05-04T19:57:48Z</time>
					</trkpt>
					<trkpt lat="42.992680" lon="11.525950">
						<ele>360</ele>
						<time>2026-05-04T19:57:51Z</time>
					</trkpt>
					<trkpt lat="42.992680" lon="11.525850">
						<ele>360</ele>
						<time>2026-05-04T19:57:52Z</time>
					</trkpt>
					<trkpt lat="42.992660" lon="11.525740">
						<ele>360</ele>
						<time>2026-05-04T19:57:53Z</time>
					</trkpt>
					<trkpt lat="42.992640" lon="11.525660">
						<ele>361</ele>
						<time>2026-05-04T19:57:54Z</time>
					</trkpt>
					<trkpt lat="42.992600" lon="11.525590">
						<ele>360</ele>
						<time>2026-05-04T19:57:56Z</time>
					</trkpt>
					<trkpt lat="42.992410" lon="11.525290">
						<ele>359</ele>
						<time>2026-05-04T19:58:01Z</time>
					</trkpt>
					<trkpt lat="42.992350" lon="11.525180">
						<ele>358</ele>
						<time>2026-05-04T19:58:03Z</time>
					</trkpt>
					<trkpt lat="42.992280" lon="11.525010">
						<ele>357</ele>
						<time>2026-05-04T19:58:05Z</time>
					</trkpt>
					<trkpt lat="42.992260" lon="11.524920">
						<ele>356</ele>
						<time>2026-05-04T19:58:06Z</time>
					</trkpt>
					<trkpt lat="42.992250" lon="11.524760">
						<ele>354</ele>
						<time>2026-05-04T19:58:08Z</time>
					</trkpt>
					<trkpt lat="42.992260" lon="11.524630">
						<ele>353</ele>
						<time>2026-05-04T19:58:10Z</time>
					</trkpt>
					<trkpt lat="42.992280" lon="11.524550">
						<ele>353</ele>
						<time>2026-05-04T19:58:11Z</time>
					</trkpt>
					<trkpt lat="42.992330" lon="11.524430">
						<ele>353</ele>
						<time>2026-05-04T19:58:13Z</time>
					</trkpt>
					<trkpt lat="42.992380" lon="11.524340">
						<ele>354</ele>
						<time>2026-05-04T19:58:14Z</time>
					</trkpt>
					<trkpt lat="42.992480" lon="11.524210">
						<ele>355</ele>
						<time>2026-05-04T19:58:17Z</time>
					</trkpt>
					<trkpt lat="42.992770" lon="11.523860">
						<ele>356</ele>
						<time>2026-05-04T19:58:24Z</time>
					</trkpt>
					<trkpt lat="42.992910" lon="11.523630">
						<ele>355</ele>
						<time>2026-05-04T19:58:28Z</time>
					</trkpt>
					<trkpt lat="42.993030" lon="11.523380">
						<ele>354</ele>
						<time>2026-05-04T19:58:32Z</time>
					</trkpt>
					<trkpt lat="42.993350" lon="11.522490">
						<ele>348</ele>
						<time>2026-05-04T19:58:44Z</time>
					</trkpt>
					<trkpt lat="42.993410" lon="11.522300">
						<ele>348</ele>
						<time>2026-05-04T19:58:47Z</time>
					</trkpt>
					<trkpt lat="42.993490" lon="11.521920">
						<ele>347</ele>
						<time>2026-05-04T19:58:52Z</time>
					</trkpt>
					<trkpt lat="42.993550" lon="11.521710">
						<ele>346</ele>
						<time>2026-05-04T19:58:55Z</time>
					</trkpt>
					<trkpt lat="42.993660" lon="11.521410">
						<ele>347</ele>
						<time>2026-05-04T19:59:00Z</time>
					</trkpt>
					<trkpt lat="42.993770" lon="11.521180">
						<ele>347</ele>
						<time>2026-05-04T19:59:03Z</time>
					</trkpt>
					<trkpt lat="42.993900" lon="11.520980">
						<ele>349</ele>
						<time>2026-05-04T19:59:07Z</time>
					</trkpt>
					<trkpt lat="42.994450" lon="11.520250">
						<ele>348</ele>
						<time>2026-05-04T19:59:20Z</time>
					</trkpt>
					<trkpt lat="42.994570" lon="11.520100">
						<ele>347</ele>
						<time>2026-05-04T19:59:23Z</time>
					</trkpt>
					<trkpt lat="42.994830" lon="11.519830">
						<ele>347</ele>
						<time>2026-05-04T19:59:29Z</time>
					</trkpt>
					<trkpt lat="42.994860" lon="11.519810">
						<ele>347</ele>
						<time>2026-05-04T19:59:30Z</time>
					</trkpt>
					<trkpt lat="42.994840" lon="11.519720">
						<ele>347</ele>
						<time>2026-05-04T19:59:31Z</time>
					</trkpt>
					<trkpt lat="42.994800" lon="11.519610">
						<ele>347</ele>
						<time>2026-05-04T19:59:32Z</time>
					</trkpt>
					<trkpt lat="42.994710" lon="11.519470">
						<ele>347</ele>
						<time>2026-05-04T19:59:35Z</time>
					</trkpt>
					<trkpt lat="42.994590" lon="11.519240">
						<ele>348</ele>
						<time>2026-05-04T19:59:39Z</time>
					</trkpt>
					<trkpt lat="42.994400" lon="11.518720">
						<ele>354</ele>
						<time>2026-05-04T19:59:46Z</time>
					</trkpt>
					<trkpt lat="42.994340" lon="11.518520">
						<ele>356</ele>
						<time>2026-05-04T19:59:49Z</time>
					</trkpt>
					<trkpt lat="42.994290" lon="11.518360">
						<ele>358</ele>
						<time>2026-05-04T19:59:51Z</time>
					</trkpt>
					<trkpt lat="42.994230" lon="11.518210">
						<ele>359</ele>
						<time>2026-05-04T19:59:53Z</time>
					</trkpt>
					<trkpt lat="42.994290" lon="11.518110">
						<ele>360</ele>
						<time>2026-05-04T19:59:55Z</time>
					</trkpt>
					<trkpt lat="42.994440" lon="11.517690">
						<ele>365</ele>
						<time>2026-05-04T20:00:01Z</time>
					</trkpt>
					<trkpt lat="42.994500" lon="11.517510">
						<ele>368</ele>
						<time>2026-05-04T20:00:04Z</time>
					</trkpt>
					<trkpt lat="42.994470" lon="11.517430">
						<ele>369</ele>
						<time>2026-05-04T20:00:05Z</time>
					</trkpt>
					<trkpt lat="42.994460" lon="11.517310">
						<ele>369</ele>
						<time>2026-05-04T20:00:06Z</time>
					</trkpt>
					<trkpt lat="42.994420" lon="11.516730">
						<ele>373</ele>
						<time>2026-05-04T20:00:14Z</time>
					</trkpt>
					<trkpt lat="42.994420" lon="11.516650">
						<ele>373</ele>
						<time>2026-05-04T20:00:15Z</time>
					</trkpt>
					<trkpt lat="42.994420" lon="11.516540">
						<ele>372</ele>
						<time>2026-05-04T20:00:17Z</time>
					</trkpt>
					<trkpt lat="42.994450" lon="11.516420">
						<ele>370</ele>
						<time>2026-05-04T20:00:18Z</time>
					</trkpt>
					<trkpt lat="42.994550" lon="11.516130">
						<ele>369</ele>
						<time>2026-05-04T20:00:22Z</time>
					</trkpt>
					<trkpt lat="42.994580" lon="11.516070">
						<ele>368</ele>
						<time>2026-05-04T20:00:23Z</time>
					</trkpt>
					<trkpt lat="42.994610" lon="11.516030">
						<ele>369</ele>
						<time>2026-05-04T20:00:24Z</time>
					</trkpt>
					<trkpt lat="42.994670" lon="11.515980">
						<ele>369</ele>
						<time>2026-05-04T20:00:25Z</time>
					</trkpt>
					<trkpt lat="42.994720" lon="11.515950">
						<ele>370</ele>
						<time>2026-05-04T20:00:26Z</time>
					</trkpt>
					<trkpt lat="42.994880" lon="11.515910">
						<ele>373</ele>
						<time>2026-05-04T20:00:29Z</time>
					</trkpt>
					<trkpt lat="42.994980" lon="11.515880">
						<ele>375</ele>
						<time>2026-05-04T20:00:31Z</time>
					</trkpt>
					<trkpt lat="42.995050" lon="11.515880">
						<ele>375</ele>
						<time>2026-05-04T20:00:32Z</time>
					</trkpt>
					<trkpt lat="42.995150" lon="11.515890">
						<ele>375</ele>
						<time>2026-05-04T20:00:34Z</time>
					</trkpt>
					<trkpt lat="42.995300" lon="11.515990">
						<ele>375</ele>
						<time>2026-05-04T20:00:37Z</time>
					</trkpt>
					<trkpt lat="42.995340" lon="11.516020">
						<ele>375</ele>
						<time>2026-05-04T20:00:38Z</time>
					</trkpt>
					<trkpt lat="42.995420" lon="11.516110">
						<ele>374</ele>
						<time>2026-05-04T20:00:40Z</time>
					</trkpt>
					<trkpt lat="42.995290" lon="11.516310">
						<ele>376</ele>
						<time>2026-05-04T20:00:43Z</time>
					</trkpt>
					<trkpt lat="42.995140" lon="11.516550">
						<ele>380</ele>
						<time>2026-05-04T20:00:47Z</time>
					</trkpt>
					<trkpt lat="42.995070" lon="11.516670">
						<ele>382</ele>
						<time>2026-05-04T20:00:49Z</time>
					</trkpt>
					<trkpt lat="42.995010" lon="11.516780">
						<ele>382</ele>
						<time>2026-05-04T20:00:51Z</time>
					</trkpt>
					<trkpt lat="42.994990" lon="11.516820">
						<ele>381</ele>
						<time>2026-05-04T20:00:52Z</time>
					</trkpt>
					<trkpt lat="42.994830" lon="11.517110">
						<ele>376</ele>
						<time>2026-05-04T20:00:56Z</time>
					</trkpt>
					<trkpt lat="42.994740" lon="11.517240">
						<ele>374</ele>
						<time>2026-05-04T20:00:59Z</time>
					</trkpt>
					<trkpt lat="42.994740" lon="11.517250">
						<ele>374</ele>
						<time>2026-05-04T20:00:59Z</time>
					</trkpt>
					<trkpt lat="42.994730" lon="11.517260">
						<ele>373</ele>
						<time>2026-05-04T20:00:59Z</time>
					</trkpt>
					<trkpt lat="42.994680" lon="11.517310">
						<ele>372</ele>
						<time>2026-05-04T20:01:00Z</time>
					</trkpt>
					<trkpt lat="42.994660" lon="11.517340">
						<ele>372</ele>
						<time>2026-05-04T20:01:01Z</time>
					</trkpt>
					<trkpt lat="42.994610" lon="11.517410">
						<ele>371</ele>
						<time>2026-05-04T20:01:02Z</time>
					</trkpt>
					<trkpt lat="42.994590" lon="11.517430">
						<ele>370</ele>
						<time>2026-05-04T20:01:02Z</time>
					</trkpt>
					<trkpt lat="42.994540" lon="11.517480">
						<ele>369</ele>
						<time>2026-05-04T20:01:03Z</time>
					</trkpt>
					<trkpt lat="42.994500" lon="11.517510">
						<ele>368</ele>
						<time>2026-05-04T20:01:04Z</time>
					</trkpt>
					<trkpt lat="42.994440" lon="11.517690">
						<ele>365</ele>
						<time>2026-05-04T20:01:07Z</time>
					</trkpt>
					<trkpt lat="42.994290" lon="11.518110">
						<ele>360</ele>
						<time>2026-05-04T20:01:13Z</time>
					</trkpt>
					<trkpt lat="42.994230" lon="11.518210">
						<ele>359</ele>
						<time>2026-05-04T20:01:15Z</time>
					</trkpt>
					<trkpt lat="42.994290" lon="11.518360">
						<ele>358</ele>
						<time>2026-05-04T20:01:17Z</time>
					</trkpt>
					<trkpt lat="42.994340" lon="11.518520">
						<ele>356</ele>
						<time>2026-05-04T20:01:19Z</time>
					</trkpt>
					<trkpt lat="42.994400" lon="11.518720">
						<ele>354</ele>
						<time>2026-05-04T20:01:22Z</time>
					</trkpt>
					<trkpt lat="42.994590" lon="11.519240">
						<ele>348</ele>
						<time>2026-05-04T20:01:30Z</time>
					</trkpt>
					<trkpt lat="42.994710" lon="11.519470">
						<ele>347</ele>
						<time>2026-05-04T20:01:33Z</time>
					</trkpt>
					<trkpt lat="42.994800" lon="11.519610">
						<ele>347</ele>
						<time>2026-05-04T20:01:36Z</time>
					</trkpt>
					<trkpt lat="42.994880" lon="11.519510">
						<ele>346</ele>
						<time>2026-05-04T20:01:38Z</time>
					</trkpt>
					<trkpt lat="42.995000" lon="11.519260">
						<ele>345</ele>
						<time>2026-05-04T20:01:41Z</time>
					</trkpt>
					<trkpt lat="42.995070" lon="11.519150">
						<ele>344</ele>
						<time>2026-05-04T20:01:43Z</time>
					</trkpt>
					<trkpt lat="42.995110" lon="11.519090">
						<ele>345</ele>
						<time>2026-05-04T20:01:44Z</time>
					</trkpt>
					<trkpt lat="42.995160" lon="11.519040">
						<ele>344</ele>
						<time>2026-05-04T20:01:45Z</time>
					</trkpt>
					<trkpt lat="42.995280" lon="11.518970">
						<ele>344</ele>
						<time>2026-05-04T20:01:48Z</time>
					</trkpt>
					<trkpt lat="42.995330" lon="11.518950">
						<ele>343</ele>
						<time>2026-05-04T20:01:49Z</time>
					</trkpt>
					<trkpt lat="42.995380" lon="11.518940">
						<ele>342</ele>
						<time>2026-05-04T20:01:50Z</time>
					</trkpt>
					<trkpt lat="42.995480" lon="11.518960">
						<ele>340</ele>
						<time>2026-05-04T20:01:51Z</time>
					</trkpt>
					<trkpt lat="42.995520" lon="11.518980">
						<ele>340</ele>
						<time>2026-05-04T20:01:52Z</time>
					</trkpt>
					<trkpt lat="42.995560" lon="11.519020">
						<ele>339</ele>
						<time>2026-05-04T20:01:53Z</time>
					</trkpt>
					<trkpt lat="42.995690" lon="11.519240">
						<ele>336</ele>
						<time>2026-05-04T20:01:57Z</time>
					</trkpt>
					<trkpt lat="42.995830" lon="11.519510">
						<ele>336</ele>
						<time>2026-05-04T20:02:01Z</time>
					</trkpt>
					<trkpt lat="42.996120" lon="11.520040">
						<ele>335</ele>
						<time>2026-05-04T20:02:10Z</time>
					</trkpt>
					<trkpt lat="42.996270" lon="11.520180">
						<ele>334</ele>
						<time>2026-05-04T20:02:13Z</time>
					</trkpt>
					<trkpt lat="42.996330" lon="11.520210">
						<ele>333</ele>
						<time>2026-05-04T20:02:14Z</time>
					</trkpt>
					<trkpt lat="42.996410" lon="11.520230">
						<ele>332</ele>
						<time>2026-05-04T20:02:15Z</time>
					</trkpt>
					<trkpt lat="42.996540" lon="11.520230">
						<ele>330</ele>
						<time>2026-05-04T20:02:18Z</time>
					</trkpt>
					<trkpt lat="42.996620" lon="11.520220">
						<ele>329</ele>
						<time>2026-05-04T20:02:19Z</time>
					</trkpt>
					<trkpt lat="42.996710" lon="11.520200">
						<ele>328</ele>
						<time>2026-05-04T20:02:21Z</time>
					</trkpt>
					<trkpt lat="42.996810" lon="11.520150">
						<ele>326</ele>
						<time>2026-05-04T20:02:23Z</time>
					</trkpt>
					<trkpt lat="42.997240" lon="11.519850">
						<ele>319</ele>
						<time>2026-05-04T20:02:31Z</time>
					</trkpt>
					<trkpt lat="42.998010" lon="11.519300">
						<ele>308</ele>
						<time>2026-05-04T20:02:47Z</time>
					</trkpt>
					<trkpt lat="42.998320" lon="11.519070">
						<ele>305</ele>
						<time>2026-05-04T20:02:53Z</time>
					</trkpt>
					<trkpt lat="42.998790" lon="11.518750">
						<ele>304</ele>
						<time>2026-05-04T20:03:02Z</time>
					</trkpt>
					<trkpt lat="43.000340" lon="11.517630">
						<ele>315</ele>
						<time>2026-05-04T20:03:34Z</time>
					</trkpt>
					<trkpt lat="43.000430" lon="11.517550">
						<ele>316</ele>
						<time>2026-05-04T20:03:36Z</time>
					</trkpt>
					<trkpt lat="43.000510" lon="11.517440">
						<ele>318</ele>
						<time>2026-05-04T20:03:38Z</time>
					</trkpt>
					<trkpt lat="43.000560" lon="11.517350">
						<ele>318</ele>
						<time>2026-05-04T20:03:39Z</time>
					</trkpt>
					<trkpt lat="43.000580" lon="11.517270">
						<ele>319</ele>
						<time>2026-05-04T20:03:40Z</time>
					</trkpt>
					<trkpt lat="43.000570" lon="11.517160">
						<ele>319</ele>
						<time>2026-05-04T20:03:42Z</time>
					</trkpt>
					<trkpt lat="43.000460" lon="11.516810">
						<ele>320</ele>
						<time>2026-05-04T20:03:47Z</time>
					</trkpt>
					<trkpt lat="43.000460" lon="11.516810">
						<ele>320</ele>
						<time>2026-05-04T20:03:47Z</time>
					</trkpt>
					<trkpt lat="43.000310" lon="11.516390">
						<ele>320</ele>
						<time>2026-05-04T20:03:53Z</time>
					</trkpt>
					<trkpt lat="43.000070" lon="11.515720">
						<ele>321</ele>
						<time>2026-05-04T20:04:02Z</time>
					</trkpt>
					<trkpt lat="43.000310" lon="11.516390">
						<ele>320</ele>
						<time>2026-05-04T20:04:12Z</time>
					</trkpt>
					<trkpt lat="43.000460" lon="11.516810">
						<ele>320</ele>
						<time>2026-05-04T20:04:18Z</time>
					</trkpt>
					<trkpt lat="43.000460" lon="11.516810">
						<ele>320</ele>
						<time>2026-05-04T20:04:18Z</time>
					</trkpt>
					<trkpt lat="43.000570" lon="11.517160">
						<ele>319</ele>
						<time>2026-05-04T20:04:23Z</time>
					</trkpt>
					<trkpt lat="43.000580" lon="11.517270">
						<ele>319</ele>
						<time>2026-05-04T20:04:24Z</time>
					</trkpt>
					<trkpt lat="43.000560" lon="11.517350">
						<ele>318</ele>
						<time>2026-05-04T20:04:26Z</time>
					</trkpt>
					<trkpt lat="43.000510" lon="11.517440">
						<ele>318</ele>
						<time>2026-05-04T20:04:27Z</time>
					</trkpt>
					<trkpt lat="43.000430" lon="11.517550">
						<ele>316</ele>
						<time>2026-05-04T20:04:29Z</time>
					</trkpt>
					<trkpt lat="43.000340" lon="11.517630">
						<ele>315</ele>
						<time>2026-05-04T20:04:31Z</time>
					</trkpt>
					<trkpt lat="42.998790" lon="11.518750">
						<ele>304</ele>
						<time>2026-05-04T20:05:02Z</time>
					</trkpt>
					<trkpt lat="42.998320" lon="11.519070">
						<ele>305</ele>
						<time>2026-05-04T20:05:12Z</time>
					</trkpt>
					<trkpt lat="42.998010" lon="11.519300">
						<ele>308</ele>
						<time>2026-05-04T20:05:18Z</time>
					</trkpt>
					<trkpt lat="42.997240" lon="11.519850">
						<ele>319</ele>
						<time>2026-05-04T20:05:33Z</time>
					</trkpt>
					<trkpt lat="42.996810" lon="11.520150">
						<ele>326</ele>
						<time>2026-05-04T20:05:42Z</time>
					</trkpt>
					<trkpt lat="42.996710" lon="11.520200">
						<ele>328</ele>
						<time>2026-05-04T20:05:44Z</time>
					</trkpt>
					<trkpt lat="42.996620" lon="11.520220">
						<ele>329</ele>
						<time>2026-05-04T20:05:45Z</time>
					</trkpt>
					<trkpt lat="42.996540" lon="11.520230">
						<ele>330</ele>
						<time>2026-05-04T20:05:47Z</time>
					</trkpt>
					<trkpt lat="42.996410" lon="11.520230">
						<ele>332</ele>
						<time>2026-05-04T20:05:49Z</time>
					</trkpt>
					<trkpt lat="42.996330" lon="11.520210">
						<ele>333</ele>
						<time>2026-05-04T20:05:51Z</time>
					</trkpt>
					<trkpt lat="42.996270" lon="11.520180">
						<ele>334</ele>
						<time>2026-05-04T20:05:52Z</time>
					</trkpt>
					<trkpt lat="42.996120" lon="11.520040">
						<ele>335</ele>
						<time>2026-05-04T20:05:55Z</time>
					</trkpt>
					<trkpt lat="42.995830" lon="11.519510">
						<ele>336</ele>
						<time>2026-05-04T20:06:04Z</time>
					</trkpt>
					<trkpt lat="42.995690" lon="11.519240">
						<ele>336</ele>
						<time>2026-05-04T20:06:08Z</time>
					</trkpt>
					<trkpt lat="42.995560" lon="11.519020">
						<ele>339</ele>
						<time>2026-05-04T20:06:12Z</time>
					</trkpt>
					<trkpt lat="42.995520" lon="11.518980">
						<ele>340</ele>
						<time>2026-05-04T20:06:12Z</time>
					</trkpt>
					<trkpt lat="42.995480" lon="11.518960">
						<ele>340</ele>
						<time>2026-05-04T20:06:13Z</time>
					</trkpt>
					<trkpt lat="42.995380" lon="11.518940">
						<ele>342</ele>
						<time>2026-05-04T20:06:15Z</time>
					</trkpt>
					<trkpt lat="42.995330" lon="11.518950">
						<ele>343</ele>
						<time>2026-05-04T20:06:16Z</time>
					</trkpt>
					<trkpt lat="42.995280" lon="11.518970">
						<ele>344</ele>
						<time>2026-05-04T20:06:17Z</time>
					</trkpt>
					<trkpt lat="42.995160" lon="11.519040">
						<ele>344</ele>
						<time>2026-05-04T20:06:19Z</time>
					</trkpt>
					<trkpt lat="42.995110" lon="11.519090">
						<ele>345</ele>
						<time>2026-05-04T20:06:20Z</time>
					</trkpt>
					<trkpt lat="42.995070" lon="11.519150">
						<ele>344</ele>
						<time>2026-05-04T20:06:21Z</time>
					</trkpt>
					<trkpt lat="42.995000" lon="11.519260">
						<ele>345</ele>
						<time>2026-05-04T20:06:23Z</time>
					</trkpt>
					<trkpt lat="42.994880" lon="11.519510">
						<ele>346</ele>
						<time>2026-05-04T20:06:27Z</time>
					</trkpt>
					<trkpt lat="42.994800" lon="11.519610">
						<ele>347</ele>
						<time>2026-05-04T20:06:29Z</time>
					</trkpt>
					<trkpt lat="42.994840" lon="11.519720">
						<ele>347</ele>
						<time>2026-05-04T20:06:31Z</time>
					</trkpt>
					<trkpt lat="42.994860" lon="11.519810">
						<ele>347</ele>
						<time>2026-05-04T20:06:32Z</time>
					</trkpt>
					<trkpt lat="42.994930" lon="11.519790">
						<ele>347</ele>
						<time>2026-05-04T20:06:33Z</time>
					</trkpt>
					<trkpt lat="42.995040" lon="11.519820">
						<ele>347</ele>
						<time>2026-05-04T20:06:35Z</time>
					</trkpt>
					<trkpt lat="42.995370" lon="11.520020">
						<ele>344</ele>
						<time>2026-05-04T20:06:41Z</time>
					</trkpt>
					<trkpt lat="42.995700" lon="11.520250">
						<ele>342</ele>
						<time>2026-05-04T20:06:48Z</time>
					</trkpt>
					<trkpt lat="42.995820" lon="11.520350">
						<ele>342</ele>
						<time>2026-05-04T20:06:51Z</time>
					</trkpt>
					<trkpt lat="42.995890" lon="11.520430">
						<ele>341</ele>
						<time>2026-05-04T20:06:52Z</time>
					</trkpt>
					<trkpt lat="42.995940" lon="11.520510">
						<ele>341</ele>
						<time>2026-05-04T20:06:54Z</time>
					</trkpt>
					<trkpt lat="42.996220" lon="11.521040">
						<ele>341</ele>
						<time>2026-05-04T20:07:02Z</time>
					</trkpt>
					<trkpt lat="42.996310" lon="11.521170">
						<ele>341</ele>
						<time>2026-05-04T20:07:04Z</time>
					</trkpt>
					<trkpt lat="42.996410" lon="11.521300">
						<ele>340</ele>
						<time>2026-05-04T20:07:07Z</time>
					</trkpt>
					<trkpt lat="42.998000" lon="11.522920">
						<ele>326</ele>
						<time>2026-05-04T20:07:42Z</time>
					</trkpt>
					<trkpt lat="42.998090" lon="11.523000">
						<ele>325</ele>
						<time>2026-05-04T20:07:44Z</time>
					</trkpt>
					<trkpt lat="42.998280" lon="11.523130">
						<ele>323</ele>
						<time>2026-05-04T20:07:48Z</time>
					</trkpt>
					<trkpt lat="42.998420" lon="11.523200">
						<ele>322</ele>
						<time>2026-05-04T20:07:51Z</time>
					</trkpt>
					<trkpt lat="42.998870" lon="11.523390">
						<ele>319</ele>
						<time>2026-05-04T20:07:59Z</time>
					</trkpt>
					<trkpt lat="42.999030" lon="11.523460">
						<ele>318</ele>
						<time>2026-05-04T20:08:02Z</time>
					</trkpt>
					<trkpt lat="42.999230" lon="11.523600">
						<ele>317</ele>
						<time>2026-05-04T20:08:06Z</time>
					</trkpt>
					<trkpt lat="42.999670" lon="11.523930">
						<ele>317</ele>
						<time>2026-05-04T20:08:15Z</time>
					</trkpt>
					<trkpt lat="42.999830" lon="11.524050">
						<ele>317</ele>
						<time>2026-05-04T20:08:18Z</time>
					</trkpt>
					<trkpt lat="43.000020" lon="11.524150">
						<ele>317</ele>
						<time>2026-05-04T20:08:22Z</time>
					</trkpt>
					<trkpt lat="43.001890" lon="11.524910">
						<ele>321</ele>
						<time>2026-05-04T20:08:56Z</time>
					</trkpt>
					<trkpt lat="43.002770" lon="11.525180">
						<ele>322</ele>
						<time>2026-05-04T20:09:12Z</time>
					</trkpt>
					<trkpt lat="43.003940" lon="11.525520">
						<ele>323</ele>
						<time>2026-05-04T20:09:34Z</time>
					</trkpt>
					<trkpt lat="43.004710" lon="11.525750">
						<ele>325</ele>
						<time>2026-05-04T20:09:48Z</time>
					</trkpt>
					<trkpt lat="43.006560" lon="11.526290">
						<ele>328</ele>
						<time>2026-05-04T20:10:21Z</time>
					</trkpt>
					<trkpt lat="43.006890" lon="11.526380">
						<ele>329</ele>
						<time>2026-05-04T20:10:27Z</time>
					</trkpt>
					<trkpt lat="43.007070" lon="11.526410">
						<ele>329</ele>
						<time>2026-05-04T20:10:31Z</time>
					</trkpt>
					<trkpt lat="43.008070" lon="11.526530">
						<ele>331</ele>
						<time>2026-05-04T20:10:48Z</time>
					</trkpt>
					<trkpt lat="43.009620" lon="11.526730">
						<ele>333</ele>
						<time>2026-05-04T20:11:16Z</time>
					</trkpt>
					<trkpt lat="43.009820" lon="11.526750">
						<ele>334</ele>
						<time>2026-05-04T20:11:20Z</time>
					</trkpt>
					<trkpt lat="43.010910" lon="11.526880">
						<ele>338</ele>
						<time>2026-05-04T20:11:39Z</time>
					</trkpt>
					<trkpt lat="43.011200" lon="11.526920">
						<ele>340</ele>
						<time>2026-05-04T20:11:44Z</time>
					</trkpt>
					<trkpt lat="43.011620" lon="11.526960">
						<ele>342</ele>
						<time>2026-05-04T20:11:52Z</time>
					</trkpt>
					<trkpt lat="43.011890" lon="11.526960">
						<ele>343</ele>
						<time>2026-05-04T20:11:57Z</time>
					</trkpt>
					<trkpt lat="43.012180" lon="11.526910">
						<ele>343</ele>
						<time>2026-05-04T20:12:02Z</time>
					</trkpt>
					<trkpt lat="43.012980" lon="11.526710">
						<ele>346</ele>
						<time>2026-05-04T20:12:16Z</time>
					</trkpt>
					<trkpt lat="43.013210" lon="11.526690">
						<ele>346</ele>
						<time>2026-05-04T20:12:20Z</time>
					</trkpt>
					<trkpt lat="43.013820" lon="11.526700">
						<ele>346</ele>
						<time>2026-05-04T20:12:31Z</time>
					</trkpt>
					<trkpt lat="43.013960" lon="11.526660">
						<ele>347</ele>
						<time>2026-05-04T20:12:34Z</time>
					</trkpt>
					<trkpt lat="43.014060" lon="11.526600">
						<ele>348</ele>
						<time>2026-05-04T20:12:36Z</time>
					</trkpt>
					<trkpt lat="43.014160" lon="11.526500">
						<ele>350</ele>
						<time>2026-05-04T20:12:38Z</time>
					</trkpt>
					<trkpt lat="43.014240" lon="11.526390">
						<ele>351</ele>
						<time>2026-05-04T20:12:40Z</time>
					</trkpt>
					<trkpt lat="43.014470" lon="11.525960">
						<ele>355</ele>
						<time>2026-05-04T20:12:47Z</time>
					</trkpt>
					<trkpt lat="43.014550" lon="11.525810">
						<ele>356</ele>
						<time>2026-05-04T20:12:49Z</time>
					</trkpt>
					<trkpt lat="43.014630" lon="11.525700">
						<ele>356</ele>
						<time>2026-05-04T20:12:51Z</time>
					</trkpt>
					<trkpt lat="43.014810" lon="11.525510">
						<ele>356</ele>
						<time>2026-05-04T20:12:55Z</time>
					</trkpt>
					<trkpt lat="43.015020" lon="11.525300">
						<ele>356</ele>
						<time>2026-05-04T20:13:00Z</time>
					</trkpt>
					<trkpt lat="43.015110" lon="11.525240">
						<ele>356</ele>
						<time>2026-05-04T20:13:02Z</time>
					</trkpt>
					<trkpt lat="43.015350" lon="11.525100">
						<ele>356</ele>
						<time>2026-05-04T20:13:06Z</time>
					</trkpt>
					<trkpt lat="43.015710" lon="11.524910">
						<ele>357</ele>
						<time>2026-05-04T20:13:13Z</time>
					</trkpt>
					<trkpt lat="43.015770" lon="11.524860">
						<ele>357</ele>
						<time>2026-05-04T20:13:15Z</time>
					</trkpt>
					<trkpt lat="43.015820" lon="11.524810">
						<ele>358</ele>
						<time>2026-05-04T20:13:16Z</time>
					</trkpt>
					<trkpt lat="43.015890" lon="11.524680">
						<ele>359</ele>
						<time>2026-05-04T20:13:18Z</time>
					</trkpt>
					<trkpt lat="43.016460" lon="11.523520">
						<ele>364</ele>
						<time>2026-05-04T20:13:36Z</time>
					</trkpt>
					<trkpt lat="43.016560" lon="11.523350">
						<ele>364</ele>
						<time>2026-05-04T20:13:39Z</time>
					</trkpt>
					<trkpt lat="43.016750" lon="11.523050">
						<ele>364</ele>
						<time>2026-05-04T20:13:44Z</time>
					</trkpt>
					<trkpt lat="43.016860" lon="11.522910">
						<ele>365</ele>
						<time>2026-05-04T20:13:47Z</time>
					</trkpt>
					<trkpt lat="43.017020" lon="11.522750">
						<ele>366</ele>
						<time>2026-05-04T20:13:50Z</time>
					</trkpt>
					<trkpt lat="43.017400" lon="11.522480">
						<ele>367</ele>
						<time>2026-05-04T20:13:58Z</time>
					</trkpt>
					<trkpt lat="43.017580" lon="11.522330">
						<ele>368</ele>
						<time>2026-05-04T20:14:02Z</time>
					</trkpt>
					<trkpt lat="43.017780" lon="11.522120">
						<ele>370</ele>
						<time>2026-05-04T20:14:06Z</time>
					</trkpt>
					<trkpt lat="43.018110" lon="11.521690">
						<ele>375</ele>
						<time>2026-05-04T20:14:14Z</time>
					</trkpt>
					<trkpt lat="43.018200" lon="11.521590">
						<ele>376</ele>
						<time>2026-05-04T20:14:16Z</time>
					</trkpt>
					<trkpt lat="43.018250" lon="11.521540">
						<ele>377</ele>
						<time>2026-05-04T20:14:17Z</time>
					</trkpt>
					<trkpt lat="43.018490" lon="11.521390">
						<ele>378</ele>
						<time>2026-05-04T20:14:22Z</time>
					</trkpt>
					<trkpt lat="43.019180" lon="11.520970">
						<ele>381</ele>
						<time>2026-05-04T20:14:35Z</time>
					</trkpt>
					<trkpt lat="43.020010" lon="11.520470">
						<ele>381</ele>
						<time>2026-05-04T20:14:52Z</time>
					</trkpt>
					<trkpt lat="43.020110" lon="11.520390">
						<ele>380</ele>
						<time>2026-05-04T20:14:54Z</time>
					</trkpt>
					<trkpt lat="43.020220" lon="11.520280">
						<ele>380</ele>
						<time>2026-05-04T20:14:56Z</time>
					</trkpt>
					<trkpt lat="43.020290" lon="11.520170">
						<ele>381</ele>
						<time>2026-05-04T20:14:58Z</time>
					</trkpt>
					<trkpt lat="43.020360" lon="11.520040">
						<ele>381</ele>
						<time>2026-05-04T20:15:00Z</time>
					</trkpt>
					<trkpt lat="43.020860" lon="11.518870">
						<ele>381</ele>
						<time>2026-05-04T20:15:18Z</time>
					</trkpt>
					<trkpt lat="43.021110" lon="11.518330">
						<ele>382</ele>
						<time>2026-05-04T20:15:26Z</time>
					</trkpt>
					<trkpt lat="43.021310" lon="11.517850">
						<ele>381</ele>
						<time>2026-05-04T20:15:33Z</time>
					</trkpt>
					<trkpt lat="43.021360" lon="11.517790">
						<ele>381</ele>
						<time>2026-05-04T20:15:34Z</time>
					</trkpt>
					<trkpt lat="43.021470" lon="11.517670">
						<ele>379</ele>
						<time>2026-05-04T20:15:37Z</time>
					</trkpt>
					<trkpt lat="43.021880" lon="11.517320">
						<ele>378</ele>
						<time>2026-05-04T20:15:45Z</time>
					</trkpt>
					<trkpt lat="43.022190" lon="11.517050">
						<ele>378</ele>
						<time>2026-05-04T20:15:52Z</time>
					</trkpt>
					<trkpt lat="43.022270" lon="11.516960">
						<ele>378</ele>
						<time>2026-05-04T20:15:54Z</time>
					</trkpt>
					<trkpt lat="43.022330" lon="11.516850">
						<ele>378</ele>
						<time>2026-05-04T20:15:56Z</time>
					</trkpt>
					<trkpt lat="43.022360" lon="11.516750">
						<ele>379</ele>
						<time>2026-05-04T20:15:57Z</time>
					</trkpt>
					<trkpt lat="43.022380" lon="11.516630">
						<ele>379</ele>
						<time>2026-05-04T20:15:59Z</time>
					</trkpt>
					<trkpt lat="43.022430" lon="11.515800">
						<ele>385</ele>
						<time>2026-05-04T20:16:09Z</time>
					</trkpt>
					<trkpt lat="43.022460" lon="11.515250">
						<ele>387</ele>
						<time>2026-05-04T20:16:17Z</time>
					</trkpt>
					<trkpt lat="43.022480" lon="11.515070">
						<ele>388</ele>
						<time>2026-05-04T20:16:19Z</time>
					</trkpt>
					<trkpt lat="43.022520" lon="11.514930">
						<ele>389</ele>
						<time>2026-05-04T20:16:21Z</time>
					</trkpt>
					<trkpt lat="43.022770" lon="11.514320">
						<ele>396</ele>
						<time>2026-05-04T20:16:30Z</time>
					</trkpt>
					<trkpt lat="43.022890" lon="11.514070">
						<ele>398</ele>
						<time>2026-05-04T20:16:34Z</time>
					</trkpt>
					<trkpt lat="43.022980" lon="11.513930">
						<ele>400</ele>
						<time>2026-05-04T20:16:36Z</time>
					</trkpt>
					<trkpt lat="43.023040" lon="11.513870">
						<ele>400</ele>
						<time>2026-05-04T20:16:38Z</time>
					</trkpt>
					<trkpt lat="43.023110" lon="11.513810">
						<ele>400</ele>
						<time>2026-05-04T20:16:39Z</time>
					</trkpt>
					<trkpt lat="43.024410" lon="11.512960">
						<ele>412</ele>
						<time>2026-05-04T20:17:05Z</time>
					</trkpt>
					<trkpt lat="43.024830" lon="11.512680">
						<ele>415</ele>
						<time>2026-05-04T20:17:13Z</time>
					</trkpt>
					<trkpt lat="43.025100" lon="11.512480">
						<ele>416</ele>
						<time>2026-05-04T20:17:19Z</time>
					</trkpt>
					<trkpt lat="43.025270" lon="11.512300">
						<ele>418</ele>
						<time>2026-05-04T20:17:22Z</time>
					</trkpt>
					<trkpt lat="43.025690" lon="11.511830">
						<ele>419</ele>
						<time>2026-05-04T20:17:32Z</time>
					</trkpt>
					<trkpt lat="43.025760" lon="11.511760">
						<ele>419</ele>
						<time>2026-05-04T20:17:34Z</time>
					</trkpt>
					<trkpt lat="43.025830" lon="11.511710">
						<ele>418</ele>
						<time>2026-05-04T20:17:35Z</time>
					</trkpt>
					<trkpt lat="43.025940" lon="11.511660">
						<ele>419</ele>
						<time>2026-05-04T20:17:37Z</time>
					</trkpt>
					<trkpt lat="43.026280" lon="11.511550">
						<ele>423</ele>
						<time>2026-05-04T20:17:43Z</time>
					</trkpt>
					<trkpt lat="43.026680" lon="11.511470">
						<ele>427</ele>
						<time>2026-05-04T20:17:51Z</time>
					</trkpt>
					<trkpt lat="43.026720" lon="11.511460">
						<ele>427</ele>
						<time>2026-05-04T20:17:51Z</time>
					</trkpt>
					<trkpt lat="43.026790" lon="11.511430">
						<ele>428</ele>
						<time>2026-05-04T20:17:53Z</time>
					</trkpt>
					<trkpt lat="43.026870" lon="11.511340">
						<ele>429</ele>
						<time>2026-05-04T20:17:54Z</time>
					</trkpt>
					<trkpt lat="43.026930" lon="11.511210">
						<ele>430</ele>
						<time>2026-05-04T20:17:56Z</time>
					</trkpt>
					<trkpt lat="43.027020" lon="11.510930">
						<ele>429</ele>
						<time>2026-05-04T20:18:00Z</time>
					</trkpt>
					<trkpt lat="43.027080" lon="11.510810">
						<ele>430</ele>
						<time>2026-05-04T20:18:02Z</time>
					</trkpt>
					<trkpt lat="43.027160" lon="11.510700">
						<ele>431</ele>
						<time>2026-05-04T20:18:04Z</time>
					</trkpt>
					<trkpt lat="43.027260" lon="11.510590">
						<ele>432</ele>
						<time>2026-05-04T20:18:07Z</time>
					</trkpt>
					<trkpt lat="43.027650" lon="11.510230">
						<ele>435</ele>
						<time>2026-05-04T20:18:15Z</time>
					</trkpt>
					<trkpt lat="43.027750" lon="11.510110">
						<ele>436</ele>
						<time>2026-05-04T20:18:17Z</time>
					</trkpt>
					<trkpt lat="43.027820" lon="11.510020">
						<ele>436</ele>
						<time>2026-05-04T20:18:19Z</time>
					</trkpt>
					<trkpt lat="43.027990" lon="11.509750">
						<ele>437</ele>
						<time>2026-05-04T20:18:24Z</time>
					</trkpt>
					<trkpt lat="43.028180" lon="11.509450">
						<ele>438</ele>
						<time>2026-05-04T20:18:29Z</time>
					</trkpt>
					<trkpt lat="43.028230" lon="11.509390">
						<ele>438</ele>
						<time>2026-05-04T20:18:30Z</time>
					</trkpt>
					<trkpt lat="43.028320" lon="11.509310">
						<ele>439</ele>
						<time>2026-05-04T20:18:32Z</time>
					</trkpt>
					<trkpt lat="43.030330" lon="11.507760">
						<ele>447</ele>
						<time>2026-05-04T20:19:13Z</time>
					</trkpt>
					<trkpt lat="43.030610" lon="11.507570">
						<ele>447</ele>
						<time>2026-05-04T20:19:19Z</time>
					</trkpt>
					<trkpt lat="43.030730" lon="11.507540">
						<ele>447</ele>
						<time>2026-05-04T20:19:21Z</time>
					</trkpt>
					<trkpt lat="43.030960" lon="11.507520">
						<ele>449</ele>
						<time>2026-05-04T20:19:25Z</time>
					</trkpt>
					<trkpt lat="43.031310" lon="11.507560">
						<ele>451</ele>
						<time>2026-05-04T20:19:31Z</time>
					</trkpt>
					<trkpt lat="43.032440" lon="11.507670">
						<ele>458</ele>
						<time>2026-05-04T20:19:51Z</time>
					</trkpt>
					<trkpt lat="43.032580" lon="11.507640">
						<ele>459</ele>
						<time>2026-05-04T20:19:54Z</time>
					</trkpt>
					<trkpt lat="43.032690" lon="11.507570">
						<ele>460</ele>
						<time>2026-05-04T20:19:56Z</time>
					</trkpt>
					<trkpt lat="43.032800" lon="11.507460">
						<ele>461</ele>
						<time>2026-05-04T20:19:58Z</time>
					</trkpt>
					<trkpt lat="43.032880" lon="11.507350">
						<ele>462</ele>
						<time>2026-05-04T20:20:00Z</time>
					</trkpt>
					<trkpt lat="43.033950" lon="11.505640">
						<ele>469</ele>
						<time>2026-05-04T20:20:30Z</time>
					</trkpt>
					<trkpt lat="43.034170" lon="11.505320">
						<ele>469</ele>
						<time>2026-05-04T20:20:35Z</time>
					</trkpt>
					<trkpt lat="43.034360" lon="11.505120">
						<ele>469</ele>
						<time>2026-05-04T20:20:40Z</time>
					</trkpt>
					<trkpt lat="43.035250" lon="11.504200">
						<ele>469</ele>
						<time>2026-05-04T20:20:59Z</time>
					</trkpt>
					<trkpt lat="43.035570" lon="11.503880">
						<ele>468</ele>
						<time>2026-05-04T20:21:06Z</time>
					</trkpt>
					<trkpt lat="43.035680" lon="11.503780">
						<ele>467</ele>
						<time>2026-05-04T20:21:09Z</time>
					</trkpt>
					<trkpt lat="43.035810" lon="11.503710">
						<ele>468</ele>
						<time>2026-05-04T20:21:11Z</time>
					</trkpt>
					<trkpt lat="43.035860" lon="11.503700">
						<ele>468</ele>
						<time>2026-05-04T20:21:12Z</time>
					</trkpt>
					<trkpt lat="43.035960" lon="11.503690">
						<ele>468</ele>
						<time>2026-05-04T20:21:14Z</time>
					</trkpt>
					<trkpt lat="43.036010" lon="11.503700">
						<ele>469</ele>
						<time>2026-05-04T20:21:15Z</time>
					</trkpt>
					<trkpt lat="43.036770" lon="11.503920">
						<ele>476</ele>
						<time>2026-05-04T20:21:29Z</time>
					</trkpt>
					<trkpt lat="43.036930" lon="11.503950">
						<ele>477</ele>
						<time>2026-05-04T20:21:32Z</time>
					</trkpt>
					<trkpt lat="43.037000" lon="11.503940">
						<ele>477</ele>
						<time>2026-05-04T20:21:33Z</time>
					</trkpt>
					<trkpt lat="43.037070" lon="11.503920">
						<ele>477</ele>
						<time>2026-05-04T20:21:34Z</time>
					</trkpt>
					<trkpt lat="43.037220" lon="11.503850">
						<ele>476</ele>
						<time>2026-05-04T20:21:37Z</time>
					</trkpt>
					<trkpt lat="43.037860" lon="11.503360">
						<ele>476</ele>
						<time>2026-05-04T20:21:50Z</time>
					</trkpt>
					<trkpt lat="43.038960" lon="11.502520">
						<ele>480</ele>
						<time>2026-05-04T20:22:12Z</time>
					</trkpt>
					<trkpt lat="43.039090" lon="11.502410">
						<ele>481</ele>
						<time>2026-05-04T20:22:15Z</time>
					</trkpt>
					<trkpt lat="43.039190" lon="11.502300">
						<ele>481</ele>
						<time>2026-05-04T20:22:17Z</time>
					</trkpt>
					<trkpt lat="43.039330" lon="11.502120">
						<ele>480</ele>
						<time>2026-05-04T20:22:21Z</time>
					</trkpt>
					<trkpt lat="43.039520" lon="11.501780">
						<ele>480</ele>
						<time>2026-05-04T20:22:26Z</time>
					</trkpt>
					<trkpt lat="43.039750" lon="11.501370">
						<ele>480</ele>
						<time>2026-05-04T20:22:33Z</time>
					</trkpt>
					<trkpt lat="43.040160" lon="11.500610">
						<ele>480</ele>
						<time>2026-05-04T20:22:45Z</time>
					</trkpt>
					<trkpt lat="43.041650" lon="11.497860">
						<ele>488</ele>
						<time>2026-05-04T20:23:30Z</time>
					</trkpt>
					<trkpt lat="43.041820" lon="11.497560">
						<ele>490</ele>
						<time>2026-05-04T20:23:35Z</time>
					</trkpt>
					<trkpt lat="43.041950" lon="11.497380">
						<ele>491</ele>
						<time>2026-05-04T20:23:38Z</time>
					</trkpt>
					<trkpt lat="43.042070" lon="11.497250">
						<ele>492</ele>
						<time>2026-05-04T20:23:41Z</time>
					</trkpt>
					<trkpt lat="43.042180" lon="11.497140">
						<ele>494</ele>
						<time>2026-05-04T20:23:43Z</time>
					</trkpt>
					<trkpt lat="43.042320" lon="11.497020">
						<ele>495</ele>
						<time>2026-05-04T20:23:46Z</time>
					</trkpt>
					<trkpt lat="43.042460" lon="11.496930">
						<ele>496</ele>
						<time>2026-05-04T20:23:49Z</time>
					</trkpt>
					<trkpt lat="43.042660" lon="11.496820">
						<ele>497</ele>
						<time>2026-05-04T20:23:53Z</time>
					</trkpt>
					<trkpt lat="43.042860" lon="11.496710">
						<ele>499</ele>
						<time>2026-05-04T20:23:57Z</time>
					</trkpt>
					<trkpt lat="43.043230" lon="11.496570">
						<ele>502</ele>
						<time>2026-05-04T20:24:03Z</time>
					</trkpt>
					<trkpt lat="43.043500" lon="11.496500">
						<ele>502</ele>
						<time>2026-05-04T20:24:08Z</time>
					</trkpt>
					<trkpt lat="43.045260" lon="11.496260">
						<ele>504</ele>
						<time>2026-05-04T20:24:40Z</time>
					</trkpt>
					<trkpt lat="43.046060" lon="11.496150">
						<ele>509</ele>
						<time>2026-05-04T20:24:54Z</time>
					</trkpt>
					<trkpt lat="43.046790" lon="11.496040">
						<ele>513</ele>
						<time>2026-05-04T20:25:07Z</time>
					</trkpt>
					<trkpt lat="43.046850" lon="11.496030">
						<ele>513</ele>
						<time>2026-05-04T20:25:08Z</time>
					</trkpt>
					<trkpt lat="43.046930" lon="11.495980">
						<ele>513</ele>
						<time>2026-05-04T20:25:10Z</time>
					</trkpt>
					<trkpt lat="43.047050" lon="11.495880">
						<ele>513</ele>
						<time>2026-05-04T20:25:12Z</time>
					</trkpt>
					<trkpt lat="43.047150" lon="11.495770">
						<ele>513</ele>
						<time>2026-05-04T20:25:15Z</time>
					</trkpt>
					<trkpt lat="43.047200" lon="11.495670">
						<ele>514</ele>
						<time>2026-05-04T20:25:16Z</time>
					</trkpt>
					<trkpt lat="43.047330" lon="11.495360">
						<ele>516</ele>
						<time>2026-05-04T20:25:21Z</time>
					</trkpt>
					<trkpt lat="43.047460" lon="11.495020">
						<ele>519</ele>
						<time>2026-05-04T20:25:26Z</time>
					</trkpt>
					<trkpt lat="43.047730" lon="11.494320">
						<ele>528</ele>
						<time>2026-05-04T20:25:36Z</time>
					</trkpt>
					<trkpt lat="43.047890" lon="11.493880">
						<ele>533</ele>
						<time>2026-05-04T20:25:43Z</time>
					</trkpt>
					<trkpt lat="43.047990" lon="11.493670">
						<ele>534</ele>
						<time>2026-05-04T20:25:46Z</time>
					</trkpt>
					<trkpt lat="43.048040" lon="11.493590">
						<ele>534</ele>
						<time>2026-05-04T20:25:47Z</time>
					</trkpt>
					<trkpt lat="43.048090" lon="11.493560">
						<ele>534</ele>
						<time>2026-05-04T20:25:48Z</time>
					</trkpt>
					<trkpt lat="43.048160" lon="11.493540">
						<ele>533</ele>
						<time>2026-05-04T20:25:49Z</time>
					</trkpt>
					<trkpt lat="43.048220" lon="11.493550">
						<ele>532</ele>
						<time>2026-05-04T20:25:50Z</time>
					</trkpt>
					<trkpt lat="43.048280" lon="11.493580">
						<ele>531</ele>
						<time>2026-05-04T20:25:52Z</time>
					</trkpt>
					<trkpt lat="43.048320" lon="11.493640">
						<ele>530</ele>
						<time>2026-05-04T20:25:53Z</time>
					</trkpt>
					<trkpt lat="43.048360" lon="11.493710">
						<ele>530</ele>
						<time>2026-05-04T20:25:54Z</time>
					</trkpt>
					<trkpt lat="43.048370" lon="11.493790">
						<ele>530</ele>
						<time>2026-05-04T20:25:55Z</time>
					</trkpt>
					<trkpt lat="43.048380" lon="11.493850">
						<ele>530</ele>
						<time>2026-05-04T20:25:56Z</time>
					</trkpt>
					<trkpt lat="43.048360" lon="11.493950">
						<ele>529</ele>
						<time>2026-05-04T20:25:57Z</time>
					</trkpt>
					<trkpt lat="43.048280" lon="11.494270">
						<ele>527</ele>
						<time>2026-05-04T20:26:01Z</time>
					</trkpt>
					<trkpt lat="43.048260" lon="11.494380">
						<ele>526</ele>
						<time>2026-05-04T20:26:03Z</time>
					</trkpt>
					<trkpt lat="43.048260" lon="11.494470">
						<ele>525</ele>
						<time>2026-05-04T20:26:04Z</time>
					</trkpt>
					<trkpt lat="43.048250" lon="11.494640">
						<ele>524</ele>
						<time>2026-05-04T20:26:06Z</time>
					</trkpt>
					<trkpt lat="43.048260" lon="11.494800">
						<ele>523</ele>
						<time>2026-05-04T20:26:08Z</time>
					</trkpt>
					<trkpt lat="43.048280" lon="11.494890">
						<ele>523</ele>
						<time>2026-05-04T20:26:10Z</time>
					</trkpt>
					<trkpt lat="43.048320" lon="11.495030">
						<ele>522</ele>
						<time>2026-05-04T20:26:12Z</time>
					</trkpt>
					<trkpt lat="43.048350" lon="11.495080">
						<ele>522</ele>
						<time>2026-05-04T20:26:12Z</time>
					</trkpt>
					<trkpt lat="43.048520" lon="11.495280">
						<ele>524</ele>
						<time>2026-05-04T20:26:16Z</time>
					</trkpt>
					<trkpt lat="43.048620" lon="11.495410">
						<ele>525</ele>
						<time>2026-05-04T20:26:19Z</time>
					</trkpt>
					<trkpt lat="43.048670" lon="11.495520">
						<ele>526</ele>
						<time>2026-05-04T20:26:21Z</time>
					</trkpt>
					<trkpt lat="43.048820" lon="11.495920">
						<ele>525</ele>
						<time>2026-05-04T20:26:26Z</time>
					</trkpt>
					<trkpt lat="43.048880" lon="11.496030">
						<ele>525</ele>
						<time>2026-05-04T20:26:28Z</time>
					</trkpt>
					<trkpt lat="43.048940" lon="11.496110">
						<ele>525</ele>
						<time>2026-05-04T20:26:30Z</time>
					</trkpt>
					<trkpt lat="43.049050" lon="11.496210">
						<ele>526</ele>
						<time>2026-05-04T20:26:32Z</time>
					</trkpt>
					<trkpt lat="43.049850" lon="11.496830">
						<ele>530</ele>
						<time>2026-05-04T20:26:48Z</time>
					</trkpt>
					<trkpt lat="43.050110" lon="11.497030">
						<ele>531</ele>
						<time>2026-05-04T20:26:54Z</time>
					</trkpt>
					<trkpt lat="43.050190" lon="11.497080">
						<ele>530</ele>
						<time>2026-05-04T20:26:55Z</time>
					</trkpt>
					<trkpt lat="43.050260" lon="11.497100">
						<ele>529</ele>
						<time>2026-05-04T20:26:56Z</time>
					</trkpt>
					<trkpt lat="43.050330" lon="11.497100">
						<ele>529</ele>
						<time>2026-05-04T20:26:58Z</time>
					</trkpt>
					<trkpt lat="43.050450" lon="11.497060">
						<ele>529</ele>
						<time>2026-05-04T20:27:00Z</time>
					</trkpt>
					<trkpt lat="43.050540" lon="11.496990">
						<ele>529</ele>
						<time>2026-05-04T20:27:02Z</time>
					</trkpt>
					<trkpt lat="43.050600" lon="11.496920">
						<ele>530</ele>
						<time>2026-05-04T20:27:03Z</time>
					</trkpt>
					<trkpt lat="43.050660" lon="11.496830">
						<ele>531</ele>
						<time>2026-05-04T20:27:05Z</time>
					</trkpt>
					<trkpt lat="43.050700" lon="11.496730">
						<ele>532</ele>
						<time>2026-05-04T20:27:06Z</time>
					</trkpt>
					<trkpt lat="43.050890" lon="11.496190">
						<ele>537</ele>
						<time>2026-05-04T20:27:14Z</time>
					</trkpt>
					<trkpt lat="43.050970" lon="11.495950">
						<ele>537</ele>
						<time>2026-05-04T20:27:17Z</time>
					</trkpt>
					<trkpt lat="43.050990" lon="11.495780">
						<ele>539</ele>
						<time>2026-05-04T20:27:20Z</time>
					</trkpt>
					<trkpt lat="43.051010" lon="11.495640">
						<ele>539</ele>
						<time>2026-05-04T20:27:22Z</time>
					</trkpt>
					<trkpt lat="43.051030" lon="11.495040">
						<ele>542</ele>
						<time>2026-05-04T20:27:29Z</time>
					</trkpt>
					<trkpt lat="43.051050" lon="11.494810">
						<ele>545</ele>
						<time>2026-05-04T20:27:32Z</time>
					</trkpt>
					<trkpt lat="43.051100" lon="11.494460">
						<ele>548</ele>
						<time>2026-05-04T20:27:37Z</time>
					</trkpt>
					<trkpt lat="43.051270" lon="11.493600">
						<ele>549</ele>
						<time>2026-05-04T20:27:49Z</time>
					</trkpt>
					<trkpt lat="43.051300" lon="11.493370">
						<ele>550</ele>
						<time>2026-05-04T20:27:52Z</time>
					</trkpt>
					<trkpt lat="43.051310" lon="11.493140">
						<ele>551</ele>
						<time>2026-05-04T20:27:55Z</time>
					</trkpt>
					<trkpt lat="43.051280" lon="11.492620">
						<ele>555</ele>
						<time>2026-05-04T20:28:01Z</time>
					</trkpt>
					<trkpt lat="43.051290" lon="11.491990">
						<ele>560</ele>
						<time>2026-05-04T20:28:10Z</time>
					</trkpt>
					<trkpt lat="43.051290" lon="11.491930">
						<ele>561</ele>
						<time>2026-05-04T20:28:10Z</time>
					</trkpt>
					<trkpt lat="43.051310" lon="11.491830">
						<ele>561</ele>
						<time>2026-05-04T20:28:12Z</time>
					</trkpt>
					<trkpt lat="43.051350" lon="11.491750">
						<ele>561</ele>
						<time>2026-05-04T20:28:13Z</time>
					</trkpt>
					<trkpt lat="43.051370" lon="11.491720">
						<ele>561</ele>
						<time>2026-05-04T20:28:14Z</time>
					</trkpt>
					<trkpt lat="43.051420" lon="11.491680">
						<ele>561</ele>
						<time>2026-05-04T20:28:15Z</time>
					</trkpt>
					<trkpt lat="43.051500" lon="11.491670">
						<ele>560</ele>
						<time>2026-05-04T20:28:16Z</time>
					</trkpt>
					<trkpt lat="43.051560" lon="11.491690">
						<ele>558</ele>
						<time>2026-05-04T20:28:17Z</time>
					</trkpt>
					<trkpt lat="43.051610" lon="11.491740">
						<ele>557</ele>
						<time>2026-05-04T20:28:18Z</time>
					</trkpt>
					<trkpt lat="43.051810" lon="11.492190">
						<ele>549</ele>
						<time>2026-05-04T20:28:25Z</time>
					</trkpt>
					<trkpt lat="43.051880" lon="11.492310">
						<ele>547</ele>
						<time>2026-05-04T20:28:27Z</time>
					</trkpt>
					<trkpt lat="43.051960" lon="11.492410">
						<ele>545</ele>
						<time>2026-05-04T20:28:29Z</time>
					</trkpt>
					<trkpt lat="43.052030" lon="11.492470">
						<ele>544</ele>
						<time>2026-05-04T20:28:30Z</time>
					</trkpt>
					<trkpt lat="43.052100" lon="11.492500">
						<ele>543</ele>
						<time>2026-05-04T20:28:32Z</time>
					</trkpt>
					<trkpt lat="43.052180" lon="11.492500">
						<ele>542</ele>
						<time>2026-05-04T20:28:33Z</time>
					</trkpt>
					<trkpt lat="43.052250" lon="11.492460">
						<ele>543</ele>
						<time>2026-05-04T20:28:34Z</time>
					</trkpt>
					<trkpt lat="43.052320" lon="11.492320">
						<ele>545</ele>
						<time>2026-05-04T20:28:37Z</time>
					</trkpt>
					<trkpt lat="43.052400" lon="11.492100">
						<ele>549</ele>
						<time>2026-05-04T20:28:40Z</time>
					</trkpt>
					<trkpt lat="43.052460" lon="11.491950">
						<ele>551</ele>
						<time>2026-05-04T20:28:42Z</time>
					</trkpt>
					<trkpt lat="43.052510" lon="11.491880">
						<ele>553</ele>
						<time>2026-05-04T20:28:43Z</time>
					</trkpt>
					<trkpt lat="43.052570" lon="11.491820">
						<ele>553</ele>
						<time>2026-05-04T20:28:45Z</time>
					</trkpt>
					<trkpt lat="43.052660" lon="11.491760">
						<ele>554</ele>
						<time>2026-05-04T20:28:46Z</time>
					</trkpt>
					<trkpt lat="43.052810" lon="11.491740">
						<ele>553</ele>
						<time>2026-05-04T20:28:49Z</time>
					</trkpt>
					<trkpt lat="43.052900" lon="11.491760">
						<ele>552</ele>
						<time>2026-05-04T20:28:51Z</time>
					</trkpt>
					<trkpt lat="43.053240" lon="11.491930">
						<ele>544</ele>
						<time>2026-05-04T20:28:57Z</time>
					</trkpt>
					<trkpt lat="43.053380" lon="11.491980">
						<ele>542</ele>
						<time>2026-05-04T20:29:00Z</time>
					</trkpt>
					<trkpt lat="43.053440" lon="11.491990">
						<ele>541</ele>
						<time>2026-05-04T20:29:01Z</time>
					</trkpt>
					<trkpt lat="43.053520" lon="11.491990">
						<ele>539</ele>
						<time>2026-05-04T20:29:02Z</time>
					</trkpt>
					<trkpt lat="43.053600" lon="11.491940">
						<ele>540</ele>
						<time>2026-05-04T20:29:04Z</time>
					</trkpt>
					<trkpt lat="43.053640" lon="11.491910">
						<ele>540</ele>
						<time>2026-05-04T20:29:05Z</time>
					</trkpt>
					<trkpt lat="43.053680" lon="11.491830">
						<ele>541</ele>
						<time>2026-05-04T20:29:06Z</time>
					</trkpt>
					<trkpt lat="43.053710" lon="11.491730">
						<ele>542</ele>
						<time>2026-05-04T20:29:07Z</time>
					</trkpt>
					<trkpt lat="43.053730" lon="11.491490">
						<ele>545</ele>
						<time>2026-05-04T20:29:10Z</time>
					</trkpt>
					<trkpt lat="43.053760" lon="11.489740">
						<ele>557</ele>
						<time>2026-05-04T20:29:33Z</time>
					</trkpt>
					<trkpt lat="43.053790" lon="11.489580">
						<ele>558</ele>
						<time>2026-05-04T20:29:35Z</time>
					</trkpt>
					<trkpt lat="43.053840" lon="11.489430">
						<ele>558</ele>
						<time>2026-05-04T20:29:38Z</time>
					</trkpt>
					<trkpt lat="43.053880" lon="11.489370">
						<ele>558</ele>
						<time>2026-05-04T20:29:39Z</time>
					</trkpt>
					<trkpt lat="43.053940" lon="11.489290">
						<ele>558</ele>
						<time>2026-05-04T20:29:40Z</time>
					</trkpt>
					<trkpt lat="43.054020" lon="11.489250">
						<ele>557</ele>
						<time>2026-05-04T20:29:42Z</time>
					</trkpt>
					<trkpt lat="43.054080" lon="11.489220">
						<ele>556</ele>
						<time>2026-05-04T20:29:43Z</time>
					</trkpt>
					<trkpt lat="43.054900" lon="11.489130">
						<ele>553</ele>
						<time>2026-05-04T20:29:57Z</time>
					</trkpt>
					<trkpt lat="43.054990" lon="11.489110">
						<ele>553</ele>
						<time>2026-05-04T20:29:59Z</time>
					</trkpt>
					<trkpt lat="43.055050" lon="11.489060">
						<ele>553</ele>
						<time>2026-05-04T20:30:00Z</time>
					</trkpt>
					<trkpt lat="43.055050" lon="11.489100">
						<ele>553</ele>
						<time>2026-05-04T20:30:01Z</time>
					</trkpt>
					<trkpt lat="43.055070" lon="11.489140">
						<ele>553</ele>
						<time>2026-05-04T20:30:01Z</time>
					</trkpt>
					<trkpt lat="43.055100" lon="11.489160">
						<ele>553</ele>
						<time>2026-05-04T20:30:02Z</time>
					</trkpt>
					<trkpt lat="43.055130" lon="11.489170">
						<ele>552</ele>
						<time>2026-05-04T20:30:03Z</time>
					</trkpt>
					<trkpt lat="43.055160" lon="11.489160">
						<ele>552</ele>
						<time>2026-05-04T20:30:03Z</time>
					</trkpt>
					<trkpt lat="43.055180" lon="11.489140">
						<ele>552</ele>
						<time>2026-05-04T20:30:04Z</time>
					</trkpt>
					<trkpt lat="43.055200" lon="11.489110">
						<ele>552</ele>
						<time>2026-05-04T20:30:04Z</time>
					</trkpt>
					<trkpt lat="43.055360" lon="11.489040">
						<ele>551</ele>
						<time>2026-05-04T20:30:07Z</time>
					</trkpt>
					<trkpt lat="43.055440" lon="11.488990">
						<ele>550</ele>
						<time>2026-05-04T20:30:09Z</time>
					</trkpt>
					<trkpt lat="43.055500" lon="11.488970">
						<ele>549</ele>
						<time>2026-05-04T20:30:10Z</time>
					</trkpt>
					<trkpt lat="43.055640" lon="11.488930">
						<ele>547</ele>
						<time>2026-05-04T20:30:12Z</time>
					</trkpt>
					<trkpt lat="43.055730" lon="11.488940">
						<ele>546</ele>
						<time>2026-05-04T20:30:14Z</time>
					</trkpt>
					<trkpt lat="43.055970" lon="11.489040">
						<ele>547</ele>
						<time>2026-05-04T20:30:18Z</time>
					</trkpt>
					<trkpt lat="43.056030" lon="11.489050">
						<ele>547</ele>
						<time>2026-05-04T20:30:19Z</time>
					</trkpt>
					<trkpt lat="43.056070" lon="11.489040">
						<ele>547</ele>
						<time>2026-05-04T20:30:20Z</time>
					</trkpt>
					<trkpt lat="43.056520" lon="11.488870">
						<ele>545</ele>
						<time>2026-05-04T20:30:28Z</time>
					</trkpt>
					<trkpt lat="43.056630" lon="11.488820">
						<ele>544</ele>
						<time>2026-05-04T20:30:30Z</time>
					</trkpt>
					<trkpt lat="43.056660" lon="11.488810">
						<ele>544</ele>
						<time>2026-05-04T20:30:31Z</time>
					</trkpt>
					<trkpt lat="43.056740" lon="11.488760">
						<ele>544</ele>
						<time>2026-05-04T20:30:33Z</time>
					</trkpt>
					<trkpt lat="43.056810" lon="11.488700">
						<ele>544</ele>
						<time>2026-05-04T20:30:34Z</time>
					</trkpt>
					<trkpt lat="43.056900" lon="11.488560">
						<ele>544</ele>
						<time>2026-05-04T20:30:37Z</time>
					</trkpt>
					<trkpt lat="43.057330" lon="11.487670">
						<ele>540</ele>
						<time>2026-05-04T20:30:50Z</time>
					</trkpt>
					<trkpt lat="43.057430" lon="11.487490">
						<ele>539</ele>
						<time>2026-05-04T20:30:53Z</time>
					</trkpt>
					<trkpt lat="43.057620" lon="11.487250">
						<ele>539</ele>
						<time>2026-05-04T20:30:58Z</time>
					</trkpt>
					<trkpt lat="43.058040" lon="11.486760">
						<ele>541</ele>
						<time>2026-05-04T20:31:08Z</time>
					</trkpt>
					<trkpt lat="43.058320" lon="11.486450">
						<ele>542</ele>
						<time>2026-05-04T20:31:14Z</time>
					</trkpt>
					<trkpt lat="43.058440" lon="11.486380">
						<ele>542</ele>
						<time>2026-05-04T20:31:16Z</time>
					</trkpt>
					<trkpt lat="43.058620" lon="11.486240">
						<ele>540</ele>
						<time>2026-05-04T20:31:20Z</time>
					</trkpt>
					<trkpt lat="43.058710" lon="11.486180">
						<ele>540</ele>
						<time>2026-05-04T20:31:22Z</time>
					</trkpt>
					<trkpt lat="43.058800" lon="11.486140">
						<ele>540</ele>
						<time>2026-05-04T20:31:24Z</time>
					</trkpt>
					<trkpt lat="43.058950" lon="11.486110">
						<ele>541</ele>
						<time>2026-05-04T20:31:26Z</time>
					</trkpt>
					<trkpt lat="43.059050" lon="11.486130">
						<ele>542</ele>
						<time>2026-05-04T20:31:28Z</time>
					</trkpt>
					<trkpt lat="43.059220" lon="11.486200">
						<ele>545</ele>
						<time>2026-05-04T20:31:31Z</time>
					</trkpt>
					<trkpt lat="43.060020" lon="11.486550">
						<ele>550</ele>
						<time>2026-05-04T20:31:46Z</time>
					</trkpt>
					<trkpt lat="43.060140" lon="11.486610">
						<ele>551</ele>
						<time>2026-05-04T20:31:48Z</time>
					</trkpt>
					<trkpt lat="43.060350" lon="11.486710">
						<ele>550</ele>
						<time>2026-05-04T20:31:52Z</time>
					</trkpt>
					<trkpt lat="43.060430" lon="11.486770">
						<ele>550</ele>
						<time>2026-05-04T20:31:54Z</time>
					</trkpt>
					<trkpt lat="43.060560" lon="11.486910">
						<ele>549</ele>
						<time>2026-05-04T20:31:57Z</time>
					</trkpt>
					<trkpt lat="43.060610" lon="11.486990">
						<ele>549</ele>
						<time>2026-05-04T20:31:58Z</time>
					</trkpt>
					<trkpt lat="43.060630" lon="11.487040">
						<ele>549</ele>
						<time>2026-05-04T20:31:59Z</time>
					</trkpt>
					<trkpt lat="43.060650" lon="11.487160">
						<ele>550</ele>
						<time>2026-05-04T20:32:01Z</time>
					</trkpt>
					<trkpt lat="43.060660" lon="11.487770">
						<ele>548</ele>
						<time>2026-05-04T20:32:09Z</time>
					</trkpt>
					<trkpt lat="43.060670" lon="11.487930">
						<ele>547</ele>
						<time>2026-05-04T20:32:11Z</time>
					</trkpt>
					<trkpt lat="43.060690" lon="11.488480">
						<ele>542</ele>
						<time>2026-05-04T20:32:18Z</time>
					</trkpt>
					<trkpt lat="43.060740" lon="11.489650">
						<ele>533</ele>
						<time>2026-05-04T20:32:33Z</time>
					</trkpt>
					<trkpt lat="43.060780" lon="11.489640">
						<ele>533</ele>
						<time>2026-05-04T20:32:34Z</time>
					</trkpt>
					<trkpt lat="43.060770" lon="11.489340">
						<ele>536</ele>
						<time>2026-05-04T20:32:38Z</time>
					</trkpt>
					<trkpt lat="43.060780" lon="11.489640">
						<ele>533</ele>
						<time>2026-05-04T20:32:42Z</time>
					</trkpt>
					<trkpt lat="43.060740" lon="11.489650">
						<ele>533</ele>
						<time>2026-05-04T20:32:42Z</time>
					</trkpt>
					<trkpt lat="43.060750" lon="11.489750">
						<ele>532</ele>
						<time>2026-05-04T20:32:44Z</time>
					</trkpt>
					<trkpt lat="43.060500" lon="11.489880">
						<ele>531</ele>
						<time>2026-05-04T20:32:48Z</time>
					</trkpt>
					<trkpt lat="43.060650" lon="11.490200">
						<ele>526</ele>
						<time>2026-05-04T20:32:53Z</time>
					</trkpt>
					<trkpt lat="43.060660" lon="11.490280">
						<ele>525</ele>
						<time>2026-05-04T20:32:54Z</time>
					</trkpt>
					<trkpt lat="43.060340" lon="11.490320">
						<ele>525</ele>
						<time>2026-05-04T20:33:00Z</time>
					</trkpt>
					<trkpt lat="43.060260" lon="11.490310">
						<ele>525</ele>
						<time>2026-05-04T20:33:02Z</time>
					</trkpt>
					<trkpt lat="43.060130" lon="11.490280">
						<ele>526</ele>
						<time>2026-05-04T20:33:04Z</time>
					</trkpt>
					<trkpt lat="43.059990" lon="11.490230">
						<ele>527</ele>
						<time>2026-05-04T20:33:07Z</time>
					</trkpt>
					<trkpt lat="43.059840" lon="11.490180">
						<ele>528</ele>
						<time>2026-05-04T20:33:09Z</time>
					</trkpt>
					<trkpt lat="43.059810" lon="11.490400">
						<ele>523</ele>
						<time>2026-05-04T20:33:12Z</time>
					</trkpt>
					<trkpt lat="43.059770" lon="11.490580">
						<ele>520</ele>
						<time>2026-05-04T20:33:15Z</time>
					</trkpt>
					<trkpt lat="43.059760" lon="11.490620">
						<ele>519</ele>
						<time>2026-05-04T20:33:15Z</time>
					</trkpt>
					<trkpt lat="43.059710" lon="11.490700">
						<ele>517</ele>
						<time>2026-05-04T20:33:17Z</time>
					</trkpt>
					<trkpt lat="43.059630" lon="11.490770">
						<ele>515</ele>
						<time>2026-05-04T20:33:18Z</time>
					</trkpt>
					<trkpt lat="43.059520" lon="11.490720">
						<ele>516</ele>
						<time>2026-05-04T20:33:20Z</time>
					</trkpt>
					<trkpt lat="43.059230" lon="11.490680">
						<ele>515</ele>
						<time>2026-05-04T20:33:25Z</time>
					</trkpt>
					<trkpt lat="43.059100" lon="11.490650">
						<ele>516</ele>
						<time>2026-05-04T20:33:28Z</time>
					</trkpt>
					<trkpt lat="43.059040" lon="11.490650">
						<ele>517</ele>
						<time>2026-05-04T20:33:29Z</time>
					</trkpt>
					<trkpt lat="43.058890" lon="11.490670">
						<ele>518</ele>
						<time>2026-05-04T20:33:32Z</time>
					</trkpt>
					<trkpt lat="43.058620" lon="11.490840">
						<ele>517</ele>
						<time>2026-05-04T20:33:37Z</time>
					</trkpt>
					<trkpt lat="43.058440" lon="11.490920">
						<ele>517</ele>
						<time>2026-05-04T20:33:40Z</time>
					</trkpt>
					<trkpt lat="43.057790" lon="11.491110">
						<ele>527</ele>
						<time>2026-05-04T20:33:52Z</time>
					</trkpt>
					<trkpt lat="43.057660" lon="11.491160">
						<ele>529</ele>
						<time>2026-05-04T20:33:54Z</time>
					</trkpt>
					<trkpt lat="43.057420" lon="11.491390">
						<ele>530</ele>
						<time>2026-05-04T20:34:00Z</time>
					</trkpt>
					<trkpt lat="43.057430" lon="11.491580">
						<ele>527</ele>
						<time>2026-05-04T20:34:02Z</time>
					</trkpt>
					<trkpt lat="43.057370" lon="11.491920">
						<ele>524</ele>
						<time>2026-05-04T20:34:07Z</time>
					</trkpt>
					<trkpt lat="43.057350" lon="11.492150">
						<ele>522</ele>
						<time>2026-05-04T20:34:10Z</time>
					</trkpt>
					<trkpt lat="43.057350" lon="11.492240">
						<ele>522</ele>
						<time>2026-05-04T20:34:11Z</time>
					</trkpt>
					<trkpt lat="43.057340" lon="11.492290">
						<ele>521</ele>
						<time>2026-05-04T20:34:12Z</time>
					</trkpt>
					<trkpt lat="43.057320" lon="11.492290">
						<ele>521</ele>
						<time>2026-05-04T20:34:12Z</time>
					</trkpt>
					<trkpt lat="43.057230" lon="11.492270">
						<ele>522</ele>
						<time>2026-05-04T20:34:14Z</time>
					</trkpt>
					<trkpt lat="43.057190" lon="11.492290">
						<ele>521</ele>
						<time>2026-05-04T20:34:14Z</time>
					</trkpt>
					<trkpt lat="43.056960" lon="11.492440">
						<ele>520</ele>
						<time>2026-05-04T20:34:19Z</time>
					</trkpt>
					<trkpt lat="43.056920" lon="11.492460">
						<ele>519</ele>
						<time>2026-05-04T20:34:20Z</time>
					</trkpt>
					<trkpt lat="43.056840" lon="11.492470">
						<ele>519</ele>
						<time>2026-05-04T20:34:21Z</time>
					</trkpt>
					<trkpt lat="43.056520" lon="11.492450">
						<ele>518</ele>
						<time>2026-05-04T20:34:27Z</time>
					</trkpt>
					<trkpt lat="43.056500" lon="11.492450">
						<ele>517</ele>
						<time>2026-05-04T20:34:27Z</time>
					</trkpt>
					<trkpt lat="43.056350" lon="11.492450">
						<ele>516</ele>
						<time>2026-05-04T20:34:30Z</time>
					</trkpt>
					<trkpt lat="43.056240" lon="11.492370">
						<ele>517</ele>
						<time>2026-05-04T20:34:32Z</time>
					</trkpt>
					<trkpt lat="43.056220" lon="11.492320">
						<ele>518</ele>
						<time>2026-05-04T20:34:33Z</time>
					</trkpt>
					<trkpt lat="43.056200" lon="11.492250">
						<ele>520</ele>
						<time>2026-05-04T20:34:34Z</time>
					</trkpt>
					<trkpt lat="43.056160" lon="11.492220">
						<ele>520</ele>
						<time>2026-05-04T20:34:34Z</time>
					</trkpt>
					<trkpt lat="43.055790" lon="11.492080">
						<ele>521</ele>
						<time>2026-05-04T20:34:41Z</time>
					</trkpt>
					<trkpt lat="43.055730" lon="11.492050">
						<ele>521</ele>
						<time>2026-05-04T20:34:42Z</time>
					</trkpt>
					<trkpt lat="43.055670" lon="11.492040">
						<ele>520</ele>
						<time>2026-05-04T20:34:44Z</time>
					</trkpt>
					<trkpt lat="43.055660" lon="11.491960">
						<ele>522</ele>
						<time>2026-05-04T20:34:45Z</time>
					</trkpt>
					<trkpt lat="43.055550" lon="11.491970">
						<ele>520</ele>
						<time>2026-05-04T20:34:47Z</time>
					</trkpt>
					<trkpt lat="43.055470" lon="11.491950">
						<ele>519</ele>
						<time>2026-05-04T20:34:48Z</time>
					</trkpt>
					<trkpt lat="43.055460" lon="11.491960">
						<ele>519</ele>
						<time>2026-05-04T20:34:48Z</time>
					</trkpt>
					<trkpt lat="43.055430" lon="11.491970">
						<ele>518</ele>
						<time>2026-05-04T20:34:49Z</time>
					</trkpt>
					<trkpt lat="43.055380" lon="11.491950">
						<ele>518</ele>
						<time>2026-05-04T20:34:50Z</time>
					</trkpt>
					<trkpt lat="43.055250" lon="11.491740">
						<ele>520</ele>
						<time>2026-05-04T20:34:53Z</time>
					</trkpt>
					<trkpt lat="43.054820" lon="11.491120">
						<ele>532</ele>
						<time>2026-05-04T20:35:04Z</time>
					</trkpt>
					<trkpt lat="43.054730" lon="11.491000">
						<ele>534</ele>
						<time>2026-05-04T20:35:07Z</time>
					</trkpt>
					<trkpt lat="43.054680" lon="11.490960">
						<ele>535</ele>
						<time>2026-05-04T20:35:08Z</time>
					</trkpt>
					<trkpt lat="43.054590" lon="11.490950">
						<ele>536</ele>
						<time>2026-05-04T20:35:09Z</time>
					</trkpt>
					<trkpt lat="43.054530" lon="11.490970">
						<ele>536</ele>
						<time>2026-05-04T20:35:10Z</time>
					</trkpt>
					<trkpt lat="43.054450" lon="11.491030">
						<ele>536</ele>
						<time>2026-05-04T20:35:12Z</time>
					</trkpt>
					<trkpt lat="43.054410" lon="11.491090">
						<ele>535</ele>
						<time>2026-05-04T20:35:13Z</time>
					</trkpt>
					<trkpt lat="43.054380" lon="11.491200">
						<ele>535</ele>
						<time>2026-05-04T20:35:15Z</time>
					</trkpt>
					<trkpt lat="43.054360" lon="11.491310">
						<ele>534</ele>
						<time>2026-05-04T20:35:16Z</time>
					</trkpt>
					<trkpt lat="43.054370" lon="11.491470">
						<ele>533</ele>
						<time>2026-05-04T20:35:18Z</time>
					</trkpt>
					<trkpt lat="43.054380" lon="11.491530">
						<ele>532</ele>
						<time>2026-05-04T20:35:19Z</time>
					</trkpt>
					<trkpt lat="43.054430" lon="11.492010">
						<ele>524</ele>
						<time>2026-05-04T20:35:25Z</time>
					</trkpt>
					<trkpt lat="43.054450" lon="11.492270">
						<ele>519</ele>
						<time>2026-05-04T20:35:29Z</time>
					</trkpt>
					<trkpt lat="43.054450" lon="11.492560">
						<ele>514</ele>
						<time>2026-05-04T20:35:32Z</time>
					</trkpt>
					<trkpt lat="43.054420" lon="11.492780">
						<ele>510</ele>
						<time>2026-05-04T20:35:35Z</time>
					</trkpt>
					<trkpt lat="43.054380" lon="11.492940">
						<ele>508</ele>
						<time>2026-05-04T20:35:37Z</time>
					</trkpt>
					<trkpt lat="43.054300" lon="11.493150">
						<ele>506</ele>
						<time>2026-05-04T20:35:41Z</time>
					</trkpt>
					<trkpt lat="43.054230" lon="11.493280">
						<ele>505</ele>
						<time>2026-05-04T20:35:43Z</time>
					</trkpt>
					<trkpt lat="43.054150" lon="11.493390">
						<ele>505</ele>
						<time>2026-05-04T20:35:45Z</time>
					</trkpt>
					<trkpt lat="43.053820" lon="11.493700">
						<ele>504</ele>
						<time>2026-05-04T20:35:52Z</time>
					</trkpt>
					<trkpt lat="43.053710" lon="11.493830">
						<ele>504</ele>
						<time>2026-05-04T20:35:54Z</time>
					</trkpt>
					<trkpt lat="43.053620" lon="11.494000">
						<ele>503</ele>
						<time>2026-05-04T20:35:57Z</time>
					</trkpt>
					<trkpt lat="43.053560" lon="11.494140">
						<ele>503</ele>
						<time>2026-05-04T20:35:59Z</time>
					</trkpt>
					<trkpt lat="43.053530" lon="11.494230">
						<ele>503</ele>
						<time>2026-05-04T20:36:01Z</time>
					</trkpt>
					<trkpt lat="43.053510" lon="11.494450">
						<ele>502</ele>
						<time>2026-05-04T20:36:03Z</time>
					</trkpt>
					<trkpt lat="43.053510" lon="11.494780">
						<ele>501</ele>
						<time>2026-05-04T20:36:08Z</time>
					</trkpt>
					<trkpt lat="43.053560" lon="11.495540">
						<ele>497</ele>
						<time>2026-05-04T20:36:18Z</time>
					</trkpt>
					<trkpt lat="43.053560" lon="11.495760">
						<ele>497</ele>
						<time>2026-05-04T20:36:20Z</time>
					</trkpt>
					<trkpt lat="43.053550" lon="11.496020">
						<ele>497</ele>
						<time>2026-05-04T20:36:24Z</time>
					</trkpt>
					<trkpt lat="43.053530" lon="11.496220">
						<ele>496</ele>
						<time>2026-05-04T20:36:26Z</time>
					</trkpt>
					<trkpt lat="43.053450" lon="11.496830">
						<ele>496</ele>
						<time>2026-05-04T20:36:35Z</time>
					</trkpt>
					<trkpt lat="43.053400" lon="11.497100">
						<ele>496</ele>
						<time>2026-05-04T20:36:38Z</time>
					</trkpt>
					<trkpt lat="43.053310" lon="11.497420">
						<ele>497</ele>
						<time>2026-05-04T20:36:43Z</time>
					</trkpt>
					<trkpt lat="43.053250" lon="11.497580">
						<ele>496</ele>
						<time>2026-05-04T20:36:45Z</time>
					</trkpt>
					<trkpt lat="43.053010" lon="11.498100">
						<ele>492</ele>
						<time>2026-05-04T20:36:53Z</time>
					</trkpt>
					<trkpt lat="43.052700" lon="11.498840">
						<ele>489</ele>
						<time>2026-05-04T20:37:04Z</time>
					</trkpt>
					<trkpt lat="43.052180" lon="11.500100">
						<ele>476</ele>
						<time>2026-05-04T20:37:23Z</time>
					</trkpt>
					<trkpt lat="43.052040" lon="11.500470">
						<ele>475</ele>
						<time>2026-05-04T20:37:28Z</time>
					</trkpt>
					<trkpt lat="43.051960" lon="11.500750">
						<ele>474</ele>
						<time>2026-05-04T20:37:32Z</time>
					</trkpt>
					<trkpt lat="43.051940" lon="11.500880">
						<ele>474</ele>
						<time>2026-05-04T20:37:34Z</time>
					</trkpt>
					<trkpt lat="43.051940" lon="11.501260">
						<ele>474</ele>
						<time>2026-05-04T20:37:39Z</time>
					</trkpt>
					<trkpt lat="43.051950" lon="11.501770">
						<ele>473</ele>
						<time>2026-05-04T20:37:45Z</time>
					</trkpt>
					<trkpt lat="43.051950" lon="11.501890">
						<ele>473</ele>
						<time>2026-05-04T20:37:47Z</time>
					</trkpt>
					<trkpt lat="43.051940" lon="11.502050">
						<ele>472</ele>
						<time>2026-05-04T20:37:49Z</time>
					</trkpt>
					<trkpt lat="43.051910" lon="11.502180">
						<ele>471</ele>
						<time>2026-05-04T20:37:51Z</time>
					</trkpt>
					<trkpt lat="43.051770" lon="11.502710">
						<ele>467</ele>
						<time>2026-05-04T20:37:58Z</time>
					</trkpt>
					<trkpt lat="43.051740" lon="11.502900">
						<ele>466</ele>
						<time>2026-05-04T20:38:01Z</time>
					</trkpt>
					<trkpt lat="43.051740" lon="11.503000">
						<ele>466</ele>
						<time>2026-05-04T20:38:02Z</time>
					</trkpt>
					<trkpt lat="43.051750" lon="11.503120">
						<ele>466</ele>
						<time>2026-05-04T20:38:04Z</time>
					</trkpt>
					<trkpt lat="43.051810" lon="11.503350">
						<ele>465</ele>
						<time>2026-05-04T20:38:07Z</time>
					</trkpt>
					<trkpt lat="43.052150" lon="11.504170">
						<ele>462</ele>
						<time>2026-05-04T20:38:19Z</time>
					</trkpt>
					<trkpt lat="43.052230" lon="11.504360">
						<ele>461</ele>
						<time>2026-05-04T20:38:22Z</time>
					</trkpt>
					<trkpt lat="43.052280" lon="11.504660">
						<ele>459</ele>
						<time>2026-05-04T20:38:26Z</time>
					</trkpt>
					<trkpt lat="43.052290" lon="11.504860">
						<ele>457</ele>
						<time>2026-05-04T20:38:29Z</time>
					</trkpt>
					<trkpt lat="43.052260" lon="11.504910">
						<ele>456</ele>
						<time>2026-05-04T20:38:29Z</time>
					</trkpt>
					<trkpt lat="43.052250" lon="11.504950">
						<ele>456</ele>
						<time>2026-05-04T20:38:30Z</time>
					</trkpt>
					<trkpt lat="43.052250" lon="11.505020">
						<ele>455</ele>
						<time>2026-05-04T20:38:31Z</time>
					</trkpt>
					<trkpt lat="43.052270" lon="11.505050">
						<ele>455</ele>
						<time>2026-05-04T20:38:31Z</time>
					</trkpt>
					<trkpt lat="43.052200" lon="11.505330">
						<ele>454</ele>
						<time>2026-05-04T20:38:35Z</time>
					</trkpt>
					<trkpt lat="43.051900" lon="11.506270">
						<ele>452</ele>
						<time>2026-05-04T20:38:49Z</time>
					</trkpt>
					<trkpt lat="43.051860" lon="11.506420">
						<ele>452</ele>
						<time>2026-05-04T20:38:51Z</time>
					</trkpt>
					<trkpt lat="43.051840" lon="11.506520">
						<ele>452</ele>
						<time>2026-05-04T20:38:52Z</time>
					</trkpt>
					<trkpt lat="43.051820" lon="11.506690">
						<ele>453</ele>
						<time>2026-05-04T20:38:54Z</time>
					</trkpt>
					<trkpt lat="43.051820" lon="11.506850">
						<ele>453</ele>
						<time>2026-05-04T20:38:56Z</time>
					</trkpt>
					<trkpt lat="43.051850" lon="11.507320">
						<ele>453</ele>
						<time>2026-05-04T20:39:02Z</time>
					</trkpt>
					<trkpt lat="43.051850" lon="11.507670">
						<ele>451</ele>
						<time>2026-05-04T20:39:07Z</time>
					</trkpt>
					<trkpt lat="43.051840" lon="11.507800">
						<ele>450</ele>
						<time>2026-05-04T20:39:09Z</time>
					</trkpt>
					<trkpt lat="43.051810" lon="11.507920">
						<ele>449</ele>
						<time>2026-05-04T20:39:10Z</time>
					</trkpt>
					<trkpt lat="43.051750" lon="11.508110">
						<ele>447</ele>
						<time>2026-05-04T20:39:13Z</time>
					</trkpt>
					<trkpt lat="43.051660" lon="11.508260">
						<ele>447</ele>
						<time>2026-05-04T20:39:16Z</time>
					</trkpt>
					<trkpt lat="43.051550" lon="11.508430">
						<ele>445</ele>
						<time>2026-05-04T20:39:18Z</time>
					</trkpt>
					<trkpt lat="43.051230" lon="11.508900">
						<ele>440</ele>
						<time>2026-05-04T20:39:27Z</time>
					</trkpt>
					<trkpt lat="43.051140" lon="11.509010">
						<ele>439</ele>
						<time>2026-05-04T20:39:29Z</time>
					</trkpt>
					<trkpt lat="43.050650" lon="11.509550">
						<ele>433</ele>
						<time>2026-05-04T20:39:40Z</time>
					</trkpt>
					<trkpt lat="43.050100" lon="11.510130">
						<ele>428</ele>
						<time>2026-05-04T20:39:53Z</time>
					</trkpt>
					<trkpt lat="43.049730" lon="11.510490">
						<ele>422</ele>
						<time>2026-05-04T20:40:01Z</time>
					</trkpt>
					<trkpt lat="43.049530" lon="11.510810">
						<ele>418</ele>
						<time>2026-05-04T20:40:06Z</time>
					</trkpt>
					<trkpt lat="43.049320" lon="11.511150">
						<ele>415</ele>
						<time>2026-05-04T20:40:12Z</time>
					</trkpt>
					<trkpt lat="43.049250" lon="11.511280">
						<ele>415</ele>
						<time>2026-05-04T20:40:14Z</time>
					</trkpt>
					<trkpt lat="43.049220" lon="11.511400">
						<ele>414</ele>
						<time>2026-05-04T20:40:16Z</time>
					</trkpt>
					<trkpt lat="43.049120" lon="11.511770">
						<ele>412</ele>
						<time>2026-05-04T20:40:21Z</time>
					</trkpt>
					<trkpt lat="43.048990" lon="11.512210">
						<ele>411</ele>
						<time>2026-05-04T20:40:27Z</time>
					</trkpt>
					<trkpt lat="43.048940" lon="11.512360">
						<ele>410</ele>
						<time>2026-05-04T20:40:29Z</time>
					</trkpt>
					<trkpt lat="43.048760" lon="11.512800">
						<ele>409</ele>
						<time>2026-05-04T20:40:36Z</time>
					</trkpt>
					<trkpt lat="43.048730" lon="11.512920">
						<ele>408</ele>
						<time>2026-05-04T20:40:37Z</time>
					</trkpt>
					<trkpt lat="43.048730" lon="11.512990">
						<ele>408</ele>
						<time>2026-05-04T20:40:38Z</time>
					</trkpt>
					<trkpt lat="43.048740" lon="11.513080">
						<ele>408</ele>
						<time>2026-05-04T20:40:39Z</time>
					</trkpt>
					<trkpt lat="43.048880" lon="11.513500">
						<ele>408</ele>
						<time>2026-05-04T20:40:45Z</time>
					</trkpt>
					<trkpt lat="43.048920" lon="11.513680">
						<ele>407</ele>
						<time>2026-05-04T20:40:48Z</time>
					</trkpt>
					<trkpt lat="43.048920" lon="11.513810">
						<ele>406</ele>
						<time>2026-05-04T20:40:50Z</time>
					</trkpt>
					<trkpt lat="43.048900" lon="11.513970">
						<ele>406</ele>
						<time>2026-05-04T20:40:52Z</time>
					</trkpt>
					<trkpt lat="43.048780" lon="11.514570">
						<ele>402</ele>
						<time>2026-05-04T20:41:00Z</time>
					</trkpt>
					<trkpt lat="43.048760" lon="11.514710">
						<ele>401</ele>
						<time>2026-05-04T20:41:02Z</time>
					</trkpt>
					<trkpt lat="43.048750" lon="11.514790">
						<ele>400</ele>
						<time>2026-05-04T20:41:03Z</time>
					</trkpt>
					<trkpt lat="43.048760" lon="11.514860">
						<ele>400</ele>
						<time>2026-05-04T20:41:04Z</time>
					</trkpt>
					<trkpt lat="43.048790" lon="11.514980">
						<ele>399</ele>
						<time>2026-05-04T20:41:05Z</time>
					</trkpt>
					<trkpt lat="43.048850" lon="11.515090">
						<ele>398</ele>
						<time>2026-05-04T20:41:07Z</time>
					</trkpt>
					<trkpt lat="43.048900" lon="11.515150">
						<ele>398</ele>
						<time>2026-05-04T20:41:08Z</time>
					</trkpt>
					<trkpt lat="43.048930" lon="11.515170">
						<ele>398</ele>
						<time>2026-05-04T20:41:09Z</time>
					</trkpt>
					<trkpt lat="43.049020" lon="11.515220">
						<ele>397</ele>
						<time>2026-05-04T20:41:10Z</time>
					</trkpt>
					<trkpt lat="43.049390" lon="11.515320">
						<ele>396</ele>
						<time>2026-05-04T20:41:17Z</time>
					</trkpt>
					<trkpt lat="43.049550" lon="11.515370">
						<ele>396</ele>
						<time>2026-05-04T20:41:20Z</time>
					</trkpt>
					<trkpt lat="43.049650" lon="11.515450">
						<ele>395</ele>
						<time>2026-05-04T20:41:22Z</time>
					</trkpt>
					<trkpt lat="43.049720" lon="11.515540">
						<ele>394</ele>
						<time>2026-05-04T20:41:24Z</time>
					</trkpt>
					<trkpt lat="43.049770" lon="11.515630">
						<ele>393</ele>
						<time>2026-05-04T20:41:25Z</time>
					</trkpt>
					<trkpt lat="43.049790" lon="11.515680">
						<ele>393</ele>
						<time>2026-05-04T20:41:26Z</time>
					</trkpt>
					<trkpt lat="43.049830" lon="11.515840">
						<ele>391</ele>
						<time>2026-05-04T20:41:28Z</time>
					</trkpt>
					<trkpt lat="43.049850" lon="11.515950">
						<ele>390</ele>
						<time>2026-05-04T20:41:30Z</time>
					</trkpt>
					<trkpt lat="43.049850" lon="11.516090">
						<ele>389</ele>
						<time>2026-05-04T20:41:32Z</time>
					</trkpt>
					<trkpt lat="43.049790" lon="11.517180">
						<ele>382</ele>
						<time>2026-05-04T20:41:46Z</time>
					</trkpt>
					<trkpt lat="43.049790" lon="11.517420">
						<ele>381</ele>
						<time>2026-05-04T20:41:49Z</time>
					</trkpt>
					<trkpt lat="43.049820" lon="11.517650">
						<ele>379</ele>
						<time>2026-05-04T20:41:52Z</time>
					</trkpt>
					<trkpt lat="43.049960" lon="11.518370">
						<ele>374</ele>
						<time>2026-05-04T20:42:02Z</time>
					</trkpt>
					<trkpt lat="43.050020" lon="11.518620">
						<ele>371</ele>
						<time>2026-05-04T20:42:05Z</time>
					</trkpt>
					<trkpt lat="43.050050" lon="11.518720">
						<ele>370</ele>
						<time>2026-05-04T20:42:06Z</time>
					</trkpt>
					<trkpt lat="43.050140" lon="11.518930">
						<ele>369</ele>
						<time>2026-05-04T20:42:10Z</time>
					</trkpt>
					<trkpt lat="43.050190" lon="11.519000">
						<ele>368</ele>
						<time>2026-05-04T20:42:11Z</time>
					</trkpt>
					<trkpt lat="43.050240" lon="11.519070">
						<ele>368</ele>
						<time>2026-05-04T20:42:12Z</time>
					</trkpt>
					<trkpt lat="43.050310" lon="11.519130">
						<ele>367</ele>
						<time>2026-05-04T20:42:14Z</time>
					</trkpt>
					<trkpt lat="43.051030" lon="11.519620">
						<ele>363</ele>
						<time>2026-05-04T20:42:28Z</time>
					</trkpt>
					<trkpt lat="43.051220" lon="11.519750">
						<ele>360</ele>
						<time>2026-05-04T20:42:32Z</time>
					</trkpt>
					<trkpt lat="43.051410" lon="11.519860">
						<ele>358</ele>
						<time>2026-05-04T20:42:35Z</time>
					</trkpt>
					<trkpt lat="43.052600" lon="11.520260">
						<ele>348</ele>
						<time>2026-05-04T20:42:57Z</time>
					</trkpt>
					<trkpt lat="43.052700" lon="11.520290">
						<ele>348</ele>
						<time>2026-05-04T20:42:59Z</time>
					</trkpt>
					<trkpt lat="43.054010" lon="11.520730">
						<ele>335</ele>
						<time>2026-05-04T20:43:23Z</time>
					</trkpt>
					<trkpt lat="43.054180" lon="11.520760">
						<ele>334</ele>
						<time>2026-05-04T20:43:26Z</time>
					</trkpt>
					<trkpt lat="43.054260" lon="11.520760">
						<ele>334</ele>
						<time>2026-05-04T20:43:28Z</time>
					</trkpt>
					<trkpt lat="43.054370" lon="11.520730">
						<ele>333</ele>
						<time>2026-05-04T20:43:30Z</time>
					</trkpt>
					<trkpt lat="43.054900" lon="11.520460">
						<ele>331</ele>
						<time>2026-05-04T20:43:40Z</time>
					</trkpt>
					<trkpt lat="43.054980" lon="11.520430">
						<ele>331</ele>
						<time>2026-05-04T20:43:41Z</time>
					</trkpt>
					<trkpt lat="43.055130" lon="11.520410">
						<ele>330</ele>
						<time>2026-05-04T20:43:44Z</time>
					</trkpt>
					<trkpt lat="43.055310" lon="11.520400">
						<ele>328</ele>
						<time>2026-05-04T20:43:47Z</time>
					</trkpt>
					<trkpt lat="43.056130" lon="11.520440">
						<ele>323</ele>
						<time>2026-05-04T20:44:02Z</time>
					</trkpt>
					<trkpt lat="43.056280" lon="11.520450">
						<ele>323</ele>
						<time>2026-05-04T20:44:04Z</time>
					</trkpt>
					<trkpt lat="43.056390" lon="11.520490">
						<ele>322</ele>
						<time>2026-05-04T20:44:06Z</time>
					</trkpt>
					<trkpt lat="43.056490" lon="11.520540">
						<ele>322</ele>
						<time>2026-05-04T20:44:08Z</time>
					</trkpt>
					<trkpt lat="43.056610" lon="11.520620">
						<ele>321</ele>
						<time>2026-05-04T20:44:10Z</time>
					</trkpt>
					<trkpt lat="43.056690" lon="11.520710">
						<ele>320</ele>
						<time>2026-05-04T20:44:12Z</time>
					</trkpt>
					<trkpt lat="43.056800" lon="11.520890">
						<ele>320</ele>
						<time>2026-05-04T20:44:15Z</time>
					</trkpt>
					<trkpt lat="43.056870" lon="11.521050">
						<ele>319</ele>
						<time>2026-05-04T20:44:18Z</time>
					</trkpt>
					<trkpt lat="43.056900" lon="11.521180">
						<ele>318</ele>
						<time>2026-05-04T20:44:20Z</time>
					</trkpt>
					<trkpt lat="43.057050" lon="11.521870">
						<ele>316</ele>
						<time>2026-05-04T20:44:29Z</time>
					</trkpt>
					<trkpt lat="43.057250" lon="11.522810">
						<ele>313</ele>
						<time>2026-05-04T20:44:42Z</time>
					</trkpt>
					<trkpt lat="43.057290" lon="11.522940">
						<ele>313</ele>
						<time>2026-05-04T20:44:44Z</time>
					</trkpt>
					<trkpt lat="43.057340" lon="11.523040">
						<ele>313</ele>
						<time>2026-05-04T20:44:45Z</time>
					</trkpt>
					<trkpt lat="43.057410" lon="11.523140">
						<ele>312</ele>
						<time>2026-05-04T20:44:47Z</time>
					</trkpt>
					<trkpt lat="43.057510" lon="11.523240">
						<ele>312</ele>
						<time>2026-05-04T20:44:49Z</time>
					</trkpt>
					<trkpt lat="43.057620" lon="11.523280">
						<ele>311</ele>
						<time>2026-05-04T20:44:51Z</time>
					</trkpt>
					<trkpt lat="43.057690" lon="11.523290">
						<ele>310</ele>
						<time>2026-05-04T20:44:52Z</time>
					</trkpt>
					<trkpt lat="43.057760" lon="11.523280">
						<ele>309</ele>
						<time>2026-05-04T20:44:54Z</time>
					</trkpt>
					<trkpt lat="43.057840" lon="11.523240">
						<ele>308</ele>
						<time>2026-05-04T20:44:55Z</time>
					</trkpt>
					<trkpt lat="43.057920" lon="11.523190">
						<ele>307</ele>
						<time>2026-05-04T20:44:57Z</time>
					</trkpt>
					<trkpt lat="43.057980" lon="11.523130">
						<ele>307</ele>
						<time>2026-05-04T20:44:58Z</time>
					</trkpt>
					<trkpt lat="43.058030" lon="11.523070">
						<ele>306</ele>
						<time>2026-05-04T20:44:59Z</time>
					</trkpt>
					<trkpt lat="43.058130" lon="11.522900">
						<ele>306</ele>
						<time>2026-05-04T20:45:02Z</time>
					</trkpt>
					<trkpt lat="43.058870" lon="11.521550">
						<ele>303</ele>
						<time>2026-05-04T20:45:24Z</time>
					</trkpt>
					<trkpt lat="43.058940" lon="11.521450">
						<ele>302</ele>
						<time>2026-05-04T20:45:26Z</time>
					</trkpt>
					<trkpt lat="43.059010" lon="11.521370">
						<ele>301</ele>
						<time>2026-05-04T20:45:27Z</time>
					</trkpt>
					<trkpt lat="43.059090" lon="11.521320">
						<ele>300</ele>
						<time>2026-05-04T20:45:29Z</time>
					</trkpt>
					<trkpt lat="43.059160" lon="11.521290">
						<ele>299</ele>
						<time>2026-05-04T20:45:30Z</time>
					</trkpt>
					<trkpt lat="43.059280" lon="11.521270">
						<ele>298</ele>
						<time>2026-05-04T20:45:32Z</time>
					</trkpt>
					<trkpt lat="43.059380" lon="11.521280">
						<ele>297</ele>
						<time>2026-05-04T20:45:34Z</time>
					</trkpt>
					<trkpt lat="43.059480" lon="11.521330">
						<ele>296</ele>
						<time>2026-05-04T20:45:36Z</time>
					</trkpt>
					<trkpt lat="43.059600" lon="11.521420">
						<ele>295</ele>
						<time>2026-05-04T20:45:39Z</time>
					</trkpt>
					<trkpt lat="43.060440" lon="11.522190">
						<ele>289</ele>
						<time>2026-05-04T20:45:57Z</time>
					</trkpt>
					<trkpt lat="43.060830" lon="11.522560">
						<ele>288</ele>
						<time>2026-05-04T20:46:05Z</time>
					</trkpt>
					<trkpt lat="43.061020" lon="11.522760">
						<ele>287</ele>
						<time>2026-05-04T20:46:09Z</time>
					</trkpt>
					<trkpt lat="43.061200" lon="11.523060">
						<ele>286</ele>
						<time>2026-05-04T20:46:14Z</time>
					</trkpt>
					<trkpt lat="43.061520" lon="11.523690">
						<ele>285</ele>
						<time>2026-05-04T20:46:24Z</time>
					</trkpt>
					<trkpt lat="43.061730" lon="11.524090">
						<ele>284</ele>
						<time>2026-05-04T20:46:31Z</time>
					</trkpt>
					<trkpt lat="43.061990" lon="11.524490">
						<ele>285</ele>
						<time>2026-05-04T20:46:38Z</time>
					</trkpt>
					<trkpt lat="43.062060" lon="11.524600">
						<ele>285</ele>
						<time>2026-05-04T20:46:40Z</time>
					</trkpt>
					<trkpt lat="43.062100" lon="11.524760">
						<ele>284</ele>
						<time>2026-05-04T20:46:42Z</time>
					</trkpt>
					<trkpt lat="43.062160" lon="11.525020">
						<ele>284</ele>
						<time>2026-05-04T20:46:45Z</time>
					</trkpt>
					<trkpt lat="43.062410" lon="11.526220">
						<ele>280</ele>
						<time>2026-05-04T20:47:01Z</time>
					</trkpt>
					<trkpt lat="43.062480" lon="11.526400">
						<ele>280</ele>
						<time>2026-05-04T20:47:04Z</time>
					</trkpt>
					<trkpt lat="43.063370" lon="11.527890">
						<ele>275</ele>
						<time>2026-05-04T20:47:29Z</time>
					</trkpt>
					<trkpt lat="43.063500" lon="11.528160">
						<ele>274</ele>
						<time>2026-05-04T20:47:33Z</time>
					</trkpt>
					<trkpt lat="43.063560" lon="11.528500">
						<ele>274</ele>
						<time>2026-05-04T20:47:38Z</time>
					</trkpt>
					<trkpt lat="43.063580" lon="11.528730">
						<ele>273</ele>
						<time>2026-05-04T20:47:41Z</time>
					</trkpt>
					<trkpt lat="43.063640" lon="11.529340">
						<ele>271</ele>
						<time>2026-05-04T20:47:49Z</time>
					</trkpt>
					<trkpt lat="43.063700" lon="11.529560">
						<ele>271</ele>
						<time>2026-05-04T20:47:52Z</time>
					</trkpt>
					<trkpt lat="43.063910" lon="11.530040">
						<ele>270</ele>
						<time>2026-05-04T20:47:59Z</time>
					</trkpt>
					<trkpt lat="43.064030" lon="11.530320">
						<ele>268</ele>
						<time>2026-05-04T20:48:03Z</time>
					</trkpt>
					<trkpt lat="43.064150" lon="11.530560">
						<ele>267</ele>
						<time>2026-05-04T20:48:07Z</time>
					</trkpt>
					<trkpt lat="43.064220" lon="11.530660">
						<ele>266</ele>
						<time>2026-05-04T20:48:09Z</time>
					</trkpt>
					<trkpt lat="43.064300" lon="11.530760">
						<ele>265</ele>
						<time>2026-05-04T20:48:11Z</time>
					</trkpt>
					<trkpt lat="43.064450" lon="11.530900">
						<ele>265</ele>
						<time>2026-05-04T20:48:14Z</time>
					</trkpt>
					<trkpt lat="43.064880" lon="11.531190">
						<ele>264</ele>
						<time>2026-05-04T20:48:23Z</time>
					</trkpt>
					<trkpt lat="43.064960" lon="11.531270">
						<ele>264</ele>
						<time>2026-05-04T20:48:24Z</time>
					</trkpt>
					<trkpt lat="43.065040" lon="11.531380">
						<ele>263</ele>
						<time>2026-05-04T20:48:27Z</time>
					</trkpt>
					<trkpt lat="43.065090" lon="11.531470">
						<ele>263</ele>
						<time>2026-05-04T20:48:28Z</time>
					</trkpt>
					<trkpt lat="43.065130" lon="11.531580">
						<ele>263</ele>
						<time>2026-05-04T20:48:30Z</time>
					</trkpt>
					<trkpt lat="43.065160" lon="11.531700">
						<ele>263</ele>
						<time>2026-05-04T20:48:31Z</time>
					</trkpt>
					<trkpt lat="43.065180" lon="11.531840">
						<ele>262</ele>
						<time>2026-05-04T20:48:33Z</time>
					</trkpt>
					<trkpt lat="43.065190" lon="11.531980">
						<ele>262</ele>
						<time>2026-05-04T20:48:35Z</time>
					</trkpt>
					<trkpt lat="43.065170" lon="11.532190">
						<ele>261</ele>
						<time>2026-05-04T20:48:38Z</time>
					</trkpt>
					<trkpt lat="43.065100" lon="11.532590">
						<ele>258</ele>
						<time>2026-05-04T20:48:43Z</time>
					</trkpt>
					<trkpt lat="43.065080" lon="11.532750">
						<ele>257</ele>
						<time>2026-05-04T20:48:45Z</time>
					</trkpt>
					<trkpt lat="43.065080" lon="11.533000">
						<ele>256</ele>
						<time>2026-05-04T20:48:48Z</time>
					</trkpt>
					<trkpt lat="43.065120" lon="11.533190">
						<ele>256</ele>
						<time>2026-05-04T20:48:51Z</time>
					</trkpt>
					<trkpt lat="43.065730" lon="11.535360">
						<ele>250</ele>
						<time>2026-05-04T20:49:21Z</time>
					</trkpt>
					<trkpt lat="43.066580" lon="11.538410">
						<ele>243</ele>
						<time>2026-05-04T20:50:04Z</time>
					</trkpt>
					<trkpt lat="43.066670" lon="11.538710">
						<ele>242</ele>
						<time>2026-05-04T20:50:08Z</time>
					</trkpt>
					<trkpt lat="43.066820" lon="11.539270">
						<ele>243</ele>
						<time>2026-05-04T20:50:16Z</time>
					</trkpt>
					<trkpt lat="43.066860" lon="11.539520">
						<ele>243</ele>
						<time>2026-05-04T20:50:19Z</time>
					</trkpt>
					<trkpt lat="43.066880" lon="11.539770">
						<ele>244</ele>
						<time>2026-05-04T20:50:22Z</time>
					</trkpt>
					<trkpt lat="43.066850" lon="11.540120">
						<ele>244</ele>
						<time>2026-05-04T20:50:27Z</time>
					</trkpt>
					<trkpt lat="43.066820" lon="11.540260">
						<ele>244</ele>
						<time>2026-05-04T20:50:29Z</time>
					</trkpt>
					<trkpt lat="43.066770" lon="11.540480">
						<ele>243</ele>
						<time>2026-05-04T20:50:32Z</time>
					</trkpt>
					<trkpt lat="43.065940" lon="11.543540">
						<ele>240</ele>
						<time>2026-05-04T20:51:14Z</time>
					</trkpt>
					<trkpt lat="43.065910" lon="11.543700">
						<ele>240</ele>
						<time>2026-05-04T20:51:16Z</time>
					</trkpt>
					<trkpt lat="43.065890" lon="11.543930">
						<ele>240</ele>
						<time>2026-05-04T20:51:19Z</time>
					</trkpt>
					<trkpt lat="43.065890" lon="11.544190">
						<ele>241</ele>
						<time>2026-05-04T20:51:23Z</time>
					</trkpt>
					<trkpt lat="43.065910" lon="11.544430">
						<ele>241</ele>
						<time>2026-05-04T20:51:26Z</time>
					</trkpt>
					<trkpt lat="43.066180" lon="11.547000">
						<ele>241</ele>
						<time>2026-05-04T20:51:59Z</time>
					</trkpt>
					<trkpt lat="43.066200" lon="11.547150">
						<ele>240</ele>
						<time>2026-05-04T20:52:01Z</time>
					</trkpt>
					<trkpt lat="43.066230" lon="11.547340">
						<ele>240</ele>
						<time>2026-05-04T20:52:04Z</time>
					</trkpt>
					<trkpt lat="43.066300" lon="11.547580">
						<ele>240</ele>
						<time>2026-05-04T20:52:07Z</time>
					</trkpt>
					<trkpt lat="43.066360" lon="11.547730">
						<ele>240</ele>
						<time>2026-05-04T20:52:10Z</time>
					</trkpt>
					<trkpt lat="43.066420" lon="11.547860">
						<ele>240</ele>
						<time>2026-05-04T20:52:12Z</time>
					</trkpt>
					<trkpt lat="43.066520" lon="11.548000">
						<ele>240</ele>
						<time>2026-05-04T20:52:14Z</time>
					</trkpt>
					<trkpt lat="43.066690" lon="11.548150">
						<ele>241</ele>
						<time>2026-05-04T20:52:18Z</time>
					</trkpt>
					<trkpt lat="43.066750" lon="11.548180">
						<ele>241</ele>
						<time>2026-05-04T20:52:19Z</time>
					</trkpt>
					<trkpt lat="43.066860" lon="11.548230">
						<ele>240</ele>
						<time>2026-05-04T20:52:21Z</time>
					</trkpt>
					<trkpt lat="43.067010" lon="11.548240">
						<ele>240</ele>
						<time>2026-05-04T20:52:24Z</time>
					</trkpt>
					<trkpt lat="43.067150" lon="11.548220">
						<ele>239</ele>
						<time>2026-05-04T20:52:26Z</time>
					</trkpt>
					<trkpt lat="43.067900" lon="11.548060">
						<ele>239</ele>
						<time>2026-05-04T20:52:40Z</time>
					</trkpt>
					<trkpt lat="43.068260" lon="11.548000">
						<ele>240</ele>
						<time>2026-05-04T20:52:46Z</time>
					</trkpt>
					<trkpt lat="43.068630" lon="11.547910">
						<ele>241</ele>
						<time>2026-05-04T20:52:53Z</time>
					</trkpt>
					<trkpt lat="43.068640" lon="11.547910">
						<ele>241</ele>
						<time>2026-05-04T20:52:53Z</time>
					</trkpt>
					<trkpt lat="43.068700" lon="11.547910">
						<ele>241</ele>
						<time>2026-05-04T20:52:54Z</time>
					</trkpt>
					<trkpt lat="43.068780" lon="11.547860">
						<ele>241</ele>
						<time>2026-05-04T20:52:56Z</time>
					</trkpt>
					<trkpt lat="43.069240" lon="11.547240">
						<ele>243</ele>
						<time>2026-05-04T20:53:07Z</time>
					</trkpt>
					<trkpt lat="43.069390" lon="11.547080">
						<ele>244</ele>
						<time>2026-05-04T20:53:10Z</time>
					</trkpt>
					<trkpt lat="43.069500" lon="11.547000">
						<ele>244</ele>
						<time>2026-05-04T20:53:13Z</time>
					</trkpt>
					<trkpt lat="43.069610" lon="11.546970">
						<ele>243</ele>
						<time>2026-05-04T20:53:15Z</time>
					</trkpt>
					<trkpt lat="43.069750" lon="11.546960">
						<ele>243</ele>
						<time>2026-05-04T20:53:17Z</time>
					</trkpt>
					<trkpt lat="43.070420" lon="11.546930">
						<ele>242</ele>
						<time>2026-05-04T20:53:29Z</time>
					</trkpt>
					<trkpt lat="43.070560" lon="11.546910">
						<ele>242</ele>
						<time>2026-05-04T20:53:32Z</time>
					</trkpt>
					<trkpt lat="43.070970" lon="11.547030">
						<ele>242</ele>
						<time>2026-05-04T20:53:39Z</time>
					</trkpt>
					<trkpt lat="43.071460" lon="11.547160">
						<ele>241</ele>
						<time>2026-05-04T20:53:48Z</time>
					</trkpt>
					<trkpt lat="43.071730" lon="11.547260">
						<ele>241</ele>
						<time>2026-05-04T20:53:53Z</time>
					</trkpt>
					<trkpt lat="43.071930" lon="11.547330">
						<ele>242</ele>
						<time>2026-05-04T20:53:57Z</time>
					</trkpt>
					<trkpt lat="43.072090" lon="11.547370">
						<ele>242</ele>
						<time>2026-05-04T20:53:59Z</time>
					</trkpt>
					<trkpt lat="43.072540" lon="11.547470">
						<ele>244</ele>
						<time>2026-05-04T20:54:08Z</time>
					</trkpt>
					<trkpt lat="43.072730" lon="11.547500">
						<ele>245</ele>
						<time>2026-05-04T20:54:11Z</time>
					</trkpt>
					<trkpt lat="43.072980" lon="11.547520">
						<ele>246</ele>
						<time>2026-05-04T20:54:15Z</time>
					</trkpt>
					<trkpt lat="43.073170" lon="11.547520">
						<ele>247</ele>
						<time>2026-05-04T20:54:19Z</time>
					</trkpt>
					<trkpt lat="43.073580" lon="11.547490">
						<ele>248</ele>
						<time>2026-05-04T20:54:26Z</time>
					</trkpt>
					<trkpt lat="43.073780" lon="11.547460">
						<ele>249</ele>
						<time>2026-05-04T20:54:30Z</time>
					</trkpt>
					<trkpt lat="43.074070" lon="11.547410">
						<ele>250</ele>
						<time>2026-05-04T20:54:35Z</time>
					</trkpt>
					<trkpt lat="43.075280" lon="11.547110">
						<ele>250</ele>
						<time>2026-05-04T20:54:57Z</time>
					</trkpt>
					<trkpt lat="43.075560" lon="11.547040">
						<ele>249</ele>
						<time>2026-05-04T20:55:02Z</time>
					</trkpt>
					<trkpt lat="43.076580" lon="11.546780">
						<ele>246</ele>
						<time>2026-05-04T20:55:20Z</time>
					</trkpt>
					<trkpt lat="43.077130" lon="11.546650">
						<ele>244</ele>
						<time>2026-05-04T20:55:30Z</time>
					</trkpt>
					<trkpt lat="43.077480" lon="11.546580">
						<ele>244</ele>
						<time>2026-05-04T20:55:37Z</time>
					</trkpt>
					<trkpt lat="43.077800" lon="11.546550">
						<ele>244</ele>
						<time>2026-05-04T20:55:42Z</time>
					</trkpt>
					<trkpt lat="43.077900" lon="11.546600">
						<ele>243</ele>
						<time>2026-05-04T20:55:44Z</time>
					</trkpt>
					<trkpt lat="43.077990" lon="11.546620">
						<ele>243</ele>
						<time>2026-05-04T20:55:46Z</time>
					</trkpt>
					<trkpt lat="43.078580" lon="11.546700">
						<ele>243</ele>
						<time>2026-05-04T20:55:56Z</time>
					</trkpt>
					<trkpt lat="43.078910" lon="11.546770">
						<ele>243</ele>
						<time>2026-05-04T20:56:02Z</time>
					</trkpt>
					<trkpt lat="43.079130" lon="11.546830">
						<ele>243</ele>
						<time>2026-05-04T20:56:06Z</time>
					</trkpt>
					<trkpt lat="43.079720" lon="11.547050">
						<ele>245</ele>
						<time>2026-05-04T20:56:17Z</time>
					</trkpt>
					<trkpt lat="43.079900" lon="11.547140">
						<ele>246</ele>
						<time>2026-05-04T20:56:21Z</time>
					</trkpt>
					<trkpt lat="43.079980" lon="11.547200">
						<ele>246</ele>
						<time>2026-05-04T20:56:22Z</time>
					</trkpt>
					<trkpt lat="43.080070" lon="11.547290">
						<ele>246</ele>
						<time>2026-05-04T20:56:24Z</time>
					</trkpt>
					<trkpt lat="43.080240" lon="11.547500">
						<ele>245</ele>
						<time>2026-05-04T20:56:28Z</time>
					</trkpt>
					<trkpt lat="43.080370" lon="11.547650">
						<ele>245</ele>
						<time>2026-05-04T20:56:31Z</time>
					</trkpt>
					<trkpt lat="43.080450" lon="11.547720">
						<ele>245</ele>
						<time>2026-05-04T20:56:33Z</time>
					</trkpt>
					<trkpt lat="43.080550" lon="11.547790">
						<ele>245</ele>
						<time>2026-05-04T20:56:35Z</time>
					</trkpt>
					<trkpt lat="43.080920" lon="11.548010">
						<ele>246</ele>
						<time>2026-05-04T20:56:42Z</time>
					</trkpt>
					<trkpt lat="43.081120" lon="11.548110">
						<ele>246</ele>
						<time>2026-05-04T20:56:46Z</time>
					</trkpt>
					<trkpt lat="43.081240" lon="11.548160">
						<ele>246</ele>
						<time>2026-05-04T20:56:48Z</time>
					</trkpt>
					<trkpt lat="43.081480" lon="11.548210">
						<ele>247</ele>
						<time>2026-05-04T20:56:52Z</time>
					</trkpt>
					<trkpt lat="43.081590" lon="11.548230">
						<ele>247</ele>
						<time>2026-05-04T20:56:54Z</time>
					</trkpt>
					<trkpt lat="43.082070" lon="11.548330">
						<ele>248</ele>
						<time>2026-05-04T20:57:03Z</time>
					</trkpt>
					<trkpt lat="43.082200" lon="11.548350">
						<ele>249</ele>
						<time>2026-05-04T20:57:05Z</time>
					</trkpt>
					<trkpt lat="43.082310" lon="11.548350">
						<ele>249</ele>
						<time>2026-05-04T20:57:07Z</time>
					</trkpt>
					<trkpt lat="43.082340" lon="11.548360">
						<ele>249</ele>
						<time>2026-05-04T20:57:08Z</time>
					</trkpt>
					<trkpt lat="43.082470" lon="11.548390">
						<ele>250</ele>
						<time>2026-05-04T20:57:10Z</time>
					</trkpt>
					<trkpt lat="43.082630" lon="11.548390">
						<ele>249</ele>
						<time>2026-05-04T20:57:13Z</time>
					</trkpt>
					<trkpt lat="43.084400" lon="11.548320">
						<ele>250</ele>
						<time>2026-05-04T20:57:45Z</time>
					</trkpt>
					<trkpt lat="43.084570" lon="11.548340">
						<ele>251</ele>
						<time>2026-05-04T20:57:48Z</time>
					</trkpt>
					<trkpt lat="43.084740" lon="11.548400">
						<ele>252</ele>
						<time>2026-05-04T20:57:51Z</time>
					</trkpt>
					<trkpt lat="43.084880" lon="11.548490">
						<ele>253</ele>
						<time>2026-05-04T20:57:53Z</time>
					</trkpt>
					<trkpt lat="43.085080" lon="11.548670">
						<ele>253</ele>
						<time>2026-05-04T20:57:58Z</time>
					</trkpt>
					<trkpt lat="43.085380" lon="11.548970">
						<ele>254</ele>
						<time>2026-05-04T20:58:04Z</time>
					</trkpt>
					<trkpt lat="43.085550" lon="11.549130">
						<ele>256</ele>
						<time>2026-05-04T20:58:08Z</time>
					</trkpt>
					<trkpt lat="43.085590" lon="11.549170">
						<ele>256</ele>
						<time>2026-05-04T20:58:09Z</time>
					</trkpt>
					<trkpt lat="43.085790" lon="11.549270">
						<ele>257</ele>
						<time>2026-05-04T20:58:13Z</time>
					</trkpt>
					<trkpt lat="43.085960" lon="11.549340">
						<ele>257</ele>
						<time>2026-05-04T20:58:16Z</time>
					</trkpt>
					<trkpt lat="43.086050" lon="11.549370">
						<ele>257</ele>
						<time>2026-05-04T20:58:17Z</time>
					</trkpt>
					<trkpt lat="43.086140" lon="11.549390">
						<ele>257</ele>
						<time>2026-05-04T20:58:19Z</time>
					</trkpt>
					<trkpt lat="43.086200" lon="11.549390">
						<ele>257</ele>
						<time>2026-05-04T20:58:20Z</time>
					</trkpt>
					<trkpt lat="43.086320" lon="11.549370">
						<ele>258</ele>
						<time>2026-05-04T20:58:22Z</time>
					</trkpt>
					<trkpt lat="43.086360" lon="11.549370">
						<ele>258</ele>
						<time>2026-05-04T20:58:23Z</time>
					</trkpt>
					<trkpt lat="43.086840" lon="11.549380">
						<ele>259</ele>
						<time>2026-05-04T20:58:32Z</time>
					</trkpt>
					<trkpt lat="43.087320" lon="11.549420">
						<ele>259</ele>
						<time>2026-05-04T20:58:40Z</time>
					</trkpt>
					<trkpt lat="43.087380" lon="11.549430">
						<ele>260</ele>
						<time>2026-05-04T20:58:41Z</time>
					</trkpt>
					<trkpt lat="43.087460" lon="11.549470">
						<ele>259</ele>
						<time>2026-05-04T20:58:43Z</time>
					</trkpt>
					<trkpt lat="43.087520" lon="11.549510">
						<ele>259</ele>
						<time>2026-05-04T20:58:44Z</time>
					</trkpt>
					<trkpt lat="43.087590" lon="11.549590">
						<ele>260</ele>
						<time>2026-05-04T20:58:46Z</time>
					</trkpt>
					<trkpt lat="43.088630" lon="11.550770">
						<ele>258</ele>
						<time>2026-05-04T20:59:10Z</time>
					</trkpt>
					<trkpt lat="43.089140" lon="11.551420">
						<ele>257</ele>
						<time>2026-05-04T20:59:22Z</time>
					</trkpt>
					<trkpt lat="43.089320" lon="11.551600">
						<ele>256</ele>
						<time>2026-05-04T20:59:26Z</time>
					</trkpt>
					<trkpt lat="43.089620" lon="11.551860">
						<ele>256</ele>
						<time>2026-05-04T20:59:32Z</time>
					</trkpt>
					<trkpt lat="43.089750" lon="11.552010">
						<ele>256</ele>
						<time>2026-05-04T20:59:35Z</time>
					</trkpt>
					<trkpt lat="43.089830" lon="11.552240">
						<ele>256</ele>
						<time>2026-05-04T20:59:39Z</time>
					</trkpt>
					<trkpt lat="43.089950" lon="11.552750">
						<ele>255</ele>
						<time>2026-05-04T20:59:46Z</time>
					</trkpt>
					<trkpt lat="43.090000" lon="11.552970">
						<ele>254</ele>
						<time>2026-05-04T20:59:49Z</time>
					</trkpt>
					<trkpt lat="43.090100" lon="11.553260">
						<ele>256</ele>
						<time>2026-05-04T20:59:53Z</time>
					</trkpt>
					<trkpt lat="43.090380" lon="11.553880">
						<ele>257</ele>
						<time>2026-05-04T21:00:02Z</time>
					</trkpt>
					<trkpt lat="43.090960" lon="11.555070">
						<ele>252</ele>
						<time>2026-05-04T21:00:21Z</time>
					</trkpt>
					<trkpt lat="43.091040" lon="11.555210">
						<ele>252</ele>
						<time>2026-05-04T21:00:23Z</time>
					</trkpt>
					<trkpt lat="43.091180" lon="11.555410">
						<ele>253</ele>
						<time>2026-05-04T21:00:27Z</time>
					</trkpt>
					<trkpt lat="43.091850" lon="11.556270">
						<ele>252</ele>
						<time>2026-05-04T21:00:43Z</time>
					</trkpt>
					<trkpt lat="43.092060" lon="11.556520">
						<ele>251</ele>
						<time>2026-05-04T21:00:48Z</time>
					</trkpt>
					<trkpt lat="43.092740" lon="11.557260">
						<ele>251</ele>
						<time>2026-05-04T21:01:03Z</time>
					</trkpt>
					<trkpt lat="43.093490" lon="11.558000">
						<ele>252</ele>
						<time>2026-05-04T21:01:20Z</time>
					</trkpt>
					<trkpt lat="43.093650" lon="11.558180">
						<ele>252</ele>
						<time>2026-05-04T21:01:24Z</time>
					</trkpt>
					<trkpt lat="43.093830" lon="11.558400">
						<ele>252</ele>
						<time>2026-05-04T21:01:28Z</time>
					</trkpt>
					<trkpt lat="43.093970" lon="11.558580">
						<ele>252</ele>
						<time>2026-05-04T21:01:31Z</time>
					</trkpt>
					<trkpt lat="43.095310" lon="11.560430">
						<ele>256</ele>
						<time>2026-05-04T21:02:05Z</time>
					</trkpt>
					<trkpt lat="43.095410" lon="11.560560">
						<ele>257</ele>
						<time>2026-05-04T21:02:08Z</time>
					</trkpt>
					<trkpt lat="43.095670" lon="11.560840">
						<ele>257</ele>
						<time>2026-05-04T21:02:13Z</time>
					</trkpt>
					<trkpt lat="43.096140" lon="11.561290">
						<ele>258</ele>
						<time>2026-05-04T21:02:24Z</time>
					</trkpt>
					<trkpt lat="43.096300" lon="11.561420">
						<ele>259</ele>
						<time>2026-05-04T21:02:27Z</time>
					</trkpt>
					<trkpt lat="43.098020" lon="11.562570">
						<ele>257</ele>
						<time>2026-05-04T21:03:01Z</time>
					</trkpt>
					<trkpt lat="43.098320" lon="11.562760">
						<ele>258</ele>
						<time>2026-05-04T21:03:07Z</time>
					</trkpt>
					<trkpt lat="43.099090" lon="11.563190">
						<ele>258</ele>
						<time>2026-05-04T21:03:22Z</time>
					</trkpt>
					<trkpt lat="43.099970" lon="11.563570">
						<ele>256</ele>
						<time>2026-05-04T21:03:38Z</time>
					</trkpt>
					<trkpt lat="43.100780" lon="11.563850">
						<ele>256</ele>
						<time>2026-05-04T21:03:53Z</time>
					</trkpt>
					<trkpt lat="43.101180" lon="11.564020">
						<ele>255</ele>
						<time>2026-05-04T21:04:00Z</time>
					</trkpt>
					<trkpt lat="43.101420" lon="11.564170">
						<ele>254</ele>
						<time>2026-05-04T21:04:05Z</time>
					</trkpt>
					<trkpt lat="43.101750" lon="11.564460">
						<ele>253</ele>
						<time>2026-05-04T21:04:12Z</time>
					</trkpt>
					<trkpt lat="43.101970" lon="11.564730">
						<ele>253</ele>
						<time>2026-05-04T21:04:17Z</time>
					</trkpt>
					<trkpt lat="43.102500" lon="11.565490">
						<ele>252</ele>
						<time>2026-05-04T21:04:31Z</time>
					</trkpt>
					<trkpt lat="43.102880" lon="11.565980">
						<ele>253</ele>
						<time>2026-05-04T21:04:40Z</time>
					</trkpt>
					<trkpt lat="43.103130" lon="11.566200">
						<ele>253</ele>
						<time>2026-05-04T21:04:46Z</time>
					</trkpt>
					<trkpt lat="43.103330" lon="11.566340">
						<ele>253</ele>
						<time>2026-05-04T21:04:50Z</time>
					</trkpt>
					<trkpt lat="43.103620" lon="11.566500">
						<ele>253</ele>
						<time>2026-05-04T21:04:55Z</time>
					</trkpt>
					<trkpt lat="43.104170" lon="11.566800">
						<ele>254</ele>
						<time>2026-05-04T21:05:06Z</time>
					</trkpt>
					<trkpt lat="43.105680" lon="11.567450">
						<ele>255</ele>
						<time>2026-05-04T21:05:34Z</time>
					</trkpt>
					<trkpt lat="43.107210" lon="11.568210">
						<ele>254</ele>
						<time>2026-05-04T21:06:03Z</time>
					</trkpt>
					<trkpt lat="43.108390" lon="11.568780">
						<ele>251</ele>
						<time>2026-05-04T21:06:25Z</time>
					</trkpt>
					<trkpt lat="43.111220" lon="11.570120">
						<ele>259</ele>
						<time>2026-05-04T21:07:18Z</time>
					</trkpt>
					<trkpt lat="43.111790" lon="11.570380">
						<ele>261</ele>
						<time>2026-05-04T21:07:29Z</time>
					</trkpt>
					<trkpt lat="43.114240" lon="11.570960">
						<ele>266</ele>
						<time>2026-05-04T21:08:13Z</time>
					</trkpt>
					<trkpt lat="43.115910" lon="11.571580">
						<ele>268</ele>
						<time>2026-05-04T21:08:44Z</time>
					</trkpt>
					<trkpt lat="43.116160" lon="11.571580">
						<ele>267</ele>
						<time>2026-05-04T21:08:49Z</time>
					</trkpt>
					<trkpt lat="43.116500" lon="11.571540">
						<ele>268</ele>
						<time>2026-05-04T21:08:55Z</time>
					</trkpt>
					<trkpt lat="43.117010" lon="11.571450">
						<ele>267</ele>
						<time>2026-05-04T21:09:04Z</time>
					</trkpt>
					<trkpt lat="43.117420" lon="11.571410">
						<ele>266</ele>
						<time>2026-05-04T21:09:11Z</time>
					</trkpt>
					<trkpt lat="43.117670" lon="11.571420">
						<ele>265</ele>
						<time>2026-05-04T21:09:15Z</time>
					</trkpt>
					<trkpt lat="43.117890" lon="11.571530">
						<ele>263</ele>
						<time>2026-05-04T21:09:20Z</time>
					</trkpt>
					<trkpt lat="43.118380" lon="11.571860">
						<ele>261</ele>
						<time>2026-05-04T21:09:29Z</time>
					</trkpt>
					<trkpt lat="43.118840" lon="11.572210">
						<ele>261</ele>
						<time>2026-05-04T21:09:39Z</time>
					</trkpt>
					<trkpt lat="43.119520" lon="11.572730">
						<ele>263</ele>
						<time>2026-05-04T21:09:53Z</time>
					</trkpt>
					<trkpt lat="43.119770" lon="11.572970">
						<ele>263</ele>
						<time>2026-05-04T21:09:58Z</time>
					</trkpt>
					<trkpt lat="43.120690" lon="11.573920">
						<ele>264</ele>
						<time>2026-05-04T21:10:19Z</time>
					</trkpt>
					<trkpt lat="43.120990" lon="11.574200">
						<ele>264</ele>
						<time>2026-05-04T21:10:25Z</time>
					</trkpt>
					<trkpt lat="43.121110" lon="11.574300">
						<ele>264</ele>
						<time>2026-05-04T21:10:27Z</time>
					</trkpt>
					<trkpt lat="43.121610" lon="11.574590">
						<ele>266</ele>
						<time>2026-05-04T21:10:37Z</time>
					</trkpt>
					<trkpt lat="43.122540" lon="11.575070">
						<ele>265</ele>
						<time>2026-05-04T21:10:55Z</time>
					</trkpt>
					<trkpt lat="43.122910" lon="11.575140">
						<ele>265</ele>
						<time>2026-05-04T21:11:01Z</time>
					</trkpt>
					<trkpt lat="43.123670" lon="11.575220">
						<ele>267</ele>
						<time>2026-05-04T21:11:15Z</time>
					</trkpt>
					<trkpt lat="43.124460" lon="11.575270">
						<ele>267</ele>
						<time>2026-05-04T21:11:29Z</time>
					</trkpt>
					<trkpt lat="43.124740" lon="11.575260">
						<ele>267</ele>
						<time>2026-05-04T21:11:34Z</time>
					</trkpt>
					<trkpt lat="43.125250" lon="11.575190">
						<ele>267</ele>
						<time>2026-05-04T21:11:43Z</time>
					</trkpt>
					<trkpt lat="43.127940" lon="11.574770">
						<ele>264</ele>
						<time>2026-05-04T21:12:31Z</time>
					</trkpt>
					<trkpt lat="43.128680" lon="11.574720">
						<ele>262</ele>
						<time>2026-05-04T21:12:45Z</time>
					</trkpt>
					<trkpt lat="43.129090" lon="11.574740">
						<ele>261</ele>
						<time>2026-05-04T21:12:52Z</time>
					</trkpt>
					<trkpt lat="43.129440" lon="11.574780">
						<ele>261</ele>
						<time>2026-05-04T21:12:58Z</time>
					</trkpt>
					<trkpt lat="43.129590" lon="11.574800">
						<ele>260</ele>
						<time>2026-05-04T21:13:01Z</time>
					</trkpt>
					<trkpt lat="43.129870" lon="11.574870">
						<ele>260</ele>
						<time>2026-05-04T21:13:06Z</time>
					</trkpt>
					<trkpt lat="43.130230" lon="11.574970">
						<ele>260</ele>
						<time>2026-05-04T21:13:12Z</time>
					</trkpt>
					<trkpt lat="43.132080" lon="11.575460">
						<ele>265</ele>
						<time>2026-05-04T21:13:46Z</time>
					</trkpt>
					<trkpt lat="43.133370" lon="11.575870">
						<ele>265</ele>
						<time>2026-05-04T21:14:09Z</time>
					</trkpt>
					<trkpt lat="43.133540" lon="11.575920">
						<ele>265</ele>
						<time>2026-05-04T21:14:13Z</time>
					</trkpt>
					<trkpt lat="43.134160" lon="11.576100">
						<ele>264</ele>
						<time>2026-05-04T21:14:24Z</time>
					</trkpt>
					<trkpt lat="43.134470" lon="11.576210">
						<ele>264</ele>
						<time>2026-05-04T21:14:30Z</time>
					</trkpt>
					<trkpt lat="43.134740" lon="11.576330">
						<ele>264</ele>
						<time>2026-05-04T21:14:35Z</time>
					</trkpt>
					<trkpt lat="43.134840" lon="11.576380">
						<ele>264</ele>
						<time>2026-05-04T21:14:36Z</time>
					</trkpt>
					<trkpt lat="43.135110" lon="11.576540">
						<ele>264</ele>
						<time>2026-05-04T21:14:42Z</time>
					</trkpt>
					<trkpt lat="43.135420" lon="11.576820">
						<ele>263</ele>
						<time>2026-05-04T21:14:48Z</time>
					</trkpt>
					<trkpt lat="43.137590" lon="11.578760">
						<ele>267</ele>
						<time>2026-05-04T21:15:34Z</time>
					</trkpt>
					<trkpt lat="43.138290" lon="11.579390">
						<ele>268</ele>
						<time>2026-05-04T21:15:49Z</time>
					</trkpt>
					<trkpt lat="43.138700" lon="11.579700">
						<ele>268</ele>
						<time>2026-05-04T21:15:58Z</time>
					</trkpt>
					<trkpt lat="43.139200" lon="11.580030">
						<ele>267</ele>
						<time>2026-05-04T21:16:08Z</time>
					</trkpt>
					<trkpt lat="43.141590" lon="11.581480">
						<ele>274</ele>
						<time>2026-05-04T21:16:54Z</time>
					</trkpt>
					<trkpt lat="43.141730" lon="11.581560">
						<ele>274</ele>
						<time>2026-05-04T21:16:57Z</time>
					</trkpt>
					<trkpt lat="43.142110" lon="11.581700">
						<ele>275</ele>
						<time>2026-05-04T21:17:04Z</time>
					</trkpt>
					<trkpt lat="43.143040" lon="11.581950">
						<ele>276</ele>
						<time>2026-05-04T21:17:21Z</time>
					</trkpt>
					<trkpt lat="43.143330" lon="11.582080">
						<ele>275</ele>
						<time>2026-05-04T21:17:26Z</time>
					</trkpt>
					<trkpt lat="43.145150" lon="11.583110">
						<ele>270</ele>
						<time>2026-05-04T21:18:01Z</time>
					</trkpt>
					<trkpt lat="43.145370" lon="11.583210">
						<ele>270</ele>
						<time>2026-05-04T21:18:05Z</time>
					</trkpt>
					<trkpt lat="43.145730" lon="11.583320">
						<ele>271</ele>
						<time>2026-05-04T21:18:12Z</time>
					</trkpt>
					<trkpt lat="43.147420" lon="11.583610">
						<ele>270</ele>
						<time>2026-05-04T21:18:42Z</time>
					</trkpt>
					<trkpt lat="43.148120" lon="11.583710">
						<ele>270</ele>
						<time>2026-05-04T21:18:55Z</time>
					</trkpt>
					<trkpt lat="43.148220" lon="11.583720">
						<ele>270</ele>
						<time>2026-05-04T21:18:56Z</time>
					</trkpt>
					<trkpt lat="43.148370" lon="11.583710">
						<ele>270</ele>
						<time>2026-05-04T21:18:59Z</time>
					</trkpt>
					<trkpt lat="43.148610" lon="11.583640">
						<ele>270</ele>
						<time>2026-05-04T21:19:03Z</time>
					</trkpt>
					<trkpt lat="43.148980" lon="11.583470">
						<ele>271</ele>
						<time>2026-05-04T21:19:10Z</time>
					</trkpt>
					<trkpt lat="43.149120" lon="11.583420">
						<ele>271</ele>
						<time>2026-05-04T21:19:13Z</time>
					</trkpt>
					<trkpt lat="43.149180" lon="11.583420">
						<ele>271</ele>
						<time>2026-05-04T21:19:14Z</time>
					</trkpt>
					<trkpt lat="43.149270" lon="11.583430">
						<ele>271</ele>
						<time>2026-05-04T21:19:16Z</time>
					</trkpt>
					<trkpt lat="43.149350" lon="11.583470">
						<ele>270</ele>
						<time>2026-05-04T21:19:17Z</time>
					</trkpt>
					<trkpt lat="43.149440" lon="11.583540">
						<ele>270</ele>
						<time>2026-05-04T21:19:19Z</time>
					</trkpt>
					<trkpt lat="43.149580" lon="11.583690">
						<ele>270</ele>
						<time>2026-05-04T21:19:22Z</time>
					</trkpt>
					<trkpt lat="43.149790" lon="11.583910">
						<ele>270</ele>
						<time>2026-05-04T21:19:27Z</time>
					</trkpt>
					<trkpt lat="43.149910" lon="11.584060">
						<ele>270</ele>
						<time>2026-05-04T21:19:30Z</time>
					</trkpt>
					<trkpt lat="43.149970" lon="11.584150">
						<ele>270</ele>
						<time>2026-05-04T21:19:31Z</time>
					</trkpt>
					<trkpt lat="43.150030" lon="11.584260">
						<ele>270</ele>
						<time>2026-05-04T21:19:33Z</time>
					</trkpt>
					<trkpt lat="43.150090" lon="11.584390">
						<ele>271</ele>
						<time>2026-05-04T21:19:35Z</time>
					</trkpt>
					<trkpt lat="43.150380" lon="11.585300">
						<ele>272</ele>
						<time>2026-05-04T21:19:48Z</time>
					</trkpt>
					<trkpt lat="43.150550" lon="11.585780">
						<ele>272</ele>
						<time>2026-05-04T21:19:55Z</time>
					</trkpt>
					<trkpt lat="43.150630" lon="11.586010">
						<ele>272</ele>
						<time>2026-05-04T21:19:58Z</time>
					</trkpt>
					<trkpt lat="43.150760" lon="11.586330">
						<ele>272</ele>
						<time>2026-05-04T21:20:03Z</time>
					</trkpt>
					<trkpt lat="43.151000" lon="11.586890">
						<ele>272</ele>
						<time>2026-05-04T21:20:11Z</time>
					</trkpt>
					<trkpt lat="43.151550" lon="11.588210">
						<ele>275</ele>
						<time>2026-05-04T21:20:31Z</time>
					</trkpt>
					<trkpt lat="43.151710" lon="11.588610">
						<ele>277</ele>
						<time>2026-05-04T21:20:37Z</time>
					</trkpt>
					<trkpt lat="43.151750" lon="11.588720">
						<ele>277</ele>
						<time>2026-05-04T21:20:39Z</time>
					</trkpt>
					<trkpt lat="43.151780" lon="11.588830">
						<ele>278</ele>
						<time>2026-05-04T21:20:40Z</time>
					</trkpt>
					<trkpt lat="43.151780" lon="11.588880">
						<ele>278</ele>
						<time>2026-05-04T21:20:41Z</time>
					</trkpt>
					<trkpt lat="43.151770" lon="11.588990">
						<ele>278</ele>
						<time>2026-05-04T21:20:42Z</time>
					</trkpt>
					<trkpt lat="43.151850" lon="11.589030">
						<ele>280</ele>
						<time>2026-05-04T21:20:44Z</time>
					</trkpt>
					<trkpt lat="43.151900" lon="11.589110">
						<ele>281</ele>
						<time>2026-05-04T21:20:45Z</time>
					</trkpt>
					<trkpt lat="43.151920" lon="11.589180">
						<ele>282</ele>
						<time>2026-05-04T21:20:46Z</time>
					</trkpt>
					<trkpt lat="43.151940" lon="11.589280">
						<ele>283</ele>
						<time>2026-05-04T21:20:47Z</time>
					</trkpt>
					<trkpt lat="43.151940" lon="11.589400">
						<ele>284</ele>
						<time>2026-05-04T21:20:49Z</time>
					</trkpt>
					<trkpt lat="43.151920" lon="11.589560">
						<ele>286</ele>
						<time>2026-05-04T21:20:51Z</time>
					</trkpt>
					<trkpt lat="43.151850" lon="11.589950">
						<ele>287</ele>
						<time>2026-05-04T21:20:56Z</time>
					</trkpt>
					<trkpt lat="43.151830" lon="11.590200">
						<ele>286</ele>
						<time>2026-05-04T21:21:00Z</time>
					</trkpt>
					<trkpt lat="43.151860" lon="11.590390">
						<ele>286</ele>
						<time>2026-05-04T21:21:02Z</time>
					</trkpt>
					<trkpt lat="43.151880" lon="11.590490">
						<ele>286</ele>
						<time>2026-05-04T21:21:03Z</time>
					</trkpt>
					<trkpt lat="43.151910" lon="11.590580">
						<ele>287</ele>
						<time>2026-05-04T21:21:05Z</time>
					</trkpt>
					<trkpt lat="43.151950" lon="11.590670">
						<ele>287</ele>
						<time>2026-05-04T21:21:06Z</time>
					</trkpt>
					<trkpt lat="43.152020" lon="11.590770">
						<ele>289</ele>
						<time>2026-05-04T21:21:08Z</time>
					</trkpt>
					<trkpt lat="43.152070" lon="11.590820">
						<ele>290</ele>
						<time>2026-05-04T21:21:09Z</time>
					</trkpt>
					<trkpt lat="43.152140" lon="11.590860">
						<ele>291</ele>
						<time>2026-05-04T21:21:10Z</time>
					</trkpt>
					<trkpt lat="43.152360" lon="11.590940">
						<ele>295</ele>
						<time>2026-05-04T21:21:14Z</time>
					</trkpt>
					<trkpt lat="43.152610" lon="11.590990">
						<ele>298</ele>
						<time>2026-05-04T21:21:19Z</time>
					</trkpt>
					<trkpt lat="43.152870" lon="11.591030">
						<ele>298</ele>
						<time>2026-05-04T21:21:24Z</time>
					</trkpt>
					<trkpt lat="43.153580" lon="11.591170">
						<ele>299</ele>
						<time>2026-05-04T21:21:36Z</time>
					</trkpt>
					<trkpt lat="43.153670" lon="11.591170">
						<ele>299</ele>
						<time>2026-05-04T21:21:38Z</time>
					</trkpt>
					<trkpt lat="43.153720" lon="11.591160">
						<ele>300</ele>
						<time>2026-05-04T21:21:39Z</time>
					</trkpt>
					<trkpt lat="43.153760" lon="11.591130">
						<ele>301</ele>
						<time>2026-05-04T21:21:40Z</time>
					</trkpt>
					<trkpt lat="43.153790" lon="11.591090">
						<ele>302</ele>
						<time>2026-05-04T21:21:40Z</time>
					</trkpt>
					<trkpt lat="43.153820" lon="11.591000">
						<ele>305</ele>
						<time>2026-05-04T21:21:42Z</time>
					</trkpt>
					<trkpt lat="43.153830" lon="11.590950">
						<ele>306</ele>
						<time>2026-05-04T21:21:42Z</time>
					</trkpt>
					<trkpt lat="43.153830" lon="11.590610">
						<ele>312</ele>
						<time>2026-05-04T21:21:47Z</time>
					</trkpt>
					<trkpt lat="43.153820" lon="11.590550">
						<ele>312</ele>
						<time>2026-05-04T21:21:48Z</time>
					</trkpt>
					<trkpt lat="43.153770" lon="11.590440">
						<ele>314</ele>
						<time>2026-05-04T21:21:49Z</time>
					</trkpt>
					<trkpt lat="43.153580" lon="11.590170">
						<ele>316</ele>
						<time>2026-05-04T21:21:54Z</time>
					</trkpt>
					<trkpt lat="43.153440" lon="11.589950">
						<ele>317</ele>
						<time>2026-05-04T21:21:58Z</time>
					</trkpt>
					<trkpt lat="43.153410" lon="11.589870">
						<ele>316</ele>
						<time>2026-05-04T21:21:59Z</time>
					</trkpt>
					<trkpt lat="43.153410" lon="11.589780">
						<ele>315</ele>
						<time>2026-05-04T21:22:00Z</time>
					</trkpt>
					<trkpt lat="43.153420" lon="11.589720">
						<ele>314</ele>
						<time>2026-05-04T21:22:01Z</time>
					</trkpt>
					<trkpt lat="43.153210" lon="11.589690">
						<ele>311</ele>
						<time>2026-05-04T21:22:05Z</time>
					</trkpt>
					<trkpt lat="43.153140" lon="11.589660">
						<ele>310</ele>
						<time>2026-05-04T21:22:06Z</time>
					</trkpt>
					<trkpt lat="43.153110" lon="11.589440">
						<ele>306</ele>
						<time>2026-05-04T21:22:09Z</time>
					</trkpt>
					<trkpt lat="43.153160" lon="11.589310">
						<ele>305</ele>
						<time>2026-05-04T21:22:11Z</time>
					</trkpt>
					<trkpt lat="43.153230" lon="11.589220">
						<ele>305</ele>
						<time>2026-05-04T21:22:13Z</time>
					</trkpt>
					<trkpt lat="43.153260" lon="11.589160">
						<ele>305</ele>
						<time>2026-05-04T21:22:14Z</time>
					</trkpt>
					<trkpt lat="43.153260" lon="11.589130">
						<ele>304</ele>
						<time>2026-05-04T21:22:14Z</time>
					</trkpt>
					<trkpt lat="43.153250" lon="11.589100">
						<ele>304</ele>
						<time>2026-05-04T21:22:14Z</time>
					</trkpt>
					<trkpt lat="43.153190" lon="11.589080">
						<ele>302</ele>
						<time>2026-05-04T21:22:15Z</time>
					</trkpt>
					<trkpt lat="43.153140" lon="11.589090">
						<ele>302</ele>
						<time>2026-05-04T21:22:16Z</time>
					</trkpt>
					<trkpt lat="43.152500" lon="11.589120">
						<ele>291</ele>
						<time>2026-05-04T21:22:28Z</time>
					</trkpt>
					<trkpt lat="43.152420" lon="11.589130">
						<ele>290</ele>
						<time>2026-05-04T21:22:29Z</time>
					</trkpt>
					<trkpt lat="43.152320" lon="11.589160">
						<ele>289</ele>
						<time>2026-05-04T21:22:31Z</time>
					</trkpt>
					<trkpt lat="43.152190" lon="11.589210">
						<ele>287</ele>
						<time>2026-05-04T21:22:33Z</time>
					</trkpt>
					<trkpt lat="43.152080" lon="11.589230">
						<ele>285</ele>
						<time>2026-05-04T21:22:35Z</time>
					</trkpt>
					<trkpt lat="43.151920" lon="11.589180">
						<ele>282</ele>
						<time>2026-05-04T21:22:38Z</time>
					</trkpt>
					<trkpt lat="43.151900" lon="11.589110">
						<ele>281</ele>
						<time>2026-05-04T21:22:39Z</time>
					</trkpt>
					<trkpt lat="43.151850" lon="11.589030">
						<ele>280</ele>
						<time>2026-05-04T21:22:41Z</time>
					</trkpt>
					<trkpt lat="43.151770" lon="11.588990">
						<ele>278</ele>
						<time>2026-05-04T21:22:42Z</time>
					</trkpt>
					<trkpt lat="43.151730" lon="11.589070">
						<ele>278</ele>
						<time>2026-05-04T21:22:43Z</time>
					</trkpt>
					<trkpt lat="43.151670" lon="11.589120">
						<ele>277</ele>
						<time>2026-05-04T21:22:45Z</time>
					</trkpt>
					<trkpt lat="43.151630" lon="11.589140">
						<ele>277</ele>
						<time>2026-05-04T21:22:45Z</time>
					</trkpt>
					<trkpt lat="43.151530" lon="11.589160">
						<ele>276</ele>
						<time>2026-05-04T21:22:47Z</time>
					</trkpt>
					<trkpt lat="43.151380" lon="11.589150">
						<ele>275</ele>
						<time>2026-05-04T21:22:50Z</time>
					</trkpt>
					<trkpt lat="43.151100" lon="11.589120">
						<ele>274</ele>
						<time>2026-05-04T21:22:55Z</time>
					</trkpt>
					<trkpt lat="43.150930" lon="11.589070">
						<ele>273</ele>
						<time>2026-05-04T21:22:58Z</time>
					</trkpt>
					<trkpt lat="43.150800" lon="11.589010">
						<ele>272</ele>
						<time>2026-05-04T21:23:00Z</time>
					</trkpt>
					<trkpt lat="43.150700" lon="11.588930">
						<ele>271</ele>
						<time>2026-05-04T21:23:03Z</time>
					</trkpt>
					<trkpt lat="43.150620" lon="11.588850">
						<ele>270</ele>
						<time>2026-05-04T21:23:04Z</time>
					</trkpt>
					<trkpt lat="43.150410" lon="11.588540">
						<ele>268</ele>
						<time>2026-05-04T21:23:10Z</time>
					</trkpt>
					<trkpt lat="43.150310" lon="11.588430">
						<ele>267</ele>
						<time>2026-05-04T21:23:12Z</time>
					</trkpt>
					<trkpt lat="43.150200" lon="11.588370">
						<ele>266</ele>
						<time>2026-05-04T21:23:14Z</time>
					</trkpt>
					<trkpt lat="43.150080" lon="11.588380">
						<ele>265</ele>
						<time>2026-05-04T21:23:16Z</time>
					</trkpt>
					<trkpt lat="43.149950" lon="11.588430">
						<ele>264</ele>
						<time>2026-05-04T21:23:19Z</time>
					</trkpt>
					<trkpt lat="43.149770" lon="11.588520">
						<ele>265</ele>
						<time>2026-05-04T21:23:22Z</time>
					</trkpt>
					<trkpt lat="43.149480" lon="11.588710">
						<ele>266</ele>
						<time>2026-05-04T21:23:28Z</time>
					</trkpt>
					<trkpt lat="43.148500" lon="11.589310">
						<ele>273</ele>
						<time>2026-05-04T21:23:47Z</time>
					</trkpt>
					<trkpt lat="43.148400" lon="11.589390">
						<ele>273</ele>
						<time>2026-05-04T21:23:49Z</time>
					</trkpt>
					<trkpt lat="43.148330" lon="11.589480">
						<ele>274</ele>
						<time>2026-05-04T21:23:51Z</time>
					</trkpt>
					<trkpt lat="43.148210" lon="11.589710">
						<ele>276</ele>
						<time>2026-05-04T21:23:54Z</time>
					</trkpt>
					<trkpt lat="43.148140" lon="11.589870">
						<ele>277</ele>
						<time>2026-05-04T21:23:57Z</time>
					</trkpt>
					<trkpt lat="43.148110" lon="11.590030">
						<ele>277</ele>
						<time>2026-05-04T21:23:59Z</time>
					</trkpt>
					<trkpt lat="43.148110" lon="11.590200">
						<ele>278</ele>
						<time>2026-05-04T21:24:01Z</time>
					</trkpt>
					<trkpt lat="43.148120" lon="11.590410">
						<ele>278</ele>
						<time>2026-05-04T21:24:04Z</time>
					</trkpt>
					<trkpt lat="43.148210" lon="11.590700">
						<ele>279</ele>
						<time>2026-05-04T21:24:08Z</time>
					</trkpt>
					<trkpt lat="43.148350" lon="11.591030">
						<ele>280</ele>
						<time>2026-05-04T21:24:13Z</time>
					</trkpt>
					<trkpt lat="43.148490" lon="11.591310">
						<ele>282</ele>
						<time>2026-05-04T21:24:17Z</time>
					</trkpt>
					<trkpt lat="43.149070" lon="11.592170">
						<ele>285</ele>
						<time>2026-05-04T21:24:33Z</time>
					</trkpt>
					<trkpt lat="43.149220" lon="11.592440">
						<ele>286</ele>
						<time>2026-05-04T21:24:37Z</time>
					</trkpt>
					<trkpt lat="43.149330" lon="11.592770">
						<ele>288</ele>
						<time>2026-05-04T21:24:42Z</time>
					</trkpt>
					<trkpt lat="43.149510" lon="11.593500">
						<ele>293</ele>
						<time>2026-05-04T21:24:52Z</time>
					</trkpt>
					<trkpt lat="43.149550" lon="11.593780">
						<ele>295</ele>
						<time>2026-05-04T21:24:55Z</time>
					</trkpt>
					<trkpt lat="43.149530" lon="11.594030">
						<ele>297</ele>
						<time>2026-05-04T21:24:59Z</time>
					</trkpt>
					<trkpt lat="43.149470" lon="11.594300">
						<ele>299</ele>
						<time>2026-05-04T21:25:02Z</time>
					</trkpt>
					<trkpt lat="43.149400" lon="11.594490">
						<ele>299</ele>
						<time>2026-05-04T21:25:05Z</time>
					</trkpt>
					<trkpt lat="43.149300" lon="11.594670">
						<ele>301</ele>
						<time>2026-05-04T21:25:08Z</time>
					</trkpt>
					<trkpt lat="43.149140" lon="11.594780">
						<ele>304</ele>
						<time>2026-05-04T21:25:11Z</time>
					</trkpt>
					<trkpt lat="43.148420" lon="11.594970">
						<ele>316</ele>
						<time>2026-05-04T21:25:24Z</time>
					</trkpt>
					<trkpt lat="43.147360" lon="11.595440">
						<ele>327</ele>
						<time>2026-05-04T21:25:44Z</time>
					</trkpt>
					<trkpt lat="43.147070" lon="11.595590">
						<ele>330</ele>
						<time>2026-05-04T21:25:50Z</time>
					</trkpt>
					<trkpt lat="43.146930" lon="11.595740">
						<ele>332</ele>
						<time>2026-05-04T21:25:53Z</time>
					</trkpt>
					<trkpt lat="43.146860" lon="11.595900">
						<ele>332</ele>
						<time>2026-05-04T21:25:55Z</time>
					</trkpt>
					<trkpt lat="43.146800" lon="11.596060">
						<ele>333</ele>
						<time>2026-05-04T21:25:57Z</time>
					</trkpt>
					<trkpt lat="43.146770" lon="11.596230">
						<ele>333</ele>
						<time>2026-05-04T21:26:00Z</time>
					</trkpt>
					<trkpt lat="43.146780" lon="11.596570">
						<ele>332</ele>
						<time>2026-05-04T21:26:04Z</time>
					</trkpt>
					<trkpt lat="43.146830" lon="11.596890">
						<ele>330</ele>
						<time>2026-05-04T21:26:08Z</time>
					</trkpt>
					<trkpt lat="43.146890" lon="11.597090">
						<ele>329</ele>
						<time>2026-05-04T21:26:11Z</time>
					</trkpt>
					<trkpt lat="43.147100" lon="11.597360">
						<ele>329</ele>
						<time>2026-05-04T21:26:16Z</time>
					</trkpt>
					<trkpt lat="43.147310" lon="11.597510">
						<ele>330</ele>
						<time>2026-05-04T21:26:21Z</time>
					</trkpt>
					<trkpt lat="43.147760" lon="11.597890">
						<ele>328</ele>
						<time>2026-05-04T21:26:30Z</time>
					</trkpt>
					<trkpt lat="43.147880" lon="11.598020">
						<ele>328</ele>
						<time>2026-05-04T21:26:33Z</time>
					</trkpt>
					<trkpt lat="43.147980" lon="11.598170">
						<ele>329</ele>
						<time>2026-05-04T21:26:35Z</time>
					</trkpt>
					<trkpt lat="43.148410" lon="11.598990">
						<ele>332</ele>
						<time>2026-05-04T21:26:48Z</time>
					</trkpt>
					<trkpt lat="43.148590" lon="11.599450">
						<ele>333</ele>
						<time>2026-05-04T21:26:55Z</time>
					</trkpt>
					<trkpt lat="43.148670" lon="11.599730">
						<ele>333</ele>
						<time>2026-05-04T21:26:59Z</time>
					</trkpt>
					<trkpt lat="43.148840" lon="11.600370">
						<ele>335</ele>
						<time>2026-05-04T21:27:08Z</time>
					</trkpt>
					<trkpt lat="43.148940" lon="11.600640">
						<ele>337</ele>
						<time>2026-05-04T21:27:12Z</time>
					</trkpt>
					<trkpt lat="43.149100" lon="11.600940">
						<ele>340</ele>
						<time>2026-05-04T21:27:17Z</time>
					</trkpt>
					<trkpt lat="43.149340" lon="11.601220">
						<ele>341</ele>
						<time>2026-05-04T21:27:22Z</time>
					</trkpt>
					<trkpt lat="43.149840" lon="11.601710">
						<ele>346</ele>
						<time>2026-05-04T21:27:33Z</time>
					</trkpt>
					<trkpt lat="43.150020" lon="11.601910">
						<ele>347</ele>
						<time>2026-05-04T21:27:37Z</time>
					</trkpt>
					<trkpt lat="43.150140" lon="11.602160">
						<ele>347</ele>
						<time>2026-05-04T21:27:41Z</time>
					</trkpt>
					<trkpt lat="43.150220" lon="11.602460">
						<ele>348</ele>
						<time>2026-05-04T21:27:45Z</time>
					</trkpt>
					<trkpt lat="43.150300" lon="11.602830">
						<ele>349</ele>
						<time>2026-05-04T21:27:50Z</time>
					</trkpt>
					<trkpt lat="43.150360" lon="11.603190">
						<ele>350</ele>
						<time>2026-05-04T21:27:55Z</time>
					</trkpt>
					<trkpt lat="43.150480" lon="11.604390">
						<ele>351</ele>
						<time>2026-05-04T21:28:11Z</time>
					</trkpt>
					<trkpt lat="43.150480" lon="11.604680">
						<ele>351</ele>
						<time>2026-05-04T21:28:15Z</time>
					</trkpt>
					<trkpt lat="43.150440" lon="11.604990">
						<ele>352</ele>
						<time>2026-05-04T21:28:19Z</time>
					</trkpt>
					<trkpt lat="43.150340" lon="11.605320">
						<ele>353</ele>
						<time>2026-05-04T21:28:23Z</time>
					</trkpt>
					<trkpt lat="43.149860" lon="11.606540">
						<ele>356</ele>
						<time>2026-05-04T21:28:41Z</time>
					</trkpt>
					<trkpt lat="43.149770" lon="11.606940">
						<ele>357</ele>
						<time>2026-05-04T21:28:47Z</time>
					</trkpt>
					<trkpt lat="43.149710" lon="11.607310">
						<ele>358</ele>
						<time>2026-05-04T21:28:52Z</time>
					</trkpt>
					<trkpt lat="43.149670" lon="11.607690">
						<ele>359</ele>
						<time>2026-05-04T21:28:57Z</time>
					</trkpt>
					<trkpt lat="43.149670" lon="11.608000">
						<ele>359</ele>
						<time>2026-05-04T21:29:01Z</time>
					</trkpt>
					<trkpt lat="43.149690" lon="11.608270">
						<ele>359</ele>
						<time>2026-05-04T21:29:04Z</time>
					</trkpt>
					<trkpt lat="43.149840" lon="11.609260">
						<ele>357</ele>
						<time>2026-05-04T21:29:17Z</time>
					</trkpt>
					<trkpt lat="43.150140" lon="11.611070">
						<ele>356</ele>
						<time>2026-05-04T21:29:41Z</time>
					</trkpt>
					<trkpt lat="43.150210" lon="11.611310">
						<ele>355</ele>
						<time>2026-05-04T21:29:45Z</time>
					</trkpt>
					<trkpt lat="43.150290" lon="11.611520">
						<ele>355</ele>
						<time>2026-05-04T21:29:48Z</time>
					</trkpt>
					<trkpt lat="43.150410" lon="11.611800">
						<ele>354</ele>
						<time>2026-05-04T21:29:52Z</time>
					</trkpt>
					<trkpt lat="43.150580" lon="11.612310">
						<ele>354</ele>
						<time>2026-05-04T21:29:59Z</time>
					</trkpt>
					<trkpt lat="43.150930" lon="11.614780">
						<ele>351</ele>
						<time>2026-05-04T21:30:32Z</time>
					</trkpt>
					<trkpt lat="43.151000" lon="11.615360">
						<ele>351</ele>
						<time>2026-05-04T21:30:40Z</time>
					</trkpt>
					<trkpt lat="43.151010" lon="11.615710">
						<ele>351</ele>
						<time>2026-05-04T21:30:44Z</time>
					</trkpt>
					<trkpt lat="43.150990" lon="11.616140">
						<ele>350</ele>
						<time>2026-05-04T21:30:50Z</time>
					</trkpt>
					<trkpt lat="43.150910" lon="11.616640">
						<ele>351</ele>
						<time>2026-05-04T21:30:56Z</time>
					</trkpt>
					<trkpt lat="43.150800" lon="11.617150">
						<ele>352</ele>
						<time>2026-05-04T21:31:03Z</time>
					</trkpt>
					<trkpt lat="43.150640" lon="11.617860">
						<ele>353</ele>
						<time>2026-05-04T21:31:13Z</time>
					</trkpt>
					<trkpt lat="43.150630" lon="11.618290">
						<ele>355</ele>
						<time>2026-05-04T21:31:19Z</time>
					</trkpt>
					<trkpt lat="43.150670" lon="11.618610">
						<ele>355</ele>
						<time>2026-05-04T21:31:23Z</time>
					</trkpt>
					<trkpt lat="43.150720" lon="11.618820">
						<ele>356</ele>
						<time>2026-05-04T21:31:26Z</time>
					</trkpt>
					<trkpt lat="43.150820" lon="11.619110">
						<ele>356</ele>
						<time>2026-05-04T21:31:30Z</time>
					</trkpt>
					<trkpt lat="43.150920" lon="11.619280">
						<ele>355</ele>
						<time>2026-05-04T21:31:33Z</time>
					</trkpt>
					<trkpt lat="43.151490" lon="11.620050">
						<ele>352</ele>
						<time>2026-05-04T21:31:47Z</time>
					</trkpt>
					<trkpt lat="43.151670" lon="11.620340">
						<ele>353</ele>
						<time>2026-05-04T21:31:52Z</time>
					</trkpt>
					<trkpt lat="43.151920" lon="11.620890">
						<ele>355</ele>
						<time>2026-05-04T21:32:00Z</time>
					</trkpt>
					<trkpt lat="43.152200" lon="11.621570">
						<ele>354</ele>
						<time>2026-05-04T21:32:10Z</time>
					</trkpt>
					<trkpt lat="43.152250" lon="11.621800">
						<ele>353</ele>
						<time>2026-05-04T21:32:14Z</time>
					</trkpt>
					<trkpt lat="43.152330" lon="11.622320">
						<ele>351</ele>
						<time>2026-05-04T21:32:20Z</time>
					</trkpt>
					<trkpt lat="43.152480" lon="11.624240">
						<ele>351</ele>
						<time>2026-05-04T21:32:46Z</time>
					</trkpt>
					<trkpt lat="43.152500" lon="11.624420">
						<ele>352</ele>
						<time>2026-05-04T21:32:48Z</time>
					</trkpt>
					<trkpt lat="43.152540" lon="11.624600">
						<ele>353</ele>
						<time>2026-05-04T21:32:50Z</time>
					</trkpt>
					<trkpt lat="43.152770" lon="11.625440">
						<ele>352</ele>
						<time>2026-05-04T21:33:02Z</time>
					</trkpt>
					<trkpt lat="43.152900" lon="11.625930">
						<ele>351</ele>
						<time>2026-05-04T21:33:09Z</time>
					</trkpt>
					<trkpt lat="43.153270" lon="11.627240">
						<ele>348</ele>
						<time>2026-05-04T21:33:27Z</time>
					</trkpt>
					<trkpt lat="43.153540" lon="11.628250">
						<ele>348</ele>
						<time>2026-05-04T21:33:41Z</time>
					</trkpt>
					<trkpt lat="43.153640" lon="11.628520">
						<ele>347</ele>
						<time>2026-05-04T21:33:45Z</time>
					</trkpt>
					<trkpt lat="43.153800" lon="11.628790">
						<ele>347</ele>
						<time>2026-05-04T21:33:49Z</time>
					</trkpt>
					<trkpt lat="43.153900" lon="11.628900">
						<ele>347</ele>
						<time>2026-05-04T21:33:52Z</time>
					</trkpt>
					<trkpt lat="43.155320" lon="11.630560">
						<ele>354</ele>
						<time>2026-05-04T21:34:25Z</time>
					</trkpt>
					<trkpt lat="43.155470" lon="11.630780">
						<ele>356</ele>
						<time>2026-05-04T21:34:29Z</time>
					</trkpt>
					<trkpt lat="43.155590" lon="11.631080">
						<ele>357</ele>
						<time>2026-05-04T21:34:33Z</time>
					</trkpt>
					<trkpt lat="43.155650" lon="11.631360">
						<ele>357</ele>
						<time>2026-05-04T21:34:37Z</time>
					</trkpt>
					<trkpt lat="43.155660" lon="11.631620">
						<ele>357</ele>
						<time>2026-05-04T21:34:40Z</time>
					</trkpt>
					<trkpt lat="43.155630" lon="11.631900">
						<ele>356</ele>
						<time>2026-05-04T21:34:44Z</time>
					</trkpt>
					<trkpt lat="43.155580" lon="11.632070">
						<ele>356</ele>
						<time>2026-05-04T21:34:46Z</time>
					</trkpt>
					<trkpt lat="43.155280" lon="11.632930">
						<ele>355</ele>
						<time>2026-05-04T21:34:59Z</time>
					</trkpt>
					<trkpt lat="43.155190" lon="11.633210">
						<ele>356</ele>
						<time>2026-05-04T21:35:03Z</time>
					</trkpt>
					<trkpt lat="43.155160" lon="11.633490">
						<ele>357</ele>
						<time>2026-05-04T21:35:06Z</time>
					</trkpt>
					<trkpt lat="43.155180" lon="11.635890">
						<ele>364</ele>
						<time>2026-05-04T21:35:38Z</time>
					</trkpt>
					<trkpt lat="43.155190" lon="11.636190">
						<ele>366</ele>
						<time>2026-05-04T21:35:42Z</time>
					</trkpt>
					<trkpt lat="43.155240" lon="11.636490">
						<ele>368</ele>
						<time>2026-05-04T21:35:46Z</time>
					</trkpt>
					<trkpt lat="43.155340" lon="11.636850">
						<ele>370</ele>
						<time>2026-05-04T21:35:51Z</time>
					</trkpt>
					<trkpt lat="43.155600" lon="11.637850">
						<ele>373</ele>
						<time>2026-05-04T21:36:04Z</time>
					</trkpt>
					<trkpt lat="43.155650" lon="11.638050">
						<ele>373</ele>
						<time>2026-05-04T21:36:07Z</time>
					</trkpt>
					<trkpt lat="43.155670" lon="11.638200">
						<ele>374</ele>
						<time>2026-05-04T21:36:09Z</time>
					</trkpt>
					<trkpt lat="43.155670" lon="11.638280">
						<ele>374</ele>
						<time>2026-05-04T21:36:10Z</time>
					</trkpt>
					<trkpt lat="43.155650" lon="11.638520">
						<ele>373</ele>
						<time>2026-05-04T21:36:13Z</time>
					</trkpt>
					<trkpt lat="43.155630" lon="11.638590">
						<ele>373</ele>
						<time>2026-05-04T21:36:14Z</time>
					</trkpt>
					<trkpt lat="43.155580" lon="11.638730">
						<ele>373</ele>
						<time>2026-05-04T21:36:16Z</time>
					</trkpt>
					<trkpt lat="43.155500" lon="11.638880">
						<ele>373</ele>
						<time>2026-05-04T21:36:19Z</time>
					</trkpt>
					<trkpt lat="43.155390" lon="11.639050">
						<ele>374</ele>
						<time>2026-05-04T21:36:22Z</time>
					</trkpt>
					<trkpt lat="43.154740" lon="11.639980">
						<ele>374</ele>
						<time>2026-05-04T21:36:38Z</time>
					</trkpt>
					<trkpt lat="43.154040" lon="11.640980">
						<ele>380</ele>
						<time>2026-05-04T21:36:56Z</time>
					</trkpt>
					<trkpt lat="43.153910" lon="11.641200">
						<ele>380</ele>
						<time>2026-05-04T21:37:00Z</time>
					</trkpt>
					<trkpt lat="43.153820" lon="11.641390">
						<ele>381</ele>
						<time>2026-05-04T21:37:03Z</time>
					</trkpt>
					<trkpt lat="43.153750" lon="11.641580">
						<ele>382</ele>
						<time>2026-05-04T21:37:06Z</time>
					</trkpt>
					<trkpt lat="43.153460" lon="11.642460">
						<ele>385</ele>
						<time>2026-05-04T21:37:18Z</time>
					</trkpt>
					<trkpt lat="43.153420" lon="11.642630">
						<ele>386</ele>
						<time>2026-05-04T21:37:20Z</time>
					</trkpt>
					<trkpt lat="43.153390" lon="11.642810">
						<ele>387</ele>
						<time>2026-05-04T21:37:23Z</time>
					</trkpt>
					<trkpt lat="43.153370" lon="11.643050">
						<ele>388</ele>
						<time>2026-05-04T21:37:26Z</time>
					</trkpt>
					<trkpt lat="43.153370" lon="11.643180">
						<ele>388</ele>
						<time>2026-05-04T21:37:28Z</time>
					</trkpt>
					<trkpt lat="43.153410" lon="11.643830">
						<ele>390</ele>
						<time>2026-05-04T21:37:36Z</time>
					</trkpt>
					<trkpt lat="43.153400" lon="11.644050">
						<ele>391</ele>
						<time>2026-05-04T21:37:39Z</time>
					</trkpt>
					<trkpt lat="43.153390" lon="11.644280">
						<ele>392</ele>
						<time>2026-05-04T21:37:42Z</time>
					</trkpt>
					<trkpt lat="43.153230" lon="11.645700">
						<ele>391</ele>
						<time>2026-05-04T21:38:01Z</time>
					</trkpt>
					<trkpt lat="43.153220" lon="11.645820">
						<ele>390</ele>
						<time>2026-05-04T21:38:02Z</time>
					</trkpt>
					<trkpt lat="43.153230" lon="11.645980">
						<ele>390</ele>
						<time>2026-05-04T21:38:04Z</time>
					</trkpt>
					<trkpt lat="43.153250" lon="11.646090">
						<ele>391</ele>
						<time>2026-05-04T21:38:06Z</time>
					</trkpt>
					<trkpt lat="43.153290" lon="11.646200">
						<ele>392</ele>
						<time>2026-05-04T21:38:07Z</time>
					</trkpt>
					<trkpt lat="43.153330" lon="11.646310">
						<ele>393</ele>
						<time>2026-05-04T21:38:09Z</time>
					</trkpt>
					<trkpt lat="43.153580" lon="11.646770">
						<ele>396</ele>
						<time>2026-05-04T21:38:16Z</time>
					</trkpt>
					<trkpt lat="43.153650" lon="11.646930">
						<ele>396</ele>
						<time>2026-05-04T21:38:19Z</time>
					</trkpt>
					<trkpt lat="43.153660" lon="11.647020">
						<ele>395</ele>
						<time>2026-05-04T21:38:20Z</time>
					</trkpt>
					<trkpt lat="43.153770" lon="11.647150">
						<ele>396</ele>
						<time>2026-05-04T21:38:23Z</time>
					</trkpt>
					<trkpt lat="43.154060" lon="11.647600">
						<ele>400</ele>
						<time>2026-05-04T21:38:30Z</time>
					</trkpt>
					<trkpt lat="43.154320" lon="11.647910">
						<ele>402</ele>
						<time>2026-05-04T21:38:37Z</time>
					</trkpt>
					<trkpt lat="43.154440" lon="11.648100">
						<ele>402</ele>
						<time>2026-05-04T21:38:40Z</time>
					</trkpt>
					<trkpt lat="43.154520" lon="11.648260">
						<ele>403</ele>
						<time>2026-05-04T21:38:42Z</time>
					</trkpt>
					<trkpt lat="43.154580" lon="11.648440">
						<ele>402</ele>
						<time>2026-05-04T21:38:45Z</time>
					</trkpt>
					<trkpt lat="43.154600" lon="11.648580">
						<ele>402</ele>
						<time>2026-05-04T21:38:47Z</time>
					</trkpt>
					<trkpt lat="43.154610" lon="11.648650">
						<ele>401</ele>
						<time>2026-05-04T21:38:48Z</time>
					</trkpt>
					<trkpt lat="43.154610" lon="11.649010">
						<ele>398</ele>
						<time>2026-05-04T21:38:52Z</time>
					</trkpt>
					<trkpt lat="43.154620" lon="11.649130">
						<ele>398</ele>
						<time>2026-05-04T21:38:54Z</time>
					</trkpt>
					<trkpt lat="43.154650" lon="11.649240">
						<ele>398</ele>
						<time>2026-05-04T21:38:55Z</time>
					</trkpt>
					<trkpt lat="43.154720" lon="11.649360">
						<ele>399</ele>
						<time>2026-05-04T21:38:57Z</time>
					</trkpt>
					<trkpt lat="43.154750" lon="11.649400">
						<ele>399</ele>
						<time>2026-05-04T21:38:58Z</time>
					</trkpt>
					<trkpt lat="43.154830" lon="11.649470">
						<ele>401</ele>
						<time>2026-05-04T21:39:00Z</time>
					</trkpt>
					<trkpt lat="43.154910" lon="11.649500">
						<ele>404</ele>
						<time>2026-05-04T21:39:01Z</time>
					</trkpt>
					<trkpt lat="43.155060" lon="11.649540">
						<ele>406</ele>
						<time>2026-05-04T21:39:04Z</time>
					</trkpt>
					<trkpt lat="43.155130" lon="11.649560">
						<ele>406</ele>
						<time>2026-05-04T21:39:05Z</time>
					</trkpt>
					<trkpt lat="43.155330" lon="11.649680">
						<ele>406</ele>
						<time>2026-05-04T21:39:09Z</time>
					</trkpt>
					<trkpt lat="43.155440" lon="11.649780">
						<ele>406</ele>
						<time>2026-05-04T21:39:12Z</time>
					</trkpt>
					<trkpt lat="43.155610" lon="11.650030">
						<ele>408</ele>
						<time>2026-05-04T21:39:16Z</time>
					</trkpt>
					<trkpt lat="43.155880" lon="11.650390">
						<ele>410</ele>
						<time>2026-05-04T21:39:23Z</time>
					</trkpt>
					<trkpt lat="43.155960" lon="11.650510">
						<ele>409</ele>
						<time>2026-05-04T21:39:25Z</time>
					</trkpt>
					<trkpt lat="43.156020" lon="11.650610">
						<ele>408</ele>
						<time>2026-05-04T21:39:26Z</time>
					</trkpt>
					<trkpt lat="43.156310" lon="11.651210">
						<ele>409</ele>
						<time>2026-05-04T21:39:36Z</time>
					</trkpt>
					<trkpt lat="43.156360" lon="11.651290">
						<ele>410</ele>
						<time>2026-05-04T21:39:37Z</time>
					</trkpt>
					<trkpt lat="43.156400" lon="11.651330">
						<ele>411</ele>
						<time>2026-05-04T21:39:38Z</time>
					</trkpt>
					<trkpt lat="43.156420" lon="11.651380">
						<ele>412</ele>
						<time>2026-05-04T21:39:39Z</time>
					</trkpt>
					<trkpt lat="43.156440" lon="11.651420">
						<ele>412</ele>
						<time>2026-05-04T21:39:39Z</time>
					</trkpt>
					<trkpt lat="43.156500" lon="11.651690">
						<ele>416</ele>
						<time>2026-05-04T21:39:43Z</time>
					</trkpt>
					<trkpt lat="43.156590" lon="11.652050">
						<ele>417</ele>
						<time>2026-05-04T21:39:48Z</time>
					</trkpt>
					<trkpt lat="43.156620" lon="11.652110">
						<ele>418</ele>
						<time>2026-05-04T21:39:49Z</time>
					</trkpt>
					<trkpt lat="43.156700" lon="11.652290">
						<ele>418</ele>
						<time>2026-05-04T21:39:52Z</time>
					</trkpt>
					<trkpt lat="43.156780" lon="11.652440">
						<ele>418</ele>
						<time>2026-05-04T21:39:54Z</time>
					</trkpt>
					<trkpt lat="43.156900" lon="11.652680">
						<ele>416</ele>
						<time>2026-05-04T21:39:58Z</time>
					</trkpt>
					<trkpt lat="43.157050" lon="11.652920">
						<ele>414</ele>
						<time>2026-05-04T21:40:02Z</time>
					</trkpt>
					<trkpt lat="43.157100" lon="11.653030">
						<ele>414</ele>
						<time>2026-05-04T21:40:04Z</time>
					</trkpt>
					<trkpt lat="43.157220" lon="11.653250">
						<ele>413</ele>
						<time>2026-05-04T21:40:07Z</time>
					</trkpt>
					<trkpt lat="43.157290" lon="11.653350">
						<ele>414</ele>
						<time>2026-05-04T21:40:09Z</time>
					</trkpt>
					<trkpt lat="43.157360" lon="11.653430">
						<ele>414</ele>
						<time>2026-05-04T21:40:11Z</time>
					</trkpt>
					<trkpt lat="43.157430" lon="11.653490">
						<ele>414</ele>
						<time>2026-05-04T21:40:12Z</time>
					</trkpt>
					<trkpt lat="43.157540" lon="11.653590">
						<ele>414</ele>
						<time>2026-05-04T21:40:15Z</time>
					</trkpt>
					<trkpt lat="43.157800" lon="11.653830">
						<ele>411</ele>
						<time>2026-05-04T21:40:20Z</time>
					</trkpt>
					<trkpt lat="43.157940" lon="11.653970">
						<ele>410</ele>
						<time>2026-05-04T21:40:23Z</time>
					</trkpt>
					<trkpt lat="43.158090" lon="11.654130">
						<ele>411</ele>
						<time>2026-05-04T21:40:27Z</time>
					</trkpt>
					<trkpt lat="43.158560" lon="11.654480">
						<ele>406</ele>
						<time>2026-05-04T21:40:36Z</time>
					</trkpt>
					<trkpt lat="43.158750" lon="11.654640">
						<ele>405</ele>
						<time>2026-05-04T21:40:40Z</time>
					</trkpt>
					<trkpt lat="43.158810" lon="11.654710">
						<ele>404</ele>
						<time>2026-05-04T21:40:41Z</time>
					</trkpt>
					<trkpt lat="43.158920" lon="11.654840">
						<ele>405</ele>
						<time>2026-05-04T21:40:44Z</time>
					</trkpt>
					<trkpt lat="43.159010" lon="11.655030">
						<ele>405</ele>
						<time>2026-05-04T21:40:47Z</time>
					</trkpt>
					<trkpt lat="43.159280" lon="11.655610">
						<ele>403</ele>
						<time>2026-05-04T21:40:56Z</time>
					</trkpt>
					<trkpt lat="43.159390" lon="11.655920">
						<ele>401</ele>
						<time>2026-05-04T21:41:00Z</time>
					</trkpt>
					<trkpt lat="43.159520" lon="11.656340">
						<ele>398</ele>
						<time>2026-05-04T21:41:06Z</time>
					</trkpt>
					<trkpt lat="43.159540" lon="11.656430">
						<ele>397</ele>
						<time>2026-05-04T21:41:08Z</time>
					</trkpt>
					<trkpt lat="43.159540" lon="11.656570">
						<ele>397</ele>
						<time>2026-05-04T21:41:09Z</time>
					</trkpt>
					<trkpt lat="43.159270" lon="11.656390">
						<ele>398</ele>
						<time>2026-05-04T21:41:15Z</time>
					</trkpt>
					<trkpt lat="43.158970" lon="11.656130">
						<ele>397</ele>
						<time>2026-05-04T21:41:21Z</time>
					</trkpt>
					<trkpt lat="43.158710" lon="11.655870">
						<ele>395</ele>
						<time>2026-05-04T21:41:27Z</time>
					</trkpt>
					<trkpt lat="43.158200" lon="11.655330">
						<ele>395</ele>
						<time>2026-05-04T21:41:38Z</time>
					</trkpt>
					<trkpt lat="43.158030" lon="11.655210">
						<ele>395</ele>
						<time>2026-05-04T21:41:42Z</time>
					</trkpt>
					<trkpt lat="43.157880" lon="11.655120">
						<ele>394</ele>
						<time>2026-05-04T21:41:44Z</time>
					</trkpt>
					<trkpt lat="43.157180" lon="11.654780">
						<ele>392</ele>
						<time>2026-05-04T21:41:58Z</time>
					</trkpt>
					<trkpt lat="43.157090" lon="11.654740">
						<ele>392</ele>
						<time>2026-05-04T21:41:59Z</time>
					</trkpt>
					<trkpt lat="43.156910" lon="11.654620">
						<ele>392</ele>
						<time>2026-05-04T21:42:03Z</time>
					</trkpt>
					<trkpt lat="43.156850" lon="11.654560">
						<ele>392</ele>
						<time>2026-05-04T21:42:04Z</time>
					</trkpt>
					<trkpt lat="43.156750" lon="11.654440">
						<ele>392</ele>
						<time>2026-05-04T21:42:07Z</time>
					</trkpt>
					<trkpt lat="43.156450" lon="11.653960">
						<ele>392</ele>
						<time>2026-05-04T21:42:15Z</time>
					</trkpt>
					<trkpt lat="43.155870" lon="11.652930">
						<ele>387</ele>
						<time>2026-05-04T21:42:32Z</time>
					</trkpt>
					<trkpt lat="43.155170" lon="11.651720">
						<ele>384</ele>
						<time>2026-05-04T21:42:52Z</time>
					</trkpt>
					<trkpt lat="43.155110" lon="11.651610">
						<ele>383</ele>
						<time>2026-05-04T21:42:54Z</time>
					</trkpt>
					<trkpt lat="43.154640" lon="11.650800">
						<ele>380</ele>
						<time>2026-05-04T21:43:07Z</time>
					</trkpt>
					<trkpt lat="43.154400" lon="11.650350">
						<ele>379</ele>
						<time>2026-05-04T21:43:14Z</time>
					</trkpt>
					<trkpt lat="43.154320" lon="11.650320">
						<ele>377</ele>
						<time>2026-05-04T21:43:16Z</time>
					</trkpt>
					<trkpt lat="43.154170" lon="11.650300">
						<ele>372</ele>
						<time>2026-05-04T21:43:18Z</time>
					</trkpt>
					<trkpt lat="43.154110" lon="11.650340">
						<ele>371</ele>
						<time>2026-05-04T21:43:20Z</time>
					</trkpt>
					<trkpt lat="43.154030" lon="11.650360">
						<ele>370</ele>
						<time>2026-05-04T21:43:21Z</time>
					</trkpt>
					<trkpt lat="43.153930" lon="11.650360">
						<ele>369</ele>
						<time>2026-05-04T21:43:23Z</time>
					</trkpt>
					<trkpt lat="43.153420" lon="11.650360">
						<ele>364</ele>
						<time>2026-05-04T21:43:32Z</time>
					</trkpt>
					<trkpt lat="43.153200" lon="11.650330">
						<ele>363</ele>
						<time>2026-05-04T21:43:36Z</time>
					</trkpt>
					<trkpt lat="43.153030" lon="11.650290">
						<ele>362</ele>
						<time>2026-05-04T21:43:39Z</time>
					</trkpt>
					<trkpt lat="43.152830" lon="11.650210">
						<ele>361</ele>
						<time>2026-05-04T21:43:43Z</time>
					</trkpt>
					<trkpt lat="43.152730" lon="11.650160">
						<ele>360</ele>
						<time>2026-05-04T21:43:44Z</time>
					</trkpt>
					<trkpt lat="43.152600" lon="11.650060">
						<ele>359</ele>
						<time>2026-05-04T21:43:47Z</time>
					</trkpt>
					<trkpt lat="43.152470" lon="11.649910">
						<ele>356</ele>
						<time>2026-05-04T21:43:50Z</time>
					</trkpt>
					<trkpt lat="43.152120" lon="11.649340">
						<ele>344</ele>
						<time>2026-05-04T21:44:00Z</time>
					</trkpt>
					<trkpt lat="43.152040" lon="11.649240">
						<ele>341</ele>
						<time>2026-05-04T21:44:02Z</time>
					</trkpt>
					<trkpt lat="43.151930" lon="11.649170">
						<ele>339</ele>
						<time>2026-05-04T21:44:04Z</time>
					</trkpt>
					<trkpt lat="43.151830" lon="11.649130">
						<ele>337</ele>
						<time>2026-05-04T21:44:06Z</time>
					</trkpt>
					<trkpt lat="43.151720" lon="11.649120">
						<ele>336</ele>
						<time>2026-05-04T21:44:08Z</time>
					</trkpt>
					<trkpt lat="43.151620" lon="11.649150">
						<ele>335</ele>
						<time>2026-05-04T21:44:10Z</time>
					</trkpt>
					<trkpt lat="43.151540" lon="11.649190">
						<ele>334</ele>
						<time>2026-05-04T21:44:11Z</time>
					</trkpt>
					<trkpt lat="43.151440" lon="11.649290">
						<ele>334</ele>
						<time>2026-05-04T21:44:13Z</time>
					</trkpt>
					<trkpt lat="43.151000" lon="11.650110">
						<ele>332</ele>
						<time>2026-05-04T21:44:26Z</time>
					</trkpt>
					<trkpt lat="43.150900" lon="11.650310">
						<ele>330</ele>
						<time>2026-05-04T21:44:30Z</time>
					</trkpt>
					<trkpt lat="43.150860" lon="11.650440">
						<ele>329</ele>
						<time>2026-05-04T21:44:31Z</time>
					</trkpt>
					<trkpt lat="43.150820" lon="11.650600">
						<ele>329</ele>
						<time>2026-05-04T21:44:34Z</time>
					</trkpt>
					<trkpt lat="43.150800" lon="11.650940">
						<ele>329</ele>
						<time>2026-05-04T21:44:38Z</time>
					</trkpt>
					<trkpt lat="43.150810" lon="11.651210">
						<ele>328</ele>
						<time>2026-05-04T21:44:42Z</time>
					</trkpt>
					<trkpt lat="43.150960" lon="11.652120">
						<ele>325</ele>
						<time>2026-05-04T21:44:54Z</time>
					</trkpt>
					<trkpt lat="43.150960" lon="11.652360">
						<ele>324</ele>
						<time>2026-05-04T21:44:57Z</time>
					</trkpt>
					<trkpt lat="43.150930" lon="11.652550">
						<ele>322</ele>
						<time>2026-05-04T21:44:59Z</time>
					</trkpt>
					<trkpt lat="43.150870" lon="11.652720">
						<ele>322</ele>
						<time>2026-05-04T21:45:02Z</time>
					</trkpt>
					<trkpt lat="43.150670" lon="11.652970">
						<ele>323</ele>
						<time>2026-05-04T21:45:07Z</time>
					</trkpt>
					<trkpt lat="43.150480" lon="11.653190">
						<ele>325</ele>
						<time>2026-05-04T21:45:11Z</time>
					</trkpt>
					<trkpt lat="43.150440" lon="11.653220">
						<ele>325</ele>
						<time>2026-05-04T21:45:12Z</time>
					</trkpt>
					<trkpt lat="43.150340" lon="11.653270">
						<ele>326</ele>
						<time>2026-05-04T21:45:14Z</time>
					</trkpt>
					<trkpt lat="43.150280" lon="11.653280">
						<ele>327</ele>
						<time>2026-05-04T21:45:15Z</time>
					</trkpt>
					<trkpt lat="43.150220" lon="11.653270">
						<ele>327</ele>
						<time>2026-05-04T21:45:16Z</time>
					</trkpt>
					<trkpt lat="43.150000" lon="11.653100">
						<ele>329</ele>
						<time>2026-05-04T21:45:20Z</time>
					</trkpt>
					<trkpt lat="43.149910" lon="11.653060">
						<ele>332</ele>
						<time>2026-05-04T21:45:22Z</time>
					</trkpt>
					<trkpt lat="43.149840" lon="11.653060">
						<ele>334</ele>
						<time>2026-05-04T21:45:23Z</time>
					</trkpt>
					<trkpt lat="43.149760" lon="11.653110">
						<ele>336</ele>
						<time>2026-05-04T21:45:25Z</time>
					</trkpt>
					<trkpt lat="43.149700" lon="11.653190">
						<ele>337</ele>
						<time>2026-05-04T21:45:26Z</time>
					</trkpt>
					<trkpt lat="43.149610" lon="11.653360">
						<ele>339</ele>
						<time>2026-05-04T21:45:29Z</time>
					</trkpt>
					<trkpt lat="43.149540" lon="11.653450">
						<ele>340</ele>
						<time>2026-05-04T21:45:31Z</time>
					</trkpt>
					<trkpt lat="43.149510" lon="11.653470">
						<ele>341</ele>
						<time>2026-05-04T21:45:31Z</time>
					</trkpt>
					<trkpt lat="43.149470" lon="11.653470">
						<ele>342</ele>
						<time>2026-05-04T21:45:32Z</time>
					</trkpt>
					<trkpt lat="43.149440" lon="11.653440">
						<ele>343</ele>
						<time>2026-05-04T21:45:33Z</time>
					</trkpt>
					<trkpt lat="43.149440" lon="11.653340">
						<ele>344</ele>
						<time>2026-05-04T21:45:34Z</time>
					</trkpt>
					<trkpt lat="43.149520" lon="11.653110">
						<ele>343</ele>
						<time>2026-05-04T21:45:37Z</time>
					</trkpt>
					<trkpt lat="43.149520" lon="11.653040">
						<ele>343</ele>
						<time>2026-05-04T21:45:38Z</time>
					</trkpt>
					<trkpt lat="43.149530" lon="11.652960">
						<ele>343</ele>
						<time>2026-05-04T21:45:39Z</time>
					</trkpt>
					<trkpt lat="43.149500" lon="11.652780">
						<ele>345</ele>
						<time>2026-05-04T21:45:42Z</time>
					</trkpt>
					<trkpt lat="43.149480" lon="11.652690">
						<ele>346</ele>
						<time>2026-05-04T21:45:43Z</time>
					</trkpt>
					<trkpt lat="43.149350" lon="11.652380">
						<ele>350</ele>
						<time>2026-05-04T21:45:48Z</time>
					</trkpt>
					<trkpt lat="43.149320" lon="11.652270">
						<ele>351</ele>
						<time>2026-05-04T21:45:49Z</time>
					</trkpt>
					<trkpt lat="43.149290" lon="11.651910">
						<ele>350</ele>
						<time>2026-05-04T21:45:54Z</time>
					</trkpt>
					<trkpt lat="43.149280" lon="11.651870">
						<ele>351</ele>
						<time>2026-05-04T21:45:54Z</time>
					</trkpt>
					<trkpt lat="43.149230" lon="11.651830">
						<ele>352</ele>
						<time>2026-05-04T21:45:55Z</time>
					</trkpt>
					<trkpt lat="43.149200" lon="11.651820">
						<ele>353</ele>
						<time>2026-05-04T21:45:56Z</time>
					</trkpt>
					<trkpt lat="43.149160" lon="11.651830">
						<ele>355</ele>
						<time>2026-05-04T21:45:57Z</time>
					</trkpt>
					<trkpt lat="43.149120" lon="11.651870">
						<ele>356</ele>
						<time>2026-05-04T21:45:58Z</time>
					</trkpt>
					<trkpt lat="43.149110" lon="11.651920">
						<ele>356</ele>
						<time>2026-05-04T21:45:58Z</time>
					</trkpt>
					<trkpt lat="43.149090" lon="11.652030">
						<ele>357</ele>
						<time>2026-05-04T21:46:00Z</time>
					</trkpt>
					<trkpt lat="43.149120" lon="11.652570">
						<ele>358</ele>
						<time>2026-05-04T21:46:07Z</time>
					</trkpt>
					<trkpt lat="43.149110" lon="11.652750">
						<ele>357</ele>
						<time>2026-05-04T21:46:09Z</time>
					</trkpt>
					<trkpt lat="43.149070" lon="11.652850">
						<ele>357</ele>
						<time>2026-05-04T21:46:11Z</time>
					</trkpt>
					<trkpt lat="43.149020" lon="11.652940">
						<ele>357</ele>
						<time>2026-05-04T21:46:12Z</time>
					</trkpt>
					<trkpt lat="43.148950" lon="11.653000">
						<ele>358</ele>
						<time>2026-05-04T21:46:13Z</time>
					</trkpt>
					<trkpt lat="43.148740" lon="11.653110">
						<ele>362</ele>
						<time>2026-05-04T21:46:17Z</time>
					</trkpt>
					<trkpt lat="43.148630" lon="11.653140">
						<ele>364</ele>
						<time>2026-05-04T21:46:19Z</time>
					</trkpt>
					<trkpt lat="43.148540" lon="11.653150">
						<ele>366</ele>
						<time>2026-05-04T21:46:21Z</time>
					</trkpt>
					<trkpt lat="43.148050" lon="11.653120">
						<ele>374</ele>
						<time>2026-05-04T21:46:30Z</time>
					</trkpt>
					<trkpt lat="43.147200" lon="11.653120">
						<ele>384</ele>
						<time>2026-05-04T21:46:45Z</time>
					</trkpt>
					<trkpt lat="43.147060" lon="11.653150">
						<ele>386</ele>
						<time>2026-05-04T21:46:47Z</time>
					</trkpt>
					<trkpt lat="43.146990" lon="11.653180">
						<ele>386</ele>
						<time>2026-05-04T21:46:49Z</time>
					</trkpt>
					<trkpt lat="43.146930" lon="11.653240">
						<ele>386</ele>
						<time>2026-05-04T21:46:50Z</time>
					</trkpt>
					<trkpt lat="43.146890" lon="11.653330">
						<ele>386</ele>
						<time>2026-05-04T21:46:51Z</time>
					</trkpt>
					<trkpt lat="43.146870" lon="11.653420">
						<ele>387</ele>
						<time>2026-05-04T21:46:53Z</time>
					</trkpt>
					<trkpt lat="43.146890" lon="11.653520">
						<ele>387</ele>
						<time>2026-05-04T21:46:54Z</time>
					</trkpt>
					<trkpt lat="43.146920" lon="11.653600">
						<ele>387</ele>
						<time>2026-05-04T21:46:55Z</time>
					</trkpt>
					<trkpt lat="43.146970" lon="11.653670">
						<ele>387</ele>
						<time>2026-05-04T21:46:56Z</time>
					</trkpt>
					<trkpt lat="43.147260" lon="11.654000">
						<ele>385</ele>
						<time>2026-05-04T21:47:03Z</time>
					</trkpt>
					<trkpt lat="43.147310" lon="11.654100">
						<ele>385</ele>
						<time>2026-05-04T21:47:05Z</time>
					</trkpt>
					<trkpt lat="43.147330" lon="11.654180">
						<ele>385</ele>
						<time>2026-05-04T21:47:06Z</time>
					</trkpt>
					<trkpt lat="43.147330" lon="11.654270">
						<ele>384</ele>
						<time>2026-05-04T21:47:07Z</time>
					</trkpt>
					<trkpt lat="43.147320" lon="11.654360">
						<ele>384</ele>
						<time>2026-05-04T21:47:08Z</time>
					</trkpt>
					<trkpt lat="43.147260" lon="11.654440">
						<ele>385</ele>
						<time>2026-05-04T21:47:10Z</time>
					</trkpt>
					<trkpt lat="43.147190" lon="11.654520">
						<ele>386</ele>
						<time>2026-05-04T21:47:11Z</time>
					</trkpt>
					<trkpt lat="43.146960" lon="11.654600">
						<ele>389</ele>
						<time>2026-05-04T21:47:16Z</time>
					</trkpt>
					<trkpt lat="43.146720" lon="11.654720">
						<ele>392</ele>
						<time>2026-05-04T21:47:20Z</time>
					</trkpt>
					<trkpt lat="43.146670" lon="11.654760">
						<ele>393</ele>
						<time>2026-05-04T21:47:21Z</time>
					</trkpt>
					<trkpt lat="43.146620" lon="11.654830">
						<ele>393</ele>
						<time>2026-05-04T21:47:22Z</time>
					</trkpt>
					<trkpt lat="43.146590" lon="11.654920">
						<ele>394</ele>
						<time>2026-05-04T21:47:24Z</time>
					</trkpt>
					<trkpt lat="43.146580" lon="11.655020">
						<ele>394</ele>
						<time>2026-05-04T21:47:25Z</time>
					</trkpt>
					<trkpt lat="43.146580" lon="11.655120">
						<ele>394</ele>
						<time>2026-05-04T21:47:26Z</time>
					</trkpt>
					<trkpt lat="43.146610" lon="11.655210">
						<ele>394</ele>
						<time>2026-05-04T21:47:28Z</time>
					</trkpt>
					<trkpt lat="43.146910" lon="11.655910">
						<ele>390</ele>
						<time>2026-05-04T21:47:38Z</time>
					</trkpt>
					<trkpt lat="43.146930" lon="11.656010">
						<ele>389</ele>
						<time>2026-05-04T21:47:39Z</time>
					</trkpt>
					<trkpt lat="43.146920" lon="11.656110">
						<ele>388</ele>
						<time>2026-05-04T21:47:41Z</time>
					</trkpt>
					<trkpt lat="43.146900" lon="11.656190">
						<ele>388</ele>
						<time>2026-05-04T21:47:42Z</time>
					</trkpt>
					<trkpt lat="43.146870" lon="11.656230">
						<ele>388</ele>
						<time>2026-05-04T21:47:43Z</time>
					</trkpt>
					<trkpt lat="43.146840" lon="11.656260">
						<ele>388</ele>
						<time>2026-05-04T21:47:43Z</time>
					</trkpt>
					<trkpt lat="43.146780" lon="11.656290">
						<ele>389</ele>
						<time>2026-05-04T21:47:44Z</time>
					</trkpt>
					<trkpt lat="43.146700" lon="11.656310">
						<ele>390</ele>
						<time>2026-05-04T21:47:46Z</time>
					</trkpt>
					<trkpt lat="43.146620" lon="11.656310">
						<ele>391</ele>
						<time>2026-05-04T21:47:47Z</time>
					</trkpt>
					<trkpt lat="43.145540" lon="11.655860">
						<ele>406</ele>
						<time>2026-05-04T21:48:07Z</time>
					</trkpt>
					<trkpt lat="43.145430" lon="11.655840">
						<ele>407</ele>
						<time>2026-05-04T21:48:09Z</time>
					</trkpt>
					<trkpt lat="43.145360" lon="11.655840">
						<ele>408</ele>
						<time>2026-05-04T21:48:11Z</time>
					</trkpt>
					<trkpt lat="43.145270" lon="11.655870">
						<ele>409</ele>
						<time>2026-05-04T21:48:12Z</time>
					</trkpt>
					<trkpt lat="43.145200" lon="11.655910">
						<ele>409</ele>
						<time>2026-05-04T21:48:14Z</time>
					</trkpt>
					<trkpt lat="43.145140" lon="11.655990">
						<ele>408</ele>
						<time>2026-05-04T21:48:15Z</time>
					</trkpt>
					<trkpt lat="43.145020" lon="11.656200">
						<ele>406</ele>
						<time>2026-05-04T21:48:19Z</time>
					</trkpt>
					<trkpt lat="43.144950" lon="11.656360">
						<ele>405</ele>
						<time>2026-05-04T21:48:21Z</time>
					</trkpt>
					<trkpt lat="43.144900" lon="11.656440">
						<ele>405</ele>
						<time>2026-05-04T21:48:22Z</time>
					</trkpt>
					<trkpt lat="43.144830" lon="11.656520">
						<ele>405</ele>
						<time>2026-05-04T21:48:24Z</time>
					</trkpt>
					<trkpt lat="43.144720" lon="11.656580">
						<ele>406</ele>
						<time>2026-05-04T21:48:26Z</time>
					</trkpt>
					<trkpt lat="43.144380" lon="11.656640">
						<ele>410</ele>
						<time>2026-05-04T21:48:32Z</time>
					</trkpt>
					<trkpt lat="43.144290" lon="11.656700">
						<ele>411</ele>
						<time>2026-05-04T21:48:34Z</time>
					</trkpt>
					<trkpt lat="43.144090" lon="11.656860">
						<ele>411</ele>
						<time>2026-05-04T21:48:38Z</time>
					</trkpt>
					<trkpt lat="43.143910" lon="11.656980">
						<ele>411</ele>
						<time>2026-05-04T21:48:42Z</time>
					</trkpt>
					<trkpt lat="43.143700" lon="11.657060">
						<ele>411</ele>
						<time>2026-05-04T21:48:45Z</time>
					</trkpt>
					<trkpt lat="43.143640" lon="11.657070">
						<ele>411</ele>
						<time>2026-05-04T21:48:47Z</time>
					</trkpt>
					<trkpt lat="43.143240" lon="11.657070">
						<ele>414</ele>
						<time>2026-05-04T21:48:54Z</time>
					</trkpt>
					<trkpt lat="43.143190" lon="11.657090">
						<ele>413</ele>
						<time>2026-05-04T21:48:55Z</time>
					</trkpt>
					<trkpt lat="43.143150" lon="11.657120">
						<ele>413</ele>
						<time>2026-05-04T21:48:55Z</time>
					</trkpt>
					<trkpt lat="43.143080" lon="11.657190">
						<ele>413</ele>
						<time>2026-05-04T21:48:57Z</time>
					</trkpt>
					<trkpt lat="43.143000" lon="11.657350">
						<ele>412</ele>
						<time>2026-05-04T21:48:59Z</time>
					</trkpt>
					<trkpt lat="43.142890" lon="11.657640">
						<ele>413</ele>
						<time>2026-05-04T21:49:04Z</time>
					</trkpt>
					<trkpt lat="43.142790" lon="11.657940">
						<ele>414</ele>
						<time>2026-05-04T21:49:08Z</time>
					</trkpt>
					<trkpt lat="43.142750" lon="11.658170">
						<ele>416</ele>
						<time>2026-05-04T21:49:11Z</time>
					</trkpt>
					<trkpt lat="43.142730" lon="11.658390">
						<ele>417</ele>
						<time>2026-05-04T21:49:14Z</time>
					</trkpt>
					<trkpt lat="43.142700" lon="11.659030">
						<ele>421</ele>
						<time>2026-05-04T21:49:22Z</time>
					</trkpt>
					<trkpt lat="43.142680" lon="11.659290">
						<ele>423</ele>
						<time>2026-05-04T21:49:26Z</time>
					</trkpt>
					<trkpt lat="43.142660" lon="11.659460">
						<ele>423</ele>
						<time>2026-05-04T21:49:28Z</time>
					</trkpt>
					<trkpt lat="43.142610" lon="11.659680">
						<ele>425</ele>
						<time>2026-05-04T21:49:31Z</time>
					</trkpt>
					<trkpt lat="43.142550" lon="11.659820">
						<ele>426</ele>
						<time>2026-05-04T21:49:33Z</time>
					</trkpt>
					<trkpt lat="43.142330" lon="11.660290">
						<ele>428</ele>
						<time>2026-05-04T21:49:40Z</time>
					</trkpt>
					<trkpt lat="43.142260" lon="11.660500">
						<ele>428</ele>
						<time>2026-05-04T21:49:43Z</time>
					</trkpt>
					<trkpt lat="43.142220" lon="11.660690">
						<ele>428</ele>
						<time>2026-05-04T21:49:46Z</time>
					</trkpt>
					<trkpt lat="43.142200" lon="11.661290">
						<ele>426</ele>
						<time>2026-05-04T21:49:54Z</time>
					</trkpt>
					<trkpt lat="43.142180" lon="11.661580">
						<ele>425</ele>
						<time>2026-05-04T21:49:57Z</time>
					</trkpt>
					<trkpt lat="43.142160" lon="11.661740">
						<ele>425</ele>
						<time>2026-05-04T21:49:59Z</time>
					</trkpt>
					<trkpt lat="43.142110" lon="11.661950">
						<ele>427</ele>
						<time>2026-05-04T21:50:02Z</time>
					</trkpt>
					<trkpt lat="43.142030" lon="11.662230">
						<ele>429</ele>
						<time>2026-05-04T21:50:06Z</time>
					</trkpt>
					<trkpt lat="43.141990" lon="11.662370">
						<ele>430</ele>
						<time>2026-05-04T21:50:08Z</time>
					</trkpt>
					<trkpt lat="43.141940" lon="11.662470">
						<ele>431</ele>
						<time>2026-05-04T21:50:10Z</time>
					</trkpt>
					<trkpt lat="43.141650" lon="11.663010">
						<ele>435</ele>
						<time>2026-05-04T21:50:18Z</time>
					</trkpt>
					<trkpt lat="43.141380" lon="11.663530">
						<ele>434</ele>
						<time>2026-05-04T21:50:27Z</time>
					</trkpt>
					<trkpt lat="43.141320" lon="11.663660">
						<ele>435</ele>
						<time>2026-05-04T21:50:29Z</time>
					</trkpt>
					<trkpt lat="43.141300" lon="11.663750">
						<ele>436</ele>
						<time>2026-05-04T21:50:30Z</time>
					</trkpt>
					<trkpt lat="43.141280" lon="11.663860">
						<ele>436</ele>
						<time>2026-05-04T21:50:31Z</time>
					</trkpt>
					<trkpt lat="43.141280" lon="11.663940">
						<ele>437</ele>
						<time>2026-05-04T21:50:32Z</time>
					</trkpt>
					<trkpt lat="43.141290" lon="11.664010">
						<ele>437</ele>
						<time>2026-05-04T21:50:33Z</time>
					</trkpt>
					<trkpt lat="43.141450" lon="11.664510">
						<ele>437</ele>
						<time>2026-05-04T21:50:41Z</time>
					</trkpt>
					<trkpt lat="43.141520" lon="11.664710">
						<ele>437</ele>
						<time>2026-05-04T21:50:43Z</time>
					</trkpt>
					<trkpt lat="43.141580" lon="11.664870">
						<ele>437</ele>
						<time>2026-05-04T21:50:46Z</time>
					</trkpt>
					<trkpt lat="43.141680" lon="11.665080">
						<ele>435</ele>
						<time>2026-05-04T21:50:49Z</time>
					</trkpt>
					<trkpt lat="43.141920" lon="11.665410">
						<ele>429</ele>
						<time>2026-05-04T21:50:55Z</time>
					</trkpt>
					<trkpt lat="43.142200" lon="11.665880">
						<ele>425</ele>
						<time>2026-05-04T21:51:03Z</time>
					</trkpt>
					<trkpt lat="43.142230" lon="11.665950">
						<ele>424</ele>
						<time>2026-05-04T21:51:04Z</time>
					</trkpt>
					<trkpt lat="43.142240" lon="11.666050">
						<ele>422</ele>
						<time>2026-05-04T21:51:05Z</time>
					</trkpt>
					<trkpt lat="43.141990" lon="11.665830">
						<ele>424</ele>
						<time>2026-05-04T21:51:11Z</time>
					</trkpt>
					<trkpt lat="43.141950" lon="11.665810">
						<ele>424</ele>
						<time>2026-05-04T21:51:11Z</time>
					</trkpt>
					<trkpt lat="43.141860" lon="11.665790">
						<ele>424</ele>
						<time>2026-05-04T21:51:13Z</time>
					</trkpt>
					<trkpt lat="43.141730" lon="11.665790">
						<ele>423</ele>
						<time>2026-05-04T21:51:15Z</time>
					</trkpt>
					<trkpt lat="43.141120" lon="11.665910">
						<ele>415</ele>
						<time>2026-05-04T21:51:26Z</time>
					</trkpt>
					<trkpt lat="43.141010" lon="11.665910">
						<ele>414</ele>
						<time>2026-05-04T21:51:28Z</time>
					</trkpt>
					<trkpt lat="43.140920" lon="11.665900">
						<ele>414</ele>
						<time>2026-05-04T21:51:30Z</time>
					</trkpt>
					<trkpt lat="43.140830" lon="11.665860">
						<ele>413</ele>
						<time>2026-05-04T21:51:31Z</time>
					</trkpt>
					<trkpt lat="43.140650" lon="11.665730">
						<ele>413</ele>
						<time>2026-05-04T21:51:35Z</time>
					</trkpt>
					<trkpt lat="43.139750" lon="11.665120">
						<ele>406</ele>
						<time>2026-05-04T21:51:53Z</time>
					</trkpt>
					<trkpt lat="43.139670" lon="11.665060">
						<ele>404</ele>
						<time>2026-05-04T21:51:55Z</time>
					</trkpt>
					<trkpt lat="43.139540" lon="11.664870">
						<ele>403</ele>
						<time>2026-05-04T21:51:58Z</time>
					</trkpt>
					<trkpt lat="43.139390" lon="11.664620">
						<ele>402</ele>
						<time>2026-05-04T21:52:02Z</time>
					</trkpt>
					<trkpt lat="43.139260" lon="11.664450">
						<ele>400</ele>
						<time>2026-05-04T21:52:05Z</time>
					</trkpt>
					<trkpt lat="43.139090" lon="11.664270">
						<ele>399</ele>
						<time>2026-05-04T21:52:09Z</time>
					</trkpt>
					<trkpt lat="43.138810" lon="11.664040">
						<ele>395</ele>
						<time>2026-05-04T21:52:15Z</time>
					</trkpt>
					<trkpt lat="43.138690" lon="11.663890">
						<ele>392</ele>
						<time>2026-05-04T21:52:18Z</time>
					</trkpt>
					<trkpt lat="43.138650" lon="11.663780">
						<ele>392</ele>
						<time>2026-05-04T21:52:19Z</time>
					</trkpt>
					<trkpt lat="43.138620" lon="11.663670">
						<ele>392</ele>
						<time>2026-05-04T21:52:21Z</time>
					</trkpt>
					<trkpt lat="43.138560" lon="11.663630">
						<ele>391</ele>
						<time>2026-05-04T21:52:22Z</time>
					</trkpt>
					<trkpt lat="43.138620" lon="11.663670">
						<ele>392</ele>
						<time>2026-05-04T21:52:23Z</time>
					</trkpt>
					<trkpt lat="43.138610" lon="11.663600">
						<ele>392</ele>
						<time>2026-05-04T21:52:24Z</time>
					</trkpt>
					<trkpt lat="43.138610" lon="11.663470">
						<ele>392</ele>
						<time>2026-05-04T21:52:26Z</time>
					</trkpt>
					<trkpt lat="43.138650" lon="11.663330">
						<ele>394</ele>
						<time>2026-05-04T21:52:28Z</time>
					</trkpt>
					<trkpt lat="43.138720" lon="11.663180">
						<ele>393</ele>
						<time>2026-05-04T21:52:30Z</time>
					</trkpt>
					<trkpt lat="43.139110" lon="11.662700">
						<ele>391</ele>
						<time>2026-05-04T21:52:40Z</time>
					</trkpt>
					<trkpt lat="43.139290" lon="11.662440">
						<ele>390</ele>
						<time>2026-05-04T21:52:44Z</time>
					</trkpt>
					<trkpt lat="43.139390" lon="11.662250">
						<ele>390</ele>
						<time>2026-05-04T21:52:47Z</time>
					</trkpt>
					<trkpt lat="43.139470" lon="11.662020">
						<ele>389</ele>
						<time>2026-05-04T21:52:51Z</time>
					</trkpt>
					<trkpt lat="43.139490" lon="11.661900">
						<ele>389</ele>
						<time>2026-05-04T21:52:52Z</time>
					</trkpt>
					<trkpt lat="43.139500" lon="11.661750">
						<ele>388</ele>
						<time>2026-05-04T21:52:54Z</time>
					</trkpt>
					<trkpt lat="43.139500" lon="11.661500">
						<ele>386</ele>
						<time>2026-05-04T21:52:57Z</time>
					</trkpt>
					<trkpt lat="43.139460" lon="11.660780">
						<ele>382</ele>
						<time>2026-05-04T21:53:07Z</time>
					</trkpt>
					<trkpt lat="43.139450" lon="11.660470">
						<ele>381</ele>
						<time>2026-05-04T21:53:11Z</time>
					</trkpt>
					<trkpt lat="43.139450" lon="11.659900">
						<ele>380</ele>
						<time>2026-05-04T21:53:18Z</time>
					</trkpt>
					<trkpt lat="43.139450" lon="11.659660">
						<ele>381</ele>
						<time>2026-05-04T21:53:21Z</time>
					</trkpt>
					<trkpt lat="43.139410" lon="11.659450">
						<ele>380</ele>
						<time>2026-05-04T21:53:24Z</time>
					</trkpt>
					<trkpt lat="43.139380" lon="11.659340">
						<ele>379</ele>
						<time>2026-05-04T21:53:26Z</time>
					</trkpt>
					<trkpt lat="43.139330" lon="11.659230">
						<ele>378</ele>
						<time>2026-05-04T21:53:27Z</time>
					</trkpt>
					<trkpt lat="43.139260" lon="11.659130">
						<ele>376</ele>
						<time>2026-05-04T21:53:29Z</time>
					</trkpt>
					<trkpt lat="43.139170" lon="11.659020">
						<ele>374</ele>
						<time>2026-05-04T21:53:31Z</time>
					</trkpt>
					<trkpt lat="43.138890" lon="11.658820">
						<ele>370</ele>
						<time>2026-05-04T21:53:37Z</time>
					</trkpt>
					<trkpt lat="43.138580" lon="11.658620">
						<ele>366</ele>
						<time>2026-05-04T21:53:43Z</time>
					</trkpt>
					<trkpt lat="43.138100" lon="11.658330">
						<ele>359</ele>
						<time>2026-05-04T21:53:52Z</time>
					</trkpt>
					<trkpt lat="43.138040" lon="11.658280">
						<ele>357</ele>
						<time>2026-05-04T21:53:54Z</time>
					</trkpt>
					<trkpt lat="43.137980" lon="11.658180">
						<ele>356</ele>
						<time>2026-05-04T21:53:55Z</time>
					</trkpt>
					<trkpt lat="43.137940" lon="11.658080">
						<ele>355</ele>
						<time>2026-05-04T21:53:57Z</time>
					</trkpt>
					<trkpt lat="43.137940" lon="11.657980">
						<ele>355</ele>
						<time>2026-05-04T21:53:58Z</time>
					</trkpt>
					<trkpt lat="43.137960" lon="11.657850">
						<ele>356</ele>
						<time>2026-05-04T21:54:00Z</time>
					</trkpt>
					<trkpt lat="43.138040" lon="11.657680">
						<ele>358</ele>
						<time>2026-05-04T21:54:02Z</time>
					</trkpt>
					<trkpt lat="43.138080" lon="11.657560">
						<ele>359</ele>
						<time>2026-05-04T21:54:04Z</time>
					</trkpt>
					<trkpt lat="43.138100" lon="11.657460">
						<ele>360</ele>
						<time>2026-05-04T21:54:05Z</time>
					</trkpt>
					<trkpt lat="43.138090" lon="11.657330">
						<ele>360</ele>
						<time>2026-05-04T21:54:07Z</time>
					</trkpt>
					<trkpt lat="43.138060" lon="11.657210">
						<ele>360</ele>
						<time>2026-05-04T21:54:09Z</time>
					</trkpt>
					<trkpt lat="43.137930" lon="11.656980">
						<ele>357</ele>
						<time>2026-05-04T21:54:13Z</time>
					</trkpt>
					<trkpt lat="43.137740" lon="11.656670">
						<ele>353</ele>
						<time>2026-05-04T21:54:18Z</time>
					</trkpt>
					<trkpt lat="43.137680" lon="11.656570">
						<ele>350</ele>
						<time>2026-05-04T21:54:19Z</time>
					</trkpt>
					<trkpt lat="43.137640" lon="11.656470">
						<ele>349</ele>
						<time>2026-05-04T21:54:21Z</time>
					</trkpt>
					<trkpt lat="43.137630" lon="11.656330">
						<ele>347</ele>
						<time>2026-05-04T21:54:23Z</time>
					</trkpt>
					<trkpt lat="43.137640" lon="11.656150">
						<ele>346</ele>
						<time>2026-05-04T21:54:25Z</time>
					</trkpt>
					<trkpt lat="43.137850" lon="11.655410">
						<ele>343</ele>
						<time>2026-05-04T21:54:35Z</time>
					</trkpt>
					<trkpt lat="43.137870" lon="11.655270">
						<ele>341</ele>
						<time>2026-05-04T21:54:37Z</time>
					</trkpt>
					<trkpt lat="43.137870" lon="11.655120">
						<ele>339</ele>
						<time>2026-05-04T21:54:39Z</time>
					</trkpt>
					<trkpt lat="43.137820" lon="11.655010">
						<ele>337</ele>
						<time>2026-05-04T21:54:41Z</time>
					</trkpt>
					<trkpt lat="43.137770" lon="11.654930">
						<ele>335</ele>
						<time>2026-05-04T21:54:42Z</time>
					</trkpt>
					<trkpt lat="43.137690" lon="11.654910">
						<ele>334</ele>
						<time>2026-05-04T21:54:44Z</time>
					</trkpt>
					<trkpt lat="43.137630" lon="11.654910">
						<ele>334</ele>
						<time>2026-05-04T21:54:45Z</time>
					</trkpt>
					<trkpt lat="43.137570" lon="11.654930">
						<ele>334</ele>
						<time>2026-05-04T21:54:46Z</time>
					</trkpt>
					<trkpt lat="43.137510" lon="11.654980">
						<ele>334</ele>
						<time>2026-05-04T21:54:47Z</time>
					</trkpt>
					<trkpt lat="43.137160" lon="11.655340">
						<ele>331</ele>
						<time>2026-05-04T21:54:55Z</time>
					</trkpt>
					<trkpt lat="43.136980" lon="11.655490">
						<ele>330</ele>
						<time>2026-05-04T21:54:59Z</time>
					</trkpt>
					<trkpt lat="43.136810" lon="11.655620">
						<ele>328</ele>
						<time>2026-05-04T21:55:02Z</time>
					</trkpt>
					<trkpt lat="43.136750" lon="11.655630">
						<ele>327</ele>
						<time>2026-05-04T21:55:03Z</time>
					</trkpt>
					<trkpt lat="43.136680" lon="11.655630">
						<ele>326</ele>
						<time>2026-05-04T21:55:04Z</time>
					</trkpt>
					<trkpt lat="43.136580" lon="11.655590">
						<ele>325</ele>
						<time>2026-05-04T21:55:06Z</time>
					</trkpt>
					<trkpt lat="43.136500" lon="11.655510">
						<ele>323</ele>
						<time>2026-05-04T21:55:08Z</time>
					</trkpt>
					<trkpt lat="43.136430" lon="11.655350">
						<ele>322</ele>
						<time>2026-05-04T21:55:11Z</time>
					</trkpt>
					<trkpt lat="43.136350" lon="11.655010">
						<ele>319</ele>
						<time>2026-05-04T21:55:15Z</time>
					</trkpt>
					<trkpt lat="43.136290" lon="11.654800">
						<ele>317</ele>
						<time>2026-05-04T21:55:18Z</time>
					</trkpt>
					<trkpt lat="43.136260" lon="11.654700">
						<ele>316</ele>
						<time>2026-05-04T21:55:19Z</time>
					</trkpt>
					<trkpt lat="43.136190" lon="11.654600">
						<ele>315</ele>
						<time>2026-05-04T21:55:21Z</time>
					</trkpt>
					<trkpt lat="43.136110" lon="11.654520">
						<ele>314</ele>
						<time>2026-05-04T21:55:23Z</time>
					</trkpt>
					<trkpt lat="43.136030" lon="11.654470">
						<ele>314</ele>
						<time>2026-05-04T21:55:25Z</time>
					</trkpt>
					<trkpt lat="43.135930" lon="11.654440">
						<ele>313</ele>
						<time>2026-05-04T21:55:26Z</time>
					</trkpt>
					<trkpt lat="43.135780" lon="11.654430">
						<ele>312</ele>
						<time>2026-05-04T21:55:29Z</time>
					</trkpt>
					<trkpt lat="43.135630" lon="11.654450">
						<ele>311</ele>
						<time>2026-05-04T21:55:32Z</time>
					</trkpt>
					<trkpt lat="43.135520" lon="11.654490">
						<ele>310</ele>
						<time>2026-05-04T21:55:34Z</time>
					</trkpt>
					<trkpt lat="43.134990" lon="11.654720">
						<ele>306</ele>
						<time>2026-05-04T21:55:44Z</time>
					</trkpt>
					<trkpt lat="43.134910" lon="11.654770">
						<ele>306</ele>
						<time>2026-05-04T21:55:45Z</time>
					</trkpt>
					<trkpt lat="43.134700" lon="11.654870">
						<ele>307</ele>
						<time>2026-05-04T21:55:49Z</time>
					</trkpt>
					<trkpt lat="43.134650" lon="11.654900">
						<ele>308</ele>
						<time>2026-05-04T21:55:50Z</time>
					</trkpt>
					<trkpt lat="43.134580" lon="11.654970">
						<ele>308</ele>
						<time>2026-05-04T21:55:52Z</time>
					</trkpt>
					<trkpt lat="43.134520" lon="11.655060">
						<ele>308</ele>
						<time>2026-05-04T21:55:53Z</time>
					</trkpt>
					<trkpt lat="43.134470" lon="11.655170">
						<ele>308</ele>
						<time>2026-05-04T21:55:55Z</time>
					</trkpt>
					<trkpt lat="43.134360" lon="11.655440">
						<ele>308</ele>
						<time>2026-05-04T21:55:59Z</time>
					</trkpt>
					<trkpt lat="43.134290" lon="11.655560">
						<ele>309</ele>
						<time>2026-05-04T21:56:01Z</time>
					</trkpt>
					<trkpt lat="43.134220" lon="11.655620">
						<ele>309</ele>
						<time>2026-05-04T21:56:02Z</time>
					</trkpt>
					<trkpt lat="43.134160" lon="11.655650">
						<ele>309</ele>
						<time>2026-05-04T21:56:04Z</time>
					</trkpt>
					<trkpt lat="43.134000" lon="11.655660">
						<ele>310</ele>
						<time>2026-05-04T21:56:06Z</time>
					</trkpt>
					<trkpt lat="43.133920" lon="11.655630">
						<ele>310</ele>
						<time>2026-05-04T21:56:08Z</time>
					</trkpt>
					<trkpt lat="43.133480" lon="11.655490">
						<ele>313</ele>
						<time>2026-05-04T21:56:16Z</time>
					</trkpt>
					<trkpt lat="43.133350" lon="11.655480">
						<ele>314</ele>
						<time>2026-05-04T21:56:18Z</time>
					</trkpt>
					<trkpt lat="43.133220" lon="11.655480">
						<ele>316</ele>
						<time>2026-05-04T21:56:21Z</time>
					</trkpt>
					<trkpt lat="43.133100" lon="11.655500">
						<ele>317</ele>
						<time>2026-05-04T21:56:23Z</time>
					</trkpt>
					<trkpt lat="43.132550" lon="11.655660">
						<ele>326</ele>
						<time>2026-05-04T21:56:33Z</time>
					</trkpt>
					<trkpt lat="43.132150" lon="11.655730">
						<ele>332</ele>
						<time>2026-05-04T21:56:40Z</time>
					</trkpt>
					<trkpt lat="43.131750" lon="11.655770">
						<ele>338</ele>
						<time>2026-05-04T21:56:47Z</time>
					</trkpt>
					<trkpt lat="43.131500" lon="11.655800">
						<ele>341</ele>
						<time>2026-05-04T21:56:52Z</time>
					</trkpt>
					<trkpt lat="43.131250" lon="11.655790">
						<ele>344</ele>
						<time>2026-05-04T21:56:56Z</time>
					</trkpt>
					<trkpt lat="43.131150" lon="11.655760">
						<ele>346</ele>
						<time>2026-05-04T21:56:58Z</time>
					</trkpt>
					<trkpt lat="43.131070" lon="11.655730">
						<ele>347</ele>
						<time>2026-05-04T21:56:59Z</time>
					</trkpt>
					<trkpt lat="43.131010" lon="11.655670">
						<ele>348</ele>
						<time>2026-05-04T21:57:01Z</time>
					</trkpt>
					<trkpt lat="43.130960" lon="11.655590">
						<ele>348</ele>
						<time>2026-05-04T21:57:02Z</time>
					</trkpt>
					<trkpt lat="43.130890" lon="11.655440">
						<ele>349</ele>
						<time>2026-05-04T21:57:04Z</time>
					</trkpt>
					<trkpt lat="43.130860" lon="11.655340">
						<ele>349</ele>
						<time>2026-05-04T21:57:06Z</time>
					</trkpt>
					<trkpt lat="43.130660" lon="11.653750">
						<ele>354</ele>
						<time>2026-05-04T21:57:27Z</time>
					</trkpt>
					<trkpt lat="43.130610" lon="11.653550">
						<ele>355</ele>
						<time>2026-05-04T21:57:29Z</time>
					</trkpt>
					<trkpt lat="43.130530" lon="11.653380">
						<ele>357</ele>
						<time>2026-05-04T21:57:32Z</time>
					</trkpt>
					<trkpt lat="43.130450" lon="11.653260">
						<ele>358</ele>
						<time>2026-05-04T21:57:34Z</time>
					</trkpt>
					<trkpt lat="43.130360" lon="11.653170">
						<ele>360</ele>
						<time>2026-05-04T21:57:36Z</time>
					</trkpt>
					<trkpt lat="43.130280" lon="11.653110">
						<ele>361</ele>
						<time>2026-05-04T21:57:38Z</time>
					</trkpt>
					<trkpt lat="43.130160" lon="11.653050">
						<ele>363</ele>
						<time>2026-05-04T21:57:40Z</time>
					</trkpt>
					<trkpt lat="43.130020" lon="11.653010">
						<ele>365</ele>
						<time>2026-05-04T21:57:43Z</time>
					</trkpt>
					<trkpt lat="43.129820" lon="11.653020">
						<ele>369</ele>
						<time>2026-05-04T21:57:46Z</time>
					</trkpt>
					<trkpt lat="43.129740" lon="11.653040">
						<ele>371</ele>
						<time>2026-05-04T21:57:48Z</time>
					</trkpt>
					<trkpt lat="43.129660" lon="11.653090">
						<ele>372</ele>
						<time>2026-05-04T21:57:49Z</time>
					</trkpt>
					<trkpt lat="43.129580" lon="11.653160">
						<ele>373</ele>
						<time>2026-05-04T21:57:51Z</time>
					</trkpt>
					<trkpt lat="43.129220" lon="11.653580">
						<ele>377</ele>
						<time>2026-05-04T21:57:59Z</time>
					</trkpt>
					<trkpt lat="43.129100" lon="11.653690">
						<ele>378</ele>
						<time>2026-05-04T21:58:02Z</time>
					</trkpt>
					<trkpt lat="43.128900" lon="11.653820">
						<ele>379</ele>
						<time>2026-05-04T21:58:06Z</time>
					</trkpt>
					<trkpt lat="43.127870" lon="11.654190">
						<ele>387</ele>
						<time>2026-05-04T21:58:25Z</time>
					</trkpt>
					<trkpt lat="43.127850" lon="11.654200">
						<ele>387</ele>
						<time>2026-05-04T21:58:25Z</time>
					</trkpt>
					<trkpt lat="43.127740" lon="11.654250">
						<ele>388</ele>
						<time>2026-05-04T21:58:27Z</time>
					</trkpt>
					<trkpt lat="43.127230" lon="11.654560">
						<ele>391</ele>
						<time>2026-05-04T21:58:37Z</time>
					</trkpt>
					<trkpt lat="43.126640" lon="11.654960">
						<ele>398</ele>
						<time>2026-05-04T21:58:49Z</time>
					</trkpt>
					<trkpt lat="43.126490" lon="11.655050">
						<ele>400</ele>
						<time>2026-05-04T21:58:52Z</time>
					</trkpt>
					<trkpt lat="43.126420" lon="11.655120">
						<ele>400</ele>
						<time>2026-05-04T21:58:53Z</time>
					</trkpt>
					<trkpt lat="43.125790" lon="11.656170">
						<ele>402</ele>
						<time>2026-05-04T21:59:11Z</time>
					</trkpt>
					<trkpt lat="43.125570" lon="11.656470">
						<ele>404</ele>
						<time>2026-05-04T21:59:16Z</time>
					</trkpt>
					<trkpt lat="43.125430" lon="11.656610">
						<ele>404</ele>
						<time>2026-05-04T21:59:19Z</time>
					</trkpt>
					<trkpt lat="43.125110" lon="11.656910">
						<ele>405</ele>
						<time>2026-05-04T21:59:26Z</time>
					</trkpt>
					<trkpt lat="43.124910" lon="11.657040">
						<ele>405</ele>
						<time>2026-05-04T21:59:30Z</time>
					</trkpt>
					<trkpt lat="43.124720" lon="11.657120">
						<ele>405</ele>
						<time>2026-05-04T21:59:34Z</time>
					</trkpt>
					<trkpt lat="43.124430" lon="11.657200">
						<ele>406</ele>
						<time>2026-05-04T21:59:39Z</time>
					</trkpt>
					<trkpt lat="43.124150" lon="11.657240">
						<ele>407</ele>
						<time>2026-05-04T21:59:44Z</time>
					</trkpt>
					<trkpt lat="43.123780" lon="11.657250">
						<ele>407</ele>
						<time>2026-05-04T21:59:51Z</time>
					</trkpt>
					<trkpt lat="43.123550" lon="11.657210">
						<ele>408</ele>
						<time>2026-05-04T21:59:55Z</time>
					</trkpt>
					<trkpt lat="43.123180" lon="11.657110">
						<ele>409</ele>
						<time>2026-05-04T22:00:02Z</time>
					</trkpt>
					<trkpt lat="43.122520" lon="11.656790">
						<ele>409</ele>
						<time>2026-05-04T22:00:14Z</time>
					</trkpt>
					<trkpt lat="43.122260" lon="11.656710">
						<ele>411</ele>
						<time>2026-05-04T22:00:19Z</time>
					</trkpt>
					<trkpt lat="43.122090" lon="11.656680">
						<ele>411</ele>
						<time>2026-05-04T22:00:22Z</time>
					</trkpt>
					<trkpt lat="43.121950" lon="11.656670">
						<ele>412</ele>
						<time>2026-05-04T22:00:24Z</time>
					</trkpt>
					<trkpt lat="43.121800" lon="11.656690">
						<ele>412</ele>
						<time>2026-05-04T22:00:27Z</time>
					</trkpt>
					<trkpt lat="43.121680" lon="11.656700">
						<ele>413</ele>
						<time>2026-05-04T22:00:29Z</time>
					</trkpt>
					<trkpt lat="43.121520" lon="11.656760">
						<ele>412</ele>
						<time>2026-05-04T22:00:32Z</time>
					</trkpt>
					<trkpt lat="43.121040" lon="11.656970">
						<ele>410</ele>
						<time>2026-05-04T22:00:41Z</time>
					</trkpt>
					<trkpt lat="43.120980" lon="11.657000">
						<ele>410</ele>
						<time>2026-05-04T22:00:42Z</time>
					</trkpt>
					<trkpt lat="43.120000" lon="11.657510">
						<ele>410</ele>
						<time>2026-05-04T22:01:01Z</time>
					</trkpt>
					<trkpt lat="43.117440" lon="11.658810">
						<ele>402</ele>
						<time>2026-05-04T22:01:49Z</time>
					</trkpt>
					<trkpt lat="43.117130" lon="11.658970">
						<ele>401</ele>
						<time>2026-05-04T22:01:55Z</time>
					</trkpt>
					<trkpt lat="43.116350" lon="11.659350">
						<ele>399</ele>
						<time>2026-05-04T22:02:10Z</time>
					</trkpt>
					<trkpt lat="43.115540" lon="11.659770">
						<ele>395</ele>
						<time>2026-05-04T22:02:25Z</time>
					</trkpt>
					<trkpt lat="43.115380" lon="11.659830">
						<ele>394</ele>
						<time>2026-05-04T22:02:28Z</time>
					</trkpt>
					<trkpt lat="43.115210" lon="11.659860">
						<ele>394</ele>
						<time>2026-05-04T22:02:31Z</time>
					</trkpt>
					<trkpt lat="43.114700" lon="11.659920">
						<ele>392</ele>
						<time>2026-05-04T22:02:41Z</time>
					</trkpt>
					<trkpt lat="43.114410" lon="11.659940">
						<ele>390</ele>
						<time>2026-05-04T22:02:46Z</time>
					</trkpt>
					<trkpt lat="43.113610" lon="11.660010">
						<ele>383</ele>
						<time>2026-05-04T22:03:00Z</time>
					</trkpt>
					<trkpt lat="43.113340" lon="11.660010">
						<ele>381</ele>
						<time>2026-05-04T22:03:05Z</time>
					</trkpt>
					<trkpt lat="43.112930" lon="11.659910">
						<ele>378</ele>
						<time>2026-05-04T22:03:12Z</time>
					</trkpt>
					<trkpt lat="43.112250" lon="11.659700">
						<ele>376</ele>
						<time>2026-05-04T22:03:25Z</time>
					</trkpt>
					<trkpt lat="43.111360" lon="11.659540">
						<ele>373</ele>
						<time>2026-05-04T22:03:41Z</time>
					</trkpt>
					<trkpt lat="43.111110" lon="11.659420">
						<ele>373</ele>
						<time>2026-05-04T22:03:45Z</time>
					</trkpt>
					<trkpt lat="43.110860" lon="11.659240">
						<ele>373</ele>
						<time>2026-05-04T22:03:50Z</time>
					</trkpt>
					<trkpt lat="43.110700" lon="11.659190">
						<ele>373</ele>
						<time>2026-05-04T22:03:53Z</time>
					</trkpt>
					<trkpt lat="43.110540" lon="11.659180">
						<ele>373</ele>
						<time>2026-05-04T22:03:56Z</time>
					</trkpt>
					<trkpt lat="43.110450" lon="11.659200">
						<ele>373</ele>
						<time>2026-05-04T22:03:58Z</time>
					</trkpt>
					<trkpt lat="43.109130" lon="11.660010">
						<ele>362</ele>
						<time>2026-05-04T22:04:23Z</time>
					</trkpt>
					<trkpt lat="43.108930" lon="11.660090">
						<ele>361</ele>
						<time>2026-05-04T22:04:27Z</time>
					</trkpt>
					<trkpt lat="43.108870" lon="11.660090">
						<ele>361</ele>
						<time>2026-05-04T22:04:28Z</time>
					</trkpt>
					<trkpt lat="43.108710" lon="11.660060">
						<ele>361</ele>
						<time>2026-05-04T22:04:31Z</time>
					</trkpt>
					<trkpt lat="43.108430" lon="11.659940">
						<ele>360</ele>
						<time>2026-05-04T22:04:36Z</time>
					</trkpt>
					<trkpt lat="43.108290" lon="11.659900">
						<ele>359</ele>
						<time>2026-05-04T22:04:39Z</time>
					</trkpt>
					<trkpt lat="43.108190" lon="11.659880">
						<ele>358</ele>
						<time>2026-05-04T22:04:41Z</time>
					</trkpt>
					<trkpt lat="43.108010" lon="11.659890">
						<ele>357</ele>
						<time>2026-05-04T22:04:44Z</time>
					</trkpt>
					<trkpt lat="43.107660" lon="11.659980">
						<ele>354</ele>
						<time>2026-05-04T22:04:50Z</time>
					</trkpt>
					<trkpt lat="43.107140" lon="11.660000">
						<ele>350</ele>
						<time>2026-05-04T22:04:59Z</time>
					</trkpt>
					<trkpt lat="43.106740" lon="11.659960">
						<ele>345</ele>
						<time>2026-05-04T22:05:07Z</time>
					</trkpt>
					<trkpt lat="43.106180" lon="11.659830">
						<ele>340</ele>
						<time>2026-05-04T22:05:17Z</time>
					</trkpt>
					<trkpt lat="43.106090" lon="11.659820">
						<ele>340</ele>
						<time>2026-05-04T22:05:18Z</time>
					</trkpt>
					<trkpt lat="43.106000" lon="11.659820">
						<ele>339</ele>
						<time>2026-05-04T22:05:20Z</time>
					</trkpt>
					<trkpt lat="43.105890" lon="11.659850">
						<ele>339</ele>
						<time>2026-05-04T22:05:22Z</time>
					</trkpt>
					<trkpt lat="43.105530" lon="11.659950">
						<ele>338</ele>
						<time>2026-05-04T22:05:28Z</time>
					</trkpt>
					<trkpt lat="43.105440" lon="11.659970">
						<ele>338</ele>
						<time>2026-05-04T22:05:30Z</time>
					</trkpt>
					<trkpt lat="43.105210" lon="11.660020">
						<ele>338</ele>
						<time>2026-05-04T22:05:34Z</time>
					</trkpt>
					<trkpt lat="43.105130" lon="11.660040">
						<ele>337</ele>
						<time>2026-05-04T22:05:36Z</time>
					</trkpt>
					<trkpt lat="43.105020" lon="11.660080">
						<ele>337</ele>
						<time>2026-05-04T22:05:38Z</time>
					</trkpt>
					<trkpt lat="43.104360" lon="11.660500">
						<ele>340</ele>
						<time>2026-05-04T22:05:51Z</time>
					</trkpt>
					<trkpt lat="43.104160" lon="11.660600">
						<ele>341</ele>
						<time>2026-05-04T22:05:54Z</time>
					</trkpt>
					<trkpt lat="43.104070" lon="11.660640">
						<ele>341</ele>
						<time>2026-05-04T22:05:56Z</time>
					</trkpt>
					<trkpt lat="43.103970" lon="11.660660">
						<ele>341</ele>
						<time>2026-05-04T22:05:58Z</time>
					</trkpt>
					<trkpt lat="43.103850" lon="11.660650">
						<ele>341</ele>
						<time>2026-05-04T22:06:00Z</time>
					</trkpt>
					<trkpt lat="43.103610" lon="11.660590">
						<ele>341</ele>
						<time>2026-05-04T22:06:04Z</time>
					</trkpt>
					<trkpt lat="43.103310" lon="11.660480">
						<ele>341</ele>
						<time>2026-05-04T22:06:10Z</time>
					</trkpt>
					<trkpt lat="43.102690" lon="11.660270">
						<ele>344</ele>
						<time>2026-05-04T22:06:21Z</time>
					</trkpt>
					<trkpt lat="43.102210" lon="11.660110">
						<ele>346</ele>
						<time>2026-05-04T22:06:30Z</time>
					</trkpt>
					<trkpt lat="43.102000" lon="11.660070">
						<ele>347</ele>
						<time>2026-05-04T22:06:34Z</time>
					</trkpt>
					<trkpt lat="43.101870" lon="11.660070">
						<ele>347</ele>
						<time>2026-05-04T22:06:36Z</time>
					</trkpt>
					<trkpt lat="43.101770" lon="11.660090">
						<ele>347</ele>
						<time>2026-05-04T22:06:38Z</time>
					</trkpt>
					<trkpt lat="43.101610" lon="11.660160">
						<ele>347</ele>
						<time>2026-05-04T22:06:41Z</time>
					</trkpt>
					<trkpt lat="43.100960" lon="11.660500">
						<ele>348</ele>
						<time>2026-05-04T22:06:53Z</time>
					</trkpt>
					<trkpt lat="43.100150" lon="11.661000">
						<ele>353</ele>
						<time>2026-05-04T22:07:09Z</time>
					</trkpt>
					<trkpt lat="43.099980" lon="11.661050">
						<ele>354</ele>
						<time>2026-05-04T22:07:12Z</time>
					</trkpt>
					<trkpt lat="43.099610" lon="11.661050">
						<ele>356</ele>
						<time>2026-05-04T22:07:19Z</time>
					</trkpt>
					<trkpt lat="43.099300" lon="11.661020">
						<ele>357</ele>
						<time>2026-05-04T22:07:24Z</time>
					</trkpt>
					<trkpt lat="43.099020" lon="11.660970">
						<ele>359</ele>
						<time>2026-05-04T22:07:29Z</time>
					</trkpt>
					<trkpt lat="43.098560" lon="11.660860">
						<ele>363</ele>
						<time>2026-05-04T22:07:38Z</time>
					</trkpt>
					<trkpt lat="43.098040" lon="11.660730">
						<ele>367</ele>
						<time>2026-05-04T22:07:47Z</time>
					</trkpt>
					<trkpt lat="43.097800" lon="11.660740">
						<ele>369</ele>
						<time>2026-05-04T22:07:51Z</time>
					</trkpt>
					<trkpt lat="43.097370" lon="11.660830">
						<ele>372</ele>
						<time>2026-05-04T22:07:59Z</time>
					</trkpt>
					<trkpt lat="43.096990" lon="11.660940">
						<ele>374</ele>
						<time>2026-05-04T22:08:06Z</time>
					</trkpt>
					<trkpt lat="43.096660" lon="11.661010">
						<ele>376</ele>
						<time>2026-05-04T22:08:12Z</time>
					</trkpt>
					<trkpt lat="43.096480" lon="11.661040">
						<ele>377</ele>
						<time>2026-05-04T22:08:15Z</time>
					</trkpt>
					<trkpt lat="43.096340" lon="11.661040">
						<ele>378</ele>
						<time>2026-05-04T22:08:18Z</time>
					</trkpt>
					<trkpt lat="43.096150" lon="11.661000">
						<ele>379</ele>
						<time>2026-05-04T22:08:21Z</time>
					</trkpt>
					<trkpt lat="43.095930" lon="11.660930">
						<ele>380</ele>
						<time>2026-05-04T22:08:25Z</time>
					</trkpt>
					<trkpt lat="43.095730" lon="11.660840">
						<ele>382</ele>
						<time>2026-05-04T22:08:29Z</time>
					</trkpt>
					<trkpt lat="43.095420" lon="11.660730">
						<ele>385</ele>
						<time>2026-05-04T22:08:35Z</time>
					</trkpt>
					<trkpt lat="43.095320" lon="11.660740">
						<ele>386</ele>
						<time>2026-05-04T22:08:36Z</time>
					</trkpt>
					<trkpt lat="43.095230" lon="11.660770">
						<ele>387</ele>
						<time>2026-05-04T22:08:38Z</time>
					</trkpt>
					<trkpt lat="43.095110" lon="11.660820">
						<ele>388</ele>
						<time>2026-05-04T22:08:40Z</time>
					</trkpt>
					<trkpt lat="43.094860" lon="11.660970">
						<ele>389</ele>
						<time>2026-05-04T22:08:45Z</time>
					</trkpt>
					<trkpt lat="43.094720" lon="11.661000">
						<ele>390</ele>
						<time>2026-05-04T22:08:48Z</time>
					</trkpt>
					<trkpt lat="43.094500" lon="11.661020">
						<ele>391</ele>
						<time>2026-05-04T22:08:51Z</time>
					</trkpt>
					<trkpt lat="43.094160" lon="11.661000">
						<ele>393</ele>
						<time>2026-05-04T22:08:58Z</time>
					</trkpt>
					<trkpt lat="43.093700" lon="11.661020">
						<ele>395</ele>
						<time>2026-05-04T22:09:06Z</time>
					</trkpt>
					<trkpt lat="43.093150" lon="11.661040">
						<ele>399</ele>
						<time>2026-05-04T22:09:15Z</time>
					</trkpt>
					<trkpt lat="43.092560" lon="11.661060">
						<ele>403</ele>
						<time>2026-05-04T22:09:26Z</time>
					</trkpt>
					<trkpt lat="43.091970" lon="11.661100">
						<ele>409</ele>
						<time>2026-05-04T22:09:37Z</time>
					</trkpt>
					<trkpt lat="43.091020" lon="11.661230">
						<ele>416</ele>
						<time>2026-05-04T22:09:53Z</time>
					</trkpt>
					<trkpt lat="43.090780" lon="11.661240">
						<ele>418</ele>
						<time>2026-05-04T22:09:58Z</time>
					</trkpt>
					<trkpt lat="43.090630" lon="11.661230">
						<ele>419</ele>
						<time>2026-05-04T22:10:00Z</time>
					</trkpt>
					<trkpt lat="43.090120" lon="11.661110">
						<ele>424</ele>
						<time>2026-05-04T22:10:10Z</time>
					</trkpt>
					<trkpt lat="43.089880" lon="11.661070">
						<ele>426</ele>
						<time>2026-05-04T22:10:14Z</time>
					</trkpt>
					<trkpt lat="43.089630" lon="11.661080">
						<ele>429</ele>
						<time>2026-05-04T22:10:18Z</time>
					</trkpt>
					<trkpt lat="43.089480" lon="11.661120">
						<ele>431</ele>
						<time>2026-05-04T22:10:21Z</time>
					</trkpt>
					<trkpt lat="43.089330" lon="11.661200">
						<ele>433</ele>
						<time>2026-05-04T22:10:24Z</time>
					</trkpt>
					<trkpt lat="43.089190" lon="11.661300">
						<ele>434</ele>
						<time>2026-05-04T22:10:27Z</time>
					</trkpt>
					<trkpt lat="43.088670" lon="11.661830">
						<ele>437</ele>
						<time>2026-05-04T22:10:38Z</time>
					</trkpt>
					<trkpt lat="43.088540" lon="11.661950">
						<ele>437</ele>
						<time>2026-05-04T22:10:41Z</time>
					</trkpt>
					<trkpt lat="43.088410" lon="11.662010">
						<ele>437</ele>
						<time>2026-05-04T22:10:44Z</time>
					</trkpt>
					<trkpt lat="43.088280" lon="11.662060">
						<ele>438</ele>
						<time>2026-05-04T22:10:46Z</time>
					</trkpt>
					<trkpt lat="43.087950" lon="11.662150">
						<ele>440</ele>
						<time>2026-05-04T22:10:52Z</time>
					</trkpt>
					<trkpt lat="43.087770" lon="11.662190">
						<ele>441</ele>
						<time>2026-05-04T22:10:55Z</time>
					</trkpt>
					<trkpt lat="43.087650" lon="11.662230">
						<ele>441</ele>
						<time>2026-05-04T22:10:57Z</time>
					</trkpt>
					<trkpt lat="43.087520" lon="11.662320">
						<ele>442</ele>
						<time>2026-05-04T22:11:00Z</time>
					</trkpt>
					<trkpt lat="43.087250" lon="11.662600">
						<ele>445</ele>
						<time>2026-05-04T22:11:06Z</time>
					</trkpt>
					<trkpt lat="43.087110" lon="11.662760">
						<ele>446</ele>
						<time>2026-05-04T22:11:09Z</time>
					</trkpt>
					<trkpt lat="43.086800" lon="11.663230">
						<ele>448</ele>
						<time>2026-05-04T22:11:17Z</time>
					</trkpt>
					<trkpt lat="43.086630" lon="11.663450">
						<ele>449</ele>
						<time>2026-05-04T22:11:22Z</time>
					</trkpt>
					<trkpt lat="43.086400" lon="11.663700">
						<ele>449</ele>
						<time>2026-05-04T22:11:27Z</time>
					</trkpt>
					<trkpt lat="43.086100" lon="11.663980">
						<ele>451</ele>
						<time>2026-05-04T22:11:33Z</time>
					</trkpt>
					<trkpt lat="43.085900" lon="11.664140">
						<ele>452</ele>
						<time>2026-05-04T22:11:37Z</time>
					</trkpt>
					<trkpt lat="43.085650" lon="11.664260">
						<ele>454</ele>
						<time>2026-05-04T22:11:42Z</time>
					</trkpt>
					<trkpt lat="43.085600" lon="11.664290">
						<ele>454</ele>
						<time>2026-05-04T22:11:43Z</time>
					</trkpt>
					<trkpt lat="43.085430" lon="11.664360">
						<ele>455</ele>
						<time>2026-05-04T22:11:46Z</time>
					</trkpt>
					<trkpt lat="43.085320" lon="11.664390">
						<ele>456</ele>
						<time>2026-05-04T22:11:48Z</time>
					</trkpt>
					<trkpt lat="43.085210" lon="11.664100">
						<ele>457</ele>
						<time>2026-05-04T22:11:53Z</time>
					</trkpt>
					<trkpt lat="43.085130" lon="11.664450">
						<ele>457</ele>
						<time>2026-05-04T22:11:57Z</time>
					</trkpt>
					<trkpt lat="43.085110" lon="11.664520">
						<ele>457</ele>
						<time>2026-05-04T22:11:58Z</time>
					</trkpt>
					<trkpt lat="43.084990" lon="11.664810">
						<ele>457</ele>
						<time>2026-05-04T22:12:03Z</time>
					</trkpt>
					<trkpt lat="43.084440" lon="11.665900">
						<ele>461</ele>
						<time>2026-05-04T22:12:20Z</time>
					</trkpt>
					<trkpt lat="43.084070" lon="11.666650">
						<ele>463</ele>
						<time>2026-05-04T22:12:32Z</time>
					</trkpt>
					<trkpt lat="43.083960" lon="11.666940">
						<ele>464</ele>
						<time>2026-05-04T22:12:36Z</time>
					</trkpt>
					<trkpt lat="43.083610" lon="11.668110">
						<ele>467</ele>
						<time>2026-05-04T22:12:52Z</time>
					</trkpt>
					<trkpt lat="43.083060" lon="11.669690">
						<ele>471</ele>
						<time>2026-05-04T22:13:15Z</time>
					</trkpt>
					<trkpt lat="43.082840" lon="11.670300">
						<ele>474</ele>
						<time>2026-05-04T22:13:24Z</time>
					</trkpt>
					<trkpt lat="43.082730" lon="11.670530">
						<ele>475</ele>
						<time>2026-05-04T22:13:27Z</time>
					</trkpt>
					<trkpt lat="43.082630" lon="11.670700">
						<ele>475</ele>
						<time>2026-05-04T22:13:30Z</time>
					</trkpt>
					<trkpt lat="43.082550" lon="11.670810">
						<ele>476</ele>
						<time>2026-05-04T22:13:32Z</time>
					</trkpt>
					<trkpt lat="43.082420" lon="11.671030">
						<ele>476</ele>
						<time>2026-05-04T22:13:36Z</time>
					</trkpt>
					<trkpt lat="43.082380" lon="11.671040">
						<ele>476</ele>
						<time>2026-05-04T22:13:37Z</time>
					</trkpt>
					<trkpt lat="43.082340" lon="11.671080">
						<ele>476</ele>
						<time>2026-05-04T22:13:38Z</time>
					</trkpt>
					<trkpt lat="43.082310" lon="11.671130">
						<ele>476</ele>
						<time>2026-05-04T22:13:38Z</time>
					</trkpt>
					<trkpt lat="43.082300" lon="11.671190">
						<ele>476</ele>
						<time>2026-05-04T22:13:39Z</time>
					</trkpt>
					<trkpt lat="43.082030" lon="11.671390">
						<ele>476</ele>
						<time>2026-05-04T22:13:45Z</time>
					</trkpt>
					<trkpt lat="43.081650" lon="11.671500">
						<ele>477</ele>
						<time>2026-05-04T22:13:52Z</time>
					</trkpt>
					<trkpt lat="43.081350" lon="11.671570">
						<ele>478</ele>
						<time>2026-05-04T22:13:57Z</time>
					</trkpt>
					<trkpt lat="43.081230" lon="11.671610">
						<ele>479</ele>
						<time>2026-05-04T22:13:59Z</time>
					</trkpt>
					<trkpt lat="43.081060" lon="11.671700">
						<ele>480</ele>
						<time>2026-05-04T22:14:02Z</time>
					</trkpt>
					<trkpt lat="43.080950" lon="11.671800">
						<ele>480</ele>
						<time>2026-05-04T22:14:05Z</time>
					</trkpt>
					<trkpt lat="43.080850" lon="11.671910">
						<ele>480</ele>
						<time>2026-05-04T22:14:07Z</time>
					</trkpt>
					<trkpt lat="43.080760" lon="11.672000">
						<ele>480</ele>
						<time>2026-05-04T22:14:09Z</time>
					</trkpt>
					<trkpt lat="43.080350" lon="11.672520">
						<ele>481</ele>
						<time>2026-05-04T22:14:19Z</time>
					</trkpt>
					<trkpt lat="43.080330" lon="11.672550">
						<ele>481</ele>
						<time>2026-05-04T22:14:20Z</time>
					</trkpt>
					<trkpt lat="43.080300" lon="11.672580">
						<ele>481</ele>
						<time>2026-05-04T22:14:20Z</time>
					</trkpt>
					<trkpt lat="43.080210" lon="11.672710">
						<ele>482</ele>
						<time>2026-05-04T22:14:23Z</time>
					</trkpt>
					<trkpt lat="43.079980" lon="11.673020">
						<ele>482</ele>
						<time>2026-05-04T22:14:28Z</time>
					</trkpt>
					<trkpt lat="43.079800" lon="11.673270">
						<ele>483</ele>
						<time>2026-05-04T22:14:33Z</time>
					</trkpt>
					<trkpt lat="43.079670" lon="11.673500">
						<ele>483</ele>
						<time>2026-05-04T22:14:37Z</time>
					</trkpt>
					<trkpt lat="43.079490" lon="11.673870">
						<ele>484</ele>
						<time>2026-05-04T22:14:42Z</time>
					</trkpt>
					<trkpt lat="43.079470" lon="11.673930">
						<ele>484</ele>
						<time>2026-05-04T22:14:43Z</time>
					</trkpt>
					<trkpt lat="43.079340" lon="11.674220">
						<ele>485</ele>
						<time>2026-05-04T22:14:48Z</time>
					</trkpt>
					<trkpt lat="43.079230" lon="11.674440">
						<ele>486</ele>
						<time>2026-05-04T22:14:51Z</time>
					</trkpt>
					<trkpt lat="43.079100" lon="11.674660">
						<ele>487</ele>
						<time>2026-05-04T22:14:55Z</time>
					</trkpt>
					<trkpt lat="43.078990" lon="11.674830">
						<ele>487</ele>
						<time>2026-05-04T22:14:58Z</time>
					</trkpt>
					<trkpt lat="43.078500" lon="11.675590">
						<ele>489</ele>
						<time>2026-05-04T22:15:11Z</time>
					</trkpt>
					<trkpt lat="43.078450" lon="11.675670">
						<ele>489</ele>
						<time>2026-05-04T22:15:12Z</time>
					</trkpt>
					<trkpt lat="43.078210" lon="11.676040">
						<ele>489</ele>
						<time>2026-05-04T22:15:19Z</time>
					</trkpt>
					<trkpt lat="43.078170" lon="11.676100">
						<ele>489</ele>
						<time>2026-05-04T22:15:20Z</time>
					</trkpt>
					<trkpt lat="43.077850" lon="11.676590">
						<ele>489</ele>
						<time>2026-05-04T22:15:28Z</time>
					</trkpt>
					<trkpt lat="43.077760" lon="11.676750">
						<ele>489</ele>
						<time>2026-05-04T22:15:31Z</time>
					</trkpt>
					<trkpt lat="43.077720" lon="11.676850">
						<ele>489</ele>
						<time>2026-05-04T22:15:32Z</time>
					</trkpt>
					<trkpt lat="43.077700" lon="11.676890">
						<ele>489</ele>
						<time>2026-05-04T22:15:33Z</time>
					</trkpt>
					<trkpt lat="43.077660" lon="11.677070">
						<ele>489</ele>
						<time>2026-05-04T22:15:35Z</time>
					</trkpt>
					<trkpt lat="43.077610" lon="11.677370">
						<ele>490</ele>
						<time>2026-05-04T22:15:39Z</time>
					</trkpt>
					<trkpt lat="43.077620" lon="11.677430">
						<ele>490</ele>
						<time>2026-05-04T22:15:40Z</time>
					</trkpt>
					<trkpt lat="43.077530" lon="11.677440">
						<ele>490</ele>
						<time>2026-05-04T22:15:42Z</time>
					</trkpt>
					<trkpt lat="43.077450" lon="11.677410">
						<ele>490</ele>
						<time>2026-05-04T22:15:43Z</time>
					</trkpt>
					<trkpt lat="43.077270" lon="11.677260">
						<ele>489</ele>
						<time>2026-05-04T22:15:47Z</time>
					</trkpt>
					<trkpt lat="43.077230" lon="11.677220">
						<ele>488</ele>
						<time>2026-05-04T22:15:48Z</time>
					</trkpt>
					<trkpt lat="43.077180" lon="11.677380">
						<ele>489</ele>
						<time>2026-05-04T22:15:50Z</time>
					</trkpt>
					<trkpt lat="43.077160" lon="11.677450">
						<ele>489</ele>
						<time>2026-05-04T22:15:51Z</time>
					</trkpt>
					<trkpt lat="43.077150" lon="11.677470">
						<ele>489</ele>
						<time>2026-05-04T22:15:52Z</time>
					</trkpt>
					<trkpt lat="43.077030" lon="11.677800">
						<ele>491</ele>
						<time>2026-05-04T22:15:56Z</time>
					</trkpt>
					<trkpt lat="43.077000" lon="11.677890">
						<ele>492</ele>
						<time>2026-05-04T22:15:58Z</time>
					</trkpt>
					<trkpt lat="43.076990" lon="11.677930">
						<ele>492</ele>
						<time>2026-05-04T22:15:58Z</time>
					</trkpt>
					<trkpt lat="43.076870" lon="11.678240">
						<ele>496</ele>
						<time>2026-05-04T22:16:03Z</time>
					</trkpt>
					<trkpt lat="43.076810" lon="11.678380">
						<ele>497</ele>
						<time>2026-05-04T22:16:05Z</time>
					</trkpt>
					<trkpt lat="43.076750" lon="11.678530">
						<ele>498</ele>
						<time>2026-05-04T22:16:07Z</time>
					</trkpt>
					<trkpt lat="43.076650" lon="11.678820">
						<ele>499</ele>
						<time>2026-05-04T22:16:11Z</time>
					</trkpt>
					<trkpt lat="43.076620" lon="11.678930">
						<ele>498</ele>
						<time>2026-05-04T22:16:13Z</time>
					</trkpt>
					<trkpt lat="43.076590" lon="11.679080">
						<ele>498</ele>
						<time>2026-05-04T22:16:15Z</time>
					</trkpt>
					<trkpt lat="43.076560" lon="11.679600">
						<ele>495</ele>
						<time>2026-05-04T22:16:22Z</time>
					</trkpt>
					<trkpt lat="43.076540" lon="11.679690">
						<ele>495</ele>
						<time>2026-05-04T22:16:23Z</time>
					</trkpt>
					<trkpt lat="43.076500" lon="11.679930">
						<ele>493</ele>
						<time>2026-05-04T22:16:26Z</time>
					</trkpt>
					<trkpt lat="43.076490" lon="11.679960">
						<ele>492</ele>
						<time>2026-05-04T22:16:26Z</time>
					</trkpt>
					<trkpt lat="43.076460" lon="11.680110">
						<ele>491</ele>
						<time>2026-05-04T22:16:28Z</time>
					</trkpt>
					<trkpt lat="43.076400" lon="11.680410">
						<ele>489</ele>
						<time>2026-05-04T22:16:32Z</time>
					</trkpt>
					<trkpt lat="43.076550" lon="11.680480">
						<ele>492</ele>
						<time>2026-05-04T22:16:35Z</time>
					</trkpt>
					<trkpt lat="43.076860" lon="11.680640">
						<ele>493</ele>
						<time>2026-05-04T22:16:41Z</time>
					</trkpt>
					<trkpt lat="43.076890" lon="11.680490">
						<ele>493</ele>
						<time>2026-05-04T22:16:43Z</time>
					</trkpt>
					<trkpt lat="43.077060" lon="11.680560">
						<ele>492</ele>
						<time>2026-05-04T22:16:46Z</time>
					</trkpt>
					<trkpt lat="43.077100" lon="11.680350">
						<ele>492</ele>
						<time>2026-05-04T22:16:49Z</time>
					</trkpt>
					<trkpt lat="43.077140" lon="11.680180">
						<ele>492</ele>
						<time>2026-05-04T22:16:52Z</time>
					</trkpt>
					<trkpt lat="43.077280" lon="11.679660">
						<ele>492</ele>
						<time>2026-05-04T22:16:59Z</time>
					</trkpt>
					<trkpt lat="43.077320" lon="11.679450">
						<ele>492</ele>
						<time>2026-05-04T22:17:02Z</time>
					</trkpt>
					<trkpt lat="43.077320" lon="11.679400">
						<ele>492</ele>
						<time>2026-05-04T22:17:02Z</time>
					</trkpt>
					<trkpt lat="43.077340" lon="11.679290">
						<ele>492</ele>
						<time>2026-05-04T22:17:04Z</time>
					</trkpt>
					<trkpt lat="43.077370" lon="11.679040">
						<ele>492</ele>
						<time>2026-05-04T22:17:07Z</time>
					</trkpt>
					<trkpt lat="43.077370" lon="11.678830">
						<ele>492</ele>
						<time>2026-05-04T22:17:10Z</time>
					</trkpt>
					<trkpt lat="43.077370" lon="11.678610">
						<ele>492</ele>
						<time>2026-05-04T22:17:13Z</time>
					</trkpt>
					<trkpt lat="43.077360" lon="11.678440">
						<ele>492</ele>
						<time>2026-05-04T22:17:15Z</time>
					</trkpt>
					<trkpt lat="43.077340" lon="11.678240">
						<ele>492</ele>
						<time>2026-05-04T22:17:17Z</time>
					</trkpt>
					<trkpt lat="43.077360" lon="11.678030">
						<ele>491</ele>
						<time>2026-05-04T22:17:20Z</time>
					</trkpt>
					<trkpt lat="43.077410" lon="11.677820">
						<ele>491</ele>
						<time>2026-05-04T22:17:23Z</time>
					</trkpt>
					<trkpt lat="43.077440" lon="11.677720">
						<ele>490</ele>
						<time>2026-05-04T22:17:24Z</time>
					</trkpt>
					<trkpt lat="43.077480" lon="11.677640">
						<ele>490</ele>
						<time>2026-05-04T22:17:26Z</time>
					</trkpt>
					<trkpt lat="43.077550" lon="11.677510">
						<ele>490</ele>
						<time>2026-05-04T22:17:28Z</time>
					</trkpt>
					<trkpt lat="43.077620" lon="11.677430">
						<ele>490</ele>
						<time>2026-05-04T22:17:29Z</time>
					</trkpt>
					<trkpt lat="43.077610" lon="11.677370">
						<ele>490</ele>
						<time>2026-05-04T22:17:30Z</time>
					</trkpt>
					<trkpt lat="43.077660" lon="11.677070">
						<ele>489</ele>
						<time>2026-05-04T22:17:34Z</time>
					</trkpt>
					<trkpt lat="43.077700" lon="11.676890">
						<ele>489</ele>
						<time>2026-05-04T22:17:37Z</time>
					</trkpt>
					<trkpt lat="43.077720" lon="11.676850">
						<ele>489</ele>
						<time>2026-05-04T22:17:37Z</time>
					</trkpt>
					<trkpt lat="43.077760" lon="11.676750">
						<ele>489</ele>
						<time>2026-05-04T22:17:39Z</time>
					</trkpt>
					<trkpt lat="43.077850" lon="11.676590">
						<ele>489</ele>
						<time>2026-05-04T22:17:41Z</time>
					</trkpt>
					<trkpt lat="43.078170" lon="11.676100">
						<ele>489</ele>
						<time>2026-05-04T22:17:50Z</time>
					</trkpt>
					<trkpt lat="43.078210" lon="11.676040">
						<ele>489</ele>
						<time>2026-05-04T22:17:51Z</time>
					</trkpt>
					<trkpt lat="43.078450" lon="11.675670">
						<ele>489</ele>
						<time>2026-05-04T22:17:57Z</time>
					</trkpt>
					<trkpt lat="43.078500" lon="11.675590">
						<ele>489</ele>
						<time>2026-05-04T22:17:59Z</time>
					</trkpt>
					<trkpt lat="43.078990" lon="11.674830">
						<ele>487</ele>
						<time>2026-05-04T22:18:12Z</time>
					</trkpt>
					<trkpt lat="43.079100" lon="11.674660">
						<ele>487</ele>
						<time>2026-05-04T22:18:15Z</time>
					</trkpt>
					<trkpt lat="43.079230" lon="11.674440">
						<ele>486</ele>
						<time>2026-05-04T22:18:19Z</time>
					</trkpt>
					<trkpt lat="43.079340" lon="11.674220">
						<ele>485</ele>
						<time>2026-05-04T22:18:22Z</time>
					</trkpt>
					<trkpt lat="43.079470" lon="11.673930">
						<ele>484</ele>
						<time>2026-05-04T22:18:26Z</time>
					</trkpt>
					<trkpt lat="43.079490" lon="11.673870">
						<ele>484</ele>
						<time>2026-05-04T22:18:27Z</time>
					</trkpt>
					<trkpt lat="43.079670" lon="11.673500">
						<ele>483</ele>
						<time>2026-05-04T22:18:33Z</time>
					</trkpt>
					<trkpt lat="43.079800" lon="11.673270">
						<ele>483</ele>
						<time>2026-05-04T22:18:37Z</time>
					</trkpt>
					<trkpt lat="43.079980" lon="11.673020">
						<ele>482</ele>
						<time>2026-05-04T22:18:41Z</time>
					</trkpt>
					<trkpt lat="43.080210" lon="11.672710">
						<ele>482</ele>
						<time>2026-05-04T22:18:47Z</time>
					</trkpt>
					<trkpt lat="43.080300" lon="11.672580">
						<ele>481</ele>
						<time>2026-05-04T22:18:50Z</time>
					</trkpt>
					<trkpt lat="43.080330" lon="11.672550">
						<ele>481</ele>
						<time>2026-05-04T22:18:50Z</time>
					</trkpt>
					<trkpt lat="43.080350" lon="11.672520">
						<ele>481</ele>
						<time>2026-05-04T22:18:51Z</time>
					</trkpt>
					<trkpt lat="43.080760" lon="11.672000">
						<ele>480</ele>
						<time>2026-05-04T22:19:01Z</time>
					</trkpt>
					<trkpt lat="43.080850" lon="11.671910">
						<ele>480</ele>
						<time>2026-05-04T22:19:03Z</time>
					</trkpt>
					<trkpt lat="43.080950" lon="11.671800">
						<ele>480</ele>
						<time>2026-05-04T22:19:05Z</time>
					</trkpt>
					<trkpt lat="43.081060" lon="11.671700">
						<ele>480</ele>
						<time>2026-05-04T22:19:07Z</time>
					</trkpt>
					<trkpt lat="43.081230" lon="11.671610">
						<ele>479</ele>
						<time>2026-05-04T22:19:11Z</time>
					</trkpt>
					<trkpt lat="43.081350" lon="11.671570">
						<ele>478</ele>
						<time>2026-05-04T22:19:13Z</time>
					</trkpt>
					<trkpt lat="43.081650" lon="11.671500">
						<ele>477</ele>
						<time>2026-05-04T22:19:18Z</time>
					</trkpt>
					<trkpt lat="43.082030" lon="11.671390">
						<ele>476</ele>
						<time>2026-05-04T22:19:25Z</time>
					</trkpt>
					<trkpt lat="43.082350" lon="11.671340">
						<ele>476</ele>
						<time>2026-05-04T22:19:31Z</time>
					</trkpt>
					<trkpt lat="43.082380" lon="11.671370">
						<ele>476</ele>
						<time>2026-05-04T22:19:31Z</time>
					</trkpt>
					<trkpt lat="43.082430" lon="11.671380">
						<ele>476</ele>
						<time>2026-05-04T22:19:32Z</time>
					</trkpt>
					<trkpt lat="43.082470" lon="11.671380">
						<ele>476</ele>
						<time>2026-05-04T22:19:33Z</time>
					</trkpt>
					<trkpt lat="43.082510" lon="11.671350">
						<ele>476</ele>
						<time>2026-05-04T22:19:34Z</time>
					</trkpt>
					<trkpt lat="43.082540" lon="11.671300">
						<ele>476</ele>
						<time>2026-05-04T22:19:35Z</time>
					</trkpt>
					<trkpt lat="43.082560" lon="11.671250">
						<ele>476</ele>
						<time>2026-05-04T22:19:35Z</time>
					</trkpt>
					<trkpt lat="43.082560" lon="11.671190">
						<ele>476</ele>
						<time>2026-05-04T22:19:36Z</time>
					</trkpt>
					<trkpt lat="43.082550" lon="11.671130">
						<ele>476</ele>
						<time>2026-05-04T22:19:37Z</time>
					</trkpt>
					<trkpt lat="43.082550" lon="11.671000">
						<ele>476</ele>
						<time>2026-05-04T22:19:39Z</time>
					</trkpt>
					<trkpt lat="43.082630" lon="11.670700">
						<ele>475</ele>
						<time>2026-05-04T22:19:43Z</time>
					</trkpt>
					<trkpt lat="43.082730" lon="11.670530">
						<ele>475</ele>
						<time>2026-05-04T22:19:46Z</time>
					</trkpt>
					<trkpt lat="43.082840" lon="11.670300">
						<ele>474</ele>
						<time>2026-05-04T22:19:49Z</time>
					</trkpt>
					<trkpt lat="43.083060" lon="11.669690">
						<ele>471</ele>
						<time>2026-05-04T22:19:58Z</time>
					</trkpt>
					<trkpt lat="43.083610" lon="11.668110">
						<ele>467</ele>
						<time>2026-05-04T22:20:21Z</time>
					</trkpt>
					<trkpt lat="43.083960" lon="11.666940">
						<ele>464</ele>
						<time>2026-05-04T22:20:37Z</time>
					</trkpt>
					<trkpt lat="43.084070" lon="11.666650">
						<ele>463</ele>
						<time>2026-05-04T22:20:42Z</time>
					</trkpt>
					<trkpt lat="43.084440" lon="11.665900">
						<ele>461</ele>
						<time>2026-05-04T22:20:53Z</time>
					</trkpt>
					<trkpt lat="43.084940" lon="11.664920">
						<ele>457</ele>
						<time>2026-05-04T22:21:09Z</time>
					</trkpt>
					<trkpt lat="43.084440" lon="11.665900">
						<ele>461</ele>
						<time>2026-05-04T22:21:24Z</time>
					</trkpt>
					<trkpt lat="43.084070" lon="11.666650">
						<ele>463</ele>
						<time>2026-05-04T22:21:36Z</time>
					</trkpt>
					<trkpt lat="43.083960" lon="11.666940">
						<ele>464</ele>
						<time>2026-05-04T22:21:40Z</time>
					</trkpt>
					<trkpt lat="43.083610" lon="11.668110">
						<ele>467</ele>
						<time>2026-05-04T22:21:57Z</time>
					</trkpt>
					<trkpt lat="43.083060" lon="11.669690">
						<ele>471</ele>
						<time>2026-05-04T22:22:20Z</time>
					</trkpt>
					<trkpt lat="43.082840" lon="11.670300">
						<ele>474</ele>
						<time>2026-05-04T22:22:28Z</time>
					</trkpt>
					<trkpt lat="43.082810" lon="11.670360">
						<ele>474</ele>
						<time>2026-05-04T22:22:29Z</time>
					</trkpt>
					<trkpt lat="43.082840" lon="11.670300">
						<ele>474</ele>
						<time>2026-05-04T22:22:30Z</time>
					</trkpt>
					<trkpt lat="43.083060" lon="11.669690">
						<ele>471</ele>
						<time>2026-05-04T22:22:39Z</time>
					</trkpt>
					<trkpt lat="43.083610" lon="11.668110">
						<ele>467</ele>
						<time>2026-05-04T22:23:02Z</time>
					</trkpt>
					<trkpt lat="43.083960" lon="11.666940">
						<ele>464</ele>
						<time>2026-05-04T22:23:18Z</time>
					</trkpt>
					<trkpt lat="43.084070" lon="11.666650">
						<ele>463</ele>
						<time>2026-05-04T22:23:23Z</time>
					</trkpt>
					<trkpt lat="43.084440" lon="11.665900">
						<ele>461</ele>
						<time>2026-05-04T22:23:34Z</time>
					</trkpt>
					<trkpt lat="43.084990" lon="11.664810">
						<ele>457</ele>
						<time>2026-05-04T22:23:52Z</time>
					</trkpt>
					<trkpt lat="43.085110" lon="11.664520">
						<ele>457</ele>
						<time>2026-05-04T22:23:56Z</time>
					</trkpt>
					<trkpt lat="43.085130" lon="11.664450">
						<ele>457</ele>
						<time>2026-05-04T22:23:57Z</time>
					</trkpt>
					<trkpt lat="43.085210" lon="11.664100">
						<ele>457</ele>
						<time>2026-05-04T22:24:02Z</time>
					</trkpt>
					<trkpt lat="43.085460" lon="11.663030">
						<ele>453</ele>
						<time>2026-05-04T22:24:16Z</time>
					</trkpt>
					<trkpt lat="43.085570" lon="11.662630">
						<ele>452</ele>
						<time>2026-05-04T22:24:22Z</time>
					</trkpt>
					<trkpt lat="43.085830" lon="11.661860">
						<ele>449</ele>
						<time>2026-05-04T22:24:33Z</time>
					</trkpt>
					<trkpt lat="43.086100" lon="11.661150">
						<ele>444</ele>
						<time>2026-05-04T22:24:43Z</time>
					</trkpt>
					<trkpt lat="43.086320" lon="11.660570">
						<ele>441</ele>
						<time>2026-05-04T22:24:52Z</time>
					</trkpt>
					<trkpt lat="43.086520" lon="11.660140">
						<ele>439</ele>
						<time>2026-05-04T22:24:58Z</time>
					</trkpt>
					<trkpt lat="43.086610" lon="11.660020">
						<ele>439</ele>
						<time>2026-05-04T22:25:01Z</time>
					</trkpt>
					<trkpt lat="43.086710" lon="11.659920">
						<ele>438</ele>
						<time>2026-05-04T22:25:03Z</time>
					</trkpt>
					<trkpt lat="43.086830" lon="11.659860">
						<ele>437</ele>
						<time>2026-05-04T22:25:05Z</time>
					</trkpt>
					<trkpt lat="43.086960" lon="11.659840">
						<ele>437</ele>
						<time>2026-05-04T22:25:07Z</time>
					</trkpt>
					<trkpt lat="43.087120" lon="11.659860">
						<ele>437</ele>
						<time>2026-05-04T22:25:10Z</time>
					</trkpt>
					<trkpt lat="43.088070" lon="11.659990">
						<ele>434</ele>
						<time>2026-05-04T22:25:27Z</time>
					</trkpt>
					<trkpt lat="43.088190" lon="11.659990">
						<ele>434</ele>
						<time>2026-05-04T22:25:29Z</time>
					</trkpt>
					<trkpt lat="43.088300" lon="11.659960">
						<ele>433</ele>
						<time>2026-05-04T22:25:31Z</time>
					</trkpt>
					<trkpt lat="43.088390" lon="11.659900">
						<ele>432</ele>
						<time>2026-05-04T22:25:33Z</time>
					</trkpt>
					<trkpt lat="43.088470" lon="11.659800">
						<ele>431</ele>
						<time>2026-05-04T22:25:35Z</time>
					</trkpt>
					<trkpt lat="43.088510" lon="11.659700">
						<ele>431</ele>
						<time>2026-05-04T22:25:36Z</time>
					</trkpt>
					<trkpt lat="43.088540" lon="11.659570">
						<ele>430</ele>
						<time>2026-05-04T22:25:38Z</time>
					</trkpt>
					<trkpt lat="43.088550" lon="11.659360">
						<ele>429</ele>
						<time>2026-05-04T22:25:41Z</time>
					</trkpt>
					<trkpt lat="43.088420" lon="11.658950">
						<ele>427</ele>
						<time>2026-05-04T22:25:47Z</time>
					</trkpt>
					<trkpt lat="43.088410" lon="11.658840">
						<ele>426</ele>
						<time>2026-05-04T22:25:48Z</time>
					</trkpt>
					<trkpt lat="43.088410" lon="11.658720">
						<ele>426</ele>
						<time>2026-05-04T22:25:50Z</time>
					</trkpt>
					<trkpt lat="43.088440" lon="11.658580">
						<ele>425</ele>
						<time>2026-05-04T22:25:52Z</time>
					</trkpt>
					<trkpt lat="43.088510" lon="11.658430">
						<ele>424</ele>
						<time>2026-05-04T22:25:54Z</time>
					</trkpt>
					<trkpt lat="43.088790" lon="11.658080">
						<ele>422</ele>
						<time>2026-05-04T22:26:01Z</time>
					</trkpt>
					<trkpt lat="43.089380" lon="11.657360">
						<ele>418</ele>
						<time>2026-05-04T22:26:15Z</time>
					</trkpt>
					<trkpt lat="43.089500" lon="11.657240">
						<ele>418</ele>
						<time>2026-05-04T22:26:17Z</time>
					</trkpt>
					<trkpt lat="43.089630" lon="11.657160">
						<ele>418</ele>
						<time>2026-05-04T22:26:20Z</time>
					</trkpt>
					<trkpt lat="43.089960" lon="11.657030">
						<ele>419</ele>
						<time>2026-05-04T22:26:26Z</time>
					</trkpt>
					<trkpt lat="43.090080" lon="11.656950">
						<ele>418</ele>
						<time>2026-05-04T22:26:28Z</time>
					</trkpt>
					<trkpt lat="43.090210" lon="11.656770">
						<ele>418</ele>
						<time>2026-05-04T22:26:32Z</time>
					</trkpt>
					<trkpt lat="43.090260" lon="11.656630">
						<ele>417</ele>
						<time>2026-05-04T22:26:34Z</time>
					</trkpt>
					<trkpt lat="43.090300" lon="11.656470">
						<ele>417</ele>
						<time>2026-05-04T22:26:36Z</time>
					</trkpt>
					<trkpt lat="43.090310" lon="11.656330">
						<ele>416</ele>
						<time>2026-05-04T22:26:38Z</time>
					</trkpt>
					<trkpt lat="43.090300" lon="11.656200">
						<ele>416</ele>
						<time>2026-05-04T22:26:40Z</time>
					</trkpt>
					<trkpt lat="43.090270" lon="11.655950">
						<ele>415</ele>
						<time>2026-05-04T22:26:43Z</time>
					</trkpt>
					<trkpt lat="43.090260" lon="11.655650">
						<ele>413</ele>
						<time>2026-05-04T22:26:47Z</time>
					</trkpt>
					<trkpt lat="43.090290" lon="11.655430">
						<ele>412</ele>
						<time>2026-05-04T22:26:50Z</time>
					</trkpt>
					<trkpt lat="43.090330" lon="11.655270">
						<ele>411</ele>
						<time>2026-05-04T22:26:52Z</time>
					</trkpt>
					<trkpt lat="43.090380" lon="11.655130">
						<ele>410</ele>
						<time>2026-05-04T22:26:54Z</time>
					</trkpt>
					<trkpt lat="43.090460" lon="11.654980">
						<ele>410</ele>
						<time>2026-05-04T22:26:56Z</time>
					</trkpt>
					<trkpt lat="43.090590" lon="11.654840">
						<ele>409</ele>
						<time>2026-05-04T22:26:59Z</time>
					</trkpt>
					<trkpt lat="43.091050" lon="11.654470">
						<ele>408</ele>
						<time>2026-05-04T22:27:09Z</time>
					</trkpt>
					<trkpt lat="43.091470" lon="11.654180">
						<ele>406</ele>
						<time>2026-05-04T22:27:17Z</time>
					</trkpt>
					<trkpt lat="43.091590" lon="11.654100">
						<ele>406</ele>
						<time>2026-05-04T22:27:19Z</time>
					</trkpt>
					<trkpt lat="43.091790" lon="11.654030">
						<ele>405</ele>
						<time>2026-05-04T22:27:23Z</time>
					</trkpt>
					<trkpt lat="43.091920" lon="11.654030">
						<ele>405</ele>
						<time>2026-05-04T22:27:25Z</time>
					</trkpt>
					<trkpt lat="43.092060" lon="11.654060">
						<ele>405</ele>
						<time>2026-05-04T22:27:28Z</time>
					</trkpt>
					<trkpt lat="43.092600" lon="11.654330">
						<ele>404</ele>
						<time>2026-05-04T22:27:38Z</time>
					</trkpt>
					<trkpt lat="43.092700" lon="11.654330">
						<ele>403</ele>
						<time>2026-05-04T22:27:40Z</time>
					</trkpt>
					<trkpt lat="43.092740" lon="11.654320">
						<ele>402</ele>
						<time>2026-05-04T22:27:41Z</time>
					</trkpt>
					<trkpt lat="43.092790" lon="11.654290">
						<ele>402</ele>
						<time>2026-05-04T22:27:42Z</time>
					</trkpt>
					<trkpt lat="43.092840" lon="11.654230">
						<ele>401</ele>
						<time>2026-05-04T22:27:43Z</time>
					</trkpt>
					<trkpt lat="43.092880" lon="11.654150">
						<ele>400</ele>
						<time>2026-05-04T22:27:44Z</time>
					</trkpt>
					<trkpt lat="43.092900" lon="11.654050">
						<ele>399</ele>
						<time>2026-05-04T22:27:45Z</time>
					</trkpt>
					<trkpt lat="43.092890" lon="11.653950">
						<ele>399</ele>
						<time>2026-05-04T22:27:47Z</time>
					</trkpt>
					<trkpt lat="43.092870" lon="11.653860">
						<ele>398</ele>
						<time>2026-05-04T22:27:48Z</time>
					</trkpt>
					<trkpt lat="43.092810" lon="11.653770">
						<ele>398</ele>
						<time>2026-05-04T22:27:50Z</time>
					</trkpt>
					<trkpt lat="43.092760" lon="11.653730">
						<ele>399</ele>
						<time>2026-05-04T22:27:51Z</time>
					</trkpt>
					<trkpt lat="43.092710" lon="11.653710">
						<ele>399</ele>
						<time>2026-05-04T22:27:52Z</time>
					</trkpt>
					<trkpt lat="43.092420" lon="11.653680">
						<ele>401</ele>
						<time>2026-05-04T22:27:57Z</time>
					</trkpt>
					<trkpt lat="43.092250" lon="11.653640">
						<ele>401</ele>
						<time>2026-05-04T22:28:00Z</time>
					</trkpt>
					<trkpt lat="43.091620" lon="11.653400">
						<ele>398</ele>
						<time>2026-05-04T22:28:11Z</time>
					</trkpt>
					<trkpt lat="43.091470" lon="11.653380">
						<ele>397</ele>
						<time>2026-05-04T22:28:14Z</time>
					</trkpt>
					<trkpt lat="43.091310" lon="11.653390">
						<ele>396</ele>
						<time>2026-05-04T22:28:17Z</time>
					</trkpt>
					<trkpt lat="43.090600" lon="11.653480">
						<ele>392</ele>
						<time>2026-05-04T22:28:30Z</time>
					</trkpt>
					<trkpt lat="43.090390" lon="11.653510">
						<ele>391</ele>
						<time>2026-05-04T22:28:33Z</time>
					</trkpt>
					<trkpt lat="43.090270" lon="11.653540">
						<ele>390</ele>
						<time>2026-05-04T22:28:36Z</time>
					</trkpt>
					<trkpt lat="43.090180" lon="11.653580">
						<ele>390</ele>
						<time>2026-05-04T22:28:37Z</time>
					</trkpt>
					<trkpt lat="43.090090" lon="11.653660">
						<ele>390</ele>
						<time>2026-05-04T22:28:39Z</time>
					</trkpt>
					<trkpt lat="43.089990" lon="11.653760">
						<ele>391</ele>
						<time>2026-05-04T22:28:41Z</time>
					</trkpt>
					<trkpt lat="43.089880" lon="11.653840">
						<ele>392</ele>
						<time>2026-05-04T22:28:44Z</time>
					</trkpt>
					<trkpt lat="43.089760" lon="11.653890">
						<ele>392</ele>
						<time>2026-05-04T22:28:46Z</time>
					</trkpt>
					<trkpt lat="43.089490" lon="11.653910">
						<ele>391</ele>
						<time>2026-05-04T22:28:51Z</time>
					</trkpt>
					<trkpt lat="43.089200" lon="11.653910">
						<ele>389</ele>
						<time>2026-05-04T22:28:56Z</time>
					</trkpt>
					<trkpt lat="43.089040" lon="11.653850">
						<ele>388</ele>
						<time>2026-05-04T22:28:59Z</time>
					</trkpt>
					<trkpt lat="43.088970" lon="11.653780">
						<ele>387</ele>
						<time>2026-05-04T22:29:00Z</time>
					</trkpt>
					<trkpt lat="43.088910" lon="11.653690">
						<ele>386</ele>
						<time>2026-05-04T22:29:02Z</time>
					</trkpt>
					<trkpt lat="43.088850" lon="11.653540">
						<ele>385</ele>
						<time>2026-05-04T22:29:04Z</time>
					</trkpt>
					<trkpt lat="43.088800" lon="11.653310">
						<ele>383</ele>
						<time>2026-05-04T22:29:07Z</time>
					</trkpt>
					<trkpt lat="43.088730" lon="11.652490">
						<ele>377</ele>
						<time>2026-05-04T22:29:18Z</time>
					</trkpt>
					<trkpt lat="43.088710" lon="11.652400">
						<ele>377</ele>
						<time>2026-05-04T22:29:19Z</time>
					</trkpt>
					<trkpt lat="43.088680" lon="11.652320">
						<ele>376</ele>
						<time>2026-05-04T22:29:20Z</time>
					</trkpt>
					<trkpt lat="43.088620" lon="11.652210">
						<ele>376</ele>
						<time>2026-05-04T22:29:22Z</time>
					</trkpt>
					<trkpt lat="43.088540" lon="11.652130">
						<ele>376</ele>
						<time>2026-05-04T22:29:24Z</time>
					</trkpt>
					<trkpt lat="43.088470" lon="11.652090">
						<ele>376</ele>
						<time>2026-05-04T22:29:25Z</time>
					</trkpt>
					<trkpt lat="43.088360" lon="11.652060">
						<ele>376</ele>
						<time>2026-05-04T22:29:27Z</time>
					</trkpt>
					<trkpt lat="43.088180" lon="11.652060">
						<ele>375</ele>
						<time>2026-05-04T22:29:30Z</time>
					</trkpt>
					<trkpt lat="43.087920" lon="11.652090">
						<ele>375</ele>
						<time>2026-05-04T22:29:35Z</time>
					</trkpt>
					<trkpt lat="43.087810" lon="11.652130">
						<ele>374</ele>
						<time>2026-05-04T22:29:37Z</time>
					</trkpt>
					<trkpt lat="43.087710" lon="11.652180">
						<ele>374</ele>
						<time>2026-05-04T22:29:39Z</time>
					</trkpt>
					<trkpt lat="43.087470" lon="11.652330">
						<ele>373</ele>
						<time>2026-05-04T22:29:44Z</time>
					</trkpt>
					<trkpt lat="43.087360" lon="11.652370">
						<ele>373</ele>
						<time>2026-05-04T22:29:46Z</time>
					</trkpt>
					<trkpt lat="43.087220" lon="11.652390">
						<ele>372</ele>
						<time>2026-05-04T22:29:48Z</time>
					</trkpt>
					<trkpt lat="43.087070" lon="11.652370">
						<ele>370</ele>
						<time>2026-05-04T22:29:51Z</time>
					</trkpt>
					<trkpt lat="43.086870" lon="11.652280">
						<ele>369</ele>
						<time>2026-05-04T22:29:55Z</time>
					</trkpt>
					<trkpt lat="43.085960" lon="11.651600">
						<ele>369</ele>
						<time>2026-05-04T22:30:13Z</time>
					</trkpt>
					<trkpt lat="43.085750" lon="11.651420">
						<ele>368</ele>
						<time>2026-05-04T22:30:17Z</time>
					</trkpt>
					<trkpt lat="43.085060" lon="11.650780">
						<ele>369</ele>
						<time>2026-05-04T22:30:32Z</time>
					</trkpt>
					<trkpt lat="43.084650" lon="11.650390">
						<ele>365</ele>
						<time>2026-05-04T22:30:41Z</time>
					</trkpt>
					<trkpt lat="43.084420" lon="11.650140">
						<ele>365</ele>
						<time>2026-05-04T22:30:46Z</time>
					</trkpt>
					<trkpt lat="43.084340" lon="11.650030">
						<ele>365</ele>
						<time>2026-05-04T22:30:48Z</time>
					</trkpt>
					<trkpt lat="43.084080" lon="11.649620">
						<ele>364</ele>
						<time>2026-05-04T22:30:55Z</time>
					</trkpt>
					<trkpt lat="43.083270" lon="11.648250">
						<ele>368</ele>
						<time>2026-05-04T22:31:18Z</time>
					</trkpt>
					<trkpt lat="43.082460" lon="11.646880">
						<ele>372</ele>
						<time>2026-05-04T22:31:41Z</time>
					</trkpt>
					<trkpt lat="43.081990" lon="11.646050">
						<ele>369</ele>
						<time>2026-05-04T22:31:55Z</time>
					</trkpt>
					<trkpt lat="43.081860" lon="11.645770">
						<ele>369</ele>
						<time>2026-05-04T22:31:59Z</time>
					</trkpt>
					<trkpt lat="43.081780" lon="11.645550">
						<ele>370</ele>
						<time>2026-05-04T22:32:02Z</time>
					</trkpt>
					<trkpt lat="43.081700" lon="11.645240">
						<ele>371</ele>
						<time>2026-05-04T22:32:07Z</time>
					</trkpt>
					<trkpt lat="43.081640" lon="11.644940">
						<ele>372</ele>
						<time>2026-05-04T22:32:11Z</time>
					</trkpt>
					<trkpt lat="43.081620" lon="11.644760">
						<ele>372</ele>
						<time>2026-05-04T22:32:13Z</time>
					</trkpt>
					<trkpt lat="43.081610" lon="11.644590">
						<ele>372</ele>
						<time>2026-05-04T22:32:15Z</time>
					</trkpt>
					<trkpt lat="43.081670" lon="11.642690">
						<ele>371</ele>
						<time>2026-05-04T22:32:40Z</time>
					</trkpt>
					<trkpt lat="43.081700" lon="11.641920">
						<ele>369</ele>
						<time>2026-05-04T22:32:50Z</time>
					</trkpt>
					<trkpt lat="43.081750" lon="11.641610">
						<ele>368</ele>
						<time>2026-05-04T22:32:54Z</time>
					</trkpt>
					<trkpt lat="43.081840" lon="11.641320">
						<ele>368</ele>
						<time>2026-05-04T22:32:58Z</time>
					</trkpt>
					<trkpt lat="43.081930" lon="11.641120">
						<ele>368</ele>
						<time>2026-05-04T22:33:01Z</time>
					</trkpt>
					<trkpt lat="43.082100" lon="11.640880">
						<ele>367</ele>
						<time>2026-05-04T22:33:06Z</time>
					</trkpt>
					<trkpt lat="43.082460" lon="11.640360">
						<ele>364</ele>
						<time>2026-05-04T22:33:15Z</time>
					</trkpt>
					<trkpt lat="43.082580" lon="11.640140">
						<ele>362</ele>
						<time>2026-05-04T22:33:19Z</time>
					</trkpt>
					<trkpt lat="43.082700" lon="11.639860">
						<ele>360</ele>
						<time>2026-05-04T22:33:23Z</time>
					</trkpt>
					<trkpt lat="43.082810" lon="11.639580">
						<ele>358</ele>
						<time>2026-05-04T22:33:27Z</time>
					</trkpt>
					<trkpt lat="43.083260" lon="11.638210">
						<ele>352</ele>
						<time>2026-05-04T22:33:46Z</time>
					</trkpt>
					<trkpt lat="43.083310" lon="11.637990">
						<ele>352</ele>
						<time>2026-05-04T22:33:49Z</time>
					</trkpt>
					<trkpt lat="43.083360" lon="11.637730">
						<ele>352</ele>
						<time>2026-05-04T22:33:53Z</time>
					</trkpt>
					<trkpt lat="43.083390" lon="11.637510">
						<ele>352</ele>
						<time>2026-05-04T22:33:56Z</time>
					</trkpt>
					<trkpt lat="43.083400" lon="11.637280">
						<ele>351</ele>
						<time>2026-05-04T22:33:59Z</time>
					</trkpt>
					<trkpt lat="43.083430" lon="11.636150">
						<ele>347</ele>
						<time>2026-05-04T22:34:14Z</time>
					</trkpt>
					<trkpt lat="43.083440" lon="11.635940">
						<ele>346</ele>
						<time>2026-05-04T22:34:16Z</time>
					</trkpt>
					<trkpt lat="43.083440" lon="11.635890">
						<ele>346</ele>
						<time>2026-05-04T22:34:17Z</time>
					</trkpt>
					<trkpt lat="43.083450" lon="11.635190">
						<ele>347</ele>
						<time>2026-05-04T22:34:26Z</time>
					</trkpt>
					<trkpt lat="43.083470" lon="11.634810">
						<ele>347</ele>
						<time>2026-05-04T22:34:31Z</time>
					</trkpt>
					<trkpt lat="43.083500" lon="11.634450">
						<ele>348</ele>
						<time>2026-05-04T22:34:36Z</time>
					</trkpt>
					<trkpt lat="43.083680" lon="11.633200">
						<ele>349</ele>
						<time>2026-05-04T22:34:52Z</time>
					</trkpt>
					<trkpt lat="43.083730" lon="11.632580">
						<ele>350</ele>
						<time>2026-05-04T22:35:00Z</time>
					</trkpt>
					<trkpt lat="43.083790" lon="11.630970">
						<ele>341</ele>
						<time>2026-05-04T22:35:21Z</time>
					</trkpt>
					<trkpt lat="43.083800" lon="11.630590">
						<ele>340</ele>
						<time>2026-05-04T22:35:26Z</time>
					</trkpt>
					<trkpt lat="43.083800" lon="11.630410">
						<ele>340</ele>
						<time>2026-05-04T22:35:29Z</time>
					</trkpt>
					<trkpt lat="43.083790" lon="11.630250">
						<ele>340</ele>
						<time>2026-05-04T22:35:31Z</time>
					</trkpt>
					<trkpt lat="43.083730" lon="11.630000">
						<ele>339</ele>
						<time>2026-05-04T22:35:34Z</time>
					</trkpt>
					<trkpt lat="43.083660" lon="11.629810">
						<ele>340</ele>
						<time>2026-05-04T22:35:37Z</time>
					</trkpt>
					<trkpt lat="43.083570" lon="11.629680">
						<ele>340</ele>
						<time>2026-05-04T22:35:39Z</time>
					</trkpt>
					<trkpt lat="43.083490" lon="11.629560">
						<ele>340</ele>
						<time>2026-05-04T22:35:41Z</time>
					</trkpt>
					<trkpt lat="43.083350" lon="11.629430">
						<ele>340</ele>
						<time>2026-05-04T22:35:44Z</time>
					</trkpt>
					<trkpt lat="43.083180" lon="11.629330">
						<ele>340</ele>
						<time>2026-05-04T22:35:48Z</time>
					</trkpt>
					<trkpt lat="43.083000" lon="11.629270">
						<ele>338</ele>
						<time>2026-05-04T22:35:51Z</time>
					</trkpt>
					<trkpt lat="43.082620" lon="11.629230">
						<ele>336</ele>
						<time>2026-05-04T22:35:58Z</time>
					</trkpt>
					<trkpt lat="43.081610" lon="11.629130">
						<ele>337</ele>
						<time>2026-05-04T22:36:16Z</time>
					</trkpt>
					<trkpt lat="43.081350" lon="11.629090">
						<ele>339</ele>
						<time>2026-05-04T22:36:20Z</time>
					</trkpt>
					<trkpt lat="43.081160" lon="11.629030">
						<ele>340</ele>
						<time>2026-05-04T22:36:24Z</time>
					</trkpt>
					<trkpt lat="43.081030" lon="11.628970">
						<ele>341</ele>
						<time>2026-05-04T22:36:26Z</time>
					</trkpt>
					<trkpt lat="43.080640" lon="11.628710">
						<ele>344</ele>
						<time>2026-05-04T22:36:34Z</time>
					</trkpt>
					<trkpt lat="43.080510" lon="11.628640">
						<ele>344</ele>
						<time>2026-05-04T22:36:36Z</time>
					</trkpt>
					<trkpt lat="43.080360" lon="11.628590">
						<ele>345</ele>
						<time>2026-05-04T22:36:39Z</time>
					</trkpt>
					<trkpt lat="43.080220" lon="11.628560">
						<ele>345</ele>
						<time>2026-05-04T22:36:42Z</time>
					</trkpt>
					<trkpt lat="43.080020" lon="11.628570">
						<ele>346</ele>
						<time>2026-05-04T22:36:45Z</time>
					</trkpt>
					<trkpt lat="43.079740" lon="11.628630">
						<ele>345</ele>
						<time>2026-05-04T22:36:50Z</time>
					</trkpt>
					<trkpt lat="43.079220" lon="11.628720">
						<ele>342</ele>
						<time>2026-05-04T22:37:00Z</time>
					</trkpt>
					<trkpt lat="43.079200" lon="11.628730">
						<ele>342</ele>
						<time>2026-05-04T22:37:00Z</time>
					</trkpt>
					<trkpt lat="43.078860" lon="11.628770">
						<ele>342</ele>
						<time>2026-05-04T22:37:06Z</time>
					</trkpt>
					<trkpt lat="43.078700" lon="11.628780">
						<ele>342</ele>
						<time>2026-05-04T22:37:09Z</time>
					</trkpt>
					<trkpt lat="43.078540" lon="11.628760">
						<ele>343</ele>
						<time>2026-05-04T22:37:12Z</time>
					</trkpt>
					<trkpt lat="43.078360" lon="11.628710">
						<ele>343</ele>
						<time>2026-05-04T22:37:15Z</time>
					</trkpt>
					<trkpt lat="43.077950" lon="11.628540">
						<ele>344</ele>
						<time>2026-05-04T22:37:23Z</time>
					</trkpt>
					<trkpt lat="43.077160" lon="11.628180">
						<ele>345</ele>
						<time>2026-05-04T22:37:37Z</time>
					</trkpt>
					<trkpt lat="43.074860" lon="11.627170">
						<ele>353</ele>
						<time>2026-05-04T22:38:20Z</time>
					</trkpt>
					<trkpt lat="43.074750" lon="11.627100">
						<ele>353</ele>
						<time>2026-05-04T22:38:23Z</time>
					</trkpt>
					<trkpt lat="43.074610" lon="11.626960">
						<ele>352</ele>
						<time>2026-05-04T22:38:26Z</time>
					</trkpt>
					<trkpt lat="43.074490" lon="11.626800">
						<ele>353</ele>
						<time>2026-05-04T22:38:29Z</time>
					</trkpt>
					<trkpt lat="43.073860" lon="11.625760">
						<ele>357</ele>
						<time>2026-05-04T22:38:46Z</time>
					</trkpt>
					<trkpt lat="43.073510" lon="11.625140">
						<ele>360</ele>
						<time>2026-05-04T22:38:56Z</time>
					</trkpt>
					<trkpt lat="43.073400" lon="11.624930">
						<ele>361</ele>
						<time>2026-05-04T22:39:00Z</time>
					</trkpt>
					<trkpt lat="43.073270" lon="11.624610">
						<ele>362</ele>
						<time>2026-05-04T22:39:05Z</time>
					</trkpt>
					<trkpt lat="43.073170" lon="11.624240">
						<ele>362</ele>
						<time>2026-05-04T22:39:10Z</time>
					</trkpt>
					<trkpt lat="43.073140" lon="11.624050">
						<ele>362</ele>
						<time>2026-05-04T22:39:12Z</time>
					</trkpt>
					<trkpt lat="43.073110" lon="11.623820">
						<ele>362</ele>
						<time>2026-05-04T22:39:15Z</time>
					</trkpt>
					<trkpt lat="43.073110" lon="11.623390">
						<ele>362</ele>
						<time>2026-05-04T22:39:21Z</time>
					</trkpt>
					<trkpt lat="43.073160" lon="11.623030">
						<ele>362</ele>
						<time>2026-05-04T22:39:26Z</time>
					</trkpt>
					<trkpt lat="43.073260" lon="11.622540">
						<ele>361</ele>
						<time>2026-05-04T22:39:32Z</time>
					</trkpt>
					<trkpt lat="43.073390" lon="11.622010">
						<ele>363</ele>
						<time>2026-05-04T22:39:39Z</time>
					</trkpt>
					<trkpt lat="43.073440" lon="11.621660">
						<ele>364</ele>
						<time>2026-05-04T22:39:44Z</time>
					</trkpt>
					<trkpt lat="43.073450" lon="11.621320">
						<ele>365</ele>
						<time>2026-05-04T22:39:49Z</time>
					</trkpt>
					<trkpt lat="43.073410" lon="11.620950">
						<ele>367</ele>
						<time>2026-05-04T22:39:53Z</time>
					</trkpt>
					<trkpt lat="43.073350" lon="11.620630">
						<ele>367</ele>
						<time>2026-05-04T22:39:58Z</time>
					</trkpt>
					<trkpt lat="43.073260" lon="11.620380">
						<ele>367</ele>
						<time>2026-05-04T22:40:01Z</time>
					</trkpt>
					<trkpt lat="43.073120" lon="11.620080">
						<ele>368</ele>
						<time>2026-05-04T22:40:06Z</time>
					</trkpt>
					<trkpt lat="43.072960" lon="11.619830">
						<ele>368</ele>
						<time>2026-05-04T22:40:10Z</time>
					</trkpt>
					<trkpt lat="43.072700" lon="11.619590">
						<ele>367</ele>
						<time>2026-05-04T22:40:16Z</time>
					</trkpt>
					<trkpt lat="43.072430" lon="11.619400">
						<ele>367</ele>
						<time>2026-05-04T22:40:21Z</time>
					</trkpt>
					<trkpt lat="43.071920" lon="11.619090">
						<ele>366</ele>
						<time>2026-05-04T22:40:31Z</time>
					</trkpt>
					<trkpt lat="43.071680" lon="11.618930">
						<ele>365</ele>
						<time>2026-05-04T22:40:36Z</time>
					</trkpt>
					<trkpt lat="43.070780" lon="11.618330">
						<ele>371</ele>
						<time>2026-05-04T22:40:54Z</time>
					</trkpt>
					<trkpt lat="43.070630" lon="11.618210">
						<ele>373</ele>
						<time>2026-05-04T22:40:57Z</time>
					</trkpt>
					<trkpt lat="43.070430" lon="11.618030">
						<ele>375</ele>
						<time>2026-05-04T22:41:01Z</time>
					</trkpt>
					<trkpt lat="43.070290" lon="11.617830">
						<ele>376</ele>
						<time>2026-05-04T22:41:05Z</time>
					</trkpt>
					<trkpt lat="43.070190" lon="11.617630">
						<ele>377</ele>
						<time>2026-05-04T22:41:08Z</time>
					</trkpt>
					<trkpt lat="43.070030" lon="11.617200">
						<ele>379</ele>
						<time>2026-05-04T22:41:14Z</time>
					</trkpt>
					<trkpt lat="43.069840" lon="11.616530">
						<ele>379</ele>
						<time>2026-05-04T22:41:23Z</time>
					</trkpt>
					<trkpt lat="43.069740" lon="11.616240">
						<ele>380</ele>
						<time>2026-05-04T22:41:28Z</time>
					</trkpt>
					<trkpt lat="43.069640" lon="11.616020">
						<ele>380</ele>
						<time>2026-05-04T22:41:31Z</time>
					</trkpt>
					<trkpt lat="43.069480" lon="11.615760">
						<ele>382</ele>
						<time>2026-05-04T22:41:35Z</time>
					</trkpt>
					<trkpt lat="43.069330" lon="11.615590">
						<ele>384</ele>
						<time>2026-05-04T22:41:39Z</time>
					</trkpt>
					<trkpt lat="43.069180" lon="11.615450">
						<ele>386</ele>
						<time>2026-05-04T22:41:42Z</time>
					</trkpt>
					<trkpt lat="43.069020" lon="11.615350">
						<ele>388</ele>
						<time>2026-05-04T22:41:45Z</time>
					</trkpt>
					<trkpt lat="43.068580" lon="11.615160">
						<ele>391</ele>
						<time>2026-05-04T22:41:53Z</time>
					</trkpt>
					<trkpt lat="43.067950" lon="11.614940">
						<ele>395</ele>
						<time>2026-05-04T22:42:05Z</time>
					</trkpt>
					<trkpt lat="43.067050" lon="11.614600">
						<ele>396</ele>
						<time>2026-05-04T22:42:22Z</time>
					</trkpt>
					<trkpt lat="43.066790" lon="11.614490">
						<ele>396</ele>
						<time>2026-05-04T22:42:26Z</time>
					</trkpt>
					<trkpt lat="43.066610" lon="11.614400">
						<ele>396</ele>
						<time>2026-05-04T22:42:30Z</time>
					</trkpt>
					<trkpt lat="43.066510" lon="11.614340">
						<ele>396</ele>
						<time>2026-05-04T22:42:32Z</time>
					</trkpt>
					<trkpt lat="43.066280" lon="11.614140">
						<ele>397</ele>
						<time>2026-05-04T22:42:37Z</time>
					</trkpt>
					<trkpt lat="43.066080" lon="11.613860">
						<ele>398</ele>
						<time>2026-05-04T22:42:42Z</time>
					</trkpt>
					<trkpt lat="43.065950" lon="11.613570">
						<ele>399</ele>
						<time>2026-05-04T22:42:46Z</time>
					</trkpt>
					<trkpt lat="43.065540" lon="11.612490">
						<ele>399</ele>
						<time>2026-05-04T22:43:02Z</time>
					</trkpt>
					<trkpt lat="43.065520" lon="11.612460">
						<ele>399</ele>
						<time>2026-05-04T22:43:03Z</time>
					</trkpt>
					<trkpt lat="43.065340" lon="11.611980">
						<ele>400</ele>
						<time>2026-05-04T22:43:10Z</time>
					</trkpt>
					<trkpt lat="43.065210" lon="11.611640">
						<ele>402</ele>
						<time>2026-05-04T22:43:15Z</time>
					</trkpt>
					<trkpt lat="43.065080" lon="11.611350">
						<ele>403</ele>
						<time>2026-05-04T22:43:19Z</time>
					</trkpt>
					<trkpt lat="43.064970" lon="11.611180">
						<ele>404</ele>
						<time>2026-05-04T22:43:22Z</time>
					</trkpt>
					<trkpt lat="43.064800" lon="11.610940">
						<ele>403</ele>
						<time>2026-05-04T22:43:26Z</time>
					</trkpt>
					<trkpt lat="43.064640" lon="11.610770">
						<ele>403</ele>
						<time>2026-05-04T22:43:30Z</time>
					</trkpt>
					<trkpt lat="43.064530" lon="11.610680">
						<ele>403</ele>
						<time>2026-05-04T22:43:32Z</time>
					</trkpt>
					<trkpt lat="43.064360" lon="11.610540">
						<ele>404</ele>
						<time>2026-05-04T22:43:36Z</time>
					</trkpt>
					<trkpt lat="43.063480" lon="11.609950">
						<ele>415</ele>
						<time>2026-05-04T22:43:53Z</time>
					</trkpt>
					<trkpt lat="43.063190" lon="11.609750">
						<ele>416</ele>
						<time>2026-05-04T22:43:59Z</time>
					</trkpt>
					<trkpt lat="43.062960" lon="11.609570">
						<ele>415</ele>
						<time>2026-05-04T22:44:04Z</time>
					</trkpt>
					<trkpt lat="43.062890" lon="11.609490">
						<ele>415</ele>
						<time>2026-05-04T22:44:05Z</time>
					</trkpt>
					<trkpt lat="43.062660" lon="11.609200">
						<ele>415</ele>
						<time>2026-05-04T22:44:11Z</time>
					</trkpt>
					<trkpt lat="43.062490" lon="11.608970">
						<ele>413</ele>
						<time>2026-05-04T22:44:15Z</time>
					</trkpt>
					<trkpt lat="43.062300" lon="11.608720">
						<ele>411</ele>
						<time>2026-05-04T22:44:20Z</time>
					</trkpt>
					<trkpt lat="43.061940" lon="11.608250">
						<ele>407</ele>
						<time>2026-05-04T22:44:29Z</time>
					</trkpt>
					<trkpt lat="43.061630" lon="11.607810">
						<ele>404</ele>
						<time>2026-05-04T22:44:36Z</time>
					</trkpt>
					<trkpt lat="43.061480" lon="11.607550">
						<ele>403</ele>
						<time>2026-05-04T22:44:41Z</time>
					</trkpt>
					<trkpt lat="43.061330" lon="11.607300">
						<ele>402</ele>
						<time>2026-05-04T22:44:45Z</time>
					</trkpt>
					<trkpt lat="43.061140" lon="11.606940">
						<ele>401</ele>
						<time>2026-05-04T22:44:51Z</time>
					</trkpt>
					<trkpt lat="43.061030" lon="11.606720">
						<ele>401</ele>
						<time>2026-05-04T22:44:54Z</time>
					</trkpt>
					<trkpt lat="43.060950" lon="11.606510">
						<ele>402</ele>
						<time>2026-05-04T22:44:57Z</time>
					</trkpt>
					<trkpt lat="43.060870" lon="11.606320">
						<ele>402</ele>
						<time>2026-05-04T22:45:00Z</time>
					</trkpt>
					<trkpt lat="43.060770" lon="11.606100">
						<ele>402</ele>
						<time>2026-05-04T22:45:04Z</time>
					</trkpt>
					<trkpt lat="43.060750" lon="11.606030">
						<ele>403</ele>
						<time>2026-05-04T22:45:05Z</time>
					</trkpt>
					<trkpt lat="43.060740" lon="11.605960">
						<ele>403</ele>
						<time>2026-05-04T22:45:05Z</time>
					</trkpt>
					<trkpt lat="43.060370" lon="11.605910">
						<ele>403</ele>
						<time>2026-05-04T22:45:12Z</time>
					</trkpt>
					<trkpt lat="43.059960" lon="11.605830">
						<ele>404</ele>
						<time>2026-05-04T22:45:19Z</time>
					</trkpt>
					<trkpt lat="43.059890" lon="11.605820">
						<ele>405</ele>
						<time>2026-05-04T22:45:21Z</time>
					</trkpt>
					<trkpt lat="43.059790" lon="11.605840">
						<ele>405</ele>
						<time>2026-05-04T22:45:22Z</time>
					</trkpt>
					<trkpt lat="43.059670" lon="11.605880">
						<ele>405</ele>
						<time>2026-05-04T22:45:25Z</time>
					</trkpt>
					<trkpt lat="43.059590" lon="11.605920">
						<ele>405</ele>
						<time>2026-05-04T22:45:26Z</time>
					</trkpt>
					<trkpt lat="43.059430" lon="11.606020">
						<ele>405</ele>
						<time>2026-05-04T22:45:29Z</time>
					</trkpt>
					<trkpt lat="43.059300" lon="11.606120">
						<ele>404</ele>
						<time>2026-05-04T22:45:32Z</time>
					</trkpt>
					<trkpt lat="43.058940" lon="11.606410">
						<ele>405</ele>
						<time>2026-05-04T22:45:39Z</time>
					</trkpt>
					<trkpt lat="43.058530" lon="11.606760">
						<ele>407</ele>
						<time>2026-05-04T22:45:48Z</time>
					</trkpt>
					<trkpt lat="43.058300" lon="11.606950">
						<ele>408</ele>
						<time>2026-05-04T22:45:53Z</time>
					</trkpt>
					<trkpt lat="43.058210" lon="11.607020">
						<ele>408</ele>
						<time>2026-05-04T22:45:55Z</time>
					</trkpt>
					<trkpt lat="43.058150" lon="11.607030">
						<ele>407</ele>
						<time>2026-05-04T22:45:56Z</time>
					</trkpt>
					<trkpt lat="43.058090" lon="11.607010">
						<ele>407</ele>
						<time>2026-05-04T22:45:57Z</time>
					</trkpt>
					<trkpt lat="43.058010" lon="11.606960">
						<ele>407</ele>
						<time>2026-05-04T22:45:58Z</time>
					</trkpt>
					<trkpt lat="43.057880" lon="11.606790">
						<ele>408</ele>
						<time>2026-05-04T22:46:02Z</time>
					</trkpt>
					<trkpt lat="43.057810" lon="11.606690">
						<ele>408</ele>
						<time>2026-05-04T22:46:03Z</time>
					</trkpt>
					<trkpt lat="43.057840" lon="11.606640">
						<ele>409</ele>
						<time>2026-05-04T22:46:04Z</time>
					</trkpt>
					<trkpt lat="43.057920" lon="11.606530">
						<ele>409</ele>
						<time>2026-05-04T22:46:06Z</time>
					</trkpt>
					<trkpt lat="43.058090" lon="11.606100">
						<ele>413</ele>
						<time>2026-05-04T22:46:13Z</time>
					</trkpt>
					<trkpt lat="43.058210" lon="11.605910">
						<ele>414</ele>
						<time>2026-05-04T22:46:16Z</time>
					</trkpt>
					<trkpt lat="43.058400" lon="11.605660">
						<ele>415</ele>
						<time>2026-05-04T22:46:21Z</time>
					</trkpt>
					<trkpt lat="43.058670" lon="11.605420">
						<ele>414</ele>
						<time>2026-05-04T22:46:26Z</time>
					</trkpt>
					<trkpt lat="43.058910" lon="11.605200">
						<ele>414</ele>
						<time>2026-05-04T22:46:31Z</time>
					</trkpt>
					<trkpt lat="43.059240" lon="11.604860">
						<ele>414</ele>
						<time>2026-05-04T22:46:39Z</time>
					</trkpt>
					<trkpt lat="43.059430" lon="11.604570">
						<ele>415</ele>
						<time>2026-05-04T22:46:44Z</time>
					</trkpt>
					<trkpt lat="43.059480" lon="11.604480">
						<ele>415</ele>
						<time>2026-05-04T22:46:45Z</time>
					</trkpt>
					<trkpt lat="43.059530" lon="11.604420">
						<ele>415</ele>
						<time>2026-05-04T22:46:46Z</time>
					</trkpt>
					<trkpt lat="43.059950" lon="11.603850">
						<ele>416</ele>
						<time>2026-05-04T22:46:57Z</time>
					</trkpt>
					<trkpt lat="43.060110" lon="11.603670">
						<ele>415</ele>
						<time>2026-05-04T22:47:01Z</time>
					</trkpt>
					<trkpt lat="43.060160" lon="11.603620">
						<ele>415</ele>
						<time>2026-05-04T22:47:02Z</time>
					</trkpt>
					<trkpt lat="43.060220" lon="11.603500">
						<ele>414</ele>
						<time>2026-05-04T22:47:04Z</time>
					</trkpt>
					<trkpt lat="43.060390" lon="11.602880">
						<ele>408</ele>
						<time>2026-05-04T22:47:12Z</time>
					</trkpt>
					<trkpt lat="43.060410" lon="11.602770">
						<ele>406</ele>
						<time>2026-05-04T22:47:14Z</time>
					</trkpt>
					<trkpt lat="43.060410" lon="11.602700">
						<ele>406</ele>
						<time>2026-05-04T22:47:15Z</time>
					</trkpt>
					<trkpt lat="43.060380" lon="11.602520">
						<ele>404</ele>
						<time>2026-05-04T22:47:17Z</time>
					</trkpt>
					<trkpt lat="43.060270" lon="11.602100">
						<ele>401</ele>
						<time>2026-05-04T22:47:23Z</time>
					</trkpt>
					<trkpt lat="43.060180" lon="11.602080">
						<ele>401</ele>
						<time>2026-05-04T22:47:24Z</time>
					</trkpt>
					<trkpt lat="43.060050" lon="11.602100">
						<ele>402</ele>
						<time>2026-05-04T22:47:27Z</time>
					</trkpt>
					<trkpt lat="43.059960" lon="11.602140">
						<ele>402</ele>
						<time>2026-05-04T22:47:29Z</time>
					</trkpt>
					<trkpt lat="43.059910" lon="11.602220">
						<ele>403</ele>
						<time>2026-05-04T22:47:30Z</time>
					</trkpt>
					<trkpt lat="43.059610" lon="11.602940">
						<ele>407</ele>
						<time>2026-05-04T22:47:41Z</time>
					</trkpt>
					<trkpt lat="43.059320" lon="11.603580">
						<ele>409</ele>
						<time>2026-05-04T22:47:50Z</time>
					</trkpt>
					<trkpt lat="43.059250" lon="11.603730">
						<ele>410</ele>
						<time>2026-05-04T22:47:53Z</time>
					</trkpt>
					<trkpt lat="43.059220" lon="11.603790">
						<ele>410</ele>
						<time>2026-05-04T22:47:54Z</time>
					</trkpt>
					<trkpt lat="43.059200" lon="11.603750">
						<ele>410</ele>
						<time>2026-05-04T22:47:54Z</time>
					</trkpt>
					<trkpt lat="43.058780" lon="11.603010">
						<ele>405</ele>
						<time>2026-05-04T22:48:07Z</time>
					</trkpt>
					<trkpt lat="43.058760" lon="11.602990">
						<ele>405</ele>
						<time>2026-05-04T22:48:07Z</time>
					</trkpt>
					<trkpt lat="43.058450" lon="11.602410">
						<ele>402</ele>
						<time>2026-05-04T22:48:16Z</time>
					</trkpt>
					<trkpt lat="43.058270" lon="11.602590">
						<ele>404</ele>
						<time>2026-05-04T22:48:20Z</time>
					</trkpt>
					<trkpt lat="43.057910" lon="11.602980">
						<ele>410</ele>
						<time>2026-05-04T22:48:28Z</time>
					</trkpt>
					<trkpt lat="43.057880" lon="11.603000">
						<ele>411</ele>
						<time>2026-05-04T22:48:29Z</time>
					</trkpt>
					<trkpt lat="43.057860" lon="11.603000">
						<ele>411</ele>
						<time>2026-05-04T22:48:29Z</time>
					</trkpt>
					<trkpt lat="43.057820" lon="11.602980">
						<ele>411</ele>
						<time>2026-05-04T22:48:30Z</time>
					</trkpt>
					<trkpt lat="43.057810" lon="11.602960">
						<ele>411</ele>
						<time>2026-05-04T22:48:30Z</time>
					</trkpt>
					<trkpt lat="43.057660" lon="11.602660">
						<ele>410</ele>
						<time>2026-05-04T22:48:35Z</time>
					</trkpt>
					<trkpt lat="43.057610" lon="11.602710">
						<ele>411</ele>
						<time>2026-05-04T22:48:36Z</time>
					</trkpt>
					<trkpt lat="43.057580" lon="11.602760">
						<ele>411</ele>
						<time>2026-05-04T22:48:37Z</time>
					</trkpt>
					<trkpt lat="43.057410" lon="11.603080">
						<ele>415</ele>
						<time>2026-05-04T22:48:42Z</time>
					</trkpt>
					<trkpt lat="43.056970" lon="11.602830">
						<ele>418</ele>
						<time>2026-05-04T22:48:51Z</time>
					</trkpt>
					<trkpt lat="43.056850" lon="11.603110">
						<ele>420</ele>
						<time>2026-05-04T22:48:55Z</time>
					</trkpt>
					<trkpt lat="43.056720" lon="11.603500">
						<ele>421</ele>
						<time>2026-05-04T22:49:01Z</time>
					</trkpt>
					<trkpt lat="43.056660" lon="11.603640">
						<ele>421</ele>
						<time>2026-05-04T22:49:03Z</time>
					</trkpt>
					<trkpt lat="43.056610" lon="11.603720">
						<ele>421</ele>
						<time>2026-05-04T22:49:04Z</time>
					</trkpt>
					<trkpt lat="43.056490" lon="11.603820">
						<ele>420</ele>
						<time>2026-05-04T22:49:07Z</time>
					</trkpt>
					<trkpt lat="43.056620" lon="11.604010">
						<ele>420</ele>
						<time>2026-05-04T22:49:10Z</time>
					</trkpt>
					<trkpt lat="43.056780" lon="11.604340">
						<ele>419</ele>
						<time>2026-05-04T22:49:15Z</time>
					</trkpt>
					<trkpt lat="43.056820" lon="11.604400">
						<ele>419</ele>
						<time>2026-05-04T22:49:16Z</time>
					</trkpt>
					<trkpt lat="43.056930" lon="11.604550">
						<ele>418</ele>
						<time>2026-05-04T22:49:19Z</time>
					</trkpt>
					<trkpt lat="43.057050" lon="11.604710">
						<ele>418</ele>
						<time>2026-05-04T22:49:22Z</time>
					</trkpt>
					<trkpt lat="43.057080" lon="11.604760">
						<ele>418</ele>
						<time>2026-05-04T22:49:23Z</time>
					</trkpt>
					<trkpt lat="43.057110" lon="11.604850">
						<ele>418</ele>
						<time>2026-05-04T22:49:24Z</time>
					</trkpt>
					<trkpt lat="43.057260" lon="11.605280">
						<ele>416</ele>
						<time>2026-05-04T22:49:30Z</time>
					</trkpt>
					<trkpt lat="43.057400" lon="11.605660">
						<ele>414</ele>
						<time>2026-05-04T22:49:36Z</time>
					</trkpt>
					<trkpt lat="43.057360" lon="11.605700">
						<ele>413</ele>
						<time>2026-05-04T22:49:37Z</time>
					</trkpt>
					<trkpt lat="43.057040" lon="11.606100">
						<ele>410</ele>
						<time>2026-05-04T22:49:44Z</time>
					</trkpt>
					<trkpt lat="43.056900" lon="11.606280">
						<ele>408</ele>
						<time>2026-05-04T22:49:48Z</time>
					</trkpt>
					<trkpt lat="43.056680" lon="11.606580">
						<ele>406</ele>
						<time>2026-05-04T22:49:53Z</time>
					</trkpt>
					<trkpt lat="43.056460" lon="11.606890">
						<ele>403</ele>
						<time>2026-05-04T22:49:59Z</time>
					</trkpt>
					<trkpt lat="43.056430" lon="11.606950">
						<ele>402</ele>
						<time>2026-05-04T22:50:00Z</time>
					</trkpt>
					<trkpt lat="43.056470" lon="11.606960">
						<ele>402</ele>
						<time>2026-05-04T22:50:01Z</time>
					</trkpt>
					<trkpt lat="43.056490" lon="11.606980">
						<ele>402</ele>
						<time>2026-05-04T22:50:01Z</time>
					</trkpt>
					<trkpt lat="43.057210" lon="11.607710">
						<ele>402</ele>
						<time>2026-05-04T22:50:17Z</time>
					</trkpt>
					<trkpt lat="43.057160" lon="11.607790">
						<ele>401</ele>
						<time>2026-05-04T22:50:18Z</time>
					</trkpt>
					<trkpt lat="43.057030" lon="11.608010">
						<ele>399</ele>
						<time>2026-05-04T22:50:22Z</time>
					</trkpt>
					<trkpt lat="43.056750" lon="11.608470">
						<ele>393</ele>
						<time>2026-05-04T22:50:30Z</time>
					</trkpt>
					<trkpt lat="43.056560" lon="11.608820">
						<ele>389</ele>
						<time>2026-05-04T22:50:35Z</time>
					</trkpt>
					<trkpt lat="43.056520" lon="11.608890">
						<ele>389</ele>
						<time>2026-05-04T22:50:37Z</time>
					</trkpt>
					<trkpt lat="43.056490" lon="11.608970">
						<ele>388</ele>
						<time>2026-05-04T22:50:38Z</time>
					</trkpt>
					<trkpt lat="43.056300" lon="11.609320">
						<ele>384</ele>
						<time>2026-05-04T22:50:43Z</time>
					</trkpt>
					<trkpt lat="43.056170" lon="11.609520">
						<ele>382</ele>
						<time>2026-05-04T22:50:47Z</time>
					</trkpt>
					<trkpt lat="43.056050" lon="11.609710">
						<ele>380</ele>
						<time>2026-05-04T22:50:50Z</time>
					</trkpt>
					<trkpt lat="43.055850" lon="11.610100">
						<ele>376</ele>
						<time>2026-05-04T22:50:56Z</time>
					</trkpt>
					<trkpt lat="43.055380" lon="11.609700">
						<ele>374</ele>
						<time>2026-05-04T22:51:06Z</time>
					</trkpt>
					<trkpt lat="43.054830" lon="11.609230">
						<ele>372</ele>
						<time>2026-05-04T22:51:18Z</time>
					</trkpt>
					<trkpt lat="43.054360" lon="11.608830">
						<ele>370</ele>
						<time>2026-05-04T22:51:28Z</time>
					</trkpt>
					<trkpt lat="43.054040" lon="11.608560">
						<ele>370</ele>
						<time>2026-05-04T22:51:34Z</time>
					</trkpt>
					<trkpt lat="43.053870" lon="11.608430">
						<ele>369</ele>
						<time>2026-05-04T22:51:38Z</time>
					</trkpt>
					<trkpt lat="43.053800" lon="11.608390">
						<ele>369</ele>
						<time>2026-05-04T22:51:39Z</time>
					</trkpt>
					<trkpt lat="43.053670" lon="11.608330">
						<ele>368</ele>
						<time>2026-05-04T22:51:42Z</time>
					</trkpt>
					<trkpt lat="43.053450" lon="11.608300">
						<ele>366</ele>
						<time>2026-05-04T22:51:45Z</time>
					</trkpt>
					<trkpt lat="43.053270" lon="11.608320">
						<ele>364</ele>
						<time>2026-05-04T22:51:49Z</time>
					</trkpt>
					<trkpt lat="43.053140" lon="11.608370">
						<ele>362</ele>
						<time>2026-05-04T22:51:51Z</time>
					</trkpt>
					<trkpt lat="43.052960" lon="11.608470">
						<ele>360</ele>
						<time>2026-05-04T22:51:55Z</time>
					</trkpt>
					<trkpt lat="43.052470" lon="11.608760">
						<ele>352</ele>
						<time>2026-05-04T22:52:04Z</time>
					</trkpt>
					<trkpt lat="43.052010" lon="11.609030">
						<ele>353</ele>
						<time>2026-05-04T22:52:13Z</time>
					</trkpt>
					<trkpt lat="43.051260" lon="11.609480">
						<ele>352</ele>
						<time>2026-05-04T22:52:27Z</time>
					</trkpt>
					<trkpt lat="43.051120" lon="11.609570">
						<ele>351</ele>
						<time>2026-05-04T22:52:30Z</time>
					</trkpt>
					<trkpt lat="43.051050" lon="11.609630">
						<ele>351</ele>
						<time>2026-05-04T22:52:32Z</time>
					</trkpt>
					<trkpt lat="43.050640" lon="11.610020">
						<ele>346</ele>
						<time>2026-05-04T22:52:41Z</time>
					</trkpt>
					<trkpt lat="43.050030" lon="11.610580">
						<ele>345</ele>
						<time>2026-05-04T22:52:54Z</time>
					</trkpt>
					<trkpt lat="43.049840" lon="11.610710">
						<ele>344</ele>
						<time>2026-05-04T22:52:57Z</time>
					</trkpt>
					<trkpt lat="43.049730" lon="11.610750">
						<ele>344</ele>
						<time>2026-05-04T22:52:59Z</time>
					</trkpt>
					<trkpt lat="43.049400" lon="11.610840">
						<ele>343</ele>
						<time>2026-05-04T22:53:05Z</time>
					</trkpt>
					<trkpt lat="43.048940" lon="11.610940">
						<ele>343</ele>
						<time>2026-05-04T22:53:14Z</time>
					</trkpt>
					<trkpt lat="43.048870" lon="11.610960">
						<ele>343</ele>
						<time>2026-05-04T22:53:15Z</time>
					</trkpt>
					<trkpt lat="43.048740" lon="11.611030">
						<ele>343</ele>
						<time>2026-05-04T22:53:18Z</time>
					</trkpt>
					<trkpt lat="43.048650" lon="11.611080">
						<ele>342</ele>
						<time>2026-05-04T22:53:19Z</time>
					</trkpt>
					<trkpt lat="43.048580" lon="11.611150">
						<ele>341</ele>
						<time>2026-05-04T22:53:21Z</time>
					</trkpt>
					<trkpt lat="43.048440" lon="11.611310">
						<ele>339</ele>
						<time>2026-05-04T22:53:24Z</time>
					</trkpt>
					<trkpt lat="43.048350" lon="11.611450">
						<ele>337</ele>
						<time>2026-05-04T22:53:26Z</time>
					</trkpt>
					<trkpt lat="43.048250" lon="11.611640">
						<ele>335</ele>
						<time>2026-05-04T22:53:29Z</time>
					</trkpt>
					<trkpt lat="43.048170" lon="11.611880">
						<ele>334</ele>
						<time>2026-05-04T22:53:33Z</time>
					</trkpt>
					<trkpt lat="43.048130" lon="11.612090">
						<ele>333</ele>
						<time>2026-05-04T22:53:36Z</time>
					</trkpt>
					<trkpt lat="43.048120" lon="11.612230">
						<ele>331</ele>
						<time>2026-05-04T22:53:38Z</time>
					</trkpt>
					<trkpt lat="43.048120" lon="11.612370">
						<ele>330</ele>
						<time>2026-05-04T22:53:39Z</time>
					</trkpt>
					<trkpt lat="43.048130" lon="11.612630">
						<ele>328</ele>
						<time>2026-05-04T22:53:43Z</time>
					</trkpt>
					<trkpt lat="43.048170" lon="11.612870">
						<ele>327</ele>
						<time>2026-05-04T22:53:46Z</time>
					</trkpt>
					<trkpt lat="43.048210" lon="11.613040">
						<ele>327</ele>
						<time>2026-05-04T22:53:48Z</time>
					</trkpt>
					<trkpt lat="43.048470" lon="11.613880">
						<ele>322</ele>
						<time>2026-05-04T22:54:00Z</time>
					</trkpt>
					<trkpt lat="43.048920" lon="11.615280">
						<ele>313</ele>
						<time>2026-05-04T22:54:20Z</time>
					</trkpt>
					<trkpt lat="43.049010" lon="11.615590">
						<ele>311</ele>
						<time>2026-05-04T22:54:24Z</time>
					</trkpt>
					<trkpt lat="43.049080" lon="11.615840">
						<ele>310</ele>
						<time>2026-05-04T22:54:28Z</time>
					</trkpt>
					<trkpt lat="43.049120" lon="11.616040">
						<ele>310</ele>
						<time>2026-05-04T22:54:31Z</time>
					</trkpt>
					<trkpt lat="43.049150" lon="11.616280">
						<ele>311</ele>
						<time>2026-05-04T22:54:34Z</time>
					</trkpt>
					<trkpt lat="43.049520" lon="11.620360">
						<ele>297</ele>
						<time>2026-05-04T22:55:27Z</time>
					</trkpt>
					<trkpt lat="43.049540" lon="11.620670">
						<ele>297</ele>
						<time>2026-05-04T22:55:31Z</time>
					</trkpt>
					<trkpt lat="43.049550" lon="11.621020">
						<ele>296</ele>
						<time>2026-05-04T22:55:36Z</time>
					</trkpt>
					<trkpt lat="43.049540" lon="11.621400">
						<ele>295</ele>
						<time>2026-05-04T22:55:41Z</time>
					</trkpt>
					<trkpt lat="43.049500" lon="11.621810">
						<ele>294</ele>
						<time>2026-05-04T22:55:46Z</time>
					</trkpt>
					<trkpt lat="43.049460" lon="11.622080">
						<ele>294</ele>
						<time>2026-05-04T22:55:50Z</time>
					</trkpt>
					<trkpt lat="43.049350" lon="11.622590">
						<ele>292</ele>
						<time>2026-05-04T22:55:57Z</time>
					</trkpt>
					<trkpt lat="43.049240" lon="11.622950">
						<ele>291</ele>
						<time>2026-05-04T22:56:02Z</time>
					</trkpt>
					<trkpt lat="43.049130" lon="11.623250">
						<ele>291</ele>
						<time>2026-05-04T22:56:06Z</time>
					</trkpt>
					<trkpt lat="43.048980" lon="11.623600">
						<ele>290</ele>
						<time>2026-05-04T22:56:11Z</time>
					</trkpt>
					<trkpt lat="43.048410" lon="11.624770">
						<ele>288</ele>
						<time>2026-05-04T22:56:30Z</time>
					</trkpt>
					<trkpt lat="43.048260" lon="11.625070">
						<ele>285</ele>
						<time>2026-05-04T22:56:34Z</time>
					</trkpt>
					<trkpt lat="43.048170" lon="11.625230">
						<ele>284</ele>
						<time>2026-05-04T22:56:37Z</time>
					</trkpt>
					<trkpt lat="43.048050" lon="11.625380">
						<ele>282</ele>
						<time>2026-05-04T22:56:40Z</time>
					</trkpt>
					<trkpt lat="43.047980" lon="11.625440">
						<ele>282</ele>
						<time>2026-05-04T22:56:41Z</time>
					</trkpt>
					<trkpt lat="43.047890" lon="11.625490">
						<ele>281</ele>
						<time>2026-05-04T22:56:43Z</time>
					</trkpt>
					<trkpt lat="43.047790" lon="11.625500">
						<ele>281</ele>
						<time>2026-05-04T22:56:45Z</time>
					</trkpt>
					<trkpt lat="43.047220" lon="11.625500">
						<ele>280</ele>
						<time>2026-05-04T22:56:55Z</time>
					</trkpt>
					<trkpt lat="43.047120" lon="11.625500">
						<ele>280</ele>
						<time>2026-05-04T22:56:57Z</time>
					</trkpt>
					<trkpt lat="43.047000" lon="11.625490">
						<ele>280</ele>
						<time>2026-05-04T22:56:59Z</time>
					</trkpt>
					<trkpt lat="43.046660" lon="11.625470">
						<ele>279</ele>
						<time>2026-05-04T22:57:05Z</time>
					</trkpt>
					<trkpt lat="43.046500" lon="11.625440">
						<ele>278</ele>
						<time>2026-05-04T22:57:08Z</time>
					</trkpt>
					<trkpt lat="43.046300" lon="11.625360">
						<ele>278</ele>
						<time>2026-05-04T22:57:12Z</time>
					</trkpt>
					<trkpt lat="43.045860" lon="11.625130">
						<ele>278</ele>
						<time>2026-05-04T22:57:20Z</time>
					</trkpt>
					<trkpt lat="43.045710" lon="11.625080">
						<ele>278</ele>
						<time>2026-05-04T22:57:23Z</time>
					</trkpt>
					<trkpt lat="43.045540" lon="11.625050">
						<ele>278</ele>
						<time>2026-05-04T22:57:26Z</time>
					</trkpt>
					<trkpt lat="43.044890" lon="11.625060">
						<ele>278</ele>
						<time>2026-05-04T22:57:37Z</time>
					</trkpt>
					<trkpt lat="43.044590" lon="11.625080">
						<ele>278</ele>
						<time>2026-05-04T22:57:43Z</time>
					</trkpt>
					<trkpt lat="43.044330" lon="11.625130">
						<ele>278</ele>
						<time>2026-05-04T22:57:47Z</time>
					</trkpt>
					<trkpt lat="43.044090" lon="11.625220">
						<ele>278</ele>
						<time>2026-05-04T22:57:52Z</time>
					</trkpt>
					<trkpt lat="43.043720" lon="11.625410">
						<ele>277</ele>
						<time>2026-05-04T22:57:59Z</time>
					</trkpt>
					<trkpt lat="43.043050" lon="11.625760">
						<ele>274</ele>
						<time>2026-05-04T22:58:12Z</time>
					</trkpt>
					<trkpt lat="43.041740" lon="11.626430">
						<ele>272</ele>
						<time>2026-05-04T22:58:36Z</time>
					</trkpt>
					<trkpt lat="43.041360" lon="11.626590">
						<ele>272</ele>
						<time>2026-05-04T22:58:43Z</time>
					</trkpt>
					<trkpt lat="43.040990" lon="11.626680">
						<ele>272</ele>
						<time>2026-05-04T22:58:50Z</time>
					</trkpt>
					<trkpt lat="43.040830" lon="11.626710">
						<ele>273</ele>
						<time>2026-05-04T22:58:53Z</time>
					</trkpt>
					<trkpt lat="43.040490" lon="11.626820">
						<ele>271</ele>
						<time>2026-05-04T22:58:59Z</time>
					</trkpt>
					<trkpt lat="43.040250" lon="11.626870">
						<ele>271</ele>
						<time>2026-05-04T22:59:04Z</time>
					</trkpt>
					<trkpt lat="43.039340" lon="11.626870">
						<ele>272</ele>
						<time>2026-05-04T22:59:20Z</time>
					</trkpt>
					<trkpt lat="43.038920" lon="11.626880">
						<ele>272</ele>
						<time>2026-05-04T22:59:27Z</time>
					</trkpt>
					<trkpt lat="43.038630" lon="11.626910">
						<ele>271</ele>
						<time>2026-05-04T22:59:32Z</time>
					</trkpt>
					<trkpt lat="43.037300" lon="11.627150">
						<ele>268</ele>
						<time>2026-05-04T22:59:56Z</time>
					</trkpt>
					<trkpt lat="43.037120" lon="11.627180">
						<ele>268</ele>
						<time>2026-05-04T22:59:59Z</time>
					</trkpt>
					<trkpt lat="43.036820" lon="11.627230">
						<ele>268</ele>
						<time>2026-05-04T23:00:05Z</time>
					</trkpt>
					<trkpt lat="43.035030" lon="11.627530">
						<ele>269</ele>
						<time>2026-05-04T23:00:37Z</time>
					</trkpt>
					<trkpt lat="43.034870" lon="11.627560">
						<ele>268</ele>
						<time>2026-05-04T23:00:40Z</time>
					</trkpt>
					<trkpt lat="43.034350" lon="11.627650">
						<ele>266</ele>
						<time>2026-05-04T23:00:49Z</time>
					</trkpt>
					<trkpt lat="43.034250" lon="11.627660">
						<ele>266</ele>
						<time>2026-05-04T23:00:51Z</time>
					</trkpt>
					<trkpt lat="43.034180" lon="11.627650">
						<ele>266</ele>
						<time>2026-05-04T23:00:52Z</time>
					</trkpt>
					<trkpt lat="43.034040" lon="11.627610">
						<ele>265</ele>
						<time>2026-05-04T23:00:55Z</time>
					</trkpt>
					<trkpt lat="43.033700" lon="11.627510">
						<ele>264</ele>
						<time>2026-05-04T23:01:01Z</time>
					</trkpt>
					<trkpt lat="43.033320" lon="11.627380">
						<ele>262</ele>
						<time>2026-05-04T23:01:08Z</time>
					</trkpt>
					<trkpt lat="43.032200" lon="11.627020">
						<ele>260</ele>
						<time>2026-05-04T23:01:28Z</time>
					</trkpt>
					<trkpt lat="43.031230" lon="11.626720">
						<ele>263</ele>
						<time>2026-05-04T23:01:46Z</time>
					</trkpt>
					<trkpt lat="43.031050" lon="11.626670">
						<ele>263</ele>
						<time>2026-05-04T23:01:49Z</time>
					</trkpt>
					<trkpt lat="43.030680" lon="11.626560">
						<ele>265</ele>
						<time>2026-05-04T23:01:56Z</time>
					</trkpt>
					<trkpt lat="43.030270" lon="11.626470">
						<ele>264</ele>
						<time>2026-05-04T23:02:03Z</time>
					</trkpt>
					<trkpt lat="43.030100" lon="11.626420">
						<ele>263</ele>
						<time>2026-05-04T23:02:07Z</time>
					</trkpt>
					<trkpt lat="43.029970" lon="11.626370">
						<ele>263</ele>
						<time>2026-05-04T23:02:09Z</time>
					</trkpt>
					<trkpt lat="43.029460" lon="11.626040">
						<ele>266</ele>
						<time>2026-05-04T23:02:19Z</time>
					</trkpt>
					<trkpt lat="43.029030" lon="11.625880">
						<ele>265</ele>
						<time>2026-05-04T23:02:27Z</time>
					</trkpt>
					<trkpt lat="43.028910" lon="11.625820">
						<ele>265</ele>
						<time>2026-05-04T23:02:29Z</time>
					</trkpt>
					<trkpt lat="43.028850" lon="11.625780">
						<ele>265</ele>
						<time>2026-05-04T23:02:30Z</time>
					</trkpt>
					<trkpt lat="43.028780" lon="11.625730">
						<ele>265</ele>
						<time>2026-05-04T23:02:32Z</time>
					</trkpt>
					<trkpt lat="43.028600" lon="11.625480">
						<ele>266</ele>
						<time>2026-05-04T23:02:36Z</time>
					</trkpt>
					<trkpt lat="43.028520" lon="11.625370">
						<ele>267</ele>
						<time>2026-05-04T23:02:38Z</time>
					</trkpt>
					<trkpt lat="43.028480" lon="11.625340">
						<ele>267</ele>
						<time>2026-05-04T23:02:39Z</time>
					</trkpt>
					<trkpt lat="43.028430" lon="11.625310">
						<ele>267</ele>
						<time>2026-05-04T23:02:40Z</time>
					</trkpt>
					<trkpt lat="43.028350" lon="11.625300">
						<ele>266</ele>
						<time>2026-05-04T23:02:42Z</time>
					</trkpt>
					<trkpt lat="43.028300" lon="11.625120">
						<ele>267</ele>
						<time>2026-05-04T23:02:44Z</time>
					</trkpt>
					<trkpt lat="43.028050" lon="11.624480">
						<ele>268</ele>
						<time>2026-05-04T23:02:54Z</time>
					</trkpt>
					<trkpt lat="43.028020" lon="11.624350">
						<ele>267</ele>
						<time>2026-05-04T23:02:55Z</time>
					</trkpt>
					<trkpt lat="43.027980" lon="11.624140">
						<ele>267</ele>
						<time>2026-05-04T23:02:58Z</time>
					</trkpt>
					<trkpt lat="43.027940" lon="11.623890">
						<ele>268</ele>
						<time>2026-05-04T23:03:01Z</time>
					</trkpt>
					<trkpt lat="43.027930" lon="11.623730">
						<ele>268</ele>
						<time>2026-05-04T23:03:04Z</time>
					</trkpt>
					<trkpt lat="43.027920" lon="11.623550">
						<ele>268</ele>
						<time>2026-05-04T23:03:06Z</time>
					</trkpt>
					<trkpt lat="43.027940" lon="11.623310">
						<ele>270</ele>
						<time>2026-05-04T23:03:09Z</time>
					</trkpt>
					<trkpt lat="43.027970" lon="11.623110">
						<ele>272</ele>
						<time>2026-05-04T23:03:12Z</time>
					</trkpt>
					<trkpt lat="43.028030" lon="11.622840">
						<ele>275</ele>
						<time>2026-05-04T23:03:15Z</time>
					</trkpt>
					<trkpt lat="43.028120" lon="11.622500">
						<ele>280</ele>
						<time>2026-05-04T23:03:20Z</time>
					</trkpt>
					<trkpt lat="43.028170" lon="11.622280">
						<ele>282</ele>
						<time>2026-05-04T23:03:23Z</time>
					</trkpt>
					<trkpt lat="43.028360" lon="11.620970">
						<ele>294</ele>
						<time>2026-05-04T23:03:40Z</time>
					</trkpt>
					<trkpt lat="43.028460" lon="11.620180">
						<ele>301</ele>
						<time>2026-05-04T23:03:51Z</time>
					</trkpt>
					<trkpt lat="43.028550" lon="11.620210">
						<ele>302</ele>
						<time>2026-05-04T23:03:53Z</time>
					</trkpt>
					<trkpt lat="43.028600" lon="11.620250">
						<ele>302</ele>
						<time>2026-05-04T23:03:54Z</time>
					</trkpt>
					<trkpt lat="43.028640" lon="11.620280">
						<ele>303</ele>
						<time>2026-05-04T23:03:54Z</time>
					</trkpt>
					<trkpt lat="43.028790" lon="11.620490">
						<ele>303</ele>
						<time>2026-05-04T23:03:58Z</time>
					</trkpt>
					<trkpt lat="43.028820" lon="11.620520">
						<ele>303</ele>
						<time>2026-05-04T23:03:59Z</time>
					</trkpt>
					<trkpt lat="43.028880" lon="11.620540">
						<ele>304</ele>
						<time>2026-05-04T23:04:00Z</time>
					</trkpt>
					<trkpt lat="43.029010" lon="11.620560">
						<ele>305</ele>
						<time>2026-05-04T23:04:02Z</time>
					</trkpt>
					<trkpt lat="43.028880" lon="11.620540">
						<ele>304</ele>
						<time>2026-05-04T23:04:05Z</time>
					</trkpt>
					<trkpt lat="43.028820" lon="11.620520">
						<ele>303</ele>
						<time>2026-05-04T23:04:06Z</time>
					</trkpt>
					<trkpt lat="43.028790" lon="11.620490">
						<ele>303</ele>
						<time>2026-05-04T23:04:06Z</time>
					</trkpt>
					<trkpt lat="43.028640" lon="11.620280">
						<ele>303</ele>
						<time>2026-05-04T23:04:10Z</time>
					</trkpt>
					<trkpt lat="43.028600" lon="11.620250">
						<ele>302</ele>
						<time>2026-05-04T23:04:11Z</time>
					</trkpt>
					<trkpt lat="43.028550" lon="11.620210">
						<ele>302</ele>
						<time>2026-05-04T23:04:12Z</time>
					</trkpt>
					<trkpt lat="43.028460" lon="11.620180">
						<ele>301</ele>
						<time>2026-05-04T23:04:14Z</time>
					</trkpt>
					<trkpt lat="43.028490" lon="11.619930">
						<ele>303</ele>
						<time>2026-05-04T23:04:17Z</time>
					</trkpt>
					<trkpt lat="43.028510" lon="11.619760">
						<ele>305</ele>
						<time>2026-05-04T23:04:19Z</time>
					</trkpt>
					<trkpt lat="43.028510" lon="11.619570">
						<ele>306</ele>
						<time>2026-05-04T23:04:22Z</time>
					</trkpt>
					<trkpt lat="43.028490" lon="11.619460">
						<ele>307</ele>
						<time>2026-05-04T23:04:23Z</time>
					</trkpt>
					<trkpt lat="43.028470" lon="11.619380">
						<ele>307</ele>
						<time>2026-05-04T23:04:24Z</time>
					</trkpt>
					<trkpt lat="43.028470" lon="11.619340">
						<ele>307</ele>
						<time>2026-05-04T23:04:25Z</time>
					</trkpt>
					<trkpt lat="43.028500" lon="11.619250">
						<ele>308</ele>
						<time>2026-05-04T23:04:26Z</time>
					</trkpt>
					<trkpt lat="43.028560" lon="11.619110">
						<ele>309</ele>
						<time>2026-05-04T23:04:28Z</time>
					</trkpt>
					<trkpt lat="43.028490" lon="11.618930">
						<ele>310</ele>
						<time>2026-05-04T23:04:31Z</time>
					</trkpt>
					<trkpt lat="43.028350" lon="11.618610">
						<ele>310</ele>
						<time>2026-05-04T23:04:36Z</time>
					</trkpt>
					<trkpt lat="43.028180" lon="11.618260">
						<ele>312</ele>
						<time>2026-05-04T23:04:41Z</time>
					</trkpt>
					<trkpt lat="43.028350" lon="11.618610">
						<ele>310</ele>
						<time>2026-05-04T23:04:47Z</time>
					</trkpt>
					<trkpt lat="43.028490" lon="11.618930">
						<ele>310</ele>
						<time>2026-05-04T23:04:51Z</time>
					</trkpt>
					<trkpt lat="43.028560" lon="11.619110">
						<ele>309</ele>
						<time>2026-05-04T23:04:54Z</time>
					</trkpt>
					<trkpt lat="43.028500" lon="11.619250">
						<ele>308</ele>
						<time>2026-05-04T23:04:56Z</time>
					</trkpt>
					<trkpt lat="43.028470" lon="11.619340">
						<ele>307</ele>
						<time>2026-05-04T23:04:57Z</time>
					</trkpt>
					<trkpt lat="43.028470" lon="11.619380">
						<ele>307</ele>
						<time>2026-05-04T23:04:58Z</time>
					</trkpt>
					<trkpt lat="43.028490" lon="11.619460">
						<ele>307</ele>
						<time>2026-05-04T23:04:59Z</time>
					</trkpt>
					<trkpt lat="43.028510" lon="11.619570">
						<ele>306</ele>
						<time>2026-05-04T23:05:01Z</time>
					</trkpt>
					<trkpt lat="43.028510" lon="11.619760">
						<ele>305</ele>
						<time>2026-05-04T23:05:03Z</time>
					</trkpt>
					<trkpt lat="43.028490" lon="11.619930">
						<ele>303</ele>
						<time>2026-05-04T23:05:05Z</time>
					</trkpt>
					<trkpt lat="43.028460" lon="11.620180">
						<ele>301</ele>
						<time>2026-05-04T23:05:09Z</time>
					</trkpt>
					<trkpt lat="43.028360" lon="11.620970">
						<ele>294</ele>
						<time>2026-05-04T23:05:19Z</time>
					</trkpt>
					<trkpt lat="43.028170" lon="11.622280">
						<ele>282</ele>
						<time>2026-05-04T23:05:36Z</time>
					</trkpt>
					<trkpt lat="43.028120" lon="11.622500">
						<ele>280</ele>
						<time>2026-05-04T23:05:39Z</time>
					</trkpt>
					<trkpt lat="43.028030" lon="11.622840">
						<ele>275</ele>
						<time>2026-05-04T23:05:44Z</time>
					</trkpt>
					<trkpt lat="43.027970" lon="11.623110">
						<ele>272</ele>
						<time>2026-05-04T23:05:48Z</time>
					</trkpt>
					<trkpt lat="43.027940" lon="11.623310">
						<ele>270</ele>
						<time>2026-05-04T23:05:50Z</time>
					</trkpt>
					<trkpt lat="43.027920" lon="11.623550">
						<ele>268</ele>
						<time>2026-05-04T23:05:54Z</time>
					</trkpt>
					<trkpt lat="43.027930" lon="11.623730">
						<ele>268</ele>
						<time>2026-05-04T23:05:56Z</time>
					</trkpt>
					<trkpt lat="43.027940" lon="11.623890">
						<ele>268</ele>
						<time>2026-05-04T23:05:58Z</time>
					</trkpt>
					<trkpt lat="43.027980" lon="11.624140">
						<ele>267</ele>
						<time>2026-05-04T23:06:01Z</time>
					</trkpt>
					<trkpt lat="43.028020" lon="11.624350">
						<ele>267</ele>
						<time>2026-05-04T23:06:04Z</time>
					</trkpt>
					<trkpt lat="43.028050" lon="11.624480">
						<ele>268</ele>
						<time>2026-05-04T23:06:06Z</time>
					</trkpt>
					<trkpt lat="43.028300" lon="11.625120">
						<ele>267</ele>
						<time>2026-05-04T23:06:15Z</time>
					</trkpt>
					<trkpt lat="43.028350" lon="11.625300">
						<ele>266</ele>
						<time>2026-05-04T23:06:18Z</time>
					</trkpt>
					<trkpt lat="43.028430" lon="11.625310">
						<ele>267</ele>
						<time>2026-05-04T23:06:19Z</time>
					</trkpt>
					<trkpt lat="43.028480" lon="11.625340">
						<ele>267</ele>
						<time>2026-05-04T23:06:20Z</time>
					</trkpt>
					<trkpt lat="43.028520" lon="11.625370">
						<ele>267</ele>
						<time>2026-05-04T23:06:21Z</time>
					</trkpt>
					<trkpt lat="43.028600" lon="11.625480">
						<ele>266</ele>
						<time>2026-05-04T23:06:23Z</time>
					</trkpt>
					<trkpt lat="43.028780" lon="11.625730">
						<ele>265</ele>
						<time>2026-05-04T23:06:28Z</time>
					</trkpt>
					<trkpt lat="43.028850" lon="11.625780">
						<ele>265</ele>
						<time>2026-05-04T23:06:29Z</time>
					</trkpt>
					<trkpt lat="43.028910" lon="11.625820">
						<ele>265</ele>
						<time>2026-05-04T23:06:30Z</time>
					</trkpt>
					<trkpt lat="43.029030" lon="11.625880">
						<ele>265</ele>
						<time>2026-05-04T23:06:33Z</time>
					</trkpt>
					<trkpt lat="43.029460" lon="11.626040">
						<ele>266</ele>
						<time>2026-05-04T23:06:40Z</time>
					</trkpt>
					<trkpt lat="43.029970" lon="11.626370">
						<ele>263</ele>
						<time>2026-05-04T23:06:50Z</time>
					</trkpt>
					<trkpt lat="43.030100" lon="11.626420">
						<ele>263</ele>
						<time>2026-05-04T23:06:53Z</time>
					</trkpt>
					<trkpt lat="43.030270" lon="11.626470">
						<ele>264</ele>
						<time>2026-05-04T23:06:56Z</time>
					</trkpt>
					<trkpt lat="43.030680" lon="11.626560">
						<ele>265</ele>
						<time>2026-05-04T23:07:03Z</time>
					</trkpt>
					<trkpt lat="43.031050" lon="11.626670">
						<ele>263</ele>
						<time>2026-05-04T23:07:10Z</time>
					</trkpt>
					<trkpt lat="43.032200" lon="11.627020">
						<ele>260</ele>
						<time>2026-05-04T23:07:31Z</time>
					</trkpt>
					<trkpt lat="43.033320" lon="11.627380">
						<ele>262</ele>
						<time>2026-05-04T23:07:52Z</time>
					</trkpt>
					<trkpt lat="43.033400" lon="11.627500">
						<ele>261</ele>
						<time>2026-05-04T23:07:54Z</time>
					</trkpt>
					<trkpt lat="43.033430" lon="11.627580">
						<ele>261</ele>
						<time>2026-05-04T23:07:55Z</time>
					</trkpt>
					<trkpt lat="43.033450" lon="11.627640">
						<ele>261</ele>
						<time>2026-05-04T23:07:56Z</time>
					</trkpt>
					<trkpt lat="43.033460" lon="11.627730">
						<ele>261</ele>
						<time>2026-05-04T23:07:57Z</time>
					</trkpt>
					<trkpt lat="43.033460" lon="11.627910">
						<ele>260</ele>
						<time>2026-05-04T23:07:59Z</time>
					</trkpt>
					<trkpt lat="43.033400" lon="11.628700">
						<ele>259</ele>
						<time>2026-05-04T23:08:10Z</time>
					</trkpt>
					<trkpt lat="43.033370" lon="11.629140">
						<ele>260</ele>
						<time>2026-05-04T23:08:15Z</time>
					</trkpt>
					<trkpt lat="43.033340" lon="11.629750">
						<ele>259</ele>
						<time>2026-05-04T23:08:23Z</time>
					</trkpt>
					<trkpt lat="43.033340" lon="11.630050">
						<ele>258</ele>
						<time>2026-05-04T23:08:27Z</time>
					</trkpt>
					<trkpt lat="43.033350" lon="11.630270">
						<ele>258</ele>
						<time>2026-05-04T23:08:30Z</time>
					</trkpt>
					<trkpt lat="43.033370" lon="11.630620">
						<ele>259</ele>
						<time>2026-05-04T23:08:35Z</time>
					</trkpt>
					<trkpt lat="43.033600" lon="11.633090">
						<ele>261</ele>
						<time>2026-05-04T23:09:07Z</time>
					</trkpt>
					<trkpt lat="43.033610" lon="11.633430">
						<ele>260</ele>
						<time>2026-05-04T23:09:11Z</time>
					</trkpt>
					<trkpt lat="43.033600" lon="11.633800">
						<ele>260</ele>
						<time>2026-05-04T23:09:16Z</time>
					</trkpt>
					<trkpt lat="43.033570" lon="11.634270">
						<ele>259</ele>
						<time>2026-05-04T23:09:22Z</time>
					</trkpt>
					<trkpt lat="43.033500" lon="11.634950">
						<ele>260</ele>
						<time>2026-05-04T23:09:31Z</time>
					</trkpt>
					<trkpt lat="43.033440" lon="11.635690">
						<ele>261</ele>
						<time>2026-05-04T23:09:41Z</time>
					</trkpt>
					<trkpt lat="43.033440" lon="11.635860">
						<ele>261</ele>
						<time>2026-05-04T23:09:43Z</time>
					</trkpt>
					<trkpt lat="43.033460" lon="11.636310">
						<ele>261</ele>
						<time>2026-05-04T23:09:49Z</time>
					</trkpt>
					<trkpt lat="43.033550" lon="11.637820">
						<ele>263</ele>
						<time>2026-05-04T23:10:09Z</time>
					</trkpt>
					<trkpt lat="43.033580" lon="11.638150">
						<ele>263</ele>
						<time>2026-05-04T23:10:13Z</time>
					</trkpt>
					<trkpt lat="43.033620" lon="11.638450">
						<ele>263</ele>
						<time>2026-05-04T23:10:17Z</time>
					</trkpt>
					<trkpt lat="43.033730" lon="11.639100">
						<ele>262</ele>
						<time>2026-05-04T23:10:26Z</time>
					</trkpt>
					<trkpt lat="43.034820" lon="11.644870">
						<ele>263</ele>
						<time>2026-05-04T23:11:43Z</time>
					</trkpt>
					<trkpt lat="43.034830" lon="11.645050">
						<ele>263</ele>
						<time>2026-05-04T23:11:46Z</time>
					</trkpt>
					<trkpt lat="43.034840" lon="11.645230">
						<ele>263</ele>
						<time>2026-05-04T23:11:48Z</time>
					</trkpt>
					<trkpt lat="43.034830" lon="11.645580">
						<ele>264</ele>
						<time>2026-05-04T23:11:52Z</time>
					</trkpt>
					<trkpt lat="43.034800" lon="11.645860">
						<ele>265</ele>
						<time>2026-05-04T23:11:56Z</time>
					</trkpt>
					<trkpt lat="43.034770" lon="11.646050">
						<ele>265</ele>
						<time>2026-05-04T23:11:59Z</time>
					</trkpt>
					<trkpt lat="43.034750" lon="11.646210">
						<ele>266</ele>
						<time>2026-05-04T23:12:01Z</time>
					</trkpt>
					<trkpt lat="43.034610" lon="11.647280">
						<ele>267</ele>
						<time>2026-05-04T23:12:15Z</time>
					</trkpt>
					<trkpt lat="43.034370" lon="11.649310">
						<ele>269</ele>
						<time>2026-05-04T23:12:42Z</time>
					</trkpt>
					<trkpt lat="43.033090" lon="11.659620">
						<ele>280</ele>
						<time>2026-05-04T23:14:58Z</time>
					</trkpt>
					<trkpt lat="43.032830" lon="11.661730">
						<ele>278</ele>
						<time>2026-05-04T23:15:25Z</time>
					</trkpt>
					<trkpt lat="43.032820" lon="11.661850">
						<ele>278</ele>
						<time>2026-05-04T23:15:27Z</time>
					</trkpt>
					<trkpt lat="43.032580" lon="11.663750">
						<ele>281</ele>
						<time>2026-05-04T23:15:52Z</time>
					</trkpt>
					<trkpt lat="43.032530" lon="11.664070">
						<ele>282</ele>
						<time>2026-05-04T23:15:56Z</time>
					</trkpt>
					<trkpt lat="43.032520" lon="11.664210">
						<ele>282</ele>
						<time>2026-05-04T23:15:58Z</time>
					</trkpt>
					<trkpt lat="43.032300" lon="11.666020">
						<ele>281</ele>
						<time>2026-05-04T23:16:22Z</time>
					</trkpt>
					<trkpt lat="43.032250" lon="11.666340">
						<ele>281</ele>
						<time>2026-05-04T23:16:26Z</time>
					</trkpt>
					<trkpt lat="43.032080" lon="11.667340">
						<ele>284</ele>
						<time>2026-05-04T23:16:40Z</time>
					</trkpt>
					<trkpt lat="43.031850" lon="11.668720">
						<ele>283</ele>
						<time>2026-05-04T23:16:58Z</time>
					</trkpt>
					<trkpt lat="43.031710" lon="11.669490">
						<ele>283</ele>
						<time>2026-05-04T23:17:08Z</time>
					</trkpt>
					<trkpt lat="43.030940" lon="11.674030">
						<ele>276</ele>
						<time>2026-05-04T23:18:09Z</time>
					</trkpt>
					<trkpt lat="43.030900" lon="11.674190">
						<ele>276</ele>
						<time>2026-05-04T23:18:11Z</time>
					</trkpt>
					<trkpt lat="43.030850" lon="11.674420">
						<ele>276</ele>
						<time>2026-05-04T23:18:14Z</time>
					</trkpt>
					<trkpt lat="43.030760" lon="11.674680">
						<ele>275</ele>
						<time>2026-05-04T23:18:18Z</time>
					</trkpt>
					<trkpt lat="43.030540" lon="11.675260">
						<ele>276</ele>
						<time>2026-05-04T23:18:27Z</time>
					</trkpt>
					<trkpt lat="43.030130" lon="11.676350">
						<ele>277</ele>
						<time>2026-05-04T23:18:43Z</time>
					</trkpt>
					<trkpt lat="43.030020" lon="11.676750">
						<ele>277</ele>
						<time>2026-05-04T23:18:48Z</time>
					</trkpt>
					<trkpt lat="43.029920" lon="11.677270">
						<ele>278</ele>
						<time>2026-05-04T23:18:55Z</time>
					</trkpt>
					<trkpt lat="43.029300" lon="11.680340">
						<ele>278</ele>
						<time>2026-05-04T23:19:37Z</time>
					</trkpt>
					<trkpt lat="43.029270" lon="11.680490">
						<ele>278</ele>
						<time>2026-05-04T23:19:39Z</time>
					</trkpt>
					<trkpt lat="43.028330" lon="11.685140">
						<ele>283</ele>
						<time>2026-05-04T23:20:41Z</time>
					</trkpt>
					<trkpt lat="43.028020" lon="11.686730">
						<ele>282</ele>
						<time>2026-05-04T23:21:03Z</time>
					</trkpt>
					<trkpt lat="43.027660" lon="11.688490">
						<ele>281</ele>
						<time>2026-05-04T23:21:26Z</time>
					</trkpt>
					<trkpt lat="43.027580" lon="11.688850">
						<ele>280</ele>
						<time>2026-05-04T23:21:31Z</time>
					</trkpt>
					<trkpt lat="43.027530" lon="11.689050">
						<ele>280</ele>
						<time>2026-05-04T23:21:34Z</time>
					</trkpt>
					<trkpt lat="43.027440" lon="11.689330">
						<ele>280</ele>
						<time>2026-05-04T23:21:38Z</time>
					</trkpt>
					<trkpt lat="43.026740" lon="11.691220">
						<ele>282</ele>
						<time>2026-05-04T23:22:06Z</time>
					</trkpt>
					<trkpt lat="43.026600" lon="11.691470">
						<ele>282</ele>
						<time>2026-05-04T23:22:10Z</time>
					</trkpt>
					<trkpt lat="43.026570" lon="11.691630">
						<ele>282</ele>
						<time>2026-05-04T23:22:12Z</time>
					</trkpt>
					<trkpt lat="43.026440" lon="11.692030">
						<ele>282</ele>
						<time>2026-05-04T23:22:18Z</time>
					</trkpt>
					<trkpt lat="43.024620" lon="11.696920">
						<ele>286</ele>
						<time>2026-05-04T23:23:29Z</time>
					</trkpt>
					<trkpt lat="43.024480" lon="11.697420">
						<ele>286</ele>
						<time>2026-05-04T23:23:36Z</time>
					</trkpt>
					<trkpt lat="43.024380" lon="11.697850">
						<ele>287</ele>
						<time>2026-05-04T23:23:42Z</time>
					</trkpt>
					<trkpt lat="43.024300" lon="11.698320">
						<ele>287</ele>
						<time>2026-05-04T23:23:48Z</time>
					</trkpt>
					<trkpt lat="43.024230" lon="11.698890">
						<ele>287</ele>
						<time>2026-05-04T23:23:56Z</time>
					</trkpt>
					<trkpt lat="43.024210" lon="11.699260">
						<ele>288</ele>
						<time>2026-05-04T23:24:00Z</time>
					</trkpt>
					<trkpt lat="43.024170" lon="11.701890">
						<ele>288</ele>
						<time>2026-05-04T23:24:35Z</time>
					</trkpt>
					<trkpt lat="43.024150" lon="11.702300">
						<ele>288</ele>
						<time>2026-05-04T23:24:40Z</time>
					</trkpt>
					<trkpt lat="43.024120" lon="11.702670">
						<ele>288</ele>
						<time>2026-05-04T23:24:45Z</time>
					</trkpt>
					<trkpt lat="43.023620" lon="11.706620">
						<ele>290</ele>
						<time>2026-05-04T23:25:37Z</time>
					</trkpt>
					<trkpt lat="43.023590" lon="11.706980">
						<ele>290</ele>
						<time>2026-05-04T23:25:42Z</time>
					</trkpt>
					<trkpt lat="43.023570" lon="11.707680">
						<ele>291</ele>
						<time>2026-05-04T23:25:51Z</time>
					</trkpt>
					<trkpt lat="43.023590" lon="11.708080">
						<ele>291</ele>
						<time>2026-05-04T23:25:56Z</time>
					</trkpt>
					<trkpt lat="43.023620" lon="11.708390">
						<ele>291</ele>
						<time>2026-05-04T23:26:00Z</time>
					</trkpt>
					<trkpt lat="43.023840" lon="11.709410">
						<ele>293</ele>
						<time>2026-05-04T23:26:14Z</time>
					</trkpt>
					<trkpt lat="43.023890" lon="11.709780">
						<ele>294</ele>
						<time>2026-05-04T23:26:19Z</time>
					</trkpt>
					<trkpt lat="43.024040" lon="11.712140">
						<ele>296</ele>
						<time>2026-05-04T23:26:50Z</time>
					</trkpt>
					<trkpt lat="43.024050" lon="11.712550">
						<ele>296</ele>
						<time>2026-05-04T23:26:55Z</time>
					</trkpt>
					<trkpt lat="43.023910" lon="11.715210">
						<ele>297</ele>
						<time>2026-05-04T23:27:30Z</time>
					</trkpt>
					<trkpt lat="43.023870" lon="11.715890">
						<ele>298</ele>
						<time>2026-05-04T23:27:39Z</time>
					</trkpt>
					<trkpt lat="43.023810" lon="11.717080">
						<ele>297</ele>
						<time>2026-05-04T23:27:54Z</time>
					</trkpt>
					<trkpt lat="43.023760" lon="11.718570">
						<ele>296</ele>
						<time>2026-05-04T23:28:13Z</time>
					</trkpt>
					<trkpt lat="43.023710" lon="11.720930">
						<ele>296</ele>
						<time>2026-05-04T23:28:44Z</time>
					</trkpt>
					<trkpt lat="43.023650" lon="11.723700">
						<ele>297</ele>
						<time>2026-05-04T23:29:20Z</time>
					</trkpt>
					<trkpt lat="43.023650" lon="11.723940">
						<ele>297</ele>
						<time>2026-05-04T23:29:23Z</time>
					</trkpt>
					<trkpt lat="43.023630" lon="11.724460">
						<ele>297</ele>
						<time>2026-05-04T23:29:30Z</time>
					</trkpt>
					<trkpt lat="43.023580" lon="11.724760">
						<ele>298</ele>
						<time>2026-05-04T23:29:34Z</time>
					</trkpt>
					<trkpt lat="43.023110" lon="11.726620">
						<ele>298</ele>
						<time>2026-05-04T23:30:00Z</time>
					</trkpt>
					<trkpt lat="43.022630" lon="11.728450">
						<ele>298</ele>
						<time>2026-05-04T23:30:25Z</time>
					</trkpt>
					<trkpt lat="43.022070" lon="11.730540">
						<ele>302</ele>
						<time>2026-05-04T23:30:54Z</time>
					</trkpt>
					<trkpt lat="43.021940" lon="11.731080">
						<ele>303</ele>
						<time>2026-05-04T23:31:01Z</time>
					</trkpt>
					<trkpt lat="43.021820" lon="11.731800">
						<ele>304</ele>
						<time>2026-05-04T23:31:11Z</time>
					</trkpt>
					<trkpt lat="43.021780" lon="11.731950">
						<ele>305</ele>
						<time>2026-05-04T23:31:13Z</time>
					</trkpt>
					<trkpt lat="43.021700" lon="11.732110">
						<ele>304</ele>
						<time>2026-05-04T23:31:16Z</time>
					</trkpt>
					<trkpt lat="43.021590" lon="11.732220">
						<ele>305</ele>
						<time>2026-05-04T23:31:18Z</time>
					</trkpt>
					<trkpt lat="43.021470" lon="11.732270">
						<ele>305</ele>
						<time>2026-05-04T23:31:20Z</time>
					</trkpt>
					<trkpt lat="43.021070" lon="11.732320">
						<ele>305</ele>
						<time>2026-05-04T23:31:27Z</time>
					</trkpt>
					<trkpt lat="43.020860" lon="11.732370">
						<ele>306</ele>
						<time>2026-05-04T23:31:31Z</time>
					</trkpt>
					<trkpt lat="43.020710" lon="11.732480">
						<ele>306</ele>
						<time>2026-05-04T23:31:34Z</time>
					</trkpt>
					<trkpt lat="43.020520" lon="11.732650">
						<ele>307</ele>
						<time>2026-05-04T23:31:38Z</time>
					</trkpt>
					<trkpt lat="43.020130" lon="11.733100">
						<ele>310</ele>
						<time>2026-05-04T23:31:47Z</time>
					</trkpt>
					<trkpt lat="43.019960" lon="11.733320">
						<ele>311</ele>
						<time>2026-05-04T23:31:51Z</time>
					</trkpt>
					<trkpt lat="43.019840" lon="11.733530">
						<ele>311</ele>
						<time>2026-05-04T23:31:55Z</time>
					</trkpt>
					<trkpt lat="43.019700" lon="11.733850">
						<ele>311</ele>
						<time>2026-05-04T23:32:00Z</time>
					</trkpt>
					<trkpt lat="43.019280" lon="11.735160">
						<ele>314</ele>
						<time>2026-05-04T23:32:18Z</time>
					</trkpt>
					<trkpt lat="43.019210" lon="11.735290">
						<ele>314</ele>
						<time>2026-05-04T23:32:20Z</time>
					</trkpt>
					<trkpt lat="43.019090" lon="11.735420">
						<ele>313</ele>
						<time>2026-05-04T23:32:23Z</time>
					</trkpt>
					<trkpt lat="43.018540" lon="11.735730">
						<ele>308</ele>
						<time>2026-05-04T23:32:34Z</time>
					</trkpt>
					<trkpt lat="43.018310" lon="11.735950">
						<ele>306</ele>
						<time>2026-05-04T23:32:39Z</time>
					</trkpt>
					<trkpt lat="43.018090" lon="11.736260">
						<ele>306</ele>
						<time>2026-05-04T23:32:44Z</time>
					</trkpt>
					<trkpt lat="43.017870" lon="11.736620">
						<ele>305</ele>
						<time>2026-05-04T23:32:51Z</time>
					</trkpt>
					<trkpt lat="43.017600" lon="11.737260">
						<ele>304</ele>
						<time>2026-05-04T23:33:00Z</time>
					</trkpt>
					<trkpt lat="43.017420" lon="11.737820">
						<ele>303</ele>
						<time>2026-05-04T23:33:08Z</time>
					</trkpt>
					<trkpt lat="43.017210" lon="11.738370">
						<ele>302</ele>
						<time>2026-05-04T23:33:16Z</time>
					</trkpt>
					<trkpt lat="43.016990" lon="11.739010">
						<ele>303</ele>
						<time>2026-05-04T23:33:25Z</time>
					</trkpt>
					<trkpt lat="43.016840" lon="11.739350">
						<ele>303</ele>
						<time>2026-05-04T23:33:31Z</time>
					</trkpt>
					<trkpt lat="43.016670" lon="11.739640">
						<ele>302</ele>
						<time>2026-05-04T23:33:35Z</time>
					</trkpt>
					<trkpt lat="43.016390" lon="11.739950">
						<ele>302</ele>
						<time>2026-05-04T23:33:42Z</time>
					</trkpt>
					<trkpt lat="43.016140" lon="11.740170">
						<ele>302</ele>
						<time>2026-05-04T23:33:47Z</time>
					</trkpt>
					<trkpt lat="43.014730" lon="11.741210">
						<ele>301</ele>
						<time>2026-05-04T23:34:16Z</time>
					</trkpt>
					<trkpt lat="43.012350" lon="11.742930">
						<ele>302</ele>
						<time>2026-05-04T23:35:03Z</time>
					</trkpt>
					<trkpt lat="43.011770" lon="11.743350">
						<ele>301</ele>
						<time>2026-05-04T23:35:15Z</time>
					</trkpt>
					<trkpt lat="43.011460" lon="11.743510">
						<ele>302</ele>
						<time>2026-05-04T23:35:21Z</time>
					</trkpt>
					<trkpt lat="43.011100" lon="11.743650">
						<ele>301</ele>
						<time>2026-05-04T23:35:28Z</time>
					</trkpt>
					<trkpt lat="43.010770" lon="11.743720">
						<ele>301</ele>
						<time>2026-05-04T23:35:34Z</time>
					</trkpt>
					<trkpt lat="43.010410" lon="11.743750">
						<ele>303</ele>
						<time>2026-05-04T23:35:40Z</time>
					</trkpt>
					<trkpt lat="43.008160" lon="11.743690">
						<ele>303</ele>
						<time>2026-05-04T23:36:20Z</time>
					</trkpt>
					<trkpt lat="43.007920" lon="11.743690">
						<ele>304</ele>
						<time>2026-05-04T23:36:24Z</time>
					</trkpt>
					<trkpt lat="43.007830" lon="11.743540">
						<ele>303</ele>
						<time>2026-05-04T23:36:27Z</time>
					</trkpt>
					<trkpt lat="43.007760" lon="11.743370">
						<ele>303</ele>
						<time>2026-05-04T23:36:29Z</time>
					</trkpt>
					<trkpt lat="43.007720" lon="11.743260">
						<ele>303</ele>
						<time>2026-05-04T23:36:31Z</time>
					</trkpt>
					<trkpt lat="43.007670" lon="11.743160">
						<ele>303</ele>
						<time>2026-05-04T23:36:33Z</time>
					</trkpt>
					<trkpt lat="43.007520" lon="11.742940">
						<ele>303</ele>
						<time>2026-05-04T23:36:36Z</time>
					</trkpt>
					<trkpt lat="43.007290" lon="11.742590">
						<ele>302</ele>
						<time>2026-05-04T23:36:43Z</time>
					</trkpt>
					<trkpt lat="43.007300" lon="11.742010">
						<ele>302</ele>
						<time>2026-05-04T23:36:50Z</time>
					</trkpt>
					<trkpt lat="43.007310" lon="11.741110">
						<ele>303</ele>
						<time>2026-05-04T23:37:02Z</time>
					</trkpt>
					<trkpt lat="43.007340" lon="11.738170">
						<ele>303</ele>
						<time>2026-05-04T23:37:40Z</time>
					</trkpt>
					<trkpt lat="43.007350" lon="11.736430">
						<ele>308</ele>
						<time>2026-05-04T23:38:03Z</time>
					</trkpt>
					<trkpt lat="43.007360" lon="11.734610">
						<ele>312</ele>
						<time>2026-05-04T23:38:26Z</time>
					</trkpt>
					<trkpt lat="43.007360" lon="11.734330">
						<ele>312</ele>
						<time>2026-05-04T23:38:30Z</time>
					</trkpt>
					<trkpt lat="43.007330" lon="11.733920">
						<ele>312</ele>
						<time>2026-05-04T23:38:35Z</time>
					</trkpt>
					<trkpt lat="43.007280" lon="11.733590">
						<ele>312</ele>
						<time>2026-05-04T23:38:40Z</time>
					</trkpt>
					<trkpt lat="43.007240" lon="11.733370">
						<ele>312</ele>
						<time>2026-05-04T23:38:43Z</time>
					</trkpt>
					<trkpt lat="43.007170" lon="11.733080">
						<ele>311</ele>
						<time>2026-05-04T23:38:47Z</time>
					</trkpt>
					<trkpt lat="43.007070" lon="11.732750">
						<ele>309</ele>
						<time>2026-05-04T23:38:51Z</time>
					</trkpt>
					<trkpt lat="43.006880" lon="11.732250">
						<ele>308</ele>
						<time>2026-05-04T23:38:59Z</time>
					</trkpt>
					<trkpt lat="43.006580" lon="11.731690">
						<ele>308</ele>
						<time>2026-05-04T23:39:08Z</time>
					</trkpt>
					<trkpt lat="43.006220" lon="11.731180">
						<ele>308</ele>
						<time>2026-05-04T23:39:17Z</time>
					</trkpt>
					<trkpt lat="43.005840" lon="11.730810">
						<ele>309</ele>
						<time>2026-05-04T23:39:25Z</time>
					</trkpt>
					<trkpt lat="43.005420" lon="11.730510">
						<ele>309</ele>
						<time>2026-05-04T23:39:34Z</time>
					</trkpt>
					<trkpt lat="43.004930" lon="11.730280">
						<ele>309</ele>
						<time>2026-05-04T23:39:43Z</time>
					</trkpt>
					<trkpt lat="43.003270" lon="11.729500">
						<ele>310</ele>
						<time>2026-05-04T23:40:14Z</time>
					</trkpt>
					<trkpt lat="43.002830" lon="11.729190">
						<ele>311</ele>
						<time>2026-05-04T23:40:23Z</time>
					</trkpt>
					<trkpt lat="43.002080" lon="11.728630">
						<ele>313</ele>
						<time>2026-05-04T23:40:38Z</time>
					</trkpt>
					<trkpt lat="43.001170" lon="11.727930">
						<ele>314</ele>
						<time>2026-05-04T23:40:57Z</time>
					</trkpt>
					<trkpt lat="43.001040" lon="11.727790">
						<ele>314</ele>
						<time>2026-05-04T23:41:00Z</time>
					</trkpt>
					<trkpt lat="43.000410" lon="11.727320">
						<ele>314</ele>
						<time>2026-05-04T23:41:12Z</time>
					</trkpt>
					<trkpt lat="42.998980" lon="11.726240">
						<ele>316</ele>
						<time>2026-05-04T23:41:42Z</time>
					</trkpt>
					<trkpt lat="42.998280" lon="11.725750">
						<ele>318</ele>
						<time>2026-05-04T23:41:56Z</time>
					</trkpt>
					<trkpt lat="42.997600" lon="11.725180">
						<ele>318</ele>
						<time>2026-05-04T23:42:10Z</time>
					</trkpt>
					<trkpt lat="42.996550" lon="11.724460">
						<ele>320</ele>
						<time>2026-05-04T23:42:31Z</time>
					</trkpt>
					<trkpt lat="42.996070" lon="11.724050">
						<ele>320</ele>
						<time>2026-05-04T23:42:41Z</time>
					</trkpt>
					<trkpt lat="42.995640" lon="11.723640">
						<ele>321</ele>
						<time>2026-05-04T23:42:50Z</time>
					</trkpt>
					<trkpt lat="42.994790" lon="11.722730">
						<ele>322</ele>
						<time>2026-05-04T23:43:09Z</time>
					</trkpt>
					<trkpt lat="42.994140" lon="11.722020">
						<ele>324</ele>
						<time>2026-05-04T23:43:24Z</time>
					</trkpt>
					<trkpt lat="42.993320" lon="11.721090">
						<ele>327</ele>
						<time>2026-05-04T23:43:43Z</time>
					</trkpt>
					<trkpt lat="42.990530" lon="11.718020">
						<ele>329</ele>
						<time>2026-05-04T23:44:47Z</time>
					</trkpt>
					<trkpt lat="42.989950" lon="11.717520">
						<ele>330</ele>
						<time>2026-05-04T23:44:59Z</time>
					</trkpt>
					<trkpt lat="42.989570" lon="11.717230">
						<ele>332</ele>
						<time>2026-05-04T23:45:07Z</time>
					</trkpt>
					<trkpt lat="42.988120" lon="11.716270">
						<ele>336</ele>
						<time>2026-05-04T23:45:35Z</time>
					</trkpt>
					<trkpt lat="42.987580" lon="11.715880">
						<ele>338</ele>
						<time>2026-05-04T23:45:46Z</time>
					</trkpt>
					<trkpt lat="42.987320" lon="11.715650">
						<ele>337</ele>
						<time>2026-05-04T23:45:52Z</time>
					</trkpt>
					<trkpt lat="42.987080" lon="11.715390">
						<ele>336</ele>
						<time>2026-05-04T23:45:57Z</time>
					</trkpt>
					<trkpt lat="42.985880" lon="11.714020">
						<ele>338</ele>
						<time>2026-05-04T23:46:25Z</time>
					</trkpt>
					<trkpt lat="42.985550" lon="11.713650">
						<ele>337</ele>
						<time>2026-05-04T23:46:33Z</time>
					</trkpt>
					<trkpt lat="42.985130" lon="11.713270">
						<ele>337</ele>
						<time>2026-05-04T23:46:42Z</time>
					</trkpt>
					<trkpt lat="42.984750" lon="11.713000">
						<ele>338</ele>
						<time>2026-05-04T23:46:49Z</time>
					</trkpt>
					<trkpt lat="42.984350" lon="11.712770">
						<ele>339</ele>
						<time>2026-05-04T23:46:57Z</time>
					</trkpt>
					<trkpt lat="42.983540" lon="11.712380">
						<ele>343</ele>
						<time>2026-05-04T23:47:12Z</time>
					</trkpt>
					<trkpt lat="42.982950" lon="11.712120">
						<ele>342</ele>
						<time>2026-05-04T23:47:23Z</time>
					</trkpt>
					<trkpt lat="42.982490" lon="11.711820">
						<ele>342</ele>
						<time>2026-05-04T23:47:32Z</time>
					</trkpt>
					<trkpt lat="42.982130" lon="11.711480">
						<ele>342</ele>
						<time>2026-05-04T23:47:40Z</time>
					</trkpt>
					<trkpt lat="42.981900" lon="11.711180">
						<ele>342</ele>
						<time>2026-05-04T23:47:46Z</time>
					</trkpt>
					<trkpt lat="42.981640" lon="11.710750">
						<ele>342</ele>
						<time>2026-05-04T23:47:53Z</time>
					</trkpt>
					<trkpt lat="42.981510" lon="11.710450">
						<ele>342</ele>
						<time>2026-05-04T23:47:58Z</time>
					</trkpt>
					<trkpt lat="42.981370" lon="11.710040">
						<ele>343</ele>
						<time>2026-05-04T23:48:03Z</time>
					</trkpt>
					<trkpt lat="42.981160" lon="11.709210">
						<ele>343</ele>
						<time>2026-05-04T23:48:15Z</time>
					</trkpt>
					<trkpt lat="42.981020" lon="11.708500">
						<ele>344</ele>
						<time>2026-05-04T23:48:24Z</time>
					</trkpt>
					<trkpt lat="42.980870" lon="11.707730">
						<ele>347</ele>
						<time>2026-05-04T23:48:35Z</time>
					</trkpt>
					<trkpt lat="42.980650" lon="11.706630">
						<ele>353</ele>
						<time>2026-05-04T23:48:50Z</time>
					</trkpt>
					<trkpt lat="42.980620" lon="11.706400">
						<ele>353</ele>
						<time>2026-05-04T23:48:53Z</time>
					</trkpt>
					<trkpt lat="42.980620" lon="11.706260">
						<ele>354</ele>
						<time>2026-05-04T23:48:54Z</time>
					</trkpt>
					<trkpt lat="42.980640" lon="11.705890">
						<ele>355</ele>
						<time>2026-05-04T23:48:59Z</time>
					</trkpt>
					<trkpt lat="42.980660" lon="11.705750">
						<ele>355</ele>
						<time>2026-05-04T23:49:01Z</time>
					</trkpt>
					<trkpt lat="42.980680" lon="11.705650">
						<ele>355</ele>
						<time>2026-05-04T23:49:03Z</time>
					</trkpt>
					<trkpt lat="42.980720" lon="11.705530">
						<ele>356</ele>
						<time>2026-05-04T23:49:04Z</time>
					</trkpt>
					<trkpt lat="42.980800" lon="11.705350">
						<ele>356</ele>
						<time>2026-05-04T23:49:07Z</time>
					</trkpt>
					<trkpt lat="42.980920" lon="11.705190">
						<ele>355</ele>
						<time>2026-05-04T23:49:10Z</time>
					</trkpt>
					<trkpt lat="42.981230" lon="11.704830">
						<ele>353</ele>
						<time>2026-05-04T23:49:17Z</time>
					</trkpt>
					<trkpt lat="42.981350" lon="11.704680">
						<ele>353</ele>
						<time>2026-05-04T23:49:20Z</time>
					</trkpt>
					<trkpt lat="42.981450" lon="11.704520">
						<ele>353</ele>
						<time>2026-05-04T23:49:23Z</time>
					</trkpt>
					<trkpt lat="42.981490" lon="11.704430">
						<ele>353</ele>
						<time>2026-05-04T23:49:24Z</time>
					</trkpt>
					<trkpt lat="42.981650" lon="11.704170">
						<ele>352</ele>
						<time>2026-05-04T23:49:29Z</time>
					</trkpt>
					<trkpt lat="42.981890" lon="11.703800">
						<ele>353</ele>
						<time>2026-05-04T23:49:35Z</time>
					</trkpt>
					<trkpt lat="42.982040" lon="11.703550">
						<ele>353</ele>
						<time>2026-05-04T23:49:39Z</time>
					</trkpt>
					<trkpt lat="42.982230" lon="11.703190">
						<ele>352</ele>
						<time>2026-05-04T23:49:45Z</time>
					</trkpt>
					<trkpt lat="42.982350" lon="11.702920">
						<ele>351</ele>
						<time>2026-05-04T23:49:49Z</time>
					</trkpt>
					<trkpt lat="42.982470" lon="11.702650">
						<ele>349</ele>
						<time>2026-05-04T23:49:53Z</time>
					</trkpt>
					<trkpt lat="42.982630" lon="11.702230">
						<ele>347</ele>
						<time>2026-05-04T23:49:59Z</time>
					</trkpt>
					<trkpt lat="42.983240" lon="11.700580">
						<ele>335</ele>
						<time>2026-05-04T23:50:23Z</time>
					</trkpt>
					<trkpt lat="42.983400" lon="11.700150">
						<ele>333</ele>
						<time>2026-05-04T23:50:30Z</time>
					</trkpt>
					<trkpt lat="42.983790" lon="11.699250">
						<ele>330</ele>
						<time>2026-05-04T23:50:43Z</time>
					</trkpt>
					<trkpt lat="42.984230" lon="11.698310">
						<ele>326</ele>
						<time>2026-05-04T23:50:58Z</time>
					</trkpt>
					<trkpt lat="42.984330" lon="11.698170">
						<ele>325</ele>
						<time>2026-05-04T23:51:00Z</time>
					</trkpt>
					<trkpt lat="42.984900" lon="11.697180">
						<ele>320</ele>
						<time>2026-05-04T23:51:17Z</time>
					</trkpt>
					<trkpt lat="42.984990" lon="11.696960">
						<ele>319</ele>
						<time>2026-05-04T23:51:20Z</time>
					</trkpt>
					<trkpt lat="42.985080" lon="11.696800">
						<ele>319</ele>
						<time>2026-05-04T23:51:23Z</time>
					</trkpt>
					<trkpt lat="42.985540" lon="11.696080">
						<ele>320</ele>
						<time>2026-05-04T23:51:35Z</time>
					</trkpt>
					<trkpt lat="42.985560" lon="11.696040">
						<ele>320</ele>
						<time>2026-05-04T23:51:36Z</time>
					</trkpt>
					<trkpt lat="42.985560" lon="11.695990">
						<ele>320</ele>
						<time>2026-05-04T23:51:36Z</time>
					</trkpt>
					<trkpt lat="42.985600" lon="11.695990">
						<ele>320</ele>
						<time>2026-05-04T23:51:37Z</time>
					</trkpt>
					<trkpt lat="42.985620" lon="11.695970">
						<ele>320</ele>
						<time>2026-05-04T23:51:38Z</time>
					</trkpt>
					<trkpt lat="42.986160" lon="11.695190">
						<ele>320</ele>
						<time>2026-05-04T23:51:52Z</time>
					</trkpt>
					<trkpt lat="42.986230" lon="11.695100">
						<ele>321</ele>
						<time>2026-05-04T23:51:53Z</time>
					</trkpt>
					<trkpt lat="42.986360" lon="11.694970">
						<ele>321</ele>
						<time>2026-05-04T23:51:56Z</time>
					</trkpt>
					<trkpt lat="42.986540" lon="11.694710">
						<ele>320</ele>
						<time>2026-05-04T23:52:01Z</time>
					</trkpt>
					<trkpt lat="42.986650" lon="11.694500">
						<ele>319</ele>
						<time>2026-05-04T23:52:04Z</time>
					</trkpt>
					<trkpt lat="42.987280" lon="11.693610">
						<ele>319</ele>
						<time>2026-05-04T23:52:20Z</time>
					</trkpt>
					<trkpt lat="42.987490" lon="11.693310">
						<ele>318</ele>
						<time>2026-05-04T23:52:26Z</time>
					</trkpt>
					<trkpt lat="42.988310" lon="11.692150">
						<ele>315</ele>
						<time>2026-05-04T23:52:47Z</time>
					</trkpt>
					<trkpt lat="42.988540" lon="11.691820">
						<ele>315</ele>
						<time>2026-05-04T23:52:53Z</time>
					</trkpt>
					<trkpt lat="42.989170" lon="11.690920">
						<ele>314</ele>
						<time>2026-05-04T23:53:09Z</time>
					</trkpt>
					<trkpt lat="42.989700" lon="11.690170">
						<ele>311</ele>
						<time>2026-05-04T23:53:22Z</time>
					</trkpt>
					<trkpt lat="42.990330" lon="11.689280">
						<ele>309</ele>
						<time>2026-05-04T23:53:39Z</time>
					</trkpt>
					<trkpt lat="42.990510" lon="11.689010">
						<ele>308</ele>
						<time>2026-05-04T23:53:43Z</time>
					</trkpt>
					<trkpt lat="42.990590" lon="11.688890">
						<ele>308</ele>
						<time>2026-05-04T23:53:45Z</time>
					</trkpt>
					<trkpt lat="42.990630" lon="11.688780">
						<ele>308</ele>
						<time>2026-05-04T23:53:47Z</time>
					</trkpt>
					<trkpt lat="42.990670" lon="11.688620">
						<ele>308</ele>
						<time>2026-05-04T23:53:49Z</time>
					</trkpt>
					<trkpt lat="42.990710" lon="11.687680">
						<ele>308</ele>
						<time>2026-05-04T23:54:01Z</time>
					</trkpt>
					<trkpt lat="42.990740" lon="11.687530">
						<ele>308</ele>
						<time>2026-05-04T23:54:04Z</time>
					</trkpt>
					<trkpt lat="42.990790" lon="11.687400">
						<ele>309</ele>
						<time>2026-05-04T23:54:05Z</time>
					</trkpt>
					<trkpt lat="42.990880" lon="11.687270">
						<ele>309</ele>
						<time>2026-05-04T23:54:08Z</time>
					</trkpt>
					<trkpt lat="42.990960" lon="11.687190">
						<ele>310</ele>
						<time>2026-05-04T23:54:10Z</time>
					</trkpt>
					<trkpt lat="42.991030" lon="11.687140">
						<ele>310</ele>
						<time>2026-05-04T23:54:11Z</time>
					</trkpt>
					<trkpt lat="42.991110" lon="11.687100">
						<ele>311</ele>
						<time>2026-05-04T23:54:12Z</time>
					</trkpt>
					<trkpt lat="42.991360" lon="11.687040">
						<ele>311</ele>
						<time>2026-05-04T23:54:17Z</time>
					</trkpt>
					<trkpt lat="42.992540" lon="11.686770">
						<ele>310</ele>
						<time>2026-05-04T23:54:38Z</time>
					</trkpt>
					<trkpt lat="42.993270" lon="11.686580">
						<ele>309</ele>
						<time>2026-05-04T23:54:51Z</time>
					</trkpt>
					<trkpt lat="42.993500" lon="11.686500">
						<ele>309</ele>
						<time>2026-05-04T23:54:56Z</time>
					</trkpt>
					<trkpt lat="42.993590" lon="11.686440">
						<ele>310</ele>
						<time>2026-05-04T23:54:57Z</time>
					</trkpt>
					<trkpt lat="42.993840" lon="11.686260">
						<ele>310</ele>
						<time>2026-05-04T23:55:03Z</time>
					</trkpt>
					<trkpt lat="42.995460" lon="11.685030">
						<ele>308</ele>
						<time>2026-05-04T23:55:35Z</time>
					</trkpt>
					<trkpt lat="42.996080" lon="11.684550">
						<ele>308</ele>
						<time>2026-05-04T23:55:48Z</time>
					</trkpt>
					<trkpt lat="42.996220" lon="11.684410">
						<ele>308</ele>
						<time>2026-05-04T23:55:51Z</time>
					</trkpt>
					<trkpt lat="42.996320" lon="11.684310">
						<ele>308</ele>
						<time>2026-05-04T23:55:53Z</time>
					</trkpt>
					<trkpt lat="42.996390" lon="11.684190">
						<ele>309</ele>
						<time>2026-05-04T23:55:55Z</time>
					</trkpt>
					<trkpt lat="42.996450" lon="11.684080">
						<ele>309</ele>
						<time>2026-05-04T23:55:57Z</time>
					</trkpt>
					<trkpt lat="42.996530" lon="11.683880">
						<ele>309</ele>
						<time>2026-05-04T23:56:00Z</time>
					</trkpt>
					<trkpt lat="42.996600" lon="11.683740">
						<ele>309</ele>
						<time>2026-05-04T23:56:02Z</time>
					</trkpt>
					<trkpt lat="42.996630" lon="11.683700">
						<ele>309</ele>
						<time>2026-05-04T23:56:03Z</time>
					</trkpt>
					<trkpt lat="42.996690" lon="11.683640">
						<ele>309</ele>
						<time>2026-05-04T23:56:04Z</time>
					</trkpt>
					<trkpt lat="42.996740" lon="11.683600">
						<ele>309</ele>
						<time>2026-05-04T23:56:05Z</time>
					</trkpt>
					<trkpt lat="42.996820" lon="11.683560">
						<ele>309</ele>
						<time>2026-05-04T23:56:07Z</time>
					</trkpt>
					<trkpt lat="42.996970" lon="11.683520">
						<ele>309</ele>
						<time>2026-05-04T23:56:10Z</time>
					</trkpt>
					<trkpt lat="42.997090" lon="11.683500">
						<ele>309</ele>
						<time>2026-05-04T23:56:12Z</time>
					</trkpt>
					<trkpt lat="42.997210" lon="11.683510">
						<ele>309</ele>
						<time>2026-05-04T23:56:14Z</time>
					</trkpt>
					<trkpt lat="42.997990" lon="11.683580">
						<ele>313</ele>
						<time>2026-05-04T23:56:28Z</time>
					</trkpt>
					<trkpt lat="42.998710" lon="11.683620">
						<ele>316</ele>
						<time>2026-05-04T23:56:41Z</time>
					</trkpt>
					<trkpt lat="42.999440" lon="11.683630">
						<ele>318</ele>
						<time>2026-05-04T23:56:54Z</time>
					</trkpt>
					<trkpt lat="42.999630" lon="11.683620">
						<ele>318</ele>
						<time>2026-05-04T23:56:57Z</time>
					</trkpt>
					<trkpt lat="42.999730" lon="11.683600">
						<ele>319</ele>
						<time>2026-05-04T23:56:59Z</time>
					</trkpt>
					<trkpt lat="42.999740" lon="11.683600">
						<ele>319</ele>
						<time>2026-05-04T23:56:59Z</time>
					</trkpt>
					<trkpt lat="42.999800" lon="11.683570">
						<ele>319</ele>
						<time>2026-05-04T23:57:00Z</time>
					</trkpt>
					<trkpt lat="42.999900" lon="11.683520">
						<ele>320</ele>
						<time>2026-05-04T23:57:02Z</time>
					</trkpt>
					<trkpt lat="43.000450" lon="11.683030">
						<ele>320</ele>
						<time>2026-05-04T23:57:14Z</time>
					</trkpt>
					<trkpt lat="43.000650" lon="11.682850">
						<ele>319</ele>
						<time>2026-05-04T23:57:18Z</time>
					</trkpt>
					<trkpt lat="43.000840" lon="11.682680">
						<ele>318</ele>
						<time>2026-05-04T23:57:22Z</time>
					</trkpt>
					<trkpt lat="43.001280" lon="11.682270">
						<ele>316</ele>
						<time>2026-05-04T23:57:32Z</time>
					</trkpt>
					<trkpt lat="43.001500" lon="11.682010">
						<ele>313</ele>
						<time>2026-05-04T23:57:37Z</time>
					</trkpt>
					<trkpt lat="43.001660" lon="11.681790">
						<ele>310</ele>
						<time>2026-05-04T23:57:41Z</time>
					</trkpt>
					<trkpt lat="43.001720" lon="11.681670">
						<ele>309</ele>
						<time>2026-05-04T23:57:43Z</time>
					</trkpt>
					<trkpt lat="43.001790" lon="11.681530">
						<ele>308</ele>
						<time>2026-05-04T23:57:45Z</time>
					</trkpt>
					<trkpt lat="43.001870" lon="11.681320">
						<ele>308</ele>
						<time>2026-05-04T23:57:48Z</time>
					</trkpt>
					<trkpt lat="43.001940" lon="11.681140">
						<ele>308</ele>
						<time>2026-05-04T23:57:51Z</time>
					</trkpt>
					<trkpt lat="43.002060" lon="11.680830">
						<ele>308</ele>
						<time>2026-05-04T23:57:55Z</time>
					</trkpt>
					<trkpt lat="43.002170" lon="11.680540">
						<ele>308</ele>
						<time>2026-05-04T23:57:59Z</time>
					</trkpt>
					<trkpt lat="43.002200" lon="11.680470">
						<ele>308</ele>
						<time>2026-05-04T23:58:01Z</time>
					</trkpt>
					<trkpt lat="43.002330" lon="11.680160">
						<ele>307</ele>
						<time>2026-05-04T23:58:05Z</time>
					</trkpt>
					<trkpt lat="43.002600" lon="11.679560">
						<ele>308</ele>
						<time>2026-05-04T23:58:14Z</time>
					</trkpt>
					<trkpt lat="43.003100" lon="11.678510">
						<ele>310</ele>
						<time>2026-05-04T23:58:31Z</time>
					</trkpt>
					<trkpt lat="43.003220" lon="11.678210">
						<ele>311</ele>
						<time>2026-05-04T23:58:35Z</time>
					</trkpt>
					<trkpt lat="43.003430" lon="11.677680">
						<ele>311</ele>
						<time>2026-05-04T23:58:43Z</time>
					</trkpt>
					<trkpt lat="43.003580" lon="11.677170">
						<ele>312</ele>
						<time>2026-05-04T23:58:50Z</time>
					</trkpt>
					<trkpt lat="43.003830" lon="11.676150">
						<ele>314</ele>
						<time>2026-05-04T23:59:04Z</time>
					</trkpt>
					<trkpt lat="43.004030" lon="11.675210">
						<ele>314</ele>
						<time>2026-05-04T23:59:17Z</time>
					</trkpt>
					<trkpt lat="43.004100" lon="11.674950">
						<ele>315</ele>
						<time>2026-05-04T23:59:20Z</time>
					</trkpt>
					<trkpt lat="43.004150" lon="11.674800">
						<ele>315</ele>
						<time>2026-05-04T23:59:23Z</time>
					</trkpt>
					<trkpt lat="43.004340" lon="11.674430">
						<ele>316</ele>
						<time>2026-05-04T23:59:28Z</time>
					</trkpt>
					<trkpt lat="43.004420" lon="11.674300">
						<ele>317</ele>
						<time>2026-05-04T23:59:31Z</time>
					</trkpt>
					<trkpt lat="43.004510" lon="11.674170">
						<ele>317</ele>
						<time>2026-05-04T23:59:33Z</time>
					</trkpt>
					<trkpt lat="43.004810" lon="11.673830">
						<ele>318</ele>
						<time>2026-05-04T23:59:40Z</time>
					</trkpt>
					<trkpt lat="43.004960" lon="11.673590">
						<ele>318</ele>
						<time>2026-05-04T23:59:44Z</time>
					</trkpt>
					<trkpt lat="43.005290" lon="11.673070">
						<ele>315</ele>
						<time>2026-05-04T23:59:53Z</time>
					</trkpt>
					<trkpt lat="43.005510" lon="11.672780">
						<ele>314</ele>
						<time>2026-05-04T23:59:58Z</time>
					</trkpt>
					<trkpt lat="43.005680" lon="11.672570">
						<ele>314</ele>
						<time>2026-05-05T00:00:02Z</time>
					</trkpt>
					<trkpt lat="43.005740" lon="11.672490">
						<ele>314</ele>
						<time>2026-05-05T00:00:04Z</time>
					</trkpt>
					<trkpt lat="43.005940" lon="11.672300">
						<ele>315</ele>
						<time>2026-05-05T00:00:08Z</time>
					</trkpt>
					<trkpt lat="43.006630" lon="11.671650">
						<ele>321</ele>
						<time>2026-05-05T00:00:23Z</time>
					</trkpt>
					<trkpt lat="43.007210" lon="11.670970">
						<ele>326</ele>
						<time>2026-05-05T00:00:37Z</time>
					</trkpt>
					<trkpt lat="43.007440" lon="11.670700">
						<ele>327</ele>
						<time>2026-05-05T00:00:42Z</time>
					</trkpt>
					<trkpt lat="43.007510" lon="11.670590">
						<ele>327</ele>
						<time>2026-05-05T00:00:44Z</time>
					</trkpt>
					<trkpt lat="43.007570" lon="11.670490">
						<ele>327</ele>
						<time>2026-05-05T00:00:46Z</time>
					</trkpt>
					<trkpt lat="43.007700" lon="11.670160">
						<ele>326</ele>
						<time>2026-05-05T00:00:51Z</time>
					</trkpt>
					<trkpt lat="43.007770" lon="11.669930">
						<ele>325</ele>
						<time>2026-05-05T00:00:54Z</time>
					</trkpt>
					<trkpt lat="43.007940" lon="11.669260">
						<ele>322</ele>
						<time>2026-05-05T00:01:03Z</time>
					</trkpt>
					<trkpt lat="43.008010" lon="11.669080">
						<ele>320</ele>
						<time>2026-05-05T00:01:06Z</time>
					</trkpt>
					<trkpt lat="43.008060" lon="11.669000">
						<ele>319</ele>
						<time>2026-05-05T00:01:07Z</time>
					</trkpt>
					<trkpt lat="43.009150" lon="11.667650">
						<ele>307</ele>
						<time>2026-05-05T00:01:33Z</time>
					</trkpt>
					<trkpt lat="43.009610" lon="11.667050">
						<ele>307</ele>
						<time>2026-05-05T00:01:45Z</time>
					</trkpt>
					<trkpt lat="43.009790" lon="11.666800">
						<ele>307</ele>
						<time>2026-05-05T00:01:49Z</time>
					</trkpt>
					<trkpt lat="43.010420" lon="11.665870">
						<ele>308</ele>
						<time>2026-05-05T00:02:06Z</time>
					</trkpt>
					<trkpt lat="43.011570" lon="11.664170">
						<ele>308</ele>
						<time>2026-05-05T00:02:36Z</time>
					</trkpt>
					<trkpt lat="43.011900" lon="11.663710">
						<ele>308</ele>
						<time>2026-05-05T00:02:44Z</time>
					</trkpt>
					<trkpt lat="43.012090" lon="11.663470">
						<ele>307</ele>
						<time>2026-05-05T00:02:49Z</time>
					</trkpt>
					<trkpt lat="43.012340" lon="11.663140">
						<ele>306</ele>
						<time>2026-05-05T00:02:55Z</time>
					</trkpt>
					<trkpt lat="43.012820" lon="11.662370">
						<ele>303</ele>
						<time>2026-05-05T00:03:08Z</time>
					</trkpt>
					<trkpt lat="43.012880" lon="11.662280">
						<ele>303</ele>
						<time>2026-05-05T00:03:10Z</time>
					</trkpt>
					<trkpt lat="43.013010" lon="11.662140">
						<ele>303</ele>
						<time>2026-05-05T00:03:13Z</time>
					</trkpt>
					<trkpt lat="43.013440" lon="11.661730">
						<ele>305</ele>
						<time>2026-05-05T00:03:22Z</time>
					</trkpt>
					<trkpt lat="43.013730" lon="11.661430">
						<ele>307</ele>
						<time>2026-05-05T00:03:28Z</time>
					</trkpt>
					<trkpt lat="43.014220" lon="11.660890">
						<ele>310</ele>
						<time>2026-05-05T00:03:40Z</time>
					</trkpt>
					<trkpt lat="43.014430" lon="11.660630">
						<ele>310</ele>
						<time>2026-05-05T00:03:45Z</time>
					</trkpt>
					<trkpt lat="43.014610" lon="11.660380">
						<ele>309</ele>
						<time>2026-05-05T00:03:49Z</time>
					</trkpt>
					<trkpt lat="43.014780" lon="11.660130">
						<ele>309</ele>
						<time>2026-05-05T00:03:54Z</time>
					</trkpt>
					<trkpt lat="43.014910" lon="11.659920">
						<ele>309</ele>
						<time>2026-05-05T00:03:57Z</time>
					</trkpt>
					<trkpt lat="43.015020" lon="11.659720">
						<ele>309</ele>
						<time>2026-05-05T00:04:01Z</time>
					</trkpt>
					<trkpt lat="43.015180" lon="11.659360">
						<ele>308</ele>
						<time>2026-05-05T00:04:06Z</time>
					</trkpt>
					<trkpt lat="43.015580" lon="11.658400">
						<ele>303</ele>
						<time>2026-05-05T00:04:20Z</time>
					</trkpt>
					<trkpt lat="43.016020" lon="11.657490">
						<ele>299</ele>
						<time>2026-05-05T00:04:35Z</time>
					</trkpt>
					<trkpt lat="43.016190" lon="11.657170">
						<ele>298</ele>
						<time>2026-05-05T00:04:40Z</time>
					</trkpt>
					<trkpt lat="43.016300" lon="11.657000">
						<ele>298</ele>
						<time>2026-05-05T00:04:43Z</time>
					</trkpt>
					<trkpt lat="43.016430" lon="11.656830">
						<ele>298</ele>
						<time>2026-05-05T00:04:46Z</time>
					</trkpt>
					<trkpt lat="43.016730" lon="11.656470">
						<ele>297</ele>
						<time>2026-05-05T00:04:53Z</time>
					</trkpt>
					<trkpt lat="43.017040" lon="11.656080">
						<ele>294</ele>
						<time>2026-05-05T00:05:01Z</time>
					</trkpt>
					<trkpt lat="43.017140" lon="11.655940">
						<ele>294</ele>
						<time>2026-05-05T00:05:03Z</time>
					</trkpt>
					<trkpt lat="43.017490" lon="11.655350">
						<ele>292</ele>
						<time>2026-05-05T00:05:13Z</time>
					</trkpt>
					<trkpt lat="43.018270" lon="11.653920">
						<ele>291</ele>
						<time>2026-05-05T00:05:36Z</time>
					</trkpt>
					<trkpt lat="43.018450" lon="11.653520">
						<ele>290</ele>
						<time>2026-05-05T00:05:42Z</time>
					</trkpt>
					<trkpt lat="43.019200" lon="11.651640">
						<ele>287</ele>
						<time>2026-05-05T00:06:10Z</time>
					</trkpt>
					<trkpt lat="43.019280" lon="11.651460">
						<ele>286</ele>
						<time>2026-05-05T00:06:13Z</time>
					</trkpt>
					<trkpt lat="43.019390" lon="11.651240">
						<ele>285</ele>
						<time>2026-05-05T00:06:16Z</time>
					</trkpt>
					<trkpt lat="43.019450" lon="11.651140">
						<ele>285</ele>
						<time>2026-05-05T00:06:18Z</time>
					</trkpt>
					<trkpt lat="43.019570" lon="11.650990">
						<ele>284</ele>
						<time>2026-05-05T00:06:21Z</time>
					</trkpt>
					<trkpt lat="43.019770" lon="11.650770">
						<ele>283</ele>
						<time>2026-05-05T00:06:25Z</time>
					</trkpt>
					<trkpt lat="43.020230" lon="11.650320">
						<ele>279</ele>
						<time>2026-05-05T00:06:36Z</time>
					</trkpt>
					<trkpt lat="43.020290" lon="11.650250">
						<ele>279</ele>
						<time>2026-05-05T00:06:37Z</time>
					</trkpt>
					<trkpt lat="43.020320" lon="11.650190">
						<ele>279</ele>
						<time>2026-05-05T00:06:38Z</time>
					</trkpt>
					<trkpt lat="43.020380" lon="11.650080">
						<ele>279</ele>
						<time>2026-05-05T00:06:40Z</time>
					</trkpt>
					<trkpt lat="43.020450" lon="11.649910">
						<ele>278</ele>
						<time>2026-05-05T00:06:42Z</time>
					</trkpt>
					<trkpt lat="43.020480" lon="11.649800">
						<ele>278</ele>
						<time>2026-05-05T00:06:44Z</time>
					</trkpt>
					<trkpt lat="43.020530" lon="11.649560">
						<ele>278</ele>
						<time>2026-05-05T00:06:47Z</time>
					</trkpt>
					<trkpt lat="43.020540" lon="11.649430">
						<ele>278</ele>
						<time>2026-05-05T00:06:49Z</time>
					</trkpt>
					<trkpt lat="43.020560" lon="11.649160">
						<ele>278</ele>
						<time>2026-05-05T00:06:52Z</time>
					</trkpt>
					<trkpt lat="43.020550" lon="11.648830">
						<ele>278</ele>
						<time>2026-05-05T00:06:57Z</time>
					</trkpt>
					<trkpt lat="43.020530" lon="11.648570">
						<ele>279</ele>
						<time>2026-05-05T00:07:00Z</time>
					</trkpt>
					<trkpt lat="43.020480" lon="11.648180">
						<ele>278</ele>
						<time>2026-05-05T00:07:05Z</time>
					</trkpt>
					<trkpt lat="43.019980" lon="11.644640">
						<ele>267</ele>
						<time>2026-05-05T00:07:52Z</time>
					</trkpt>
					<trkpt lat="43.019940" lon="11.644320">
						<ele>267</ele>
						<time>2026-05-05T00:07:56Z</time>
					</trkpt>
					<trkpt lat="43.019900" lon="11.644020">
						<ele>267</ele>
						<time>2026-05-05T00:08:00Z</time>
					</trkpt>
					<trkpt lat="43.019870" lon="11.643650">
						<ele>268</ele>
						<time>2026-05-05T00:08:05Z</time>
					</trkpt>
					<trkpt lat="43.019810" lon="11.642750">
						<ele>270</ele>
						<time>2026-05-05T00:08:17Z</time>
					</trkpt>
					<trkpt lat="43.019810" lon="11.642630">
						<ele>270</ele>
						<time>2026-05-05T00:08:18Z</time>
					</trkpt>
					<trkpt lat="43.019820" lon="11.642520">
						<ele>270</ele>
						<time>2026-05-05T00:08:20Z</time>
					</trkpt>
					<trkpt lat="43.019840" lon="11.642440">
						<ele>270</ele>
						<time>2026-05-05T00:08:21Z</time>
					</trkpt>
					<trkpt lat="43.019870" lon="11.642360">
						<ele>271</ele>
						<time>2026-05-05T00:08:22Z</time>
					</trkpt>
					<trkpt lat="43.019960" lon="11.642180">
						<ele>271</ele>
						<time>2026-05-05T00:08:25Z</time>
					</trkpt>
					<trkpt lat="43.021080" lon="11.640380">
						<ele>283</ele>
						<time>2026-05-05T00:08:56Z</time>
					</trkpt>
					<trkpt lat="43.021160" lon="11.640220">
						<ele>284</ele>
						<time>2026-05-05T00:08:58Z</time>
					</trkpt>
					<trkpt lat="43.021230" lon="11.640060">
						<ele>284</ele>
						<time>2026-05-05T00:09:01Z</time>
					</trkpt>
					<trkpt lat="43.021320" lon="11.639760">
						<ele>284</ele>
						<time>2026-05-05T00:09:05Z</time>
					</trkpt>
					<trkpt lat="43.021410" lon="11.639350">
						<ele>285</ele>
						<time>2026-05-05T00:09:10Z</time>
					</trkpt>
					<trkpt lat="43.021820" lon="11.636760">
						<ele>286</ele>
						<time>2026-05-05T00:09:45Z</time>
					</trkpt>
					<trkpt lat="43.021930" lon="11.636050">
						<ele>284</ele>
						<time>2026-05-05T00:09:54Z</time>
					</trkpt>
					<trkpt lat="43.022070" lon="11.635160">
						<ele>280</ele>
						<time>2026-05-05T00:10:06Z</time>
					</trkpt>
					<trkpt lat="43.022340" lon="11.633350">
						<ele>272</ele>
						<time>2026-05-05T00:10:30Z</time>
					</trkpt>
					<trkpt lat="43.022370" lon="11.633190">
						<ele>271</ele>
						<time>2026-05-05T00:10:32Z</time>
					</trkpt>
					<trkpt lat="43.022440" lon="11.633010">
						<ele>270</ele>
						<time>2026-05-05T00:10:35Z</time>
					</trkpt>
					<trkpt lat="43.022570" lon="11.632780">
						<ele>270</ele>
						<time>2026-05-05T00:10:39Z</time>
					</trkpt>
					<trkpt lat="43.022670" lon="11.632660">
						<ele>269</ele>
						<time>2026-05-05T00:10:41Z</time>
					</trkpt>
					<trkpt lat="43.022770" lon="11.632590">
						<ele>269</ele>
						<time>2026-05-05T00:10:43Z</time>
					</trkpt>
					<trkpt lat="43.022890" lon="11.632540">
						<ele>269</ele>
						<time>2026-05-05T00:10:45Z</time>
					</trkpt>
					<trkpt lat="43.023060" lon="11.632510">
						<ele>268</ele>
						<time>2026-05-05T00:10:48Z</time>
					</trkpt>
					<trkpt lat="43.023160" lon="11.632480">
						<ele>268</ele>
						<time>2026-05-05T00:10:50Z</time>
					</trkpt>
					<trkpt lat="43.023300" lon="11.632410">
						<ele>268</ele>
						<time>2026-05-05T00:10:53Z</time>
					</trkpt>
					<trkpt lat="43.023380" lon="11.632350">
						<ele>268</ele>
						<time>2026-05-05T00:10:54Z</time>
					</trkpt>
					<trkpt lat="43.024140" lon="11.631670">
						<ele>264</ele>
						<time>2026-05-05T00:11:11Z</time>
					</trkpt>
					<trkpt lat="43.024510" lon="11.631330">
						<ele>263</ele>
						<time>2026-05-05T00:11:19Z</time>
					</trkpt>
					<trkpt lat="43.024550" lon="11.631270">
						<ele>263</ele>
						<time>2026-05-05T00:11:20Z</time>
					</trkpt>
					<trkpt lat="43.024610" lon="11.631180">
						<ele>263</ele>
						<time>2026-05-05T00:11:21Z</time>
					</trkpt>
					<trkpt lat="43.024660" lon="11.631060">
						<ele>263</ele>
						<time>2026-05-05T00:11:23Z</time>
					</trkpt>
					<trkpt lat="43.024670" lon="11.630960">
						<ele>263</ele>
						<time>2026-05-05T00:11:24Z</time>
					</trkpt>
					<trkpt lat="43.024700" lon="11.630440">
						<ele>265</ele>
						<time>2026-05-05T00:11:31Z</time>
					</trkpt>
					<trkpt lat="43.024700" lon="11.630350">
						<ele>265</ele>
						<time>2026-05-05T00:11:32Z</time>
					</trkpt>
					<trkpt lat="43.024750" lon="11.630090">
						<ele>266</ele>
						<time>2026-05-05T00:11:36Z</time>
					</trkpt>
					<trkpt lat="43.024810" lon="11.629910">
						<ele>267</ele>
						<time>2026-05-05T00:11:38Z</time>
					</trkpt>
					<trkpt lat="43.024920" lon="11.629670">
						<ele>268</ele>
						<time>2026-05-05T00:11:42Z</time>
					</trkpt>
					<trkpt lat="43.025350" lon="11.628830">
						<ele>272</ele>
						<time>2026-05-05T00:11:55Z</time>
					</trkpt>
					<trkpt lat="43.025720" lon="11.628120">
						<ele>276</ele>
						<time>2026-05-05T00:12:07Z</time>
					</trkpt>
					<trkpt lat="43.025780" lon="11.628030">
						<ele>277</ele>
						<time>2026-05-05T00:12:08Z</time>
					</trkpt>
					<trkpt lat="43.025860" lon="11.627970">
						<ele>277</ele>
						<time>2026-05-05T00:12:10Z</time>
					</trkpt>
					<trkpt lat="43.025850" lon="11.627910">
						<ele>278</ele>
						<time>2026-05-05T00:12:11Z</time>
					</trkpt>
					<trkpt lat="43.025860" lon="11.627870">
						<ele>278</ele>
						<time>2026-05-05T00:12:11Z</time>
					</trkpt>
					<trkpt lat="43.025890" lon="11.627760">
						<ele>279</ele>
						<time>2026-05-05T00:12:13Z</time>
					</trkpt>
					<trkpt lat="43.026320" lon="11.626920">
						<ele>284</ele>
						<time>2026-05-05T00:12:26Z</time>
					</trkpt>
					<trkpt lat="43.026340" lon="11.626870">
						<ele>284</ele>
						<time>2026-05-05T00:12:27Z</time>
					</trkpt>
					<trkpt lat="43.026340" lon="11.626820">
						<ele>284</ele>
						<time>2026-05-05T00:12:27Z</time>
					</trkpt>
					<trkpt lat="43.026330" lon="11.626730">
						<ele>285</ele>
						<time>2026-05-05T00:12:29Z</time>
					</trkpt>
					<trkpt lat="43.026290" lon="11.626690">
						<ele>285</ele>
						<time>2026-05-05T00:12:30Z</time>
					</trkpt>
					<trkpt lat="43.026260" lon="11.626670">
						<ele>286</ele>
						<time>2026-05-05T00:12:30Z</time>
					</trkpt>
					<trkpt lat="43.025570" lon="11.626450">
						<ele>291</ele>
						<time>2026-05-05T00:12:43Z</time>
					</trkpt>
					<trkpt lat="43.025410" lon="11.626380">
						<ele>292</ele>
						<time>2026-05-05T00:12:46Z</time>
					</trkpt>
					<trkpt lat="43.025300" lon="11.626310">
						<ele>293</ele>
						<time>2026-05-05T00:12:48Z</time>
					</trkpt>
					<trkpt lat="43.025210" lon="11.626220">
						<ele>294</ele>
						<time>2026-05-05T00:12:50Z</time>
					</trkpt>
					<trkpt lat="43.025000" lon="11.625970">
						<ele>298</ele>
						<time>2026-05-05T00:12:55Z</time>
					</trkpt>
					<trkpt lat="43.024930" lon="11.625900">
						<ele>299</ele>
						<time>2026-05-05T00:12:56Z</time>
					</trkpt>
					<trkpt lat="43.024860" lon="11.625870">
						<ele>300</ele>
						<time>2026-05-05T00:12:58Z</time>
					</trkpt>
					<trkpt lat="43.024800" lon="11.625870">
						<ele>301</ele>
						<time>2026-05-05T00:12:59Z</time>
					</trkpt>
					<trkpt lat="43.024760" lon="11.625880">
						<ele>301</ele>
						<time>2026-05-05T00:12:59Z</time>
					</trkpt>
					<trkpt lat="43.024700" lon="11.625920">
						<ele>302</ele>
						<time>2026-05-05T00:13:01Z</time>
					</trkpt>
					<trkpt lat="43.024610" lon="11.626010">
						<ele>303</ele>
						<time>2026-05-05T00:13:03Z</time>
					</trkpt>
					<trkpt lat="43.024470" lon="11.626200">
						<ele>303</ele>
						<time>2026-05-05T00:13:06Z</time>
					</trkpt>
					<trkpt lat="43.024410" lon="11.626250">
						<ele>304</ele>
						<time>2026-05-05T00:13:07Z</time>
					</trkpt>
					<trkpt lat="43.024350" lon="11.626270">
						<ele>304</ele>
						<time>2026-05-05T00:13:09Z</time>
					</trkpt>
					<trkpt lat="43.024110" lon="11.626310">
						<ele>306</ele>
						<time>2026-05-05T00:13:13Z</time>
					</trkpt>
					<trkpt lat="43.023880" lon="11.626330">
						<ele>307</ele>
						<time>2026-05-05T00:13:17Z</time>
					</trkpt>
					<trkpt lat="43.023750" lon="11.626330">
						<ele>308</ele>
						<time>2026-05-05T00:13:19Z</time>
					</trkpt>
					<trkpt lat="43.023520" lon="11.626280">
						<ele>310</ele>
						<time>2026-05-05T00:13:23Z</time>
					</trkpt>
					<trkpt lat="43.023330" lon="11.626210">
						<ele>312</ele>
						<time>2026-05-05T00:13:27Z</time>
					</trkpt>
					<trkpt lat="43.023240" lon="11.626170">
						<ele>312</ele>
						<time>2026-05-05T00:13:29Z</time>
					</trkpt>
					<trkpt lat="43.023150" lon="11.626100">
						<ele>312</ele>
						<time>2026-05-05T00:13:30Z</time>
					</trkpt>
					<trkpt lat="43.022970" lon="11.625880">
						<ele>314</ele>
						<time>2026-05-05T00:13:35Z</time>
					</trkpt>
					<trkpt lat="43.022850" lon="11.625750">
						<ele>316</ele>
						<time>2026-05-05T00:13:37Z</time>
					</trkpt>
					<trkpt lat="43.021600" lon="11.624610">
						<ele>329</ele>
						<time>2026-05-05T00:14:04Z</time>
					</trkpt>
					<trkpt lat="43.021510" lon="11.624550">
						<ele>330</ele>
						<time>2026-05-05T00:14:06Z</time>
					</trkpt>
					<trkpt lat="43.021420" lon="11.624510">
						<ele>331</ele>
						<time>2026-05-05T00:14:08Z</time>
					</trkpt>
					<trkpt lat="43.020600" lon="11.624260">
						<ele>336</ele>
						<time>2026-05-05T00:14:23Z</time>
					</trkpt>
					<trkpt lat="43.020530" lon="11.624230">
						<ele>337</ele>
						<time>2026-05-05T00:14:24Z</time>
					</trkpt>
					<trkpt lat="43.020460" lon="11.624170">
						<ele>338</ele>
						<time>2026-05-05T00:14:25Z</time>
					</trkpt>
					<trkpt lat="43.020440" lon="11.624090">
						<ele>339</ele>
						<time>2026-05-05T00:14:26Z</time>
					</trkpt>
					<trkpt lat="43.020440" lon="11.624030">
						<ele>340</ele>
						<time>2026-05-05T00:14:27Z</time>
					</trkpt>
					<trkpt lat="43.020450" lon="11.623990">
						<ele>341</ele>
						<time>2026-05-05T00:14:28Z</time>
					</trkpt>
					<trkpt lat="43.020500" lon="11.623930">
						<ele>341</ele>
						<time>2026-05-05T00:14:29Z</time>
					</trkpt>
					<trkpt lat="43.020590" lon="11.623900">
						<ele>341</ele>
						<time>2026-05-05T00:14:31Z</time>
					</trkpt>
					<trkpt lat="43.020700" lon="11.623900">
						<ele>341</ele>
						<time>2026-05-05T00:14:33Z</time>
					</trkpt>
					<trkpt lat="43.021050" lon="11.623930">
						<ele>340</ele>
						<time>2026-05-05T00:14:39Z</time>
					</trkpt>
					<trkpt lat="43.021380" lon="11.623970">
						<ele>339</ele>
						<time>2026-05-05T00:14:45Z</time>
					</trkpt>
					<trkpt lat="43.021460" lon="11.623960">
						<ele>339</ele>
						<time>2026-05-05T00:14:46Z</time>
					</trkpt>
					<trkpt lat="43.021510" lon="11.623950">
						<ele>339</ele>
						<time>2026-05-05T00:14:47Z</time>
					</trkpt>
					<trkpt lat="43.021570" lon="11.623900">
						<ele>340</ele>
						<time>2026-05-05T00:14:48Z</time>
					</trkpt>
					<trkpt lat="43.021590" lon="11.623870">
						<ele>340</ele>
						<time>2026-05-05T00:14:49Z</time>
					</trkpt>
					<trkpt lat="43.021600" lon="11.623820">
						<ele>341</ele>
						<time>2026-05-05T00:14:49Z</time>
					</trkpt>
					<trkpt lat="43.021610" lon="11.623770">
						<ele>341</ele>
						<time>2026-05-05T00:14:50Z</time>
					</trkpt>
					<trkpt lat="43.021600" lon="11.623720">
						<ele>342</ele>
						<time>2026-05-05T00:14:51Z</time>
					</trkpt>
					<trkpt lat="43.021590" lon="11.623680">
						<ele>343</ele>
						<time>2026-05-05T00:14:51Z</time>
					</trkpt>
					<trkpt lat="43.021560" lon="11.623640">
						<ele>343</ele>
						<time>2026-05-05T00:14:52Z</time>
					</trkpt>
					<trkpt lat="43.021490" lon="11.623590">
						<ele>344</ele>
						<time>2026-05-05T00:14:54Z</time>
					</trkpt>
					<trkpt lat="43.021420" lon="11.623560">
						<ele>344</ele>
						<time>2026-05-05T00:14:55Z</time>
					</trkpt>
					<trkpt lat="43.020630" lon="11.623310">
						<ele>348</ele>
						<time>2026-05-05T00:15:09Z</time>
					</trkpt>
					<trkpt lat="43.020480" lon="11.623290">
						<ele>349</ele>
						<time>2026-05-05T00:15:12Z</time>
					</trkpt>
					<trkpt lat="43.020220" lon="11.623310">
						<ele>349</ele>
						<time>2026-05-05T00:15:17Z</time>
					</trkpt>
					<trkpt lat="43.020150" lon="11.623310">
						<ele>349</ele>
						<time>2026-05-05T00:15:18Z</time>
					</trkpt>
					<trkpt lat="43.020110" lon="11.623290">
						<ele>349</ele>
						<time>2026-05-05T00:15:19Z</time>
					</trkpt>
					<trkpt lat="43.020050" lon="11.623240">
						<ele>350</ele>
						<time>2026-05-05T00:15:20Z</time>
					</trkpt>
					<trkpt lat="43.020010" lon="11.623160">
						<ele>350</ele>
						<time>2026-05-05T00:15:21Z</time>
					</trkpt>
					<trkpt lat="43.019990" lon="11.623060">
						<ele>351</ele>
						<time>2026-05-05T00:15:22Z</time>
					</trkpt>
					<trkpt lat="43.019940" lon="11.622830">
						<ele>353</ele>
						<time>2026-05-05T00:15:26Z</time>
					</trkpt>
					<trkpt lat="43.019900" lon="11.622670">
						<ele>354</ele>
						<time>2026-05-05T00:15:28Z</time>
					</trkpt>
					<trkpt lat="43.019860" lon="11.622530">
						<ele>355</ele>
						<time>2026-05-05T00:15:30Z</time>
					</trkpt>
					<trkpt lat="43.019650" lon="11.621980">
						<ele>354</ele>
						<time>2026-05-05T00:15:38Z</time>
					</trkpt>
					<trkpt lat="43.019570" lon="11.621820">
						<ele>354</ele>
						<time>2026-05-05T00:15:40Z</time>
					</trkpt>
					<trkpt lat="43.019450" lon="11.621670">
						<ele>354</ele>
						<time>2026-05-05T00:15:43Z</time>
					</trkpt>
					<trkpt lat="43.019290" lon="11.621570">
						<ele>354</ele>
						<time>2026-05-05T00:15:46Z</time>
					</trkpt>
					<trkpt lat="43.018640" lon="11.621230">
						<ele>356</ele>
						<time>2026-05-05T00:15:59Z</time>
					</trkpt>
					<trkpt lat="43.018070" lon="11.620870">
						<ele>364</ele>
						<time>2026-05-05T00:16:10Z</time>
					</trkpt>
					<trkpt lat="43.017110" lon="11.620510">
						<ele>377</ele>
						<time>2026-05-05T00:16:28Z</time>
					</trkpt>
					<trkpt lat="43.016680" lon="11.620310">
						<ele>383</ele>
						<time>2026-05-05T00:16:36Z</time>
					</trkpt>
					<trkpt lat="43.016640" lon="11.620290">
						<ele>383</ele>
						<time>2026-05-05T00:16:36Z</time>
					</trkpt>
					<trkpt lat="43.016020" lon="11.619800">
						<ele>387</ele>
						<time>2026-05-05T00:16:49Z</time>
					</trkpt>
					<trkpt lat="43.015550" lon="11.619430">
						<ele>391</ele>
						<time>2026-05-05T00:16:59Z</time>
					</trkpt>
					<trkpt lat="43.015180" lon="11.619060">
						<ele>392</ele>
						<time>2026-05-05T00:17:07Z</time>
					</trkpt>
					<trkpt lat="43.015040" lon="11.618980">
						<ele>393</ele>
						<time>2026-05-05T00:17:10Z</time>
					</trkpt>
					<trkpt lat="43.014860" lon="11.618980">
						<ele>396</ele>
						<time>2026-05-05T00:17:13Z</time>
					</trkpt>
					<trkpt lat="43.014520" lon="11.619060">
						<ele>402</ele>
						<time>2026-05-05T00:17:19Z</time>
					</trkpt>
					<trkpt lat="43.014200" lon="11.619090">
						<ele>407</ele>
						<time>2026-05-05T00:17:25Z</time>
					</trkpt>
					<trkpt lat="43.013990" lon="11.619040">
						<ele>411</ele>
						<time>2026-05-05T00:17:29Z</time>
					</trkpt>
					<trkpt lat="43.013830" lon="11.618960">
						<ele>413</ele>
						<time>2026-05-05T00:17:32Z</time>
					</trkpt>
					<trkpt lat="43.013690" lon="11.618840">
						<ele>415</ele>
						<time>2026-05-05T00:17:34Z</time>
					</trkpt>
					<trkpt lat="43.013500" lon="11.618340">
						<ele>411</ele>
						<time>2026-05-05T00:17:42Z</time>
					</trkpt>
					<trkpt lat="43.013320" lon="11.617970">
						<ele>412</ele>
						<time>2026-05-05T00:17:48Z</time>
					</trkpt>
					<trkpt lat="43.013150" lon="11.617800">
						<ele>414</ele>
						<time>2026-05-05T00:17:51Z</time>
					</trkpt>
					<trkpt lat="43.012940" lon="11.617730">
						<ele>416</ele>
						<time>2026-05-05T00:17:55Z</time>
					</trkpt>
					<trkpt lat="43.012390" lon="11.617620">
						<ele>421</ele>
						<time>2026-05-05T00:18:05Z</time>
					</trkpt>
					<trkpt lat="43.012330" lon="11.617600">
						<ele>422</ele>
						<time>2026-05-05T00:18:06Z</time>
					</trkpt>
					<trkpt lat="43.011890" lon="11.617420">
						<ele>426</ele>
						<time>2026-05-05T00:18:14Z</time>
					</trkpt>
					<trkpt lat="43.011810" lon="11.617390">
						<ele>427</ele>
						<time>2026-05-05T00:18:16Z</time>
					</trkpt>
					<trkpt lat="43.011750" lon="11.617380">
						<ele>428</ele>
						<time>2026-05-05T00:18:17Z</time>
					</trkpt>
					<trkpt lat="43.011780" lon="11.617340">
						<ele>428</ele>
						<time>2026-05-05T00:18:18Z</time>
					</trkpt>
					<trkpt lat="43.011800" lon="11.617250">
						<ele>428</ele>
						<time>2026-05-05T00:18:19Z</time>
					</trkpt>
					<trkpt lat="43.011740" lon="11.617050">
						<ele>430</ele>
						<time>2026-05-05T00:18:22Z</time>
					</trkpt>
					<trkpt lat="43.011740" lon="11.616820">
						<ele>432</ele>
						<time>2026-05-05T00:18:25Z</time>
					</trkpt>
					<trkpt lat="43.011780" lon="11.616350">
						<ele>439</ele>
						<time>2026-05-05T00:18:31Z</time>
					</trkpt>
					<trkpt lat="43.011770" lon="11.616290">
						<ele>441</ele>
						<time>2026-05-05T00:18:32Z</time>
					</trkpt>
					<trkpt lat="43.011760" lon="11.616250">
						<ele>442</ele>
						<time>2026-05-05T00:18:32Z</time>
					</trkpt>
					<trkpt lat="43.011740" lon="11.616250">
						<ele>443</ele>
						<time>2026-05-05T00:18:33Z</time>
					</trkpt>
					<trkpt lat="43.011660" lon="11.616280">
						<ele>444</ele>
						<time>2026-05-05T00:18:34Z</time>
					</trkpt>
					<trkpt lat="43.011560" lon="11.616390">
						<ele>443</ele>
						<time>2026-05-05T00:18:36Z</time>
					</trkpt>
					<trkpt lat="43.011480" lon="11.616440">
						<ele>444</ele>
						<time>2026-05-05T00:18:38Z</time>
					</trkpt>
					<trkpt lat="43.011250" lon="11.616440">
						<ele>450</ele>
						<time>2026-05-05T00:18:42Z</time>
					</trkpt>
					<trkpt lat="43.010980" lon="11.616490">
						<ele>455</ele>
						<time>2026-05-05T00:18:47Z</time>
					</trkpt>
					<trkpt lat="43.010930" lon="11.616520">
						<ele>455</ele>
						<time>2026-05-05T00:18:48Z</time>
					</trkpt>
					<trkpt lat="43.010890" lon="11.616580">
						<ele>455</ele>
						<time>2026-05-05T00:18:49Z</time>
					</trkpt>
					<trkpt lat="43.010810" lon="11.616740">
						<ele>453</ele>
						<time>2026-05-05T00:18:51Z</time>
					</trkpt>
					<trkpt lat="43.010760" lon="11.616810">
						<ele>453</ele>
						<time>2026-05-05T00:18:53Z</time>
					</trkpt>
					<trkpt lat="43.010710" lon="11.616840">
						<ele>454</ele>
						<time>2026-05-05T00:18:54Z</time>
					</trkpt>
					<trkpt lat="43.010670" lon="11.616860">
						<ele>454</ele>
						<time>2026-05-05T00:18:54Z</time>
					</trkpt>
					<trkpt lat="43.010620" lon="11.616860">
						<ele>455</ele>
						<time>2026-05-05T00:18:55Z</time>
					</trkpt>
					<trkpt lat="43.010380" lon="11.616810">
						<ele>460</ele>
						<time>2026-05-05T00:19:00Z</time>
					</trkpt>
					<trkpt lat="43.010310" lon="11.616770">
						<ele>462</ele>
						<time>2026-05-05T00:19:01Z</time>
					</trkpt>
					<trkpt lat="43.010200" lon="11.616690">
						<ele>464</ele>
						<time>2026-05-05T00:19:03Z</time>
					</trkpt>
					<trkpt lat="43.010090" lon="11.616570">
						<ele>467</ele>
						<time>2026-05-05T00:19:06Z</time>
					</trkpt>
					<trkpt lat="43.010060" lon="11.616520">
						<ele>468</ele>
						<time>2026-05-05T00:19:06Z</time>
					</trkpt>
					<trkpt lat="43.010050" lon="11.616430">
						<ele>469</ele>
						<time>2026-05-05T00:19:08Z</time>
					</trkpt>
					<trkpt lat="43.010070" lon="11.616290">
						<ele>471</ele>
						<time>2026-05-05T00:19:10Z</time>
					</trkpt>
					<trkpt lat="43.010110" lon="11.615820">
						<ele>477</ele>
						<time>2026-05-05T00:19:16Z</time>
					</trkpt>
					<trkpt lat="43.010110" lon="11.615750">
						<ele>480</ele>
						<time>2026-05-05T00:19:17Z</time>
					</trkpt>
					<trkpt lat="43.010090" lon="11.615700">
						<ele>482</ele>
						<time>2026-05-05T00:19:17Z</time>
					</trkpt>
					<trkpt lat="43.010150" lon="11.615650">
						<ele>484</ele>
						<time>2026-05-05T00:19:19Z</time>
					</trkpt>
					<trkpt lat="43.010190" lon="11.615640">
						<ele>484</ele>
						<time>2026-05-05T00:19:19Z</time>
					</trkpt>
					<trkpt lat="43.010600" lon="11.615620">
						<ele>482</ele>
						<time>2026-05-05T00:19:27Z</time>
					</trkpt>
					<trkpt lat="43.010680" lon="11.615590">
						<ele>483</ele>
						<time>2026-05-05T00:19:28Z</time>
					</trkpt>
					<trkpt lat="43.010830" lon="11.615520">
						<ele>484</ele>
						<time>2026-05-05T00:19:31Z</time>
					</trkpt>
					<trkpt lat="43.011140" lon="11.615400">
						<ele>480</ele>
						<time>2026-05-05T00:19:37Z</time>
					</trkpt>
					<trkpt lat="43.011240" lon="11.615330">
						<ele>480</ele>
						<time>2026-05-05T00:19:39Z</time>
					</trkpt>
					<trkpt lat="43.011310" lon="11.615250">
						<ele>481</ele>
						<time>2026-05-05T00:19:40Z</time>
					</trkpt>
					<trkpt lat="43.011340" lon="11.615190">
						<ele>482</ele>
						<time>2026-05-05T00:19:41Z</time>
					</trkpt>
					<trkpt lat="43.011540" lon="11.614570">
						<ele>488</ele>
						<time>2026-05-05T00:19:50Z</time>
					</trkpt>
					<trkpt lat="43.011540" lon="11.614480">
						<ele>489</ele>
						<time>2026-05-05T00:19:51Z</time>
					</trkpt>
					<trkpt lat="43.011540" lon="11.614430">
						<ele>490</ele>
						<time>2026-05-05T00:19:52Z</time>
					</trkpt>
					<trkpt lat="43.011490" lon="11.614150">
						<ele>494</ele>
						<time>2026-05-05T00:19:56Z</time>
					</trkpt>
					<trkpt lat="43.011460" lon="11.614020">
						<ele>491</ele>
						<time>2026-05-05T00:19:57Z</time>
					</trkpt>
					<trkpt lat="43.011390" lon="11.613870">
						<ele>490</ele>
						<time>2026-05-05T00:20:00Z</time>
					</trkpt>
					<trkpt lat="43.011310" lon="11.613740">
						<ele>490</ele>
						<time>2026-05-05T00:20:02Z</time>
					</trkpt>
					<trkpt lat="43.010920" lon="11.613240">
						<ele>495</ele>
						<time>2026-05-05T00:20:11Z</time>
					</trkpt>
					<trkpt lat="43.010860" lon="11.613190">
						<ele>495</ele>
						<time>2026-05-05T00:20:13Z</time>
					</trkpt>
					<trkpt lat="43.010770" lon="11.613120">
						<ele>494</ele>
						<time>2026-05-05T00:20:14Z</time>
					</trkpt>
					<trkpt lat="43.010750" lon="11.613210">
						<ele>498</ele>
						<time>2026-05-05T00:20:16Z</time>
					</trkpt>
					<trkpt lat="43.010770" lon="11.613290">
						<ele>502</ele>
						<time>2026-05-05T00:20:17Z</time>
					</trkpt>
					<trkpt lat="43.010860" lon="11.613540">
						<ele>505</ele>
						<time>2026-05-05T00:20:20Z</time>
					</trkpt>
					<trkpt lat="43.010940" lon="11.613720">
						<ele>504</ele>
						<time>2026-05-05T00:20:23Z</time>
					</trkpt>
					<trkpt lat="43.010980" lon="11.613790">
						<ele>504</ele>
						<time>2026-05-05T00:20:24Z</time>
					</trkpt>
					<trkpt lat="43.011180" lon="11.614210">
						<ele>504</ele>
						<time>2026-05-05T00:20:31Z</time>
					</trkpt>
					<trkpt lat="43.011200" lon="11.614280">
						<ele>502</ele>
						<time>2026-05-05T00:20:32Z</time>
					</trkpt>
					<trkpt lat="43.011200" lon="11.614360">
						<ele>501</ele>
						<time>2026-05-05T00:20:33Z</time>
					</trkpt>
					<trkpt lat="43.011180" lon="11.614470">
						<ele>500</ele>
						<time>2026-05-05T00:20:34Z</time>
					</trkpt>
					<trkpt lat="43.011160" lon="11.614500">
						<ele>500</ele>
						<time>2026-05-05T00:20:35Z</time>
					</trkpt>
					<trkpt lat="43.011150" lon="11.614500">
						<ele>500</ele>
						<time>2026-05-05T00:20:35Z</time>
					</trkpt>
					<trkpt lat="43.011130" lon="11.614490">
						<ele>501</ele>
						<time>2026-05-05T00:20:35Z</time>
					</trkpt>
					<trkpt lat="43.011120" lon="11.614470">
						<ele>501</ele>
						<time>2026-05-05T00:20:36Z</time>
					</trkpt>
					<trkpt lat="43.011060" lon="11.614270">
						<ele>506</ele>
						<time>2026-05-05T00:20:39Z</time>
					</trkpt>
					<trkpt lat="43.011020" lon="11.614200">
						<ele>509</ele>
						<time>2026-05-05T00:20:40Z</time>
					</trkpt>
					<trkpt lat="43.010970" lon="11.614130">
						<ele>510</ele>
						<time>2026-05-05T00:20:41Z</time>
					</trkpt>
					<trkpt lat="43.010880" lon="11.614050">
						<ele>512</ele>
						<time>2026-05-05T00:20:43Z</time>
					</trkpt>
					<trkpt lat="43.010710" lon="11.613920">
						<ele>514</ele>
						<time>2026-05-05T00:20:46Z</time>
					</trkpt>
					<trkpt lat="43.010520" lon="11.613750">
						<ele>514</ele>
						<time>2026-05-05T00:20:50Z</time>
					</trkpt>
					<trkpt lat="43.010400" lon="11.613680">
						<ele>514</ele>
						<time>2026-05-05T00:20:53Z</time>
					</trkpt>
					<trkpt lat="43.010310" lon="11.613660">
						<ele>515</ele>
						<time>2026-05-05T00:20:54Z</time>
					</trkpt>
					<trkpt lat="43.010260" lon="11.613670">
						<ele>516</ele>
						<time>2026-05-05T00:20:55Z</time>
					</trkpt>
					<trkpt lat="43.010010" lon="11.613690">
						<ele>520</ele>
						<time>2026-05-05T00:21:00Z</time>
					</trkpt>
					<trkpt lat="43.009910" lon="11.613700">
						<ele>520</ele>
						<time>2026-05-05T00:21:01Z</time>
					</trkpt>
					<trkpt lat="43.009790" lon="11.613750">
						<ele>522</ele>
						<time>2026-05-05T00:21:04Z</time>
					</trkpt>
					<trkpt lat="43.009670" lon="11.613790">
						<ele>524</ele>
						<time>2026-05-05T00:21:06Z</time>
					</trkpt>
					<trkpt lat="43.009580" lon="11.613810">
						<ele>525</ele>
						<time>2026-05-05T00:21:08Z</time>
					</trkpt>
					<trkpt lat="43.009510" lon="11.613810">
						<ele>525</ele>
						<time>2026-05-05T00:21:09Z</time>
					</trkpt>
					<trkpt lat="43.009310" lon="11.613760">
						<ele>524</ele>
						<time>2026-05-05T00:21:12Z</time>
					</trkpt>
					<trkpt lat="43.009210" lon="11.613740">
						<ele>524</ele>
						<time>2026-05-05T00:21:14Z</time>
					</trkpt>
					<trkpt lat="43.009100" lon="11.613760">
						<ele>523</ele>
						<time>2026-05-05T00:21:16Z</time>
					</trkpt>
					<trkpt lat="43.008850" lon="11.613910">
						<ele>522</ele>
						<time>2026-05-05T00:21:21Z</time>
					</trkpt>
					<trkpt lat="43.008680" lon="11.614010">
						<ele>521</ele>
						<time>2026-05-05T00:21:24Z</time>
					</trkpt>
					<trkpt lat="43.008590" lon="11.614070">
						<ele>520</ele>
						<time>2026-05-05T00:21:26Z</time>
					</trkpt>
					<trkpt lat="43.008520" lon="11.614140">
						<ele>520</ele>
						<time>2026-05-05T00:21:28Z</time>
					</trkpt>
					<trkpt lat="43.008450" lon="11.614230">
						<ele>519</ele>
						<time>2026-05-05T00:21:29Z</time>
					</trkpt>
					<trkpt lat="43.008180" lon="11.614620">
						<ele>516</ele>
						<time>2026-05-05T00:21:36Z</time>
					</trkpt>
					<trkpt lat="43.008010" lon="11.614740">
						<ele>517</ele>
						<time>2026-05-05T00:21:40Z</time>
					</trkpt>
					<trkpt lat="43.007900" lon="11.614860">
						<ele>518</ele>
						<time>2026-05-05T00:21:42Z</time>
					</trkpt>
					<trkpt lat="43.007850" lon="11.614920">
						<ele>518</ele>
						<time>2026-05-05T00:21:43Z</time>
					</trkpt>
					<trkpt lat="43.007760" lon="11.615040">
						<ele>520</ele>
						<time>2026-05-05T00:21:46Z</time>
					</trkpt>
					<trkpt lat="43.007720" lon="11.615140">
						<ele>520</ele>
						<time>2026-05-05T00:21:47Z</time>
					</trkpt>
					<trkpt lat="43.007660" lon="11.615110">
						<ele>521</ele>
						<time>2026-05-05T00:21:48Z</time>
					</trkpt>
					<trkpt lat="43.007600" lon="11.615090">
						<ele>521</ele>
						<time>2026-05-05T00:21:49Z</time>
					</trkpt>
					<trkpt lat="43.007460" lon="11.615070">
						<ele>522</ele>
						<time>2026-05-05T00:21:52Z</time>
					</trkpt>
					<trkpt lat="43.007440" lon="11.615070">
						<ele>522</ele>
						<time>2026-05-05T00:21:52Z</time>
					</trkpt>
					<trkpt lat="43.006870" lon="11.615020">
						<ele>528</ele>
						<time>2026-05-05T00:22:02Z</time>
					</trkpt>
					<trkpt lat="43.006580" lon="11.614930">
						<ele>530</ele>
						<time>2026-05-05T00:22:08Z</time>
					</trkpt>
					<trkpt lat="43.006560" lon="11.614930">
						<ele>530</ele>
						<time>2026-05-05T00:22:08Z</time>
					</trkpt>
					<trkpt lat="43.006370" lon="11.614870">
						<ele>531</ele>
						<time>2026-05-05T00:22:12Z</time>
					</trkpt>
					<trkpt lat="43.006240" lon="11.614850">
						<ele>532</ele>
						<time>2026-05-05T00:22:14Z</time>
					</trkpt>
					<trkpt lat="43.006080" lon="11.614890">
						<ele>535</ele>
						<time>2026-05-05T00:22:17Z</time>
					</trkpt>
					<trkpt lat="43.005820" lon="11.614990">
						<ele>540</ele>
						<time>2026-05-05T00:22:22Z</time>
					</trkpt>
					<trkpt lat="43.005840" lon="11.615000">
						<ele>540</ele>
						<time>2026-05-05T00:22:22Z</time>
					</trkpt>
					<trkpt lat="43.005880" lon="11.615040">
						<ele>540</ele>
						<time>2026-05-05T00:22:23Z</time>
					</trkpt>
					<trkpt lat="43.005990" lon="11.615090">
						<ele>538</ele>
						<time>2026-05-05T00:22:25Z</time>
					</trkpt>
					<trkpt lat="43.006010" lon="11.615120">
						<ele>538</ele>
						<time>2026-05-05T00:22:25Z</time>
					</trkpt>
					<trkpt lat="43.006020" lon="11.615150">
						<ele>538</ele>
						<time>2026-05-05T00:22:26Z</time>
					</trkpt>
					<trkpt lat="43.006030" lon="11.615220">
						<ele>539</ele>
						<time>2026-05-05T00:22:27Z</time>
					</trkpt>
					<trkpt lat="43.006040" lon="11.615260">
						<ele>539</ele>
						<time>2026-05-05T00:22:27Z</time>
					</trkpt>
					<trkpt lat="43.005980" lon="11.615640">
						<ele>541</ele>
						<time>2026-05-05T00:22:32Z</time>
					</trkpt>
					<trkpt lat="43.005890" lon="11.615960">
						<ele>539</ele>
						<time>2026-05-05T00:22:37Z</time>
					</trkpt>
					<trkpt lat="43.005860" lon="11.616040">
						<ele>538</ele>
						<time>2026-05-05T00:22:38Z</time>
					</trkpt>
					<trkpt lat="43.005830" lon="11.616070">
						<ele>537</ele>
						<time>2026-05-05T00:22:39Z</time>
					</trkpt>
					<trkpt lat="43.005710" lon="11.616190">
						<ele>535</ele>
						<time>2026-05-05T00:22:41Z</time>
					</trkpt>
					<trkpt lat="43.005530" lon="11.616350">
						<ele>532</ele>
						<time>2026-05-05T00:22:45Z</time>
					</trkpt>
					<trkpt lat="43.005430" lon="11.616430">
						<ele>531</ele>
						<time>2026-05-05T00:22:47Z</time>
					</trkpt>
					<trkpt lat="43.005240" lon="11.616480">
						<ele>530</ele>
						<time>2026-05-05T00:22:51Z</time>
					</trkpt>
					<trkpt lat="43.005140" lon="11.616480">
						<ele>531</ele>
						<time>2026-05-05T00:22:52Z</time>
					</trkpt>
					<trkpt lat="43.004890" lon="11.616430">
						<ele>531</ele>
						<time>2026-05-05T00:22:57Z</time>
					</trkpt>
					<trkpt lat="43.004700" lon="11.616420">
						<ele>530</ele>
						<time>2026-05-05T00:23:00Z</time>
					</trkpt>
					<trkpt lat="43.004530" lon="11.616390">
						<ele>529</ele>
						<time>2026-05-05T00:23:03Z</time>
					</trkpt>
					<trkpt lat="43.004420" lon="11.616380">
						<ele>528</ele>
						<time>2026-05-05T00:23:05Z</time>
					</trkpt>
					<trkpt lat="43.004280" lon="11.616390">
						<ele>527</ele>
						<time>2026-05-05T00:23:08Z</time>
					</trkpt>
					</trkseg>
				</trk>
			</gpx>